<?xml version="1.0" encoding="UTF-8" standalone="no" ?>
<gpx xmlns="http://www.topografix.com/GPX/1/1" xmlns:xsi="http://www.w3.org/2001/XMLSchema-instance" xsi:schemaLocation="http://www.topografix.com/GPX/1/1 http://www.topografix.com/GPX/1/1/gpx.xsd" version="1.1" creator="VisuGPX - https://www.visugpx.com">
  <metadata>
    <name>Seyssuel Oeillon</name>
  </metadata>
  <trk>
    <name><![CDATA[20210719_085354.gpx]]></name>
    <trkseg>
      <trkpt lat="45.56064" lon="4.84269">
        <ele>263.16977</ele>
        <time>2021-07-19T06:53:55Z</time>
      </trkpt>
      <trkpt lat="45.56066" lon="4.84276">
        <ele>262.64658</ele>
        <time>2021-07-19T06:53:57Z</time>
      </trkpt>
      <trkpt lat="45.56066" lon="4.84276">
        <ele>262.64658</ele>
        <time>2021-07-19T06:53:57Z</time>
      </trkpt>
      <trkpt lat="45.56066" lon="4.84276">
        <ele>262.64658</ele>
        <time>2021-07-19T06:53:57Z</time>
      </trkpt>
      <trkpt lat="45.56066" lon="4.84271">
        <ele>262.59372</ele>
        <time>2021-07-19T06:53:59Z</time>
      </trkpt>
      <trkpt lat="45.56049" lon="4.84263">
        <ele>262.69412</ele>
        <time>2021-07-19T06:54:00Z</time>
      </trkpt>
      <trkpt lat="45.56035" lon="4.84276">
        <ele>262.69412</ele>
        <time>2021-07-19T06:54:02Z</time>
      </trkpt>
      <trkpt lat="45.5604" lon="4.84282">
        <ele>262.65186</ele>
        <time>2021-07-19T06:54:03Z</time>
      </trkpt>
      <trkpt lat="45.56042" lon="4.84283">
        <ele>262.62543</ele>
        <time>2021-07-19T06:54:04Z</time>
      </trkpt>
      <trkpt lat="45.56043" lon="4.84284">
        <ele>262.6994</ele>
        <time>2021-07-19T06:54:05Z</time>
      </trkpt>
      <trkpt lat="45.56042" lon="4.84284">
        <ele>262.71527</ele>
        <time>2021-07-19T06:54:06Z</time>
      </trkpt>
      <trkpt lat="45.56039" lon="4.84282">
        <ele>262.65714</ele>
        <time>2021-07-19T06:54:07Z</time>
      </trkpt>
      <trkpt lat="45.56039" lon="4.84283">
        <ele>262.5673</ele>
        <time>2021-07-19T06:54:08Z</time>
      </trkpt>
      <trkpt lat="45.56039" lon="4.84281">
        <ele>262.60428</ele>
        <time>2021-07-19T06:54:09Z</time>
      </trkpt>
      <trkpt lat="45.56039" lon="4.84281">
        <ele>262.60428</ele>
        <time>2021-07-19T06:54:09Z</time>
      </trkpt>
      <trkpt lat="45.56039" lon="4.84281">
        <ele>262.60428</ele>
        <time>2021-07-19T06:54:09Z</time>
      </trkpt>
      <trkpt lat="45.56061" lon="4.84285">
        <ele>261.93845</ele>
        <time>2021-07-19T06:59:57Z</time>
      </trkpt>
      <trkpt lat="45.56075" lon="4.84291">
        <ele>261.55795</ele>
        <time>2021-07-19T06:59:59Z</time>
      </trkpt>
      <trkpt lat="45.56088" lon="4.84293">
        <ele>261.40997</ele>
        <time>2021-07-19T07:00:01Z</time>
      </trkpt>
      <trkpt lat="45.56097" lon="4.84298">
        <ele>260.65955</ele>
        <time>2021-07-19T07:00:03Z</time>
      </trkpt>
      <trkpt lat="45.56107" lon="4.84301">
        <ele>260.2685</ele>
        <time>2021-07-19T07:00:05Z</time>
      </trkpt>
      <trkpt lat="45.5611" lon="4.8431">
        <ele>260.2896</ele>
        <time>2021-07-19T07:00:07Z</time>
      </trkpt>
      <trkpt lat="45.5611" lon="4.84318">
        <ele>260.37946</ele>
        <time>2021-07-19T07:00:08Z</time>
      </trkpt>
      <trkpt lat="45.56109" lon="4.84325">
        <ele>260.34775</ele>
        <time>2021-07-19T07:00:09Z</time>
      </trkpt>
      <trkpt lat="45.56107" lon="4.84333">
        <ele>260.45343</ele>
        <time>2021-07-19T07:00:10Z</time>
      </trkpt>
      <trkpt lat="45.56104" lon="4.84349">
        <ele>260.5803</ele>
        <time>2021-07-19T07:00:12Z</time>
      </trkpt>
      <trkpt lat="45.56101" lon="4.84365">
        <ele>260.83392</ele>
        <time>2021-07-19T07:00:14Z</time>
      </trkpt>
      <trkpt lat="45.56098" lon="4.84382">
        <ele>260.81808</ele>
        <time>2021-07-19T07:00:16Z</time>
      </trkpt>
      <trkpt lat="45.56094" lon="4.84399">
        <ele>260.7018</ele>
        <time>2021-07-19T07:00:18Z</time>
      </trkpt>
      <trkpt lat="45.5609" lon="4.84415">
        <ele>260.83392</ele>
        <time>2021-07-19T07:00:20Z</time>
      </trkpt>
      <trkpt lat="45.56088" lon="4.84423">
        <ele>260.93436</ele>
        <time>2021-07-19T07:00:21Z</time>
      </trkpt>
      <trkpt lat="45.56085" lon="4.84431">
        <ele>261.10873</ele>
        <time>2021-07-19T07:00:22Z</time>
      </trkpt>
      <trkpt lat="45.56082" lon="4.84439">
        <ele>260.99777</ele>
        <time>2021-07-19T07:00:23Z</time>
      </trkpt>
      <trkpt lat="45.5608" lon="4.84446">
        <ele>261.02948</ele>
        <time>2021-07-19T07:00:24Z</time>
      </trkpt>
      <trkpt lat="45.56078" lon="4.84453">
        <ele>260.93964</ele>
        <time>2021-07-19T07:00:25Z</time>
      </trkpt>
      <trkpt lat="45.56076" lon="4.8446">
        <ele>260.8445</ele>
        <time>2021-07-19T07:00:26Z</time>
      </trkpt>
      <trkpt lat="45.56074" lon="4.84466">
        <ele>260.7018</ele>
        <time>2021-07-19T07:00:27Z</time>
      </trkpt>
      <trkpt lat="45.56073" lon="4.84472">
        <ele>260.6754</ele>
        <time>2021-07-19T07:00:28Z</time>
      </trkpt>
      <trkpt lat="45.56072" lon="4.84478">
        <ele>260.6754</ele>
        <time>2021-07-19T07:00:29Z</time>
      </trkpt>
      <trkpt lat="45.5607" lon="4.84485">
        <ele>260.78638</ele>
        <time>2021-07-19T07:00:30Z</time>
      </trkpt>
      <trkpt lat="45.56069" lon="4.84493">
        <ele>260.69653</ele>
        <time>2021-07-19T07:00:31Z</time>
      </trkpt>
      <trkpt lat="45.56068" lon="4.845">
        <ele>260.81808</ele>
        <time>2021-07-19T07:00:32Z</time>
      </trkpt>
      <trkpt lat="45.56068" lon="4.84508">
        <ele>261.1193</ele>
        <time>2021-07-19T07:00:33Z</time>
      </trkpt>
      <trkpt lat="45.56067" lon="4.84516">
        <ele>261.07703</ele>
        <time>2021-07-19T07:00:34Z</time>
      </trkpt>
      <trkpt lat="45.56066" lon="4.84524">
        <ele>260.83392</ele>
        <time>2021-07-19T07:00:35Z</time>
      </trkpt>
      <trkpt lat="45.56064" lon="4.84542">
        <ele>260.35834</ele>
        <time>2021-07-19T07:00:37Z</time>
      </trkpt>
      <trkpt lat="45.56062" lon="4.84561">
        <ele>260.07297</ele>
        <time>2021-07-19T07:00:39Z</time>
      </trkpt>
      <trkpt lat="45.56058" lon="4.8458">
        <ele>259.8827</ele>
        <time>2021-07-19T07:00:41Z</time>
      </trkpt>
      <trkpt lat="45.56055" lon="4.846">
        <ele>259.79288</ele>
        <time>2021-07-19T07:00:43Z</time>
      </trkpt>
      <trkpt lat="45.56049" lon="4.8462">
        <ele>260.07297</ele>
        <time>2021-07-19T07:00:45Z</time>
      </trkpt>
      <trkpt lat="45.56046" lon="4.84629">
        <ele>260.00427</ele>
        <time>2021-07-19T07:00:46Z</time>
      </trkpt>
      <trkpt lat="45.56042" lon="4.84637">
        <ele>259.9884</ele>
        <time>2021-07-19T07:00:47Z</time>
      </trkpt>
      <trkpt lat="45.56038" lon="4.84646">
        <ele>259.84042</ele>
        <time>2021-07-19T07:00:48Z</time>
      </trkpt>
      <trkpt lat="45.56034" lon="4.84654">
        <ele>259.79288</ele>
        <time>2021-07-19T07:00:49Z</time>
      </trkpt>
      <trkpt lat="45.5603" lon="4.84662">
        <ele>259.9144</ele>
        <time>2021-07-19T07:00:50Z</time>
      </trkpt>
      <trkpt lat="45.56026" lon="4.84669">
        <ele>260.01483</ele>
        <time>2021-07-19T07:00:51Z</time>
      </trkpt>
      <trkpt lat="45.56022" lon="4.84676">
        <ele>260.08353</ele>
        <time>2021-07-19T07:00:52Z</time>
      </trkpt>
      <trkpt lat="45.56019" lon="4.84684">
        <ele>260.07297</ele>
        <time>2021-07-19T07:00:53Z</time>
      </trkpt>
      <trkpt lat="45.56016" lon="4.84692">
        <ele>260.30548</ele>
        <time>2021-07-19T07:00:54Z</time>
      </trkpt>
      <trkpt lat="45.56013" lon="4.84699">
        <ele>260.52744</ele>
        <time>2021-07-19T07:00:55Z</time>
      </trkpt>
      <trkpt lat="45.5601" lon="4.84706">
        <ele>260.7124</ele>
        <time>2021-07-19T07:00:56Z</time>
      </trkpt>
      <trkpt lat="45.56007" lon="4.84713">
        <ele>260.77582</ele>
        <time>2021-07-19T07:00:57Z</time>
      </trkpt>
      <trkpt lat="45.56004" lon="4.8472">
        <ele>261.02948</ele>
        <time>2021-07-19T07:00:58Z</time>
      </trkpt>
      <trkpt lat="45.56001" lon="4.84727">
        <ele>261.32013</ele>
        <time>2021-07-19T07:00:59Z</time>
      </trkpt>
      <trkpt lat="45.55998" lon="4.84739">
        <ele>262.07584</ele>
        <time>2021-07-19T07:01:01Z</time>
      </trkpt>
      <trkpt lat="45.55998" lon="4.84739">
        <ele>262.07584</ele>
        <time>2021-07-19T07:01:01Z</time>
      </trkpt>
      <trkpt lat="45.55996" lon="4.84744">
        <ele>262.44577</ele>
        <time>2021-07-19T07:01:02Z</time>
      </trkpt>
      <trkpt lat="45.55995" lon="4.8475">
        <ele>262.82098</ele>
        <time>2021-07-19T07:01:03Z</time>
      </trkpt>
      <trkpt lat="45.55995" lon="4.84756">
        <ele>262.99005</ele>
        <time>2021-07-19T07:01:04Z</time>
      </trkpt>
      <trkpt lat="45.55994" lon="4.84761">
        <ele>263.2913</ele>
        <time>2021-07-19T07:01:05Z</time>
      </trkpt>
      <trkpt lat="45.55994" lon="4.84766">
        <ele>263.51852</ele>
        <time>2021-07-19T07:01:06Z</time>
      </trkpt>
      <trkpt lat="45.55995" lon="4.84772">
        <ele>263.7405</ele>
        <time>2021-07-19T07:01:07Z</time>
      </trkpt>
      <trkpt lat="45.55995" lon="4.84776">
        <ele>263.89902</ele>
        <time>2021-07-19T07:01:08Z</time>
      </trkpt>
      <trkpt lat="45.55997" lon="4.84782">
        <ele>264.08398</ele>
        <time>2021-07-19T07:01:09Z</time>
      </trkpt>
      <trkpt lat="45.55998" lon="4.84787">
        <ele>264.30066</ele>
        <time>2021-07-19T07:01:10Z</time>
      </trkpt>
      <trkpt lat="45.55999" lon="4.84793">
        <ele>264.50674</ele>
        <time>2021-07-19T07:01:11Z</time>
      </trkpt>
      <trkpt lat="45.56001" lon="4.84799">
        <ele>264.68115</ele>
        <time>2021-07-19T07:01:12Z</time>
      </trkpt>
      <trkpt lat="45.56003" lon="4.84805">
        <ele>264.9137</ele>
        <time>2021-07-19T07:01:13Z</time>
      </trkpt>
      <trkpt lat="45.56005" lon="4.8481">
        <ele>265.1409</ele>
        <time>2021-07-19T07:01:14Z</time>
      </trkpt>
      <trkpt lat="45.56007" lon="4.84815">
        <ele>265.11978</ele>
        <time>2021-07-19T07:01:15Z</time>
      </trkpt>
      <trkpt lat="45.56008" lon="4.8482">
        <ele>265.384</ele>
        <time>2021-07-19T07:01:16Z</time>
      </trkpt>
      <trkpt lat="45.56009" lon="4.84825">
        <ele>265.61127</ele>
        <time>2021-07-19T07:01:17Z</time>
      </trkpt>
      <trkpt lat="45.56009" lon="4.84832">
        <ele>265.68524</ele>
        <time>2021-07-19T07:01:18Z</time>
      </trkpt>
      <trkpt lat="45.5601" lon="4.84839">
        <ele>265.7064</ele>
        <time>2021-07-19T07:01:19Z</time>
      </trkpt>
      <trkpt lat="45.56012" lon="4.84854">
        <ele>265.6007</ele>
        <time>2021-07-19T07:01:21Z</time>
      </trkpt>
      <trkpt lat="45.56012" lon="4.84854">
        <ele>265.6007</ele>
        <time>2021-07-19T07:01:21Z</time>
      </trkpt>
      <trkpt lat="45.56012" lon="4.84863">
        <ele>265.3259</ele>
        <time>2021-07-19T07:01:22Z</time>
      </trkpt>
      <trkpt lat="45.56012" lon="4.84871">
        <ele>265.12506</ele>
        <time>2021-07-19T07:01:23Z</time>
      </trkpt>
      <trkpt lat="45.56012" lon="4.84881">
        <ele>264.98767</ele>
        <time>2021-07-19T07:01:24Z</time>
      </trkpt>
      <trkpt lat="45.5601" lon="4.84902">
        <ele>264.43277</ele>
        <time>2021-07-19T07:01:26Z</time>
      </trkpt>
      <trkpt lat="45.5601" lon="4.84902">
        <ele>264.43277</ele>
        <time>2021-07-19T07:01:26Z</time>
      </trkpt>
      <trkpt lat="45.56009" lon="4.84912">
        <ele>264.23196</ele>
        <time>2021-07-19T07:01:27Z</time>
      </trkpt>
      <trkpt lat="45.56008" lon="4.84924">
        <ele>263.56082</ele>
        <time>2021-07-19T07:01:28Z</time>
      </trkpt>
      <trkpt lat="45.56006" lon="4.84948">
        <ele>262.6307</ele>
        <time>2021-07-19T07:01:30Z</time>
      </trkpt>
      <trkpt lat="45.56005" lon="4.84972">
        <ele>261.64777</ele>
        <time>2021-07-19T07:01:32Z</time>
      </trkpt>
      <trkpt lat="45.56007" lon="4.84998">
        <ele>260.9132</ele>
        <time>2021-07-19T07:01:34Z</time>
      </trkpt>
      <trkpt lat="45.5601" lon="4.85023">
        <ele>260.38474</ele>
        <time>2021-07-19T07:01:36Z</time>
      </trkpt>
      <trkpt lat="45.56012" lon="4.85034">
        <ele>260.17865</ele>
        <time>2021-07-19T07:01:37Z</time>
      </trkpt>
      <trkpt lat="45.56017" lon="4.85059">
        <ele>259.79816</ele>
        <time>2021-07-19T07:01:39Z</time>
      </trkpt>
      <trkpt lat="45.56023" lon="4.85083">
        <ele>259.41238</ele>
        <time>2021-07-19T07:01:41Z</time>
      </trkpt>
      <trkpt lat="45.56023" lon="4.85083">
        <ele>259.41238</ele>
        <time>2021-07-19T07:01:41Z</time>
      </trkpt>
      <trkpt lat="45.56026" lon="4.85093">
        <ele>258.79938</ele>
        <time>2021-07-19T07:01:42Z</time>
      </trkpt>
      <trkpt lat="45.56028" lon="4.85104">
        <ele>258.6778</ele>
        <time>2021-07-19T07:01:43Z</time>
      </trkpt>
      <trkpt lat="45.56027" lon="4.85114">
        <ele>258.74124</ele>
        <time>2021-07-19T07:01:44Z</time>
      </trkpt>
      <trkpt lat="45.56023" lon="4.85122">
        <ele>258.38715</ele>
        <time>2021-07-19T07:01:45Z</time>
      </trkpt>
      <trkpt lat="45.56019" lon="4.85131">
        <ele>258.2656</ele>
        <time>2021-07-19T07:01:46Z</time>
      </trkpt>
      <trkpt lat="45.56015" lon="4.85139">
        <ele>258.5721</ele>
        <time>2021-07-19T07:01:47Z</time>
      </trkpt>
      <trkpt lat="45.5601" lon="4.85147">
        <ele>258.49286</ele>
        <time>2021-07-19T07:01:48Z</time>
      </trkpt>
      <trkpt lat="45.56006" lon="4.85155">
        <ele>258.5774</ele>
        <time>2021-07-19T07:01:49Z</time>
      </trkpt>
      <trkpt lat="45.56001" lon="4.85162">
        <ele>258.7888</ele>
        <time>2021-07-19T07:01:50Z</time>
      </trkpt>
      <trkpt lat="45.55995" lon="4.85168">
        <ele>259.04245</ele>
        <time>2021-07-19T07:01:51Z</time>
      </trkpt>
      <trkpt lat="45.5599" lon="4.85174">
        <ele>258.85748</ele>
        <time>2021-07-19T07:01:52Z</time>
      </trkpt>
      <trkpt lat="45.55985" lon="4.8518">
        <ele>258.80994</ele>
        <time>2021-07-19T07:01:53Z</time>
      </trkpt>
      <trkpt lat="45.5598" lon="4.85187">
        <ele>259.05832</ele>
        <time>2021-07-19T07:01:54Z</time>
      </trkpt>
      <trkpt lat="45.5597" lon="4.852">
        <ele>259.2961</ele>
        <time>2021-07-19T07:01:56Z</time>
      </trkpt>
      <trkpt lat="45.5597" lon="4.852">
        <ele>259.2961</ele>
        <time>2021-07-19T07:01:56Z</time>
      </trkpt>
      <trkpt lat="45.55964" lon="4.85205">
        <ele>259.38068</ele>
        <time>2021-07-19T07:01:57Z</time>
      </trkpt>
      <trkpt lat="45.55959" lon="4.85212">
        <ele>259.62375</ele>
        <time>2021-07-19T07:01:58Z</time>
      </trkpt>
      <trkpt lat="45.55954" lon="4.85217">
        <ele>259.75058</ele>
        <time>2021-07-19T07:01:59Z</time>
      </trkpt>
      <trkpt lat="45.55944" lon="4.85229">
        <ele>260.15222</ele>
        <time>2021-07-19T07:02:01Z</time>
      </trkpt>
      <trkpt lat="45.55944" lon="4.85229">
        <ele>260.15222</ele>
        <time>2021-07-19T07:02:01Z</time>
      </trkpt>
      <trkpt lat="45.5594" lon="4.85235">
        <ele>260.20505</ele>
        <time>2021-07-19T07:02:02Z</time>
      </trkpt>
      <trkpt lat="45.55936" lon="4.85241">
        <ele>260.3002</ele>
        <time>2021-07-19T07:02:03Z</time>
      </trkpt>
      <trkpt lat="45.55932" lon="4.85248">
        <ele>260.501</ele>
        <time>2021-07-19T07:02:04Z</time>
      </trkpt>
      <trkpt lat="45.55929" lon="4.85254">
        <ele>260.68597</ele>
        <time>2021-07-19T07:02:05Z</time>
      </trkpt>
      <trkpt lat="45.55925" lon="4.85261">
        <ele>260.8128</ele>
        <time>2021-07-19T07:02:06Z</time>
      </trkpt>
      <trkpt lat="45.55922" lon="4.85266">
        <ele>261.114</ele>
        <time>2021-07-19T07:02:07Z</time>
      </trkpt>
      <trkpt lat="45.55919" lon="4.85272">
        <ele>261.32013</ele>
        <time>2021-07-19T07:02:08Z</time>
      </trkpt>
      <trkpt lat="45.55913" lon="4.85284">
        <ele>261.47867</ele>
        <time>2021-07-19T07:02:10Z</time>
      </trkpt>
      <trkpt lat="45.5591" lon="4.8529">
        <ele>261.68475</ele>
        <time>2021-07-19T07:02:11Z</time>
      </trkpt>
      <trkpt lat="45.5591" lon="4.8529">
        <ele>261.68475</ele>
        <time>2021-07-19T07:02:11Z</time>
      </trkpt>
      <trkpt lat="45.55907" lon="4.85296">
        <ele>261.67947</ele>
        <time>2021-07-19T07:02:12Z</time>
      </trkpt>
      <trkpt lat="45.55905" lon="4.85302">
        <ele>261.68475</ele>
        <time>2021-07-19T07:02:13Z</time>
      </trkpt>
      <trkpt lat="45.55903" lon="4.85309">
        <ele>261.7429</ele>
        <time>2021-07-19T07:02:14Z</time>
      </trkpt>
      <trkpt lat="45.559" lon="4.85316">
        <ele>261.5051</ele>
        <time>2021-07-19T07:02:15Z</time>
      </trkpt>
      <trkpt lat="45.55895" lon="4.8533">
        <ele>261.07175</ele>
        <time>2021-07-19T07:02:17Z</time>
      </trkpt>
      <trkpt lat="45.55895" lon="4.8533">
        <ele>261.07175</ele>
        <time>2021-07-19T07:02:17Z</time>
      </trkpt>
      <trkpt lat="45.55889" lon="4.85346">
        <ele>260.86035</ele>
        <time>2021-07-19T07:02:19Z</time>
      </trkpt>
      <trkpt lat="45.55886" lon="4.85356">
        <ele>260.80222</ele>
        <time>2021-07-19T07:02:20Z</time>
      </trkpt>
      <trkpt lat="45.55886" lon="4.85356">
        <ele>260.80222</ele>
        <time>2021-07-19T07:02:20Z</time>
      </trkpt>
      <trkpt lat="45.5588" lon="4.85375">
        <ele>259.94083</ele>
        <time>2021-07-19T07:02:22Z</time>
      </trkpt>
      <trkpt lat="45.55877" lon="4.85385">
        <ele>259.7453</ele>
        <time>2021-07-19T07:02:23Z</time>
      </trkpt>
      <trkpt lat="45.55874" lon="4.85395">
        <ele>259.94083</ele>
        <time>2021-07-19T07:02:24Z</time>
      </trkpt>
      <trkpt lat="45.5587" lon="4.85405">
        <ele>259.9461</ele>
        <time>2021-07-19T07:02:25Z</time>
      </trkpt>
      <trkpt lat="45.55867" lon="4.85415">
        <ele>259.72946</ele>
        <time>2021-07-19T07:02:26Z</time>
      </trkpt>
      <trkpt lat="45.55864" lon="4.85425">
        <ele>259.65018</ele>
        <time>2021-07-19T07:02:27Z</time>
      </trkpt>
      <trkpt lat="45.55861" lon="4.85435">
        <ele>259.4388</ele>
        <time>2021-07-19T07:02:28Z</time>
      </trkpt>
      <trkpt lat="45.55856" lon="4.85444">
        <ele>259.25912</ele>
        <time>2021-07-19T07:02:29Z</time>
      </trkpt>
      <trkpt lat="45.55852" lon="4.85453">
        <ele>259.2538</ele>
        <time>2021-07-19T07:02:30Z</time>
      </trkpt>
      <trkpt lat="45.55847" lon="4.85462">
        <ele>259.20627</ele>
        <time>2021-07-19T07:02:31Z</time>
      </trkpt>
      <trkpt lat="45.55843" lon="4.85471">
        <ele>259.28024</ele>
        <time>2021-07-19T07:02:32Z</time>
      </trkpt>
      <trkpt lat="45.55839" lon="4.8548">
        <ele>259.28552</ele>
        <time>2021-07-19T07:02:33Z</time>
      </trkpt>
      <trkpt lat="45.55834" lon="4.85488">
        <ele>259.20627</ele>
        <time>2021-07-19T07:02:34Z</time>
      </trkpt>
      <trkpt lat="45.5583" lon="4.85497">
        <ele>259.2961</ele>
        <time>2021-07-19T07:02:35Z</time>
      </trkpt>
      <trkpt lat="45.55826" lon="4.85506">
        <ele>259.164</ele>
        <time>2021-07-19T07:02:36Z</time>
      </trkpt>
      <trkpt lat="45.55821" lon="4.85514">
        <ele>259.05832</ele>
        <time>2021-07-19T07:02:37Z</time>
      </trkpt>
      <trkpt lat="45.55817" lon="4.85523">
        <ele>258.8522</ele>
        <time>2021-07-19T07:02:38Z</time>
      </trkpt>
      <trkpt lat="45.55817" lon="4.85523">
        <ele>258.8522</ele>
        <time>2021-07-19T07:02:38Z</time>
      </trkpt>
      <trkpt lat="45.55809" lon="4.85541">
        <ele>258.80994</ele>
        <time>2021-07-19T07:02:40Z</time>
      </trkpt>
      <trkpt lat="45.55806" lon="4.85551">
        <ele>258.366</ele>
        <time>2021-07-19T07:02:41Z</time>
      </trkpt>
      <trkpt lat="45.55806" lon="4.85551">
        <ele>258.366</ele>
        <time>2021-07-19T07:02:41Z</time>
      </trkpt>
      <trkpt lat="45.55801" lon="4.85572">
        <ele>258.0542</ele>
        <time>2021-07-19T07:02:43Z</time>
      </trkpt>
      <trkpt lat="45.55801" lon="4.85572">
        <ele>258.0542</ele>
        <time>2021-07-19T07:02:43Z</time>
      </trkpt>
      <trkpt lat="45.55798" lon="4.85583">
        <ele>257.9961</ele>
        <time>2021-07-19T07:02:44Z</time>
      </trkpt>
      <trkpt lat="45.55792" lon="4.85603">
        <ele>257.56274</ele>
        <time>2021-07-19T07:02:46Z</time>
      </trkpt>
      <trkpt lat="45.55788" lon="4.85614">
        <ele>257.03958</ele>
        <time>2021-07-19T07:02:47Z</time>
      </trkpt>
      <trkpt lat="45.55784" lon="4.85624">
        <ele>256.8599</ele>
        <time>2021-07-19T07:02:48Z</time>
      </trkpt>
      <trkpt lat="45.55784" lon="4.85624">
        <ele>256.8599</ele>
        <time>2021-07-19T07:02:48Z</time>
      </trkpt>
      <trkpt lat="45.55774" lon="4.85644">
        <ele>256.36844</ele>
        <time>2021-07-19T07:02:50Z</time>
      </trkpt>
      <trkpt lat="45.55774" lon="4.85644">
        <ele>256.36844</ele>
        <time>2021-07-19T07:02:50Z</time>
      </trkpt>
      <trkpt lat="45.55764" lon="4.85664">
        <ele>255.94566</ele>
        <time>2021-07-19T07:02:52Z</time>
      </trkpt>
      <trkpt lat="45.55759" lon="4.85674">
        <ele>255.73427</ele>
        <time>2021-07-19T07:02:53Z</time>
      </trkpt>
      <trkpt lat="45.55753" lon="4.85683">
        <ele>255.81354</ele>
        <time>2021-07-19T07:02:54Z</time>
      </trkpt>
      <trkpt lat="45.55747" lon="4.85691">
        <ele>255.62328</ele>
        <time>2021-07-19T07:02:55Z</time>
      </trkpt>
      <trkpt lat="45.5574" lon="4.85699">
        <ele>255.54402</ele>
        <time>2021-07-19T07:02:56Z</time>
      </trkpt>
      <trkpt lat="45.5574" lon="4.85699">
        <ele>255.54402</ele>
        <time>2021-07-19T07:02:56Z</time>
      </trkpt>
      <trkpt lat="45.55727" lon="4.85714">
        <ele>255.07896</ele>
        <time>2021-07-19T07:02:58Z</time>
      </trkpt>
      <trkpt lat="45.5572" lon="4.8572">
        <ele>255.1054</ele>
        <time>2021-07-19T07:02:59Z</time>
      </trkpt>
      <trkpt lat="45.55714" lon="4.85728">
        <ele>255.25337</ele>
        <time>2021-07-19T07:03:00Z</time>
      </trkpt>
      <trkpt lat="45.55707" lon="4.85735">
        <ele>255.28508</ele>
        <time>2021-07-19T07:03:01Z</time>
      </trkpt>
      <trkpt lat="45.557" lon="4.85741">
        <ele>254.95741</ele>
        <time>2021-07-19T07:03:02Z</time>
      </trkpt>
      <trkpt lat="45.55692" lon="4.85746">
        <ele>254.64034</ele>
        <time>2021-07-19T07:03:03Z</time>
      </trkpt>
      <trkpt lat="45.55685" lon="4.85752">
        <ele>254.83588</ele>
        <time>2021-07-19T07:03:04Z</time>
      </trkpt>
      <trkpt lat="45.55677" lon="4.85757">
        <ele>254.56635</ele>
        <time>2021-07-19T07:03:05Z</time>
      </trkpt>
      <trkpt lat="45.5567" lon="4.85763">
        <ele>254.48181</ele>
        <time>2021-07-19T07:03:06Z</time>
      </trkpt>
      <trkpt lat="45.55663" lon="4.85768">
        <ele>254.70903</ele>
        <time>2021-07-19T07:03:07Z</time>
      </trkpt>
      <trkpt lat="45.55656" lon="4.85774">
        <ele>254.52936</ele>
        <time>2021-07-19T07:03:08Z</time>
      </trkpt>
      <trkpt lat="45.55649" lon="4.85779">
        <ele>254.53464</ele>
        <time>2021-07-19T07:03:09Z</time>
      </trkpt>
      <trkpt lat="45.55642" lon="4.85785">
        <ele>254.6192</ele>
        <time>2021-07-19T07:03:10Z</time>
      </trkpt>
      <trkpt lat="45.55635" lon="4.8579">
        <ele>254.59807</ele>
        <time>2021-07-19T07:03:11Z</time>
      </trkpt>
      <trkpt lat="45.55628" lon="4.85796">
        <ele>254.3444</ele>
        <time>2021-07-19T07:03:12Z</time>
      </trkpt>
      <trkpt lat="45.55621" lon="4.85802">
        <ele>254.01147</ele>
        <time>2021-07-19T07:03:13Z</time>
      </trkpt>
      <trkpt lat="45.55613" lon="4.85808">
        <ele>253.67854</ele>
        <time>2021-07-19T07:03:14Z</time>
      </trkpt>
      <trkpt lat="45.55605" lon="4.85815">
        <ele>253.01796</ele>
        <time>2021-07-19T07:03:15Z</time>
      </trkpt>
      <trkpt lat="45.55598" lon="4.85822">
        <ele>252.796</ele>
        <time>2021-07-19T07:03:16Z</time>
      </trkpt>
      <trkpt lat="45.5559" lon="4.8583">
        <ele>252.2781</ele>
        <time>2021-07-19T07:03:17Z</time>
      </trkpt>
      <trkpt lat="45.55576" lon="4.85846">
        <ele>251.57524</ele>
        <time>2021-07-19T07:03:19Z</time>
      </trkpt>
      <trkpt lat="45.55561" lon="4.85862">
        <ele>250.91997</ele>
        <time>2021-07-19T07:03:21Z</time>
      </trkpt>
      <trkpt lat="45.55546" lon="4.85878">
        <ele>250.20123</ele>
        <time>2021-07-19T07:03:23Z</time>
      </trkpt>
      <trkpt lat="45.55531" lon="4.85894">
        <ele>249.06505</ele>
        <time>2021-07-19T07:03:25Z</time>
      </trkpt>
      <trkpt lat="45.55515" lon="4.85912">
        <ele>247.78088</ele>
        <time>2021-07-19T07:03:27Z</time>
      </trkpt>
      <trkpt lat="45.55497" lon="4.85929">
        <ele>246.51257</ele>
        <time>2021-07-19T07:03:29Z</time>
      </trkpt>
      <trkpt lat="45.55479" lon="4.85948">
        <ele>245.0593</ele>
        <time>2021-07-19T07:03:31Z</time>
      </trkpt>
      <trkpt lat="45.55463" lon="4.85968">
        <ele>244.71051</ele>
        <time>2021-07-19T07:03:33Z</time>
      </trkpt>
      <trkpt lat="45.55455" lon="4.85978">
        <ele>244.79506</ele>
        <time>2021-07-19T07:03:34Z</time>
      </trkpt>
      <trkpt lat="45.55448" lon="4.85988">
        <ele>244.01294</ele>
        <time>2021-07-19T07:03:35Z</time>
      </trkpt>
      <trkpt lat="45.5544" lon="4.85996">
        <ele>244.13976</ele>
        <time>2021-07-19T07:03:36Z</time>
      </trkpt>
      <trkpt lat="45.55432" lon="4.86004">
        <ele>244.10806</ele>
        <time>2021-07-19T07:03:37Z</time>
      </trkpt>
      <trkpt lat="45.55425" lon="4.86011">
        <ele>243.79626</ele>
        <time>2021-07-19T07:03:38Z</time>
      </trkpt>
      <trkpt lat="45.55417" lon="4.86019">
        <ele>243.48447</ele>
        <time>2021-07-19T07:03:39Z</time>
      </trkpt>
      <trkpt lat="45.55409" lon="4.86027">
        <ele>243.10925</ele>
        <time>2021-07-19T07:03:40Z</time>
      </trkpt>
      <trkpt lat="45.55401" lon="4.86034">
        <ele>242.67064</ele>
        <time>2021-07-19T07:03:41Z</time>
      </trkpt>
      <trkpt lat="45.55393" lon="4.86041">
        <ele>242.70235</ele>
        <time>2021-07-19T07:03:42Z</time>
      </trkpt>
      <trkpt lat="45.55386" lon="4.86047">
        <ele>242.6865</ele>
        <time>2021-07-19T07:03:43Z</time>
      </trkpt>
      <trkpt lat="45.55378" lon="4.86053">
        <ele>242.49097</ele>
        <time>2021-07-19T07:03:44Z</time>
      </trkpt>
      <trkpt lat="45.55372" lon="4.86059">
        <ele>242.195</ele>
        <time>2021-07-19T07:03:45Z</time>
      </trkpt>
      <trkpt lat="45.55365" lon="4.86064">
        <ele>241.93608</ele>
        <time>2021-07-19T07:03:46Z</time>
      </trkpt>
      <trkpt lat="45.55358" lon="4.86071">
        <ele>242.2056</ele>
        <time>2021-07-19T07:03:47Z</time>
      </trkpt>
      <trkpt lat="45.55352" lon="4.86078">
        <ele>242.17389</ele>
        <time>2021-07-19T07:03:48Z</time>
      </trkpt>
      <trkpt lat="45.55347" lon="4.86086">
        <ele>241.70354</ele>
        <time>2021-07-19T07:03:49Z</time>
      </trkpt>
      <trkpt lat="45.5534" lon="4.86093">
        <ele>241.46045</ele>
        <time>2021-07-19T07:03:50Z</time>
      </trkpt>
      <trkpt lat="45.55334" lon="4.86101">
        <ele>241.16452</ele>
        <time>2021-07-19T07:03:51Z</time>
      </trkpt>
      <trkpt lat="45.55328" lon="4.86109">
        <ele>240.85272</ele>
        <time>2021-07-19T07:03:52Z</time>
      </trkpt>
      <trkpt lat="45.5532" lon="4.86116">
        <ele>239.89091</ele>
        <time>2021-07-19T07:03:53Z</time>
      </trkpt>
      <trkpt lat="45.55312" lon="4.86121">
        <ele>239.90677</ele>
        <time>2021-07-19T07:03:54Z</time>
      </trkpt>
      <trkpt lat="45.55304" lon="4.86126">
        <ele>239.81694</ele>
        <time>2021-07-19T07:03:55Z</time>
      </trkpt>
      <trkpt lat="45.55296" lon="4.86131">
        <ele>240.02832</ele>
        <time>2021-07-19T07:03:56Z</time>
      </trkpt>
      <trkpt lat="45.55288" lon="4.86136">
        <ele>239.99133</ele>
        <time>2021-07-19T07:03:57Z</time>
      </trkpt>
      <trkpt lat="45.55281" lon="4.86141">
        <ele>239.74295</ele>
        <time>2021-07-19T07:03:58Z</time>
      </trkpt>
      <trkpt lat="45.55274" lon="4.86147">
        <ele>239.73238</ele>
        <time>2021-07-19T07:03:59Z</time>
      </trkpt>
      <trkpt lat="45.55267" lon="4.86153">
        <ele>239.58441</ele>
        <time>2021-07-19T07:04:00Z</time>
      </trkpt>
      <trkpt lat="45.55261" lon="4.86159">
        <ele>239.54213</ele>
        <time>2021-07-19T07:04:01Z</time>
      </trkpt>
      <trkpt lat="45.55254" lon="4.86164">
        <ele>239.484</ele>
        <time>2021-07-19T07:04:02Z</time>
      </trkpt>
      <trkpt lat="45.55246" lon="4.8617">
        <ele>239.46815</ele>
        <time>2021-07-19T07:04:03Z</time>
      </trkpt>
      <trkpt lat="45.55239" lon="4.86175">
        <ele>238.88683</ele>
        <time>2021-07-19T07:04:04Z</time>
      </trkpt>
      <trkpt lat="45.55232" lon="4.86181">
        <ele>238.75473</ele>
        <time>2021-07-19T07:04:05Z</time>
      </trkpt>
      <trkpt lat="45.55225" lon="4.86187">
        <ele>238.42706</ele>
        <time>2021-07-19T07:04:06Z</time>
      </trkpt>
      <trkpt lat="45.55218" lon="4.86193">
        <ele>238.66489</ele>
        <time>2021-07-19T07:04:07Z</time>
      </trkpt>
      <trkpt lat="45.55211" lon="4.86199">
        <ele>238.2791</ele>
        <time>2021-07-19T07:04:08Z</time>
      </trkpt>
      <trkpt lat="45.55204" lon="4.86205">
        <ele>238.33195</ele>
        <time>2021-07-19T07:04:09Z</time>
      </trkpt>
      <trkpt lat="45.55197" lon="4.86211">
        <ele>237.88275</ele>
        <time>2021-07-19T07:04:10Z</time>
      </trkpt>
      <trkpt lat="45.55191" lon="4.86217">
        <ele>237.73479</ele>
        <time>2021-07-19T07:04:11Z</time>
      </trkpt>
      <trkpt lat="45.55184" lon="4.86222">
        <ele>237.11649</ele>
        <time>2021-07-19T07:04:12Z</time>
      </trkpt>
      <trkpt lat="45.55178" lon="4.86228">
        <ele>236.45589</ele>
        <time>2021-07-19T07:04:13Z</time>
      </trkpt>
      <trkpt lat="45.55172" lon="4.86233">
        <ele>235.84288</ele>
        <time>2021-07-19T07:04:14Z</time>
      </trkpt>
      <trkpt lat="45.55167" lon="4.86239">
        <ele>235.03961</ele>
        <time>2021-07-19T07:04:15Z</time>
      </trkpt>
      <trkpt lat="45.55165" lon="4.86247">
        <ele>234.4953</ele>
        <time>2021-07-19T07:04:16Z</time>
      </trkpt>
      <trkpt lat="45.55163" lon="4.86256">
        <ele>233.9774</ele>
        <time>2021-07-19T07:04:17Z</time>
      </trkpt>
      <trkpt lat="45.55163" lon="4.86265">
        <ele>234.21523</ele>
        <time>2021-07-19T07:04:18Z</time>
      </trkpt>
      <trkpt lat="45.55164" lon="4.86276">
        <ele>232.83063</ele>
        <time>2021-07-19T07:04:19Z</time>
      </trkpt>
      <trkpt lat="45.55166" lon="4.86286">
        <ele>231.89526</ele>
        <time>2021-07-19T07:04:20Z</time>
      </trkpt>
      <trkpt lat="45.55168" lon="4.86297">
        <ele>230.76434</ele>
        <time>2021-07-19T07:04:21Z</time>
      </trkpt>
      <trkpt lat="45.5517" lon="4.86308">
        <ele>230.11961</ele>
        <time>2021-07-19T07:04:22Z</time>
      </trkpt>
      <trkpt lat="45.55172" lon="4.86318">
        <ele>229.0574</ele>
        <time>2021-07-19T07:04:23Z</time>
      </trkpt>
      <trkpt lat="45.55174" lon="4.86328">
        <ele>227.93707</ele>
        <time>2021-07-19T07:04:24Z</time>
      </trkpt>
      <trkpt lat="45.55176" lon="4.86338">
        <ele>226.96997</ele>
        <time>2021-07-19T07:04:25Z</time>
      </trkpt>
      <trkpt lat="45.55179" lon="4.86348">
        <ele>226.06628</ele>
        <time>2021-07-19T07:04:26Z</time>
      </trkpt>
      <trkpt lat="45.55179" lon="4.86358">
        <ele>225.21547</ele>
        <time>2021-07-19T07:04:27Z</time>
      </trkpt>
      <trkpt lat="45.55181" lon="4.86367">
        <ele>224.4862</ele>
        <time>2021-07-19T07:04:28Z</time>
      </trkpt>
      <trkpt lat="45.55184" lon="4.86375">
        <ele>223.50853</ele>
        <time>2021-07-19T07:04:29Z</time>
      </trkpt>
      <trkpt lat="45.55187" lon="4.86383">
        <ele>223.09105</ele>
        <time>2021-07-19T07:04:30Z</time>
      </trkpt>
      <trkpt lat="45.5519" lon="4.8639">
        <ele>221.75931</ele>
        <time>2021-07-19T07:04:31Z</time>
      </trkpt>
      <trkpt lat="45.55195" lon="4.86398">
        <ele>220.74466</ele>
        <time>2021-07-19T07:04:32Z</time>
      </trkpt>
      <trkpt lat="45.55199" lon="4.86405">
        <ele>220.0788</ele>
        <time>2021-07-19T07:04:33Z</time>
      </trkpt>
      <trkpt lat="45.55204" lon="4.86411">
        <ele>219.30196</ele>
        <time>2021-07-19T07:04:34Z</time>
      </trkpt>
      <trkpt lat="45.55209" lon="4.86418">
        <ele>218.88448</ele>
        <time>2021-07-19T07:04:35Z</time>
      </trkpt>
      <trkpt lat="45.55214" lon="4.86424">
        <ele>219.14871</ele>
        <time>2021-07-19T07:04:36Z</time>
      </trkpt>
      <trkpt lat="45.55219" lon="4.86429">
        <ele>217.2304</ele>
        <time>2021-07-19T07:04:37Z</time>
      </trkpt>
      <trkpt lat="45.55224" lon="4.86435">
        <ele>217.30437</ele>
        <time>2021-07-19T07:04:38Z</time>
      </trkpt>
      <trkpt lat="45.55229" lon="4.86441">
        <ele>217.2198</ele>
        <time>2021-07-19T07:04:39Z</time>
      </trkpt>
      <trkpt lat="45.55233" lon="4.86447">
        <ele>216.42712</ele>
        <time>2021-07-19T07:04:40Z</time>
      </trkpt>
      <trkpt lat="45.55237" lon="4.86453">
        <ele>215.30678</ele>
        <time>2021-07-19T07:04:41Z</time>
      </trkpt>
      <trkpt lat="45.55241" lon="4.86457">
        <ele>214.97385</ele>
        <time>2021-07-19T07:04:42Z</time>
      </trkpt>
      <trkpt lat="45.55244" lon="4.86459">
        <ele>214.69376</ele>
        <time>2021-07-19T07:04:43Z</time>
      </trkpt>
      <trkpt lat="45.55246" lon="4.86462">
        <ele>214.46123</ele>
        <time>2021-07-19T07:04:44Z</time>
      </trkpt>
      <trkpt lat="45.55247" lon="4.86466">
        <ele>214.42952</ele>
        <time>2021-07-19T07:04:45Z</time>
      </trkpt>
      <trkpt lat="45.55247" lon="4.86471">
        <ele>214.18643</ele>
        <time>2021-07-19T07:04:46Z</time>
      </trkpt>
      <trkpt lat="45.55245" lon="4.86478">
        <ele>214.01202</ele>
        <time>2021-07-19T07:04:47Z</time>
      </trkpt>
      <trkpt lat="45.55242" lon="4.86486">
        <ele>213.88521</ele>
        <time>2021-07-19T07:04:48Z</time>
      </trkpt>
      <trkpt lat="45.55239" lon="4.86493">
        <ele>213.76366</ele>
        <time>2021-07-19T07:04:49Z</time>
      </trkpt>
      <trkpt lat="45.55235" lon="4.865">
        <ele>213.90106</ele>
        <time>2021-07-19T07:04:50Z</time>
      </trkpt>
      <trkpt lat="45.55232" lon="4.86508">
        <ele>213.7531</ele>
        <time>2021-07-19T07:04:51Z</time>
      </trkpt>
      <trkpt lat="45.55229" lon="4.86517">
        <ele>213.11893</ele>
        <time>2021-07-19T07:04:52Z</time>
      </trkpt>
      <trkpt lat="45.55226" lon="4.86526">
        <ele>212.90755</ele>
        <time>2021-07-19T07:04:53Z</time>
      </trkpt>
      <trkpt lat="45.55222" lon="4.86535">
        <ele>212.4108</ele>
        <time>2021-07-19T07:04:54Z</time>
      </trkpt>
      <trkpt lat="45.55219" lon="4.86544">
        <ele>212.14655</ele>
        <time>2021-07-19T07:04:55Z</time>
      </trkpt>
      <trkpt lat="45.55215" lon="4.86554">
        <ele>211.63396</ele>
        <time>2021-07-19T07:04:56Z</time>
      </trkpt>
      <trkpt lat="45.55211" lon="4.86564">
        <ele>211.29573</ele>
        <time>2021-07-19T07:04:57Z</time>
      </trkpt>
      <trkpt lat="45.55208" lon="4.86574">
        <ele>211.05792</ele>
        <time>2021-07-19T07:04:58Z</time>
      </trkpt>
      <trkpt lat="45.55204" lon="4.86585">
        <ele>210.66158</ele>
        <time>2021-07-19T07:04:59Z</time>
      </trkpt>
      <trkpt lat="45.552" lon="4.86596">
        <ele>210.14897</ele>
        <time>2021-07-19T07:05:00Z</time>
      </trkpt>
      <trkpt lat="45.55195" lon="4.86607">
        <ele>209.8636</ele>
        <time>2021-07-19T07:05:01Z</time>
      </trkpt>
      <trkpt lat="45.5519" lon="4.86617">
        <ele>209.30872</ele>
        <time>2021-07-19T07:05:02Z</time>
      </trkpt>
      <trkpt lat="45.55183" lon="4.86626">
        <ele>209.2083</ele>
        <time>2021-07-19T07:05:03Z</time>
      </trkpt>
      <trkpt lat="45.55176" lon="4.86633">
        <ele>209.08676</ele>
        <time>2021-07-19T07:05:04Z</time>
      </trkpt>
      <trkpt lat="45.55168" lon="4.86639">
        <ele>208.87538</ele>
        <time>2021-07-19T07:05:05Z</time>
      </trkpt>
      <trkpt lat="45.55159" lon="4.86644">
        <ele>208.516</ele>
        <time>2021-07-19T07:05:06Z</time>
      </trkpt>
      <trkpt lat="45.5515" lon="4.86647">
        <ele>208.02983</ele>
        <time>2021-07-19T07:05:07Z</time>
      </trkpt>
      <trkpt lat="45.5514" lon="4.86647">
        <ele>207.99812</ele>
        <time>2021-07-19T07:05:08Z</time>
      </trkpt>
      <trkpt lat="45.55131" lon="4.86646">
        <ele>207.20541</ele>
        <time>2021-07-19T07:05:09Z</time>
      </trkpt>
      <trkpt lat="45.55121" lon="4.86644">
        <ele>206.9042</ele>
        <time>2021-07-19T07:05:10Z</time>
      </trkpt>
      <trkpt lat="45.55112" lon="4.86641">
        <ele>206.43385</ele>
        <time>2021-07-19T07:05:11Z</time>
      </trkpt>
      <trkpt lat="45.55102" lon="4.86636">
        <ele>205.92654</ele>
        <time>2021-07-19T07:05:12Z</time>
      </trkpt>
      <trkpt lat="45.55093" lon="4.8663">
        <ele>205.4298</ele>
        <time>2021-07-19T07:05:13Z</time>
      </trkpt>
      <trkpt lat="45.55083" lon="4.86624">
        <ele>204.9066</ele>
        <time>2021-07-19T07:05:14Z</time>
      </trkpt>
      <trkpt lat="45.55074" lon="4.86616">
        <ele>204.2883</ele>
        <time>2021-07-19T07:05:15Z</time>
      </trkpt>
      <trkpt lat="45.55064" lon="4.86607">
        <ele>203.58543</ele>
        <time>2021-07-19T07:05:16Z</time>
      </trkpt>
      <trkpt lat="45.55043" lon="4.86589">
        <ele>202.11632</ele>
        <time>2021-07-19T07:05:18Z</time>
      </trkpt>
      <trkpt lat="45.55022" lon="4.86571">
        <ele>200.52034</ele>
        <time>2021-07-19T07:05:20Z</time>
      </trkpt>
      <trkpt lat="45.54998" lon="4.86557">
        <ele>198.59146</ele>
        <time>2021-07-19T07:05:22Z</time>
      </trkpt>
      <trkpt lat="45.54971" lon="4.86551">
        <ele>195.52107</ele>
        <time>2021-07-19T07:05:24Z</time>
      </trkpt>
      <trkpt lat="45.54941" lon="4.86557">
        <ele>193.75601</ele>
        <time>2021-07-19T07:05:26Z</time>
      </trkpt>
      <trkpt lat="45.54911" lon="4.86563">
        <ele>191.64745</ele>
        <time>2021-07-19T07:05:28Z</time>
      </trkpt>
      <trkpt lat="45.54881" lon="4.86567">
        <ele>189.51773</ele>
        <time>2021-07-19T07:05:30Z</time>
      </trkpt>
      <trkpt lat="45.54851" lon="4.86564">
        <ele>186.82785</ele>
        <time>2021-07-19T07:05:32Z</time>
      </trkpt>
      <trkpt lat="45.54837" lon="4.86561">
        <ele>185.91362</ele>
        <time>2021-07-19T07:05:33Z</time>
      </trkpt>
      <trkpt lat="45.54823" lon="4.86555">
        <ele>184.24896</ele>
        <time>2021-07-19T07:05:34Z</time>
      </trkpt>
      <trkpt lat="45.54808" lon="4.86548">
        <ele>182.81682</ele>
        <time>2021-07-19T07:05:35Z</time>
      </trkpt>
      <trkpt lat="45.54795" lon="4.86541">
        <ele>181.29485</ele>
        <time>2021-07-19T07:05:36Z</time>
      </trkpt>
      <trkpt lat="45.54782" lon="4.86532">
        <ele>180.0371</ele>
        <time>2021-07-19T07:05:37Z</time>
      </trkpt>
      <trkpt lat="45.54757" lon="4.86512">
        <ele>179.58261</ele>
        <time>2021-07-19T07:05:39Z</time>
      </trkpt>
      <trkpt lat="45.54745" lon="4.86502">
        <ele>178.55211</ele>
        <time>2021-07-19T07:05:40Z</time>
      </trkpt>
      <trkpt lat="45.54733" lon="4.86493">
        <ele>177.84926</ele>
        <time>2021-07-19T07:05:41Z</time>
      </trkpt>
      <trkpt lat="45.54719" lon="4.86486">
        <ele>176.60736</ele>
        <time>2021-07-19T07:05:42Z</time>
      </trkpt>
      <trkpt lat="45.54705" lon="4.8648">
        <ele>175.38133</ele>
        <time>2021-07-19T07:05:43Z</time>
      </trkpt>
      <trkpt lat="45.54691" lon="4.86476">
        <ele>173.61098</ele>
        <time>2021-07-19T07:05:44Z</time>
      </trkpt>
      <trkpt lat="45.54676" lon="4.86472">
        <ele>172.23697</ele>
        <time>2021-07-19T07:05:45Z</time>
      </trkpt>
      <trkpt lat="45.54661" lon="4.86471">
        <ele>170.39262</ele>
        <time>2021-07-19T07:05:46Z</time>
      </trkpt>
      <trkpt lat="45.5463" lon="4.86468">
        <ele>167.56534</ele>
        <time>2021-07-19T07:05:48Z</time>
      </trkpt>
      <trkpt lat="45.54598" lon="4.86464">
        <ele>165.42506</ele>
        <time>2021-07-19T07:05:50Z</time>
      </trkpt>
      <trkpt lat="45.54567" lon="4.86461">
        <ele>162.47624</ele>
        <time>2021-07-19T07:05:52Z</time>
      </trkpt>
      <trkpt lat="45.54552" lon="4.86463">
        <ele>161.04938</ele>
        <time>2021-07-19T07:05:53Z</time>
      </trkpt>
      <trkpt lat="45.54537" lon="4.86468">
        <ele>160.01888</ele>
        <time>2021-07-19T07:05:54Z</time>
      </trkpt>
      <trkpt lat="45.54523" lon="4.86474">
        <ele>157.72006</ele>
        <time>2021-07-19T07:05:55Z</time>
      </trkpt>
      <trkpt lat="45.54511" lon="4.86481">
        <ele>155.231</ele>
        <time>2021-07-19T07:05:56Z</time>
      </trkpt>
      <trkpt lat="45.545" lon="4.86491">
        <ele>153.29681</ele>
        <time>2021-07-19T07:05:57Z</time>
      </trkpt>
      <trkpt lat="45.54491" lon="4.865">
        <ele>152.20818</ele>
        <time>2021-07-19T07:05:58Z</time>
      </trkpt>
      <trkpt lat="45.54482" lon="4.86509">
        <ele>150.80775</ele>
        <time>2021-07-19T07:05:59Z</time>
      </trkpt>
      <trkpt lat="45.54474" lon="4.86518">
        <ele>149.92522</ele>
        <time>2021-07-19T07:06:00Z</time>
      </trkpt>
      <trkpt lat="45.54465" lon="4.86524">
        <ele>149.4443</ele>
        <time>2021-07-19T07:06:01Z</time>
      </trkpt>
      <trkpt lat="45.54456" lon="4.86532">
        <ele>148.70975</ele>
        <time>2021-07-19T07:06:02Z</time>
      </trkpt>
      <trkpt lat="45.54447" lon="4.86538">
        <ele>147.56827</ele>
        <time>2021-07-19T07:06:03Z</time>
      </trkpt>
      <trkpt lat="45.54438" lon="4.86545">
        <ele>146.88655</ele>
        <time>2021-07-19T07:06:04Z</time>
      </trkpt>
      <trkpt lat="45.5443" lon="4.86553">
        <ele>145.8719</ele>
        <time>2021-07-19T07:06:05Z</time>
      </trkpt>
      <trkpt lat="45.54422" lon="4.8656">
        <ele>145.33815</ele>
        <time>2021-07-19T07:06:06Z</time>
      </trkpt>
      <trkpt lat="45.54414" lon="4.86569">
        <ele>144.60359</ele>
        <time>2021-07-19T07:06:07Z</time>
      </trkpt>
      <trkpt lat="45.54406" lon="4.86577">
        <ele>144.23895</ele>
        <time>2021-07-19T07:06:08Z</time>
      </trkpt>
      <trkpt lat="45.54398" lon="4.86586">
        <ele>143.71576</ele>
        <time>2021-07-19T07:06:09Z</time>
      </trkpt>
      <trkpt lat="45.5439" lon="4.86593">
        <ele>142.84909</ele>
        <time>2021-07-19T07:06:10Z</time>
      </trkpt>
      <trkpt lat="45.54383" lon="4.866">
        <ele>141.68118</ele>
        <time>2021-07-19T07:06:11Z</time>
      </trkpt>
      <trkpt lat="45.54376" lon="4.86606">
        <ele>141.36938</ele>
        <time>2021-07-19T07:06:12Z</time>
      </trkpt>
      <trkpt lat="45.54369" lon="4.86613">
        <ele>141.01004</ele>
        <time>2021-07-19T07:06:13Z</time>
      </trkpt>
      <trkpt lat="45.54361" lon="4.86619">
        <ele>140.40758</ele>
        <time>2021-07-19T07:06:14Z</time>
      </trkpt>
      <trkpt lat="45.54354" lon="4.86626">
        <ele>140.34946</ele>
        <time>2021-07-19T07:06:15Z</time>
      </trkpt>
      <trkpt lat="45.54346" lon="4.86633">
        <ele>139.68358</ele>
        <time>2021-07-19T07:06:16Z</time>
      </trkpt>
      <trkpt lat="45.54339" lon="4.8664">
        <ele>139.18683</ele>
        <time>2021-07-19T07:06:17Z</time>
      </trkpt>
      <trkpt lat="45.54331" lon="4.86648">
        <ele>138.36243</ele>
        <time>2021-07-19T07:06:18Z</time>
      </trkpt>
      <trkpt lat="45.54324" lon="4.86655">
        <ele>137.93437</ele>
        <time>2021-07-19T07:06:19Z</time>
      </trkpt>
      <trkpt lat="45.54316" lon="4.86663">
        <ele>138.26202</ele>
        <time>2021-07-19T07:06:20Z</time>
      </trkpt>
      <trkpt lat="45.54308" lon="4.86671">
        <ele>137.91324</ele>
        <time>2021-07-19T07:06:21Z</time>
      </trkpt>
      <trkpt lat="45.54301" lon="4.8668">
        <ele>137.09412</ele>
        <time>2021-07-19T07:06:22Z</time>
      </trkpt>
      <trkpt lat="45.54294" lon="4.86688">
        <ele>136.7929</ele>
        <time>2021-07-19T07:06:23Z</time>
      </trkpt>
      <trkpt lat="45.54287" lon="4.86697">
        <ele>136.29613</ele>
        <time>2021-07-19T07:06:24Z</time>
      </trkpt>
      <trkpt lat="45.54279" lon="4.86705">
        <ele>136.10588</ele>
        <time>2021-07-19T07:06:25Z</time>
      </trkpt>
      <trkpt lat="45.54272" lon="4.86714">
        <ele>135.7571</ele>
        <time>2021-07-19T07:06:26Z</time>
      </trkpt>
      <trkpt lat="45.54265" lon="4.86722">
        <ele>135.39246</ele>
        <time>2021-07-19T07:06:27Z</time>
      </trkpt>
      <trkpt lat="45.54257" lon="4.86731">
        <ele>134.66847</ele>
        <time>2021-07-19T07:06:28Z</time>
      </trkpt>
      <trkpt lat="45.54249" lon="4.86739">
        <ele>134.31439</ele>
        <time>2021-07-19T07:06:29Z</time>
      </trkpt>
      <trkpt lat="45.5424" lon="4.86746">
        <ele>133.98674</ele>
        <time>2021-07-19T07:06:30Z</time>
      </trkpt>
      <trkpt lat="45.54233" lon="4.86753">
        <ele>134.07658</ele>
        <time>2021-07-19T07:06:31Z</time>
      </trkpt>
      <trkpt lat="45.54225" lon="4.86761">
        <ele>133.69081</ele>
        <time>2021-07-19T07:06:32Z</time>
      </trkpt>
      <trkpt lat="45.54217" lon="4.86768">
        <ele>133.0355</ele>
        <time>2021-07-19T07:06:33Z</time>
      </trkpt>
      <trkpt lat="45.54209" lon="4.86776">
        <ele>132.83998</ele>
        <time>2021-07-19T07:06:34Z</time>
      </trkpt>
      <trkpt lat="45.54202" lon="4.86787">
        <ele>132.47006</ele>
        <time>2021-07-19T07:06:35Z</time>
      </trkpt>
      <trkpt lat="45.54194" lon="4.86795">
        <ele>132.1847</ele>
        <time>2021-07-19T07:06:36Z</time>
      </trkpt>
      <trkpt lat="45.54186" lon="4.86804">
        <ele>131.77776</ele>
        <time>2021-07-19T07:06:37Z</time>
      </trkpt>
      <trkpt lat="45.54179" lon="4.86815">
        <ele>131.968</ele>
        <time>2021-07-19T07:06:38Z</time>
      </trkpt>
      <trkpt lat="45.54172" lon="4.86825">
        <ele>131.61922</ele>
        <time>2021-07-19T07:06:39Z</time>
      </trkpt>
      <trkpt lat="45.54165" lon="4.86834">
        <ele>131.2546</ele>
        <time>2021-07-19T07:06:40Z</time>
      </trkpt>
      <trkpt lat="45.54157" lon="4.86843">
        <ele>130.78954</ele>
        <time>2021-07-19T07:06:41Z</time>
      </trkpt>
      <trkpt lat="45.54149" lon="4.86852">
        <ele>130.53587</ele>
        <time>2021-07-19T07:06:42Z</time>
      </trkpt>
      <trkpt lat="45.54142" lon="4.86859">
        <ele>130.26636</ele>
        <time>2021-07-19T07:06:43Z</time>
      </trkpt>
      <trkpt lat="45.54135" lon="4.86867">
        <ele>130.15538</ele>
        <time>2021-07-19T07:06:44Z</time>
      </trkpt>
      <trkpt lat="45.54129" lon="4.86877">
        <ele>129.84888</ele>
        <time>2021-07-19T07:06:45Z</time>
      </trkpt>
      <trkpt lat="45.54121" lon="4.86884">
        <ele>129.54237</ele>
        <time>2021-07-19T07:06:46Z</time>
      </trkpt>
      <trkpt lat="45.54113" lon="4.86892">
        <ele>129.03503</ele>
        <time>2021-07-19T07:06:47Z</time>
      </trkpt>
      <trkpt lat="45.54105" lon="4.86899">
        <ele>128.6334</ele>
        <time>2021-07-19T07:06:48Z</time>
      </trkpt>
      <trkpt lat="45.54097" lon="4.86908">
        <ele>128.55414</ele>
        <time>2021-07-19T07:06:49Z</time>
      </trkpt>
      <trkpt lat="45.5409" lon="4.86916">
        <ele>128.14194</ele>
        <time>2021-07-19T07:06:50Z</time>
      </trkpt>
      <trkpt lat="45.54082" lon="4.86925">
        <ele>127.72444</ele>
        <time>2021-07-19T07:06:51Z</time>
      </trkpt>
      <trkpt lat="45.54075" lon="4.86933">
        <ele>127.4655</ele>
        <time>2021-07-19T07:06:52Z</time>
      </trkpt>
      <trkpt lat="45.54068" lon="4.86941">
        <ele>126.778496</ele>
        <time>2021-07-19T07:06:53Z</time>
      </trkpt>
      <trkpt lat="45.54061" lon="4.86948">
        <ele>126.37686</ele>
        <time>2021-07-19T07:06:54Z</time>
      </trkpt>
      <trkpt lat="45.54054" lon="4.86956">
        <ele>126.11791</ele>
        <time>2021-07-19T07:06:55Z</time>
      </trkpt>
      <trkpt lat="45.54048" lon="4.86962">
        <ele>125.76385</ele>
        <time>2021-07-19T07:06:56Z</time>
      </trkpt>
      <trkpt lat="45.54041" lon="4.86969">
        <ele>125.536606</ele>
        <time>2021-07-19T07:06:57Z</time>
      </trkpt>
      <trkpt lat="45.54036" lon="4.86976">
        <ele>125.256516</ele>
        <time>2021-07-19T07:06:58Z</time>
      </trkpt>
      <trkpt lat="45.54031" lon="4.86982">
        <ele>124.82846</ele>
        <time>2021-07-19T07:06:59Z</time>
      </trkpt>
      <trkpt lat="45.54026" lon="4.86987">
        <ele>124.56951</ele>
        <time>2021-07-19T07:07:00Z</time>
      </trkpt>
      <trkpt lat="45.54022" lon="4.86991">
        <ele>124.3</ele>
        <time>2021-07-19T07:07:01Z</time>
      </trkpt>
      <trkpt lat="45.54018" lon="4.86996">
        <ele>123.87723</ele>
        <time>2021-07-19T07:07:02Z</time>
      </trkpt>
      <trkpt lat="45.54015" lon="4.87">
        <ele>123.78211</ele>
        <time>2021-07-19T07:07:03Z</time>
      </trkpt>
      <trkpt lat="45.54011" lon="4.87005">
        <ele>123.58658</ele>
        <time>2021-07-19T07:07:04Z</time>
      </trkpt>
      <trkpt lat="45.54007" lon="4.87008">
        <ele>123.43332</ele>
        <time>2021-07-19T07:07:05Z</time>
      </trkpt>
      <trkpt lat="45.54007" lon="4.87008">
        <ele>123.23779</ele>
        <time>2021-07-19T07:07:06Z</time>
      </trkpt>
      <trkpt lat="45.54007" lon="4.87008">
        <ele>123.264206</ele>
        <time>2021-07-19T07:07:07Z</time>
      </trkpt>
      <trkpt lat="45.54003" lon="4.87013">
        <ele>123.15324</ele>
        <time>2021-07-19T07:07:08Z</time>
      </trkpt>
      <trkpt lat="45.54002" lon="4.87014">
        <ele>123.05811</ele>
        <time>2021-07-19T07:07:09Z</time>
      </trkpt>
      <trkpt lat="45.54" lon="4.87015">
        <ele>122.904854</ele>
        <time>2021-07-19T07:07:10Z</time>
      </trkpt>
      <trkpt lat="45.53997" lon="4.87019">
        <ele>122.9577</ele>
        <time>2021-07-19T07:07:11Z</time>
      </trkpt>
      <trkpt lat="45.53994" lon="4.87022">
        <ele>122.873146</ele>
        <time>2021-07-19T07:07:12Z</time>
      </trkpt>
      <trkpt lat="45.53991" lon="4.87025">
        <ele>122.65648</ele>
        <time>2021-07-19T07:07:13Z</time>
      </trkpt>
      <trkpt lat="45.53987" lon="4.87028">
        <ele>122.56664</ele>
        <time>2021-07-19T07:07:14Z</time>
      </trkpt>
      <trkpt lat="45.53983" lon="4.87031">
        <ele>122.55079</ele>
        <time>2021-07-19T07:07:15Z</time>
      </trkpt>
      <trkpt lat="45.53978" lon="4.87036">
        <ele>122.49794</ele>
        <time>2021-07-19T07:07:16Z</time>
      </trkpt>
      <trkpt lat="45.53973" lon="4.87041">
        <ele>122.36054</ele>
        <time>2021-07-19T07:07:17Z</time>
      </trkpt>
      <trkpt lat="45.53968" lon="4.87047">
        <ele>122.15973</ele>
        <time>2021-07-19T07:07:18Z</time>
      </trkpt>
      <trkpt lat="45.53962" lon="4.87051">
        <ele>121.91134</ele>
        <time>2021-07-19T07:07:19Z</time>
      </trkpt>
      <trkpt lat="45.53956" lon="4.87057">
        <ele>121.68939</ele>
        <time>2021-07-19T07:07:20Z</time>
      </trkpt>
      <trkpt lat="45.5395" lon="4.87062">
        <ele>121.472725</ele>
        <time>2021-07-19T07:07:21Z</time>
      </trkpt>
      <trkpt lat="45.53944" lon="4.87068">
        <ele>121.16621</ele>
        <time>2021-07-19T07:07:22Z</time>
      </trkpt>
      <trkpt lat="45.53938" lon="4.87073">
        <ele>120.99711</ele>
        <time>2021-07-19T07:07:23Z</time>
      </trkpt>
      <trkpt lat="45.53932" lon="4.8708">
        <ele>121.10808</ele>
        <time>2021-07-19T07:07:24Z</time>
      </trkpt>
      <trkpt lat="45.53927" lon="4.87086">
        <ele>120.94954</ele>
        <time>2021-07-19T07:07:25Z</time>
      </trkpt>
      <trkpt lat="45.53921" lon="4.87093">
        <ele>120.65888</ele>
        <time>2021-07-19T07:07:26Z</time>
      </trkpt>
      <trkpt lat="45.53915" lon="4.871">
        <ele>120.40522</ele>
        <time>2021-07-19T07:07:27Z</time>
      </trkpt>
      <trkpt lat="45.5391" lon="4.87107">
        <ele>120.38409</ele>
        <time>2021-07-19T07:07:28Z</time>
      </trkpt>
      <trkpt lat="45.53904" lon="4.87115">
        <ele>119.903175</ele>
        <time>2021-07-19T07:07:29Z</time>
      </trkpt>
      <trkpt lat="45.53898" lon="4.87123">
        <ele>119.75521</ele>
        <time>2021-07-19T07:07:30Z</time>
      </trkpt>
      <trkpt lat="45.53892" lon="4.87131">
        <ele>119.69179</ele>
        <time>2021-07-19T07:07:31Z</time>
      </trkpt>
      <trkpt lat="45.53886" lon="4.87138">
        <ele>119.718216</ele>
        <time>2021-07-19T07:07:32Z</time>
      </trkpt>
      <trkpt lat="45.5388" lon="4.87146">
        <ele>119.53325</ele>
        <time>2021-07-19T07:07:33Z</time>
      </trkpt>
      <trkpt lat="45.53873" lon="4.87154">
        <ele>119.358864</ele>
        <time>2021-07-19T07:07:34Z</time>
      </trkpt>
      <trkpt lat="45.53868" lon="4.87161">
        <ele>119.42756</ele>
        <time>2021-07-19T07:07:35Z</time>
      </trkpt>
      <trkpt lat="45.53862" lon="4.87168">
        <ele>119.232025</ele>
        <time>2021-07-19T07:07:36Z</time>
      </trkpt>
      <trkpt lat="45.53856" lon="4.87174">
        <ele>119.13163</ele>
        <time>2021-07-19T07:07:37Z</time>
      </trkpt>
      <trkpt lat="45.5385" lon="4.87181">
        <ele>119.18447</ele>
        <time>2021-07-19T07:07:38Z</time>
      </trkpt>
      <trkpt lat="45.53845" lon="4.87188">
        <ele>119.15804</ele>
        <time>2021-07-19T07:07:39Z</time>
      </trkpt>
      <trkpt lat="45.53839" lon="4.87195">
        <ele>119.0365</ele>
        <time>2021-07-19T07:07:40Z</time>
      </trkpt>
      <trkpt lat="45.53833" lon="4.87201">
        <ele>119.08935</ele>
        <time>2021-07-19T07:07:41Z</time>
      </trkpt>
      <trkpt lat="45.53828" lon="4.87207">
        <ele>119.34301</ele>
        <time>2021-07-19T07:07:42Z</time>
      </trkpt>
      <trkpt lat="45.53824" lon="4.87215">
        <ele>119.232025</ele>
        <time>2021-07-19T07:07:43Z</time>
      </trkpt>
      <trkpt lat="45.53819" lon="4.87222">
        <ele>119.200325</ele>
        <time>2021-07-19T07:07:44Z</time>
      </trkpt>
      <trkpt lat="45.53814" lon="4.87229">
        <ele>118.97837</ele>
        <time>2021-07-19T07:07:45Z</time>
      </trkpt>
      <trkpt lat="45.53809" lon="4.87234">
        <ele>118.714134</ele>
        <time>2021-07-19T07:07:46Z</time>
      </trkpt>
      <trkpt lat="45.53804" lon="4.87239">
        <ele>118.7934</ele>
        <time>2021-07-19T07:07:47Z</time>
      </trkpt>
      <trkpt lat="45.53799" lon="4.87243">
        <ele>118.67715</ele>
        <time>2021-07-19T07:07:48Z</time>
      </trkpt>
      <trkpt lat="45.53794" lon="4.87248">
        <ele>118.656006</ele>
        <time>2021-07-19T07:07:49Z</time>
      </trkpt>
      <trkpt lat="45.53789" lon="4.87254">
        <ele>118.67187</ele>
        <time>2021-07-19T07:07:50Z</time>
      </trkpt>
      <trkpt lat="45.53785" lon="4.87261">
        <ele>119.07349</ele>
        <time>2021-07-19T07:07:51Z</time>
      </trkpt>
      <trkpt lat="45.53779" lon="4.87267">
        <ele>118.96252</ele>
        <time>2021-07-19T07:07:52Z</time>
      </trkpt>
      <trkpt lat="45.53774" lon="4.87272">
        <ele>119.14219</ele>
        <time>2021-07-19T07:07:53Z</time>
      </trkpt>
      <trkpt lat="45.53768" lon="4.87279">
        <ele>119.04179</ele>
        <time>2021-07-19T07:07:54Z</time>
      </trkpt>
      <trkpt lat="45.53762" lon="4.87284">
        <ele>118.888535</ele>
        <time>2021-07-19T07:07:55Z</time>
      </trkpt>
      <trkpt lat="45.53756" lon="4.87289">
        <ele>118.88325</ele>
        <time>2021-07-19T07:07:56Z</time>
      </trkpt>
      <trkpt lat="45.53751" lon="4.87293">
        <ele>118.893814</ele>
        <time>2021-07-19T07:07:57Z</time>
      </trkpt>
      <trkpt lat="45.53744" lon="4.87297">
        <ele>119.01536</ele>
        <time>2021-07-19T07:07:58Z</time>
      </trkpt>
      <trkpt lat="45.53737" lon="4.87302">
        <ele>118.9308</ele>
        <time>2021-07-19T07:07:59Z</time>
      </trkpt>
      <trkpt lat="45.53731" lon="4.87307">
        <ele>118.74585</ele>
        <time>2021-07-19T07:08:00Z</time>
      </trkpt>
      <trkpt lat="45.53725" lon="4.87312">
        <ele>118.502754</ele>
        <time>2021-07-19T07:08:01Z</time>
      </trkpt>
      <trkpt lat="45.53719" lon="4.87316">
        <ele>118.344215</ele>
        <time>2021-07-19T07:08:02Z</time>
      </trkpt>
      <trkpt lat="45.53713" lon="4.87321">
        <ele>118.23852</ele>
        <time>2021-07-19T07:08:03Z</time>
      </trkpt>
      <trkpt lat="45.53706" lon="4.87327">
        <ele>118.31779</ele>
        <time>2021-07-19T07:08:04Z</time>
      </trkpt>
      <trkpt lat="45.537" lon="4.87331">
        <ele>118.3125</ele>
        <time>2021-07-19T07:08:05Z</time>
      </trkpt>
      <trkpt lat="45.53695" lon="4.87337">
        <ele>118.634865</ele>
        <time>2021-07-19T07:08:06Z</time>
      </trkpt>
      <trkpt lat="45.53689" lon="4.87342">
        <ele>118.629585</ele>
        <time>2021-07-19T07:08:07Z</time>
      </trkpt>
      <trkpt lat="45.53683" lon="4.87348">
        <ele>118.43933</ele>
        <time>2021-07-19T07:08:08Z</time>
      </trkpt>
      <trkpt lat="45.53677" lon="4.87354">
        <ele>118.582016</ele>
        <time>2021-07-19T07:08:09Z</time>
      </trkpt>
      <trkpt lat="45.53671" lon="4.8736">
        <ele>118.67715</ele>
        <time>2021-07-19T07:08:10Z</time>
      </trkpt>
      <trkpt lat="45.53666" lon="4.87366">
        <ele>118.49747</ele>
        <time>2021-07-19T07:08:11Z</time>
      </trkpt>
      <trkpt lat="45.5366" lon="4.87372">
        <ele>118.37063</ele>
        <time>2021-07-19T07:08:12Z</time>
      </trkpt>
      <trkpt lat="45.53655" lon="4.87378">
        <ele>118.3125</ele>
        <time>2021-07-19T07:08:13Z</time>
      </trkpt>
      <trkpt lat="45.53649" lon="4.87384">
        <ele>118.09055</ele>
        <time>2021-07-19T07:08:14Z</time>
      </trkpt>
      <trkpt lat="45.53644" lon="4.87391">
        <ele>118.1434</ele>
        <time>2021-07-19T07:08:15Z</time>
      </trkpt>
      <trkpt lat="45.53639" lon="4.87398">
        <ele>118.04827</ele>
        <time>2021-07-19T07:08:16Z</time>
      </trkpt>
      <trkpt lat="45.53633" lon="4.87403">
        <ele>117.97429</ele>
        <time>2021-07-19T07:08:17Z</time>
      </trkpt>
      <trkpt lat="45.53628" lon="4.87407">
        <ele>118.1751</ele>
        <time>2021-07-19T07:08:18Z</time>
      </trkpt>
      <trkpt lat="45.53622" lon="4.87411">
        <ele>118.25437</ele>
        <time>2021-07-19T07:08:19Z</time>
      </trkpt>
      <trkpt lat="45.53616" lon="4.87415">
        <ele>118.603165</ele>
        <time>2021-07-19T07:08:20Z</time>
      </trkpt>
      <trkpt lat="45.53611" lon="4.8742">
        <ele>118.687706</ele>
        <time>2021-07-19T07:08:21Z</time>
      </trkpt>
      <trkpt lat="45.53605" lon="4.87422">
        <ele>118.72471</ele>
        <time>2021-07-19T07:08:22Z</time>
      </trkpt>
      <trkpt lat="45.536" lon="4.87423">
        <ele>118.30722</ele>
        <time>2021-07-19T07:08:23Z</time>
      </trkpt>
      <trkpt lat="45.53594" lon="4.87422">
        <ele>117.99542</ele>
        <time>2021-07-19T07:08:24Z</time>
      </trkpt>
      <trkpt lat="45.53588" lon="4.87421">
        <ele>118.02714</ele>
        <time>2021-07-19T07:08:25Z</time>
      </trkpt>
      <trkpt lat="45.53582" lon="4.8742">
        <ele>117.932014</ele>
        <time>2021-07-19T07:08:26Z</time>
      </trkpt>
      <trkpt lat="45.53575" lon="4.87417">
        <ele>117.963715</ele>
        <time>2021-07-19T07:08:27Z</time>
      </trkpt>
      <trkpt lat="45.53568" lon="4.87414">
        <ele>118.13283</ele>
        <time>2021-07-19T07:08:28Z</time>
      </trkpt>
      <trkpt lat="45.53561" lon="4.87411">
        <ele>118.43933</ele>
        <time>2021-07-19T07:08:29Z</time>
      </trkpt>
      <trkpt lat="45.53554" lon="4.87407">
        <ele>118.39178</ele>
        <time>2021-07-19T07:08:30Z</time>
      </trkpt>
      <trkpt lat="45.53548" lon="4.87404">
        <ele>118.61902</ele>
        <time>2021-07-19T07:08:31Z</time>
      </trkpt>
      <trkpt lat="45.53542" lon="4.87399">
        <ele>118.608444</ele>
        <time>2021-07-19T07:08:32Z</time>
      </trkpt>
      <trkpt lat="45.53537" lon="4.87393">
        <ele>118.46576</ele>
        <time>2021-07-19T07:08:33Z</time>
      </trkpt>
      <trkpt lat="45.53532" lon="4.87387">
        <ele>118.3812</ele>
        <time>2021-07-19T07:08:34Z</time>
      </trkpt>
      <trkpt lat="45.53529" lon="4.8738">
        <ele>118.169815</ele>
        <time>2021-07-19T07:08:35Z</time>
      </trkpt>
      <trkpt lat="45.53526" lon="4.87373">
        <ele>118.169815</ele>
        <time>2021-07-19T07:08:36Z</time>
      </trkpt>
      <trkpt lat="45.53523" lon="4.87365">
        <ele>118.15396</ele>
        <time>2021-07-19T07:08:37Z</time>
      </trkpt>
      <trkpt lat="45.5352" lon="4.87357">
        <ele>117.92673</ele>
        <time>2021-07-19T07:08:38Z</time>
      </trkpt>
      <trkpt lat="45.53516" lon="4.87349">
        <ele>118.037704</ele>
        <time>2021-07-19T07:08:39Z</time>
      </trkpt>
      <trkpt lat="45.53513" lon="4.87341">
        <ele>117.85274</ele>
        <time>2021-07-19T07:08:40Z</time>
      </trkpt>
      <trkpt lat="45.53509" lon="4.87332">
        <ele>118.05355</ele>
        <time>2021-07-19T07:08:41Z</time>
      </trkpt>
      <trkpt lat="45.53505" lon="4.87323">
        <ele>117.96901</ele>
        <time>2021-07-19T07:08:42Z</time>
      </trkpt>
      <trkpt lat="45.53502" lon="4.87314">
        <ele>118.00071</ele>
        <time>2021-07-19T07:08:43Z</time>
      </trkpt>
      <trkpt lat="45.53499" lon="4.87306">
        <ele>118.02185</ele>
        <time>2021-07-19T07:08:44Z</time>
      </trkpt>
      <trkpt lat="45.53497" lon="4.87299">
        <ele>118.064125</ele>
        <time>2021-07-19T07:08:45Z</time>
      </trkpt>
      <trkpt lat="45.53494" lon="4.87292">
        <ele>118.28609</ele>
        <time>2021-07-19T07:08:46Z</time>
      </trkpt>
      <trkpt lat="45.53492" lon="4.87285">
        <ele>118.30194</ele>
        <time>2021-07-19T07:08:47Z</time>
      </trkpt>
      <trkpt lat="45.53491" lon="4.87279">
        <ele>118.344215</ele>
        <time>2021-07-19T07:08:48Z</time>
      </trkpt>
      <trkpt lat="45.53491" lon="4.87272">
        <ele>118.49747</ele>
        <time>2021-07-19T07:08:49Z</time>
      </trkpt>
      <trkpt lat="45.5349" lon="4.87265">
        <ele>118.57674</ele>
        <time>2021-07-19T07:08:50Z</time>
      </trkpt>
      <trkpt lat="45.5349" lon="4.8726">
        <ele>118.608444</ele>
        <time>2021-07-19T07:08:51Z</time>
      </trkpt>
      <trkpt lat="45.5349" lon="4.87255">
        <ele>118.74585</ele>
        <time>2021-07-19T07:08:52Z</time>
      </trkpt>
      <trkpt lat="45.53489" lon="4.87251">
        <ele>118.814545</ele>
        <time>2021-07-19T07:08:53Z</time>
      </trkpt>
      <trkpt lat="45.53488" lon="4.87248">
        <ele>118.70357</ele>
        <time>2021-07-19T07:08:54Z</time>
      </trkpt>
      <trkpt lat="45.53487" lon="4.87244">
        <ele>118.70357</ele>
        <time>2021-07-19T07:08:55Z</time>
      </trkpt>
      <trkpt lat="45.53486" lon="4.87242">
        <ele>118.68243</ele>
        <time>2021-07-19T07:08:56Z</time>
      </trkpt>
      <trkpt lat="45.53484" lon="4.8724">
        <ele>118.687706</ele>
        <time>2021-07-19T07:08:57Z</time>
      </trkpt>
      <trkpt lat="45.53483" lon="4.87238">
        <ele>118.84625</ele>
        <time>2021-07-19T07:08:58Z</time>
      </trkpt>
      <trkpt lat="45.53483" lon="4.87235">
        <ele>118.9361</ele>
        <time>2021-07-19T07:08:59Z</time>
      </trkpt>
      <trkpt lat="45.53482" lon="4.87232">
        <ele>119.18447</ele>
        <time>2021-07-19T07:09:00Z</time>
      </trkpt>
      <trkpt lat="45.53482" lon="4.87229">
        <ele>119.279594</ele>
        <time>2021-07-19T07:09:01Z</time>
      </trkpt>
      <trkpt lat="45.5348" lon="4.87226">
        <ele>119.44341</ele>
        <time>2021-07-19T07:09:02Z</time>
      </trkpt>
      <trkpt lat="45.53478" lon="4.87223">
        <ele>119.380005</ele>
        <time>2021-07-19T07:09:03Z</time>
      </trkpt>
      <trkpt lat="45.53476" lon="4.8722">
        <ele>119.53325</ele>
        <time>2021-07-19T07:09:04Z</time>
      </trkpt>
      <trkpt lat="45.53474" lon="4.87217">
        <ele>119.64423</ele>
        <time>2021-07-19T07:09:05Z</time>
      </trkpt>
      <trkpt lat="45.53471" lon="4.87213">
        <ele>119.63366</ele>
        <time>2021-07-19T07:09:06Z</time>
      </trkpt>
      <trkpt lat="45.53469" lon="4.8721">
        <ele>119.84505</ele>
        <time>2021-07-19T07:09:07Z</time>
      </trkpt>
      <trkpt lat="45.53468" lon="4.87206">
        <ele>119.7235</ele>
        <time>2021-07-19T07:09:08Z</time>
      </trkpt>
      <trkpt lat="45.53468" lon="4.87203">
        <ele>119.406425</ele>
        <time>2021-07-19T07:09:09Z</time>
      </trkpt>
      <trkpt lat="45.53466" lon="4.87199">
        <ele>119.1739</ele>
        <time>2021-07-19T07:09:10Z</time>
      </trkpt>
      <trkpt lat="45.53465" lon="4.87198">
        <ele>118.86739</ele>
        <time>2021-07-19T07:09:11Z</time>
      </trkpt>
      <trkpt lat="45.53463" lon="4.87199">
        <ele>118.814545</ele>
        <time>2021-07-19T07:09:12Z</time>
      </trkpt>
      <trkpt lat="45.53461" lon="4.87202">
        <ele>118.90439</ele>
        <time>2021-07-19T07:09:13Z</time>
      </trkpt>
      <trkpt lat="45.53458" lon="4.87206">
        <ele>119.11048</ele>
        <time>2021-07-19T07:09:14Z</time>
      </trkpt>
      <trkpt lat="45.53454" lon="4.87212">
        <ele>119.07349</ele>
        <time>2021-07-19T07:09:15Z</time>
      </trkpt>
      <trkpt lat="45.5345" lon="4.87217">
        <ele>119.200325</ele>
        <time>2021-07-19T07:09:16Z</time>
      </trkpt>
      <trkpt lat="45.53445" lon="4.87221">
        <ele>119.42756</ele>
        <time>2021-07-19T07:09:17Z</time>
      </trkpt>
      <trkpt lat="45.53441" lon="4.87226">
        <ele>119.43813</ele>
        <time>2021-07-19T07:09:18Z</time>
      </trkpt>
      <trkpt lat="45.53436" lon="4.8723">
        <ele>119.43813</ele>
        <time>2021-07-19T07:09:19Z</time>
      </trkpt>
      <trkpt lat="45.5343" lon="4.87236">
        <ele>119.53854</ele>
        <time>2021-07-19T07:09:20Z</time>
      </trkpt>
      <trkpt lat="45.53425" lon="4.87242">
        <ele>119.617805</ele>
        <time>2021-07-19T07:09:21Z</time>
      </trkpt>
      <trkpt lat="45.53419" lon="4.87248">
        <ele>119.69708</ele>
        <time>2021-07-19T07:09:22Z</time>
      </trkpt>
      <trkpt lat="45.53413" lon="4.87254">
        <ele>119.5861</ele>
        <time>2021-07-19T07:09:23Z</time>
      </trkpt>
      <trkpt lat="45.53408" lon="4.8726">
        <ele>119.73936</ele>
        <time>2021-07-19T07:09:24Z</time>
      </trkpt>
      <trkpt lat="45.53402" lon="4.87266">
        <ele>119.70765</ele>
        <time>2021-07-19T07:09:25Z</time>
      </trkpt>
      <trkpt lat="45.53396" lon="4.87271">
        <ele>119.73408</ele>
        <time>2021-07-19T07:09:26Z</time>
      </trkpt>
      <trkpt lat="45.5339" lon="4.87276">
        <ele>119.765785</ele>
        <time>2021-07-19T07:09:27Z</time>
      </trkpt>
      <trkpt lat="45.53384" lon="4.87282">
        <ele>119.792206</ele>
        <time>2021-07-19T07:09:28Z</time>
      </trkpt>
      <trkpt lat="45.53378" lon="4.87287">
        <ele>119.83449</ele>
        <time>2021-07-19T07:09:29Z</time>
      </trkpt>
      <trkpt lat="45.53372" lon="4.87292">
        <ele>120.08814</ele>
        <time>2021-07-19T07:09:30Z</time>
      </trkpt>
      <trkpt lat="45.53366" lon="4.87298">
        <ele>120.01416</ele>
        <time>2021-07-19T07:09:31Z</time>
      </trkpt>
      <trkpt lat="45.5336" lon="4.87303">
        <ele>119.850334</ele>
        <time>2021-07-19T07:09:32Z</time>
      </trkpt>
      <trkpt lat="45.53353" lon="4.87308">
        <ele>119.97188</ele>
        <time>2021-07-19T07:09:33Z</time>
      </trkpt>
      <trkpt lat="45.53347" lon="4.87313">
        <ele>120.23083</ele>
        <time>2021-07-19T07:09:34Z</time>
      </trkpt>
      <trkpt lat="45.53341" lon="4.87318">
        <ele>120.24668</ele>
        <time>2021-07-19T07:09:35Z</time>
      </trkpt>
      <trkpt lat="45.53334" lon="4.87323">
        <ele>120.19384</ele>
        <time>2021-07-19T07:09:36Z</time>
      </trkpt>
      <trkpt lat="45.53328" lon="4.87328">
        <ele>119.8609</ele>
        <time>2021-07-19T07:09:37Z</time>
      </trkpt>
      <trkpt lat="45.53322" lon="4.87332">
        <ele>119.950745</ele>
        <time>2021-07-19T07:09:38Z</time>
      </trkpt>
      <trkpt lat="45.53315" lon="4.87336">
        <ele>120.183266</ele>
        <time>2021-07-19T07:09:39Z</time>
      </trkpt>
      <trkpt lat="45.53309" lon="4.8734">
        <ele>119.85562</ele>
        <time>2021-07-19T07:09:40Z</time>
      </trkpt>
      <trkpt lat="45.53302" lon="4.87344">
        <ele>119.78692</ele>
        <time>2021-07-19T07:09:41Z</time>
      </trkpt>
      <trkpt lat="45.53296" lon="4.87348">
        <ele>119.49098</ele>
        <time>2021-07-19T07:09:42Z</time>
      </trkpt>
      <trkpt lat="45.5329" lon="4.87353">
        <ele>119.53325</ele>
        <time>2021-07-19T07:09:43Z</time>
      </trkpt>
      <trkpt lat="45.53284" lon="4.87357">
        <ele>119.49098</ele>
        <time>2021-07-19T07:09:44Z</time>
      </trkpt>
      <trkpt lat="45.53278" lon="4.87361">
        <ele>119.75521</ele>
        <time>2021-07-19T07:09:45Z</time>
      </trkpt>
      <trkpt lat="45.53271" lon="4.87365">
        <ele>119.90847</ele>
        <time>2021-07-19T07:09:46Z</time>
      </trkpt>
      <trkpt lat="45.53265" lon="4.87369">
        <ele>119.670654</ele>
        <time>2021-07-19T07:09:47Z</time>
      </trkpt>
      <trkpt lat="45.53258" lon="4.87372">
        <ele>119.57553</ele>
        <time>2021-07-19T07:09:48Z</time>
      </trkpt>
      <trkpt lat="45.53252" lon="4.87376">
        <ele>119.47512</ele>
        <time>2021-07-19T07:09:49Z</time>
      </trkpt>
      <trkpt lat="45.53245" lon="4.87379">
        <ele>119.60195</ele>
        <time>2021-07-19T07:09:50Z</time>
      </trkpt>
      <trkpt lat="45.53238" lon="4.87383">
        <ele>119.617805</ele>
        <time>2021-07-19T07:09:51Z</time>
      </trkpt>
      <trkpt lat="45.53232" lon="4.87386">
        <ele>119.36415</ele>
        <time>2021-07-19T07:09:52Z</time>
      </trkpt>
      <trkpt lat="45.53225" lon="4.87389">
        <ele>119.36943</ele>
        <time>2021-07-19T07:09:53Z</time>
      </trkpt>
      <trkpt lat="45.53219" lon="4.87391">
        <ele>119.52797</ele>
        <time>2021-07-19T07:09:54Z</time>
      </trkpt>
      <trkpt lat="45.53212" lon="4.87394">
        <ele>119.6231</ele>
        <time>2021-07-19T07:09:55Z</time>
      </trkpt>
      <trkpt lat="45.53205" lon="4.87397">
        <ele>119.57553</ele>
        <time>2021-07-19T07:09:56Z</time>
      </trkpt>
      <trkpt lat="45.53198" lon="4.87398">
        <ele>119.70236</ele>
        <time>2021-07-19T07:09:57Z</time>
      </trkpt>
      <trkpt lat="45.53191" lon="4.874">
        <ele>119.49626</ele>
        <time>2021-07-19T07:09:58Z</time>
      </trkpt>
      <trkpt lat="45.53183" lon="4.87401">
        <ele>119.5174</ele>
        <time>2021-07-19T07:09:59Z</time>
      </trkpt>
      <trkpt lat="45.53177" lon="4.87403">
        <ele>119.406425</ele>
        <time>2021-07-19T07:10:00Z</time>
      </trkpt>
      <trkpt lat="45.5317" lon="4.87404">
        <ele>119.617805</ele>
        <time>2021-07-19T07:10:01Z</time>
      </trkpt>
      <trkpt lat="45.53163" lon="4.87406">
        <ele>119.69708</ele>
        <time>2021-07-19T07:10:02Z</time>
      </trkpt>
      <trkpt lat="45.53157" lon="4.87407">
        <ele>119.876755</ele>
        <time>2021-07-19T07:10:03Z</time>
      </trkpt>
      <trkpt lat="45.5315" lon="4.87407">
        <ele>119.53325</ele>
        <time>2021-07-19T07:10:04Z</time>
      </trkpt>
      <trkpt lat="45.53143" lon="4.87407">
        <ele>119.69708</ele>
        <time>2021-07-19T07:10:05Z</time>
      </trkpt>
      <trkpt lat="45.53136" lon="4.87407">
        <ele>119.771065</ele>
        <time>2021-07-19T07:10:06Z</time>
      </trkpt>
      <trkpt lat="45.5313" lon="4.87406">
        <ele>119.5861</ele>
        <time>2021-07-19T07:10:07Z</time>
      </trkpt>
      <trkpt lat="45.53122" lon="4.87405">
        <ele>119.45399</ele>
        <time>2021-07-19T07:10:08Z</time>
      </trkpt>
      <trkpt lat="45.53116" lon="4.87404">
        <ele>119.63895</ele>
        <time>2021-07-19T07:10:09Z</time>
      </trkpt>
      <trkpt lat="45.53109" lon="4.87403">
        <ele>119.66009</ele>
        <time>2021-07-19T07:10:10Z</time>
      </trkpt>
      <trkpt lat="45.53102" lon="4.87402">
        <ele>119.80277</ele>
        <time>2021-07-19T07:10:11Z</time>
      </trkpt>
      <trkpt lat="45.53095" lon="4.87402">
        <ele>119.81334</ele>
        <time>2021-07-19T07:10:12Z</time>
      </trkpt>
      <trkpt lat="45.53088" lon="4.87401">
        <ele>119.871475</ele>
        <time>2021-07-19T07:10:13Z</time>
      </trkpt>
      <trkpt lat="45.53082" lon="4.874">
        <ele>119.924324</ele>
        <time>2021-07-19T07:10:14Z</time>
      </trkpt>
      <trkpt lat="45.53075" lon="4.87399">
        <ele>119.75521</ele>
        <time>2021-07-19T07:10:15Z</time>
      </trkpt>
      <trkpt lat="45.53069" lon="4.87397">
        <ele>119.91903</ele>
        <time>2021-07-19T07:10:16Z</time>
      </trkpt>
      <trkpt lat="45.53063" lon="4.87396">
        <ele>120.14099</ele>
        <time>2021-07-19T07:10:17Z</time>
      </trkpt>
      <trkpt lat="45.53057" lon="4.87395">
        <ele>119.897896</ele>
        <time>2021-07-19T07:10:18Z</time>
      </trkpt>
      <trkpt lat="45.53051" lon="4.87393">
        <ele>120.06701</ele>
        <time>2021-07-19T07:10:19Z</time>
      </trkpt>
      <trkpt lat="45.53045" lon="4.87393">
        <ele>120.04587</ele>
        <time>2021-07-19T07:10:20Z</time>
      </trkpt>
      <trkpt lat="45.53038" lon="4.87392">
        <ele>120.51092</ele>
        <time>2021-07-19T07:10:21Z</time>
      </trkpt>
      <trkpt lat="45.53032" lon="4.87391">
        <ele>120.10928</ele>
        <time>2021-07-19T07:10:22Z</time>
      </trkpt>
      <trkpt lat="45.53026" lon="4.8739">
        <ele>120.40522</ele>
        <time>2021-07-19T07:10:23Z</time>
      </trkpt>
      <trkpt lat="45.5302" lon="4.87389">
        <ele>120.45279</ele>
        <time>2021-07-19T07:10:24Z</time>
      </trkpt>
      <trkpt lat="45.53013" lon="4.87388">
        <ele>120.33124</ele>
        <time>2021-07-19T07:10:25Z</time>
      </trkpt>
      <trkpt lat="45.53006" lon="4.87387">
        <ele>120.34709</ele>
        <time>2021-07-19T07:10:26Z</time>
      </trkpt>
      <trkpt lat="45.53" lon="4.87386">
        <ele>120.43164</ele>
        <time>2021-07-19T07:10:27Z</time>
      </trkpt>
      <trkpt lat="45.52993" lon="4.87385">
        <ele>120.56376</ele>
        <time>2021-07-19T07:10:28Z</time>
      </trkpt>
      <trkpt lat="45.52987" lon="4.87383">
        <ele>120.55319</ele>
        <time>2021-07-19T07:10:29Z</time>
      </trkpt>
      <trkpt lat="45.5298" lon="4.87383">
        <ele>120.68531</ele>
        <time>2021-07-19T07:10:30Z</time>
      </trkpt>
      <trkpt lat="45.52974" lon="4.87382">
        <ele>120.791</ele>
        <time>2021-07-19T07:10:31Z</time>
      </trkpt>
      <trkpt lat="45.52968" lon="4.87381">
        <ele>120.938965</ele>
        <time>2021-07-19T07:10:32Z</time>
      </trkpt>
      <trkpt lat="45.52961" lon="4.8738">
        <ele>120.80157</ele>
        <time>2021-07-19T07:10:33Z</time>
      </trkpt>
      <trkpt lat="45.52955" lon="4.87379">
        <ele>120.81742</ele>
        <time>2021-07-19T07:10:34Z</time>
      </trkpt>
      <trkpt lat="45.52948" lon="4.87377">
        <ele>120.85441</ele>
        <time>2021-07-19T07:10:35Z</time>
      </trkpt>
      <trkpt lat="45.52941" lon="4.87375">
        <ele>120.938965</ele>
        <time>2021-07-19T07:10:36Z</time>
      </trkpt>
      <trkpt lat="45.52935" lon="4.87374">
        <ele>121.00767</ele>
        <time>2021-07-19T07:10:37Z</time>
      </trkpt>
      <trkpt lat="45.52928" lon="4.87372">
        <ele>121.02352</ele>
        <time>2021-07-19T07:10:38Z</time>
      </trkpt>
      <trkpt lat="45.52922" lon="4.87371">
        <ele>120.99711</ele>
        <time>2021-07-19T07:10:39Z</time>
      </trkpt>
      <trkpt lat="45.52916" lon="4.8737">
        <ele>121.18735</ele>
        <time>2021-07-19T07:10:40Z</time>
      </trkpt>
      <trkpt lat="45.5291" lon="4.87369">
        <ele>121.3406</ele>
        <time>2021-07-19T07:10:41Z</time>
      </trkpt>
      <trkpt lat="45.52904" lon="4.87368">
        <ele>121.39873</ele>
        <time>2021-07-19T07:10:42Z</time>
      </trkpt>
      <trkpt lat="45.52898" lon="4.87368">
        <ele>121.63654</ele>
        <time>2021-07-19T07:10:43Z</time>
      </trkpt>
      <trkpt lat="45.52892" lon="4.87368">
        <ele>121.863785</ele>
        <time>2021-07-19T07:10:44Z</time>
      </trkpt>
      <trkpt lat="45.52886" lon="4.87367">
        <ele>121.93777</ele>
        <time>2021-07-19T07:10:45Z</time>
      </trkpt>
      <trkpt lat="45.5288" lon="4.87366">
        <ele>122.11216</ele>
        <time>2021-07-19T07:10:46Z</time>
      </trkpt>
      <trkpt lat="45.52874" lon="4.87366">
        <ele>122.08045</ele>
        <time>2021-07-19T07:10:47Z</time>
      </trkpt>
      <trkpt lat="45.52869" lon="4.87365">
        <ele>122.37111</ele>
        <time>2021-07-19T07:10:48Z</time>
      </trkpt>
      <trkpt lat="45.52863" lon="4.87364">
        <ele>122.52965</ele>
        <time>2021-07-19T07:10:49Z</time>
      </trkpt>
      <trkpt lat="45.52858" lon="4.87363">
        <ele>122.65119</ele>
        <time>2021-07-19T07:10:50Z</time>
      </trkpt>
      <trkpt lat="45.52852" lon="4.87362">
        <ele>122.772736</ele>
        <time>2021-07-19T07:10:51Z</time>
      </trkpt>
      <trkpt lat="45.52847" lon="4.87361">
        <ele>122.98941</ele>
        <time>2021-07-19T07:10:52Z</time>
      </trkpt>
      <trkpt lat="45.52842" lon="4.8736">
        <ele>123.02111</ele>
        <time>2021-07-19T07:10:53Z</time>
      </trkpt>
      <trkpt lat="45.52837" lon="4.87359">
        <ele>123.11624</ele>
        <time>2021-07-19T07:10:54Z</time>
      </trkpt>
      <trkpt lat="45.52833" lon="4.87359">
        <ele>123.290634</ele>
        <time>2021-07-19T07:10:55Z</time>
      </trkpt>
      <trkpt lat="45.52829" lon="4.87358">
        <ele>123.82439</ele>
        <time>2021-07-19T07:10:56Z</time>
      </trkpt>
      <trkpt lat="45.52824" lon="4.87356">
        <ele>124.10447</ele>
        <time>2021-07-19T07:10:57Z</time>
      </trkpt>
      <trkpt lat="45.52821" lon="4.87353">
        <ele>124.12032</ele>
        <time>2021-07-19T07:10:58Z</time>
      </trkpt>
      <trkpt lat="45.52817" lon="4.87349">
        <ele>124.34228</ele>
        <time>2021-07-19T07:10:59Z</time>
      </trkpt>
      <trkpt lat="45.52816" lon="4.87344">
        <ele>124.42155</ele>
        <time>2021-07-19T07:11:00Z</time>
      </trkpt>
      <trkpt lat="45.52817" lon="4.87337">
        <ele>124.77033</ele>
        <time>2021-07-19T07:11:01Z</time>
      </trkpt>
      <trkpt lat="45.52818" lon="4.8733">
        <ele>125.35165</ele>
        <time>2021-07-19T07:11:02Z</time>
      </trkpt>
      <trkpt lat="45.5282" lon="4.87322">
        <ele>125.52075</ele>
        <time>2021-07-19T07:11:03Z</time>
      </trkpt>
      <trkpt lat="45.52823" lon="4.87313">
        <ele>125.46262</ele>
        <time>2021-07-19T07:11:04Z</time>
      </trkpt>
      <trkpt lat="45.52826" lon="4.87305">
        <ele>125.55246</ele>
        <time>2021-07-19T07:11:05Z</time>
      </trkpt>
      <trkpt lat="45.52828" lon="4.87296">
        <ele>125.563034</ele>
        <time>2021-07-19T07:11:06Z</time>
      </trkpt>
      <trkpt lat="45.52829" lon="4.87288">
        <ele>125.60531</ele>
        <time>2021-07-19T07:11:07Z</time>
      </trkpt>
      <trkpt lat="45.52831" lon="4.87281">
        <ele>126.13905</ele>
        <time>2021-07-19T07:11:08Z</time>
      </trkpt>
      <trkpt lat="45.52833" lon="4.87274">
        <ele>126.10206</ele>
        <time>2021-07-19T07:11:09Z</time>
      </trkpt>
      <trkpt lat="45.52835" lon="4.87266">
        <ele>126.14963</ele>
        <time>2021-07-19T07:11:10Z</time>
      </trkpt>
      <trkpt lat="45.52836" lon="4.87259">
        <ele>126.287025</ele>
        <time>2021-07-19T07:11:11Z</time>
      </trkpt>
      <trkpt lat="45.52838" lon="4.87252">
        <ele>126.47727</ele>
        <time>2021-07-19T07:11:12Z</time>
      </trkpt>
      <trkpt lat="45.52839" lon="4.87246">
        <ele>126.49841</ele>
        <time>2021-07-19T07:11:13Z</time>
      </trkpt>
      <trkpt lat="45.5284" lon="4.87239">
        <ele>126.63052</ele>
        <time>2021-07-19T07:11:14Z</time>
      </trkpt>
      <trkpt lat="45.52841" lon="4.87232">
        <ele>126.50369</ele>
        <time>2021-07-19T07:11:15Z</time>
      </trkpt>
      <trkpt lat="45.52843" lon="4.87226">
        <ele>126.281746</ele>
        <time>2021-07-19T07:11:16Z</time>
      </trkpt>
      <trkpt lat="45.52844" lon="4.87219">
        <ele>126.34515</ele>
        <time>2021-07-19T07:11:17Z</time>
      </trkpt>
      <trkpt lat="45.52845" lon="4.87213">
        <ele>126.0915</ele>
        <time>2021-07-19T07:11:18Z</time>
      </trkpt>
      <trkpt lat="45.52847" lon="4.87205">
        <ele>126.17605</ele>
        <time>2021-07-19T07:11:19Z</time>
      </trkpt>
      <trkpt lat="45.52849" lon="4.87198">
        <ele>126.12849</ele>
        <time>2021-07-19T07:11:20Z</time>
      </trkpt>
      <trkpt lat="45.5285" lon="4.87191">
        <ele>126.207756</ele>
        <time>2021-07-19T07:11:21Z</time>
      </trkpt>
      <trkpt lat="45.52852" lon="4.87184">
        <ele>125.54718</ele>
        <time>2021-07-19T07:11:22Z</time>
      </trkpt>
      <trkpt lat="45.52853" lon="4.87177">
        <ele>124.77033</ele>
        <time>2021-07-19T07:11:23Z</time>
      </trkpt>
      <trkpt lat="45.52855" lon="4.8717">
        <ele>125.87482</ele>
        <time>2021-07-19T07:11:24Z</time>
      </trkpt>
      <trkpt lat="45.52857" lon="4.87163">
        <ele>125.76913</ele>
        <time>2021-07-19T07:11:25Z</time>
      </trkpt>
      <trkpt lat="45.52858" lon="4.87157">
        <ele>125.73743</ele>
        <time>2021-07-19T07:11:26Z</time>
      </trkpt>
      <trkpt lat="45.5286" lon="4.8715">
        <ele>125.73743</ele>
        <time>2021-07-19T07:11:27Z</time>
      </trkpt>
      <trkpt lat="45.52861" lon="4.87143">
        <ele>125.33051</ele>
        <time>2021-07-19T07:11:28Z</time>
      </trkpt>
      <trkpt lat="45.52863" lon="4.87136">
        <ele>125.16668</ele>
        <time>2021-07-19T07:11:29Z</time>
      </trkpt>
      <trkpt lat="45.52864" lon="4.87129">
        <ele>125.11383</ele>
        <time>2021-07-19T07:11:30Z</time>
      </trkpt>
      <trkpt lat="45.52865" lon="4.87122">
        <ele>124.98701</ele>
        <time>2021-07-19T07:11:31Z</time>
      </trkpt>
      <trkpt lat="45.52867" lon="4.87116">
        <ele>124.965866</ele>
        <time>2021-07-19T07:11:32Z</time>
      </trkpt>
      <trkpt lat="45.52868" lon="4.8711">
        <ele>125.35165</ele>
        <time>2021-07-19T07:11:33Z</time>
      </trkpt>
      <trkpt lat="45.52871" lon="4.87105">
        <ele>125.08742</ele>
        <time>2021-07-19T07:11:34Z</time>
      </trkpt>
      <trkpt lat="45.52873" lon="4.87098">
        <ele>124.870735</ele>
        <time>2021-07-19T07:11:35Z</time>
      </trkpt>
      <trkpt lat="45.52874" lon="4.87092">
        <ele>124.72805</ele>
        <time>2021-07-19T07:11:36Z</time>
      </trkpt>
      <trkpt lat="45.52876" lon="4.87086">
        <ele>124.5431</ele>
        <time>2021-07-19T07:11:37Z</time>
      </trkpt>
      <trkpt lat="45.52878" lon="4.87081">
        <ele>124.26829</ele>
        <time>2021-07-19T07:11:38Z</time>
      </trkpt>
      <trkpt lat="45.52879" lon="4.87077">
        <ele>124.05691</ele>
        <time>2021-07-19T07:11:39Z</time>
      </trkpt>
      <trkpt lat="45.5288" lon="4.87075">
        <ele>123.94065</ele>
        <time>2021-07-19T07:11:40Z</time>
      </trkpt>
      <trkpt lat="45.5288" lon="4.87072">
        <ele>124.09919</ele>
        <time>2021-07-19T07:11:41Z</time>
      </trkpt>
      <trkpt lat="45.52881" lon="4.87068">
        <ele>124.194305</ele>
        <time>2021-07-19T07:11:42Z</time>
      </trkpt>
      <trkpt lat="45.5288" lon="4.87063">
        <ele>124.07276</ele>
        <time>2021-07-19T07:11:43Z</time>
      </trkpt>
      <trkpt lat="45.5288" lon="4.87057">
        <ele>124.02519</ele>
        <time>2021-07-19T07:11:44Z</time>
      </trkpt>
      <trkpt lat="45.52881" lon="4.87051">
        <ele>123.99878</ele>
        <time>2021-07-19T07:11:45Z</time>
      </trkpt>
      <trkpt lat="45.52882" lon="4.87045">
        <ele>124.28415</ele>
        <time>2021-07-19T07:11:46Z</time>
      </trkpt>
      <trkpt lat="45.52884" lon="4.87039">
        <ele>124.28415</ele>
        <time>2021-07-19T07:11:47Z</time>
      </trkpt>
      <trkpt lat="45.52885" lon="4.87033">
        <ele>123.89837</ele>
        <time>2021-07-19T07:11:48Z</time>
      </trkpt>
      <trkpt lat="45.52886" lon="4.87027">
        <ele>123.882515</ele>
        <time>2021-07-19T07:11:49Z</time>
      </trkpt>
      <trkpt lat="45.52887" lon="4.8702">
        <ele>123.76096</ele>
        <time>2021-07-19T07:11:50Z</time>
      </trkpt>
      <trkpt lat="45.52889" lon="4.87012">
        <ele>123.72926</ele>
        <time>2021-07-19T07:11:51Z</time>
      </trkpt>
      <trkpt lat="45.5289" lon="4.87004">
        <ele>123.62885</ele>
        <time>2021-07-19T07:11:52Z</time>
      </trkpt>
      <trkpt lat="45.52893" lon="4.86994">
        <ele>123.40161</ele>
        <time>2021-07-19T07:11:53Z</time>
      </trkpt>
      <trkpt lat="45.52895" lon="4.86986">
        <ele>123.32235</ele>
        <time>2021-07-19T07:11:54Z</time>
      </trkpt>
      <trkpt lat="45.52897" lon="4.86977">
        <ele>123.16381</ele>
        <time>2021-07-19T07:11:55Z</time>
      </trkpt>
      <trkpt lat="45.52899" lon="4.86968">
        <ele>122.873146</ele>
        <time>2021-07-19T07:11:56Z</time>
      </trkpt>
      <trkpt lat="45.52901" lon="4.86959">
        <ele>123.856094</ele>
        <time>2021-07-19T07:11:57Z</time>
      </trkpt>
      <trkpt lat="45.52903" lon="4.8695">
        <ele>123.903656</ele>
        <time>2021-07-19T07:11:58Z</time>
      </trkpt>
      <trkpt lat="45.52906" lon="4.86941">
        <ele>123.20608</ele>
        <time>2021-07-19T07:11:59Z</time>
      </trkpt>
      <trkpt lat="45.52908" lon="4.86933">
        <ele>122.67762</ele>
        <time>2021-07-19T07:12:00Z</time>
      </trkpt>
      <trkpt lat="45.5291" lon="4.86924">
        <ele>123.63943</ele>
        <time>2021-07-19T07:12:01Z</time>
      </trkpt>
      <trkpt lat="45.52911" lon="4.86916">
        <ele>122.7516</ele>
        <time>2021-07-19T07:12:02Z</time>
      </trkpt>
      <trkpt lat="45.52913" lon="4.8691">
        <ele>122.175575</ele>
        <time>2021-07-19T07:12:03Z</time>
      </trkpt>
      <trkpt lat="45.52914" lon="4.86905">
        <ele>121.87435</ele>
        <time>2021-07-19T07:12:04Z</time>
      </trkpt>
      <trkpt lat="45.52918" lon="4.86902">
        <ele>122.0276</ele>
        <time>2021-07-19T07:12:05Z</time>
      </trkpt>
      <trkpt lat="45.52921" lon="4.869">
        <ele>121.71581</ele>
        <time>2021-07-19T07:12:06Z</time>
      </trkpt>
      <trkpt lat="45.52926" lon="4.869">
        <ele>121.19792</ele>
        <time>2021-07-19T07:12:07Z</time>
      </trkpt>
      <trkpt lat="45.52931" lon="4.86902">
        <ele>120.90726</ele>
        <time>2021-07-19T07:12:08Z</time>
      </trkpt>
      <trkpt lat="45.52936" lon="4.86904">
        <ele>120.76457</ele>
        <time>2021-07-19T07:12:09Z</time>
      </trkpt>
      <trkpt lat="45.52942" lon="4.86907">
        <ele>120.35238</ele>
        <time>2021-07-19T07:12:10Z</time>
      </trkpt>
      <trkpt lat="45.52948" lon="4.86909">
        <ele>119.718216</ele>
        <time>2021-07-19T07:12:11Z</time>
      </trkpt>
      <trkpt lat="45.52953" lon="4.86913">
        <ele>119.19504</ele>
        <time>2021-07-19T07:12:12Z</time>
      </trkpt>
      <trkpt lat="45.52957" lon="4.86918">
        <ele>118.89909</ele>
        <time>2021-07-19T07:12:13Z</time>
      </trkpt>
      <trkpt lat="45.52959" lon="4.86924">
        <ele>118.14868</ele>
        <time>2021-07-19T07:12:14Z</time>
      </trkpt>
      <trkpt lat="45.52958" lon="4.8693">
        <ele>118.550316</ele>
        <time>2021-07-19T07:12:15Z</time>
      </trkpt>
      <trkpt lat="45.52957" lon="4.86937">
        <ele>118.39706</ele>
        <time>2021-07-19T07:12:16Z</time>
      </trkpt>
      <trkpt lat="45.52955" lon="4.86943">
        <ele>118.22794</ele>
        <time>2021-07-19T07:12:17Z</time>
      </trkpt>
      <trkpt lat="45.52954" lon="4.8695">
        <ele>118.449905</ele>
        <time>2021-07-19T07:12:18Z</time>
      </trkpt>
      <trkpt lat="45.52953" lon="4.86958">
        <ele>118.57146</ele>
        <time>2021-07-19T07:12:19Z</time>
      </trkpt>
      <trkpt lat="45.52951" lon="4.86966">
        <ele>118.54503</ele>
        <time>2021-07-19T07:12:20Z</time>
      </trkpt>
      <trkpt lat="45.5295" lon="4.86977">
        <ele>118.555595</ele>
        <time>2021-07-19T07:12:21Z</time>
      </trkpt>
      <trkpt lat="45.52948" lon="4.86986">
        <ele>118.39706</ele>
        <time>2021-07-19T07:12:22Z</time>
      </trkpt>
      <trkpt lat="45.52946" lon="4.86994">
        <ele>118.4182</ele>
        <time>2021-07-19T07:12:23Z</time>
      </trkpt>
      <trkpt lat="45.52944" lon="4.87002">
        <ele>118.20681</ele>
        <time>2021-07-19T07:12:24Z</time>
      </trkpt>
      <trkpt lat="45.52942" lon="4.8701">
        <ele>118.222664</ele>
        <time>2021-07-19T07:12:25Z</time>
      </trkpt>
      <trkpt lat="45.5294" lon="4.87017">
        <ele>118.23324</ele>
        <time>2021-07-19T07:12:26Z</time>
      </trkpt>
      <trkpt lat="45.52937" lon="4.87025">
        <ele>118.40763</ele>
        <time>2021-07-19T07:12:27Z</time>
      </trkpt>
      <trkpt lat="45.52935" lon="4.87032">
        <ele>118.455185</ele>
        <time>2021-07-19T07:12:28Z</time>
      </trkpt>
      <trkpt lat="45.52933" lon="4.87038">
        <ele>118.444626</ele>
        <time>2021-07-19T07:12:29Z</time>
      </trkpt>
      <trkpt lat="45.52931" lon="4.87045">
        <ele>118.344215</ele>
        <time>2021-07-19T07:12:30Z</time>
      </trkpt>
      <trkpt lat="45.52928" lon="4.87052">
        <ele>118.27023</ele>
        <time>2021-07-19T07:12:31Z</time>
      </trkpt>
      <trkpt lat="45.52926" lon="4.87059">
        <ele>118.36007</ele>
        <time>2021-07-19T07:12:32Z</time>
      </trkpt>
      <trkpt lat="45.52922" lon="4.87065">
        <ele>118.27551</ele>
        <time>2021-07-19T07:12:33Z</time>
      </trkpt>
      <trkpt lat="45.52919" lon="4.87073">
        <ele>118.169815</ele>
        <time>2021-07-19T07:12:34Z</time>
      </trkpt>
      <trkpt lat="45.52918" lon="4.8708">
        <ele>118.40234</ele>
        <time>2021-07-19T07:12:35Z</time>
      </trkpt>
      <trkpt lat="45.52916" lon="4.87087">
        <ele>118.33364</ele>
        <time>2021-07-19T07:12:36Z</time>
      </trkpt>
      <trkpt lat="45.52913" lon="4.87093">
        <ele>118.31779</ele>
        <time>2021-07-19T07:12:37Z</time>
      </trkpt>
      <trkpt lat="45.52911" lon="4.871">
        <ele>118.20681</ele>
        <time>2021-07-19T07:12:38Z</time>
      </trkpt>
      <trkpt lat="45.52909" lon="4.87108">
        <ele>118.22794</ele>
        <time>2021-07-19T07:12:39Z</time>
      </trkpt>
      <trkpt lat="45.52907" lon="4.87115">
        <ele>118.006</ele>
        <time>2021-07-19T07:12:40Z</time>
      </trkpt>
      <trkpt lat="45.52906" lon="4.87121">
        <ele>117.572655</ele>
        <time>2021-07-19T07:12:41Z</time>
      </trkpt>
      <trkpt lat="45.52905" lon="4.87126">
        <ele>117.53566</ele>
        <time>2021-07-19T07:12:42Z</time>
      </trkpt>
      <trkpt lat="45.52904" lon="4.87131">
        <ele>117.493385</ele>
        <time>2021-07-19T07:12:43Z</time>
      </trkpt>
      <trkpt lat="45.52904" lon="4.87134">
        <ele>117.37184</ele>
        <time>2021-07-19T07:12:44Z</time>
      </trkpt>
      <trkpt lat="45.52901" lon="4.87138">
        <ele>117.31899</ele>
        <time>2021-07-19T07:12:45Z</time>
      </trkpt>
      <trkpt lat="45.52898" lon="4.87139">
        <ele>117.44582</ele>
        <time>2021-07-19T07:12:46Z</time>
      </trkpt>
      <trkpt lat="45.52895" lon="4.8714">
        <ele>117.5568</ele>
        <time>2021-07-19T07:12:47Z</time>
      </trkpt>
      <trkpt lat="45.52892" lon="4.8714">
        <ele>117.63078</ele>
        <time>2021-07-19T07:12:48Z</time>
      </trkpt>
      <trkpt lat="45.52889" lon="4.87139">
        <ele>117.78404</ele>
        <time>2021-07-19T07:12:49Z</time>
      </trkpt>
      <trkpt lat="45.52884" lon="4.87137">
        <ele>117.90559</ele>
        <time>2021-07-19T07:12:50Z</time>
      </trkpt>
      <trkpt lat="45.52879" lon="4.87136">
        <ele>117.97957</ele>
        <time>2021-07-19T07:12:51Z</time>
      </trkpt>
      <trkpt lat="45.52874" lon="4.87134">
        <ele>117.778755</ele>
        <time>2021-07-19T07:12:52Z</time>
      </trkpt>
      <trkpt lat="45.5287" lon="4.87133">
        <ele>117.50925</ele>
        <time>2021-07-19T07:12:53Z</time>
      </trkpt>
      <trkpt lat="45.52865" lon="4.87131">
        <ele>117.7999</ele>
        <time>2021-07-19T07:12:54Z</time>
      </trkpt>
      <trkpt lat="45.5286" lon="4.8713">
        <ele>117.95315</ele>
        <time>2021-07-19T07:12:55Z</time>
      </trkpt>
      <trkpt lat="45.52855" lon="4.87129">
        <ele>118.22794</ele>
        <time>2021-07-19T07:12:56Z</time>
      </trkpt>
      <trkpt lat="45.5285" lon="4.87128">
        <ele>118.07998</ele>
        <time>2021-07-19T07:12:57Z</time>
      </trkpt>
      <trkpt lat="45.52844" lon="4.87127">
        <ele>118.09055</ele>
        <time>2021-07-19T07:12:58Z</time>
      </trkpt>
      <trkpt lat="45.52839" lon="4.87125">
        <ele>118.064125</ele>
        <time>2021-07-19T07:12:59Z</time>
      </trkpt>
      <trkpt lat="45.52834" lon="4.87122">
        <ele>118.0747</ele>
        <time>2021-07-19T07:13:00Z</time>
      </trkpt>
      <trkpt lat="45.5283" lon="4.87119">
        <ele>117.94786</ele>
        <time>2021-07-19T07:13:01Z</time>
      </trkpt>
      <trkpt lat="45.52825" lon="4.87117">
        <ele>118.164536</ele>
        <time>2021-07-19T07:13:02Z</time>
      </trkpt>
      <trkpt lat="45.52819" lon="4.87113">
        <ele>117.94786</ele>
        <time>2021-07-19T07:13:03Z</time>
      </trkpt>
      <trkpt lat="45.52813" lon="4.87111">
        <ele>117.8686</ele>
        <time>2021-07-19T07:13:04Z</time>
      </trkpt>
      <trkpt lat="45.52808" lon="4.87109">
        <ele>117.73119</ele>
        <time>2021-07-19T07:13:05Z</time>
      </trkpt>
      <trkpt lat="45.52802" lon="4.87105">
        <ele>117.92673</ele>
        <time>2021-07-19T07:13:06Z</time>
      </trkpt>
      <trkpt lat="45.52797" lon="4.87101">
        <ele>118.02714</ele>
        <time>2021-07-19T07:13:07Z</time>
      </trkpt>
      <trkpt lat="45.52792" lon="4.87097">
        <ele>117.90031</ele>
        <time>2021-07-19T07:13:08Z</time>
      </trkpt>
      <trkpt lat="45.52786" lon="4.87092">
        <ele>118.058846</ele>
        <time>2021-07-19T07:13:09Z</time>
      </trkpt>
      <trkpt lat="45.52779" lon="4.87087">
        <ele>117.32956</ele>
        <time>2021-07-19T07:13:10Z</time>
      </trkpt>
      <trkpt lat="45.52774" lon="4.87083">
        <ele>117.82103</ele>
        <time>2021-07-19T07:13:11Z</time>
      </trkpt>
      <trkpt lat="45.52769" lon="4.87079">
        <ele>118.02714</ele>
        <time>2021-07-19T07:13:12Z</time>
      </trkpt>
      <trkpt lat="45.52763" lon="4.87076">
        <ele>117.89501</ele>
        <time>2021-07-19T07:13:13Z</time>
      </trkpt>
      <trkpt lat="45.52758" lon="4.87073">
        <ele>117.82103</ele>
        <time>2021-07-19T07:13:14Z</time>
      </trkpt>
      <trkpt lat="45.52752" lon="4.87069">
        <ele>117.932014</ele>
        <time>2021-07-19T07:13:15Z</time>
      </trkpt>
      <trkpt lat="45.52745" lon="4.87066">
        <ele>117.963715</ele>
        <time>2021-07-19T07:13:16Z</time>
      </trkpt>
      <trkpt lat="45.5274" lon="4.87062">
        <ele>117.932014</ele>
        <time>2021-07-19T07:13:17Z</time>
      </trkpt>
      <trkpt lat="45.52734" lon="4.87056">
        <ele>117.826324</ele>
        <time>2021-07-19T07:13:18Z</time>
      </trkpt>
      <trkpt lat="45.52729" lon="4.87052">
        <ele>117.910866</ele>
        <time>2021-07-19T07:13:19Z</time>
      </trkpt>
      <trkpt lat="45.52723" lon="4.87048">
        <ele>117.87388</ele>
        <time>2021-07-19T07:13:20Z</time>
      </trkpt>
      <trkpt lat="45.52718" lon="4.87044">
        <ele>118.02714</ele>
        <time>2021-07-19T07:13:21Z</time>
      </trkpt>
      <trkpt lat="45.52712" lon="4.87039">
        <ele>117.94258</ele>
        <time>2021-07-19T07:13:22Z</time>
      </trkpt>
      <trkpt lat="45.52706" lon="4.87036">
        <ele>117.91616</ele>
        <time>2021-07-19T07:13:23Z</time>
      </trkpt>
      <trkpt lat="45.52701" lon="4.87032">
        <ele>117.90031</ele>
        <time>2021-07-19T07:13:24Z</time>
      </trkpt>
      <trkpt lat="45.52696" lon="4.87028">
        <ele>117.7629</ele>
        <time>2021-07-19T07:13:25Z</time>
      </trkpt>
      <trkpt lat="45.5269" lon="4.87025">
        <ele>117.6255</ele>
        <time>2021-07-19T07:13:26Z</time>
      </trkpt>
      <trkpt lat="45.52684" lon="4.87022">
        <ele>117.68892</ele>
        <time>2021-07-19T07:13:27Z</time>
      </trkpt>
      <trkpt lat="45.52679" lon="4.87018">
        <ele>117.65721</ele>
        <time>2021-07-19T07:13:28Z</time>
      </trkpt>
      <trkpt lat="45.52673" lon="4.87014">
        <ele>117.673065</ele>
        <time>2021-07-19T07:13:29Z</time>
      </trkpt>
      <trkpt lat="45.52668" lon="4.87011">
        <ele>117.84217</ele>
        <time>2021-07-19T07:13:30Z</time>
      </trkpt>
      <trkpt lat="45.52662" lon="4.87006">
        <ele>118.09055</ele>
        <time>2021-07-19T07:13:31Z</time>
      </trkpt>
      <trkpt lat="45.52656" lon="4.87001">
        <ele>117.92673</ele>
        <time>2021-07-19T07:13:32Z</time>
      </trkpt>
      <trkpt lat="45.52652" lon="4.86997">
        <ele>117.88973</ele>
        <time>2021-07-19T07:13:33Z</time>
      </trkpt>
      <trkpt lat="45.52647" lon="4.86992">
        <ele>117.82103</ele>
        <time>2021-07-19T07:13:34Z</time>
      </trkpt>
      <trkpt lat="45.52642" lon="4.86987">
        <ele>117.74177</ele>
        <time>2021-07-19T07:13:35Z</time>
      </trkpt>
      <trkpt lat="45.52638" lon="4.86981">
        <ele>117.805176</ele>
        <time>2021-07-19T07:13:36Z</time>
      </trkpt>
      <trkpt lat="45.52633" lon="4.86976">
        <ele>117.932014</ele>
        <time>2021-07-19T07:13:37Z</time>
      </trkpt>
      <trkpt lat="45.52629" lon="4.86971">
        <ele>118.02714</ele>
        <time>2021-07-19T07:13:38Z</time>
      </trkpt>
      <trkpt lat="45.52624" lon="4.86967">
        <ele>118.09055</ele>
        <time>2021-07-19T07:13:39Z</time>
      </trkpt>
      <trkpt lat="45.5262" lon="4.86964">
        <ele>117.773476</ele>
        <time>2021-07-19T07:13:40Z</time>
      </trkpt>
      <trkpt lat="45.52615" lon="4.8696">
        <ele>117.82103</ele>
        <time>2021-07-19T07:13:41Z</time>
      </trkpt>
      <trkpt lat="45.5261" lon="4.86957">
        <ele>117.90031</ele>
        <time>2021-07-19T07:13:42Z</time>
      </trkpt>
      <trkpt lat="45.52605" lon="4.86954">
        <ele>117.97429</ele>
        <time>2021-07-19T07:13:43Z</time>
      </trkpt>
      <trkpt lat="45.526" lon="4.8695">
        <ele>117.91616</ele>
        <time>2021-07-19T07:13:44Z</time>
      </trkpt>
      <trkpt lat="45.52595" lon="4.86945">
        <ele>118.037704</ele>
        <time>2021-07-19T07:13:45Z</time>
      </trkpt>
      <trkpt lat="45.52589" lon="4.86941">
        <ele>118.07998</ele>
        <time>2021-07-19T07:13:46Z</time>
      </trkpt>
      <trkpt lat="45.52584" lon="4.86937">
        <ele>118.064125</ele>
        <time>2021-07-19T07:13:47Z</time>
      </trkpt>
      <trkpt lat="45.52578" lon="4.86933">
        <ele>117.99014</ele>
        <time>2021-07-19T07:13:48Z</time>
      </trkpt>
      <trkpt lat="45.52573" lon="4.8693">
        <ele>117.92144</ele>
        <time>2021-07-19T07:13:49Z</time>
      </trkpt>
      <trkpt lat="45.52568" lon="4.86926">
        <ele>118.01656</ele>
        <time>2021-07-19T07:13:50Z</time>
      </trkpt>
      <trkpt lat="45.52562" lon="4.86922">
        <ele>117.97429</ele>
        <time>2021-07-19T07:13:51Z</time>
      </trkpt>
      <trkpt lat="45.52557" lon="4.86919">
        <ele>117.86331</ele>
        <time>2021-07-19T07:13:52Z</time>
      </trkpt>
      <trkpt lat="45.52552" lon="4.86915">
        <ele>117.831604</ele>
        <time>2021-07-19T07:13:53Z</time>
      </trkpt>
      <trkpt lat="45.52546" lon="4.86912">
        <ele>117.493385</ele>
        <time>2021-07-19T07:13:54Z</time>
      </trkpt>
      <trkpt lat="45.52541" lon="4.86906">
        <ele>117.699486</ele>
        <time>2021-07-19T07:13:55Z</time>
      </trkpt>
      <trkpt lat="45.52535" lon="4.86902">
        <ele>117.8686</ele>
        <time>2021-07-19T07:13:56Z</time>
      </trkpt>
      <trkpt lat="45.52529" lon="4.86898">
        <ele>117.85274</ele>
        <time>2021-07-19T07:13:57Z</time>
      </trkpt>
      <trkpt lat="45.52523" lon="4.86894">
        <ele>117.6942</ele>
        <time>2021-07-19T07:13:58Z</time>
      </trkpt>
      <trkpt lat="45.52518" lon="4.8689">
        <ele>117.667786</ele>
        <time>2021-07-19T07:13:59Z</time>
      </trkpt>
      <trkpt lat="45.52512" lon="4.86885">
        <ele>117.75762</ele>
        <time>2021-07-19T07:14:00Z</time>
      </trkpt>
      <trkpt lat="45.52507" lon="4.8688">
        <ele>117.778755</ele>
        <time>2021-07-19T07:14:01Z</time>
      </trkpt>
      <trkpt lat="45.52501" lon="4.86875">
        <ele>117.66249</ele>
        <time>2021-07-19T07:14:02Z</time>
      </trkpt>
      <trkpt lat="45.52496" lon="4.8687">
        <ele>117.60436</ele>
        <time>2021-07-19T07:14:04Z</time>
      </trkpt>
      <trkpt lat="45.52491" lon="4.86866">
        <ele>117.805176</ele>
        <time>2021-07-19T07:14:05Z</time>
      </trkpt>
      <trkpt lat="45.52486" lon="4.86861">
        <ele>117.7999</ele>
        <time>2021-07-19T07:14:06Z</time>
      </trkpt>
      <trkpt lat="45.52481" lon="4.86856">
        <ele>117.90559</ele>
        <time>2021-07-19T07:14:07Z</time>
      </trkpt>
      <trkpt lat="45.52476" lon="4.86852">
        <ele>117.858025</ele>
        <time>2021-07-19T07:14:08Z</time>
      </trkpt>
      <trkpt lat="45.52471" lon="4.86847">
        <ele>117.71534</ele>
        <time>2021-07-19T07:14:09Z</time>
      </trkpt>
      <trkpt lat="45.52466" lon="4.86843">
        <ele>117.88445</ele>
        <time>2021-07-19T07:14:10Z</time>
      </trkpt>
      <trkpt lat="45.52461" lon="4.86839">
        <ele>117.651924</ele>
        <time>2021-07-19T07:14:11Z</time>
      </trkpt>
      <trkpt lat="45.52455" lon="4.86835">
        <ele>117.73647</ele>
        <time>2021-07-19T07:14:12Z</time>
      </trkpt>
      <trkpt lat="45.5245" lon="4.86831">
        <ele>117.858025</ele>
        <time>2021-07-19T07:14:13Z</time>
      </trkpt>
      <trkpt lat="45.52445" lon="4.86827">
        <ele>117.773476</ele>
        <time>2021-07-19T07:14:14Z</time>
      </trkpt>
      <trkpt lat="45.5244" lon="4.86824">
        <ele>117.71005</ele>
        <time>2021-07-19T07:14:15Z</time>
      </trkpt>
      <trkpt lat="45.52435" lon="4.8682">
        <ele>117.7629</ele>
        <time>2021-07-19T07:14:16Z</time>
      </trkpt>
      <trkpt lat="45.5243" lon="4.86817">
        <ele>117.64136</ele>
        <time>2021-07-19T07:14:17Z</time>
      </trkpt>
      <trkpt lat="45.52425" lon="4.86813">
        <ele>117.64136</ele>
        <time>2021-07-19T07:14:18Z</time>
      </trkpt>
      <trkpt lat="45.5242" lon="4.86809">
        <ele>117.74177</ele>
        <time>2021-07-19T07:14:19Z</time>
      </trkpt>
      <trkpt lat="45.52415" lon="4.86805">
        <ele>117.673065</ele>
        <time>2021-07-19T07:14:20Z</time>
      </trkpt>
      <trkpt lat="45.5241" lon="4.868">
        <ele>117.72063</ele>
        <time>2021-07-19T07:14:21Z</time>
      </trkpt>
      <trkpt lat="45.52405" lon="4.86794">
        <ele>117.64136</ele>
        <time>2021-07-19T07:14:22Z</time>
      </trkpt>
      <trkpt lat="45.52401" lon="4.86789">
        <ele>117.56209</ele>
        <time>2021-07-19T07:14:23Z</time>
      </trkpt>
      <trkpt lat="45.52395" lon="4.86783">
        <ele>117.678345</ele>
        <time>2021-07-19T07:14:24Z</time>
      </trkpt>
      <trkpt lat="45.52391" lon="4.86777">
        <ele>117.65721</ele>
        <time>2021-07-19T07:14:25Z</time>
      </trkpt>
      <trkpt lat="45.52385" lon="4.8677">
        <ele>117.50395</ele>
        <time>2021-07-19T07:14:26Z</time>
      </trkpt>
      <trkpt lat="45.5238" lon="4.86763">
        <ele>117.51453</ele>
        <time>2021-07-19T07:14:27Z</time>
      </trkpt>
      <trkpt lat="45.52375" lon="4.86756">
        <ele>117.46168</ele>
        <time>2021-07-19T07:14:28Z</time>
      </trkpt>
      <trkpt lat="45.52371" lon="4.86749">
        <ele>117.6255</ele>
        <time>2021-07-19T07:14:29Z</time>
      </trkpt>
      <trkpt lat="45.52366" lon="4.86743">
        <ele>117.78404</ele>
        <time>2021-07-19T07:14:30Z</time>
      </trkpt>
      <trkpt lat="45.52362" lon="4.86737">
        <ele>117.910866</ele>
        <time>2021-07-19T07:14:31Z</time>
      </trkpt>
      <trkpt lat="45.52358" lon="4.8673">
        <ele>118.01128</ele>
        <time>2021-07-19T07:14:32Z</time>
      </trkpt>
      <trkpt lat="45.52354" lon="4.86724">
        <ele>118.037704</ele>
        <time>2021-07-19T07:14:33Z</time>
      </trkpt>
      <trkpt lat="45.5235" lon="4.86718">
        <ele>117.879166</ele>
        <time>2021-07-19T07:14:34Z</time>
      </trkpt>
      <trkpt lat="45.52346" lon="4.86712">
        <ele>117.89501</ele>
        <time>2021-07-19T07:14:35Z</time>
      </trkpt>
      <trkpt lat="45.52342" lon="4.86706">
        <ele>117.8686</ele>
        <time>2021-07-19T07:14:36Z</time>
      </trkpt>
      <trkpt lat="45.52337" lon="4.86701">
        <ele>118.006</ele>
        <time>2021-07-19T07:14:37Z</time>
      </trkpt>
      <trkpt lat="45.52333" lon="4.86695">
        <ele>118.085266</ele>
        <time>2021-07-19T07:14:38Z</time>
      </trkpt>
      <trkpt lat="45.52329" lon="4.8669">
        <ele>117.97957</ele>
        <time>2021-07-19T07:14:39Z</time>
      </trkpt>
      <trkpt lat="45.52325" lon="4.86684">
        <ele>118.00071</ele>
        <time>2021-07-19T07:14:40Z</time>
      </trkpt>
      <trkpt lat="45.52321" lon="4.86679">
        <ele>118.058846</ele>
        <time>2021-07-19T07:14:41Z</time>
      </trkpt>
      <trkpt lat="45.52317" lon="4.86674">
        <ele>118.13283</ele>
        <time>2021-07-19T07:14:42Z</time>
      </trkpt>
      <trkpt lat="45.52313" lon="4.86668">
        <ele>117.84217</ele>
        <time>2021-07-19T07:14:43Z</time>
      </trkpt>
      <trkpt lat="45.52309" lon="4.86662">
        <ele>117.6942</ele>
        <time>2021-07-19T07:14:44Z</time>
      </trkpt>
      <trkpt lat="45.52305" lon="4.86656">
        <ele>117.673065</ele>
        <time>2021-07-19T07:14:45Z</time>
      </trkpt>
      <trkpt lat="45.523" lon="4.8665">
        <ele>117.4564</ele>
        <time>2021-07-19T07:14:46Z</time>
      </trkpt>
      <trkpt lat="45.52296" lon="4.86643">
        <ele>117.42469</ele>
        <time>2021-07-19T07:14:47Z</time>
      </trkpt>
      <trkpt lat="45.52292" lon="4.86636">
        <ele>117.826324</ele>
        <time>2021-07-19T07:14:48Z</time>
      </trkpt>
      <trkpt lat="45.52288" lon="4.86629">
        <ele>117.94786</ele>
        <time>2021-07-19T07:14:49Z</time>
      </trkpt>
      <trkpt lat="45.52285" lon="4.86622">
        <ele>117.96901</ele>
        <time>2021-07-19T07:14:50Z</time>
      </trkpt>
      <trkpt lat="45.5228" lon="4.86617">
        <ele>117.84746</ele>
        <time>2021-07-19T07:14:51Z</time>
      </trkpt>
      <trkpt lat="45.52276" lon="4.86612">
        <ele>117.83688</ele>
        <time>2021-07-19T07:14:52Z</time>
      </trkpt>
      <trkpt lat="45.52272" lon="4.86607">
        <ele>117.92673</ele>
        <time>2021-07-19T07:14:53Z</time>
      </trkpt>
      <trkpt lat="45.52268" lon="4.86603">
        <ele>117.78404</ele>
        <time>2021-07-19T07:14:54Z</time>
      </trkpt>
      <trkpt lat="45.52264" lon="4.86599">
        <ele>117.53566</ele>
        <time>2021-07-19T07:14:55Z</time>
      </trkpt>
      <trkpt lat="45.52261" lon="4.86595">
        <ele>117.419395</ele>
        <time>2021-07-19T07:14:56Z</time>
      </trkpt>
      <trkpt lat="45.52257" lon="4.86591">
        <ele>117.74705</ele>
        <time>2021-07-19T07:14:57Z</time>
      </trkpt>
      <trkpt lat="45.52255" lon="4.86586">
        <ele>117.50395</ele>
        <time>2021-07-19T07:14:58Z</time>
      </trkpt>
      <trkpt lat="45.52251" lon="4.86579">
        <ele>117.7999</ele>
        <time>2021-07-19T07:14:59Z</time>
      </trkpt>
      <trkpt lat="45.52247" lon="4.86573">
        <ele>117.78404</ele>
        <time>2021-07-19T07:15:00Z</time>
      </trkpt>
      <trkpt lat="45.52243" lon="4.86566">
        <ele>117.84217</ele>
        <time>2021-07-19T07:15:01Z</time>
      </trkpt>
      <trkpt lat="45.52239" lon="4.8656">
        <ele>117.90559</ele>
        <time>2021-07-19T07:15:02Z</time>
      </trkpt>
      <trkpt lat="45.52234" lon="4.86554">
        <ele>117.7999</ele>
        <time>2021-07-19T07:15:03Z</time>
      </trkpt>
      <trkpt lat="45.52229" lon="4.86549">
        <ele>117.78932</ele>
        <time>2021-07-19T07:15:04Z</time>
      </trkpt>
      <trkpt lat="45.52223" lon="4.86543">
        <ele>117.778755</ele>
        <time>2021-07-19T07:15:05Z</time>
      </trkpt>
      <trkpt lat="45.52218" lon="4.86538">
        <ele>117.778755</ele>
        <time>2021-07-19T07:15:06Z</time>
      </trkpt>
      <trkpt lat="45.52213" lon="4.86532">
        <ele>117.88973</ele>
        <time>2021-07-19T07:15:07Z</time>
      </trkpt>
      <trkpt lat="45.52208" lon="4.86527">
        <ele>117.81575</ele>
        <time>2021-07-19T07:15:08Z</time>
      </trkpt>
      <trkpt lat="45.52203" lon="4.86521">
        <ele>117.778755</ele>
        <time>2021-07-19T07:15:09Z</time>
      </trkpt>
      <trkpt lat="45.52198" lon="4.86515">
        <ele>117.8686</ele>
        <time>2021-07-19T07:15:10Z</time>
      </trkpt>
      <trkpt lat="45.52192" lon="4.8651">
        <ele>117.84217</ele>
        <time>2021-07-19T07:15:11Z</time>
      </trkpt>
      <trkpt lat="45.52187" lon="4.86504">
        <ele>117.79461</ele>
        <time>2021-07-19T07:15:12Z</time>
      </trkpt>
      <trkpt lat="45.52182" lon="4.86499">
        <ele>117.958435</ele>
        <time>2021-07-19T07:15:13Z</time>
      </trkpt>
      <trkpt lat="45.52177" lon="4.86493">
        <ele>117.87388</ele>
        <time>2021-07-19T07:15:14Z</time>
      </trkpt>
      <trkpt lat="45.52173" lon="4.86488">
        <ele>117.73119</ele>
        <time>2021-07-19T07:15:15Z</time>
      </trkpt>
      <trkpt lat="45.52168" lon="4.86482">
        <ele>117.725914</ele>
        <time>2021-07-19T07:15:16Z</time>
      </trkpt>
      <trkpt lat="45.52163" lon="4.86477">
        <ele>117.73647</ele>
        <time>2021-07-19T07:15:17Z</time>
      </trkpt>
      <trkpt lat="45.52157" lon="4.86471">
        <ele>117.84217</ele>
        <time>2021-07-19T07:15:18Z</time>
      </trkpt>
      <trkpt lat="45.52152" lon="4.86466">
        <ele>117.90559</ele>
        <time>2021-07-19T07:15:19Z</time>
      </trkpt>
      <trkpt lat="45.52147" lon="4.8646">
        <ele>117.95315</ele>
        <time>2021-07-19T07:15:20Z</time>
      </trkpt>
      <trkpt lat="45.52143" lon="4.86454">
        <ele>117.61494</ele>
        <time>2021-07-19T07:15:21Z</time>
      </trkpt>
      <trkpt lat="45.52138" lon="4.86449">
        <ele>117.78932</ele>
        <time>2021-07-19T07:15:22Z</time>
      </trkpt>
      <trkpt lat="45.52133" lon="4.86443">
        <ele>117.85274</ele>
        <time>2021-07-19T07:15:23Z</time>
      </trkpt>
      <trkpt lat="45.52128" lon="4.86437">
        <ele>117.71005</ele>
        <time>2021-07-19T07:15:24Z</time>
      </trkpt>
      <trkpt lat="45.52123" lon="4.86431">
        <ele>117.86331</ele>
        <time>2021-07-19T07:15:25Z</time>
      </trkpt>
      <trkpt lat="45.52118" lon="4.86426">
        <ele>117.7629</ele>
        <time>2021-07-19T07:15:26Z</time>
      </trkpt>
      <trkpt lat="45.52113" lon="4.8642">
        <ele>117.76818</ele>
        <time>2021-07-19T07:15:27Z</time>
      </trkpt>
      <trkpt lat="45.52108" lon="4.86416">
        <ele>117.773476</ele>
        <time>2021-07-19T07:15:28Z</time>
      </trkpt>
      <trkpt lat="45.52103" lon="4.86411">
        <ele>117.74705</ele>
        <time>2021-07-19T07:15:29Z</time>
      </trkpt>
      <trkpt lat="45.52097" lon="4.86406">
        <ele>117.678345</ele>
        <time>2021-07-19T07:15:30Z</time>
      </trkpt>
      <trkpt lat="45.52092" lon="4.86401">
        <ele>117.879166</ele>
        <time>2021-07-19T07:15:31Z</time>
      </trkpt>
      <trkpt lat="45.52087" lon="4.86396">
        <ele>117.78932</ele>
        <time>2021-07-19T07:15:32Z</time>
      </trkpt>
      <trkpt lat="45.52082" lon="4.86391">
        <ele>117.86331</ele>
        <time>2021-07-19T07:15:33Z</time>
      </trkpt>
      <trkpt lat="45.52077" lon="4.86385">
        <ele>117.858025</ele>
        <time>2021-07-19T07:15:34Z</time>
      </trkpt>
      <trkpt lat="45.52072" lon="4.86379">
        <ele>117.82103</ele>
        <time>2021-07-19T07:15:35Z</time>
      </trkpt>
      <trkpt lat="45.52067" lon="4.86373">
        <ele>117.773476</ele>
        <time>2021-07-19T07:15:36Z</time>
      </trkpt>
      <trkpt lat="45.52062" lon="4.86367">
        <ele>117.82103</ele>
        <time>2021-07-19T07:15:37Z</time>
      </trkpt>
      <trkpt lat="45.52057" lon="4.86362">
        <ele>117.73119</ele>
        <time>2021-07-19T07:15:38Z</time>
      </trkpt>
      <trkpt lat="45.52052" lon="4.86357">
        <ele>117.63607</ele>
        <time>2021-07-19T07:15:39Z</time>
      </trkpt>
      <trkpt lat="45.52047" lon="4.86351">
        <ele>117.75233</ele>
        <time>2021-07-19T07:15:40Z</time>
      </trkpt>
      <trkpt lat="45.52042" lon="4.86345">
        <ele>117.81047</ele>
        <time>2021-07-19T07:15:41Z</time>
      </trkpt>
      <trkpt lat="45.52037" lon="4.86339">
        <ele>117.678345</ele>
        <time>2021-07-19T07:15:42Z</time>
      </trkpt>
      <trkpt lat="45.52033" lon="4.86332">
        <ele>117.59908</ele>
        <time>2021-07-19T07:15:43Z</time>
      </trkpt>
      <trkpt lat="45.52028" lon="4.86327">
        <ele>117.65721</ele>
        <time>2021-07-19T07:15:44Z</time>
      </trkpt>
      <trkpt lat="45.52024" lon="4.86321">
        <ele>117.75762</ele>
        <time>2021-07-19T07:15:45Z</time>
      </trkpt>
      <trkpt lat="45.52019" lon="4.86316">
        <ele>117.699486</ele>
        <time>2021-07-19T07:15:46Z</time>
      </trkpt>
      <trkpt lat="45.52014" lon="4.86311">
        <ele>117.64136</ele>
        <time>2021-07-19T07:15:47Z</time>
      </trkpt>
      <trkpt lat="45.52008" lon="4.86305">
        <ele>117.73119</ele>
        <time>2021-07-19T07:15:48Z</time>
      </trkpt>
      <trkpt lat="45.52003" lon="4.86301">
        <ele>117.546234</ele>
        <time>2021-07-19T07:15:49Z</time>
      </trkpt>
      <trkpt lat="45.51997" lon="4.86297">
        <ele>117.64664</ele>
        <time>2021-07-19T07:15:50Z</time>
      </trkpt>
      <trkpt lat="45.51992" lon="4.86293">
        <ele>117.858025</ele>
        <time>2021-07-19T07:15:51Z</time>
      </trkpt>
      <trkpt lat="45.51987" lon="4.86288">
        <ele>117.74177</ele>
        <time>2021-07-19T07:15:52Z</time>
      </trkpt>
      <trkpt lat="45.51982" lon="4.86284">
        <ele>117.858025</ele>
        <time>2021-07-19T07:15:53Z</time>
      </trkpt>
      <trkpt lat="45.51976" lon="4.86278">
        <ele>117.725914</ele>
        <time>2021-07-19T07:15:54Z</time>
      </trkpt>
      <trkpt lat="45.51972" lon="4.86272">
        <ele>117.78932</ele>
        <time>2021-07-19T07:15:55Z</time>
      </trkpt>
      <trkpt lat="45.51967" lon="4.86267">
        <ele>117.70477</ele>
        <time>2021-07-19T07:15:56Z</time>
      </trkpt>
      <trkpt lat="45.51962" lon="4.86261">
        <ele>117.90559</ele>
        <time>2021-07-19T07:15:57Z</time>
      </trkpt>
      <trkpt lat="45.51957" lon="4.86256">
        <ele>118.01128</ele>
        <time>2021-07-19T07:15:58Z</time>
      </trkpt>
      <trkpt lat="45.51952" lon="4.86251">
        <ele>117.99014</ele>
        <time>2021-07-19T07:15:59Z</time>
      </trkpt>
      <trkpt lat="45.51946" lon="4.86246">
        <ele>117.94258</ele>
        <time>2021-07-19T07:16:00Z</time>
      </trkpt>
      <trkpt lat="45.51941" lon="4.86242">
        <ele>117.89501</ele>
        <time>2021-07-19T07:16:01Z</time>
      </trkpt>
      <trkpt lat="45.51936" lon="4.86236">
        <ele>118.1751</ele>
        <time>2021-07-19T07:16:02Z</time>
      </trkpt>
      <trkpt lat="45.51931" lon="4.8623">
        <ele>117.963715</ele>
        <time>2021-07-19T07:16:03Z</time>
      </trkpt>
      <trkpt lat="45.51926" lon="4.86224">
        <ele>118.12755</ele>
        <time>2021-07-19T07:16:04Z</time>
      </trkpt>
      <trkpt lat="45.51922" lon="4.86217">
        <ele>117.63078</ele>
        <time>2021-07-19T07:16:05Z</time>
      </trkpt>
      <trkpt lat="45.51917" lon="4.86212">
        <ele>117.75233</ele>
        <time>2021-07-19T07:16:06Z</time>
      </trkpt>
      <trkpt lat="45.51911" lon="4.86207">
        <ele>117.831604</ele>
        <time>2021-07-19T07:16:07Z</time>
      </trkpt>
      <trkpt lat="45.51906" lon="4.86202">
        <ele>117.94258</ele>
        <time>2021-07-19T07:16:08Z</time>
      </trkpt>
      <trkpt lat="45.51901" lon="4.86196">
        <ele>118.04299</ele>
        <time>2021-07-19T07:16:09Z</time>
      </trkpt>
      <trkpt lat="45.51896" lon="4.8619">
        <ele>117.831604</ele>
        <time>2021-07-19T07:16:10Z</time>
      </trkpt>
      <trkpt lat="45.51891" lon="4.86184">
        <ele>117.7999</ele>
        <time>2021-07-19T07:16:11Z</time>
      </trkpt>
      <trkpt lat="45.51887" lon="4.86177">
        <ele>117.89501</ele>
        <time>2021-07-19T07:16:12Z</time>
      </trkpt>
      <trkpt lat="45.51882" lon="4.86171">
        <ele>117.92673</ele>
        <time>2021-07-19T07:16:13Z</time>
      </trkpt>
      <trkpt lat="45.51878" lon="4.86166">
        <ele>117.91616</ele>
        <time>2021-07-19T07:16:14Z</time>
      </trkpt>
      <trkpt lat="45.51873" lon="4.8616">
        <ele>117.98486</ele>
        <time>2021-07-19T07:16:15Z</time>
      </trkpt>
      <trkpt lat="45.51868" lon="4.86154">
        <ele>117.826324</ele>
        <time>2021-07-19T07:16:16Z</time>
      </trkpt>
      <trkpt lat="45.51863" lon="4.86148">
        <ele>117.74177</ele>
        <time>2021-07-19T07:16:17Z</time>
      </trkpt>
      <trkpt lat="45.51858" lon="4.86143">
        <ele>117.73647</ele>
        <time>2021-07-19T07:16:18Z</time>
      </trkpt>
      <trkpt lat="45.51853" lon="4.86138">
        <ele>117.778755</ele>
        <time>2021-07-19T07:16:19Z</time>
      </trkpt>
      <trkpt lat="45.51848" lon="4.86133">
        <ele>117.71534</ele>
        <time>2021-07-19T07:16:20Z</time>
      </trkpt>
      <trkpt lat="45.51842" lon="4.86128">
        <ele>117.678345</ele>
        <time>2021-07-19T07:16:21Z</time>
      </trkpt>
      <trkpt lat="45.51837" lon="4.86123">
        <ele>117.73119</ele>
        <time>2021-07-19T07:16:22Z</time>
      </trkpt>
      <trkpt lat="45.51832" lon="4.86117">
        <ele>117.58323</ele>
        <time>2021-07-19T07:16:23Z</time>
      </trkpt>
      <trkpt lat="45.51827" lon="4.86111">
        <ele>117.678345</ele>
        <time>2021-07-19T07:16:24Z</time>
      </trkpt>
      <trkpt lat="45.51822" lon="4.86106">
        <ele>117.75762</ele>
        <time>2021-07-19T07:16:25Z</time>
      </trkpt>
      <trkpt lat="45.51817" lon="4.86101">
        <ele>117.94258</ele>
        <time>2021-07-19T07:16:26Z</time>
      </trkpt>
      <trkpt lat="45.51812" lon="4.86095">
        <ele>117.91616</ele>
        <time>2021-07-19T07:16:27Z</time>
      </trkpt>
      <trkpt lat="45.51807" lon="4.8609">
        <ele>117.858025</ele>
        <time>2021-07-19T07:16:28Z</time>
      </trkpt>
      <trkpt lat="45.51801" lon="4.86085">
        <ele>117.88973</ele>
        <time>2021-07-19T07:16:29Z</time>
      </trkpt>
      <trkpt lat="45.51797" lon="4.8608">
        <ele>117.85274</ele>
        <time>2021-07-19T07:16:30Z</time>
      </trkpt>
      <trkpt lat="45.51792" lon="4.86075">
        <ele>117.76818</ele>
        <time>2021-07-19T07:16:31Z</time>
      </trkpt>
      <trkpt lat="45.51787" lon="4.8607">
        <ele>117.958435</ele>
        <time>2021-07-19T07:16:32Z</time>
      </trkpt>
      <trkpt lat="45.51782" lon="4.86065">
        <ele>117.91616</ele>
        <time>2021-07-19T07:16:33Z</time>
      </trkpt>
      <trkpt lat="45.51778" lon="4.8606">
        <ele>118.04827</ele>
        <time>2021-07-19T07:16:34Z</time>
      </trkpt>
      <trkpt lat="45.51773" lon="4.86054">
        <ele>118.01128</ele>
        <time>2021-07-19T07:16:35Z</time>
      </trkpt>
      <trkpt lat="45.51768" lon="4.86049">
        <ele>118.09583</ele>
        <time>2021-07-19T07:16:36Z</time>
      </trkpt>
      <trkpt lat="45.51763" lon="4.86043">
        <ele>118.18568</ele>
        <time>2021-07-19T07:16:37Z</time>
      </trkpt>
      <trkpt lat="45.51759" lon="4.86038">
        <ele>118.1064</ele>
        <time>2021-07-19T07:16:38Z</time>
      </trkpt>
      <trkpt lat="45.51754" lon="4.86032">
        <ele>118.25437</ele>
        <time>2021-07-19T07:16:39Z</time>
      </trkpt>
      <trkpt lat="45.51749" lon="4.86027">
        <ele>118.30722</ele>
        <time>2021-07-19T07:16:40Z</time>
      </trkpt>
      <trkpt lat="45.51744" lon="4.86022">
        <ele>118.32836</ele>
        <time>2021-07-19T07:16:41Z</time>
      </trkpt>
      <trkpt lat="45.51739" lon="4.86016">
        <ele>118.344215</ele>
        <time>2021-07-19T07:16:42Z</time>
      </trkpt>
      <trkpt lat="45.51734" lon="4.86011">
        <ele>118.3125</ele>
        <time>2021-07-19T07:16:43Z</time>
      </trkpt>
      <trkpt lat="45.51729" lon="4.86005">
        <ele>118.164536</ele>
        <time>2021-07-19T07:16:44Z</time>
      </trkpt>
      <trkpt lat="45.51724" lon="4.86">
        <ele>118.085266</ele>
        <time>2021-07-19T07:16:45Z</time>
      </trkpt>
      <trkpt lat="45.51719" lon="4.85994">
        <ele>117.91616</ele>
        <time>2021-07-19T07:16:46Z</time>
      </trkpt>
      <trkpt lat="45.51714" lon="4.85988">
        <ele>117.858025</ele>
        <time>2021-07-19T07:16:47Z</time>
      </trkpt>
      <trkpt lat="45.51709" lon="4.85982">
        <ele>117.937294</ele>
        <time>2021-07-19T07:16:48Z</time>
      </trkpt>
      <trkpt lat="45.51704" lon="4.85976">
        <ele>117.963715</ele>
        <time>2021-07-19T07:16:49Z</time>
      </trkpt>
      <trkpt lat="45.51699" lon="4.8597">
        <ele>117.958435</ele>
        <time>2021-07-19T07:16:50Z</time>
      </trkpt>
      <trkpt lat="45.51695" lon="4.85964">
        <ele>117.8686</ele>
        <time>2021-07-19T07:16:51Z</time>
      </trkpt>
      <trkpt lat="45.5169" lon="4.85958">
        <ele>117.91616</ele>
        <time>2021-07-19T07:16:52Z</time>
      </trkpt>
      <trkpt lat="45.51685" lon="4.85951">
        <ele>117.6942</ele>
        <time>2021-07-19T07:16:53Z</time>
      </trkpt>
      <trkpt lat="45.5168" lon="4.85945">
        <ele>117.70477</ele>
        <time>2021-07-19T07:16:54Z</time>
      </trkpt>
      <trkpt lat="45.51675" lon="4.8594">
        <ele>117.858025</ele>
        <time>2021-07-19T07:16:55Z</time>
      </trkpt>
      <trkpt lat="45.5167" lon="4.85934">
        <ele>117.75233</ele>
        <time>2021-07-19T07:16:56Z</time>
      </trkpt>
      <trkpt lat="45.51665" lon="4.85928">
        <ele>117.61494</ele>
        <time>2021-07-19T07:16:57Z</time>
      </trkpt>
      <trkpt lat="45.5166" lon="4.85922">
        <ele>117.6942</ele>
        <time>2021-07-19T07:16:58Z</time>
      </trkpt>
      <trkpt lat="45.51655" lon="4.85915">
        <ele>117.678345</ele>
        <time>2021-07-19T07:16:59Z</time>
      </trkpt>
      <trkpt lat="45.51651" lon="4.85909">
        <ele>117.4881</ele>
        <time>2021-07-19T07:17:00Z</time>
      </trkpt>
      <trkpt lat="45.51646" lon="4.85904">
        <ele>117.71005</ele>
        <time>2021-07-19T07:17:01Z</time>
      </trkpt>
      <trkpt lat="45.51641" lon="4.85898">
        <ele>117.60964</ele>
        <time>2021-07-19T07:17:02Z</time>
      </trkpt>
      <trkpt lat="45.51636" lon="4.85893">
        <ele>117.35071</ele>
        <time>2021-07-19T07:17:03Z</time>
      </trkpt>
      <trkpt lat="45.51631" lon="4.85887">
        <ele>117.50395</ele>
        <time>2021-07-19T07:17:04Z</time>
      </trkpt>
      <trkpt lat="45.51626" lon="4.85881">
        <ele>117.525085</ele>
        <time>2021-07-19T07:17:05Z</time>
      </trkpt>
      <trkpt lat="45.51622" lon="4.85875">
        <ele>117.50925</ele>
        <time>2021-07-19T07:17:06Z</time>
      </trkpt>
      <trkpt lat="45.51617" lon="4.85869">
        <ele>117.63607</ele>
        <time>2021-07-19T07:17:07Z</time>
      </trkpt>
      <trkpt lat="45.51612" lon="4.85863">
        <ele>117.60964</ele>
        <time>2021-07-19T07:17:08Z</time>
      </trkpt>
      <trkpt lat="45.51607" lon="4.85857">
        <ele>117.673065</ele>
        <time>2021-07-19T07:17:09Z</time>
      </trkpt>
      <trkpt lat="45.51602" lon="4.85851">
        <ele>117.50395</ele>
        <time>2021-07-19T07:17:10Z</time>
      </trkpt>
      <trkpt lat="45.51597" lon="4.85845">
        <ele>117.567375</ele>
        <time>2021-07-19T07:17:11Z</time>
      </trkpt>
      <trkpt lat="45.51592" lon="4.85839">
        <ele>117.58851</ele>
        <time>2021-07-19T07:17:12Z</time>
      </trkpt>
      <trkpt lat="45.51588" lon="4.85832">
        <ele>117.63607</ele>
        <time>2021-07-19T07:17:13Z</time>
      </trkpt>
      <trkpt lat="45.51583" lon="4.85826">
        <ele>117.6255</ele>
        <time>2021-07-19T07:17:14Z</time>
      </trkpt>
      <trkpt lat="45.51578" lon="4.8582">
        <ele>117.39826</ele>
        <time>2021-07-19T07:17:15Z</time>
      </trkpt>
      <trkpt lat="45.51574" lon="4.85813">
        <ele>117.419395</ele>
        <time>2021-07-19T07:17:16Z</time>
      </trkpt>
      <trkpt lat="45.51569" lon="4.85807">
        <ele>117.572655</ele>
        <time>2021-07-19T07:17:17Z</time>
      </trkpt>
      <trkpt lat="45.51564" lon="4.85802">
        <ele>117.56209</ele>
        <time>2021-07-19T07:17:18Z</time>
      </trkpt>
      <trkpt lat="45.51559" lon="4.85797">
        <ele>117.678345</ele>
        <time>2021-07-19T07:17:19Z</time>
      </trkpt>
      <trkpt lat="45.51554" lon="4.8579">
        <ele>117.47753</ele>
        <time>2021-07-19T07:17:20Z</time>
      </trkpt>
      <trkpt lat="45.51549" lon="4.85785">
        <ele>117.519806</ele>
        <time>2021-07-19T07:17:21Z</time>
      </trkpt>
      <trkpt lat="45.51544" lon="4.85778">
        <ele>117.64136</ele>
        <time>2021-07-19T07:17:22Z</time>
      </trkpt>
      <trkpt lat="45.51539" lon="4.85772">
        <ele>117.63078</ele>
        <time>2021-07-19T07:17:23Z</time>
      </trkpt>
      <trkpt lat="45.51534" lon="4.85766">
        <ele>117.63078</ele>
        <time>2021-07-19T07:17:24Z</time>
      </trkpt>
      <trkpt lat="45.51529" lon="4.8576">
        <ele>117.46696</ele>
        <time>2021-07-19T07:17:25Z</time>
      </trkpt>
      <trkpt lat="45.51524" lon="4.85754">
        <ele>117.35071</ele>
        <time>2021-07-19T07:17:26Z</time>
      </trkpt>
      <trkpt lat="45.51519" lon="4.85748">
        <ele>117.35071</ele>
        <time>2021-07-19T07:17:27Z</time>
      </trkpt>
      <trkpt lat="45.51514" lon="4.85741">
        <ele>117.392975</ele>
        <time>2021-07-19T07:17:28Z</time>
      </trkpt>
      <trkpt lat="45.5151" lon="4.85735">
        <ele>117.46168</ele>
        <time>2021-07-19T07:17:29Z</time>
      </trkpt>
      <trkpt lat="45.51505" lon="4.85727">
        <ele>117.678345</ele>
        <time>2021-07-19T07:17:30Z</time>
      </trkpt>
      <trkpt lat="45.515" lon="4.85721">
        <ele>117.47753</ele>
        <time>2021-07-19T07:17:31Z</time>
      </trkpt>
      <trkpt lat="45.51495" lon="4.85715">
        <ele>117.525085</ele>
        <time>2021-07-19T07:17:32Z</time>
      </trkpt>
      <trkpt lat="45.5149" lon="4.85708">
        <ele>117.46696</ele>
        <time>2021-07-19T07:17:33Z</time>
      </trkpt>
      <trkpt lat="45.51486" lon="4.85701">
        <ele>117.62022</ele>
        <time>2021-07-19T07:17:34Z</time>
      </trkpt>
      <trkpt lat="45.51481" lon="4.85695">
        <ele>117.6255</ele>
        <time>2021-07-19T07:17:35Z</time>
      </trkpt>
      <trkpt lat="45.51476" lon="4.85688">
        <ele>117.73647</ele>
        <time>2021-07-19T07:17:36Z</time>
      </trkpt>
      <trkpt lat="45.51471" lon="4.85682">
        <ele>117.78932</ele>
        <time>2021-07-19T07:17:37Z</time>
      </trkpt>
      <trkpt lat="45.51467" lon="4.85675">
        <ele>117.699486</ele>
        <time>2021-07-19T07:17:38Z</time>
      </trkpt>
      <trkpt lat="45.51462" lon="4.85668">
        <ele>117.92144</ele>
        <time>2021-07-19T07:17:39Z</time>
      </trkpt>
      <trkpt lat="45.51458" lon="4.85661">
        <ele>117.90559</ele>
        <time>2021-07-19T07:17:40Z</time>
      </trkpt>
      <trkpt lat="45.51453" lon="4.85655">
        <ele>117.79461</ele>
        <time>2021-07-19T07:17:41Z</time>
      </trkpt>
      <trkpt lat="45.51448" lon="4.85649">
        <ele>117.546234</ele>
        <time>2021-07-19T07:17:42Z</time>
      </trkpt>
      <trkpt lat="45.51445" lon="4.85641">
        <ele>117.699486</ele>
        <time>2021-07-19T07:17:43Z</time>
      </trkpt>
      <trkpt lat="45.51441" lon="4.85634">
        <ele>117.73119</ele>
        <time>2021-07-19T07:17:44Z</time>
      </trkpt>
      <trkpt lat="45.51437" lon="4.85627">
        <ele>117.94258</ele>
        <time>2021-07-19T07:17:45Z</time>
      </trkpt>
      <trkpt lat="45.51432" lon="4.8562">
        <ele>117.826324</ele>
        <time>2021-07-19T07:17:46Z</time>
      </trkpt>
      <trkpt lat="45.51428" lon="4.85613">
        <ele>117.68892</ele>
        <time>2021-07-19T07:17:47Z</time>
      </trkpt>
      <trkpt lat="45.51424" lon="4.85605">
        <ele>117.72063</ele>
        <time>2021-07-19T07:17:48Z</time>
      </trkpt>
      <trkpt lat="45.51421" lon="4.85598">
        <ele>117.72063</ele>
        <time>2021-07-19T07:17:49Z</time>
      </trkpt>
      <trkpt lat="45.51417" lon="4.85591">
        <ele>117.50925</ele>
        <time>2021-07-19T07:17:50Z</time>
      </trkpt>
      <trkpt lat="45.51414" lon="4.85585">
        <ele>117.47753</ele>
        <time>2021-07-19T07:17:51Z</time>
      </trkpt>
      <trkpt lat="45.5141" lon="4.85578">
        <ele>117.651924</ele>
        <time>2021-07-19T07:17:52Z</time>
      </trkpt>
      <trkpt lat="45.51407" lon="4.85571">
        <ele>117.805176</ele>
        <time>2021-07-19T07:17:53Z</time>
      </trkpt>
      <trkpt lat="45.51403" lon="4.85564">
        <ele>117.7629</ele>
        <time>2021-07-19T07:17:54Z</time>
      </trkpt>
      <trkpt lat="45.51401" lon="4.85557">
        <ele>117.73647</ele>
        <time>2021-07-19T07:17:55Z</time>
      </trkpt>
      <trkpt lat="45.51398" lon="4.8555">
        <ele>117.63078</ele>
        <time>2021-07-19T07:17:56Z</time>
      </trkpt>
      <trkpt lat="45.51395" lon="4.85542">
        <ele>117.66249</ele>
        <time>2021-07-19T07:17:57Z</time>
      </trkpt>
      <trkpt lat="45.51391" lon="4.85535">
        <ele>117.78932</ele>
        <time>2021-07-19T07:17:58Z</time>
      </trkpt>
      <trkpt lat="45.51388" lon="4.85528">
        <ele>117.72063</ele>
        <time>2021-07-19T07:17:59Z</time>
      </trkpt>
      <trkpt lat="45.51384" lon="4.8552">
        <ele>117.75233</ele>
        <time>2021-07-19T07:18:00Z</time>
      </trkpt>
      <trkpt lat="45.51381" lon="4.85513">
        <ele>117.678345</ele>
        <time>2021-07-19T07:18:01Z</time>
      </trkpt>
      <trkpt lat="45.51378" lon="4.85505">
        <ele>117.84217</ele>
        <time>2021-07-19T07:18:02Z</time>
      </trkpt>
      <trkpt lat="45.51376" lon="4.85498">
        <ele>117.87388</ele>
        <time>2021-07-19T07:18:03Z</time>
      </trkpt>
      <trkpt lat="45.51373" lon="4.85491">
        <ele>117.932014</ele>
        <time>2021-07-19T07:18:04Z</time>
      </trkpt>
      <trkpt lat="45.5137" lon="4.85484">
        <ele>118.1064</ele>
        <time>2021-07-19T07:18:05Z</time>
      </trkpt>
      <trkpt lat="45.51366" lon="4.85477">
        <ele>117.94786</ele>
        <time>2021-07-19T07:18:06Z</time>
      </trkpt>
      <trkpt lat="45.51363" lon="4.8547">
        <ele>117.81575</ele>
        <time>2021-07-19T07:18:07Z</time>
      </trkpt>
      <trkpt lat="45.5136" lon="4.85462">
        <ele>117.70477</ele>
        <time>2021-07-19T07:18:08Z</time>
      </trkpt>
      <trkpt lat="45.51358" lon="4.85454">
        <ele>117.773476</ele>
        <time>2021-07-19T07:18:09Z</time>
      </trkpt>
      <trkpt lat="45.51355" lon="4.85446">
        <ele>117.81047</ele>
        <time>2021-07-19T07:18:10Z</time>
      </trkpt>
      <trkpt lat="45.51352" lon="4.85439">
        <ele>118.01656</ele>
        <time>2021-07-19T07:18:11Z</time>
      </trkpt>
      <trkpt lat="45.5135" lon="4.85432">
        <ele>117.97957</ele>
        <time>2021-07-19T07:18:12Z</time>
      </trkpt>
      <trkpt lat="45.51347" lon="4.85425">
        <ele>118.20153</ele>
        <time>2021-07-19T07:18:13Z</time>
      </trkpt>
      <trkpt lat="45.51344" lon="4.85418">
        <ele>118.116974</ele>
        <time>2021-07-19T07:18:14Z</time>
      </trkpt>
      <trkpt lat="45.51341" lon="4.8541">
        <ele>118.02185</ele>
        <time>2021-07-19T07:18:15Z</time>
      </trkpt>
      <trkpt lat="45.51338" lon="4.85403">
        <ele>118.006</ele>
        <time>2021-07-19T07:18:16Z</time>
      </trkpt>
      <trkpt lat="45.51334" lon="4.85396">
        <ele>118.04827</ele>
        <time>2021-07-19T07:18:17Z</time>
      </trkpt>
      <trkpt lat="45.5133" lon="4.85389">
        <ele>118.01128</ele>
        <time>2021-07-19T07:18:18Z</time>
      </trkpt>
      <trkpt lat="45.51326" lon="4.85382">
        <ele>117.958435</ele>
        <time>2021-07-19T07:18:19Z</time>
      </trkpt>
      <trkpt lat="45.51321" lon="4.85374">
        <ele>118.1064</ele>
        <time>2021-07-19T07:18:20Z</time>
      </trkpt>
      <trkpt lat="45.51317" lon="4.85367">
        <ele>118.18568</ele>
        <time>2021-07-19T07:18:21Z</time>
      </trkpt>
      <trkpt lat="45.51313" lon="4.8536">
        <ele>118.13811</ele>
        <time>2021-07-19T07:18:22Z</time>
      </trkpt>
      <trkpt lat="45.51309" lon="4.85353">
        <ele>118.222664</ele>
        <time>2021-07-19T07:18:23Z</time>
      </trkpt>
      <trkpt lat="45.51305" lon="4.85347">
        <ele>118.116974</ele>
        <time>2021-07-19T07:18:24Z</time>
      </trkpt>
      <trkpt lat="45.51302" lon="4.85341">
        <ele>118.0747</ele>
        <time>2021-07-19T07:18:25Z</time>
      </trkpt>
      <trkpt lat="45.51298" lon="4.85336">
        <ele>118.15925</ele>
        <time>2021-07-19T07:18:26Z</time>
      </trkpt>
      <trkpt lat="45.51295" lon="4.8533">
        <ele>118.39178</ele>
        <time>2021-07-19T07:18:27Z</time>
      </trkpt>
      <trkpt lat="45.51292" lon="4.85326">
        <ele>118.40234</ele>
        <time>2021-07-19T07:18:28Z</time>
      </trkpt>
      <trkpt lat="45.51288" lon="4.85322">
        <ele>118.51861</ele>
        <time>2021-07-19T07:18:29Z</time>
      </trkpt>
      <trkpt lat="45.51283" lon="4.85319">
        <ele>118.87796</ele>
        <time>2021-07-19T07:18:30Z</time>
      </trkpt>
      <trkpt lat="45.51278" lon="4.85318">
        <ele>118.68243</ele>
        <time>2021-07-19T07:18:31Z</time>
      </trkpt>
      <trkpt lat="45.51273" lon="4.85322">
        <ele>118.449905</ele>
        <time>2021-07-19T07:18:32Z</time>
      </trkpt>
      <trkpt lat="45.51269" lon="4.85326">
        <ele>118.38649</ele>
        <time>2021-07-19T07:18:33Z</time>
      </trkpt>
      <trkpt lat="45.51263" lon="4.85333">
        <ele>118.48161</ele>
        <time>2021-07-19T07:18:34Z</time>
      </trkpt>
      <trkpt lat="45.51257" lon="4.8534">
        <ele>118.30194</ele>
        <time>2021-07-19T07:18:35Z</time>
      </trkpt>
      <trkpt lat="45.51251" lon="4.85345">
        <ele>118.20153</ele>
        <time>2021-07-19T07:18:36Z</time>
      </trkpt>
      <trkpt lat="45.51246" lon="4.85349">
        <ele>118.26494</ele>
        <time>2021-07-19T07:18:37Z</time>
      </trkpt>
      <trkpt lat="45.5124" lon="4.85351">
        <ele>118.36007</ele>
        <time>2021-07-19T07:18:38Z</time>
      </trkpt>
      <trkpt lat="45.51235" lon="4.85352">
        <ele>118.582016</ele>
        <time>2021-07-19T07:18:39Z</time>
      </trkpt>
      <trkpt lat="45.5123" lon="4.8535">
        <ele>118.714134</ele>
        <time>2021-07-19T07:18:40Z</time>
      </trkpt>
      <trkpt lat="45.51225" lon="4.85346">
        <ele>118.687706</ele>
        <time>2021-07-19T07:18:41Z</time>
      </trkpt>
      <trkpt lat="45.51222" lon="4.8534">
        <ele>118.97309</ele>
        <time>2021-07-19T07:18:42Z</time>
      </trkpt>
      <trkpt lat="45.51218" lon="4.85334">
        <ele>119.07349</ele>
        <time>2021-07-19T07:18:43Z</time>
      </trkpt>
      <trkpt lat="45.51214" lon="4.85328">
        <ele>118.9678</ele>
        <time>2021-07-19T07:18:44Z</time>
      </trkpt>
      <trkpt lat="45.51211" lon="4.85323">
        <ele>118.988945</ele>
        <time>2021-07-19T07:18:45Z</time>
      </trkpt>
      <trkpt lat="45.51207" lon="4.85318">
        <ele>119.094635</ele>
        <time>2021-07-19T07:18:46Z</time>
      </trkpt>
      <trkpt lat="45.51203" lon="4.85314">
        <ele>119.221466</ele>
        <time>2021-07-19T07:18:47Z</time>
      </trkpt>
      <trkpt lat="45.51199" lon="4.85309">
        <ele>119.01008</ele>
        <time>2021-07-19T07:18:48Z</time>
      </trkpt>
      <trkpt lat="45.51194" lon="4.85304">
        <ele>118.82511</ele>
        <time>2021-07-19T07:18:49Z</time>
      </trkpt>
      <trkpt lat="45.51189" lon="4.85298">
        <ele>118.67715</ele>
        <time>2021-07-19T07:18:50Z</time>
      </trkpt>
      <trkpt lat="45.51186" lon="4.85291">
        <ele>118.49218</ele>
        <time>2021-07-19T07:18:51Z</time>
      </trkpt>
      <trkpt lat="45.51182" lon="4.85284">
        <ele>118.53446</ele>
        <time>2021-07-19T07:18:52Z</time>
      </trkpt>
      <trkpt lat="45.51178" lon="4.85277">
        <ele>118.43933</ele>
        <time>2021-07-19T07:18:53Z</time>
      </trkpt>
      <trkpt lat="45.51173" lon="4.85271">
        <ele>118.39706</ele>
        <time>2021-07-19T07:18:54Z</time>
      </trkpt>
      <trkpt lat="45.51169" lon="4.85266">
        <ele>118.29137</ele>
        <time>2021-07-19T07:18:55Z</time>
      </trkpt>
      <trkpt lat="45.51164" lon="4.8526">
        <ele>118.449905</ele>
        <time>2021-07-19T07:18:56Z</time>
      </trkpt>
      <trkpt lat="45.5116" lon="4.85253">
        <ele>118.57146</ele>
        <time>2021-07-19T07:18:57Z</time>
      </trkpt>
      <trkpt lat="45.51156" lon="4.85246">
        <ele>118.59259</ele>
        <time>2021-07-19T07:18:58Z</time>
      </trkpt>
      <trkpt lat="45.51151" lon="4.8524">
        <ele>118.603165</ele>
        <time>2021-07-19T07:18:59Z</time>
      </trkpt>
      <trkpt lat="45.51146" lon="4.85234">
        <ele>118.54503</ele>
        <time>2021-07-19T07:19:00Z</time>
      </trkpt>
      <trkpt lat="45.51141" lon="4.85228">
        <ele>118.67187</ele>
        <time>2021-07-19T07:19:01Z</time>
      </trkpt>
      <trkpt lat="45.51137" lon="4.85221">
        <ele>118.582016</ele>
        <time>2021-07-19T07:19:02Z</time>
      </trkpt>
      <trkpt lat="45.51132" lon="4.85215">
        <ele>118.634865</ele>
        <time>2021-07-19T07:19:03Z</time>
      </trkpt>
      <trkpt lat="45.51127" lon="4.8521">
        <ele>118.555595</ele>
        <time>2021-07-19T07:19:04Z</time>
      </trkpt>
      <trkpt lat="45.51122" lon="4.85204">
        <ele>118.68243</ele>
        <time>2021-07-19T07:19:05Z</time>
      </trkpt>
      <trkpt lat="45.51117" lon="4.85198">
        <ele>118.53446</ele>
        <time>2021-07-19T07:19:06Z</time>
      </trkpt>
      <trkpt lat="45.51113" lon="4.85192">
        <ele>118.46576</ele>
        <time>2021-07-19T07:19:07Z</time>
      </trkpt>
      <trkpt lat="45.51108" lon="4.85185">
        <ele>118.47104</ele>
        <time>2021-07-19T07:19:08Z</time>
      </trkpt>
      <trkpt lat="45.51104" lon="4.85178">
        <ele>118.4869</ele>
        <time>2021-07-19T07:19:09Z</time>
      </trkpt>
      <trkpt lat="45.51099" lon="4.85172">
        <ele>118.656006</ele>
        <time>2021-07-19T07:19:10Z</time>
      </trkpt>
      <trkpt lat="45.51094" lon="4.85165">
        <ele>118.70357</ele>
        <time>2021-07-19T07:19:11Z</time>
      </trkpt>
      <trkpt lat="45.5109" lon="4.85159">
        <ele>118.71942</ele>
        <time>2021-07-19T07:19:12Z</time>
      </trkpt>
      <trkpt lat="45.51085" lon="4.85152">
        <ele>118.74585</ele>
        <time>2021-07-19T07:19:13Z</time>
      </trkpt>
      <trkpt lat="45.5108" lon="4.85146">
        <ele>118.9361</ele>
        <time>2021-07-19T07:19:14Z</time>
      </trkpt>
      <trkpt lat="45.51075" lon="4.85139">
        <ele>119.01536</ele>
        <time>2021-07-19T07:19:15Z</time>
      </trkpt>
      <trkpt lat="45.51071" lon="4.85132">
        <ele>118.999504</ele>
        <time>2021-07-19T07:19:16Z</time>
      </trkpt>
      <trkpt lat="45.51066" lon="4.85125">
        <ele>119.2426</ele>
        <time>2021-07-19T07:19:17Z</time>
      </trkpt>
      <trkpt lat="45.51061" lon="4.85119">
        <ele>119.04179</ele>
        <time>2021-07-19T07:19:18Z</time>
      </trkpt>
      <trkpt lat="45.51056" lon="4.85112">
        <ele>119.01536</ele>
        <time>2021-07-19T07:19:19Z</time>
      </trkpt>
      <trkpt lat="45.51051" lon="4.85106">
        <ele>118.988945</ele>
        <time>2021-07-19T07:19:20Z</time>
      </trkpt>
      <trkpt lat="45.51046" lon="4.85099">
        <ele>118.82511</ele>
        <time>2021-07-19T07:19:21Z</time>
      </trkpt>
      <trkpt lat="45.51041" lon="4.85092">
        <ele>118.79869</ele>
        <time>2021-07-19T07:19:22Z</time>
      </trkpt>
      <trkpt lat="45.51036" lon="4.85085">
        <ele>118.75113</ele>
        <time>2021-07-19T07:19:23Z</time>
      </trkpt>
      <trkpt lat="45.51031" lon="4.85078">
        <ele>118.656006</ele>
        <time>2021-07-19T07:19:24Z</time>
      </trkpt>
      <trkpt lat="45.51026" lon="4.85072">
        <ele>118.835686</ele>
        <time>2021-07-19T07:19:25Z</time>
      </trkpt>
      <trkpt lat="45.5102" lon="4.85065">
        <ele>118.893814</ele>
        <time>2021-07-19T07:19:26Z</time>
      </trkpt>
      <trkpt lat="45.51016" lon="4.85058">
        <ele>118.76698</ele>
        <time>2021-07-19T07:19:27Z</time>
      </trkpt>
      <trkpt lat="45.5101" lon="4.85051">
        <ele>118.78284</ele>
        <time>2021-07-19T07:19:28Z</time>
      </trkpt>
      <trkpt lat="45.51005" lon="4.85045">
        <ele>118.7617</ele>
        <time>2021-07-19T07:19:29Z</time>
      </trkpt>
      <trkpt lat="45.51" lon="4.85037">
        <ele>118.7617</ele>
        <time>2021-07-19T07:19:30Z</time>
      </trkpt>
      <trkpt lat="45.50995" lon="4.85031">
        <ele>118.714134</ele>
        <time>2021-07-19T07:19:31Z</time>
      </trkpt>
      <trkpt lat="45.5099" lon="4.85023">
        <ele>118.66657</ele>
        <time>2021-07-19T07:19:32Z</time>
      </trkpt>
      <trkpt lat="45.50985" lon="4.85017">
        <ele>118.68243</ele>
        <time>2021-07-19T07:19:33Z</time>
      </trkpt>
      <trkpt lat="45.5098" lon="4.85009">
        <ele>118.714134</ele>
        <time>2021-07-19T07:19:34Z</time>
      </trkpt>
      <trkpt lat="45.50975" lon="4.85002">
        <ele>118.629585</ele>
        <time>2021-07-19T07:19:35Z</time>
      </trkpt>
      <trkpt lat="45.50969" lon="4.84996">
        <ele>118.67715</ele>
        <time>2021-07-19T07:19:36Z</time>
      </trkpt>
      <trkpt lat="45.50964" lon="4.84989">
        <ele>118.729996</ele>
        <time>2021-07-19T07:19:37Z</time>
      </trkpt>
      <trkpt lat="45.50959" lon="4.84981">
        <ele>118.729996</ele>
        <time>2021-07-19T07:19:38Z</time>
      </trkpt>
      <trkpt lat="45.50954" lon="4.84974">
        <ele>118.85682</ele>
        <time>2021-07-19T07:19:39Z</time>
      </trkpt>
      <trkpt lat="45.50949" lon="4.84968">
        <ele>118.550316</ele>
        <time>2021-07-19T07:19:40Z</time>
      </trkpt>
      <trkpt lat="45.50943" lon="4.84961">
        <ele>118.82511</ele>
        <time>2021-07-19T07:19:41Z</time>
      </trkpt>
      <trkpt lat="45.50938" lon="4.84955">
        <ele>118.90439</ele>
        <time>2021-07-19T07:19:42Z</time>
      </trkpt>
      <trkpt lat="45.50933" lon="4.84948">
        <ele>118.629585</ele>
        <time>2021-07-19T07:19:43Z</time>
      </trkpt>
      <trkpt lat="45.50928" lon="4.84941">
        <ele>118.67715</ele>
        <time>2021-07-19T07:19:44Z</time>
      </trkpt>
      <trkpt lat="45.50922" lon="4.84935">
        <ele>118.6243</ele>
        <time>2021-07-19T07:19:45Z</time>
      </trkpt>
      <trkpt lat="45.50917" lon="4.84927">
        <ele>118.82511</ele>
        <time>2021-07-19T07:19:46Z</time>
      </trkpt>
      <trkpt lat="45.50912" lon="4.8492">
        <ele>118.9308</ele>
        <time>2021-07-19T07:19:47Z</time>
      </trkpt>
      <trkpt lat="45.50907" lon="4.84914">
        <ele>119.1739</ele>
        <time>2021-07-19T07:19:48Z</time>
      </trkpt>
      <trkpt lat="45.50902" lon="4.84907">
        <ele>118.988945</ele>
        <time>2021-07-19T07:19:49Z</time>
      </trkpt>
      <trkpt lat="45.50897" lon="4.849">
        <ele>119.02593</ele>
        <time>2021-07-19T07:19:50Z</time>
      </trkpt>
      <trkpt lat="45.50892" lon="4.84893">
        <ele>119.0365</ele>
        <time>2021-07-19T07:19:51Z</time>
      </trkpt>
      <trkpt lat="45.50887" lon="4.84885">
        <ele>118.87796</ele>
        <time>2021-07-19T07:19:52Z</time>
      </trkpt>
      <trkpt lat="45.50881" lon="4.84879">
        <ele>118.89909</ele>
        <time>2021-07-19T07:19:53Z</time>
      </trkpt>
      <trkpt lat="45.50876" lon="4.84872">
        <ele>118.95194</ele>
        <time>2021-07-19T07:19:54Z</time>
      </trkpt>
      <trkpt lat="45.50871" lon="4.84865">
        <ele>118.95723</ele>
        <time>2021-07-19T07:19:55Z</time>
      </trkpt>
      <trkpt lat="45.50865" lon="4.84859">
        <ele>118.98365</ele>
        <time>2021-07-19T07:19:56Z</time>
      </trkpt>
      <trkpt lat="45.5086" lon="4.84852">
        <ele>118.9678</ele>
        <time>2021-07-19T07:19:57Z</time>
      </trkpt>
      <trkpt lat="45.50855" lon="4.84845">
        <ele>119.099915</ele>
        <time>2021-07-19T07:19:58Z</time>
      </trkpt>
      <trkpt lat="45.5085" lon="4.84838">
        <ele>119.03122</ele>
        <time>2021-07-19T07:19:59Z</time>
      </trkpt>
      <trkpt lat="45.50845" lon="4.84831">
        <ele>118.941376</ele>
        <time>2021-07-19T07:20:00Z</time>
      </trkpt>
      <trkpt lat="45.50839" lon="4.84824">
        <ele>119.06293</ele>
        <time>2021-07-19T07:20:01Z</time>
      </trkpt>
      <trkpt lat="45.50834" lon="4.84817">
        <ele>119.08935</ele>
        <time>2021-07-19T07:20:02Z</time>
      </trkpt>
      <trkpt lat="45.50829" lon="4.8481">
        <ele>118.87796</ele>
        <time>2021-07-19T07:20:03Z</time>
      </trkpt>
      <trkpt lat="45.50823" lon="4.84803">
        <ele>118.79869</ele>
        <time>2021-07-19T07:20:04Z</time>
      </trkpt>
      <trkpt lat="45.50818" lon="4.84796">
        <ele>118.66657</ele>
        <time>2021-07-19T07:20:05Z</time>
      </trkpt>
      <trkpt lat="45.50813" lon="4.84788">
        <ele>118.81983</ele>
        <time>2021-07-19T07:20:06Z</time>
      </trkpt>
      <trkpt lat="45.50808" lon="4.84781">
        <ele>119.05763</ele>
        <time>2021-07-19T07:20:07Z</time>
      </trkpt>
      <trkpt lat="45.50803" lon="4.84774">
        <ele>118.96252</ele>
        <time>2021-07-19T07:20:08Z</time>
      </trkpt>
      <trkpt lat="45.50798" lon="4.84767">
        <ele>118.75641</ele>
        <time>2021-07-19T07:20:09Z</time>
      </trkpt>
      <trkpt lat="45.50793" lon="4.8476">
        <ele>118.72471</ele>
        <time>2021-07-19T07:20:10Z</time>
      </trkpt>
      <trkpt lat="45.50788" lon="4.84753">
        <ele>118.75641</ele>
        <time>2021-07-19T07:20:11Z</time>
      </trkpt>
      <trkpt lat="45.50783" lon="4.84745">
        <ele>118.78284</ele>
        <time>2021-07-19T07:20:12Z</time>
      </trkpt>
      <trkpt lat="45.50778" lon="4.84738">
        <ele>118.59787</ele>
        <time>2021-07-19T07:20:13Z</time>
      </trkpt>
      <trkpt lat="45.50773" lon="4.84731">
        <ele>118.75113</ele>
        <time>2021-07-19T07:20:14Z</time>
      </trkpt>
      <trkpt lat="45.50768" lon="4.84724">
        <ele>118.77756</ele>
        <time>2021-07-19T07:20:15Z</time>
      </trkpt>
      <trkpt lat="45.50763" lon="4.84717">
        <ele>118.61902</ele>
        <time>2021-07-19T07:20:16Z</time>
      </trkpt>
      <trkpt lat="45.50757" lon="4.8471">
        <ele>118.708855</ele>
        <time>2021-07-19T07:20:17Z</time>
      </trkpt>
      <trkpt lat="45.50752" lon="4.84704">
        <ele>118.608444</ele>
        <time>2021-07-19T07:20:18Z</time>
      </trkpt>
      <trkpt lat="45.50747" lon="4.84697">
        <ele>118.603165</ele>
        <time>2021-07-19T07:20:19Z</time>
      </trkpt>
      <trkpt lat="45.50742" lon="4.8469">
        <ele>118.77226</ele>
        <time>2021-07-19T07:20:20Z</time>
      </trkpt>
      <trkpt lat="45.50737" lon="4.84682">
        <ele>118.7934</ele>
        <time>2021-07-19T07:20:21Z</time>
      </trkpt>
      <trkpt lat="45.50733" lon="4.84675">
        <ele>118.75641</ele>
        <time>2021-07-19T07:20:22Z</time>
      </trkpt>
      <trkpt lat="45.50728" lon="4.84668">
        <ele>118.77226</ele>
        <time>2021-07-19T07:20:23Z</time>
      </trkpt>
      <trkpt lat="45.50723" lon="4.8466">
        <ele>118.75113</ele>
        <time>2021-07-19T07:20:24Z</time>
      </trkpt>
      <trkpt lat="45.50718" lon="4.84653">
        <ele>118.69828</ele>
        <time>2021-07-19T07:20:25Z</time>
      </trkpt>
      <trkpt lat="45.50713" lon="4.84646">
        <ele>118.77226</ele>
        <time>2021-07-19T07:20:26Z</time>
      </trkpt>
      <trkpt lat="45.50708" lon="4.84639">
        <ele>118.84625</ele>
        <time>2021-07-19T07:20:27Z</time>
      </trkpt>
      <trkpt lat="45.50702" lon="4.84632">
        <ele>118.84625</ele>
        <time>2021-07-19T07:20:28Z</time>
      </trkpt>
      <trkpt lat="45.50697" lon="4.84625">
        <ele>118.729996</ele>
        <time>2021-07-19T07:20:29Z</time>
      </trkpt>
      <trkpt lat="45.50692" lon="4.84619">
        <ele>118.87267</ele>
        <time>2021-07-19T07:20:30Z</time>
      </trkpt>
      <trkpt lat="45.50687" lon="4.84612">
        <ele>118.88325</ele>
        <time>2021-07-19T07:20:31Z</time>
      </trkpt>
      <trkpt lat="45.50682" lon="4.84605">
        <ele>118.75641</ele>
        <time>2021-07-19T07:20:32Z</time>
      </trkpt>
      <trkpt lat="45.50676" lon="4.84598">
        <ele>118.83041</ele>
        <time>2021-07-19T07:20:33Z</time>
      </trkpt>
      <trkpt lat="45.50671" lon="4.84591">
        <ele>118.77756</ele>
        <time>2021-07-19T07:20:34Z</time>
      </trkpt>
      <trkpt lat="45.50666" lon="4.84584">
        <ele>118.999504</ele>
        <time>2021-07-19T07:20:35Z</time>
      </trkpt>
      <trkpt lat="45.50661" lon="4.84577">
        <ele>119.03122</ele>
        <time>2021-07-19T07:20:36Z</time>
      </trkpt>
      <trkpt lat="45.50656" lon="4.8457">
        <ele>118.994225</ele>
        <time>2021-07-19T07:20:37Z</time>
      </trkpt>
      <trkpt lat="45.50651" lon="4.84563">
        <ele>118.840965</ele>
        <time>2021-07-19T07:20:38Z</time>
      </trkpt>
      <trkpt lat="45.50646" lon="4.84557">
        <ele>118.729996</ele>
        <time>2021-07-19T07:20:39Z</time>
      </trkpt>
      <trkpt lat="45.50641" lon="4.8455">
        <ele>118.88325</ele>
        <time>2021-07-19T07:20:40Z</time>
      </trkpt>
      <trkpt lat="45.50637" lon="4.84542">
        <ele>118.89909</ele>
        <time>2021-07-19T07:20:41Z</time>
      </trkpt>
      <trkpt lat="45.50632" lon="4.84535">
        <ele>118.9678</ele>
        <time>2021-07-19T07:20:42Z</time>
      </trkpt>
      <trkpt lat="45.50627" lon="4.84528">
        <ele>118.81983</ele>
        <time>2021-07-19T07:20:43Z</time>
      </trkpt>
      <trkpt lat="45.50621" lon="4.84522">
        <ele>118.788124</ele>
        <time>2021-07-19T07:20:44Z</time>
      </trkpt>
      <trkpt lat="45.50617" lon="4.84515">
        <ele>118.79869</ele>
        <time>2021-07-19T07:20:45Z</time>
      </trkpt>
      <trkpt lat="45.50611" lon="4.84508">
        <ele>118.61902</ele>
        <time>2021-07-19T07:20:46Z</time>
      </trkpt>
      <trkpt lat="45.50606" lon="4.84502">
        <ele>118.502754</ele>
        <time>2021-07-19T07:20:47Z</time>
      </trkpt>
      <trkpt lat="45.50601" lon="4.84495">
        <ele>118.53446</ele>
        <time>2021-07-19T07:20:48Z</time>
      </trkpt>
      <trkpt lat="45.50596" lon="4.84489">
        <ele>118.7617</ele>
        <time>2021-07-19T07:20:49Z</time>
      </trkpt>
      <trkpt lat="45.50591" lon="4.84482">
        <ele>118.687706</ele>
        <time>2021-07-19T07:20:50Z</time>
      </trkpt>
      <trkpt lat="45.50586" lon="4.84475">
        <ele>118.67715</ele>
        <time>2021-07-19T07:20:51Z</time>
      </trkpt>
      <trkpt lat="45.50581" lon="4.84468">
        <ele>118.714134</ele>
        <time>2021-07-19T07:20:52Z</time>
      </trkpt>
      <trkpt lat="45.50576" lon="4.84462">
        <ele>118.56617</ele>
        <time>2021-07-19T07:20:53Z</time>
      </trkpt>
      <trkpt lat="45.50571" lon="4.84455">
        <ele>118.634865</ele>
        <time>2021-07-19T07:20:54Z</time>
      </trkpt>
      <trkpt lat="45.50566" lon="4.84448">
        <ele>118.714134</ele>
        <time>2021-07-19T07:20:55Z</time>
      </trkpt>
      <trkpt lat="45.5056" lon="4.84441">
        <ele>118.70357</ele>
        <time>2021-07-19T07:20:56Z</time>
      </trkpt>
      <trkpt lat="45.50555" lon="4.84435">
        <ele>118.75641</ele>
        <time>2021-07-19T07:20:57Z</time>
      </trkpt>
      <trkpt lat="45.50551" lon="4.84428">
        <ele>118.72471</ele>
        <time>2021-07-19T07:20:58Z</time>
      </trkpt>
      <trkpt lat="45.50545" lon="4.84422">
        <ele>118.86739</ele>
        <time>2021-07-19T07:20:59Z</time>
      </trkpt>
      <trkpt lat="45.5054" lon="4.84415">
        <ele>119.08406</ele>
        <time>2021-07-19T07:21:00Z</time>
      </trkpt>
      <trkpt lat="45.50535" lon="4.84409">
        <ele>118.9678</ele>
        <time>2021-07-19T07:21:01Z</time>
      </trkpt>
      <trkpt lat="45.5053" lon="4.84402">
        <ele>118.89909</ele>
        <time>2021-07-19T07:21:02Z</time>
      </trkpt>
      <trkpt lat="45.50525" lon="4.84395">
        <ele>118.61902</ele>
        <time>2021-07-19T07:21:03Z</time>
      </trkpt>
      <trkpt lat="45.5052" lon="4.84389">
        <ele>118.656006</ele>
        <time>2021-07-19T07:21:04Z</time>
      </trkpt>
      <trkpt lat="45.50515" lon="4.84383">
        <ele>118.67715</ele>
        <time>2021-07-19T07:21:05Z</time>
      </trkpt>
      <trkpt lat="45.5051" lon="4.84377">
        <ele>118.57146</ele>
        <time>2021-07-19T07:21:06Z</time>
      </trkpt>
      <trkpt lat="45.50505" lon="4.8437">
        <ele>118.64015</ele>
        <time>2021-07-19T07:21:07Z</time>
      </trkpt>
      <trkpt lat="45.505" lon="4.84364">
        <ele>118.64015</ele>
        <time>2021-07-19T07:21:08Z</time>
      </trkpt>
      <trkpt lat="45.50495" lon="4.84357">
        <ele>118.735275</ele>
        <time>2021-07-19T07:21:09Z</time>
      </trkpt>
      <trkpt lat="45.5049" lon="4.84351">
        <ele>118.740555</ele>
        <time>2021-07-19T07:21:10Z</time>
      </trkpt>
      <trkpt lat="45.50485" lon="4.84345">
        <ele>118.788124</ele>
        <time>2021-07-19T07:21:11Z</time>
      </trkpt>
      <trkpt lat="45.50479" lon="4.84339">
        <ele>119.02593</ele>
        <time>2021-07-19T07:21:12Z</time>
      </trkpt>
      <trkpt lat="45.50474" lon="4.84332">
        <ele>119.25845</ele>
        <time>2021-07-19T07:21:13Z</time>
      </trkpt>
      <trkpt lat="45.50468" lon="4.84326">
        <ele>119.14219</ele>
        <time>2021-07-19T07:21:14Z</time>
      </trkpt>
      <trkpt lat="45.50463" lon="4.8432">
        <ele>119.25845</ele>
        <time>2021-07-19T07:21:15Z</time>
      </trkpt>
      <trkpt lat="45.50458" lon="4.84314">
        <ele>119.16862</ele>
        <time>2021-07-19T07:21:16Z</time>
      </trkpt>
      <trkpt lat="45.50453" lon="4.84308">
        <ele>119.14219</ele>
        <time>2021-07-19T07:21:17Z</time>
      </trkpt>
      <trkpt lat="45.50448" lon="4.84301">
        <ele>119.32187</ele>
        <time>2021-07-19T07:21:18Z</time>
      </trkpt>
      <trkpt lat="45.50443" lon="4.84295">
        <ele>119.253174</ele>
        <time>2021-07-19T07:21:19Z</time>
      </trkpt>
      <trkpt lat="45.50438" lon="4.84289">
        <ele>119.094635</ele>
        <time>2021-07-19T07:21:20Z</time>
      </trkpt>
      <trkpt lat="45.50433" lon="4.84283">
        <ele>119.232025</ele>
        <time>2021-07-19T07:21:21Z</time>
      </trkpt>
      <trkpt lat="45.50428" lon="4.84277">
        <ele>119.327156</ele>
        <time>2021-07-19T07:21:22Z</time>
      </trkpt>
      <trkpt lat="45.50423" lon="4.84271">
        <ele>119.29017</ele>
        <time>2021-07-19T07:21:23Z</time>
      </trkpt>
      <trkpt lat="45.50418" lon="4.84265">
        <ele>119.06293</ele>
        <time>2021-07-19T07:21:24Z</time>
      </trkpt>
      <trkpt lat="45.50412" lon="4.8426">
        <ele>118.87796</ele>
        <time>2021-07-19T07:21:25Z</time>
      </trkpt>
      <trkpt lat="45.50407" lon="4.84254">
        <ele>118.90439</ele>
        <time>2021-07-19T07:21:26Z</time>
      </trkpt>
      <trkpt lat="45.50402" lon="4.84249">
        <ele>119.07878</ele>
        <time>2021-07-19T07:21:27Z</time>
      </trkpt>
      <trkpt lat="45.50396" lon="4.84243">
        <ele>118.85154</ele>
        <time>2021-07-19T07:21:28Z</time>
      </trkpt>
      <trkpt lat="45.50391" lon="4.84237">
        <ele>118.80926</ele>
        <time>2021-07-19T07:21:29Z</time>
      </trkpt>
      <trkpt lat="45.50386" lon="4.84231">
        <ele>118.814545</ele>
        <time>2021-07-19T07:21:30Z</time>
      </trkpt>
      <trkpt lat="45.50381" lon="4.84225">
        <ele>118.86211</ele>
        <time>2021-07-19T07:21:31Z</time>
      </trkpt>
      <trkpt lat="45.50376" lon="4.84219">
        <ele>118.71942</ele>
        <time>2021-07-19T07:21:32Z</time>
      </trkpt>
      <trkpt lat="45.50371" lon="4.84214">
        <ele>118.714134</ele>
        <time>2021-07-19T07:21:33Z</time>
      </trkpt>
      <trkpt lat="45.50366" lon="4.84207">
        <ele>118.90967</ele>
        <time>2021-07-19T07:21:34Z</time>
      </trkpt>
      <trkpt lat="45.50361" lon="4.84202">
        <ele>118.85682</ele>
        <time>2021-07-19T07:21:35Z</time>
      </trkpt>
      <trkpt lat="45.50355" lon="4.84196">
        <ele>118.7617</ele>
        <time>2021-07-19T07:21:36Z</time>
      </trkpt>
      <trkpt lat="45.5035" lon="4.8419">
        <ele>118.57674</ele>
        <time>2021-07-19T07:21:37Z</time>
      </trkpt>
      <trkpt lat="45.50345" lon="4.84185">
        <ele>118.64544</ele>
        <time>2021-07-19T07:21:38Z</time>
      </trkpt>
      <trkpt lat="45.50339" lon="4.84179">
        <ele>118.57674</ele>
        <time>2021-07-19T07:21:39Z</time>
      </trkpt>
      <trkpt lat="45.50334" lon="4.84173">
        <ele>118.50803</ele>
        <time>2021-07-19T07:21:40Z</time>
      </trkpt>
      <trkpt lat="45.50329" lon="4.84166">
        <ele>118.53974</ele>
        <time>2021-07-19T07:21:41Z</time>
      </trkpt>
      <trkpt lat="45.50324" lon="4.8416">
        <ele>118.97309</ele>
        <time>2021-07-19T07:21:42Z</time>
      </trkpt>
      <trkpt lat="45.50319" lon="4.84154">
        <ele>119.147484</ele>
        <time>2021-07-19T07:21:43Z</time>
      </trkpt>
      <trkpt lat="45.50313" lon="4.84148">
        <ele>118.91495</ele>
        <time>2021-07-19T07:21:44Z</time>
      </trkpt>
      <trkpt lat="45.50308" lon="4.84142">
        <ele>119.00479</ele>
        <time>2021-07-19T07:21:45Z</time>
      </trkpt>
      <trkpt lat="45.50303" lon="4.84136">
        <ele>118.70357</ele>
        <time>2021-07-19T07:21:46Z</time>
      </trkpt>
      <trkpt lat="45.50298" lon="4.8413">
        <ele>118.40763</ele>
        <time>2021-07-19T07:21:47Z</time>
      </trkpt>
      <trkpt lat="45.50293" lon="4.84123">
        <ele>118.4182</ele>
        <time>2021-07-19T07:21:48Z</time>
      </trkpt>
      <trkpt lat="45.50288" lon="4.84117">
        <ele>118.51861</ele>
        <time>2021-07-19T07:21:49Z</time>
      </trkpt>
      <trkpt lat="45.50282" lon="4.84111">
        <ele>118.64544</ele>
        <time>2021-07-19T07:21:50Z</time>
      </trkpt>
      <trkpt lat="45.50277" lon="4.84104">
        <ele>118.77226</ele>
        <time>2021-07-19T07:21:51Z</time>
      </trkpt>
      <trkpt lat="45.50272" lon="4.84098">
        <ele>118.91495</ele>
        <time>2021-07-19T07:21:52Z</time>
      </trkpt>
      <trkpt lat="45.50267" lon="4.84092">
        <ele>118.87267</ele>
        <time>2021-07-19T07:21:53Z</time>
      </trkpt>
      <trkpt lat="45.50262" lon="4.84086">
        <ele>118.59259</ele>
        <time>2021-07-19T07:21:54Z</time>
      </trkpt>
      <trkpt lat="45.50256" lon="4.8408">
        <ele>118.555595</ele>
        <time>2021-07-19T07:21:55Z</time>
      </trkpt>
      <trkpt lat="45.50252" lon="4.84074">
        <ele>118.56617</ele>
        <time>2021-07-19T07:21:56Z</time>
      </trkpt>
      <trkpt lat="45.50247" lon="4.84067">
        <ele>118.56617</ele>
        <time>2021-07-19T07:21:57Z</time>
      </trkpt>
      <trkpt lat="45.50238" lon="4.84051">
        <ele>118.59259</ele>
        <time>2021-07-19T07:21:58Z</time>
      </trkpt>
      <trkpt lat="45.50238" lon="4.84051">
        <ele>118.59259</ele>
        <time>2021-07-19T07:21:58Z</time>
      </trkpt>
      <trkpt lat="45.50234" lon="4.84044">
        <ele>118.64544</ele>
        <time>2021-07-19T07:22:00Z</time>
      </trkpt>
      <trkpt lat="45.5023" lon="4.84037">
        <ele>118.80926</ele>
        <time>2021-07-19T07:22:01Z</time>
      </trkpt>
      <trkpt lat="45.50221" lon="4.84022">
        <ele>118.687706</ele>
        <time>2021-07-19T07:22:02Z</time>
      </trkpt>
      <trkpt lat="45.50221" lon="4.84022">
        <ele>118.687706</ele>
        <time>2021-07-19T07:22:02Z</time>
      </trkpt>
      <trkpt lat="45.50216" lon="4.84015">
        <ele>118.788124</ele>
        <time>2021-07-19T07:22:04Z</time>
      </trkpt>
      <trkpt lat="45.50212" lon="4.84008">
        <ele>118.84625</ele>
        <time>2021-07-19T07:22:05Z</time>
      </trkpt>
      <trkpt lat="45.50203" lon="4.83993">
        <ele>118.740555</ele>
        <time>2021-07-19T07:22:06Z</time>
      </trkpt>
      <trkpt lat="45.50199" lon="4.83986">
        <ele>118.714134</ele>
        <time>2021-07-19T07:22:07Z</time>
      </trkpt>
      <trkpt lat="45.50194" lon="4.83979">
        <ele>118.708855</ele>
        <time>2021-07-19T07:22:08Z</time>
      </trkpt>
      <trkpt lat="45.5019" lon="4.83971">
        <ele>118.82511</ele>
        <time>2021-07-19T07:22:09Z</time>
      </trkpt>
      <trkpt lat="45.50186" lon="4.83963">
        <ele>118.90439</ele>
        <time>2021-07-19T07:22:10Z</time>
      </trkpt>
      <trkpt lat="45.50182" lon="4.83955">
        <ele>118.77226</ele>
        <time>2021-07-19T07:22:11Z</time>
      </trkpt>
      <trkpt lat="45.50178" lon="4.83947">
        <ele>118.69828</ele>
        <time>2021-07-19T07:22:12Z</time>
      </trkpt>
      <trkpt lat="45.50174" lon="4.8394">
        <ele>118.66129</ele>
        <time>2021-07-19T07:22:13Z</time>
      </trkpt>
      <trkpt lat="45.5017" lon="4.83931">
        <ele>118.835686</ele>
        <time>2021-07-19T07:22:14Z</time>
      </trkpt>
      <trkpt lat="45.50166" lon="4.83924">
        <ele>118.85682</ele>
        <time>2021-07-19T07:22:15Z</time>
      </trkpt>
      <trkpt lat="45.50162" lon="4.83916">
        <ele>118.92552</ele>
        <time>2021-07-19T07:22:16Z</time>
      </trkpt>
      <trkpt lat="45.50159" lon="4.83908">
        <ele>118.708855</ele>
        <time>2021-07-19T07:22:17Z</time>
      </trkpt>
      <trkpt lat="45.50155" lon="4.83899">
        <ele>118.92552</ele>
        <time>2021-07-19T07:22:18Z</time>
      </trkpt>
      <trkpt lat="45.50152" lon="4.83891">
        <ele>118.97309</ele>
        <time>2021-07-19T07:22:19Z</time>
      </trkpt>
      <trkpt lat="45.50149" lon="4.83882">
        <ele>118.97309</ele>
        <time>2021-07-19T07:22:20Z</time>
      </trkpt>
      <trkpt lat="45.50149" lon="4.83882">
        <ele>118.97309</ele>
        <time>2021-07-19T07:22:20Z</time>
      </trkpt>
      <trkpt lat="45.50146" lon="4.83873">
        <ele>119.1052</ele>
        <time>2021-07-19T07:22:22Z</time>
      </trkpt>
      <trkpt lat="45.50143" lon="4.83865">
        <ele>118.999504</ele>
        <time>2021-07-19T07:22:23Z</time>
      </trkpt>
      <trkpt lat="45.50139" lon="4.83861">
        <ele>118.30722</ele>
        <time>2021-07-19T07:22:24Z</time>
      </trkpt>
      <trkpt lat="45.50139" lon="4.83861">
        <ele>118.30722</ele>
        <time>2021-07-19T07:22:24Z</time>
      </trkpt>
      <trkpt lat="45.50139" lon="4.83861">
        <ele>118.25966</ele>
        <time>2021-07-19T07:22:26Z</time>
      </trkpt>
      <trkpt lat="45.50139" lon="4.83861">
        <ele>118.296646</ele>
        <time>2021-07-19T07:22:27Z</time>
      </trkpt>
      <trkpt lat="45.50137" lon="4.83859">
        <ele>118.43405</ele>
        <time>2021-07-19T07:22:28Z</time>
      </trkpt>
      <trkpt lat="45.50137" lon="4.83859">
        <ele>118.43405</ele>
        <time>2021-07-19T07:22:28Z</time>
      </trkpt>
      <trkpt lat="45.50137" lon="4.83859">
        <ele>118.43405</ele>
        <time>2021-07-19T07:22:28Z</time>
      </trkpt>
      <trkpt lat="45.50156" lon="4.83745">
        <ele>116.72711</ele>
        <time>2021-07-19T07:23:00Z</time>
      </trkpt>
      <trkpt lat="45.50153" lon="4.83736">
        <ele>116.42589</ele>
        <time>2021-07-19T07:23:01Z</time>
      </trkpt>
      <trkpt lat="45.50149" lon="4.83726">
        <ele>116.54215</ele>
        <time>2021-07-19T07:23:02Z</time>
      </trkpt>
      <trkpt lat="45.50147" lon="4.83716">
        <ele>116.56857</ele>
        <time>2021-07-19T07:23:03Z</time>
      </trkpt>
      <trkpt lat="45.50144" lon="4.83706">
        <ele>116.42589</ele>
        <time>2021-07-19T07:23:04Z</time>
      </trkpt>
      <trkpt lat="45.50142" lon="4.83697">
        <ele>116.510445</ele>
        <time>2021-07-19T07:23:05Z</time>
      </trkpt>
      <trkpt lat="45.5014" lon="4.83687">
        <ele>116.55272</ele>
        <time>2021-07-19T07:23:06Z</time>
      </trkpt>
      <trkpt lat="45.50137" lon="4.83678">
        <ele>116.5263</ele>
        <time>2021-07-19T07:23:07Z</time>
      </trkpt>
      <trkpt lat="45.50134" lon="4.83668">
        <ele>116.23564</ele>
        <time>2021-07-19T07:23:08Z</time>
      </trkpt>
      <trkpt lat="45.50131" lon="4.83659">
        <ele>116.124664</ele>
        <time>2021-07-19T07:23:09Z</time>
      </trkpt>
      <trkpt lat="45.50129" lon="4.8365">
        <ele>116.17751</ele>
        <time>2021-07-19T07:23:10Z</time>
      </trkpt>
      <trkpt lat="45.50127" lon="4.8364">
        <ele>115.99783</ele>
        <time>2021-07-19T07:23:11Z</time>
      </trkpt>
      <trkpt lat="45.50125" lon="4.83631">
        <ele>115.971405</ele>
        <time>2021-07-19T07:23:12Z</time>
      </trkpt>
      <trkpt lat="45.50123" lon="4.83621">
        <ele>116.151085</ele>
        <time>2021-07-19T07:23:13Z</time>
      </trkpt>
      <trkpt lat="45.50121" lon="4.83612">
        <ele>115.81816</ele>
        <time>2021-07-19T07:23:14Z</time>
      </trkpt>
      <trkpt lat="45.50119" lon="4.83602">
        <ele>115.75474</ele>
        <time>2021-07-19T07:23:15Z</time>
      </trkpt>
      <trkpt lat="45.50117" lon="4.83593">
        <ele>115.7019</ele>
        <time>2021-07-19T07:23:16Z</time>
      </trkpt>
      <trkpt lat="45.50114" lon="4.83584">
        <ele>115.6649</ele>
        <time>2021-07-19T07:23:17Z</time>
      </trkpt>
      <trkpt lat="45.50111" lon="4.83575">
        <ele>115.79173</ele>
        <time>2021-07-19T07:23:18Z</time>
      </trkpt>
      <trkpt lat="45.50109" lon="4.83566">
        <ele>115.69132</ele>
        <time>2021-07-19T07:23:19Z</time>
      </trkpt>
      <trkpt lat="45.50106" lon="4.83557">
        <ele>115.633194</ele>
        <time>2021-07-19T07:23:20Z</time>
      </trkpt>
      <trkpt lat="45.50104" lon="4.83548">
        <ele>115.72831</ele>
        <time>2021-07-19T07:23:21Z</time>
      </trkpt>
      <trkpt lat="45.50102" lon="4.83539">
        <ele>115.54335</ele>
        <time>2021-07-19T07:23:22Z</time>
      </trkpt>
      <trkpt lat="45.50099" lon="4.8353">
        <ele>115.585625</ele>
        <time>2021-07-19T07:23:23Z</time>
      </trkpt>
      <trkpt lat="45.50097" lon="4.8352">
        <ele>115.76531</ele>
        <time>2021-07-19T07:23:24Z</time>
      </trkpt>
      <trkpt lat="45.50094" lon="4.83511">
        <ele>115.77059</ele>
        <time>2021-07-19T07:23:25Z</time>
      </trkpt>
      <trkpt lat="45.50092" lon="4.83501">
        <ele>115.65433</ele>
        <time>2021-07-19T07:23:26Z</time>
      </trkpt>
      <trkpt lat="45.50089" lon="4.83492">
        <ele>115.786446</ele>
        <time>2021-07-19T07:23:27Z</time>
      </trkpt>
      <trkpt lat="45.50087" lon="4.83483">
        <ele>115.786446</ele>
        <time>2021-07-19T07:23:28Z</time>
      </trkpt>
      <trkpt lat="45.50084" lon="4.83474">
        <ele>115.844574</ele>
        <time>2021-07-19T07:23:29Z</time>
      </trkpt>
      <trkpt lat="45.50082" lon="4.83464">
        <ele>115.79173</ele>
        <time>2021-07-19T07:23:30Z</time>
      </trkpt>
      <trkpt lat="45.50079" lon="4.83455">
        <ele>115.77059</ele>
        <time>2021-07-19T07:23:31Z</time>
      </trkpt>
      <trkpt lat="45.50077" lon="4.83446">
        <ele>115.72303</ele>
        <time>2021-07-19T07:23:32Z</time>
      </trkpt>
      <trkpt lat="45.50075" lon="4.83436">
        <ele>115.575066</ele>
        <time>2021-07-19T07:23:33Z</time>
      </trkpt>
      <trkpt lat="45.50073" lon="4.83427">
        <ele>115.294975</ele>
        <time>2021-07-19T07:23:34Z</time>
      </trkpt>
      <trkpt lat="45.50071" lon="4.83418">
        <ele>114.54984</ele>
        <time>2021-07-19T07:23:35Z</time>
      </trkpt>
      <trkpt lat="45.50068" lon="4.83408">
        <ele>115.50108</ele>
        <time>2021-07-19T07:23:36Z</time>
      </trkpt>
      <trkpt lat="45.50066" lon="4.83399">
        <ele>115.686035</ele>
        <time>2021-07-19T07:23:37Z</time>
      </trkpt>
      <trkpt lat="45.50063" lon="4.8339">
        <ele>115.7019</ele>
        <time>2021-07-19T07:23:38Z</time>
      </trkpt>
      <trkpt lat="45.50061" lon="4.8338">
        <ele>115.79701</ele>
        <time>2021-07-19T07:23:39Z</time>
      </trkpt>
      <trkpt lat="45.50058" lon="4.83371">
        <ele>115.60148</ele>
        <time>2021-07-19T07:23:40Z</time>
      </trkpt>
      <trkpt lat="45.50056" lon="4.83362">
        <ele>115.59092</ele>
        <time>2021-07-19T07:23:41Z</time>
      </trkpt>
      <trkpt lat="45.50053" lon="4.83354">
        <ele>115.65433</ele>
        <time>2021-07-19T07:23:42Z</time>
      </trkpt>
      <trkpt lat="45.5005" lon="4.83345">
        <ele>115.67018</ele>
        <time>2021-07-19T07:23:43Z</time>
      </trkpt>
      <trkpt lat="45.50047" lon="4.83337">
        <ele>115.74416</ele>
        <time>2021-07-19T07:23:44Z</time>
      </trkpt>
      <trkpt lat="45.50045" lon="4.83328">
        <ele>115.738884</ele>
        <time>2021-07-19T07:23:45Z</time>
      </trkpt>
      <trkpt lat="45.50043" lon="4.8332">
        <ele>115.49579</ele>
        <time>2021-07-19T07:23:46Z</time>
      </trkpt>
      <trkpt lat="45.5004" lon="4.8331">
        <ele>115.553925</ele>
        <time>2021-07-19T07:23:47Z</time>
      </trkpt>
      <trkpt lat="45.50038" lon="4.83301">
        <ele>115.67547</ele>
        <time>2021-07-19T07:23:48Z</time>
      </trkpt>
      <trkpt lat="45.50036" lon="4.83292">
        <ele>115.71775</ele>
        <time>2021-07-19T07:23:49Z</time>
      </trkpt>
      <trkpt lat="45.50033" lon="4.83283">
        <ele>115.53278</ele>
        <time>2021-07-19T07:23:50Z</time>
      </trkpt>
      <trkpt lat="45.50031" lon="4.83274">
        <ele>115.55921</ele>
        <time>2021-07-19T07:23:51Z</time>
      </trkpt>
      <trkpt lat="45.50028" lon="4.83265">
        <ele>115.453514</ele>
        <time>2021-07-19T07:23:52Z</time>
      </trkpt>
      <trkpt lat="45.50026" lon="4.83256">
        <ele>115.51164</ele>
        <time>2021-07-19T07:23:53Z</time>
      </trkpt>
      <trkpt lat="45.50024" lon="4.83247">
        <ele>115.51164</ele>
        <time>2021-07-19T07:23:54Z</time>
      </trkpt>
      <trkpt lat="45.50022" lon="4.83238">
        <ele>115.553925</ele>
        <time>2021-07-19T07:23:55Z</time>
      </trkpt>
      <trkpt lat="45.5002" lon="4.83229">
        <ele>115.54335</ele>
        <time>2021-07-19T07:23:56Z</time>
      </trkpt>
      <trkpt lat="45.50017" lon="4.8322">
        <ele>115.585625</ele>
        <time>2021-07-19T07:23:57Z</time>
      </trkpt>
      <trkpt lat="45.50014" lon="4.83212">
        <ele>115.72831</ele>
        <time>2021-07-19T07:23:58Z</time>
      </trkpt>
      <trkpt lat="45.5001" lon="4.83204">
        <ele>115.61205</ele>
        <time>2021-07-19T07:23:59Z</time>
      </trkpt>
      <trkpt lat="45.50007" lon="4.83195">
        <ele>115.67547</ele>
        <time>2021-07-19T07:24:00Z</time>
      </trkpt>
      <trkpt lat="45.50005" lon="4.83186">
        <ele>115.738884</ele>
        <time>2021-07-19T07:24:01Z</time>
      </trkpt>
      <trkpt lat="45.50001" lon="4.83178">
        <ele>115.64905</ele>
        <time>2021-07-19T07:24:02Z</time>
      </trkpt>
      <trkpt lat="45.49998" lon="4.8317">
        <ele>115.453514</ele>
        <time>2021-07-19T07:24:03Z</time>
      </trkpt>
      <trkpt lat="45.49994" lon="4.83161">
        <ele>115.46937</ele>
        <time>2021-07-19T07:24:04Z</time>
      </trkpt>
      <trkpt lat="45.49991" lon="4.83153">
        <ele>115.46937</ele>
        <time>2021-07-19T07:24:05Z</time>
      </trkpt>
      <trkpt lat="45.49987" lon="4.83145">
        <ele>115.25799</ele>
        <time>2021-07-19T07:24:06Z</time>
      </trkpt>
      <trkpt lat="45.49984" lon="4.83136">
        <ele>115.46408</ele>
        <time>2021-07-19T07:24:07Z</time>
      </trkpt>
      <trkpt lat="45.49981" lon="4.83128">
        <ele>115.43766</ele>
        <time>2021-07-19T07:24:08Z</time>
      </trkpt>
      <trkpt lat="45.49977" lon="4.8312">
        <ele>115.59092</ele>
        <time>2021-07-19T07:24:09Z</time>
      </trkpt>
      <trkpt lat="45.49973" lon="4.83112">
        <ele>115.733604</ele>
        <time>2021-07-19T07:24:10Z</time>
      </trkpt>
      <trkpt lat="45.49969" lon="4.83104">
        <ele>115.62262</ele>
        <time>2021-07-19T07:24:11Z</time>
      </trkpt>
      <trkpt lat="45.49965" lon="4.83096">
        <ele>115.4588</ele>
        <time>2021-07-19T07:24:12Z</time>
      </trkpt>
      <trkpt lat="45.49961" lon="4.83088">
        <ele>115.72831</ele>
        <time>2021-07-19T07:24:13Z</time>
      </trkpt>
      <trkpt lat="45.49957" lon="4.8308">
        <ele>115.65433</ele>
        <time>2021-07-19T07:24:14Z</time>
      </trkpt>
      <trkpt lat="45.49954" lon="4.83072">
        <ele>115.62791</ele>
        <time>2021-07-19T07:24:15Z</time>
      </trkpt>
      <trkpt lat="45.4995" lon="4.83064">
        <ele>115.760025</ele>
        <time>2021-07-19T07:24:16Z</time>
      </trkpt>
      <trkpt lat="45.49946" lon="4.83057">
        <ele>115.93442</ele>
        <time>2021-07-19T07:24:17Z</time>
      </trkpt>
      <trkpt lat="45.49942" lon="4.8305">
        <ele>116.251495</ele>
        <time>2021-07-19T07:24:18Z</time>
      </trkpt>
      <trkpt lat="45.49938" lon="4.83044">
        <ele>116.30962</ele>
        <time>2021-07-19T07:24:19Z</time>
      </trkpt>
      <trkpt lat="45.49934" lon="4.83038">
        <ele>116.44174</ele>
        <time>2021-07-19T07:24:20Z</time>
      </trkpt>
      <trkpt lat="45.49929" lon="4.83031">
        <ele>116.45232</ele>
        <time>2021-07-19T07:24:21Z</time>
      </trkpt>
      <trkpt lat="45.49925" lon="4.83025">
        <ele>116.663704</ele>
        <time>2021-07-19T07:24:22Z</time>
      </trkpt>
      <trkpt lat="45.49921" lon="4.83018">
        <ele>116.637276</ele>
        <time>2021-07-19T07:24:23Z</time>
      </trkpt>
      <trkpt lat="45.49917" lon="4.83011">
        <ele>116.75882</ele>
        <time>2021-07-19T07:24:24Z</time>
      </trkpt>
      <trkpt lat="45.49914" lon="4.83004">
        <ele>116.81167</ele>
        <time>2021-07-19T07:24:25Z</time>
      </trkpt>
      <trkpt lat="45.4991" lon="4.82996">
        <ele>116.843376</ele>
        <time>2021-07-19T07:24:26Z</time>
      </trkpt>
      <trkpt lat="45.49907" lon="4.82989">
        <ele>116.737686</ele>
        <time>2021-07-19T07:24:27Z</time>
      </trkpt>
      <trkpt lat="45.49902" lon="4.82982">
        <ele>116.742966</ele>
        <time>2021-07-19T07:24:28Z</time>
      </trkpt>
      <trkpt lat="45.49899" lon="4.82975">
        <ele>116.71126</ele>
        <time>2021-07-19T07:24:29Z</time>
      </trkpt>
      <trkpt lat="45.49896" lon="4.82967">
        <ele>117.04947</ele>
        <time>2021-07-19T07:24:30Z</time>
      </trkpt>
      <trkpt lat="45.49891" lon="4.8296">
        <ele>116.88565</ele>
        <time>2021-07-19T07:24:31Z</time>
      </trkpt>
      <trkpt lat="45.49887" lon="4.82954">
        <ele>116.14052</ele>
        <time>2021-07-19T07:24:32Z</time>
      </trkpt>
      <trkpt lat="45.49883" lon="4.82947">
        <ele>115.992546</ele>
        <time>2021-07-19T07:24:33Z</time>
      </trkpt>
      <trkpt lat="45.49878" lon="4.82941">
        <ele>116.19865</ele>
        <time>2021-07-19T07:24:34Z</time>
      </trkpt>
      <trkpt lat="45.49873" lon="4.82934">
        <ele>116.362465</ele>
        <time>2021-07-19T07:24:35Z</time>
      </trkpt>
      <trkpt lat="45.49869" lon="4.82927">
        <ele>116.42061</ele>
        <time>2021-07-19T07:24:36Z</time>
      </trkpt>
      <trkpt lat="45.49864" lon="4.8292">
        <ele>116.11409</ele>
        <time>2021-07-19T07:24:37Z</time>
      </trkpt>
      <trkpt lat="45.4986" lon="4.82913">
        <ele>116.08239</ele>
        <time>2021-07-19T07:24:38Z</time>
      </trkpt>
      <trkpt lat="45.49855" lon="4.82907">
        <ele>116.10353</ele>
        <time>2021-07-19T07:24:39Z</time>
      </trkpt>
      <trkpt lat="45.49851" lon="4.829">
        <ele>116.17751</ele>
        <time>2021-07-19T07:24:40Z</time>
      </trkpt>
      <trkpt lat="45.49846" lon="4.82893">
        <ele>116.03483</ele>
        <time>2021-07-19T07:24:41Z</time>
      </trkpt>
      <trkpt lat="45.49841" lon="4.82886">
        <ele>116.351906</ele>
        <time>2021-07-19T07:24:42Z</time>
      </trkpt>
      <trkpt lat="45.49837" lon="4.82879">
        <ele>116.230354</ele>
        <time>2021-07-19T07:24:43Z</time>
      </trkpt>
      <trkpt lat="45.49833" lon="4.82871">
        <ele>115.95027</ele>
        <time>2021-07-19T07:24:44Z</time>
      </trkpt>
      <trkpt lat="45.49829" lon="4.82863">
        <ele>116.0084</ele>
        <time>2021-07-19T07:24:45Z</time>
      </trkpt>
      <trkpt lat="45.49825" lon="4.82855">
        <ele>116.05596</ele>
        <time>2021-07-19T07:24:46Z</time>
      </trkpt>
      <trkpt lat="45.4982" lon="4.82848">
        <ele>116.20922</ele>
        <time>2021-07-19T07:24:47Z</time>
      </trkpt>
      <trkpt lat="45.49816" lon="4.82841">
        <ele>116.256775</ele>
        <time>2021-07-19T07:24:48Z</time>
      </trkpt>
      <trkpt lat="45.49811" lon="4.82833">
        <ele>116.41531</ele>
        <time>2021-07-19T07:24:49Z</time>
      </trkpt>
      <trkpt lat="45.49807" lon="4.82826">
        <ele>116.23564</ele>
        <time>2021-07-19T07:24:50Z</time>
      </trkpt>
      <trkpt lat="45.49802" lon="4.82819">
        <ele>116.38361</ele>
        <time>2021-07-19T07:24:51Z</time>
      </trkpt>
      <trkpt lat="45.49798" lon="4.82812">
        <ele>116.32548</ele>
        <time>2021-07-19T07:24:52Z</time>
      </trkpt>
      <trkpt lat="45.49794" lon="4.82804">
        <ele>116.34663</ele>
        <time>2021-07-19T07:24:53Z</time>
      </trkpt>
      <trkpt lat="45.49789" lon="4.82797">
        <ele>116.457596</ele>
        <time>2021-07-19T07:24:54Z</time>
      </trkpt>
      <trkpt lat="45.49785" lon="4.82789">
        <ele>116.256775</ele>
        <time>2021-07-19T07:24:55Z</time>
      </trkpt>
      <trkpt lat="45.49781" lon="4.82782">
        <ele>116.26207</ele>
        <time>2021-07-19T07:24:56Z</time>
      </trkpt>
      <trkpt lat="45.49777" lon="4.82774">
        <ele>116.23564</ele>
        <time>2021-07-19T07:24:57Z</time>
      </trkpt>
      <trkpt lat="45.49773" lon="4.82767">
        <ele>116.27792</ele>
        <time>2021-07-19T07:24:58Z</time>
      </trkpt>
      <trkpt lat="45.49768" lon="4.82759">
        <ele>116.29378</ele>
        <time>2021-07-19T07:24:59Z</time>
      </trkpt>
      <trkpt lat="45.49764" lon="4.82753">
        <ele>116.24093</ele>
        <time>2021-07-19T07:25:00Z</time>
      </trkpt>
      <trkpt lat="45.4976" lon="4.82746">
        <ele>116.4893</ele>
        <time>2021-07-19T07:25:01Z</time>
      </trkpt>
      <trkpt lat="45.49755" lon="4.82739">
        <ele>116.510445</ele>
        <time>2021-07-19T07:25:02Z</time>
      </trkpt>
      <trkpt lat="45.49751" lon="4.82732">
        <ele>116.37304</ele>
        <time>2021-07-19T07:25:03Z</time>
      </trkpt>
      <trkpt lat="45.49747" lon="4.82725">
        <ele>116.44702</ele>
        <time>2021-07-19T07:25:04Z</time>
      </trkpt>
      <trkpt lat="45.49743" lon="4.82718">
        <ele>116.60028</ele>
        <time>2021-07-19T07:25:05Z</time>
      </trkpt>
      <trkpt lat="45.49738" lon="4.82711">
        <ele>116.65841</ele>
        <time>2021-07-19T07:25:06Z</time>
      </trkpt>
      <trkpt lat="45.49734" lon="4.82704">
        <ele>116.515724</ele>
        <time>2021-07-19T07:25:07Z</time>
      </trkpt>
      <trkpt lat="45.4973" lon="4.82697">
        <ele>116.63199</ele>
        <time>2021-07-19T07:25:08Z</time>
      </trkpt>
      <trkpt lat="45.49726" lon="4.8269">
        <ele>116.63199</ele>
        <time>2021-07-19T07:25:09Z</time>
      </trkpt>
      <trkpt lat="45.49722" lon="4.82683">
        <ele>116.595</ele>
        <time>2021-07-19T07:25:10Z</time>
      </trkpt>
      <trkpt lat="45.49717" lon="4.82676">
        <ele>116.748245</ele>
        <time>2021-07-19T07:25:11Z</time>
      </trkpt>
      <trkpt lat="45.49713" lon="4.8267">
        <ele>116.65841</ele>
        <time>2021-07-19T07:25:12Z</time>
      </trkpt>
      <trkpt lat="45.49708" lon="4.82663">
        <ele>116.56329</ele>
        <time>2021-07-19T07:25:13Z</time>
      </trkpt>
      <trkpt lat="45.49704" lon="4.82657">
        <ele>116.44702</ele>
        <time>2021-07-19T07:25:14Z</time>
      </trkpt>
      <trkpt lat="45.497" lon="4.8265">
        <ele>116.56857</ele>
        <time>2021-07-19T07:25:15Z</time>
      </trkpt>
      <trkpt lat="45.49696" lon="4.82643">
        <ele>116.37833</ele>
        <time>2021-07-19T07:25:16Z</time>
      </trkpt>
      <trkpt lat="45.49692" lon="4.82636">
        <ele>116.46288</ele>
        <time>2021-07-19T07:25:17Z</time>
      </trkpt>
      <trkpt lat="45.49688" lon="4.82629">
        <ele>116.351906</ele>
        <time>2021-07-19T07:25:18Z</time>
      </trkpt>
      <trkpt lat="45.49684" lon="4.82623">
        <ele>116.55272</ele>
        <time>2021-07-19T07:25:19Z</time>
      </trkpt>
      <trkpt lat="45.4968" lon="4.82616">
        <ele>116.29906</ele>
        <time>2021-07-19T07:25:20Z</time>
      </trkpt>
      <trkpt lat="45.49676" lon="4.8261">
        <ele>116.330765</ele>
        <time>2021-07-19T07:25:21Z</time>
      </trkpt>
      <trkpt lat="45.49672" lon="4.82604">
        <ele>116.43646</ele>
        <time>2021-07-19T07:25:22Z</time>
      </trkpt>
      <trkpt lat="45.49669" lon="4.82598">
        <ele>116.54743</ele>
        <time>2021-07-19T07:25:23Z</time>
      </trkpt>
      <trkpt lat="45.49666" lon="4.82592">
        <ele>116.230354</ele>
        <time>2021-07-19T07:25:24Z</time>
      </trkpt>
      <trkpt lat="45.49665" lon="4.82589">
        <ele>116.330765</ele>
        <time>2021-07-19T07:25:25Z</time>
      </trkpt>
      <trkpt lat="45.49665" lon="4.82585">
        <ele>116.57915</ele>
        <time>2021-07-19T07:25:26Z</time>
      </trkpt>
      <trkpt lat="45.49666" lon="4.82581">
        <ele>116.610855</ele>
        <time>2021-07-19T07:25:27Z</time>
      </trkpt>
      <trkpt lat="45.49669" lon="4.82578">
        <ele>116.642555</ele>
        <time>2021-07-19T07:25:28Z</time>
      </trkpt>
      <trkpt lat="45.49673" lon="4.82575">
        <ele>116.8698</ele>
        <time>2021-07-19T07:25:29Z</time>
      </trkpt>
      <trkpt lat="45.49677" lon="4.82571">
        <ele>117.181595</ele>
        <time>2021-07-19T07:25:30Z</time>
      </trkpt>
      <trkpt lat="45.4968" lon="4.82566">
        <ele>117.09704</ele>
        <time>2021-07-19T07:25:31Z</time>
      </trkpt>
      <trkpt lat="45.49683" lon="4.82562">
        <ele>116.8698</ele>
        <time>2021-07-19T07:25:32Z</time>
      </trkpt>
      <trkpt lat="45.49687" lon="4.82558">
        <ele>117.04947</ele>
        <time>2021-07-19T07:25:33Z</time>
      </trkpt>
      <trkpt lat="45.49692" lon="4.82553">
        <ele>117.14988</ele>
        <time>2021-07-19T07:25:34Z</time>
      </trkpt>
      <trkpt lat="45.49696" lon="4.82548">
        <ele>117.414116</ele>
        <time>2021-07-19T07:25:35Z</time>
      </trkpt>
      <trkpt lat="45.49701" lon="4.82543">
        <ele>117.292564</ele>
        <time>2021-07-19T07:25:36Z</time>
      </trkpt>
      <trkpt lat="45.49706" lon="4.82537">
        <ele>117.567375</ele>
        <time>2021-07-19T07:25:37Z</time>
      </trkpt>
      <trkpt lat="45.49711" lon="4.82531">
        <ele>117.59908</ele>
        <time>2021-07-19T07:25:38Z</time>
      </trkpt>
      <trkpt lat="45.49715" lon="4.82525">
        <ele>117.493385</ele>
        <time>2021-07-19T07:25:39Z</time>
      </trkpt>
      <trkpt lat="45.4972" lon="4.8252">
        <ele>117.68892</ele>
        <time>2021-07-19T07:25:40Z</time>
      </trkpt>
      <trkpt lat="45.49724" lon="4.82515">
        <ele>117.72063</ele>
        <time>2021-07-19T07:25:41Z</time>
      </trkpt>
      <trkpt lat="45.49729" lon="4.82511">
        <ele>117.55151</ele>
        <time>2021-07-19T07:25:42Z</time>
      </trkpt>
      <trkpt lat="45.49733" lon="4.82506">
        <ele>117.76818</ele>
        <time>2021-07-19T07:25:43Z</time>
      </trkpt>
      <trkpt lat="45.49738" lon="4.82501">
        <ele>118.03242</ele>
        <time>2021-07-19T07:25:44Z</time>
      </trkpt>
      <trkpt lat="45.49743" lon="4.82496">
        <ele>118.1064</ele>
        <time>2021-07-19T07:25:45Z</time>
      </trkpt>
      <trkpt lat="45.49747" lon="4.82491">
        <ele>118.1751</ele>
        <time>2021-07-19T07:25:46Z</time>
      </trkpt>
      <trkpt lat="45.49751" lon="4.82486">
        <ele>118.15925</ele>
        <time>2021-07-19T07:25:47Z</time>
      </trkpt>
      <trkpt lat="45.49755" lon="4.82481">
        <ele>118.0747</ele>
        <time>2021-07-19T07:25:48Z</time>
      </trkpt>
      <trkpt lat="45.49759" lon="4.82477">
        <ele>117.81047</ele>
        <time>2021-07-19T07:25:49Z</time>
      </trkpt>
      <trkpt lat="45.49761" lon="4.82475">
        <ele>117.63078</ele>
        <time>2021-07-19T07:25:50Z</time>
      </trkpt>
      <trkpt lat="45.49762" lon="4.82473">
        <ele>117.651924</ele>
        <time>2021-07-19T07:25:51Z</time>
      </trkpt>
      <trkpt lat="45.49764" lon="4.8247">
        <ele>117.64664</ele>
        <time>2021-07-19T07:25:52Z</time>
      </trkpt>
      <trkpt lat="45.49764" lon="4.82466">
        <ele>117.63607</ele>
        <time>2021-07-19T07:25:53Z</time>
      </trkpt>
      <trkpt lat="45.49764" lon="4.82461">
        <ele>117.72063</ele>
        <time>2021-07-19T07:25:54Z</time>
      </trkpt>
      <trkpt lat="45.49762" lon="4.82456">
        <ele>117.71005</ele>
        <time>2021-07-19T07:25:55Z</time>
      </trkpt>
      <trkpt lat="45.49759" lon="4.82451">
        <ele>117.82103</ele>
        <time>2021-07-19T07:25:56Z</time>
      </trkpt>
      <trkpt lat="45.49755" lon="4.82445">
        <ele>117.84217</ele>
        <time>2021-07-19T07:25:57Z</time>
      </trkpt>
      <trkpt lat="45.49751" lon="4.82438">
        <ele>118.18039</ele>
        <time>2021-07-19T07:25:58Z</time>
      </trkpt>
      <trkpt lat="45.49746" lon="4.82432">
        <ele>118.069405</ele>
        <time>2021-07-19T07:25:59Z</time>
      </trkpt>
      <trkpt lat="45.49741" lon="4.82426">
        <ele>118.116974</ele>
        <time>2021-07-19T07:26:00Z</time>
      </trkpt>
      <trkpt lat="45.49737" lon="4.82419">
        <ele>118.05355</ele>
        <time>2021-07-19T07:26:01Z</time>
      </trkpt>
      <trkpt lat="45.49733" lon="4.82412">
        <ele>118.069405</ele>
        <time>2021-07-19T07:26:02Z</time>
      </trkpt>
      <trkpt lat="45.49729" lon="4.82405">
        <ele>118.037704</ele>
        <time>2021-07-19T07:26:03Z</time>
      </trkpt>
      <trkpt lat="45.49725" lon="4.82399">
        <ele>117.94258</ele>
        <time>2021-07-19T07:26:04Z</time>
      </trkpt>
      <trkpt lat="45.49721" lon="4.82392">
        <ele>117.94258</ele>
        <time>2021-07-19T07:26:05Z</time>
      </trkpt>
      <trkpt lat="45.49717" lon="4.82385">
        <ele>117.858025</ele>
        <time>2021-07-19T07:26:06Z</time>
      </trkpt>
      <trkpt lat="45.49714" lon="4.82378">
        <ele>118.33364</ele>
        <time>2021-07-19T07:26:07Z</time>
      </trkpt>
      <trkpt lat="45.4971" lon="4.82371">
        <ele>118.40763</ele>
        <time>2021-07-19T07:26:08Z</time>
      </trkpt>
      <trkpt lat="45.49706" lon="4.82365">
        <ele>118.740555</ele>
        <time>2021-07-19T07:26:09Z</time>
      </trkpt>
      <trkpt lat="45.49703" lon="4.82359">
        <ele>118.66129</ele>
        <time>2021-07-19T07:26:10Z</time>
      </trkpt>
      <trkpt lat="45.49699" lon="4.82352">
        <ele>118.67187</ele>
        <time>2021-07-19T07:26:11Z</time>
      </trkpt>
      <trkpt lat="45.49695" lon="4.82345">
        <ele>118.87796</ele>
        <time>2021-07-19T07:26:12Z</time>
      </trkpt>
      <trkpt lat="45.49691" lon="4.82339">
        <ele>119.1052</ele>
        <time>2021-07-19T07:26:13Z</time>
      </trkpt>
      <trkpt lat="45.49688" lon="4.82333">
        <ele>118.97837</ele>
        <time>2021-07-19T07:26:14Z</time>
      </trkpt>
      <trkpt lat="45.49685" lon="4.82327">
        <ele>119.0365</ele>
        <time>2021-07-19T07:26:15Z</time>
      </trkpt>
      <trkpt lat="45.49682" lon="4.82322">
        <ele>119.01008</ele>
        <time>2021-07-19T07:26:16Z</time>
      </trkpt>
      <trkpt lat="45.49678" lon="4.82317">
        <ele>118.80398</ele>
        <time>2021-07-19T07:26:17Z</time>
      </trkpt>
      <trkpt lat="45.49675" lon="4.82311">
        <ele>118.70357</ele>
        <time>2021-07-19T07:26:18Z</time>
      </trkpt>
      <trkpt lat="45.49672" lon="4.82304">
        <ele>118.37592</ele>
        <time>2021-07-19T07:26:19Z</time>
      </trkpt>
      <trkpt lat="45.49668" lon="4.82297">
        <ele>118.13283</ele>
        <time>2021-07-19T07:26:20Z</time>
      </trkpt>
      <trkpt lat="45.49664" lon="4.82289">
        <ele>117.831604</ele>
        <time>2021-07-19T07:26:21Z</time>
      </trkpt>
      <trkpt lat="45.49659" lon="4.82282">
        <ele>117.54095</ele>
        <time>2021-07-19T07:26:22Z</time>
      </trkpt>
      <trkpt lat="45.49655" lon="4.82275">
        <ele>117.292564</ele>
        <time>2021-07-19T07:26:23Z</time>
      </trkpt>
      <trkpt lat="45.4965" lon="4.82269">
        <ele>117.134026</ele>
        <time>2021-07-19T07:26:24Z</time>
      </trkpt>
      <trkpt lat="45.49645" lon="4.82263">
        <ele>116.8328</ele>
        <time>2021-07-19T07:26:25Z</time>
      </trkpt>
      <trkpt lat="45.49641" lon="4.82257">
        <ele>116.510445</ele>
        <time>2021-07-19T07:26:26Z</time>
      </trkpt>
      <trkpt lat="45.49638" lon="4.82251">
        <ele>116.31491</ele>
        <time>2021-07-19T07:26:27Z</time>
      </trkpt>
      <trkpt lat="45.49635" lon="4.82246">
        <ele>116.33605</ele>
        <time>2021-07-19T07:26:28Z</time>
      </trkpt>
      <trkpt lat="45.49632" lon="4.8224">
        <ele>116.124664</ele>
        <time>2021-07-19T07:26:29Z</time>
      </trkpt>
      <trkpt lat="45.49628" lon="4.82238">
        <ele>115.89742</ele>
        <time>2021-07-19T07:26:30Z</time>
      </trkpt>
      <trkpt lat="45.49625" lon="4.8224">
        <ele>115.92913</ele>
        <time>2021-07-19T07:26:31Z</time>
      </trkpt>
      <trkpt lat="45.49622" lon="4.82244">
        <ele>116.0771</ele>
        <time>2021-07-19T07:26:32Z</time>
      </trkpt>
      <trkpt lat="45.49619" lon="4.82247">
        <ele>115.95027</ele>
        <time>2021-07-19T07:26:33Z</time>
      </trkpt>
      <trkpt lat="45.49615" lon="4.82247">
        <ele>116.172226</ele>
        <time>2021-07-19T07:26:34Z</time>
      </trkpt>
      <trkpt lat="45.49611" lon="4.82246">
        <ele>115.839294</ele>
        <time>2021-07-19T07:26:35Z</time>
      </trkpt>
      <trkpt lat="45.49606" lon="4.82243">
        <ele>115.67547</ele>
        <time>2021-07-19T07:26:36Z</time>
      </trkpt>
      <trkpt lat="45.49601" lon="4.8224">
        <ele>115.5275</ele>
        <time>2021-07-19T07:26:37Z</time>
      </trkpt>
      <trkpt lat="45.49596" lon="4.82235">
        <ele>115.78116</ele>
        <time>2021-07-19T07:26:38Z</time>
      </trkpt>
      <trkpt lat="45.49591" lon="4.8223">
        <ele>116.066536</ele>
        <time>2021-07-19T07:26:39Z</time>
      </trkpt>
      <trkpt lat="45.49586" lon="4.82225">
        <ele>116.23564</ele>
        <time>2021-07-19T07:26:40Z</time>
      </trkpt>
      <trkpt lat="45.49581" lon="4.82221">
        <ele>116.151085</ele>
        <time>2021-07-19T07:26:41Z</time>
      </trkpt>
      <trkpt lat="45.49576" lon="4.82217">
        <ele>116.18808</ele>
        <time>2021-07-19T07:26:42Z</time>
      </trkpt>
      <trkpt lat="45.49571" lon="4.82213">
        <ele>116.14052</ele>
        <time>2021-07-19T07:26:43Z</time>
      </trkpt>
      <trkpt lat="45.49566" lon="4.8221">
        <ele>116.098236</ele>
        <time>2021-07-19T07:26:44Z</time>
      </trkpt>
      <trkpt lat="45.49561" lon="4.82206">
        <ele>116.27263</ele>
        <time>2021-07-19T07:26:45Z</time>
      </trkpt>
      <trkpt lat="45.49555" lon="4.82202">
        <ele>116.129944</ele>
        <time>2021-07-19T07:26:46Z</time>
      </trkpt>
      <trkpt lat="45.49549" lon="4.82199">
        <ele>115.95027</ele>
        <time>2021-07-19T07:26:47Z</time>
      </trkpt>
      <trkpt lat="45.49543" lon="4.82195">
        <ele>115.82872</ele>
        <time>2021-07-19T07:26:48Z</time>
      </trkpt>
      <trkpt lat="45.49537" lon="4.82191">
        <ele>115.72303</ele>
        <time>2021-07-19T07:26:49Z</time>
      </trkpt>
      <trkpt lat="45.49531" lon="4.82187">
        <ele>115.738884</ele>
        <time>2021-07-19T07:26:50Z</time>
      </trkpt>
      <trkpt lat="45.49526" lon="4.82182">
        <ele>115.67018</ele>
        <time>2021-07-19T07:26:51Z</time>
      </trkpt>
      <trkpt lat="45.4952" lon="4.82177">
        <ele>115.453514</ele>
        <time>2021-07-19T07:26:52Z</time>
      </trkpt>
      <trkpt lat="45.49515" lon="4.82172">
        <ele>115.3901</ele>
        <time>2021-07-19T07:26:53Z</time>
      </trkpt>
      <trkpt lat="45.49509" lon="4.82167">
        <ele>115.52222</ele>
        <time>2021-07-19T07:26:54Z</time>
      </trkpt>
      <trkpt lat="45.49503" lon="4.82164">
        <ele>115.83401</ele>
        <time>2021-07-19T07:26:55Z</time>
      </trkpt>
      <trkpt lat="45.49498" lon="4.8216">
        <ele>116.04539</ele>
        <time>2021-07-19T07:26:56Z</time>
      </trkpt>
      <trkpt lat="45.49492" lon="4.82156">
        <ele>115.95555</ele>
        <time>2021-07-19T07:26:57Z</time>
      </trkpt>
      <trkpt lat="45.49486" lon="4.82153">
        <ele>115.98198</ele>
        <time>2021-07-19T07:26:58Z</time>
      </trkpt>
      <trkpt lat="45.4948" lon="4.8215">
        <ele>115.92385</ele>
        <time>2021-07-19T07:26:59Z</time>
      </trkpt>
      <trkpt lat="45.49475" lon="4.82147">
        <ele>115.75474</ele>
        <time>2021-07-19T07:27:00Z</time>
      </trkpt>
      <trkpt lat="45.49469" lon="4.82144">
        <ele>115.51693</ele>
        <time>2021-07-19T07:27:01Z</time>
      </trkpt>
      <trkpt lat="45.49463" lon="4.82141">
        <ele>115.342545</ele>
        <time>2021-07-19T07:27:02Z</time>
      </trkpt>
      <trkpt lat="45.49457" lon="4.82137">
        <ele>115.168144</ele>
        <time>2021-07-19T07:27:03Z</time>
      </trkpt>
      <trkpt lat="45.49451" lon="4.82134">
        <ele>115.25269</ele>
        <time>2021-07-19T07:27:04Z</time>
      </trkpt>
      <trkpt lat="45.49445" lon="4.82131">
        <ele>115.1153</ele>
        <time>2021-07-19T07:27:05Z</time>
      </trkpt>
      <trkpt lat="45.49439" lon="4.82127">
        <ele>115.01489</ele>
        <time>2021-07-19T07:27:06Z</time>
      </trkpt>
      <trkpt lat="45.49433" lon="4.82122">
        <ele>114.935616</ele>
        <time>2021-07-19T07:27:07Z</time>
      </trkpt>
      <trkpt lat="45.49428" lon="4.82117">
        <ele>115.194565</ele>
        <time>2021-07-19T07:27:08Z</time>
      </trkpt>
      <trkpt lat="45.49423" lon="4.82111">
        <ele>115.02017</ele>
        <time>2021-07-19T07:27:09Z</time>
      </trkpt>
      <trkpt lat="45.49418" lon="4.82106">
        <ele>114.81408</ele>
        <time>2021-07-19T07:27:10Z</time>
      </trkpt>
      <trkpt lat="45.49413" lon="4.82101">
        <ele>114.87221</ele>
        <time>2021-07-19T07:27:11Z</time>
      </trkpt>
      <trkpt lat="45.49409" lon="4.82095">
        <ele>114.84049</ele>
        <time>2021-07-19T07:27:12Z</time>
      </trkpt>
      <trkpt lat="45.49404" lon="4.8209">
        <ele>114.88277</ele>
        <time>2021-07-19T07:27:13Z</time>
      </trkpt>
      <trkpt lat="45.494" lon="4.82084">
        <ele>114.9779</ele>
        <time>2021-07-19T07:27:14Z</time>
      </trkpt>
      <trkpt lat="45.49395" lon="4.82078">
        <ele>114.99375</ele>
        <time>2021-07-19T07:27:15Z</time>
      </trkpt>
      <trkpt lat="45.49391" lon="4.82074">
        <ele>114.956764</ele>
        <time>2021-07-19T07:27:16Z</time>
      </trkpt>
      <trkpt lat="45.49386" lon="4.82069">
        <ele>114.70838</ele>
        <time>2021-07-19T07:27:17Z</time>
      </trkpt>
      <trkpt lat="45.49382" lon="4.82064">
        <ele>114.56041</ele>
        <time>2021-07-19T07:27:18Z</time>
      </trkpt>
      <trkpt lat="45.49377" lon="4.82059">
        <ele>114.3226</ele>
        <time>2021-07-19T07:27:19Z</time>
      </trkpt>
      <trkpt lat="45.49372" lon="4.82055">
        <ele>114.46</ele>
        <time>2021-07-19T07:27:20Z</time>
      </trkpt>
      <trkpt lat="45.49368" lon="4.8205">
        <ele>114.20634</ele>
        <time>2021-07-19T07:27:21Z</time>
      </trkpt>
      <trkpt lat="45.49363" lon="4.82046">
        <ele>114.16406</ele>
        <time>2021-07-19T07:27:22Z</time>
      </trkpt>
      <trkpt lat="45.49358" lon="4.82042">
        <ele>114.1852</ele>
        <time>2021-07-19T07:27:23Z</time>
      </trkpt>
      <trkpt lat="45.49353" lon="4.82038">
        <ele>114.23805</ele>
        <time>2021-07-19T07:27:24Z</time>
      </trkpt>
      <trkpt lat="45.49348" lon="4.82034">
        <ele>114.24333</ele>
        <time>2021-07-19T07:27:25Z</time>
      </trkpt>
      <trkpt lat="45.49344" lon="4.82029">
        <ele>114.211624</ele>
        <time>2021-07-19T07:27:26Z</time>
      </trkpt>
      <trkpt lat="45.4934" lon="4.82025">
        <ele>114.19048</ele>
        <time>2021-07-19T07:27:27Z</time>
      </trkpt>
      <trkpt lat="45.49336" lon="4.82021">
        <ele>114.232765</ele>
        <time>2021-07-19T07:27:28Z</time>
      </trkpt>
      <trkpt lat="45.49331" lon="4.82017">
        <ele>114.39659</ele>
        <time>2021-07-19T07:27:29Z</time>
      </trkpt>
      <trkpt lat="45.49327" lon="4.82012">
        <ele>114.34374</ele>
        <time>2021-07-19T07:27:30Z</time>
      </trkpt>
      <trkpt lat="45.49324" lon="4.82008">
        <ele>114.28032</ele>
        <time>2021-07-19T07:27:31Z</time>
      </trkpt>
      <trkpt lat="45.4932" lon="4.82004">
        <ele>114.21691</ele>
        <time>2021-07-19T07:27:32Z</time>
      </trkpt>
      <trkpt lat="45.49316" lon="4.82002">
        <ele>114.37016</ele>
        <time>2021-07-19T07:27:33Z</time>
      </trkpt>
      <trkpt lat="45.49313" lon="4.81998">
        <ele>114.47585</ele>
        <time>2021-07-19T07:27:34Z</time>
      </trkpt>
      <trkpt lat="45.4931" lon="4.81994">
        <ele>114.30675</ele>
        <time>2021-07-19T07:27:35Z</time>
      </trkpt>
      <trkpt lat="45.49307" lon="4.8199">
        <ele>114.26976</ele>
        <time>2021-07-19T07:27:36Z</time>
      </trkpt>
      <trkpt lat="45.49305" lon="4.81985">
        <ele>114.232765</ele>
        <time>2021-07-19T07:27:37Z</time>
      </trkpt>
      <trkpt lat="45.49303" lon="4.8198">
        <ele>114.11122</ele>
        <time>2021-07-19T07:27:38Z</time>
      </trkpt>
      <trkpt lat="45.493" lon="4.81976">
        <ele>114.1852</ele>
        <time>2021-07-19T07:27:39Z</time>
      </trkpt>
      <trkpt lat="45.49298" lon="4.8197">
        <ele>114.153496</ele>
        <time>2021-07-19T07:27:40Z</time>
      </trkpt>
      <trkpt lat="45.49296" lon="4.81965">
        <ele>114.14821</ele>
        <time>2021-07-19T07:27:41Z</time>
      </trkpt>
      <trkpt lat="45.49293" lon="4.8196">
        <ele>114.45472</ele>
        <time>2021-07-19T07:27:42Z</time>
      </trkpt>
      <trkpt lat="45.4929" lon="4.81955">
        <ele>114.285614</ele>
        <time>2021-07-19T07:27:43Z</time>
      </trkpt>
      <trkpt lat="45.49286" lon="4.8195">
        <ele>114.29089</ele>
        <time>2021-07-19T07:27:44Z</time>
      </trkpt>
      <trkpt lat="45.49282" lon="4.81946">
        <ele>114.30675</ele>
        <time>2021-07-19T07:27:45Z</time>
      </trkpt>
      <trkpt lat="45.49278" lon="4.81943">
        <ele>114.34902</ele>
        <time>2021-07-19T07:27:46Z</time>
      </trkpt>
      <trkpt lat="45.49274" lon="4.81939">
        <ele>114.34374</ele>
        <time>2021-07-19T07:27:47Z</time>
      </trkpt>
      <trkpt lat="45.4927" lon="4.81934">
        <ele>114.47585</ele>
        <time>2021-07-19T07:27:48Z</time>
      </trkpt>
      <trkpt lat="45.49266" lon="4.81929">
        <ele>114.37016</ele>
        <time>2021-07-19T07:27:49Z</time>
      </trkpt>
      <trkpt lat="45.49263" lon="4.81924">
        <ele>114.4283</ele>
        <time>2021-07-19T07:27:50Z</time>
      </trkpt>
      <trkpt lat="45.49259" lon="4.81918">
        <ele>114.644966</ele>
        <time>2021-07-19T07:27:51Z</time>
      </trkpt>
      <trkpt lat="45.49255" lon="4.81914">
        <ele>114.66082</ele>
        <time>2021-07-19T07:27:52Z</time>
      </trkpt>
      <trkpt lat="45.4925" lon="4.81909">
        <ele>114.84049</ele>
        <time>2021-07-19T07:27:53Z</time>
      </trkpt>
      <trkpt lat="45.49245" lon="4.81905">
        <ele>114.72423</ele>
        <time>2021-07-19T07:27:54Z</time>
      </trkpt>
      <trkpt lat="45.4924" lon="4.819">
        <ele>114.703094</ele>
        <time>2021-07-19T07:27:55Z</time>
      </trkpt>
      <trkpt lat="45.49234" lon="4.81896">
        <ele>114.79293</ele>
        <time>2021-07-19T07:27:56Z</time>
      </trkpt>
      <trkpt lat="45.49229" lon="4.81891">
        <ele>114.803505</ele>
        <time>2021-07-19T07:27:57Z</time>
      </trkpt>
      <trkpt lat="45.49224" lon="4.81887">
        <ele>114.67139</ele>
        <time>2021-07-19T07:27:58Z</time>
      </trkpt>
      <trkpt lat="45.49219" lon="4.81883">
        <ele>114.623825</ele>
        <time>2021-07-19T07:27:59Z</time>
      </trkpt>
      <trkpt lat="45.49214" lon="4.81879">
        <ele>114.67139</ele>
        <time>2021-07-19T07:28:00Z</time>
      </trkpt>
      <trkpt lat="45.49208" lon="4.81874">
        <ele>114.77708</ele>
        <time>2021-07-19T07:28:01Z</time>
      </trkpt>
      <trkpt lat="45.49203" lon="4.8187">
        <ele>114.829926</ele>
        <time>2021-07-19T07:28:02Z</time>
      </trkpt>
      <trkpt lat="45.49198" lon="4.81865">
        <ele>114.77708</ele>
        <time>2021-07-19T07:28:03Z</time>
      </trkpt>
      <trkpt lat="45.49192" lon="4.81862">
        <ele>114.72952</ele>
        <time>2021-07-19T07:28:04Z</time>
      </trkpt>
      <trkpt lat="45.49186" lon="4.81857">
        <ele>114.60269</ele>
        <time>2021-07-19T07:28:05Z</time>
      </trkpt>
      <trkpt lat="45.49181" lon="4.81853">
        <ele>114.6661</ele>
        <time>2021-07-19T07:28:06Z</time>
      </trkpt>
      <trkpt lat="45.49176" lon="4.81849">
        <ele>114.74538</ele>
        <time>2021-07-19T07:28:07Z</time>
      </trkpt>
      <trkpt lat="45.49171" lon="4.81845">
        <ele>114.88806</ele>
        <time>2021-07-19T07:28:08Z</time>
      </trkpt>
      <trkpt lat="45.49166" lon="4.81842">
        <ele>115.02546</ele>
        <time>2021-07-19T07:28:09Z</time>
      </trkpt>
      <trkpt lat="45.4916" lon="4.81839">
        <ele>115.13116</ele>
        <time>2021-07-19T07:28:10Z</time>
      </trkpt>
      <trkpt lat="45.49155" lon="4.81837">
        <ele>114.9779</ele>
        <time>2021-07-19T07:28:11Z</time>
      </trkpt>
      <trkpt lat="45.49149" lon="4.81835">
        <ele>115.00432</ele>
        <time>2021-07-19T07:28:12Z</time>
      </trkpt>
      <trkpt lat="45.49143" lon="4.81832">
        <ele>115.199844</ele>
        <time>2021-07-19T07:28:13Z</time>
      </trkpt>
      <trkpt lat="45.49138" lon="4.81829">
        <ele>115.30026</ele>
        <time>2021-07-19T07:28:14Z</time>
      </trkpt>
      <trkpt lat="45.49133" lon="4.81826">
        <ele>115.786446</ele>
        <time>2021-07-19T07:28:15Z</time>
      </trkpt>
      <trkpt lat="45.49127" lon="4.81824">
        <ele>115.321396</ele>
        <time>2021-07-19T07:28:16Z</time>
      </trkpt>
      <trkpt lat="45.49122" lon="4.81821">
        <ele>115.094154</ele>
        <time>2021-07-19T07:28:17Z</time>
      </trkpt>
      <trkpt lat="45.49116" lon="4.81819">
        <ele>115.02546</ele>
        <time>2021-07-19T07:28:18Z</time>
      </trkpt>
      <trkpt lat="45.4911" lon="4.81816">
        <ele>114.99904</ele>
        <time>2021-07-19T07:28:19Z</time>
      </trkpt>
      <trkpt lat="45.49105" lon="4.81814">
        <ele>115.141716</ele>
        <time>2021-07-19T07:28:20Z</time>
      </trkpt>
      <trkpt lat="45.49099" lon="4.81811">
        <ele>115.05717</ele>
        <time>2021-07-19T07:28:21Z</time>
      </trkpt>
      <trkpt lat="45.49093" lon="4.81807">
        <ele>115.01489</ele>
        <time>2021-07-19T07:28:22Z</time>
      </trkpt>
      <trkpt lat="45.49087" lon="4.81803">
        <ele>115.02546</ele>
        <time>2021-07-19T07:28:23Z</time>
      </trkpt>
      <trkpt lat="45.49081" lon="4.818">
        <ele>114.988464</ele>
        <time>2021-07-19T07:28:24Z</time>
      </trkpt>
      <trkpt lat="45.49075" lon="4.81795">
        <ele>114.99375</ele>
        <time>2021-07-19T07:28:25Z</time>
      </trkpt>
      <trkpt lat="45.49069" lon="4.81791">
        <ele>115.13644</ele>
        <time>2021-07-19T07:28:26Z</time>
      </trkpt>
      <trkpt lat="45.49063" lon="4.81788">
        <ele>115.26327</ele>
        <time>2021-07-19T07:28:27Z</time>
      </trkpt>
      <trkpt lat="45.49058" lon="4.81784">
        <ele>115.10473</ele>
        <time>2021-07-19T07:28:28Z</time>
      </trkpt>
      <trkpt lat="45.49053" lon="4.8178">
        <ele>114.98318</ele>
        <time>2021-07-19T07:28:29Z</time>
      </trkpt>
      <trkpt lat="45.49048" lon="4.81776">
        <ele>115.036026</ele>
        <time>2021-07-19T07:28:30Z</time>
      </trkpt>
      <trkpt lat="45.49043" lon="4.81771">
        <ele>114.88806</ele>
        <time>2021-07-19T07:28:31Z</time>
      </trkpt>
      <trkpt lat="45.49038" lon="4.81766">
        <ele>114.85107</ele>
        <time>2021-07-19T07:28:32Z</time>
      </trkpt>
      <trkpt lat="45.49033" lon="4.81762">
        <ele>114.92505</ele>
        <time>2021-07-19T07:28:33Z</time>
      </trkpt>
      <trkpt lat="45.49028" lon="4.81758">
        <ele>114.70838</ele>
        <time>2021-07-19T07:28:34Z</time>
      </trkpt>
      <trkpt lat="45.49023" lon="4.81754">
        <ele>114.74538</ele>
        <time>2021-07-19T07:28:35Z</time>
      </trkpt>
      <trkpt lat="45.49018" lon="4.8175">
        <ele>114.83521</ele>
        <time>2021-07-19T07:28:36Z</time>
      </trkpt>
      <trkpt lat="45.49013" lon="4.81746">
        <ele>114.808784</ele>
        <time>2021-07-19T07:28:37Z</time>
      </trkpt>
      <trkpt lat="45.49008" lon="4.81742">
        <ele>115.01489</ele>
        <time>2021-07-19T07:28:38Z</time>
      </trkpt>
      <trkpt lat="45.49003" lon="4.81738">
        <ele>115.16286</ele>
        <time>2021-07-19T07:28:39Z</time>
      </trkpt>
      <trkpt lat="45.48998" lon="4.81735">
        <ele>115.25269</ele>
        <time>2021-07-19T07:28:40Z</time>
      </trkpt>
      <trkpt lat="45.48993" lon="4.81732">
        <ele>115.35838</ele>
        <time>2021-07-19T07:28:41Z</time>
      </trkpt>
      <trkpt lat="45.48988" lon="4.81728">
        <ele>115.50636</ele>
        <time>2021-07-19T07:28:42Z</time>
      </trkpt>
      <trkpt lat="45.48984" lon="4.81724">
        <ele>115.65433</ele>
        <time>2021-07-19T07:28:43Z</time>
      </trkpt>
      <trkpt lat="45.48979" lon="4.8172">
        <ele>115.89214</ele>
        <time>2021-07-19T07:28:44Z</time>
      </trkpt>
      <trkpt lat="45.48974" lon="4.81716">
        <ele>116.08239</ele>
        <time>2021-07-19T07:28:45Z</time>
      </trkpt>
      <trkpt lat="45.48968" lon="4.81712">
        <ele>116.17751</ele>
        <time>2021-07-19T07:28:46Z</time>
      </trkpt>
      <trkpt lat="45.48963" lon="4.81707">
        <ele>116.03483</ele>
        <time>2021-07-19T07:28:47Z</time>
      </trkpt>
      <trkpt lat="45.48958" lon="4.81702">
        <ele>116.119385</ele>
        <time>2021-07-19T07:28:48Z</time>
      </trkpt>
      <trkpt lat="45.48953" lon="4.81696">
        <ele>116.10353</ele>
        <time>2021-07-19T07:28:49Z</time>
      </trkpt>
      <trkpt lat="45.48948" lon="4.81691">
        <ele>116.02954</ele>
        <time>2021-07-19T07:28:50Z</time>
      </trkpt>
      <trkpt lat="45.48943" lon="4.81686">
        <ele>115.860435</ele>
        <time>2021-07-19T07:28:51Z</time>
      </trkpt>
      <trkpt lat="45.48938" lon="4.8168">
        <ele>115.760025</ele>
        <time>2021-07-19T07:28:52Z</time>
      </trkpt>
      <trkpt lat="45.48933" lon="4.81674">
        <ele>115.49051</ele>
        <time>2021-07-19T07:28:53Z</time>
      </trkpt>
      <trkpt lat="45.48927" lon="4.81669">
        <ele>115.53278</ele>
        <time>2021-07-19T07:28:54Z</time>
      </trkpt>
      <trkpt lat="45.48922" lon="4.81663">
        <ele>115.48522</ele>
        <time>2021-07-19T07:28:55Z</time>
      </trkpt>
      <trkpt lat="45.48918" lon="4.81657">
        <ele>115.448235</ele>
        <time>2021-07-19T07:28:56Z</time>
      </trkpt>
      <trkpt lat="45.48912" lon="4.81652">
        <ele>115.43238</ele>
        <time>2021-07-19T07:28:57Z</time>
      </trkpt>
      <trkpt lat="45.48908" lon="4.81647">
        <ele>115.448235</ele>
        <time>2021-07-19T07:28:58Z</time>
      </trkpt>
      <trkpt lat="45.48902" lon="4.81641">
        <ele>115.62791</ele>
        <time>2021-07-19T07:28:59Z</time>
      </trkpt>
      <trkpt lat="45.48897" lon="4.81636">
        <ele>115.71775</ele>
        <time>2021-07-19T07:29:00Z</time>
      </trkpt>
      <trkpt lat="45.48891" lon="4.81631">
        <ele>115.72303</ele>
        <time>2021-07-19T07:29:01Z</time>
      </trkpt>
      <trkpt lat="45.48886" lon="4.81625">
        <ele>115.77588</ele>
        <time>2021-07-19T07:29:02Z</time>
      </trkpt>
      <trkpt lat="45.48881" lon="4.8162">
        <ele>115.79701</ele>
        <time>2021-07-19T07:29:03Z</time>
      </trkpt>
      <trkpt lat="45.48875" lon="4.81615">
        <ele>116.018974</ele>
        <time>2021-07-19T07:29:04Z</time>
      </trkpt>
      <trkpt lat="45.4887" lon="4.81609">
        <ele>115.84986</ele>
        <time>2021-07-19T07:29:05Z</time>
      </trkpt>
      <trkpt lat="45.48865" lon="4.81604">
        <ele>115.89214</ele>
        <time>2021-07-19T07:29:06Z</time>
      </trkpt>
      <trkpt lat="45.48859" lon="4.81599">
        <ele>115.92385</ele>
        <time>2021-07-19T07:29:07Z</time>
      </trkpt>
      <trkpt lat="45.48854" lon="4.81595">
        <ele>115.92385</ele>
        <time>2021-07-19T07:29:08Z</time>
      </trkpt>
      <trkpt lat="45.48849" lon="4.8159">
        <ele>115.95555</ele>
        <time>2021-07-19T07:29:09Z</time>
      </trkpt>
      <trkpt lat="45.48843" lon="4.81585">
        <ele>115.60677</ele>
        <time>2021-07-19T07:29:10Z</time>
      </trkpt>
      <trkpt lat="45.48838" lon="4.8158">
        <ele>115.71775</ele>
        <time>2021-07-19T07:29:11Z</time>
      </trkpt>
      <trkpt lat="45.48833" lon="4.81575">
        <ele>115.89742</ele>
        <time>2021-07-19T07:29:12Z</time>
      </trkpt>
      <trkpt lat="45.48827" lon="4.8157">
        <ele>115.93442</ele>
        <time>2021-07-19T07:29:13Z</time>
      </trkpt>
      <trkpt lat="45.48823" lon="4.81564">
        <ele>115.82872</ele>
        <time>2021-07-19T07:29:14Z</time>
      </trkpt>
      <trkpt lat="45.48817" lon="4.81558">
        <ele>116.08767</ele>
        <time>2021-07-19T07:29:15Z</time>
      </trkpt>
      <trkpt lat="45.48813" lon="4.81552">
        <ele>116.10881</ele>
        <time>2021-07-19T07:29:16Z</time>
      </trkpt>
      <trkpt lat="45.48807" lon="4.81547">
        <ele>115.9027</ele>
        <time>2021-07-19T07:29:17Z</time>
      </trkpt>
      <trkpt lat="45.48801" lon="4.81542">
        <ele>115.918564</ele>
        <time>2021-07-19T07:29:18Z</time>
      </trkpt>
      <trkpt lat="45.48796" lon="4.81537">
        <ele>115.918564</ele>
        <time>2021-07-19T07:29:19Z</time>
      </trkpt>
      <trkpt lat="45.4879" lon="4.81532">
        <ele>115.74416</ele>
        <time>2021-07-19T07:29:20Z</time>
      </trkpt>
      <trkpt lat="45.48785" lon="4.81527">
        <ele>116.04539</ele>
        <time>2021-07-19T07:29:21Z</time>
      </trkpt>
      <trkpt lat="45.48779" lon="4.81522">
        <ele>116.42061</ele>
        <time>2021-07-19T07:29:22Z</time>
      </trkpt>
      <trkpt lat="45.48774" lon="4.81519">
        <ele>115.865715</ele>
        <time>2021-07-19T07:29:23Z</time>
      </trkpt>
      <trkpt lat="45.48768" lon="4.81516">
        <ele>115.59092</ele>
        <time>2021-07-19T07:29:24Z</time>
      </trkpt>
      <trkpt lat="45.48763" lon="4.81513">
        <ele>115.686035</ele>
        <time>2021-07-19T07:29:25Z</time>
      </trkpt>
      <trkpt lat="45.48758" lon="4.8151">
        <ele>115.35838</ele>
        <time>2021-07-19T07:29:26Z</time>
      </trkpt>
      <trkpt lat="45.48752" lon="4.81507">
        <ele>115.31612</ele>
        <time>2021-07-19T07:29:27Z</time>
      </trkpt>
      <trkpt lat="45.48746" lon="4.81505">
        <ele>115.33197</ele>
        <time>2021-07-19T07:29:28Z</time>
      </trkpt>
      <trkpt lat="45.4874" lon="4.81503">
        <ele>115.33197</ele>
        <time>2021-07-19T07:29:29Z</time>
      </trkpt>
      <trkpt lat="45.48734" lon="4.81501">
        <ele>115.27912</ele>
        <time>2021-07-19T07:29:30Z</time>
      </trkpt>
      <trkpt lat="45.48729" lon="4.81499">
        <ele>115.2844</ele>
        <time>2021-07-19T07:29:31Z</time>
      </trkpt>
      <trkpt lat="45.48723" lon="4.81496">
        <ele>115.06773</ele>
        <time>2021-07-19T07:29:32Z</time>
      </trkpt>
      <trkpt lat="45.48717" lon="4.81492">
        <ele>114.97262</ele>
        <time>2021-07-19T07:29:33Z</time>
      </trkpt>
      <trkpt lat="45.48711" lon="4.81488">
        <ele>114.98318</ele>
        <time>2021-07-19T07:29:34Z</time>
      </trkpt>
      <trkpt lat="45.48706" lon="4.81484">
        <ele>115.11001</ele>
        <time>2021-07-19T07:29:35Z</time>
      </trkpt>
      <trkpt lat="45.487" lon="4.81479">
        <ele>114.9779</ele>
        <time>2021-07-19T07:29:36Z</time>
      </trkpt>
      <trkpt lat="45.48696" lon="4.81474">
        <ele>114.58154</ele>
        <time>2021-07-19T07:29:37Z</time>
      </trkpt>
      <trkpt lat="45.48693" lon="4.81467">
        <ele>114.84049</ele>
        <time>2021-07-19T07:29:38Z</time>
      </trkpt>
      <trkpt lat="45.48689" lon="4.81459">
        <ele>114.91977</ele>
        <time>2021-07-19T07:29:39Z</time>
      </trkpt>
      <trkpt lat="45.48685" lon="4.81451">
        <ele>114.808784</ele>
        <time>2021-07-19T07:29:40Z</time>
      </trkpt>
      <trkpt lat="45.48681" lon="4.81443">
        <ele>114.81408</ele>
        <time>2021-07-19T07:29:41Z</time>
      </trkpt>
      <trkpt lat="45.48677" lon="4.81436">
        <ele>114.94619</ele>
        <time>2021-07-19T07:29:42Z</time>
      </trkpt>
      <trkpt lat="45.48673" lon="4.81429">
        <ele>114.909195</ele>
        <time>2021-07-19T07:29:43Z</time>
      </trkpt>
      <trkpt lat="45.48669" lon="4.81422">
        <ele>114.909195</ele>
        <time>2021-07-19T07:29:44Z</time>
      </trkpt>
      <trkpt lat="45.48666" lon="4.81415">
        <ele>114.99904</ele>
        <time>2021-07-19T07:29:45Z</time>
      </trkpt>
      <trkpt lat="45.48663" lon="4.81408">
        <ele>114.9779</ele>
        <time>2021-07-19T07:29:46Z</time>
      </trkpt>
      <trkpt lat="45.4866" lon="4.81401">
        <ele>115.07831</ele>
        <time>2021-07-19T07:29:47Z</time>
      </trkpt>
      <trkpt lat="45.48657" lon="4.81394">
        <ele>114.87749</ele>
        <time>2021-07-19T07:29:48Z</time>
      </trkpt>
      <trkpt lat="45.48654" lon="4.81388">
        <ele>114.9779</ele>
        <time>2021-07-19T07:29:49Z</time>
      </trkpt>
      <trkpt lat="45.48651" lon="4.81381">
        <ele>115.01489</ele>
        <time>2021-07-19T07:29:50Z</time>
      </trkpt>
      <trkpt lat="45.48647" lon="4.81375">
        <ele>115.05717</ele>
        <time>2021-07-19T07:29:51Z</time>
      </trkpt>
      <trkpt lat="45.48644" lon="4.81368">
        <ele>115.13116</ele>
        <time>2021-07-19T07:29:52Z</time>
      </trkpt>
      <trkpt lat="45.48641" lon="4.81361">
        <ele>115.09945</ele>
        <time>2021-07-19T07:29:53Z</time>
      </trkpt>
      <trkpt lat="45.48637" lon="4.81354">
        <ele>115.30554</ele>
        <time>2021-07-19T07:29:54Z</time>
      </trkpt>
      <trkpt lat="45.48634" lon="4.81347">
        <ele>115.427086</ele>
        <time>2021-07-19T07:29:55Z</time>
      </trkpt>
      <trkpt lat="45.48631" lon="4.8134">
        <ele>115.633194</ele>
        <time>2021-07-19T07:29:56Z</time>
      </trkpt>
      <trkpt lat="45.48628" lon="4.81333">
        <ele>115.453514</ele>
        <time>2021-07-19T07:29:57Z</time>
      </trkpt>
      <trkpt lat="45.48625" lon="4.81326">
        <ele>115.48522</ele>
        <time>2021-07-19T07:29:58Z</time>
      </trkpt>
      <trkpt lat="45.48621" lon="4.81318">
        <ele>115.40067</ele>
        <time>2021-07-19T07:29:59Z</time>
      </trkpt>
      <trkpt lat="45.48618" lon="4.81311">
        <ele>115.427086</ele>
        <time>2021-07-19T07:30:00Z</time>
      </trkpt>
      <trkpt lat="45.48615" lon="4.81305">
        <ele>115.56449</ele>
        <time>2021-07-19T07:30:01Z</time>
      </trkpt>
      <trkpt lat="45.48612" lon="4.81298">
        <ele>115.36896</ele>
        <time>2021-07-19T07:30:02Z</time>
      </trkpt>
      <trkpt lat="45.48609" lon="4.81291">
        <ele>115.25799</ele>
        <time>2021-07-19T07:30:03Z</time>
      </trkpt>
      <trkpt lat="45.48606" lon="4.81284">
        <ele>115.31612</ele>
        <time>2021-07-19T07:30:04Z</time>
      </trkpt>
      <trkpt lat="45.48602" lon="4.81277">
        <ele>115.41653</ele>
        <time>2021-07-19T07:30:05Z</time>
      </trkpt>
      <trkpt lat="45.48599" lon="4.81271">
        <ele>115.70718</ele>
        <time>2021-07-19T07:30:06Z</time>
      </trkpt>
      <trkpt lat="45.48596" lon="4.81265">
        <ele>115.7019</ele>
        <time>2021-07-19T07:30:07Z</time>
      </trkpt>
      <trkpt lat="45.48593" lon="4.81259">
        <ele>115.92913</ele>
        <time>2021-07-19T07:30:08Z</time>
      </trkpt>
      <trkpt lat="45.48592" lon="4.81251">
        <ele>115.79173</ele>
        <time>2021-07-19T07:30:09Z</time>
      </trkpt>
      <trkpt lat="45.48594" lon="4.81244">
        <ele>115.51693</ele>
        <time>2021-07-19T07:30:10Z</time>
      </trkpt>
      <trkpt lat="45.48598" lon="4.81237">
        <ele>115.189285</ele>
        <time>2021-07-19T07:30:11Z</time>
      </trkpt>
      <trkpt lat="45.48603" lon="4.81231">
        <ele>115.062454</ele>
        <time>2021-07-19T07:30:12Z</time>
      </trkpt>
      <trkpt lat="45.48608" lon="4.81226">
        <ele>115.094154</ele>
        <time>2021-07-19T07:30:13Z</time>
      </trkpt>
      <trkpt lat="45.48613" lon="4.8122">
        <ele>114.86163</ele>
        <time>2021-07-19T07:30:14Z</time>
      </trkpt>
      <trkpt lat="45.48619" lon="4.81215">
        <ele>114.930336</ele>
        <time>2021-07-19T07:30:15Z</time>
      </trkpt>
      <trkpt lat="45.48624" lon="4.81211">
        <ele>114.70838</ele>
        <time>2021-07-19T07:30:16Z</time>
      </trkpt>
      <trkpt lat="45.48629" lon="4.81207">
        <ele>114.71895</ele>
        <time>2021-07-19T07:30:17Z</time>
      </trkpt>
      <trkpt lat="45.48633" lon="4.81203">
        <ele>114.78765</ele>
        <time>2021-07-19T07:30:18Z</time>
      </trkpt>
      <trkpt lat="45.48638" lon="4.81198">
        <ele>114.782364</ele>
        <time>2021-07-19T07:30:19Z</time>
      </trkpt>
      <trkpt lat="45.48642" lon="4.81193">
        <ele>114.88806</ele>
        <time>2021-07-19T07:30:20Z</time>
      </trkpt>
      <trkpt lat="45.48647" lon="4.81189">
        <ele>115.041306</ele>
        <time>2021-07-19T07:30:21Z</time>
      </trkpt>
      <trkpt lat="45.48652" lon="4.81184">
        <ele>115.13116</ele>
        <time>2021-07-19T07:30:22Z</time>
      </trkpt>
      <trkpt lat="45.48656" lon="4.8118">
        <ele>115.30026</ele>
        <time>2021-07-19T07:30:23Z</time>
      </trkpt>
      <trkpt lat="45.4866" lon="4.81176">
        <ele>115.395386</ele>
        <time>2021-07-19T07:30:24Z</time>
      </trkpt>
      <trkpt lat="45.48665" lon="4.81172">
        <ele>114.29089</ele>
        <time>2021-07-19T07:30:25Z</time>
      </trkpt>
      <trkpt lat="45.48668" lon="4.81168">
        <ele>115.24741</ele>
        <time>2021-07-19T07:30:26Z</time>
      </trkpt>
      <trkpt lat="45.48672" lon="4.81163">
        <ele>115.49051</ele>
        <time>2021-07-19T07:30:27Z</time>
      </trkpt>
      <trkpt lat="45.48675" lon="4.8116">
        <ele>115.580345</ele>
        <time>2021-07-19T07:30:28Z</time>
      </trkpt>
      <trkpt lat="45.48679" lon="4.81156">
        <ele>115.686035</ele>
        <time>2021-07-19T07:30:29Z</time>
      </trkpt>
      <trkpt lat="45.48681" lon="4.81151">
        <ele>115.81816</ele>
        <time>2021-07-19T07:30:30Z</time>
      </trkpt>
      <trkpt lat="45.48682" lon="4.81147">
        <ele>115.98198</ele>
        <time>2021-07-19T07:30:31Z</time>
      </trkpt>
      <trkpt lat="45.48681" lon="4.81142">
        <ele>116.04539</ele>
        <time>2021-07-19T07:30:32Z</time>
      </trkpt>
      <trkpt lat="45.4868" lon="4.81138">
        <ele>115.95027</ele>
        <time>2021-07-19T07:30:33Z</time>
      </trkpt>
      <trkpt lat="45.48679" lon="4.81134">
        <ele>115.64377</ele>
        <time>2021-07-19T07:30:34Z</time>
      </trkpt>
      <trkpt lat="45.48677" lon="4.81128">
        <ele>115.38481</ele>
        <time>2021-07-19T07:30:35Z</time>
      </trkpt>
      <trkpt lat="45.48675" lon="4.81123">
        <ele>115.81287</ele>
        <time>2021-07-19T07:30:36Z</time>
      </trkpt>
      <trkpt lat="45.48672" lon="4.81116">
        <ele>115.74416</ele>
        <time>2021-07-19T07:30:37Z</time>
      </trkpt>
      <trkpt lat="45.48669" lon="4.8111">
        <ele>115.575066</ele>
        <time>2021-07-19T07:30:38Z</time>
      </trkpt>
      <trkpt lat="45.48666" lon="4.81104">
        <ele>115.6649</ele>
        <time>2021-07-19T07:30:39Z</time>
      </trkpt>
      <trkpt lat="45.48663" lon="4.81097">
        <ele>115.98726</ele>
        <time>2021-07-19T07:30:40Z</time>
      </trkpt>
      <trkpt lat="45.48659" lon="4.81091">
        <ele>116.00312</ele>
        <time>2021-07-19T07:30:41Z</time>
      </trkpt>
      <trkpt lat="45.48657" lon="4.81085">
        <ele>115.92385</ele>
        <time>2021-07-19T07:30:42Z</time>
      </trkpt>
      <trkpt lat="45.48653" lon="4.81079">
        <ele>115.786446</ele>
        <time>2021-07-19T07:30:43Z</time>
      </trkpt>
      <trkpt lat="45.4865" lon="4.81072">
        <ele>115.67018</ele>
        <time>2021-07-19T07:30:44Z</time>
      </trkpt>
      <trkpt lat="45.48647" lon="4.81066">
        <ele>115.585625</ele>
        <time>2021-07-19T07:30:45Z</time>
      </trkpt>
      <trkpt lat="45.48644" lon="4.81059">
        <ele>115.22627</ele>
        <time>2021-07-19T07:30:46Z</time>
      </trkpt>
      <trkpt lat="45.4864" lon="4.81053">
        <ele>115.27912</ele>
        <time>2021-07-19T07:30:47Z</time>
      </trkpt>
      <trkpt lat="45.48637" lon="4.81045">
        <ele>115.31612</ele>
        <time>2021-07-19T07:30:48Z</time>
      </trkpt>
      <trkpt lat="45.48635" lon="4.81039">
        <ele>115.479935</ele>
        <time>2021-07-19T07:30:49Z</time>
      </trkpt>
      <trkpt lat="45.48633" lon="4.81032">
        <ele>115.38481</ele>
        <time>2021-07-19T07:30:50Z</time>
      </trkpt>
      <trkpt lat="45.48632" lon="4.81025">
        <ele>115.6649</ele>
        <time>2021-07-19T07:30:51Z</time>
      </trkpt>
      <trkpt lat="45.48631" lon="4.81018">
        <ele>115.59092</ele>
        <time>2021-07-19T07:30:52Z</time>
      </trkpt>
      <trkpt lat="45.48631" lon="4.81011">
        <ele>115.77059</ele>
        <time>2021-07-19T07:30:53Z</time>
      </trkpt>
      <trkpt lat="45.48631" lon="4.81003">
        <ele>115.78116</ele>
        <time>2021-07-19T07:30:54Z</time>
      </trkpt>
      <trkpt lat="45.48632" lon="4.80994">
        <ele>115.61734</ele>
        <time>2021-07-19T07:30:55Z</time>
      </trkpt>
      <trkpt lat="45.48632" lon="4.80987">
        <ele>115.960846</ele>
        <time>2021-07-19T07:30:56Z</time>
      </trkpt>
      <trkpt lat="45.48634" lon="4.80981">
        <ele>116.05596</ele>
        <time>2021-07-19T07:30:57Z</time>
      </trkpt>
      <trkpt lat="45.48635" lon="4.80974">
        <ele>116.2832</ele>
        <time>2021-07-19T07:30:58Z</time>
      </trkpt>
      <trkpt lat="45.48636" lon="4.80968">
        <ele>116.616135</ele>
        <time>2021-07-19T07:30:59Z</time>
      </trkpt>
      <trkpt lat="45.48636" lon="4.8096">
        <ele>116.42061</ele>
        <time>2021-07-19T07:31:00Z</time>
      </trkpt>
      <trkpt lat="45.48636" lon="4.80953">
        <ele>116.510445</ele>
        <time>2021-07-19T07:31:01Z</time>
      </trkpt>
      <trkpt lat="45.48637" lon="4.80947">
        <ele>116.54215</ele>
        <time>2021-07-19T07:31:02Z</time>
      </trkpt>
      <trkpt lat="45.48638" lon="4.80942">
        <ele>116.72711</ele>
        <time>2021-07-19T07:31:03Z</time>
      </trkpt>
      <trkpt lat="45.48638" lon="4.80938">
        <ele>116.80639</ele>
        <time>2021-07-19T07:31:04Z</time>
      </trkpt>
      <trkpt lat="45.48639" lon="4.80935">
        <ele>116.97021</ele>
        <time>2021-07-19T07:31:05Z</time>
      </trkpt>
      <trkpt lat="45.48639" lon="4.8093">
        <ele>117.04947</ele>
        <time>2021-07-19T07:31:06Z</time>
      </trkpt>
      <trkpt lat="45.4864" lon="4.80925">
        <ele>116.60028</ele>
        <time>2021-07-19T07:31:07Z</time>
      </trkpt>
      <trkpt lat="45.4864" lon="4.80919">
        <ele>116.642555</ele>
        <time>2021-07-19T07:31:08Z</time>
      </trkpt>
      <trkpt lat="45.48641" lon="4.80913">
        <ele>116.71126</ele>
        <time>2021-07-19T07:31:09Z</time>
      </trkpt>
      <trkpt lat="45.48642" lon="4.80907">
        <ele>116.27792</ele>
        <time>2021-07-19T07:31:10Z</time>
      </trkpt>
      <trkpt lat="45.48644" lon="4.80901">
        <ele>115.89214</ele>
        <time>2021-07-19T07:31:11Z</time>
      </trkpt>
      <trkpt lat="45.48645" lon="4.80893">
        <ele>115.633194</ele>
        <time>2021-07-19T07:31:12Z</time>
      </trkpt>
      <trkpt lat="45.48646" lon="4.80885">
        <ele>115.89742</ele>
        <time>2021-07-19T07:31:13Z</time>
      </trkpt>
      <trkpt lat="45.48646" lon="4.80878">
        <ele>115.580345</ele>
        <time>2021-07-19T07:31:14Z</time>
      </trkpt>
      <trkpt lat="45.48646" lon="4.80871">
        <ele>115.580345</ele>
        <time>2021-07-19T07:31:15Z</time>
      </trkpt>
      <trkpt lat="45.48647" lon="4.80864">
        <ele>115.23156</ele>
        <time>2021-07-19T07:31:16Z</time>
      </trkpt>
      <trkpt lat="45.48647" lon="4.80856">
        <ele>115.575066</ele>
        <time>2021-07-19T07:31:17Z</time>
      </trkpt>
      <trkpt lat="45.48647" lon="4.80849">
        <ele>115.50108</ele>
        <time>2021-07-19T07:31:18Z</time>
      </trkpt>
      <trkpt lat="45.48648" lon="4.80841">
        <ele>115.448235</ele>
        <time>2021-07-19T07:31:19Z</time>
      </trkpt>
      <trkpt lat="45.48649" lon="4.80834">
        <ele>115.43238</ele>
        <time>2021-07-19T07:31:20Z</time>
      </trkpt>
      <trkpt lat="45.4865" lon="4.80826">
        <ele>115.46937</ele>
        <time>2021-07-19T07:31:21Z</time>
      </trkpt>
      <trkpt lat="45.48651" lon="4.80819">
        <ele>115.32668</ele>
        <time>2021-07-19T07:31:22Z</time>
      </trkpt>
      <trkpt lat="45.48652" lon="4.80812">
        <ele>115.242134</ele>
        <time>2021-07-19T07:31:23Z</time>
      </trkpt>
      <trkpt lat="45.48653" lon="4.80804">
        <ele>115.2844</ele>
        <time>2021-07-19T07:31:24Z</time>
      </trkpt>
      <trkpt lat="45.48653" lon="4.80797">
        <ele>115.4588</ele>
        <time>2021-07-19T07:31:25Z</time>
      </trkpt>
      <trkpt lat="45.48653" lon="4.8079">
        <ele>115.64905</ele>
        <time>2021-07-19T07:31:26Z</time>
      </trkpt>
      <trkpt lat="45.48655" lon="4.80782">
        <ele>115.60148</ele>
        <time>2021-07-19T07:31:27Z</time>
      </trkpt>
      <trkpt lat="45.48655" lon="4.80774">
        <ele>115.82344</ele>
        <time>2021-07-19T07:31:28Z</time>
      </trkpt>
      <trkpt lat="45.48657" lon="4.80766">
        <ele>115.553925</ele>
        <time>2021-07-19T07:31:29Z</time>
      </trkpt>
      <trkpt lat="45.48657" lon="4.80757">
        <ele>115.33197</ele>
        <time>2021-07-19T07:31:30Z</time>
      </trkpt>
      <trkpt lat="45.48657" lon="4.80749">
        <ele>115.25269</ele>
        <time>2021-07-19T07:31:31Z</time>
      </trkpt>
      <trkpt lat="45.48656" lon="4.8074">
        <ele>115.05717</ele>
        <time>2021-07-19T07:31:32Z</time>
      </trkpt>
      <trkpt lat="45.48655" lon="4.80732">
        <ele>114.85635</ele>
        <time>2021-07-19T07:31:33Z</time>
      </trkpt>
      <trkpt lat="45.48655" lon="4.80724">
        <ele>115.184006</ele>
        <time>2021-07-19T07:31:34Z</time>
      </trkpt>
      <trkpt lat="45.48653" lon="4.80716">
        <ele>115.342545</ele>
        <time>2021-07-19T07:31:35Z</time>
      </trkpt>
      <trkpt lat="45.48652" lon="4.80707">
        <ele>115.448235</ele>
        <time>2021-07-19T07:31:36Z</time>
      </trkpt>
      <trkpt lat="45.4865" lon="4.80698">
        <ele>115.43766</ele>
        <time>2021-07-19T07:31:37Z</time>
      </trkpt>
      <trkpt lat="45.48649" lon="4.80688">
        <ele>115.23156</ele>
        <time>2021-07-19T07:31:38Z</time>
      </trkpt>
      <trkpt lat="45.48648" lon="4.80678">
        <ele>114.99904</ele>
        <time>2021-07-19T07:31:39Z</time>
      </trkpt>
      <trkpt lat="45.48646" lon="4.80669">
        <ele>114.91448</ele>
        <time>2021-07-19T07:31:40Z</time>
      </trkpt>
      <trkpt lat="45.48644" lon="4.8066">
        <ele>114.903915</ele>
        <time>2021-07-19T07:31:41Z</time>
      </trkpt>
      <trkpt lat="45.48641" lon="4.80652">
        <ele>114.88277</ele>
        <time>2021-07-19T07:31:42Z</time>
      </trkpt>
      <trkpt lat="45.48638" lon="4.80643">
        <ele>114.74538</ele>
        <time>2021-07-19T07:31:43Z</time>
      </trkpt>
      <trkpt lat="45.48636" lon="4.80635">
        <ele>114.66082</ele>
        <time>2021-07-19T07:31:44Z</time>
      </trkpt>
      <trkpt lat="45.48633" lon="4.80626">
        <ele>114.44943</ele>
        <time>2021-07-19T07:31:45Z</time>
      </trkpt>
      <trkpt lat="45.4863" lon="4.80618">
        <ele>114.30146</ele>
        <time>2021-07-19T07:31:46Z</time>
      </trkpt>
      <trkpt lat="45.48627" lon="4.80609">
        <ele>114.51285</ele>
        <time>2021-07-19T07:31:47Z</time>
      </trkpt>
      <trkpt lat="45.48624" lon="4.80601">
        <ele>114.644966</ele>
        <time>2021-07-19T07:31:48Z</time>
      </trkpt>
      <trkpt lat="45.48622" lon="4.80592">
        <ele>114.29089</ele>
        <time>2021-07-19T07:31:49Z</time>
      </trkpt>
      <trkpt lat="45.48619" lon="4.80584">
        <ele>113.98967</ele>
        <time>2021-07-19T07:31:50Z</time>
      </trkpt>
      <trkpt lat="45.48616" lon="4.80576">
        <ele>113.93683</ele>
        <time>2021-07-19T07:31:51Z</time>
      </trkpt>
      <trkpt lat="45.48612" lon="4.80568">
        <ele>114.053085</ele>
        <time>2021-07-19T07:31:52Z</time>
      </trkpt>
      <trkpt lat="45.48609" lon="4.8056">
        <ele>113.94211</ele>
        <time>2021-07-19T07:31:53Z</time>
      </trkpt>
      <trkpt lat="45.48606" lon="4.80551">
        <ele>113.77829</ele>
        <time>2021-07-19T07:31:54Z</time>
      </trkpt>
      <trkpt lat="45.48603" lon="4.80543">
        <ele>113.76243</ele>
        <time>2021-07-19T07:31:55Z</time>
      </trkpt>
      <trkpt lat="45.486" lon="4.80534">
        <ele>113.85755</ele>
        <time>2021-07-19T07:31:56Z</time>
      </trkpt>
      <trkpt lat="45.48597" lon="4.80525">
        <ele>113.88398</ele>
        <time>2021-07-19T07:31:57Z</time>
      </trkpt>
      <trkpt lat="45.48595" lon="4.80517">
        <ele>113.60389</ele>
        <time>2021-07-19T07:31:58Z</time>
      </trkpt>
      <trkpt lat="45.48592" lon="4.80508">
        <ele>113.85227</ele>
        <time>2021-07-19T07:31:59Z</time>
      </trkpt>
      <trkpt lat="45.48589" lon="4.805">
        <ele>113.926254</ele>
        <time>2021-07-19T07:32:00Z</time>
      </trkpt>
      <trkpt lat="45.48586" lon="4.80492">
        <ele>113.63031</ele>
        <time>2021-07-19T07:32:01Z</time>
      </trkpt>
      <trkpt lat="45.48583" lon="4.80483">
        <ele>113.540474</ele>
        <time>2021-07-19T07:32:02Z</time>
      </trkpt>
      <trkpt lat="45.48579" lon="4.80475">
        <ele>113.72544</ele>
        <time>2021-07-19T07:32:03Z</time>
      </trkpt>
      <trkpt lat="45.48576" lon="4.80467">
        <ele>113.98438</ele>
        <time>2021-07-19T07:32:04Z</time>
      </trkpt>
      <trkpt lat="45.48573" lon="4.80459">
        <ele>113.979095</ele>
        <time>2021-07-19T07:32:05Z</time>
      </trkpt>
      <trkpt lat="45.48569" lon="4.80451">
        <ele>114.00552</ele>
        <time>2021-07-19T07:32:06Z</time>
      </trkpt>
      <trkpt lat="45.48565" lon="4.80443">
        <ele>114.179924</ele>
        <time>2021-07-19T07:32:07Z</time>
      </trkpt>
      <trkpt lat="45.48562" lon="4.80435">
        <ele>113.94211</ele>
        <time>2021-07-19T07:32:08Z</time>
      </trkpt>
      <trkpt lat="45.48558" lon="4.80427">
        <ele>113.73072</ele>
        <time>2021-07-19T07:32:09Z</time>
      </trkpt>
      <trkpt lat="45.48555" lon="4.80419">
        <ele>113.51933</ele>
        <time>2021-07-19T07:32:10Z</time>
      </trkpt>
      <trkpt lat="45.48552" lon="4.8041">
        <ele>113.582756</ele>
        <time>2021-07-19T07:32:11Z</time>
      </trkpt>
      <trkpt lat="45.48549" lon="4.80402">
        <ele>113.667305</ele>
        <time>2021-07-19T07:32:12Z</time>
      </trkpt>
      <trkpt lat="45.48546" lon="4.80394">
        <ele>113.83642</ele>
        <time>2021-07-19T07:32:13Z</time>
      </trkpt>
      <trkpt lat="45.48542" lon="4.80386">
        <ele>113.9104</ele>
        <time>2021-07-19T07:32:14Z</time>
      </trkpt>
      <trkpt lat="45.48538" lon="4.80379">
        <ele>113.76243</ele>
        <time>2021-07-19T07:32:15Z</time>
      </trkpt>
      <trkpt lat="45.48535" lon="4.8037">
        <ele>114.00024</ele>
        <time>2021-07-19T07:32:16Z</time>
      </trkpt>
      <trkpt lat="45.48532" lon="4.80362">
        <ele>114.021385</ele>
        <time>2021-07-19T07:32:17Z</time>
      </trkpt>
      <trkpt lat="45.48529" lon="4.80354">
        <ele>113.89455</ele>
        <time>2021-07-19T07:32:18Z</time>
      </trkpt>
      <trkpt lat="45.48525" lon="4.80346">
        <ele>113.95796</ele>
        <time>2021-07-19T07:32:19Z</time>
      </trkpt>
      <trkpt lat="45.48522" lon="4.80337">
        <ele>114.04252</ele>
        <time>2021-07-19T07:32:20Z</time>
      </trkpt>
      <trkpt lat="45.48519" lon="4.80329">
        <ele>113.95796</ele>
        <time>2021-07-19T07:32:21Z</time>
      </trkpt>
      <trkpt lat="45.48516" lon="4.80321">
        <ele>113.868126</ele>
        <time>2021-07-19T07:32:22Z</time>
      </trkpt>
      <trkpt lat="45.48513" lon="4.80312">
        <ele>113.878685</ele>
        <time>2021-07-19T07:32:23Z</time>
      </trkpt>
      <trkpt lat="45.48511" lon="4.80303">
        <ele>113.82584</ele>
        <time>2021-07-19T07:32:24Z</time>
      </trkpt>
      <trkpt lat="45.48509" lon="4.80295">
        <ele>113.77829</ele>
        <time>2021-07-19T07:32:25Z</time>
      </trkpt>
      <trkpt lat="45.48507" lon="4.80286">
        <ele>113.81</ele>
        <time>2021-07-19T07:32:26Z</time>
      </trkpt>
      <trkpt lat="45.48504" lon="4.80277">
        <ele>113.746574</ele>
        <time>2021-07-19T07:32:27Z</time>
      </trkpt>
      <trkpt lat="45.48502" lon="4.80269">
        <ele>113.52991</ele>
        <time>2021-07-19T07:32:28Z</time>
      </trkpt>
      <trkpt lat="45.485" lon="4.8026">
        <ele>113.67787</ele>
        <time>2021-07-19T07:32:29Z</time>
      </trkpt>
      <trkpt lat="45.48498" lon="4.80252">
        <ele>113.72544</ele>
        <time>2021-07-19T07:32:30Z</time>
      </trkpt>
      <trkpt lat="45.48495" lon="4.80243">
        <ele>114.10065</ele>
        <time>2021-07-19T07:32:31Z</time>
      </trkpt>
      <trkpt lat="45.48492" lon="4.80235">
        <ele>114.00024</ele>
        <time>2021-07-19T07:32:32Z</time>
      </trkpt>
      <trkpt lat="45.4849" lon="4.80227">
        <ele>114.08479</ele>
        <time>2021-07-19T07:32:33Z</time>
      </trkpt>
      <trkpt lat="45.48487" lon="4.80218">
        <ele>114.09537</ele>
        <time>2021-07-19T07:32:34Z</time>
      </trkpt>
      <trkpt lat="45.48485" lon="4.8021">
        <ele>114.01081</ele>
        <time>2021-07-19T07:32:35Z</time>
      </trkpt>
      <trkpt lat="45.48483" lon="4.80202">
        <ele>113.846985</ele>
        <time>2021-07-19T07:32:36Z</time>
      </trkpt>
      <trkpt lat="45.4848" lon="4.80193">
        <ele>113.83642</ele>
        <time>2021-07-19T07:32:37Z</time>
      </trkpt>
      <trkpt lat="45.48478" lon="4.80184">
        <ele>113.76243</ele>
        <time>2021-07-19T07:32:38Z</time>
      </trkpt>
      <trkpt lat="45.48475" lon="4.80176">
        <ele>113.8417</ele>
        <time>2021-07-19T07:32:39Z</time>
      </trkpt>
      <trkpt lat="45.48473" lon="4.80167">
        <ele>113.63031</ele>
        <time>2021-07-19T07:32:40Z</time>
      </trkpt>
      <trkpt lat="45.4847" lon="4.80158">
        <ele>113.72544</ele>
        <time>2021-07-19T07:32:41Z</time>
      </trkpt>
      <trkpt lat="45.48467" lon="4.80149">
        <ele>113.646164</ele>
        <time>2021-07-19T07:32:42Z</time>
      </trkpt>
      <trkpt lat="45.48465" lon="4.80141">
        <ele>113.55105</ele>
        <time>2021-07-19T07:32:43Z</time>
      </trkpt>
      <trkpt lat="45.48462" lon="4.80132">
        <ele>113.39779</ele>
        <time>2021-07-19T07:32:44Z</time>
      </trkpt>
      <trkpt lat="45.48459" lon="4.80123">
        <ele>113.540474</ele>
        <time>2021-07-19T07:32:45Z</time>
      </trkpt>
      <trkpt lat="45.48455" lon="4.80115">
        <ele>113.32909</ele>
        <time>2021-07-19T07:32:46Z</time>
      </trkpt>
      <trkpt lat="45.48452" lon="4.80106">
        <ele>113.47177</ele>
        <time>2021-07-19T07:32:47Z</time>
      </trkpt>
      <trkpt lat="45.48449" lon="4.80097">
        <ele>113.55633</ele>
        <time>2021-07-19T07:32:48Z</time>
      </trkpt>
      <trkpt lat="45.48447" lon="4.80088">
        <ele>113.61974</ele>
        <time>2021-07-19T07:32:49Z</time>
      </trkpt>
      <trkpt lat="45.48444" lon="4.80079">
        <ele>113.5669</ele>
        <time>2021-07-19T07:32:50Z</time>
      </trkpt>
      <trkpt lat="45.4844" lon="4.80071">
        <ele>113.57218</ele>
        <time>2021-07-19T07:32:51Z</time>
      </trkpt>
      <trkpt lat="45.48437" lon="4.80063">
        <ele>113.60389</ele>
        <time>2021-07-19T07:32:52Z</time>
      </trkpt>
      <trkpt lat="45.48434" lon="4.80054">
        <ele>113.77829</ele>
        <time>2021-07-19T07:32:53Z</time>
      </trkpt>
      <trkpt lat="45.4843" lon="4.80046">
        <ele>113.82584</ele>
        <time>2021-07-19T07:32:54Z</time>
      </trkpt>
      <trkpt lat="45.48426" lon="4.80038">
        <ele>113.90511</ele>
        <time>2021-07-19T07:32:55Z</time>
      </trkpt>
      <trkpt lat="45.48422" lon="4.8003">
        <ele>113.973816</ele>
        <time>2021-07-19T07:32:56Z</time>
      </trkpt>
      <trkpt lat="45.48419" lon="4.80022">
        <ele>113.95268</ele>
        <time>2021-07-19T07:32:57Z</time>
      </trkpt>
      <trkpt lat="45.48415" lon="4.80014">
        <ele>113.98438</ele>
        <time>2021-07-19T07:32:58Z</time>
      </trkpt>
      <trkpt lat="45.48411" lon="4.80007">
        <ele>113.89455</ele>
        <time>2021-07-19T07:32:59Z</time>
      </trkpt>
      <trkpt lat="45.48407" lon="4.79999">
        <ele>113.89983</ele>
        <time>2021-07-19T07:33:00Z</time>
      </trkpt>
      <trkpt lat="45.48403" lon="4.79992">
        <ele>113.846985</ele>
        <time>2021-07-19T07:33:01Z</time>
      </trkpt>
      <trkpt lat="45.48399" lon="4.79984">
        <ele>113.95268</ele>
        <time>2021-07-19T07:33:02Z</time>
      </trkpt>
      <trkpt lat="45.48395" lon="4.79977">
        <ele>114.07423</ele>
        <time>2021-07-19T07:33:03Z</time>
      </trkpt>
      <trkpt lat="45.48391" lon="4.7997">
        <ele>114.04252</ele>
        <time>2021-07-19T07:33:04Z</time>
      </trkpt>
      <trkpt lat="45.48386" lon="4.79963">
        <ele>114.24333</ele>
        <time>2021-07-19T07:33:05Z</time>
      </trkpt>
      <trkpt lat="45.48382" lon="4.79956">
        <ele>114.32789</ele>
        <time>2021-07-19T07:33:06Z</time>
      </trkpt>
      <trkpt lat="45.48379" lon="4.79948">
        <ele>114.317314</ele>
        <time>2021-07-19T07:33:07Z</time>
      </trkpt>
      <trkpt lat="45.48375" lon="4.7994">
        <ele>114.49171</ele>
        <time>2021-07-19T07:33:08Z</time>
      </trkpt>
      <trkpt lat="45.48371" lon="4.79933">
        <ele>114.264465</ele>
        <time>2021-07-19T07:33:09Z</time>
      </trkpt>
      <trkpt lat="45.48367" lon="4.79926">
        <ele>114.17463</ele>
        <time>2021-07-19T07:33:10Z</time>
      </trkpt>
      <trkpt lat="45.48363" lon="4.79919">
        <ele>114.34374</ele>
        <time>2021-07-19T07:33:11Z</time>
      </trkpt>
      <trkpt lat="45.48359" lon="4.79912">
        <ele>114.45472</ele>
        <time>2021-07-19T07:33:12Z</time>
      </trkpt>
      <trkpt lat="45.48355" lon="4.79904">
        <ele>114.16406</ele>
        <time>2021-07-19T07:33:13Z</time>
      </trkpt>
      <trkpt lat="45.48351" lon="4.79898">
        <ele>114.423004</ele>
        <time>2021-07-19T07:33:14Z</time>
      </trkpt>
      <trkpt lat="45.48347" lon="4.79891">
        <ele>114.38073</ele>
        <time>2021-07-19T07:33:15Z</time>
      </trkpt>
      <trkpt lat="45.48343" lon="4.79883">
        <ele>114.22219</ele>
        <time>2021-07-19T07:33:16Z</time>
      </trkpt>
      <trkpt lat="45.4834" lon="4.79876">
        <ele>114.30675</ele>
        <time>2021-07-19T07:33:17Z</time>
      </trkpt>
      <trkpt lat="45.48336" lon="4.79868">
        <ele>114.34374</ele>
        <time>2021-07-19T07:33:18Z</time>
      </trkpt>
      <trkpt lat="45.48333" lon="4.79859">
        <ele>113.9104</ele>
        <time>2021-07-19T07:33:19Z</time>
      </trkpt>
      <trkpt lat="45.48332" lon="4.79851">
        <ele>113.67787</ele>
        <time>2021-07-19T07:33:20Z</time>
      </trkpt>
      <trkpt lat="45.4833" lon="4.79842">
        <ele>113.68316</ele>
        <time>2021-07-19T07:33:21Z</time>
      </trkpt>
      <trkpt lat="45.4833" lon="4.79833">
        <ele>113.640884</ele>
        <time>2021-07-19T07:33:22Z</time>
      </trkpt>
      <trkpt lat="45.4833" lon="4.79824">
        <ele>114.00024</ele>
        <time>2021-07-19T07:33:23Z</time>
      </trkpt>
      <trkpt lat="45.4833" lon="4.79816">
        <ele>113.926254</ele>
        <time>2021-07-19T07:33:24Z</time>
      </trkpt>
      <trkpt lat="45.4833" lon="4.79807">
        <ele>113.93683</ele>
        <time>2021-07-19T07:33:25Z</time>
      </trkpt>
      <trkpt lat="45.48331" lon="4.79798">
        <ele>114.01081</ele>
        <time>2021-07-19T07:33:26Z</time>
      </trkpt>
      <trkpt lat="45.48332" lon="4.79789">
        <ele>114.14292</ele>
        <time>2021-07-19T07:33:27Z</time>
      </trkpt>
      <trkpt lat="45.48332" lon="4.7978">
        <ele>114.01081</ele>
        <time>2021-07-19T07:33:28Z</time>
      </trkpt>
      <trkpt lat="45.48333" lon="4.79771">
        <ele>113.926254</ele>
        <time>2021-07-19T07:33:29Z</time>
      </trkpt>
      <trkpt lat="45.48335" lon="4.79762">
        <ele>114.00024</ele>
        <time>2021-07-19T07:33:30Z</time>
      </trkpt>
      <trkpt lat="45.48335" lon="4.79752">
        <ele>114.08479</ele>
        <time>2021-07-19T07:33:31Z</time>
      </trkpt>
      <trkpt lat="45.48336" lon="4.79742">
        <ele>114.10065</ele>
        <time>2021-07-19T07:33:32Z</time>
      </trkpt>
      <trkpt lat="45.48337" lon="4.79733">
        <ele>114.28032</ele>
        <time>2021-07-19T07:33:33Z</time>
      </trkpt>
      <trkpt lat="45.48338" lon="4.79723">
        <ele>114.19576</ele>
        <time>2021-07-19T07:33:34Z</time>
      </trkpt>
      <trkpt lat="45.48339" lon="4.79714">
        <ele>114.16406</ele>
        <time>2021-07-19T07:33:35Z</time>
      </trkpt>
      <trkpt lat="45.4834" lon="4.79704">
        <ele>114.132355</ele>
        <time>2021-07-19T07:33:36Z</time>
      </trkpt>
      <trkpt lat="45.48341" lon="4.79695">
        <ele>114.4283</ele>
        <time>2021-07-19T07:33:37Z</time>
      </trkpt>
      <trkpt lat="45.48343" lon="4.79686">
        <ele>114.364876</ele>
        <time>2021-07-19T07:33:38Z</time>
      </trkpt>
      <trkpt lat="45.48344" lon="4.79677">
        <ele>114.39659</ele>
        <time>2021-07-19T07:33:39Z</time>
      </trkpt>
      <trkpt lat="45.48346" lon="4.79669">
        <ele>114.86163</ele>
        <time>2021-07-19T07:33:40Z</time>
      </trkpt>
      <trkpt lat="45.48346" lon="4.7966">
        <ele>115.1153</ele>
        <time>2021-07-19T07:33:41Z</time>
      </trkpt>
      <trkpt lat="45.48348" lon="4.79651">
        <ele>115.51164</ele>
        <time>2021-07-19T07:33:42Z</time>
      </trkpt>
      <trkpt lat="45.48349" lon="4.79643">
        <ele>115.0466</ele>
        <time>2021-07-19T07:33:43Z</time>
      </trkpt>
      <trkpt lat="45.4835" lon="4.79634">
        <ele>115.35838</ele>
        <time>2021-07-19T07:33:44Z</time>
      </trkpt>
      <trkpt lat="45.48351" lon="4.79626">
        <ele>115.33197</ele>
        <time>2021-07-19T07:33:45Z</time>
      </trkpt>
      <trkpt lat="45.48352" lon="4.79618">
        <ele>115.21042</ele>
        <time>2021-07-19T07:33:46Z</time>
      </trkpt>
      <trkpt lat="45.48353" lon="4.79609">
        <ele>115.11001</ele>
        <time>2021-07-19T07:33:47Z</time>
      </trkpt>
      <trkpt lat="45.48354" lon="4.79602">
        <ele>115.088875</ele>
        <time>2021-07-19T07:33:48Z</time>
      </trkpt>
      <trkpt lat="45.48356" lon="4.79594">
        <ele>115.23685</ele>
        <time>2021-07-19T07:33:49Z</time>
      </trkpt>
      <trkpt lat="45.48357" lon="4.79587">
        <ele>114.94619</ele>
        <time>2021-07-19T07:33:50Z</time>
      </trkpt>
      <trkpt lat="45.48359" lon="4.7958">
        <ele>115.41653</ele>
        <time>2021-07-19T07:33:51Z</time>
      </trkpt>
      <trkpt lat="45.48361" lon="4.79573">
        <ele>115.48522</ele>
        <time>2021-07-19T07:33:52Z</time>
      </trkpt>
      <trkpt lat="45.48363" lon="4.79566">
        <ele>114.61326</ele>
        <time>2021-07-19T07:33:53Z</time>
      </trkpt>
      <trkpt lat="45.48365" lon="4.79559">
        <ele>114.211624</ele>
        <time>2021-07-19T07:33:54Z</time>
      </trkpt>
      <trkpt lat="45.48367" lon="4.79552">
        <ele>114.423004</ele>
        <time>2021-07-19T07:33:55Z</time>
      </trkpt>
      <trkpt lat="45.48368" lon="4.79545">
        <ele>114.70838</ele>
        <time>2021-07-19T07:33:56Z</time>
      </trkpt>
      <trkpt lat="45.4837" lon="4.79538">
        <ele>114.87221</ele>
        <time>2021-07-19T07:33:57Z</time>
      </trkpt>
      <trkpt lat="45.48371" lon="4.79531">
        <ele>114.644966</ele>
        <time>2021-07-19T07:33:58Z</time>
      </trkpt>
      <trkpt lat="45.48373" lon="4.79523">
        <ele>114.63969</ele>
        <time>2021-07-19T07:33:59Z</time>
      </trkpt>
      <trkpt lat="45.48375" lon="4.79516">
        <ele>114.956764</ele>
        <time>2021-07-19T07:34:00Z</time>
      </trkpt>
      <trkpt lat="45.48376" lon="4.79509">
        <ele>115.094154</ele>
        <time>2021-07-19T07:34:01Z</time>
      </trkpt>
      <trkpt lat="45.48378" lon="4.79502">
        <ele>115.347824</ele>
        <time>2021-07-19T07:34:02Z</time>
      </trkpt>
      <trkpt lat="45.48379" lon="4.79494">
        <ele>115.65962</ele>
        <time>2021-07-19T07:34:03Z</time>
      </trkpt>
      <trkpt lat="45.4838" lon="4.79487">
        <ele>116.10353</ele>
        <time>2021-07-19T07:34:04Z</time>
      </trkpt>
      <trkpt lat="45.48382" lon="4.79479">
        <ele>116.08767</ele>
        <time>2021-07-19T07:34:05Z</time>
      </trkpt>
      <trkpt lat="45.48383" lon="4.79472">
        <ele>116.0771</ele>
        <time>2021-07-19T07:34:06Z</time>
      </trkpt>
      <trkpt lat="45.48383" lon="4.79465">
        <ele>116.04539</ele>
        <time>2021-07-19T07:34:07Z</time>
      </trkpt>
      <trkpt lat="45.48383" lon="4.79457">
        <ele>116.05596</ele>
        <time>2021-07-19T07:34:08Z</time>
      </trkpt>
      <trkpt lat="45.48383" lon="4.79449">
        <ele>115.966125</ele>
        <time>2021-07-19T07:34:09Z</time>
      </trkpt>
      <trkpt lat="45.48381" lon="4.79441">
        <ele>116.04011</ele>
        <time>2021-07-19T07:34:10Z</time>
      </trkpt>
      <trkpt lat="45.4838" lon="4.79433">
        <ele>116.24093</ele>
        <time>2021-07-19T07:34:11Z</time>
      </trkpt>
      <trkpt lat="45.48378" lon="4.79425">
        <ele>116.119385</ele>
        <time>2021-07-19T07:34:12Z</time>
      </trkpt>
      <trkpt lat="45.48376" lon="4.79416">
        <ele>116.28848</ele>
        <time>2021-07-19T07:34:13Z</time>
      </trkpt>
      <trkpt lat="45.48373" lon="4.79408">
        <ele>116.27792</ele>
        <time>2021-07-19T07:34:14Z</time>
      </trkpt>
      <trkpt lat="45.48372" lon="4.79399">
        <ele>115.918564</ele>
        <time>2021-07-19T07:34:15Z</time>
      </trkpt>
      <trkpt lat="45.4837" lon="4.7939">
        <ele>115.91328</ele>
        <time>2021-07-19T07:34:16Z</time>
      </trkpt>
      <trkpt lat="45.48367" lon="4.79381">
        <ele>116.0771</ele>
        <time>2021-07-19T07:34:17Z</time>
      </trkpt>
      <trkpt lat="45.48365" lon="4.79372">
        <ele>116.27263</ele>
        <time>2021-07-19T07:34:18Z</time>
      </trkpt>
      <trkpt lat="45.48364" lon="4.79363">
        <ele>116.27263</ele>
        <time>2021-07-19T07:34:19Z</time>
      </trkpt>
      <trkpt lat="45.48362" lon="4.79355">
        <ele>116.3202</ele>
        <time>2021-07-19T07:34:20Z</time>
      </trkpt>
      <trkpt lat="45.48359" lon="4.79346">
        <ele>116.43117</ele>
        <time>2021-07-19T07:34:21Z</time>
      </trkpt>
      <trkpt lat="45.48357" lon="4.79338">
        <ele>116.60028</ele>
        <time>2021-07-19T07:34:22Z</time>
      </trkpt>
      <trkpt lat="45.48355" lon="4.79329">
        <ele>116.737686</ele>
        <time>2021-07-19T07:34:23Z</time>
      </trkpt>
      <trkpt lat="45.48353" lon="4.79321">
        <ele>116.63199</ele>
        <time>2021-07-19T07:34:24Z</time>
      </trkpt>
      <trkpt lat="45.48351" lon="4.79313">
        <ele>116.89093</ele>
        <time>2021-07-19T07:34:25Z</time>
      </trkpt>
      <trkpt lat="45.48349" lon="4.79305">
        <ele>117.15517</ele>
        <time>2021-07-19T07:34:26Z</time>
      </trkpt>
      <trkpt lat="45.48348" lon="4.79296">
        <ele>117.181595</ele>
        <time>2021-07-19T07:34:27Z</time>
      </trkpt>
      <trkpt lat="45.48346" lon="4.79288">
        <ele>117.0759</ele>
        <time>2021-07-19T07:34:28Z</time>
      </trkpt>
      <trkpt lat="45.48344" lon="4.7928">
        <ele>116.98606</ele>
        <time>2021-07-19T07:34:29Z</time>
      </trkpt>
      <trkpt lat="45.48343" lon="4.79271">
        <ele>117.16574</ele>
        <time>2021-07-19T07:34:30Z</time>
      </trkpt>
      <trkpt lat="45.48341" lon="4.79263">
        <ele>117.35071</ele>
        <time>2021-07-19T07:34:31Z</time>
      </trkpt>
      <trkpt lat="45.4834" lon="4.79254">
        <ele>117.49867</ele>
        <time>2021-07-19T07:34:32Z</time>
      </trkpt>
      <trkpt lat="45.48338" lon="4.79245">
        <ele>117.56209</ele>
        <time>2021-07-19T07:34:33Z</time>
      </trkpt>
      <trkpt lat="45.48337" lon="4.79237">
        <ele>117.81575</ele>
        <time>2021-07-19T07:34:34Z</time>
      </trkpt>
      <trkpt lat="45.48336" lon="4.79229">
        <ele>117.7999</ele>
        <time>2021-07-19T07:34:35Z</time>
      </trkpt>
      <trkpt lat="45.48334" lon="4.79221">
        <ele>117.90031</ele>
        <time>2021-07-19T07:34:36Z</time>
      </trkpt>
      <trkpt lat="45.48333" lon="4.79213">
        <ele>117.95315</ele>
        <time>2021-07-19T07:34:37Z</time>
      </trkpt>
      <trkpt lat="45.48332" lon="4.79205">
        <ele>117.97957</ele>
        <time>2021-07-19T07:34:38Z</time>
      </trkpt>
      <trkpt lat="45.48331" lon="4.79196">
        <ele>117.85274</ele>
        <time>2021-07-19T07:34:39Z</time>
      </trkpt>
      <trkpt lat="45.4833" lon="4.79188">
        <ele>117.74705</ele>
        <time>2021-07-19T07:34:40Z</time>
      </trkpt>
      <trkpt lat="45.48328" lon="4.79179">
        <ele>117.61494</ele>
        <time>2021-07-19T07:34:41Z</time>
      </trkpt>
      <trkpt lat="45.48327" lon="4.79171">
        <ele>117.74177</ele>
        <time>2021-07-19T07:34:42Z</time>
      </trkpt>
      <trkpt lat="45.48326" lon="4.79162">
        <ele>117.577934</ele>
        <time>2021-07-19T07:34:43Z</time>
      </trkpt>
      <trkpt lat="45.48325" lon="4.79153">
        <ele>117.61494</ele>
        <time>2021-07-19T07:34:44Z</time>
      </trkpt>
      <trkpt lat="45.48324" lon="4.79143">
        <ele>117.6255</ele>
        <time>2021-07-19T07:34:45Z</time>
      </trkpt>
      <trkpt lat="45.48324" lon="4.79134">
        <ele>117.6255</ele>
        <time>2021-07-19T07:34:46Z</time>
      </trkpt>
      <trkpt lat="45.48323" lon="4.79125">
        <ele>117.5568</ele>
        <time>2021-07-19T07:34:47Z</time>
      </trkpt>
      <trkpt lat="45.48323" lon="4.79115">
        <ele>117.29786</ele>
        <time>2021-07-19T07:34:48Z</time>
      </trkpt>
      <trkpt lat="45.48322" lon="4.79106">
        <ele>116.98606</ele>
        <time>2021-07-19T07:34:49Z</time>
      </trkpt>
      <trkpt lat="45.48321" lon="4.79097">
        <ele>117.25558</ele>
        <time>2021-07-19T07:34:50Z</time>
      </trkpt>
      <trkpt lat="45.4832" lon="4.79087">
        <ele>117.03891</ele>
        <time>2021-07-19T07:34:51Z</time>
      </trkpt>
      <trkpt lat="45.4832" lon="4.79078">
        <ele>117.08647</ele>
        <time>2021-07-19T07:34:52Z</time>
      </trkpt>
      <trkpt lat="45.48319" lon="4.79069">
        <ele>117.24501</ele>
        <time>2021-07-19T07:34:53Z</time>
      </trkpt>
      <trkpt lat="45.48319" lon="4.79059">
        <ele>117.007195</ele>
        <time>2021-07-19T07:34:54Z</time>
      </trkpt>
      <trkpt lat="45.48318" lon="4.7905">
        <ele>116.906784</ele>
        <time>2021-07-19T07:34:55Z</time>
      </trkpt>
      <trkpt lat="45.48317" lon="4.79042">
        <ele>116.9385</ele>
        <time>2021-07-19T07:34:56Z</time>
      </trkpt>
      <trkpt lat="45.48315" lon="4.79034">
        <ele>117.08647</ele>
        <time>2021-07-19T07:34:57Z</time>
      </trkpt>
      <trkpt lat="45.48312" lon="4.79026">
        <ele>117.23972</ele>
        <time>2021-07-19T07:34:58Z</time>
      </trkpt>
      <trkpt lat="45.48311" lon="4.79017">
        <ele>117.34541</ele>
        <time>2021-07-19T07:34:59Z</time>
      </trkpt>
      <trkpt lat="45.48309" lon="4.7901">
        <ele>117.493385</ele>
        <time>2021-07-19T07:35:00Z</time>
      </trkpt>
      <trkpt lat="45.48308" lon="4.79002">
        <ele>117.58851</ele>
        <time>2021-07-19T07:35:01Z</time>
      </trkpt>
      <trkpt lat="45.48307" lon="4.78994">
        <ele>117.678345</ele>
        <time>2021-07-19T07:35:02Z</time>
      </trkpt>
      <trkpt lat="45.48306" lon="4.78985">
        <ele>117.60436</ele>
        <time>2021-07-19T07:35:03Z</time>
      </trkpt>
      <trkpt lat="45.48306" lon="4.78976">
        <ele>117.66249</ele>
        <time>2021-07-19T07:35:04Z</time>
      </trkpt>
      <trkpt lat="45.48305" lon="4.78968">
        <ele>117.81047</ele>
        <time>2021-07-19T07:35:05Z</time>
      </trkpt>
      <trkpt lat="45.48304" lon="4.78959">
        <ele>117.73119</ele>
        <time>2021-07-19T07:35:06Z</time>
      </trkpt>
      <trkpt lat="45.48303" lon="4.7895">
        <ele>117.78932</ele>
        <time>2021-07-19T07:35:07Z</time>
      </trkpt>
      <trkpt lat="45.48302" lon="4.78941">
        <ele>117.85274</ele>
        <time>2021-07-19T07:35:08Z</time>
      </trkpt>
      <trkpt lat="45.48301" lon="4.78932">
        <ele>117.98486</ele>
        <time>2021-07-19T07:35:09Z</time>
      </trkpt>
      <trkpt lat="45.48299" lon="4.78923">
        <ele>118.02185</ele>
        <time>2021-07-19T07:35:10Z</time>
      </trkpt>
      <trkpt lat="45.48297" lon="4.78916">
        <ele>118.058846</ele>
        <time>2021-07-19T07:35:11Z</time>
      </trkpt>
      <trkpt lat="45.48295" lon="4.78908">
        <ele>118.069405</ele>
        <time>2021-07-19T07:35:12Z</time>
      </trkpt>
      <trkpt lat="45.48293" lon="4.789">
        <ele>118.116974</ele>
        <time>2021-07-19T07:35:13Z</time>
      </trkpt>
      <trkpt lat="45.48291" lon="4.78892">
        <ele>118.243805</ele>
        <time>2021-07-19T07:35:14Z</time>
      </trkpt>
      <trkpt lat="45.4829" lon="4.78886">
        <ele>117.91616</ele>
        <time>2021-07-19T07:35:15Z</time>
      </trkpt>
      <trkpt lat="45.48288" lon="4.7888">
        <ele>117.773476</ele>
        <time>2021-07-19T07:35:16Z</time>
      </trkpt>
      <trkpt lat="45.48287" lon="4.78875">
        <ele>117.7629</ele>
        <time>2021-07-19T07:35:17Z</time>
      </trkpt>
      <trkpt lat="45.48286" lon="4.78871">
        <ele>117.72063</ele>
        <time>2021-07-19T07:35:18Z</time>
      </trkpt>
      <trkpt lat="45.48285" lon="4.78867">
        <ele>117.78404</ele>
        <time>2021-07-19T07:35:19Z</time>
      </trkpt>
      <trkpt lat="45.48283" lon="4.78865">
        <ele>117.63607</ele>
        <time>2021-07-19T07:35:20Z</time>
      </trkpt>
      <trkpt lat="45.48279" lon="4.78864">
        <ele>117.667786</ele>
        <time>2021-07-19T07:35:21Z</time>
      </trkpt>
      <trkpt lat="45.48275" lon="4.78863">
        <ele>117.68892</ele>
        <time>2021-07-19T07:35:22Z</time>
      </trkpt>
      <trkpt lat="45.4827" lon="4.78863">
        <ele>117.778755</ele>
        <time>2021-07-19T07:35:23Z</time>
      </trkpt>
      <trkpt lat="45.48264" lon="4.78863">
        <ele>117.61494</ele>
        <time>2021-07-19T07:35:24Z</time>
      </trkpt>
      <trkpt lat="45.48257" lon="4.78862">
        <ele>117.62022</ele>
        <time>2021-07-19T07:35:25Z</time>
      </trkpt>
      <trkpt lat="45.48252" lon="4.78862">
        <ele>117.81575</ele>
        <time>2021-07-19T07:35:26Z</time>
      </trkpt>
      <trkpt lat="45.48246" lon="4.78862">
        <ele>117.64664</ele>
        <time>2021-07-19T07:35:27Z</time>
      </trkpt>
      <trkpt lat="45.4824" lon="4.78862">
        <ele>117.54095</ele>
        <time>2021-07-19T07:35:28Z</time>
      </trkpt>
      <trkpt lat="45.48233" lon="4.78861">
        <ele>117.39826</ele>
        <time>2021-07-19T07:35:29Z</time>
      </trkpt>
      <trkpt lat="45.48226" lon="4.78861">
        <ele>116.7641</ele>
        <time>2021-07-19T07:35:30Z</time>
      </trkpt>
      <trkpt lat="45.48219" lon="4.78859">
        <ele>116.203926</ele>
        <time>2021-07-19T07:35:31Z</time>
      </trkpt>
      <trkpt lat="45.48211" lon="4.78859">
        <ele>115.81816</ele>
        <time>2021-07-19T07:35:32Z</time>
      </trkpt>
      <trkpt lat="45.48203" lon="4.78857">
        <ele>115.26855</ele>
        <time>2021-07-19T07:35:33Z</time>
      </trkpt>
      <trkpt lat="45.48195" lon="4.78855">
        <ele>114.97262</ele>
        <time>2021-07-19T07:35:34Z</time>
      </trkpt>
      <trkpt lat="45.48186" lon="4.78854">
        <ele>114.48643</ele>
        <time>2021-07-19T07:35:35Z</time>
      </trkpt>
      <trkpt lat="45.48178" lon="4.78854">
        <ele>114.6661</ele>
        <time>2021-07-19T07:35:36Z</time>
      </trkpt>
      <trkpt lat="45.4817" lon="4.78852">
        <ele>114.58684</ele>
        <time>2021-07-19T07:35:37Z</time>
      </trkpt>
      <trkpt lat="45.48162" lon="4.78851">
        <ele>114.39659</ele>
        <time>2021-07-19T07:35:38Z</time>
      </trkpt>
      <trkpt lat="45.48154" lon="4.78851">
        <ele>114.285614</ele>
        <time>2021-07-19T07:35:39Z</time>
      </trkpt>
      <trkpt lat="45.48146" lon="4.78851">
        <ele>114.43886</ele>
        <time>2021-07-19T07:35:40Z</time>
      </trkpt>
      <trkpt lat="45.48139" lon="4.7885">
        <ele>114.264465</ele>
        <time>2021-07-19T07:35:41Z</time>
      </trkpt>
      <trkpt lat="45.48132" lon="4.78849">
        <ele>114.27504</ele>
        <time>2021-07-19T07:35:42Z</time>
      </trkpt>
      <trkpt lat="45.48125" lon="4.78849">
        <ele>114.37016</ele>
        <time>2021-07-19T07:35:43Z</time>
      </trkpt>
      <trkpt lat="45.48117" lon="4.78849">
        <ele>114.14292</ele>
        <time>2021-07-19T07:35:44Z</time>
      </trkpt>
      <trkpt lat="45.4811" lon="4.78847">
        <ele>114.04252</ele>
        <time>2021-07-19T07:35:45Z</time>
      </trkpt>
      <trkpt lat="45.48103" lon="4.78846">
        <ele>114.211624</ele>
        <time>2021-07-19T07:35:46Z</time>
      </trkpt>
      <trkpt lat="45.48096" lon="4.78844">
        <ele>114.11122</ele>
        <time>2021-07-19T07:35:47Z</time>
      </trkpt>
      <trkpt lat="45.48089" lon="4.78841">
        <ele>113.83113</ele>
        <time>2021-07-19T07:35:48Z</time>
      </trkpt>
      <trkpt lat="45.48083" lon="4.78839">
        <ele>113.75715</ele>
        <time>2021-07-19T07:35:49Z</time>
      </trkpt>
      <trkpt lat="45.48077" lon="4.78836">
        <ele>113.49292</ele>
        <time>2021-07-19T07:35:50Z</time>
      </trkpt>
      <trkpt lat="45.48071" lon="4.78834">
        <ele>113.32909</ele>
        <time>2021-07-19T07:35:51Z</time>
      </trkpt>
      <trkpt lat="45.48066" lon="4.78833">
        <ele>113.18112</ele>
        <time>2021-07-19T07:35:52Z</time>
      </trkpt>
      <trkpt lat="45.48062" lon="4.78832">
        <ele>113.14413</ele>
        <time>2021-07-19T07:35:53Z</time>
      </trkpt>
      <trkpt lat="45.4806" lon="4.78828">
        <ele>113.149414</ele>
        <time>2021-07-19T07:35:54Z</time>
      </trkpt>
      <trkpt lat="45.48059" lon="4.78823">
        <ele>113.14413</ele>
        <time>2021-07-19T07:35:55Z</time>
      </trkpt>
      <trkpt lat="45.48059" lon="4.78817">
        <ele>113.196976</ele>
        <time>2021-07-19T07:35:56Z</time>
      </trkpt>
      <trkpt lat="45.48061" lon="4.78811">
        <ele>113.30795</ele>
        <time>2021-07-19T07:35:57Z</time>
      </trkpt>
      <trkpt lat="45.48063" lon="4.78805">
        <ele>113.42422</ele>
        <time>2021-07-19T07:35:58Z</time>
      </trkpt>
      <trkpt lat="45.48065" lon="4.78797">
        <ele>113.535194</ele>
        <time>2021-07-19T07:35:59Z</time>
      </trkpt>
      <trkpt lat="45.48068" lon="4.78789">
        <ele>113.640884</ele>
        <time>2021-07-19T07:36:00Z</time>
      </trkpt>
      <trkpt lat="45.4807" lon="4.78781">
        <ele>113.59332</ele>
        <time>2021-07-19T07:36:01Z</time>
      </trkpt>
      <trkpt lat="45.48072" lon="4.78772">
        <ele>113.78885</ele>
        <time>2021-07-19T07:36:02Z</time>
      </trkpt>
      <trkpt lat="45.48074" lon="4.78764">
        <ele>113.7043</ele>
        <time>2021-07-19T07:36:03Z</time>
      </trkpt>
      <trkpt lat="45.48075" lon="4.78756">
        <ele>113.51933</ele>
        <time>2021-07-19T07:36:04Z</time>
      </trkpt>
      <trkpt lat="45.48077" lon="4.78748">
        <ele>113.60918</ele>
        <time>2021-07-19T07:36:05Z</time>
      </trkpt>
      <trkpt lat="45.48078" lon="4.7874">
        <ele>113.52462</ele>
        <time>2021-07-19T07:36:06Z</time>
      </trkpt>
      <trkpt lat="45.48079" lon="4.78732">
        <ele>113.54576</ele>
        <time>2021-07-19T07:36:07Z</time>
      </trkpt>
      <trkpt lat="45.4808" lon="4.78724">
        <ele>113.27096</ele>
        <time>2021-07-19T07:36:08Z</time>
      </trkpt>
      <trkpt lat="45.4808" lon="4.78716">
        <ele>113.202255</ele>
        <time>2021-07-19T07:36:09Z</time>
      </trkpt>
      <trkpt lat="45.48081" lon="4.78708">
        <ele>113.249825</ele>
        <time>2021-07-19T07:36:10Z</time>
      </trkpt>
      <trkpt lat="45.4808" lon="4.787">
        <ele>113.41892</ele>
        <time>2021-07-19T07:36:11Z</time>
      </trkpt>
      <trkpt lat="45.48079" lon="4.78691">
        <ele>113.51933</ele>
        <time>2021-07-19T07:36:12Z</time>
      </trkpt>
      <trkpt lat="45.48077" lon="4.78682">
        <ele>113.4982</ele>
        <time>2021-07-19T07:36:13Z</time>
      </trkpt>
      <trkpt lat="45.48076" lon="4.78673">
        <ele>113.47177</ele>
        <time>2021-07-19T07:36:14Z</time>
      </trkpt>
      <trkpt lat="45.48074" lon="4.78664">
        <ele>113.57218</ele>
        <time>2021-07-19T07:36:15Z</time>
      </trkpt>
      <trkpt lat="45.48072" lon="4.78656">
        <ele>113.50348</ele>
        <time>2021-07-19T07:36:16Z</time>
      </trkpt>
      <trkpt lat="45.48071" lon="4.78648">
        <ele>113.635605</ele>
        <time>2021-07-19T07:36:17Z</time>
      </trkpt>
      <trkpt lat="45.48069" lon="4.78641">
        <ele>113.85755</ele>
        <time>2021-07-19T07:36:18Z</time>
      </trkpt>
      <trkpt lat="45.48066" lon="4.78633">
        <ele>113.646164</ele>
        <time>2021-07-19T07:36:19Z</time>
      </trkpt>
      <trkpt lat="45.48064" lon="4.78625">
        <ele>113.51933</ele>
        <time>2021-07-19T07:36:20Z</time>
      </trkpt>
      <trkpt lat="45.48061" lon="4.78617">
        <ele>113.249825</ele>
        <time>2021-07-19T07:36:21Z</time>
      </trkpt>
      <trkpt lat="45.48059" lon="4.78609">
        <ele>113.12299</ele>
        <time>2021-07-19T07:36:22Z</time>
      </trkpt>
      <trkpt lat="45.48056" lon="4.78601">
        <ele>113.37137</ele>
        <time>2021-07-19T07:36:23Z</time>
      </trkpt>
      <trkpt lat="45.48054" lon="4.78592">
        <ele>113.40307</ele>
        <time>2021-07-19T07:36:24Z</time>
      </trkpt>
      <trkpt lat="45.48052" lon="4.78584">
        <ele>113.57746</ele>
        <time>2021-07-19T07:36:25Z</time>
      </trkpt>
      <trkpt lat="45.4805" lon="4.78575">
        <ele>113.57746</ele>
        <time>2021-07-19T07:36:26Z</time>
      </trkpt>
      <trkpt lat="45.48047" lon="4.78568">
        <ele>113.78885</ele>
        <time>2021-07-19T07:36:27Z</time>
      </trkpt>
      <trkpt lat="45.48044" lon="4.7856">
        <ele>113.69373</ele>
        <time>2021-07-19T07:36:28Z</time>
      </trkpt>
      <trkpt lat="45.4804" lon="4.78554">
        <ele>113.667305</ele>
        <time>2021-07-19T07:36:29Z</time>
      </trkpt>
      <trkpt lat="45.48036" lon="4.78548">
        <ele>113.88398</ele>
        <time>2021-07-19T07:36:30Z</time>
      </trkpt>
      <trkpt lat="45.48031" lon="4.78542">
        <ele>113.83113</ele>
        <time>2021-07-19T07:36:31Z</time>
      </trkpt>
      <trkpt lat="45.48027" lon="4.78536">
        <ele>113.540474</ele>
        <time>2021-07-19T07:36:32Z</time>
      </trkpt>
      <trkpt lat="45.48023" lon="4.78529">
        <ele>113.51933</ele>
        <time>2021-07-19T07:36:33Z</time>
      </trkpt>
      <trkpt lat="45.48018" lon="4.78524">
        <ele>113.41892</ele>
        <time>2021-07-19T07:36:34Z</time>
      </trkpt>
      <trkpt lat="45.48014" lon="4.78518">
        <ele>113.15469</ele>
        <time>2021-07-19T07:36:35Z</time>
      </trkpt>
      <trkpt lat="45.48009" lon="4.78512">
        <ele>113.45064</ele>
        <time>2021-07-19T07:36:36Z</time>
      </trkpt>
      <trkpt lat="45.48005" lon="4.78506">
        <ele>113.50348</ele>
        <time>2021-07-19T07:36:37Z</time>
      </trkpt>
      <trkpt lat="45.48001" lon="4.785">
        <ele>113.535194</ele>
        <time>2021-07-19T07:36:38Z</time>
      </trkpt>
      <trkpt lat="45.47997" lon="4.78494">
        <ele>113.614456</ele>
        <time>2021-07-19T07:36:39Z</time>
      </trkpt>
      <trkpt lat="45.47992" lon="4.78487">
        <ele>113.43478</ele>
        <time>2021-07-19T07:36:40Z</time>
      </trkpt>
      <trkpt lat="45.47988" lon="4.78481">
        <ele>113.22868</ele>
        <time>2021-07-19T07:36:41Z</time>
      </trkpt>
      <trkpt lat="45.47984" lon="4.78474">
        <ele>113.588036</ele>
        <time>2021-07-19T07:36:42Z</time>
      </trkpt>
      <trkpt lat="45.4798" lon="4.78468">
        <ele>113.41364</ele>
        <time>2021-07-19T07:36:43Z</time>
      </trkpt>
      <trkpt lat="45.47977" lon="4.78461">
        <ele>113.61974</ele>
        <time>2021-07-19T07:36:44Z</time>
      </trkpt>
      <trkpt lat="45.47972" lon="4.78455">
        <ele>113.540474</ele>
        <time>2021-07-19T07:36:45Z</time>
      </trkpt>
      <trkpt lat="45.47968" lon="4.78449">
        <ele>113.45592</ele>
        <time>2021-07-19T07:36:46Z</time>
      </trkpt>
      <trkpt lat="45.47964" lon="4.78444">
        <ele>113.73072</ele>
        <time>2021-07-19T07:36:47Z</time>
      </trkpt>
      <trkpt lat="45.4796" lon="4.7844">
        <ele>113.83642</ele>
        <time>2021-07-19T07:36:48Z</time>
      </trkpt>
      <trkpt lat="45.47957" lon="4.78437">
        <ele>113.82056</ele>
        <time>2021-07-19T07:36:49Z</time>
      </trkpt>
      <trkpt lat="45.47954" lon="4.78434">
        <ele>113.98967</ele>
        <time>2021-07-19T07:36:50Z</time>
      </trkpt>
      <trkpt lat="45.47951" lon="4.78432">
        <ele>114.14821</ele>
        <time>2021-07-19T07:36:51Z</time>
      </trkpt>
      <trkpt lat="45.47948" lon="4.7843">
        <ele>114.10593</ele>
        <time>2021-07-19T07:36:52Z</time>
      </trkpt>
      <trkpt lat="45.47947" lon="4.78429">
        <ele>114.09007</ele>
        <time>2021-07-19T07:36:53Z</time>
      </trkpt>
      <trkpt lat="45.47947" lon="4.78426">
        <ele>113.376656</ele>
        <time>2021-07-19T07:36:54Z</time>
      </trkpt>
      <trkpt lat="45.47947" lon="4.78426">
        <ele>114.031944</ele>
        <time>2021-07-19T07:36:55Z</time>
      </trkpt>
      <trkpt lat="45.47947" lon="4.78426">
        <ele>114.28032</ele>
        <time>2021-07-19T07:36:56Z</time>
      </trkpt>
      <trkpt lat="45.47947" lon="4.78426">
        <ele>114.30146</ele>
        <time>2021-07-19T07:36:57Z</time>
      </trkpt>
      <trkpt lat="45.47947" lon="4.78426">
        <ele>114.259186</ele>
        <time>2021-07-19T07:36:58Z</time>
      </trkpt>
      <trkpt lat="45.47948" lon="4.78417">
        <ele>114.26976</ele>
        <time>2021-07-19T07:36:59Z</time>
      </trkpt>
      <trkpt lat="45.47948" lon="4.78417">
        <ele>114.26976</ele>
        <time>2021-07-19T07:36:59Z</time>
      </trkpt>
      <trkpt lat="45.47948" lon="4.78417">
        <ele>114.26976</ele>
        <time>2021-07-19T07:36:59Z</time>
      </trkpt>
      <trkpt lat="45.47937" lon="4.78359">
        <ele>113.40307</ele>
        <time>2021-07-19T07:37:15Z</time>
      </trkpt>
      <trkpt lat="45.47934" lon="4.78352">
        <ele>113.32381</ele>
        <time>2021-07-19T07:37:16Z</time>
      </trkpt>
      <trkpt lat="45.47931" lon="4.78344">
        <ele>113.26038</ele>
        <time>2021-07-19T07:37:17Z</time>
      </trkpt>
      <trkpt lat="45.47928" lon="4.78337">
        <ele>113.149414</ele>
        <time>2021-07-19T07:37:18Z</time>
      </trkpt>
      <trkpt lat="45.47926" lon="4.7833">
        <ele>113.41892</ele>
        <time>2021-07-19T07:37:19Z</time>
      </trkpt>
      <trkpt lat="45.47922" lon="4.78324">
        <ele>113.4982</ele>
        <time>2021-07-19T07:37:20Z</time>
      </trkpt>
      <trkpt lat="45.47918" lon="4.7832">
        <ele>113.477066</ele>
        <time>2021-07-19T07:37:21Z</time>
      </trkpt>
      <trkpt lat="45.47914" lon="4.78316">
        <ele>113.27096</ele>
        <time>2021-07-19T07:37:22Z</time>
      </trkpt>
      <trkpt lat="45.47909" lon="4.7831">
        <ele>113.35023</ele>
        <time>2021-07-19T07:37:23Z</time>
      </trkpt>
      <trkpt lat="45.47905" lon="4.78309">
        <ele>113.41892</ele>
        <time>2021-07-19T07:37:24Z</time>
      </trkpt>
      <trkpt lat="45.479" lon="4.78306">
        <ele>113.42422</ele>
        <time>2021-07-19T07:37:25Z</time>
      </trkpt>
      <trkpt lat="45.47896" lon="4.78305">
        <ele>113.482346</ele>
        <time>2021-07-19T07:37:26Z</time>
      </trkpt>
      <trkpt lat="45.47893" lon="4.78303">
        <ele>113.477066</ele>
        <time>2021-07-19T07:37:27Z</time>
      </trkpt>
      <trkpt lat="45.47889" lon="4.78301">
        <ele>113.540474</ele>
        <time>2021-07-19T07:37:28Z</time>
      </trkpt>
      <trkpt lat="45.47885" lon="4.783">
        <ele>113.60389</ele>
        <time>2021-07-19T07:37:29Z</time>
      </trkpt>
      <trkpt lat="45.47881" lon="4.78296">
        <ele>113.75186</ele>
        <time>2021-07-19T07:37:30Z</time>
      </trkpt>
      <trkpt lat="45.47877" lon="4.7829">
        <ele>113.85755</ele>
        <time>2021-07-19T07:37:31Z</time>
      </trkpt>
      <trkpt lat="45.47875" lon="4.78283">
        <ele>113.81528</ele>
        <time>2021-07-19T07:37:32Z</time>
      </trkpt>
      <trkpt lat="45.47871" lon="4.78277">
        <ele>113.90511</ele>
        <time>2021-07-19T07:37:33Z</time>
      </trkpt>
      <trkpt lat="45.47868" lon="4.78272">
        <ele>114.11122</ele>
        <time>2021-07-19T07:37:34Z</time>
      </trkpt>
      <trkpt lat="45.47864" lon="4.78267">
        <ele>114.031944</ele>
        <time>2021-07-19T07:37:35Z</time>
      </trkpt>
      <trkpt lat="45.4786" lon="4.78262">
        <ele>113.96324</ele>
        <time>2021-07-19T07:37:36Z</time>
      </trkpt>
      <trkpt lat="45.47855" lon="4.78256">
        <ele>113.89983</ele>
        <time>2021-07-19T07:37:37Z</time>
      </trkpt>
      <trkpt lat="45.4785" lon="4.7825">
        <ele>114.20634</ele>
        <time>2021-07-19T07:37:38Z</time>
      </trkpt>
      <trkpt lat="45.47845" lon="4.78246">
        <ele>114.01609</ele>
        <time>2021-07-19T07:37:39Z</time>
      </trkpt>
      <trkpt lat="45.4784" lon="4.78242">
        <ele>113.7043</ele>
        <time>2021-07-19T07:37:40Z</time>
      </trkpt>
      <trkpt lat="45.47836" lon="4.78242">
        <ele>113.60918</ele>
        <time>2021-07-19T07:37:41Z</time>
      </trkpt>
      <trkpt lat="45.47834" lon="4.78242">
        <ele>113.5669</ele>
        <time>2021-07-19T07:37:42Z</time>
      </trkpt>
      <trkpt lat="45.47832" lon="4.78241">
        <ele>113.44535</ele>
        <time>2021-07-19T07:37:43Z</time>
      </trkpt>
      <trkpt lat="45.47829" lon="4.78241">
        <ele>113.38722</ele>
        <time>2021-07-19T07:37:44Z</time>
      </trkpt>
      <trkpt lat="45.47826" lon="4.78241">
        <ele>113.26038</ele>
        <time>2021-07-19T07:37:45Z</time>
      </trkpt>
      <trkpt lat="45.47823" lon="4.7824">
        <ele>113.249825</ele>
        <time>2021-07-19T07:37:46Z</time>
      </trkpt>
      <trkpt lat="45.47819" lon="4.78239">
        <ele>113.28681</ele>
        <time>2021-07-19T07:37:47Z</time>
      </trkpt>
      <trkpt lat="45.47814" lon="4.78237">
        <ele>113.255104</ele>
        <time>2021-07-19T07:37:48Z</time>
      </trkpt>
      <trkpt lat="45.47809" lon="4.78235">
        <ele>113.27096</ele>
        <time>2021-07-19T07:37:49Z</time>
      </trkpt>
      <trkpt lat="45.47802" lon="4.78233">
        <ele>113.19169</ele>
        <time>2021-07-19T07:37:50Z</time>
      </trkpt>
      <trkpt lat="45.47795" lon="4.78231">
        <ele>113.16527</ele>
        <time>2021-07-19T07:37:51Z</time>
      </trkpt>
      <trkpt lat="45.47787" lon="4.78228">
        <ele>113.31853</ele>
        <time>2021-07-19T07:37:52Z</time>
      </trkpt>
      <trkpt lat="45.4778" lon="4.78226">
        <ele>113.38722</ele>
        <time>2021-07-19T07:37:53Z</time>
      </trkpt>
      <trkpt lat="45.47773" lon="4.78223">
        <ele>113.40836</ele>
        <time>2021-07-19T07:37:54Z</time>
      </trkpt>
      <trkpt lat="45.47767" lon="4.78221">
        <ele>113.43478</ele>
        <time>2021-07-19T07:37:55Z</time>
      </trkpt>
      <trkpt lat="45.47761" lon="4.78219">
        <ele>113.667305</ele>
        <time>2021-07-19T07:37:56Z</time>
      </trkpt>
      <trkpt lat="45.47755" lon="4.78217">
        <ele>113.59332</ele>
        <time>2021-07-19T07:37:57Z</time>
      </trkpt>
      <trkpt lat="45.47749" lon="4.78214">
        <ele>113.52991</ele>
        <time>2021-07-19T07:37:58Z</time>
      </trkpt>
      <trkpt lat="45.47744" lon="4.78211">
        <ele>113.57746</ele>
        <time>2021-07-19T07:37:59Z</time>
      </trkpt>
      <trkpt lat="45.47738" lon="4.78208">
        <ele>113.56161</ele>
        <time>2021-07-19T07:38:00Z</time>
      </trkpt>
      <trkpt lat="45.47733" lon="4.78206">
        <ele>113.56161</ele>
        <time>2021-07-19T07:38:01Z</time>
      </trkpt>
      <trkpt lat="45.47727" lon="4.78204">
        <ele>113.40836</ele>
        <time>2021-07-19T07:38:02Z</time>
      </trkpt>
      <trkpt lat="45.47722" lon="4.78202">
        <ele>113.41892</ele>
        <time>2021-07-19T07:38:03Z</time>
      </trkpt>
      <trkpt lat="45.47717" lon="4.78201">
        <ele>113.52991</ele>
        <time>2021-07-19T07:38:04Z</time>
      </trkpt>
      <trkpt lat="45.47712" lon="4.78199">
        <ele>113.55633</ele>
        <time>2021-07-19T07:38:05Z</time>
      </trkpt>
      <trkpt lat="45.47707" lon="4.78198">
        <ele>113.5669</ele>
        <time>2021-07-19T07:38:06Z</time>
      </trkpt>
      <trkpt lat="45.47701" lon="4.78198">
        <ele>113.72544</ele>
        <time>2021-07-19T07:38:07Z</time>
      </trkpt>
      <trkpt lat="45.47694" lon="4.78197">
        <ele>113.667305</ele>
        <time>2021-07-19T07:38:08Z</time>
      </trkpt>
      <trkpt lat="45.47688" lon="4.78196">
        <ele>113.588036</ele>
        <time>2021-07-19T07:38:09Z</time>
      </trkpt>
      <trkpt lat="45.47682" lon="4.78194">
        <ele>113.65674</ele>
        <time>2021-07-19T07:38:10Z</time>
      </trkpt>
      <trkpt lat="45.47675" lon="4.78191">
        <ele>113.4982</ele>
        <time>2021-07-19T07:38:11Z</time>
      </trkpt>
      <trkpt lat="45.47669" lon="4.78187">
        <ele>113.36608</ele>
        <time>2021-07-19T07:38:12Z</time>
      </trkpt>
      <trkpt lat="45.47664" lon="4.78182">
        <ele>113.36608</ele>
        <time>2021-07-19T07:38:13Z</time>
      </trkpt>
      <trkpt lat="45.47662" lon="4.78176">
        <ele>113.355515</ele>
        <time>2021-07-19T07:38:14Z</time>
      </trkpt>
      <trkpt lat="45.47662" lon="4.78171">
        <ele>113.37137</ele>
        <time>2021-07-19T07:38:15Z</time>
      </trkpt>
      <trkpt lat="45.47664" lon="4.78165">
        <ele>113.45064</ele>
        <time>2021-07-19T07:38:16Z</time>
      </trkpt>
      <trkpt lat="45.47664" lon="4.78157">
        <ele>113.57218</ele>
        <time>2021-07-19T07:38:17Z</time>
      </trkpt>
      <trkpt lat="45.47666" lon="4.78147">
        <ele>113.508766</ele>
        <time>2021-07-19T07:38:18Z</time>
      </trkpt>
      <trkpt lat="45.47668" lon="4.78138">
        <ele>113.51405</ele>
        <time>2021-07-19T07:38:19Z</time>
      </trkpt>
      <trkpt lat="45.4767" lon="4.78131">
        <ele>113.43478</ele>
        <time>2021-07-19T07:38:20Z</time>
      </trkpt>
      <trkpt lat="45.47671" lon="4.78123">
        <ele>113.41364</ele>
        <time>2021-07-19T07:38:21Z</time>
      </trkpt>
      <trkpt lat="45.4767" lon="4.78113">
        <ele>113.39779</ele>
        <time>2021-07-19T07:38:22Z</time>
      </trkpt>
      <trkpt lat="45.47668" lon="4.78106">
        <ele>113.39251</ele>
        <time>2021-07-19T07:38:23Z</time>
      </trkpt>
      <trkpt lat="45.47664" lon="4.78102">
        <ele>113.149414</ele>
        <time>2021-07-19T07:38:24Z</time>
      </trkpt>
      <trkpt lat="45.4766" lon="4.78097">
        <ele>113.02786</ele>
        <time>2021-07-19T07:38:25Z</time>
      </trkpt>
      <trkpt lat="45.47657" lon="4.78095">
        <ele>112.78477</ele>
        <time>2021-07-19T07:38:26Z</time>
      </trkpt>
      <trkpt lat="45.47656" lon="4.78094">
        <ele>112.69493</ele>
        <time>2021-07-19T07:38:27Z</time>
      </trkpt>
      <trkpt lat="45.47655" lon="4.78093">
        <ele>112.67908</ele>
        <time>2021-07-19T07:38:28Z</time>
      </trkpt>
      <trkpt lat="45.47654" lon="4.7809">
        <ele>112.62623</ele>
        <time>2021-07-19T07:38:29Z</time>
      </trkpt>
      <trkpt lat="45.47652" lon="4.78088">
        <ele>112.73192</ele>
        <time>2021-07-19T07:38:30Z</time>
      </trkpt>
      <trkpt lat="45.47652" lon="4.78087">
        <ele>112.69493</ele>
        <time>2021-07-19T07:38:31Z</time>
      </trkpt>
      <trkpt lat="45.47651" lon="4.78085">
        <ele>112.64738</ele>
        <time>2021-07-19T07:38:32Z</time>
      </trkpt>
      <trkpt lat="45.4765" lon="4.78084">
        <ele>112.56282</ele>
        <time>2021-07-19T07:38:33Z</time>
      </trkpt>
      <trkpt lat="45.47649" lon="4.78083">
        <ele>112.49412</ele>
        <time>2021-07-19T07:38:34Z</time>
      </trkpt>
      <trkpt lat="45.47648" lon="4.78082">
        <ele>112.53639</ele>
        <time>2021-07-19T07:38:35Z</time>
      </trkpt>
      <trkpt lat="45.47648" lon="4.78081">
        <ele>112.557526</ele>
        <time>2021-07-19T07:38:36Z</time>
      </trkpt>
      <trkpt lat="45.47648" lon="4.78081">
        <ele>112.48354</ele>
        <time>2021-07-19T07:38:37Z</time>
      </trkpt>
      <trkpt lat="45.47646" lon="4.7808">
        <ele>112.49412</ele>
        <time>2021-07-19T07:38:38Z</time>
      </trkpt>
      <trkpt lat="45.47646" lon="4.7808">
        <ele>112.49412</ele>
        <time>2021-07-19T07:38:38Z</time>
      </trkpt>
      <trkpt lat="45.47646" lon="4.7808">
        <ele>112.49412</ele>
        <time>2021-07-19T07:38:38Z</time>
      </trkpt>
      <trkpt lat="45.47576" lon="4.78035">
        <ele>113.24453</ele>
        <time>2021-07-19T07:39:23Z</time>
      </trkpt>
      <trkpt lat="45.47574" lon="4.78034">
        <ele>113.255104</ele>
        <time>2021-07-19T07:39:24Z</time>
      </trkpt>
      <trkpt lat="45.47572" lon="4.78033">
        <ele>113.2234</ele>
        <time>2021-07-19T07:39:25Z</time>
      </trkpt>
      <trkpt lat="45.4757" lon="4.78033">
        <ele>113.149414</ele>
        <time>2021-07-19T07:39:26Z</time>
      </trkpt>
      <trkpt lat="45.4757" lon="4.78033">
        <ele>113.12299</ele>
        <time>2021-07-19T07:39:27Z</time>
      </trkpt>
      <trkpt lat="45.4757" lon="4.78033">
        <ele>113.08071</ele>
        <time>2021-07-19T07:39:28Z</time>
      </trkpt>
      <trkpt lat="45.4757" lon="4.78033">
        <ele>113.00673</ele>
        <time>2021-07-19T07:39:29Z</time>
      </trkpt>
      <trkpt lat="45.4757" lon="4.78033">
        <ele>112.93275</ele>
        <time>2021-07-19T07:39:30Z</time>
      </trkpt>
      <trkpt lat="45.47565" lon="4.7803">
        <ele>112.93275</ele>
        <time>2021-07-19T07:39:31Z</time>
      </trkpt>
      <trkpt lat="45.47565" lon="4.7803">
        <ele>112.93275</ele>
        <time>2021-07-19T07:39:31Z</time>
      </trkpt>
      <trkpt lat="45.47565" lon="4.7803">
        <ele>112.93275</ele>
        <time>2021-07-19T07:39:31Z</time>
      </trkpt>
      <trkpt lat="45.47544" lon="4.78005">
        <ele>112.916885</ele>
        <time>2021-07-19T07:39:40Z</time>
      </trkpt>
      <trkpt lat="45.4754" lon="4.78003">
        <ele>112.80062</ele>
        <time>2021-07-19T07:39:41Z</time>
      </trkpt>
      <trkpt lat="45.47535" lon="4.77997">
        <ele>112.9803</ele>
        <time>2021-07-19T07:39:42Z</time>
      </trkpt>
      <trkpt lat="45.47532" lon="4.77996">
        <ele>112.90103</ele>
        <time>2021-07-19T07:39:43Z</time>
      </trkpt>
      <trkpt lat="45.47527" lon="4.77993">
        <ele>112.97501</ele>
        <time>2021-07-19T07:39:44Z</time>
      </trkpt>
      <trkpt lat="45.47521" lon="4.77989">
        <ele>113.07543</ele>
        <time>2021-07-19T07:39:45Z</time>
      </trkpt>
      <trkpt lat="45.47516" lon="4.77985">
        <ele>113.03314</ele>
        <time>2021-07-19T07:39:46Z</time>
      </trkpt>
      <trkpt lat="45.4751" lon="4.77981">
        <ele>112.98559</ele>
        <time>2021-07-19T07:39:47Z</time>
      </trkpt>
      <trkpt lat="45.47505" lon="4.77978">
        <ele>112.964455</ele>
        <time>2021-07-19T07:39:48Z</time>
      </trkpt>
      <trkpt lat="45.47501" lon="4.77976">
        <ele>112.95388</ele>
        <time>2021-07-19T07:39:49Z</time>
      </trkpt>
      <trkpt lat="45.47498" lon="4.77973">
        <ele>112.86932</ele>
        <time>2021-07-19T07:39:50Z</time>
      </trkpt>
      <trkpt lat="45.47493" lon="4.77971">
        <ele>112.76363</ele>
        <time>2021-07-19T07:39:51Z</time>
      </trkpt>
      <trkpt lat="45.4749" lon="4.77968">
        <ele>112.77949</ele>
        <time>2021-07-19T07:39:52Z</time>
      </trkpt>
      <trkpt lat="45.47485" lon="4.77966">
        <ele>112.77421</ele>
        <time>2021-07-19T07:39:53Z</time>
      </trkpt>
      <trkpt lat="45.4748" lon="4.77965">
        <ele>112.73192</ele>
        <time>2021-07-19T07:39:54Z</time>
      </trkpt>
      <trkpt lat="45.47476" lon="4.77962">
        <ele>112.63152</ele>
        <time>2021-07-19T07:39:55Z</time>
      </trkpt>
      <trkpt lat="45.47473" lon="4.77957">
        <ele>112.54168</ele>
        <time>2021-07-19T07:39:56Z</time>
      </trkpt>
      <trkpt lat="45.47468" lon="4.77953">
        <ele>112.58924</ele>
        <time>2021-07-19T07:39:57Z</time>
      </trkpt>
      <trkpt lat="45.47463" lon="4.77949">
        <ele>112.504684</ele>
        <time>2021-07-19T07:39:58Z</time>
      </trkpt>
      <trkpt lat="45.4746" lon="4.77944">
        <ele>112.21403</ele>
        <time>2021-07-19T07:39:59Z</time>
      </trkpt>
      <trkpt lat="45.47458" lon="4.77941">
        <ele>112.2563</ele>
        <time>2021-07-19T07:40:00Z</time>
      </trkpt>
      <trkpt lat="45.47458" lon="4.77938">
        <ele>112.37785</ele>
        <time>2021-07-19T07:40:01Z</time>
      </trkpt>
      <trkpt lat="45.47456" lon="4.77936">
        <ele>112.41484</ele>
        <time>2021-07-19T07:40:02Z</time>
      </trkpt>
      <trkpt lat="45.47455" lon="4.77934">
        <ele>112.48884</ele>
        <time>2021-07-19T07:40:03Z</time>
      </trkpt>
      <trkpt lat="45.47454" lon="4.77933">
        <ele>112.62095</ele>
        <time>2021-07-19T07:40:04Z</time>
      </trkpt>
      <trkpt lat="45.47451" lon="4.77932">
        <ele>112.710785</ele>
        <time>2021-07-19T07:40:05Z</time>
      </trkpt>
      <trkpt lat="45.4745" lon="4.77931">
        <ele>112.811195</ele>
        <time>2021-07-19T07:40:06Z</time>
      </trkpt>
      <trkpt lat="45.47448" lon="4.7793">
        <ele>112.92217</ele>
        <time>2021-07-19T07:40:07Z</time>
      </trkpt>
      <trkpt lat="45.47446" lon="4.77931">
        <ele>113.03844</ele>
        <time>2021-07-19T07:40:08Z</time>
      </trkpt>
      <trkpt lat="45.47444" lon="4.7793">
        <ele>112.92217</ele>
        <time>2021-07-19T07:40:09Z</time>
      </trkpt>
      <trkpt lat="45.47443" lon="4.77928">
        <ele>113.07543</ele>
        <time>2021-07-19T07:40:10Z</time>
      </trkpt>
      <trkpt lat="45.4744" lon="4.77926">
        <ele>113.26038</ele>
        <time>2021-07-19T07:40:11Z</time>
      </trkpt>
      <trkpt lat="45.47437" lon="4.77924">
        <ele>113.2921</ele>
        <time>2021-07-19T07:40:12Z</time>
      </trkpt>
      <trkpt lat="45.47435" lon="4.77922">
        <ele>113.34494</ele>
        <time>2021-07-19T07:40:13Z</time>
      </trkpt>
      <trkpt lat="45.47431" lon="4.77921">
        <ele>113.39779</ele>
        <time>2021-07-19T07:40:14Z</time>
      </trkpt>
      <trkpt lat="45.47426" lon="4.77919">
        <ele>113.582756</ele>
        <time>2021-07-19T07:40:15Z</time>
      </trkpt>
      <trkpt lat="45.47421" lon="4.77917">
        <ele>113.60389</ele>
        <time>2021-07-19T07:40:16Z</time>
      </trkpt>
      <trkpt lat="45.47416" lon="4.77916">
        <ele>113.52991</ele>
        <time>2021-07-19T07:40:17Z</time>
      </trkpt>
      <trkpt lat="45.47411" lon="4.77916">
        <ele>113.7043</ele>
        <time>2021-07-19T07:40:18Z</time>
      </trkpt>
      <trkpt lat="45.47404" lon="4.77914">
        <ele>113.65674</ele>
        <time>2021-07-19T07:40:19Z</time>
      </trkpt>
      <trkpt lat="45.47398" lon="4.77912">
        <ele>113.67787</ele>
        <time>2021-07-19T07:40:20Z</time>
      </trkpt>
      <trkpt lat="45.47391" lon="4.7791">
        <ele>113.54576</ele>
        <time>2021-07-19T07:40:21Z</time>
      </trkpt>
      <trkpt lat="45.47386" lon="4.77907">
        <ele>113.67787</ele>
        <time>2021-07-19T07:40:22Z</time>
      </trkpt>
      <trkpt lat="45.47381" lon="4.77906">
        <ele>113.614456</ele>
        <time>2021-07-19T07:40:23Z</time>
      </trkpt>
      <trkpt lat="45.47377" lon="4.77904">
        <ele>113.45592</ele>
        <time>2021-07-19T07:40:24Z</time>
      </trkpt>
      <trkpt lat="45.47373" lon="4.77902">
        <ele>113.42422</ele>
        <time>2021-07-19T07:40:25Z</time>
      </trkpt>
      <trkpt lat="45.47369" lon="4.779">
        <ele>113.355515</ele>
        <time>2021-07-19T07:40:26Z</time>
      </trkpt>
      <trkpt lat="45.47365" lon="4.77899">
        <ele>113.17055</ele>
        <time>2021-07-19T07:40:27Z</time>
      </trkpt>
      <trkpt lat="45.47363" lon="4.77898">
        <ele>113.13356</ele>
        <time>2021-07-19T07:40:28Z</time>
      </trkpt>
      <trkpt lat="45.47361" lon="4.77898">
        <ele>113.202255</ele>
        <time>2021-07-19T07:40:29Z</time>
      </trkpt>
      <trkpt lat="45.47359" lon="4.77897">
        <ele>113.12299</ele>
        <time>2021-07-19T07:40:30Z</time>
      </trkpt>
      <trkpt lat="45.47356" lon="4.77896">
        <ele>113.17584</ele>
        <time>2021-07-19T07:40:31Z</time>
      </trkpt>
      <trkpt lat="45.47353" lon="4.77895">
        <ele>113.196976</ele>
        <time>2021-07-19T07:40:32Z</time>
      </trkpt>
      <trkpt lat="45.47352" lon="4.77893">
        <ele>113.22868</ele>
        <time>2021-07-19T07:40:33Z</time>
      </trkpt>
      <trkpt lat="45.4735" lon="4.77892">
        <ele>113.27096</ele>
        <time>2021-07-19T07:40:34Z</time>
      </trkpt>
      <trkpt lat="45.47348" lon="4.77891">
        <ele>113.255104</ele>
        <time>2021-07-19T07:40:35Z</time>
      </trkpt>
      <trkpt lat="45.47346" lon="4.7789">
        <ele>113.24453</ele>
        <time>2021-07-19T07:40:36Z</time>
      </trkpt>
      <trkpt lat="45.47343" lon="4.77889">
        <ele>113.28153</ele>
        <time>2021-07-19T07:40:37Z</time>
      </trkpt>
      <trkpt lat="45.47339" lon="4.77889">
        <ele>113.1864</ele>
        <time>2021-07-19T07:40:38Z</time>
      </trkpt>
      <trkpt lat="45.47334" lon="4.77889">
        <ele>113.00673</ele>
        <time>2021-07-19T07:40:39Z</time>
      </trkpt>
      <trkpt lat="45.47329" lon="4.77888">
        <ele>113.10714</ele>
        <time>2021-07-19T07:40:40Z</time>
      </trkpt>
      <trkpt lat="45.47323" lon="4.77886">
        <ele>113.11242</ele>
        <time>2021-07-19T07:40:41Z</time>
      </trkpt>
      <trkpt lat="45.47318" lon="4.77885">
        <ele>113.10714</ele>
        <time>2021-07-19T07:40:42Z</time>
      </trkpt>
      <trkpt lat="45.47312" lon="4.77883">
        <ele>113.23397</ele>
        <time>2021-07-19T07:40:43Z</time>
      </trkpt>
      <trkpt lat="45.47307" lon="4.77881">
        <ele>112.98559</ele>
        <time>2021-07-19T07:40:44Z</time>
      </trkpt>
      <trkpt lat="45.47302" lon="4.7788">
        <ele>113.10714</ele>
        <time>2021-07-19T07:40:45Z</time>
      </trkpt>
      <trkpt lat="45.47297" lon="4.77878">
        <ele>113.149414</ele>
        <time>2021-07-19T07:40:46Z</time>
      </trkpt>
      <trkpt lat="45.47291" lon="4.77875">
        <ele>113.08599</ele>
        <time>2021-07-19T07:40:47Z</time>
      </trkpt>
      <trkpt lat="45.47285" lon="4.77872">
        <ele>113.049</ele>
        <time>2021-07-19T07:40:48Z</time>
      </trkpt>
      <trkpt lat="45.47279" lon="4.77871">
        <ele>112.85347</ele>
        <time>2021-07-19T07:40:49Z</time>
      </trkpt>
      <trkpt lat="45.47274" lon="4.77869">
        <ele>112.583954</ele>
        <time>2021-07-19T07:40:50Z</time>
      </trkpt>
      <trkpt lat="45.47271" lon="4.77867">
        <ele>112.583954</ele>
        <time>2021-07-19T07:40:51Z</time>
      </trkpt>
      <trkpt lat="45.47268" lon="4.77865">
        <ele>112.53639</ele>
        <time>2021-07-19T07:40:52Z</time>
      </trkpt>
      <trkpt lat="45.47266" lon="4.77864">
        <ele>112.451836</ele>
        <time>2021-07-19T07:40:53Z</time>
      </trkpt>
      <trkpt lat="45.47266" lon="4.77864">
        <ele>112.4307</ele>
        <time>2021-07-19T07:40:54Z</time>
      </trkpt>
      <trkpt lat="45.47263" lon="4.77861">
        <ele>112.37785</ele>
        <time>2021-07-19T07:40:55Z</time>
      </trkpt>
      <trkpt lat="45.4726" lon="4.77858">
        <ele>112.446556</ele>
        <time>2021-07-19T07:40:56Z</time>
      </trkpt>
      <trkpt lat="45.47258" lon="4.77854">
        <ele>112.61567</ele>
        <time>2021-07-19T07:40:57Z</time>
      </trkpt>
      <trkpt lat="45.47255" lon="4.77851">
        <ele>112.68965</ele>
        <time>2021-07-19T07:40:58Z</time>
      </trkpt>
      <trkpt lat="45.47252" lon="4.77847">
        <ele>112.85876</ele>
        <time>2021-07-19T07:40:59Z</time>
      </trkpt>
      <trkpt lat="45.4725" lon="4.77843">
        <ele>113.1177</ele>
        <time>2021-07-19T07:41:00Z</time>
      </trkpt>
      <trkpt lat="45.47247" lon="4.7784">
        <ele>113.26038</ele>
        <time>2021-07-19T07:41:01Z</time>
      </trkpt>
      <trkpt lat="45.47243" lon="4.77837">
        <ele>113.2921</ele>
        <time>2021-07-19T07:41:02Z</time>
      </trkpt>
      <trkpt lat="45.4724" lon="4.77834">
        <ele>113.45064</ele>
        <time>2021-07-19T07:41:03Z</time>
      </trkpt>
      <trkpt lat="45.47236" lon="4.77831">
        <ele>113.73072</ele>
        <time>2021-07-19T07:41:04Z</time>
      </trkpt>
      <trkpt lat="45.47233" lon="4.77829">
        <ele>113.96854</ele>
        <time>2021-07-19T07:41:05Z</time>
      </trkpt>
      <trkpt lat="45.4723" lon="4.77827">
        <ele>114.11122</ele>
        <time>2021-07-19T07:41:06Z</time>
      </trkpt>
      <trkpt lat="45.47227" lon="4.77824">
        <ele>114.317314</ele>
        <time>2021-07-19T07:41:07Z</time>
      </trkpt>
      <trkpt lat="45.47223" lon="4.7782">
        <ele>114.39659</ele>
        <time>2021-07-19T07:41:08Z</time>
      </trkpt>
      <trkpt lat="45.47219" lon="4.77817">
        <ele>114.61326</ele>
        <time>2021-07-19T07:41:09Z</time>
      </trkpt>
      <trkpt lat="45.47215" lon="4.77814">
        <ele>114.96204</ele>
        <time>2021-07-19T07:41:10Z</time>
      </trkpt>
      <trkpt lat="45.47211" lon="4.7781">
        <ele>114.99375</ele>
        <time>2021-07-19T07:41:11Z</time>
      </trkpt>
      <trkpt lat="45.47208" lon="4.77807">
        <ele>115.22627</ele>
        <time>2021-07-19T07:41:12Z</time>
      </trkpt>
      <trkpt lat="45.47205" lon="4.77804">
        <ele>115.395386</ele>
        <time>2021-07-19T07:41:13Z</time>
      </trkpt>
      <trkpt lat="45.47201" lon="4.77801">
        <ele>115.50108</ele>
        <time>2021-07-19T07:41:14Z</time>
      </trkpt>
      <trkpt lat="45.47198" lon="4.77798">
        <ele>115.65962</ele>
        <time>2021-07-19T07:41:15Z</time>
      </trkpt>
      <trkpt lat="45.47195" lon="4.77796">
        <ele>115.76531</ele>
        <time>2021-07-19T07:41:16Z</time>
      </trkpt>
      <trkpt lat="45.47191" lon="4.77794">
        <ele>115.7019</ele>
        <time>2021-07-19T07:41:17Z</time>
      </trkpt>
      <trkpt lat="45.47188" lon="4.77791">
        <ele>115.38481</ele>
        <time>2021-07-19T07:41:18Z</time>
      </trkpt>
      <trkpt lat="45.47186" lon="4.77789">
        <ele>115.321396</ele>
        <time>2021-07-19T07:41:19Z</time>
      </trkpt>
      <trkpt lat="45.47185" lon="4.77788">
        <ele>115.33197</ele>
        <time>2021-07-19T07:41:20Z</time>
      </trkpt>
      <trkpt lat="45.47184" lon="4.77788">
        <ele>115.26327</ele>
        <time>2021-07-19T07:41:21Z</time>
      </trkpt>
      <trkpt lat="45.47184" lon="4.77788">
        <ele>115.30026</ele>
        <time>2021-07-19T07:41:22Z</time>
      </trkpt>
      <trkpt lat="45.47184" lon="4.77788">
        <ele>115.3901</ele>
        <time>2021-07-19T07:41:23Z</time>
      </trkpt>
      <trkpt lat="45.47184" lon="4.77787">
        <ele>115.4588</ele>
        <time>2021-07-19T07:41:24Z</time>
      </trkpt>
      <trkpt lat="45.47183" lon="4.77785">
        <ele>115.580345</ele>
        <time>2021-07-19T07:41:25Z</time>
      </trkpt>
      <trkpt lat="45.4718" lon="4.77782">
        <ele>115.72303</ele>
        <time>2021-07-19T07:41:26Z</time>
      </trkpt>
      <trkpt lat="45.47178" lon="4.77779">
        <ele>115.67547</ele>
        <time>2021-07-19T07:41:27Z</time>
      </trkpt>
      <trkpt lat="45.47175" lon="4.77777">
        <ele>115.74416</ele>
        <time>2021-07-19T07:41:28Z</time>
      </trkpt>
      <trkpt lat="45.47171" lon="4.77775">
        <ele>115.82872</ele>
        <time>2021-07-19T07:41:29Z</time>
      </trkpt>
      <trkpt lat="45.47168" lon="4.77772">
        <ele>115.9027</ele>
        <time>2021-07-19T07:41:30Z</time>
      </trkpt>
      <trkpt lat="45.47163" lon="4.7777">
        <ele>115.860435</ele>
        <time>2021-07-19T07:41:31Z</time>
      </trkpt>
      <trkpt lat="45.47159" lon="4.77768">
        <ele>116.02954</ele>
        <time>2021-07-19T07:41:32Z</time>
      </trkpt>
      <trkpt lat="45.47154" lon="4.77766">
        <ele>116.03483</ele>
        <time>2021-07-19T07:41:33Z</time>
      </trkpt>
      <trkpt lat="45.4715" lon="4.77764">
        <ele>116.03483</ele>
        <time>2021-07-19T07:41:34Z</time>
      </trkpt>
      <trkpt lat="45.47146" lon="4.77762">
        <ele>115.74946</ele>
        <time>2021-07-19T07:41:35Z</time>
      </trkpt>
      <trkpt lat="45.47142" lon="4.77761">
        <ele>115.575066</ele>
        <time>2021-07-19T07:41:36Z</time>
      </trkpt>
      <trkpt lat="45.47138" lon="4.77761">
        <ele>115.51693</ele>
        <time>2021-07-19T07:41:37Z</time>
      </trkpt>
      <trkpt lat="45.47135" lon="4.77763">
        <ele>115.31612</ele>
        <time>2021-07-19T07:41:38Z</time>
      </trkpt>
      <trkpt lat="45.47131" lon="4.77765">
        <ele>115.08359</ele>
        <time>2021-07-19T07:41:39Z</time>
      </trkpt>
      <trkpt lat="45.47126" lon="4.77767">
        <ele>115.02017</ele>
        <time>2021-07-19T07:41:40Z</time>
      </trkpt>
      <trkpt lat="45.47121" lon="4.77768">
        <ele>114.79293</ele>
        <time>2021-07-19T07:41:41Z</time>
      </trkpt>
      <trkpt lat="45.47115" lon="4.7777">
        <ele>114.803505</ele>
        <time>2021-07-19T07:41:42Z</time>
      </trkpt>
      <trkpt lat="45.47109" lon="4.77772">
        <ele>114.66082</ele>
        <time>2021-07-19T07:41:43Z</time>
      </trkpt>
      <trkpt lat="45.47104" lon="4.77775">
        <ele>114.4283</ele>
        <time>2021-07-19T07:41:44Z</time>
      </trkpt>
      <trkpt lat="45.47099" lon="4.77777">
        <ele>114.285614</ele>
        <time>2021-07-19T07:41:45Z</time>
      </trkpt>
      <trkpt lat="45.47096" lon="4.77778">
        <ele>114.259186</ele>
        <time>2021-07-19T07:41:46Z</time>
      </trkpt>
      <trkpt lat="45.47093" lon="4.77779">
        <ele>114.391304</ele>
        <time>2021-07-19T07:41:47Z</time>
      </trkpt>
      <trkpt lat="45.47091" lon="4.77779">
        <ele>114.232765</ele>
        <time>2021-07-19T07:41:48Z</time>
      </trkpt>
      <trkpt lat="45.47089" lon="4.77779">
        <ele>114.285614</ele>
        <time>2021-07-19T07:41:49Z</time>
      </trkpt>
      <trkpt lat="45.47089" lon="4.77779">
        <ele>114.312035</ele>
        <time>2021-07-19T07:41:50Z</time>
      </trkpt>
      <trkpt lat="45.47089" lon="4.7778">
        <ele>114.264465</ele>
        <time>2021-07-19T07:41:51Z</time>
      </trkpt>
      <trkpt lat="45.47088" lon="4.77779">
        <ele>114.312035</ele>
        <time>2021-07-19T07:41:52Z</time>
      </trkpt>
      <trkpt lat="45.47087" lon="4.77777">
        <ele>114.30675</ele>
        <time>2021-07-19T07:41:53Z</time>
      </trkpt>
      <trkpt lat="45.47085" lon="4.77775">
        <ele>114.29618</ele>
        <time>2021-07-19T07:41:54Z</time>
      </trkpt>
      <trkpt lat="45.47084" lon="4.77773">
        <ele>114.51285</ele>
        <time>2021-07-19T07:41:55Z</time>
      </trkpt>
      <trkpt lat="45.47082" lon="4.77771">
        <ele>114.35431</ele>
        <time>2021-07-19T07:41:56Z</time>
      </trkpt>
      <trkpt lat="45.47081" lon="4.77768">
        <ele>114.48643</ele>
        <time>2021-07-19T07:41:57Z</time>
      </trkpt>
      <trkpt lat="45.47078" lon="4.77767">
        <ele>114.50228</ele>
        <time>2021-07-19T07:41:58Z</time>
      </trkpt>
      <trkpt lat="45.47076" lon="4.77765">
        <ele>114.54984</ele>
        <time>2021-07-19T07:41:59Z</time>
      </trkpt>
      <trkpt lat="45.47073" lon="4.77764">
        <ele>114.49171</ele>
        <time>2021-07-19T07:42:00Z</time>
      </trkpt>
      <trkpt lat="45.47071" lon="4.77763">
        <ele>114.50228</ele>
        <time>2021-07-19T07:42:01Z</time>
      </trkpt>
      <trkpt lat="45.4707" lon="4.77764">
        <ele>114.364876</ele>
        <time>2021-07-19T07:42:02Z</time>
      </trkpt>
      <trkpt lat="45.47066" lon="4.77766">
        <ele>114.33317</ele>
        <time>2021-07-19T07:42:03Z</time>
      </trkpt>
      <trkpt lat="45.47063" lon="4.77771">
        <ele>114.44415</ele>
        <time>2021-07-19T07:42:04Z</time>
      </trkpt>
      <trkpt lat="45.47059" lon="4.77777">
        <ele>114.32789</ele>
        <time>2021-07-19T07:42:05Z</time>
      </trkpt>
      <trkpt lat="45.47056" lon="4.77781">
        <ele>114.22748</ele>
        <time>2021-07-19T07:42:06Z</time>
      </trkpt>
      <trkpt lat="45.47052" lon="4.77786">
        <ele>114.33846</ele>
        <time>2021-07-19T07:42:07Z</time>
      </trkpt>
      <trkpt lat="45.47049" lon="4.7779">
        <ele>114.312035</ele>
        <time>2021-07-19T07:42:08Z</time>
      </trkpt>
      <trkpt lat="45.47045" lon="4.77794">
        <ele>114.50756</ele>
        <time>2021-07-19T07:42:09Z</time>
      </trkpt>
      <trkpt lat="45.47041" lon="4.77798">
        <ele>114.38073</ele>
        <time>2021-07-19T07:42:10Z</time>
      </trkpt>
      <trkpt lat="45.47038" lon="4.77801">
        <ele>114.34902</ele>
        <time>2021-07-19T07:42:11Z</time>
      </trkpt>
      <trkpt lat="45.47036" lon="4.77804">
        <ele>114.24333</ele>
        <time>2021-07-19T07:42:12Z</time>
      </trkpt>
      <trkpt lat="45.47032" lon="4.77808">
        <ele>114.06894</ele>
        <time>2021-07-19T07:42:13Z</time>
      </trkpt>
      <trkpt lat="45.47028" lon="4.77815">
        <ele>114.07423</ele>
        <time>2021-07-19T07:42:14Z</time>
      </trkpt>
      <trkpt lat="45.47024" lon="4.7782">
        <ele>114.07423</ele>
        <time>2021-07-19T07:42:15Z</time>
      </trkpt>
      <trkpt lat="45.47021" lon="4.77826">
        <ele>114.10065</ele>
        <time>2021-07-19T07:42:16Z</time>
      </trkpt>
      <trkpt lat="45.47017" lon="4.77832">
        <ele>114.16935</ele>
        <time>2021-07-19T07:42:17Z</time>
      </trkpt>
      <trkpt lat="45.47014" lon="4.77839">
        <ele>114.127075</ele>
        <time>2021-07-19T07:42:18Z</time>
      </trkpt>
      <trkpt lat="45.47011" lon="4.77846">
        <ele>114.06365</ele>
        <time>2021-07-19T07:42:19Z</time>
      </trkpt>
      <trkpt lat="45.47009" lon="4.77851">
        <ele>113.973816</ele>
        <time>2021-07-19T07:42:20Z</time>
      </trkpt>
      <trkpt lat="45.47005" lon="4.77857">
        <ele>113.85227</ele>
        <time>2021-07-19T07:42:21Z</time>
      </trkpt>
      <trkpt lat="45.47001" lon="4.77862">
        <ele>113.41892</ele>
        <time>2021-07-19T07:42:22Z</time>
      </trkpt>
      <trkpt lat="45.46998" lon="4.77866">
        <ele>113.02786</ele>
        <time>2021-07-19T07:42:23Z</time>
      </trkpt>
      <trkpt lat="45.46992" lon="4.77866">
        <ele>112.82176</ele>
        <time>2021-07-19T07:42:24Z</time>
      </trkpt>
      <trkpt lat="45.46985" lon="4.77866">
        <ele>112.90632</ele>
        <time>2021-07-19T07:42:25Z</time>
      </trkpt>
      <trkpt lat="45.46977" lon="4.77866">
        <ele>112.85347</ele>
        <time>2021-07-19T07:42:26Z</time>
      </trkpt>
      <trkpt lat="45.46971" lon="4.77868">
        <ele>112.890465</ele>
        <time>2021-07-19T07:42:27Z</time>
      </trkpt>
      <trkpt lat="45.46965" lon="4.77869">
        <ele>112.86932</ele>
        <time>2021-07-19T07:42:28Z</time>
      </trkpt>
      <trkpt lat="45.46958" lon="4.77871">
        <ele>112.73192</ele>
        <time>2021-07-19T07:42:29Z</time>
      </trkpt>
      <trkpt lat="45.46951" lon="4.77871">
        <ele>112.73192</ele>
        <time>2021-07-19T07:42:30Z</time>
      </trkpt>
      <trkpt lat="45.46945" lon="4.77871">
        <ele>112.80062</ele>
        <time>2021-07-19T07:42:31Z</time>
      </trkpt>
      <trkpt lat="45.46939" lon="4.77871">
        <ele>112.80062</ele>
        <time>2021-07-19T07:42:32Z</time>
      </trkpt>
      <trkpt lat="45.46932" lon="4.77872">
        <ele>112.890465</ele>
        <time>2021-07-19T07:42:33Z</time>
      </trkpt>
      <trkpt lat="45.46925" lon="4.77872">
        <ele>112.996155</ele>
        <time>2021-07-19T07:42:34Z</time>
      </trkpt>
      <trkpt lat="45.46919" lon="4.77874">
        <ele>112.97501</ele>
        <time>2021-07-19T07:42:35Z</time>
      </trkpt>
      <trkpt lat="45.46913" lon="4.77875">
        <ele>112.8799</ele>
        <time>2021-07-19T07:42:36Z</time>
      </trkpt>
      <trkpt lat="45.46909" lon="4.77875">
        <ele>112.92217</ele>
        <time>2021-07-19T07:42:37Z</time>
      </trkpt>
      <trkpt lat="45.46903" lon="4.77876">
        <ele>112.716064</ele>
        <time>2021-07-19T07:42:38Z</time>
      </trkpt>
      <trkpt lat="45.46898" lon="4.77877">
        <ele>112.64738</ele>
        <time>2021-07-19T07:42:39Z</time>
      </trkpt>
      <trkpt lat="45.46893" lon="4.77878">
        <ele>112.39899</ele>
        <time>2021-07-19T07:42:40Z</time>
      </trkpt>
      <trkpt lat="45.46885" lon="4.77878">
        <ele>112.3303</ele>
        <time>2021-07-19T07:42:41Z</time>
      </trkpt>
      <trkpt lat="45.46879" lon="4.77881">
        <ele>112.50997</ele>
        <time>2021-07-19T07:42:42Z</time>
      </trkpt>
      <trkpt lat="45.46873" lon="4.77881">
        <ele>112.64738</ele>
        <time>2021-07-19T07:42:43Z</time>
      </trkpt>
      <trkpt lat="45.46867" lon="4.77883">
        <ele>112.605095</ele>
        <time>2021-07-19T07:42:44Z</time>
      </trkpt>
      <trkpt lat="45.46861" lon="4.77883">
        <ele>112.74249</ele>
        <time>2021-07-19T07:42:45Z</time>
      </trkpt>
      <trkpt lat="45.46856" lon="4.77887">
        <ele>112.85347</ele>
        <time>2021-07-19T07:42:46Z</time>
      </trkpt>
      <trkpt lat="45.4685" lon="4.77885">
        <ele>112.95916</ele>
        <time>2021-07-19T07:42:47Z</time>
      </trkpt>
      <trkpt lat="45.46845" lon="4.77886">
        <ele>112.9486</ele>
        <time>2021-07-19T07:42:48Z</time>
      </trkpt>
      <trkpt lat="45.4684" lon="4.77884">
        <ele>112.8746</ele>
        <time>2021-07-19T07:42:49Z</time>
      </trkpt>
      <trkpt lat="45.46833" lon="4.77885">
        <ele>112.79534</ele>
        <time>2021-07-19T07:42:50Z</time>
      </trkpt>
      <trkpt lat="45.46828" lon="4.77886">
        <ele>112.79006</ele>
        <time>2021-07-19T07:42:51Z</time>
      </trkpt>
      <trkpt lat="45.46822" lon="4.77887">
        <ele>112.89575</ele>
        <time>2021-07-19T07:42:52Z</time>
      </trkpt>
      <trkpt lat="45.46817" lon="4.77888">
        <ele>113.0173</ele>
        <time>2021-07-19T07:42:53Z</time>
      </trkpt>
      <trkpt lat="45.46811" lon="4.77889">
        <ele>113.14413</ele>
        <time>2021-07-19T07:42:54Z</time>
      </trkpt>
      <trkpt lat="45.46806" lon="4.7789">
        <ele>113.28681</ele>
        <time>2021-07-19T07:42:55Z</time>
      </trkpt>
      <trkpt lat="45.468" lon="4.77889">
        <ele>113.05429</ele>
        <time>2021-07-19T07:42:56Z</time>
      </trkpt>
      <trkpt lat="45.46795" lon="4.7789">
        <ele>113.1177</ele>
        <time>2021-07-19T07:42:57Z</time>
      </trkpt>
      <trkpt lat="45.46789" lon="4.77891">
        <ele>113.070145</ele>
        <time>2021-07-19T07:42:58Z</time>
      </trkpt>
      <trkpt lat="45.46783" lon="4.77893">
        <ele>113.03844</ele>
        <time>2021-07-19T07:42:59Z</time>
      </trkpt>
      <trkpt lat="45.46779" lon="4.77895">
        <ele>113.05957</ele>
        <time>2021-07-19T07:43:00Z</time>
      </trkpt>
      <trkpt lat="45.46774" lon="4.77897">
        <ele>112.97501</ele>
        <time>2021-07-19T07:43:01Z</time>
      </trkpt>
      <trkpt lat="45.46769" lon="4.77898">
        <ele>112.90103</ele>
        <time>2021-07-19T07:43:02Z</time>
      </trkpt>
      <trkpt lat="45.46764" lon="4.779">
        <ele>112.74249</ele>
        <time>2021-07-19T07:43:03Z</time>
      </trkpt>
      <trkpt lat="45.46759" lon="4.77902">
        <ele>112.79006</ele>
        <time>2021-07-19T07:43:04Z</time>
      </trkpt>
      <trkpt lat="45.46756" lon="4.77903">
        <ele>112.68965</ele>
        <time>2021-07-19T07:43:05Z</time>
      </trkpt>
      <trkpt lat="45.46753" lon="4.77904">
        <ele>112.76363</ele>
        <time>2021-07-19T07:43:06Z</time>
      </trkpt>
      <trkpt lat="45.4675" lon="4.77902">
        <ele>112.65266</ele>
        <time>2021-07-19T07:43:07Z</time>
      </trkpt>
      <trkpt lat="45.46748" lon="4.77901">
        <ele>112.552246</ele>
        <time>2021-07-19T07:43:08Z</time>
      </trkpt>
      <trkpt lat="45.46745" lon="4.77896">
        <ele>112.40428</ele>
        <time>2021-07-19T07:43:09Z</time>
      </trkpt>
      <trkpt lat="45.46742" lon="4.77893">
        <ele>112.39899</ele>
        <time>2021-07-19T07:43:10Z</time>
      </trkpt>
      <trkpt lat="45.46738" lon="4.77891">
        <ele>112.38314</ele>
        <time>2021-07-19T07:43:11Z</time>
      </trkpt>
      <trkpt lat="45.46735" lon="4.7789">
        <ele>112.22989</ele>
        <time>2021-07-19T07:43:12Z</time>
      </trkpt>
      <trkpt lat="45.46731" lon="4.77887">
        <ele>112.2933</ele>
        <time>2021-07-19T07:43:13Z</time>
      </trkpt>
      <trkpt lat="45.46727" lon="4.77884">
        <ele>112.28273</ele>
        <time>2021-07-19T07:43:14Z</time>
      </trkpt>
      <trkpt lat="45.46723" lon="4.77878">
        <ele>112.28273</ele>
        <time>2021-07-19T07:43:15Z</time>
      </trkpt>
      <trkpt lat="45.46718" lon="4.77873">
        <ele>112.3303</ele>
        <time>2021-07-19T07:43:16Z</time>
      </trkpt>
      <trkpt lat="45.46714" lon="4.77868">
        <ele>112.46241</ele>
        <time>2021-07-19T07:43:17Z</time>
      </trkpt>
      <trkpt lat="45.46709" lon="4.77863">
        <ele>112.525826</ele>
        <time>2021-07-19T07:43:18Z</time>
      </trkpt>
      <trkpt lat="45.46705" lon="4.77858">
        <ele>112.46241</ele>
        <time>2021-07-19T07:43:19Z</time>
      </trkpt>
      <trkpt lat="45.46701" lon="4.77853">
        <ele>112.46769</ele>
        <time>2021-07-19T07:43:20Z</time>
      </trkpt>
      <trkpt lat="45.46697" lon="4.77848">
        <ele>112.58924</ele>
        <time>2021-07-19T07:43:21Z</time>
      </trkpt>
      <trkpt lat="45.46694" lon="4.77842">
        <ele>112.54168</ele>
        <time>2021-07-19T07:43:22Z</time>
      </trkpt>
      <trkpt lat="45.46692" lon="4.77834">
        <ele>112.51525</ele>
        <time>2021-07-19T07:43:23Z</time>
      </trkpt>
      <trkpt lat="45.46688" lon="4.77828">
        <ele>112.605095</ele>
        <time>2021-07-19T07:43:24Z</time>
      </trkpt>
      <trkpt lat="45.46683" lon="4.77823">
        <ele>112.578674</ele>
        <time>2021-07-19T07:43:25Z</time>
      </trkpt>
      <trkpt lat="45.46678" lon="4.77817">
        <ele>112.58924</ele>
        <time>2021-07-19T07:43:26Z</time>
      </trkpt>
      <trkpt lat="45.46674" lon="4.77811">
        <ele>112.5681</ele>
        <time>2021-07-19T07:43:27Z</time>
      </trkpt>
      <trkpt lat="45.46671" lon="4.77804">
        <ele>112.48354</ele>
        <time>2021-07-19T07:43:28Z</time>
      </trkpt>
      <trkpt lat="45.46668" lon="4.77797">
        <ele>112.40428</ele>
        <time>2021-07-19T07:43:29Z</time>
      </trkpt>
      <trkpt lat="45.46664" lon="4.77791">
        <ele>112.48884</ele>
        <time>2021-07-19T07:43:30Z</time>
      </trkpt>
      <trkpt lat="45.4666" lon="4.77784">
        <ele>112.43599</ele>
        <time>2021-07-19T07:43:31Z</time>
      </trkpt>
      <trkpt lat="45.46655" lon="4.77778">
        <ele>112.298584</ele>
        <time>2021-07-19T07:43:32Z</time>
      </trkpt>
      <trkpt lat="45.4665" lon="4.77771">
        <ele>112.504684</ele>
        <time>2021-07-19T07:43:33Z</time>
      </trkpt>
      <trkpt lat="45.46646" lon="4.77765">
        <ele>112.605095</ele>
        <time>2021-07-19T07:43:34Z</time>
      </trkpt>
      <trkpt lat="45.46641" lon="4.7776">
        <ele>112.578674</ele>
        <time>2021-07-19T07:43:35Z</time>
      </trkpt>
      <trkpt lat="45.46637" lon="4.77755">
        <ele>112.66851</ele>
        <time>2021-07-19T07:43:36Z</time>
      </trkpt>
      <trkpt lat="45.46632" lon="4.7775">
        <ele>112.67908</ele>
        <time>2021-07-19T07:43:37Z</time>
      </trkpt>
      <trkpt lat="45.46627" lon="4.77744">
        <ele>112.372574</ele>
        <time>2021-07-19T07:43:38Z</time>
      </trkpt>
      <trkpt lat="45.46623" lon="4.77739">
        <ele>112.298584</ele>
        <time>2021-07-19T07:43:39Z</time>
      </trkpt>
      <trkpt lat="45.46619" lon="4.77734">
        <ele>112.30387</ele>
        <time>2021-07-19T07:43:40Z</time>
      </trkpt>
      <trkpt lat="45.46615" lon="4.77729">
        <ele>112.446556</ele>
        <time>2021-07-19T07:43:41Z</time>
      </trkpt>
      <trkpt lat="45.46611" lon="4.77725">
        <ele>112.34086</ele>
        <time>2021-07-19T07:43:42Z</time>
      </trkpt>
      <trkpt lat="45.46608" lon="4.77721">
        <ele>112.40956</ele>
        <time>2021-07-19T07:43:43Z</time>
      </trkpt>
      <trkpt lat="45.46605" lon="4.77719">
        <ele>112.1559</ele>
        <time>2021-07-19T07:43:44Z</time>
      </trkpt>
      <trkpt lat="45.46601" lon="4.77719">
        <ele>111.928665</ele>
        <time>2021-07-19T07:43:45Z</time>
      </trkpt>
      <trkpt lat="45.46598" lon="4.7772">
        <ele>112.1559</ele>
        <time>2021-07-19T07:43:46Z</time>
      </trkpt>
      <trkpt lat="45.46596" lon="4.77724">
        <ele>112.11891</ele>
        <time>2021-07-19T07:43:47Z</time>
      </trkpt>
      <trkpt lat="45.46594" lon="4.77729">
        <ele>112.11362</ele>
        <time>2021-07-19T07:43:48Z</time>
      </trkpt>
      <trkpt lat="45.46592" lon="4.77733">
        <ele>112.09248</ele>
        <time>2021-07-19T07:43:49Z</time>
      </trkpt>
      <trkpt lat="45.46589" lon="4.77737">
        <ele>112.19817</ele>
        <time>2021-07-19T07:43:50Z</time>
      </trkpt>
      <trkpt lat="45.46586" lon="4.77741">
        <ele>112.09248</ele>
        <time>2021-07-19T07:43:51Z</time>
      </trkpt>
      <trkpt lat="45.46582" lon="4.77745">
        <ele>112.20875</ele>
        <time>2021-07-19T07:43:52Z</time>
      </trkpt>
      <trkpt lat="45.46579" lon="4.77749">
        <ele>112.46769</ele>
        <time>2021-07-19T07:43:53Z</time>
      </trkpt>
      <trkpt lat="45.46575" lon="4.77754">
        <ele>112.716064</ele>
        <time>2021-07-19T07:43:54Z</time>
      </trkpt>
      <trkpt lat="45.46571" lon="4.7776">
        <ele>112.61567</ele>
        <time>2021-07-19T07:43:55Z</time>
      </trkpt>
      <trkpt lat="45.46567" lon="4.77766">
        <ele>112.446556</ele>
        <time>2021-07-19T07:43:56Z</time>
      </trkpt>
      <trkpt lat="45.46563" lon="4.77772">
        <ele>112.552246</ele>
        <time>2021-07-19T07:43:57Z</time>
      </trkpt>
      <trkpt lat="45.46558" lon="4.77778">
        <ele>112.62095</ele>
        <time>2021-07-19T07:43:58Z</time>
      </trkpt>
      <trkpt lat="45.46554" lon="4.77784">
        <ele>112.51525</ele>
        <time>2021-07-19T07:43:59Z</time>
      </trkpt>
      <trkpt lat="45.4655" lon="4.7779">
        <ele>112.50997</ele>
        <time>2021-07-19T07:44:00Z</time>
      </trkpt>
      <trkpt lat="45.46547" lon="4.77796">
        <ele>112.504684</ele>
        <time>2021-07-19T07:44:01Z</time>
      </trkpt>
      <trkpt lat="45.46542" lon="4.77802">
        <ele>112.53639</ele>
        <time>2021-07-19T07:44:02Z</time>
      </trkpt>
      <trkpt lat="45.46538" lon="4.77808">
        <ele>112.4307</ele>
        <time>2021-07-19T07:44:03Z</time>
      </trkpt>
      <trkpt lat="45.46534" lon="4.77814">
        <ele>112.478264</ele>
        <time>2021-07-19T07:44:04Z</time>
      </trkpt>
      <trkpt lat="45.4653" lon="4.7782">
        <ele>112.425415</ele>
        <time>2021-07-19T07:44:05Z</time>
      </trkpt>
      <trkpt lat="45.46526" lon="4.77825">
        <ele>112.46241</ele>
        <time>2021-07-19T07:44:06Z</time>
      </trkpt>
      <trkpt lat="45.46523" lon="4.77831">
        <ele>112.49412</ele>
        <time>2021-07-19T07:44:07Z</time>
      </trkpt>
      <trkpt lat="45.46519" lon="4.77837">
        <ele>112.46241</ele>
        <time>2021-07-19T07:44:08Z</time>
      </trkpt>
      <trkpt lat="45.46515" lon="4.77843">
        <ele>112.30915</ele>
        <time>2021-07-19T07:44:09Z</time>
      </trkpt>
      <trkpt lat="45.46512" lon="4.77849">
        <ele>112.44127</ele>
        <time>2021-07-19T07:44:10Z</time>
      </trkpt>
      <trkpt lat="45.46508" lon="4.77854">
        <ele>112.52054</ele>
        <time>2021-07-19T07:44:11Z</time>
      </trkpt>
      <trkpt lat="45.46504" lon="4.77861">
        <ele>112.62095</ele>
        <time>2021-07-19T07:44:12Z</time>
      </trkpt>
      <trkpt lat="45.465" lon="4.77866">
        <ele>112.75307</ele>
        <time>2021-07-19T07:44:13Z</time>
      </trkpt>
      <trkpt lat="45.46496" lon="4.77872">
        <ele>112.61567</ele>
        <time>2021-07-19T07:44:14Z</time>
      </trkpt>
      <trkpt lat="45.46494" lon="4.77878">
        <ele>112.69493</ele>
        <time>2021-07-19T07:44:15Z</time>
      </trkpt>
      <trkpt lat="45.46492" lon="4.77884">
        <ele>112.78477</ele>
        <time>2021-07-19T07:44:16Z</time>
      </trkpt>
      <trkpt lat="45.46491" lon="4.7789">
        <ele>112.811195</ele>
        <time>2021-07-19T07:44:17Z</time>
      </trkpt>
      <trkpt lat="45.46492" lon="4.77897">
        <ele>112.78477</ele>
        <time>2021-07-19T07:44:18Z</time>
      </trkpt>
      <trkpt lat="45.46491" lon="4.77904">
        <ele>112.89575</ele>
        <time>2021-07-19T07:44:19Z</time>
      </trkpt>
      <trkpt lat="45.4649" lon="4.77911">
        <ele>113.01201</ele>
        <time>2021-07-19T07:44:20Z</time>
      </trkpt>
      <trkpt lat="45.46489" lon="4.77918">
        <ele>113.13884</ele>
        <time>2021-07-19T07:44:21Z</time>
      </trkpt>
      <trkpt lat="45.46488" lon="4.77925">
        <ele>113.26038</ele>
        <time>2021-07-19T07:44:22Z</time>
      </trkpt>
      <trkpt lat="45.46487" lon="4.77931">
        <ele>113.27096</ele>
        <time>2021-07-19T07:44:23Z</time>
      </trkpt>
      <trkpt lat="45.46486" lon="4.77938">
        <ele>112.76363</ele>
        <time>2021-07-19T07:44:24Z</time>
      </trkpt>
      <trkpt lat="45.46485" lon="4.77944">
        <ele>112.52054</ele>
        <time>2021-07-19T07:44:25Z</time>
      </trkpt>
      <trkpt lat="45.46483" lon="4.77949">
        <ele>112.68965</ele>
        <time>2021-07-19T07:44:26Z</time>
      </trkpt>
      <trkpt lat="45.46481" lon="4.77951">
        <ele>112.72664</ele>
        <time>2021-07-19T07:44:27Z</time>
      </trkpt>
      <trkpt lat="45.46476" lon="4.77951">
        <ele>112.657936</ele>
        <time>2021-07-19T07:44:28Z</time>
      </trkpt>
      <trkpt lat="45.46471" lon="4.77951">
        <ele>112.67908</ele>
        <time>2021-07-19T07:44:29Z</time>
      </trkpt>
      <trkpt lat="45.46466" lon="4.77951">
        <ele>112.76363</ele>
        <time>2021-07-19T07:44:30Z</time>
      </trkpt>
      <trkpt lat="45.46461" lon="4.77951">
        <ele>112.70022</ele>
        <time>2021-07-19T07:44:31Z</time>
      </trkpt>
      <trkpt lat="45.46454" lon="4.7795">
        <ele>112.61567</ele>
        <time>2021-07-19T07:44:32Z</time>
      </trkpt>
      <trkpt lat="45.46447" lon="4.7795">
        <ele>112.68965</ele>
        <time>2021-07-19T07:44:33Z</time>
      </trkpt>
      <trkpt lat="45.46441" lon="4.77949">
        <ele>112.40956</ele>
        <time>2021-07-19T07:44:34Z</time>
      </trkpt>
      <trkpt lat="45.46434" lon="4.77948">
        <ele>112.43599</ele>
        <time>2021-07-19T07:44:35Z</time>
      </trkpt>
      <trkpt lat="45.46427" lon="4.77946">
        <ele>112.425415</ele>
        <time>2021-07-19T07:44:36Z</time>
      </trkpt>
      <trkpt lat="45.46421" lon="4.77943">
        <ele>112.19817</ele>
        <time>2021-07-19T07:44:37Z</time>
      </trkpt>
      <trkpt lat="45.46415" lon="4.77942">
        <ele>112.54697</ele>
        <time>2021-07-19T07:44:38Z</time>
      </trkpt>
      <trkpt lat="45.46409" lon="4.77941">
        <ele>112.578674</ele>
        <time>2021-07-19T07:44:39Z</time>
      </trkpt>
      <trkpt lat="45.46404" lon="4.7794">
        <ele>112.6738</ele>
        <time>2021-07-19T07:44:40Z</time>
      </trkpt>
      <trkpt lat="45.46398" lon="4.77939">
        <ele>112.83234</ele>
        <time>2021-07-19T07:44:41Z</time>
      </trkpt>
      <trkpt lat="45.46392" lon="4.77937">
        <ele>112.9803</ele>
        <time>2021-07-19T07:44:42Z</time>
      </trkpt>
      <trkpt lat="45.46386" lon="4.77936">
        <ele>113.02258</ele>
        <time>2021-07-19T07:44:43Z</time>
      </trkpt>
      <trkpt lat="45.46381" lon="4.77934">
        <ele>113.0173</ele>
        <time>2021-07-19T07:44:44Z</time>
      </trkpt>
      <trkpt lat="45.46374" lon="4.77931">
        <ele>113.20754</ele>
        <time>2021-07-19T07:44:45Z</time>
      </trkpt>
      <trkpt lat="45.46368" lon="4.77927">
        <ele>113.149414</ele>
        <time>2021-07-19T07:44:46Z</time>
      </trkpt>
      <trkpt lat="45.46362" lon="4.77923">
        <ele>113.101845</ele>
        <time>2021-07-19T07:44:47Z</time>
      </trkpt>
      <trkpt lat="45.46357" lon="4.77919">
        <ele>112.97501</ele>
        <time>2021-07-19T07:44:48Z</time>
      </trkpt>
      <trkpt lat="45.4635" lon="4.77914">
        <ele>112.93275</ele>
        <time>2021-07-19T07:44:49Z</time>
      </trkpt>
      <trkpt lat="45.46344" lon="4.77911">
        <ele>113.00673</ele>
        <time>2021-07-19T07:44:50Z</time>
      </trkpt>
      <trkpt lat="45.46338" lon="4.77906">
        <ele>112.95916</ele>
        <time>2021-07-19T07:44:51Z</time>
      </trkpt>
      <trkpt lat="45.46332" lon="4.77903">
        <ele>112.969734</ele>
        <time>2021-07-19T07:44:52Z</time>
      </trkpt>
      <trkpt lat="45.46326" lon="4.77899">
        <ele>112.911606</ele>
        <time>2021-07-19T07:44:53Z</time>
      </trkpt>
      <trkpt lat="45.4632" lon="4.77895">
        <ele>113.00673</ele>
        <time>2021-07-19T07:44:54Z</time>
      </trkpt>
      <trkpt lat="45.46314" lon="4.77892">
        <ele>113.08071</ele>
        <time>2021-07-19T07:44:55Z</time>
      </trkpt>
      <trkpt lat="45.46309" lon="4.77888">
        <ele>112.95388</ele>
        <time>2021-07-19T07:44:56Z</time>
      </trkpt>
      <trkpt lat="45.46303" lon="4.77885">
        <ele>113.12299</ele>
        <time>2021-07-19T07:44:57Z</time>
      </trkpt>
      <trkpt lat="45.46298" lon="4.77881">
        <ele>112.98559</ele>
        <time>2021-07-19T07:44:58Z</time>
      </trkpt>
      <trkpt lat="45.46292" lon="4.77878">
        <ele>112.8746</ele>
        <time>2021-07-19T07:44:59Z</time>
      </trkpt>
      <trkpt lat="45.46286" lon="4.77875">
        <ele>112.79534</ele>
        <time>2021-07-19T07:45:00Z</time>
      </trkpt>
      <trkpt lat="45.4628" lon="4.77871">
        <ele>113.08071</ele>
        <time>2021-07-19T07:45:01Z</time>
      </trkpt>
      <trkpt lat="45.46275" lon="4.77867">
        <ele>113.08599</ele>
        <time>2021-07-19T07:45:02Z</time>
      </trkpt>
      <trkpt lat="45.4627" lon="4.77863">
        <ele>112.92745</ele>
        <time>2021-07-19T07:45:03Z</time>
      </trkpt>
      <trkpt lat="45.46264" lon="4.77858">
        <ele>113.070145</ele>
        <time>2021-07-19T07:45:04Z</time>
      </trkpt>
      <trkpt lat="45.46259" lon="4.77854">
        <ele>112.93275</ele>
        <time>2021-07-19T07:45:05Z</time>
      </trkpt>
      <trkpt lat="45.46254" lon="4.77848">
        <ele>112.811195</ele>
        <time>2021-07-19T07:45:06Z</time>
      </trkpt>
      <trkpt lat="45.46249" lon="4.77844">
        <ele>112.82705</ele>
        <time>2021-07-19T07:45:07Z</time>
      </trkpt>
      <trkpt lat="45.46244" lon="4.77838">
        <ele>112.63152</ele>
        <time>2021-07-19T07:45:08Z</time>
      </trkpt>
      <trkpt lat="45.4624" lon="4.77833">
        <ele>112.420135</ele>
        <time>2021-07-19T07:45:09Z</time>
      </trkpt>
      <trkpt lat="45.46235" lon="4.77828">
        <ele>112.74778</ele>
        <time>2021-07-19T07:45:10Z</time>
      </trkpt>
      <trkpt lat="45.4623" lon="4.77822">
        <ele>112.583954</ele>
        <time>2021-07-19T07:45:11Z</time>
      </trkpt>
      <trkpt lat="45.46225" lon="4.77817">
        <ele>112.525826</ele>
        <time>2021-07-19T07:45:12Z</time>
      </trkpt>
      <trkpt lat="45.46219" lon="4.77812">
        <ele>111.98679</ele>
        <time>2021-07-19T07:45:13Z</time>
      </trkpt>
      <trkpt lat="45.46214" lon="4.77807">
        <ele>112.12948</ele>
        <time>2021-07-19T07:45:14Z</time>
      </trkpt>
      <trkpt lat="45.46209" lon="4.77802">
        <ele>112.09776</ele>
        <time>2021-07-19T07:45:15Z</time>
      </trkpt>
      <trkpt lat="45.46203" lon="4.77797">
        <ele>112.21403</ele>
        <time>2021-07-19T07:45:16Z</time>
      </trkpt>
      <trkpt lat="45.46198" lon="4.77791">
        <ele>112.45712</ele>
        <time>2021-07-19T07:45:17Z</time>
      </trkpt>
      <trkpt lat="45.46193" lon="4.77786">
        <ele>112.39899</ele>
        <time>2021-07-19T07:45:18Z</time>
      </trkpt>
      <trkpt lat="45.46188" lon="4.7778">
        <ele>112.51525</ele>
        <time>2021-07-19T07:45:19Z</time>
      </trkpt>
      <trkpt lat="45.46183" lon="4.77775">
        <ele>112.38314</ele>
        <time>2021-07-19T07:45:20Z</time>
      </trkpt>
      <trkpt lat="45.46178" lon="4.7777">
        <ele>112.372574</ele>
        <time>2021-07-19T07:45:21Z</time>
      </trkpt>
      <trkpt lat="45.46173" lon="4.77764">
        <ele>112.53639</ele>
        <time>2021-07-19T07:45:22Z</time>
      </trkpt>
      <trkpt lat="45.46168" lon="4.7776">
        <ele>112.710785</ele>
        <time>2021-07-19T07:45:23Z</time>
      </trkpt>
      <trkpt lat="45.46163" lon="4.77754">
        <ele>112.56282</ele>
        <time>2021-07-19T07:45:24Z</time>
      </trkpt>
      <trkpt lat="45.46158" lon="4.77749">
        <ele>112.39899</ele>
        <time>2021-07-19T07:45:25Z</time>
      </trkpt>
      <trkpt lat="45.46153" lon="4.77743">
        <ele>112.09776</ele>
        <time>2021-07-19T07:45:26Z</time>
      </trkpt>
      <trkpt lat="45.46148" lon="4.77738">
        <ele>112.192894</ele>
        <time>2021-07-19T07:45:27Z</time>
      </trkpt>
      <trkpt lat="45.46143" lon="4.77733">
        <ele>112.35143</ele>
        <time>2021-07-19T07:45:28Z</time>
      </trkpt>
      <trkpt lat="45.46138" lon="4.77728">
        <ele>112.372574</ele>
        <time>2021-07-19T07:45:29Z</time>
      </trkpt>
      <trkpt lat="45.46133" lon="4.77723">
        <ele>112.38843</ele>
        <time>2021-07-19T07:45:30Z</time>
      </trkpt>
      <trkpt lat="45.46128" lon="4.77719">
        <ele>112.35143</ele>
        <time>2021-07-19T07:45:31Z</time>
      </trkpt>
      <trkpt lat="45.46122" lon="4.77715">
        <ele>112.20346</ele>
        <time>2021-07-19T07:45:32Z</time>
      </trkpt>
      <trkpt lat="45.46117" lon="4.77711">
        <ele>111.97094</ele>
        <time>2021-07-19T07:45:33Z</time>
      </trkpt>
      <trkpt lat="45.46112" lon="4.77707">
        <ele>112.00265</ele>
        <time>2021-07-19T07:45:34Z</time>
      </trkpt>
      <trkpt lat="45.46107" lon="4.77703">
        <ele>112.01322</ele>
        <time>2021-07-19T07:45:35Z</time>
      </trkpt>
      <trkpt lat="45.46101" lon="4.77699">
        <ele>111.97622</ele>
        <time>2021-07-19T07:45:36Z</time>
      </trkpt>
      <trkpt lat="45.46096" lon="4.77695">
        <ele>112.16119</ele>
        <time>2021-07-19T07:45:37Z</time>
      </trkpt>
      <trkpt lat="45.46091" lon="4.77692">
        <ele>112.039635</ele>
        <time>2021-07-19T07:45:38Z</time>
      </trkpt>
      <trkpt lat="45.46085" lon="4.77688">
        <ele>111.97094</ele>
        <time>2021-07-19T07:45:39Z</time>
      </trkpt>
      <trkpt lat="45.4608" lon="4.77685">
        <ele>111.79654</ele>
        <time>2021-07-19T07:45:40Z</time>
      </trkpt>
      <trkpt lat="45.46075" lon="4.77683">
        <ele>111.78598</ele>
        <time>2021-07-19T07:45:41Z</time>
      </trkpt>
      <trkpt lat="45.46072" lon="4.7768">
        <ele>111.674995</ele>
        <time>2021-07-19T07:45:42Z</time>
      </trkpt>
      <trkpt lat="45.46069" lon="4.77678">
        <ele>111.674995</ele>
        <time>2021-07-19T07:45:43Z</time>
      </trkpt>
      <trkpt lat="45.46066" lon="4.77676">
        <ele>111.73841</ele>
        <time>2021-07-19T07:45:44Z</time>
      </trkpt>
      <trkpt lat="45.46063" lon="4.77673">
        <ele>111.73313</ele>
        <time>2021-07-19T07:45:45Z</time>
      </trkpt>
      <trkpt lat="45.46058" lon="4.77671">
        <ele>111.68557</ele>
        <time>2021-07-19T07:45:46Z</time>
      </trkpt>
      <trkpt lat="45.46054" lon="4.77667">
        <ele>111.780685</ele>
        <time>2021-07-19T07:45:47Z</time>
      </trkpt>
      <trkpt lat="45.4605" lon="4.77663">
        <ele>111.83882</ele>
        <time>2021-07-19T07:45:48Z</time>
      </trkpt>
      <trkpt lat="45.46045" lon="4.77658">
        <ele>111.78598</ele>
        <time>2021-07-19T07:45:49Z</time>
      </trkpt>
      <trkpt lat="45.46042" lon="4.77651">
        <ele>111.68557</ele>
        <time>2021-07-19T07:45:50Z</time>
      </trkpt>
      <trkpt lat="45.4604" lon="4.77643">
        <ele>111.89167</ele>
        <time>2021-07-19T07:45:51Z</time>
      </trkpt>
      <trkpt lat="45.46039" lon="4.77635">
        <ele>111.89167</ele>
        <time>2021-07-19T07:45:52Z</time>
      </trkpt>
      <trkpt lat="45.46038" lon="4.77628">
        <ele>111.97622</ele>
        <time>2021-07-19T07:45:53Z</time>
      </trkpt>
      <trkpt lat="45.46037" lon="4.7762">
        <ele>111.94452</ele>
        <time>2021-07-19T07:45:54Z</time>
      </trkpt>
      <trkpt lat="45.46037" lon="4.77611">
        <ele>112.087204</ele>
        <time>2021-07-19T07:45:55Z</time>
      </trkpt>
      <trkpt lat="45.46036" lon="4.77603">
        <ele>112.11362</ele>
        <time>2021-07-19T07:45:56Z</time>
      </trkpt>
      <trkpt lat="45.46035" lon="4.77595">
        <ele>112.00793</ele>
        <time>2021-07-19T07:45:57Z</time>
      </trkpt>
      <trkpt lat="45.46034" lon="4.77587">
        <ele>112.10306</ele>
        <time>2021-07-19T07:45:58Z</time>
      </trkpt>
      <trkpt lat="45.46034" lon="4.77579">
        <ele>112.26688</ele>
        <time>2021-07-19T07:45:59Z</time>
      </trkpt>
      <trkpt lat="45.46033" lon="4.77571">
        <ele>112.11891</ele>
        <time>2021-07-19T07:46:00Z</time>
      </trkpt>
      <trkpt lat="45.46032" lon="4.77563">
        <ele>112.21403</ele>
        <time>2021-07-19T07:46:01Z</time>
      </trkpt>
      <trkpt lat="45.46031" lon="4.77555">
        <ele>112.2616</ele>
        <time>2021-07-19T07:46:02Z</time>
      </trkpt>
      <trkpt lat="45.46031" lon="4.77548">
        <ele>112.314445</ele>
        <time>2021-07-19T07:46:03Z</time>
      </trkpt>
      <trkpt lat="45.4603" lon="4.77539">
        <ele>112.362</ele>
        <time>2021-07-19T07:46:04Z</time>
      </trkpt>
      <trkpt lat="45.46029" lon="4.77532">
        <ele>112.24045</ele>
        <time>2021-07-19T07:46:05Z</time>
      </trkpt>
      <trkpt lat="45.46028" lon="4.77524">
        <ele>112.11362</ele>
        <time>2021-07-19T07:46:06Z</time>
      </trkpt>
      <trkpt lat="45.46027" lon="4.77516">
        <ele>112.02378</ele>
        <time>2021-07-19T07:46:07Z</time>
      </trkpt>
      <trkpt lat="45.46026" lon="4.77509">
        <ele>111.91281</ele>
        <time>2021-07-19T07:46:08Z</time>
      </trkpt>
      <trkpt lat="45.46025" lon="4.77502">
        <ele>112.00793</ele>
        <time>2021-07-19T07:46:09Z</time>
      </trkpt>
      <trkpt lat="45.46023" lon="4.77495">
        <ele>111.643295</ele>
        <time>2021-07-19T07:46:10Z</time>
      </trkpt>
      <trkpt lat="45.46021" lon="4.77487">
        <ele>111.384346</ele>
        <time>2021-07-19T07:46:11Z</time>
      </trkpt>
      <trkpt lat="45.46019" lon="4.7748">
        <ele>111.389626</ele>
        <time>2021-07-19T07:46:12Z</time>
      </trkpt>
      <trkpt lat="45.46018" lon="4.77473">
        <ele>111.66443</ele>
        <time>2021-07-19T07:46:13Z</time>
      </trkpt>
      <trkpt lat="45.46016" lon="4.77466">
        <ele>111.7437</ele>
        <time>2021-07-19T07:46:14Z</time>
      </trkpt>
      <trkpt lat="45.46014" lon="4.77459">
        <ele>111.83882</ele>
        <time>2021-07-19T07:46:15Z</time>
      </trkpt>
      <trkpt lat="45.46012" lon="4.77452">
        <ele>111.80711</ele>
        <time>2021-07-19T07:46:16Z</time>
      </trkpt>
      <trkpt lat="45.46009" lon="4.77446">
        <ele>111.84411</ele>
        <time>2021-07-19T07:46:17Z</time>
      </trkpt>
      <trkpt lat="45.46007" lon="4.77437">
        <ele>111.79654</ele>
        <time>2021-07-19T07:46:18Z</time>
      </trkpt>
      <trkpt lat="45.46004" lon="4.7743">
        <ele>111.73313</ele>
        <time>2021-07-19T07:46:19Z</time>
      </trkpt>
      <trkpt lat="45.46001" lon="4.77423">
        <ele>111.81239</ele>
        <time>2021-07-19T07:46:20Z</time>
      </trkpt>
      <trkpt lat="45.45999" lon="4.77416">
        <ele>111.96565</ele>
        <time>2021-07-19T07:46:21Z</time>
      </trkpt>
      <trkpt lat="45.45996" lon="4.77409">
        <ele>111.91281</ele>
        <time>2021-07-19T07:46:22Z</time>
      </trkpt>
      <trkpt lat="45.45993" lon="4.77402">
        <ele>111.828255</ele>
        <time>2021-07-19T07:46:23Z</time>
      </trkpt>
      <trkpt lat="45.45989" lon="4.77396">
        <ele>111.87052</ele>
        <time>2021-07-19T07:46:24Z</time>
      </trkpt>
      <trkpt lat="45.45986" lon="4.7739">
        <ele>111.99207</ele>
        <time>2021-07-19T07:46:25Z</time>
      </trkpt>
      <trkpt lat="45.45983" lon="4.77385">
        <ele>111.89167</ele>
        <time>2021-07-19T07:46:26Z</time>
      </trkpt>
      <trkpt lat="45.4598" lon="4.77379">
        <ele>111.801834</ele>
        <time>2021-07-19T07:46:27Z</time>
      </trkpt>
      <trkpt lat="45.45977" lon="4.77373">
        <ele>111.674995</ele>
        <time>2021-07-19T07:46:28Z</time>
      </trkpt>
      <trkpt lat="45.45974" lon="4.77367">
        <ele>111.58516</ele>
        <time>2021-07-19T07:46:29Z</time>
      </trkpt>
      <trkpt lat="45.45972" lon="4.7736">
        <ele>111.669716</ele>
        <time>2021-07-19T07:46:30Z</time>
      </trkpt>
      <trkpt lat="45.45969" lon="4.77354">
        <ele>111.57987</ele>
        <time>2021-07-19T07:46:31Z</time>
      </trkpt>
      <trkpt lat="45.45966" lon="4.77347">
        <ele>111.53231</ele>
        <time>2021-07-19T07:46:32Z</time>
      </trkpt>
      <trkpt lat="45.45964" lon="4.7734">
        <ele>111.52174</ele>
        <time>2021-07-19T07:46:33Z</time>
      </trkpt>
      <trkpt lat="45.45961" lon="4.77333">
        <ele>111.56402</ele>
        <time>2021-07-19T07:46:34Z</time>
      </trkpt>
      <trkpt lat="45.45959" lon="4.77325">
        <ele>111.57987</ele>
        <time>2021-07-19T07:46:35Z</time>
      </trkpt>
      <trkpt lat="45.45956" lon="4.77318">
        <ele>111.84939</ele>
        <time>2021-07-19T07:46:36Z</time>
      </trkpt>
      <trkpt lat="45.45953" lon="4.77309">
        <ele>111.669716</ele>
        <time>2021-07-19T07:46:37Z</time>
      </trkpt>
      <trkpt lat="45.45949" lon="4.77302">
        <ele>111.69614</ele>
        <time>2021-07-19T07:46:38Z</time>
      </trkpt>
      <trkpt lat="45.45945" lon="4.77294">
        <ele>111.801834</ele>
        <time>2021-07-19T07:46:39Z</time>
      </trkpt>
      <trkpt lat="45.45943" lon="4.77286">
        <ele>111.77013</ele>
        <time>2021-07-19T07:46:40Z</time>
      </trkpt>
      <trkpt lat="45.45941" lon="4.77277">
        <ele>111.87582</ele>
        <time>2021-07-19T07:46:41Z</time>
      </trkpt>
      <trkpt lat="45.4594" lon="4.77269">
        <ele>111.801834</ele>
        <time>2021-07-19T07:46:42Z</time>
      </trkpt>
      <trkpt lat="45.45939" lon="4.7726">
        <ele>112.034355</ele>
        <time>2021-07-19T07:46:43Z</time>
      </trkpt>
      <trkpt lat="45.45937" lon="4.77252">
        <ele>111.939224</ele>
        <time>2021-07-19T07:46:44Z</time>
      </trkpt>
      <trkpt lat="45.45935" lon="4.77244">
        <ele>111.833534</ele>
        <time>2021-07-19T07:46:45Z</time>
      </trkpt>
      <trkpt lat="45.45934" lon="4.77238">
        <ele>111.61159</ele>
        <time>2021-07-19T07:46:46Z</time>
      </trkpt>
      <trkpt lat="45.45932" lon="4.77233">
        <ele>111.7067</ele>
        <time>2021-07-19T07:46:47Z</time>
      </trkpt>
      <trkpt lat="45.45932" lon="4.77227">
        <ele>111.653854</ele>
        <time>2021-07-19T07:46:48Z</time>
      </trkpt>
      <trkpt lat="45.45931" lon="4.77221">
        <ele>111.52174</ele>
        <time>2021-07-19T07:46:49Z</time>
      </trkpt>
      <trkpt lat="45.45929" lon="4.77217">
        <ele>111.495316</ele>
        <time>2021-07-19T07:46:50Z</time>
      </trkpt>
      <trkpt lat="45.45926" lon="4.77213">
        <ele>111.45304</ele>
        <time>2021-07-19T07:46:51Z</time>
      </trkpt>
      <trkpt lat="45.45923" lon="4.7721">
        <ele>111.653854</ele>
        <time>2021-07-19T07:46:52Z</time>
      </trkpt>
      <trkpt lat="45.45919" lon="4.77206">
        <ele>111.61159</ele>
        <time>2021-07-19T07:46:53Z</time>
      </trkpt>
      <trkpt lat="45.45915" lon="4.77202">
        <ele>111.7067</ele>
        <time>2021-07-19T07:46:54Z</time>
      </trkpt>
      <trkpt lat="45.4591" lon="4.77199">
        <ele>111.748985</ele>
        <time>2021-07-19T07:46:55Z</time>
      </trkpt>
      <trkpt lat="45.45906" lon="4.77195">
        <ele>111.754265</ele>
        <time>2021-07-19T07:46:56Z</time>
      </trkpt>
      <trkpt lat="45.45901" lon="4.77191">
        <ele>111.780685</ele>
        <time>2021-07-19T07:46:57Z</time>
      </trkpt>
      <trkpt lat="45.45896" lon="4.77188">
        <ele>111.828255</ele>
        <time>2021-07-19T07:46:58Z</time>
      </trkpt>
      <trkpt lat="45.45891" lon="4.77185">
        <ele>111.90224</ele>
        <time>2021-07-19T07:46:59Z</time>
      </trkpt>
      <trkpt lat="45.45886" lon="4.77182">
        <ele>112.07135</ele>
        <time>2021-07-19T07:47:00Z</time>
      </trkpt>
      <trkpt lat="45.45881" lon="4.77178">
        <ele>111.928665</ele>
        <time>2021-07-19T07:47:01Z</time>
      </trkpt>
      <trkpt lat="45.45876" lon="4.77175">
        <ele>111.79654</ele>
        <time>2021-07-19T07:47:02Z</time>
      </trkpt>
      <trkpt lat="45.45871" lon="4.77171">
        <ele>111.78598</ele>
        <time>2021-07-19T07:47:03Z</time>
      </trkpt>
      <trkpt lat="45.45866" lon="4.77168">
        <ele>112.00793</ele>
        <time>2021-07-19T07:47:04Z</time>
      </trkpt>
      <trkpt lat="45.45861" lon="4.77164">
        <ele>111.933945</ele>
        <time>2021-07-19T07:47:05Z</time>
      </trkpt>
      <trkpt lat="45.45856" lon="4.77161">
        <ele>112.02378</ele>
        <time>2021-07-19T07:47:06Z</time>
      </trkpt>
      <trkpt lat="45.45851" lon="4.77158">
        <ele>111.58516</ele>
        <time>2021-07-19T07:47:07Z</time>
      </trkpt>
      <trkpt lat="45.45845" lon="4.77154">
        <ele>111.60629</ele>
        <time>2021-07-19T07:47:08Z</time>
      </trkpt>
      <trkpt lat="45.45841" lon="4.7715">
        <ele>111.81239</ele>
        <time>2021-07-19T07:47:09Z</time>
      </trkpt>
      <trkpt lat="45.45836" lon="4.77147">
        <ele>112.10834</ele>
        <time>2021-07-19T07:47:10Z</time>
      </trkpt>
      <trkpt lat="45.4583" lon="4.77143">
        <ele>112.325005</ele>
        <time>2021-07-19T07:47:11Z</time>
      </trkpt>
      <trkpt lat="45.45825" lon="4.77139">
        <ele>112.22989</ele>
        <time>2021-07-19T07:47:12Z</time>
      </trkpt>
      <trkpt lat="45.4582" lon="4.77136">
        <ele>112.09776</ele>
        <time>2021-07-19T07:47:13Z</time>
      </trkpt>
      <trkpt lat="45.45815" lon="4.77132">
        <ele>112.14533</ele>
        <time>2021-07-19T07:47:14Z</time>
      </trkpt>
      <trkpt lat="45.45811" lon="4.77128">
        <ele>112.12948</ele>
        <time>2021-07-19T07:47:15Z</time>
      </trkpt>
      <trkpt lat="45.45806" lon="4.77124">
        <ele>112.09776</ele>
        <time>2021-07-19T07:47:16Z</time>
      </trkpt>
      <trkpt lat="45.45802" lon="4.7712">
        <ele>112.10834</ele>
        <time>2021-07-19T07:47:17Z</time>
      </trkpt>
      <trkpt lat="45.45797" lon="4.77115">
        <ele>112.166466</ele>
        <time>2021-07-19T07:47:18Z</time>
      </trkpt>
      <trkpt lat="45.45794" lon="4.77109">
        <ele>112.09248</ele>
        <time>2021-07-19T07:47:19Z</time>
      </trkpt>
      <trkpt lat="45.45789" lon="4.77103">
        <ele>112.2563</ele>
        <time>2021-07-19T07:47:20Z</time>
      </trkpt>
      <trkpt lat="45.45786" lon="4.77097">
        <ele>112.25102</ele>
        <time>2021-07-19T07:47:21Z</time>
      </trkpt>
      <trkpt lat="45.45782" lon="4.77091">
        <ele>112.2933</ele>
        <time>2021-07-19T07:47:22Z</time>
      </trkpt>
      <trkpt lat="45.45779" lon="4.77084">
        <ele>112.425415</ele>
        <time>2021-07-19T07:47:23Z</time>
      </trkpt>
      <trkpt lat="45.45778" lon="4.77076">
        <ele>112.51525</ele>
        <time>2021-07-19T07:47:24Z</time>
      </trkpt>
      <trkpt lat="45.45778" lon="4.77068">
        <ele>112.59453</ele>
        <time>2021-07-19T07:47:25Z</time>
      </trkpt>
      <trkpt lat="45.45778" lon="4.7706">
        <ele>112.36729</ele>
        <time>2021-07-19T07:47:26Z</time>
      </trkpt>
      <trkpt lat="45.45778" lon="4.77051">
        <ele>112.18761</ele>
        <time>2021-07-19T07:47:27Z</time>
      </trkpt>
      <trkpt lat="45.45779" lon="4.77043">
        <ele>112.166466</ele>
        <time>2021-07-19T07:47:28Z</time>
      </trkpt>
      <trkpt lat="45.4578" lon="4.77035">
        <ele>112.16119</ele>
        <time>2021-07-19T07:47:29Z</time>
      </trkpt>
      <trkpt lat="45.45781" lon="4.77027">
        <ele>112.20875</ele>
        <time>2021-07-19T07:47:30Z</time>
      </trkpt>
      <trkpt lat="45.45782" lon="4.77019">
        <ele>111.78598</ele>
        <time>2021-07-19T07:47:31Z</time>
      </trkpt>
      <trkpt lat="45.45782" lon="4.7701">
        <ele>111.595726</ele>
        <time>2021-07-19T07:47:32Z</time>
      </trkpt>
      <trkpt lat="45.45781" lon="4.77002">
        <ele>111.52174</ele>
        <time>2021-07-19T07:47:33Z</time>
      </trkpt>
      <trkpt lat="45.45781" lon="4.76994">
        <ele>111.71198</ele>
        <time>2021-07-19T07:47:34Z</time>
      </trkpt>
      <trkpt lat="45.45781" lon="4.76986">
        <ele>111.748985</ele>
        <time>2021-07-19T07:47:35Z</time>
      </trkpt>
      <trkpt lat="45.45782" lon="4.76979">
        <ele>111.939224</ele>
        <time>2021-07-19T07:47:36Z</time>
      </trkpt>
      <trkpt lat="45.45782" lon="4.76973">
        <ele>111.89167</ele>
        <time>2021-07-19T07:47:37Z</time>
      </trkpt>
      <trkpt lat="45.45782" lon="4.76967">
        <ele>111.96565</ele>
        <time>2021-07-19T07:47:38Z</time>
      </trkpt>
      <trkpt lat="45.45782" lon="4.76962">
        <ele>111.933945</ele>
        <time>2021-07-19T07:47:39Z</time>
      </trkpt>
      <trkpt lat="45.45783" lon="4.76957">
        <ele>111.82297</ele>
        <time>2021-07-19T07:47:40Z</time>
      </trkpt>
      <trkpt lat="45.45783" lon="4.76953">
        <ele>111.60101</ele>
        <time>2021-07-19T07:47:41Z</time>
      </trkpt>
      <trkpt lat="45.45784" lon="4.7695">
        <ele>111.48476</ele>
        <time>2021-07-19T07:47:42Z</time>
      </trkpt>
      <trkpt lat="45.45786" lon="4.76948">
        <ele>111.14125</ele>
        <time>2021-07-19T07:47:43Z</time>
      </trkpt>
      <trkpt lat="45.45788" lon="4.76948">
        <ele>110.93514</ele>
        <time>2021-07-19T07:47:44Z</time>
      </trkpt>
      <trkpt lat="45.45789" lon="4.76949">
        <ele>110.951</ele>
        <time>2021-07-19T07:47:45Z</time>
      </trkpt>
      <trkpt lat="45.45789" lon="4.76949">
        <ele>110.88759</ele>
        <time>2021-07-19T07:47:46Z</time>
      </trkpt>
      <trkpt lat="45.45789" lon="4.76949">
        <ele>110.85588</ele>
        <time>2021-07-19T07:47:47Z</time>
      </trkpt>
      <trkpt lat="45.45791" lon="4.76946">
        <ele>110.871735</ele>
        <time>2021-07-19T07:47:48Z</time>
      </trkpt>
      <trkpt lat="45.45791" lon="4.76943">
        <ele>110.7449</ele>
        <time>2021-07-19T07:47:49Z</time>
      </trkpt>
      <trkpt lat="45.45789" lon="4.7694">
        <ele>110.877014</ele>
        <time>2021-07-19T07:47:50Z</time>
      </trkpt>
      <trkpt lat="45.45789" lon="4.76935">
        <ele>110.99328</ele>
        <time>2021-07-19T07:47:51Z</time>
      </trkpt>
      <trkpt lat="45.45788" lon="4.76931">
        <ele>111.26808</ele>
        <time>2021-07-19T07:47:52Z</time>
      </trkpt>
      <trkpt lat="45.45787" lon="4.76927">
        <ele>111.32092</ele>
        <time>2021-07-19T07:47:53Z</time>
      </trkpt>
      <trkpt lat="45.45787" lon="4.76923">
        <ele>111.34735</ele>
        <time>2021-07-19T07:47:54Z</time>
      </trkpt>
      <trkpt lat="45.45786" lon="4.76919">
        <ele>111.25222</ele>
        <time>2021-07-19T07:47:55Z</time>
      </trkpt>
      <trkpt lat="45.45786" lon="4.76915">
        <ele>111.26808</ele>
        <time>2021-07-19T07:47:56Z</time>
      </trkpt>
      <trkpt lat="45.45785" lon="4.76908">
        <ele>111.37377</ele>
        <time>2021-07-19T07:47:57Z</time>
      </trkpt>
      <trkpt lat="45.45786" lon="4.76899">
        <ele>111.52703</ele>
        <time>2021-07-19T07:47:58Z</time>
      </trkpt>
      <trkpt lat="45.45786" lon="4.76887">
        <ele>111.61159</ele>
        <time>2021-07-19T07:47:59Z</time>
      </trkpt>
      <trkpt lat="45.45785" lon="4.76879">
        <ele>111.53231</ele>
        <time>2021-07-19T07:48:00Z</time>
      </trkpt>
      <trkpt lat="45.45784" lon="4.76872">
        <ele>111.47946</ele>
        <time>2021-07-19T07:48:01Z</time>
      </trkpt>
      <trkpt lat="45.45783" lon="4.76865">
        <ele>111.5376</ele>
        <time>2021-07-19T07:48:02Z</time>
      </trkpt>
      <trkpt lat="45.45783" lon="4.76859">
        <ele>111.51117</ele>
        <time>2021-07-19T07:48:03Z</time>
      </trkpt>
      <trkpt lat="45.45783" lon="4.76854">
        <ele>111.43719</ele>
        <time>2021-07-19T07:48:04Z</time>
      </trkpt>
      <trkpt lat="45.45783" lon="4.76849">
        <ele>111.21523</ele>
        <time>2021-07-19T07:48:05Z</time>
      </trkpt>
      <trkpt lat="45.45783" lon="4.76844">
        <ele>111.21523</ele>
        <time>2021-07-19T07:48:07Z</time>
      </trkpt>
      <trkpt lat="45.45782" lon="4.76841">
        <ele>111.262794</ele>
        <time>2021-07-19T07:48:08Z</time>
      </trkpt>
      <trkpt lat="45.45783" lon="4.76836">
        <ele>111.23109</ele>
        <time>2021-07-19T07:48:09Z</time>
      </trkpt>
      <trkpt lat="45.45783" lon="4.76832">
        <ele>111.14653</ele>
        <time>2021-07-19T07:48:10Z</time>
      </trkpt>
      <trkpt lat="45.45783" lon="4.76826">
        <ele>111.394905</ele>
        <time>2021-07-19T07:48:11Z</time>
      </trkpt>
      <trkpt lat="45.45782" lon="4.76821">
        <ele>111.35263</ele>
        <time>2021-07-19T07:48:12Z</time>
      </trkpt>
      <trkpt lat="45.45781" lon="4.76816">
        <ele>111.40548</ele>
        <time>2021-07-19T07:48:13Z</time>
      </trkpt>
      <trkpt lat="45.45781" lon="4.7681">
        <ele>111.63272</ele>
        <time>2021-07-19T07:48:14Z</time>
      </trkpt>
      <trkpt lat="45.45781" lon="4.76804">
        <ele>111.65914</ele>
        <time>2021-07-19T07:48:15Z</time>
      </trkpt>
      <trkpt lat="45.45783" lon="4.76798">
        <ele>111.669716</ele>
        <time>2021-07-19T07:48:16Z</time>
      </trkpt>
      <trkpt lat="45.45784" lon="4.76791">
        <ele>111.51646</ele>
        <time>2021-07-19T07:48:17Z</time>
      </trkpt>
      <trkpt lat="45.45786" lon="4.76784">
        <ele>111.447754</ele>
        <time>2021-07-19T07:48:18Z</time>
      </trkpt>
      <trkpt lat="45.45787" lon="4.76778">
        <ele>111.542885</ele>
        <time>2021-07-19T07:48:19Z</time>
      </trkpt>
      <trkpt lat="45.45789" lon="4.76771">
        <ele>111.61687</ele>
        <time>2021-07-19T07:48:20Z</time>
      </trkpt>
      <trkpt lat="45.4579" lon="4.76763">
        <ele>111.46361</ele>
        <time>2021-07-19T07:48:21Z</time>
      </trkpt>
      <trkpt lat="45.45792" lon="4.76754">
        <ele>111.553444</ele>
        <time>2021-07-19T07:48:22Z</time>
      </trkpt>
      <trkpt lat="45.45794" lon="4.76745">
        <ele>111.384346</ele>
        <time>2021-07-19T07:48:23Z</time>
      </trkpt>
      <trkpt lat="45.45796" lon="4.76737">
        <ele>111.643295</ele>
        <time>2021-07-19T07:48:24Z</time>
      </trkpt>
      <trkpt lat="45.45797" lon="4.76729">
        <ele>111.41605</ele>
        <time>2021-07-19T07:48:25Z</time>
      </trkpt>
      <trkpt lat="45.45799" lon="4.76722">
        <ele>111.17824</ele>
        <time>2021-07-19T07:48:26Z</time>
      </trkpt>
      <trkpt lat="45.458" lon="4.76715">
        <ele>111.31564</ele>
        <time>2021-07-19T07:48:27Z</time>
      </trkpt>
      <trkpt lat="45.45802" lon="4.76708">
        <ele>111.653854</ele>
        <time>2021-07-19T07:48:28Z</time>
      </trkpt>
      <trkpt lat="45.45804" lon="4.767">
        <ele>111.82297</ele>
        <time>2021-07-19T07:48:29Z</time>
      </trkpt>
      <trkpt lat="45.45805" lon="4.76692">
        <ele>111.50589</ele>
        <time>2021-07-19T07:48:30Z</time>
      </trkpt>
      <trkpt lat="45.45807" lon="4.76684">
        <ele>111.643295</ele>
        <time>2021-07-19T07:48:31Z</time>
      </trkpt>
      <trkpt lat="45.45809" lon="4.76676">
        <ele>111.60629</ele>
        <time>2021-07-19T07:48:32Z</time>
      </trkpt>
      <trkpt lat="45.4581" lon="4.76667">
        <ele>111.47946</ele>
        <time>2021-07-19T07:48:33Z</time>
      </trkpt>
      <trkpt lat="45.45812" lon="4.76659">
        <ele>111.59045</ele>
        <time>2021-07-19T07:48:34Z</time>
      </trkpt>
      <trkpt lat="45.45813" lon="4.76651">
        <ele>111.9498</ele>
        <time>2021-07-19T07:48:35Z</time>
      </trkpt>
      <trkpt lat="45.45814" lon="4.76643">
        <ele>111.928665</ele>
        <time>2021-07-19T07:48:36Z</time>
      </trkpt>
      <trkpt lat="45.45816" lon="4.76635">
        <ele>111.4002</ele>
        <time>2021-07-19T07:48:37Z</time>
      </trkpt>
      <trkpt lat="45.45816" lon="4.76624">
        <ele>111.595726</ele>
        <time>2021-07-19T07:48:38Z</time>
      </trkpt>
      <trkpt lat="45.45817" lon="4.76616">
        <ele>111.32622</ele>
        <time>2021-07-19T07:48:39Z</time>
      </trkpt>
      <trkpt lat="45.45819" lon="4.76608">
        <ele>111.553444</ele>
        <time>2021-07-19T07:48:40Z</time>
      </trkpt>
      <trkpt lat="45.4582" lon="4.76602">
        <ele>111.69085</ele>
        <time>2021-07-19T07:48:41Z</time>
      </trkpt>
      <trkpt lat="45.45821" lon="4.76595">
        <ele>111.801834</ele>
        <time>2021-07-19T07:48:42Z</time>
      </trkpt>
      <trkpt lat="45.45823" lon="4.76589">
        <ele>111.81239</ele>
        <time>2021-07-19T07:48:43Z</time>
      </trkpt>
      <trkpt lat="45.45824" lon="4.76583">
        <ele>111.674995</ele>
        <time>2021-07-19T07:48:44Z</time>
      </trkpt>
      <trkpt lat="45.45826" lon="4.76577">
        <ele>111.289215</ele>
        <time>2021-07-19T07:48:45Z</time>
      </trkpt>
      <trkpt lat="45.45826" lon="4.7657">
        <ele>111.4002</ele>
        <time>2021-07-19T07:48:46Z</time>
      </trkpt>
      <trkpt lat="45.45828" lon="4.76564">
        <ele>111.47418</ele>
        <time>2021-07-19T07:48:47Z</time>
      </trkpt>
      <trkpt lat="45.45829" lon="4.76558">
        <ele>111.27865</ele>
        <time>2021-07-19T07:48:48Z</time>
      </trkpt>
      <trkpt lat="45.45831" lon="4.76551">
        <ele>111.17296</ele>
        <time>2021-07-19T07:48:49Z</time>
      </trkpt>
      <trkpt lat="45.45833" lon="4.76544">
        <ele>111.3315</ele>
        <time>2021-07-19T07:48:50Z</time>
      </trkpt>
      <trkpt lat="45.45834" lon="4.76535">
        <ele>111.27337</ele>
        <time>2021-07-19T07:48:51Z</time>
      </trkpt>
      <trkpt lat="45.45835" lon="4.76527">
        <ele>111.30507</ele>
        <time>2021-07-19T07:48:52Z</time>
      </trkpt>
      <trkpt lat="45.45836" lon="4.76519">
        <ele>111.394905</ele>
        <time>2021-07-19T07:48:53Z</time>
      </trkpt>
      <trkpt lat="45.45836" lon="4.76511">
        <ele>111.548164</ele>
        <time>2021-07-19T07:48:54Z</time>
      </trkpt>
      <trkpt lat="45.45837" lon="4.76503">
        <ele>111.56402</ele>
        <time>2021-07-19T07:48:55Z</time>
      </trkpt>
      <trkpt lat="45.45837" lon="4.76496">
        <ele>111.653854</ele>
        <time>2021-07-19T07:48:56Z</time>
      </trkpt>
      <trkpt lat="45.45836" lon="4.76491">
        <ele>111.80711</ele>
        <time>2021-07-19T07:48:57Z</time>
      </trkpt>
      <trkpt lat="45.45836" lon="4.76486">
        <ele>111.98679</ele>
        <time>2021-07-19T07:48:58Z</time>
      </trkpt>
      <trkpt lat="45.45836" lon="4.76482">
        <ele>111.96565</ele>
        <time>2021-07-19T07:48:59Z</time>
      </trkpt>
      <trkpt lat="45.45836" lon="4.76476">
        <ele>111.828255</ele>
        <time>2021-07-19T07:49:00Z</time>
      </trkpt>
      <trkpt lat="45.45834" lon="4.76469">
        <ele>111.60101</ele>
        <time>2021-07-19T07:49:01Z</time>
      </trkpt>
      <trkpt lat="45.45833" lon="4.76461">
        <ele>111.41076</ele>
        <time>2021-07-19T07:49:02Z</time>
      </trkpt>
      <trkpt lat="45.45832" lon="4.76453">
        <ele>111.32092</ele>
        <time>2021-07-19T07:49:03Z</time>
      </trkpt>
      <trkpt lat="45.45831" lon="4.76445">
        <ele>111.41605</ele>
        <time>2021-07-19T07:49:04Z</time>
      </trkpt>
      <trkpt lat="45.45831" lon="4.76437">
        <ele>111.29979</ele>
        <time>2021-07-19T07:49:05Z</time>
      </trkpt>
      <trkpt lat="45.4583" lon="4.76429">
        <ele>111.41076</ele>
        <time>2021-07-19T07:49:06Z</time>
      </trkpt>
      <trkpt lat="45.45829" lon="4.7642">
        <ele>111.57987</ele>
        <time>2021-07-19T07:49:07Z</time>
      </trkpt>
      <trkpt lat="45.45828" lon="4.76412">
        <ele>111.56402</ele>
        <time>2021-07-19T07:49:08Z</time>
      </trkpt>
      <trkpt lat="45.45827" lon="4.76405">
        <ele>111.57987</ele>
        <time>2021-07-19T07:49:09Z</time>
      </trkpt>
      <trkpt lat="45.45827" lon="4.76396">
        <ele>111.653854</ele>
        <time>2021-07-19T07:49:10Z</time>
      </trkpt>
      <trkpt lat="45.45826" lon="4.76389">
        <ele>111.57987</ele>
        <time>2021-07-19T07:49:11Z</time>
      </trkpt>
      <trkpt lat="45.45825" lon="4.76383">
        <ele>111.48476</ele>
        <time>2021-07-19T07:49:12Z</time>
      </trkpt>
      <trkpt lat="45.45824" lon="4.76375">
        <ele>111.31036</ele>
        <time>2021-07-19T07:49:13Z</time>
      </trkpt>
      <trkpt lat="45.45824" lon="4.76367">
        <ele>111.43191</ele>
        <time>2021-07-19T07:49:14Z</time>
      </trkpt>
      <trkpt lat="45.45824" lon="4.7636">
        <ele>111.40548</ele>
        <time>2021-07-19T07:49:15Z</time>
      </trkpt>
      <trkpt lat="45.45823" lon="4.76354">
        <ele>111.37906</ele>
        <time>2021-07-19T07:49:16Z</time>
      </trkpt>
      <trkpt lat="45.45823" lon="4.76347">
        <ele>111.55874</ele>
        <time>2021-07-19T07:49:17Z</time>
      </trkpt>
      <trkpt lat="45.45822" lon="4.76341">
        <ele>111.9498</ele>
        <time>2021-07-19T07:49:18Z</time>
      </trkpt>
      <trkpt lat="45.45822" lon="4.76335">
        <ele>111.90224</ele>
        <time>2021-07-19T07:49:19Z</time>
      </trkpt>
      <trkpt lat="45.45821" lon="4.76329">
        <ele>111.881096</ele>
        <time>2021-07-19T07:49:20Z</time>
      </trkpt>
      <trkpt lat="45.4582" lon="4.76322">
        <ele>111.76483</ele>
        <time>2021-07-19T07:49:21Z</time>
      </trkpt>
      <trkpt lat="45.4582" lon="4.76316">
        <ele>111.553444</ele>
        <time>2021-07-19T07:49:22Z</time>
      </trkpt>
      <trkpt lat="45.45819" lon="4.76308">
        <ele>111.61687</ele>
        <time>2021-07-19T07:49:23Z</time>
      </trkpt>
      <trkpt lat="45.45818" lon="4.76301">
        <ele>111.754265</ele>
        <time>2021-07-19T07:49:24Z</time>
      </trkpt>
      <trkpt lat="45.45816" lon="4.76293">
        <ele>111.71198</ele>
        <time>2021-07-19T07:49:25Z</time>
      </trkpt>
      <trkpt lat="45.45815" lon="4.76286">
        <ele>111.65914</ele>
        <time>2021-07-19T07:49:26Z</time>
      </trkpt>
      <trkpt lat="45.45814" lon="4.76278">
        <ele>111.62744</ele>
        <time>2021-07-19T07:49:27Z</time>
      </trkpt>
      <trkpt lat="45.45813" lon="4.7627">
        <ele>111.37906</ele>
        <time>2021-07-19T07:49:28Z</time>
      </trkpt>
      <trkpt lat="45.45812" lon="4.76262">
        <ele>111.669716</ele>
        <time>2021-07-19T07:49:29Z</time>
      </trkpt>
      <trkpt lat="45.4581" lon="4.76255">
        <ele>111.78598</ele>
        <time>2021-07-19T07:49:30Z</time>
      </trkpt>
      <trkpt lat="45.4581" lon="4.76248">
        <ele>111.87582</ele>
        <time>2021-07-19T07:49:31Z</time>
      </trkpt>
      <trkpt lat="45.45809" lon="4.76241">
        <ele>112.087204</ele>
        <time>2021-07-19T07:49:32Z</time>
      </trkpt>
      <trkpt lat="45.45808" lon="4.76234">
        <ele>112.02378</ele>
        <time>2021-07-19T07:49:33Z</time>
      </trkpt>
      <trkpt lat="45.45807" lon="4.76226">
        <ele>111.87052</ele>
        <time>2021-07-19T07:49:34Z</time>
      </trkpt>
      <trkpt lat="45.45805" lon="4.76219">
        <ele>111.775406</ele>
        <time>2021-07-19T07:49:35Z</time>
      </trkpt>
      <trkpt lat="45.45805" lon="4.76212">
        <ele>111.5693</ele>
        <time>2021-07-19T07:49:36Z</time>
      </trkpt>
      <trkpt lat="45.45804" lon="4.76205">
        <ele>111.58516</ele>
        <time>2021-07-19T07:49:37Z</time>
      </trkpt>
      <trkpt lat="45.45803" lon="4.76197">
        <ele>111.66443</ele>
        <time>2021-07-19T07:49:38Z</time>
      </trkpt>
      <trkpt lat="45.45802" lon="4.76191">
        <ele>111.638</ele>
        <time>2021-07-19T07:49:39Z</time>
      </trkpt>
      <trkpt lat="45.45801" lon="4.76184">
        <ele>111.62744</ele>
        <time>2021-07-19T07:49:40Z</time>
      </trkpt>
      <trkpt lat="45.458" lon="4.76178">
        <ele>111.79654</ele>
        <time>2021-07-19T07:49:41Z</time>
      </trkpt>
      <trkpt lat="45.45799" lon="4.76172">
        <ele>111.68557</ele>
        <time>2021-07-19T07:49:42Z</time>
      </trkpt>
      <trkpt lat="45.45798" lon="4.76167">
        <ele>111.653854</ele>
        <time>2021-07-19T07:49:43Z</time>
      </trkpt>
      <trkpt lat="45.45797" lon="4.76162">
        <ele>112.039635</ele>
        <time>2021-07-19T07:49:44Z</time>
      </trkpt>
      <trkpt lat="45.45797" lon="4.76158">
        <ele>111.47946</ele>
        <time>2021-07-19T07:49:45Z</time>
      </trkpt>
      <trkpt lat="45.45796" lon="4.76155">
        <ele>111.31564</ele>
        <time>2021-07-19T07:49:46Z</time>
      </trkpt>
      <trkpt lat="45.45796" lon="4.76152">
        <ele>111.34735</ele>
        <time>2021-07-19T07:49:47Z</time>
      </trkpt>
      <trkpt lat="45.45797" lon="4.76149">
        <ele>111.5006</ele>
        <time>2021-07-19T07:49:48Z</time>
      </trkpt>
      <trkpt lat="45.45799" lon="4.76149">
        <ele>111.31564</ele>
        <time>2021-07-19T07:49:49Z</time>
      </trkpt>
      <trkpt lat="45.45802" lon="4.76149">
        <ele>111.495316</ele>
        <time>2021-07-19T07:49:50Z</time>
      </trkpt>
      <trkpt lat="45.45804" lon="4.7615">
        <ele>111.51117</ele>
        <time>2021-07-19T07:49:51Z</time>
      </trkpt>
      <trkpt lat="45.45807" lon="4.7615">
        <ele>111.46361</ele>
        <time>2021-07-19T07:49:52Z</time>
      </trkpt>
      <trkpt lat="45.45809" lon="4.76148">
        <ele>111.342064</ele>
        <time>2021-07-19T07:49:53Z</time>
      </trkpt>
      <trkpt lat="45.45811" lon="4.76147">
        <ele>111.35792</ele>
        <time>2021-07-19T07:49:54Z</time>
      </trkpt>
      <trkpt lat="45.45813" lon="4.76146">
        <ele>111.442474</ele>
        <time>2021-07-19T07:49:55Z</time>
      </trkpt>
      <trkpt lat="45.45815" lon="4.76145">
        <ele>111.648575</ele>
        <time>2021-07-19T07:49:56Z</time>
      </trkpt>
      <trkpt lat="45.45818" lon="4.76146">
        <ele>111.674995</ele>
        <time>2021-07-19T07:49:57Z</time>
      </trkpt>
      <trkpt lat="45.4582" lon="4.7615">
        <ele>111.71198</ele>
        <time>2021-07-19T07:49:58Z</time>
      </trkpt>
      <trkpt lat="45.45821" lon="4.76154">
        <ele>111.47946</ele>
        <time>2021-07-19T07:49:59Z</time>
      </trkpt>
      <trkpt lat="45.45822" lon="4.76157">
        <ele>111.27337</ele>
        <time>2021-07-19T07:50:00Z</time>
      </trkpt>
      <trkpt lat="45.45823" lon="4.76158">
        <ele>111.1254</ele>
        <time>2021-07-19T07:50:01Z</time>
      </trkpt>
      <trkpt lat="45.45823" lon="4.76159">
        <ele>111.22052</ele>
        <time>2021-07-19T07:50:02Z</time>
      </trkpt>
      <trkpt lat="45.45824" lon="4.7616">
        <ele>111.262794</ele>
        <time>2021-07-19T07:50:03Z</time>
      </trkpt>
      <trkpt lat="45.45824" lon="4.76162">
        <ele>111.57987</ele>
        <time>2021-07-19T07:50:04Z</time>
      </trkpt>
      <trkpt lat="45.45825" lon="4.76162">
        <ele>111.62215</ele>
        <time>2021-07-19T07:50:05Z</time>
      </trkpt>
      <trkpt lat="45.45827" lon="4.76161">
        <ele>111.81239</ele>
        <time>2021-07-19T07:50:06Z</time>
      </trkpt>
      <trkpt lat="45.45828" lon="4.76159">
        <ele>112.2933</ele>
        <time>2021-07-19T07:50:07Z</time>
      </trkpt>
      <trkpt lat="45.45831" lon="4.76157">
        <ele>112.04492</ele>
        <time>2021-07-19T07:50:08Z</time>
      </trkpt>
      <trkpt lat="45.45832" lon="4.76154">
        <ele>112.10834</ele>
        <time>2021-07-19T07:50:09Z</time>
      </trkpt>
      <trkpt lat="45.45836" lon="4.7615">
        <ele>112.28273</ele>
        <time>2021-07-19T07:50:10Z</time>
      </trkpt>
      <trkpt lat="45.4584" lon="4.76145">
        <ele>112.2563</ele>
        <time>2021-07-19T07:50:11Z</time>
      </trkpt>
      <trkpt lat="45.45843" lon="4.76141">
        <ele>112.319725</ele>
        <time>2021-07-19T07:50:12Z</time>
      </trkpt>
      <trkpt lat="45.45847" lon="4.76134">
        <ele>112.20346</ele>
        <time>2021-07-19T07:50:13Z</time>
      </trkpt>
      <trkpt lat="45.4585" lon="4.76128">
        <ele>112.219315</ele>
        <time>2021-07-19T07:50:14Z</time>
      </trkpt>
      <trkpt lat="45.45853" lon="4.76123">
        <ele>112.17176</ele>
        <time>2021-07-19T07:50:15Z</time>
      </trkpt>
      <trkpt lat="45.45857" lon="4.76117">
        <ele>112.25102</ele>
        <time>2021-07-19T07:50:16Z</time>
      </trkpt>
      <trkpt lat="45.4586" lon="4.76112">
        <ele>112.446556</ele>
        <time>2021-07-19T07:50:17Z</time>
      </trkpt>
      <trkpt lat="45.45864" lon="4.76106">
        <ele>112.657936</ele>
        <time>2021-07-19T07:50:18Z</time>
      </trkpt>
      <trkpt lat="45.45868" lon="4.76102">
        <ele>112.97501</ele>
        <time>2021-07-19T07:50:19Z</time>
      </trkpt>
      <trkpt lat="45.45871" lon="4.76098">
        <ele>113.05429</ele>
        <time>2021-07-19T07:50:20Z</time>
      </trkpt>
      <trkpt lat="45.45873" lon="4.76094">
        <ele>113.05957</ele>
        <time>2021-07-19T07:50:21Z</time>
      </trkpt>
      <trkpt lat="45.45874" lon="4.7609">
        <ele>113.0173</ele>
        <time>2021-07-19T07:50:22Z</time>
      </trkpt>
      <trkpt lat="45.45877" lon="4.76086">
        <ele>113.26038</ele>
        <time>2021-07-19T07:50:23Z</time>
      </trkpt>
      <trkpt lat="45.45878" lon="4.76085">
        <ele>113.28681</ele>
        <time>2021-07-19T07:50:24Z</time>
      </trkpt>
      <trkpt lat="45.45877" lon="4.7608">
        <ele>113.22868</ele>
        <time>2021-07-19T07:50:25Z</time>
      </trkpt>
      <trkpt lat="45.45877" lon="4.76075">
        <ele>113.24453</ele>
        <time>2021-07-19T07:50:26Z</time>
      </trkpt>
      <trkpt lat="45.45876" lon="4.76071">
        <ele>113.22868</ele>
        <time>2021-07-19T07:50:27Z</time>
      </trkpt>
      <trkpt lat="45.45874" lon="4.76067">
        <ele>113.28681</ele>
        <time>2021-07-19T07:50:28Z</time>
      </trkpt>
      <trkpt lat="45.45872" lon="4.76061">
        <ele>113.23925</ele>
        <time>2021-07-19T07:50:29Z</time>
      </trkpt>
      <trkpt lat="45.45869" lon="4.76056">
        <ele>113.57218</ele>
        <time>2021-07-19T07:50:30Z</time>
      </trkpt>
      <trkpt lat="45.45867" lon="4.7605">
        <ele>113.0173</ele>
        <time>2021-07-19T07:50:31Z</time>
      </trkpt>
      <trkpt lat="45.45863" lon="4.76042">
        <ele>113.00673</ele>
        <time>2021-07-19T07:50:32Z</time>
      </trkpt>
      <trkpt lat="45.4586" lon="4.76035">
        <ele>113.06486</ele>
        <time>2021-07-19T07:50:33Z</time>
      </trkpt>
      <trkpt lat="45.45857" lon="4.76029">
        <ele>113.08599</ele>
        <time>2021-07-19T07:50:34Z</time>
      </trkpt>
      <trkpt lat="45.45854" lon="4.76025">
        <ele>113.08071</ele>
        <time>2021-07-19T07:50:35Z</time>
      </trkpt>
      <trkpt lat="45.45852" lon="4.7602">
        <ele>113.070145</ele>
        <time>2021-07-19T07:50:36Z</time>
      </trkpt>
      <trkpt lat="45.45849" lon="4.76016">
        <ele>113.05429</ele>
        <time>2021-07-19T07:50:37Z</time>
      </trkpt>
      <trkpt lat="45.45847" lon="4.76011">
        <ele>113.202255</ele>
        <time>2021-07-19T07:50:38Z</time>
      </trkpt>
      <trkpt lat="45.45844" lon="4.76006">
        <ele>113.23925</ele>
        <time>2021-07-19T07:50:39Z</time>
      </trkpt>
      <trkpt lat="45.45842" lon="4.76001">
        <ele>113.4295</ele>
        <time>2021-07-19T07:50:40Z</time>
      </trkpt>
      <trkpt lat="45.45841" lon="4.75997">
        <ele>113.21811</ele>
        <time>2021-07-19T07:50:41Z</time>
      </trkpt>
      <trkpt lat="45.45839" lon="4.75993">
        <ele>113.096565</ele>
        <time>2021-07-19T07:50:42Z</time>
      </trkpt>
      <trkpt lat="45.45838" lon="4.7599">
        <ele>113.070145</ele>
        <time>2021-07-19T07:50:43Z</time>
      </trkpt>
      <trkpt lat="45.45836" lon="4.75987">
        <ele>113.0173</ele>
        <time>2021-07-19T07:50:44Z</time>
      </trkpt>
      <trkpt lat="45.45835" lon="4.75985">
        <ele>113.00144</ele>
        <time>2021-07-19T07:50:45Z</time>
      </trkpt>
      <trkpt lat="45.45834" lon="4.75983">
        <ele>113.22868</ele>
        <time>2021-07-19T07:50:46Z</time>
      </trkpt>
      <trkpt lat="45.45831" lon="4.75981">
        <ele>113.255104</ele>
        <time>2021-07-19T07:50:47Z</time>
      </trkpt>
      <trkpt lat="45.45828" lon="4.7598">
        <ele>113.149414</ele>
        <time>2021-07-19T07:50:48Z</time>
      </trkpt>
      <trkpt lat="45.45823" lon="4.75981">
        <ele>113.05957</ele>
        <time>2021-07-19T07:50:49Z</time>
      </trkpt>
      <trkpt lat="45.45819" lon="4.75984">
        <ele>113.10714</ele>
        <time>2021-07-19T07:50:50Z</time>
      </trkpt>
      <trkpt lat="45.45815" lon="4.75984">
        <ele>112.943306</ele>
        <time>2021-07-19T07:50:51Z</time>
      </trkpt>
      <trkpt lat="45.4581" lon="4.75984">
        <ele>112.82176</ele>
        <time>2021-07-19T07:50:52Z</time>
      </trkpt>
      <trkpt lat="45.45805" lon="4.75986">
        <ele>112.890465</ele>
        <time>2021-07-19T07:50:53Z</time>
      </trkpt>
      <trkpt lat="45.458" lon="4.75988">
        <ele>112.76363</ele>
        <time>2021-07-19T07:50:54Z</time>
      </trkpt>
      <trkpt lat="45.45796" lon="4.75988">
        <ele>112.85347</ele>
        <time>2021-07-19T07:50:55Z</time>
      </trkpt>
      <trkpt lat="45.45792" lon="4.75989">
        <ele>112.85876</ele>
        <time>2021-07-19T07:50:56Z</time>
      </trkpt>
      <trkpt lat="45.45788" lon="4.75989">
        <ele>112.48884</ele>
        <time>2021-07-19T07:50:57Z</time>
      </trkpt>
      <trkpt lat="45.45783" lon="4.75988">
        <ele>112.09776</ele>
        <time>2021-07-19T07:50:58Z</time>
      </trkpt>
      <trkpt lat="45.45779" lon="4.75986">
        <ele>112.04492</ele>
        <time>2021-07-19T07:50:59Z</time>
      </trkpt>
      <trkpt lat="45.45776" lon="4.75985">
        <ele>112.10306</ele>
        <time>2021-07-19T07:51:00Z</time>
      </trkpt>
      <trkpt lat="45.45775" lon="4.75986">
        <ele>111.9498</ele>
        <time>2021-07-19T07:51:01Z</time>
      </trkpt>
      <trkpt lat="45.45771" lon="4.75986">
        <ele>111.939224</ele>
        <time>2021-07-19T07:51:02Z</time>
      </trkpt>
      <trkpt lat="45.45768" lon="4.75984">
        <ele>111.9498</ele>
        <time>2021-07-19T07:51:03Z</time>
      </trkpt>
      <trkpt lat="45.45767" lon="4.75983">
        <ele>111.89167</ele>
        <time>2021-07-19T07:51:04Z</time>
      </trkpt>
      <trkpt lat="45.45765" lon="4.75981">
        <ele>111.73841</ele>
        <time>2021-07-19T07:51:05Z</time>
      </trkpt>
      <trkpt lat="45.45761" lon="4.75977">
        <ele>111.648575</ele>
        <time>2021-07-19T07:51:06Z</time>
      </trkpt>
      <trkpt lat="45.45757" lon="4.75971">
        <ele>111.7067</ele>
        <time>2021-07-19T07:51:07Z</time>
      </trkpt>
      <trkpt lat="45.45753" lon="4.75965">
        <ele>111.65914</ele>
        <time>2021-07-19T07:51:08Z</time>
      </trkpt>
      <trkpt lat="45.45749" lon="4.75958">
        <ele>111.638</ele>
        <time>2021-07-19T07:51:09Z</time>
      </trkpt>
      <trkpt lat="45.45744" lon="4.75952">
        <ele>111.71198</ele>
        <time>2021-07-19T07:51:10Z</time>
      </trkpt>
      <trkpt lat="45.45739" lon="4.75947">
        <ele>111.71728</ele>
        <time>2021-07-19T07:51:11Z</time>
      </trkpt>
      <trkpt lat="45.45736" lon="4.75941">
        <ele>111.60629</ele>
        <time>2021-07-19T07:51:12Z</time>
      </trkpt>
      <trkpt lat="45.45734" lon="4.75937">
        <ele>111.68028</ele>
        <time>2021-07-19T07:51:13Z</time>
      </trkpt>
      <trkpt lat="45.45732" lon="4.75934">
        <ele>111.62744</ele>
        <time>2021-07-19T07:51:14Z</time>
      </trkpt>
      <trkpt lat="45.4573" lon="4.75932">
        <ele>111.45833</ele>
        <time>2021-07-19T07:51:15Z</time>
      </trkpt>
      <trkpt lat="45.45728" lon="4.75931">
        <ele>111.50589</ele>
        <time>2021-07-19T07:51:16Z</time>
      </trkpt>
      <trkpt lat="45.45726" lon="4.75932">
        <ele>111.58516</ele>
        <time>2021-07-19T07:51:17Z</time>
      </trkpt>
      <trkpt lat="45.45724" lon="4.75933">
        <ele>111.73841</ele>
        <time>2021-07-19T07:51:18Z</time>
      </trkpt>
      <trkpt lat="45.45722" lon="4.75932">
        <ele>111.754265</ele>
        <time>2021-07-19T07:51:19Z</time>
      </trkpt>
      <trkpt lat="45.4572" lon="4.75931">
        <ele>111.669716</ele>
        <time>2021-07-19T07:51:20Z</time>
      </trkpt>
      <trkpt lat="45.4572" lon="4.75927">
        <ele>111.5376</ele>
        <time>2021-07-19T07:51:21Z</time>
      </trkpt>
      <trkpt lat="45.45719" lon="4.75922">
        <ele>111.37906</ele>
        <time>2021-07-19T07:51:22Z</time>
      </trkpt>
      <trkpt lat="45.45718" lon="4.75916">
        <ele>111.18881</ele>
        <time>2021-07-19T07:51:23Z</time>
      </trkpt>
      <trkpt lat="45.45717" lon="4.75911">
        <ele>110.89287</ele>
        <time>2021-07-19T07:51:24Z</time>
      </trkpt>
      <trkpt lat="45.45716" lon="4.75905">
        <ele>110.96157</ele>
        <time>2021-07-19T07:51:25Z</time>
      </trkpt>
      <trkpt lat="45.45715" lon="4.759">
        <ele>111.283936</ele>
        <time>2021-07-19T07:51:26Z</time>
      </trkpt>
      <trkpt lat="45.45714" lon="4.75895">
        <ele>111.109535</ele>
        <time>2021-07-19T07:51:27Z</time>
      </trkpt>
      <trkpt lat="45.45714" lon="4.7589">
        <ele>111.29979</ele>
        <time>2021-07-19T07:51:28Z</time>
      </trkpt>
      <trkpt lat="45.45712" lon="4.75886">
        <ele>111.37906</ele>
        <time>2021-07-19T07:51:29Z</time>
      </trkpt>
      <trkpt lat="45.4571" lon="4.75881">
        <ele>111.24166</ele>
        <time>2021-07-19T07:51:30Z</time>
      </trkpt>
      <trkpt lat="45.45709" lon="4.75876">
        <ele>111.14125</ele>
        <time>2021-07-19T07:51:31Z</time>
      </trkpt>
      <trkpt lat="45.45708" lon="4.7587">
        <ele>111.12011</ele>
        <time>2021-07-19T07:51:32Z</time>
      </trkpt>
      <trkpt lat="45.45707" lon="4.75862">
        <ele>110.96157</ele>
        <time>2021-07-19T07:51:33Z</time>
      </trkpt>
      <trkpt lat="45.45704" lon="4.75854">
        <ele>110.90873</ele>
        <time>2021-07-19T07:51:34Z</time>
      </trkpt>
      <trkpt lat="45.45702" lon="4.75845">
        <ele>111.00914</ele>
        <time>2021-07-19T07:51:35Z</time>
      </trkpt>
      <trkpt lat="45.45701" lon="4.75837">
        <ele>111.162384</ele>
        <time>2021-07-19T07:51:36Z</time>
      </trkpt>
      <trkpt lat="45.457" lon="4.75829">
        <ele>111.151825</ele>
        <time>2021-07-19T07:51:37Z</time>
      </trkpt>
      <trkpt lat="45.45698" lon="4.75821">
        <ele>111.42133</ele>
        <time>2021-07-19T07:51:38Z</time>
      </trkpt>
      <trkpt lat="45.45696" lon="4.75814">
        <ele>111.384346</ele>
        <time>2021-07-19T07:51:39Z</time>
      </trkpt>
      <trkpt lat="45.45695" lon="4.75806">
        <ele>111.394905</ele>
        <time>2021-07-19T07:51:40Z</time>
      </trkpt>
      <trkpt lat="45.45693" lon="4.75799">
        <ele>111.52703</ele>
        <time>2021-07-19T07:51:41Z</time>
      </trkpt>
      <trkpt lat="45.45691" lon="4.75792">
        <ele>111.669716</ele>
        <time>2021-07-19T07:51:42Z</time>
      </trkpt>
      <trkpt lat="45.45689" lon="4.75784">
        <ele>111.62744</ele>
        <time>2021-07-19T07:51:43Z</time>
      </trkpt>
      <trkpt lat="45.45687" lon="4.75777">
        <ele>111.24694</ele>
        <time>2021-07-19T07:51:44Z</time>
      </trkpt>
      <trkpt lat="45.45686" lon="4.75768">
        <ele>111.162384</ele>
        <time>2021-07-19T07:51:45Z</time>
      </trkpt>
      <trkpt lat="45.45684" lon="4.7576">
        <ele>111.27337</ele>
        <time>2021-07-19T07:51:46Z</time>
      </trkpt>
      <trkpt lat="45.45681" lon="4.75751">
        <ele>111.0884</ele>
        <time>2021-07-19T07:51:47Z</time>
      </trkpt>
      <trkpt lat="45.45679" lon="4.75743">
        <ele>111.394905</ele>
        <time>2021-07-19T07:51:48Z</time>
      </trkpt>
      <trkpt lat="45.45676" lon="4.75735">
        <ele>111.68557</ele>
        <time>2021-07-19T07:51:49Z</time>
      </trkpt>
      <trkpt lat="45.45673" lon="4.75728">
        <ele>111.45833</ele>
        <time>2021-07-19T07:51:50Z</time>
      </trkpt>
      <trkpt lat="45.45671" lon="4.7572">
        <ele>111.45833</ele>
        <time>2021-07-19T07:51:51Z</time>
      </trkpt>
      <trkpt lat="45.45668" lon="4.75712">
        <ele>111.495316</ele>
        <time>2021-07-19T07:51:52Z</time>
      </trkpt>
      <trkpt lat="45.45665" lon="4.75705">
        <ele>111.2945</ele>
        <time>2021-07-19T07:51:53Z</time>
      </trkpt>
      <trkpt lat="45.45663" lon="4.75697">
        <ele>111.32092</ele>
        <time>2021-07-19T07:51:54Z</time>
      </trkpt>
      <trkpt lat="45.4566" lon="4.75689">
        <ele>111.542885</ele>
        <time>2021-07-19T07:51:55Z</time>
      </trkpt>
      <trkpt lat="45.45657" lon="4.75682">
        <ele>111.84939</ele>
        <time>2021-07-19T07:51:56Z</time>
      </trkpt>
      <trkpt lat="45.45654" lon="4.75675">
        <ele>112.05021</ele>
        <time>2021-07-19T07:51:57Z</time>
      </trkpt>
      <trkpt lat="45.45651" lon="4.75668">
        <ele>112.22989</ele>
        <time>2021-07-19T07:51:58Z</time>
      </trkpt>
      <trkpt lat="45.45649" lon="4.75662">
        <ele>112.46241</ele>
        <time>2021-07-19T07:51:59Z</time>
      </trkpt>
      <trkpt lat="45.45647" lon="4.75656">
        <ele>112.59453</ele>
        <time>2021-07-19T07:52:00Z</time>
      </trkpt>
      <trkpt lat="45.45644" lon="4.7565">
        <ele>112.48884</ele>
        <time>2021-07-19T07:52:01Z</time>
      </trkpt>
      <trkpt lat="45.45643" lon="4.75645">
        <ele>112.6368</ele>
        <time>2021-07-19T07:52:02Z</time>
      </trkpt>
      <trkpt lat="45.4564" lon="4.75639">
        <ele>112.68965</ele>
        <time>2021-07-19T07:52:03Z</time>
      </trkpt>
      <trkpt lat="45.45638" lon="4.75634">
        <ele>112.557526</ele>
        <time>2021-07-19T07:52:04Z</time>
      </trkpt>
      <trkpt lat="45.45635" lon="4.75629">
        <ele>112.41484</ele>
        <time>2021-07-19T07:52:05Z</time>
      </trkpt>
      <trkpt lat="45.45633" lon="4.75623">
        <ele>112.325005</ele>
        <time>2021-07-19T07:52:06Z</time>
      </trkpt>
      <trkpt lat="45.4563" lon="4.75616">
        <ele>112.28802</ele>
        <time>2021-07-19T07:52:07Z</time>
      </trkpt>
      <trkpt lat="45.45627" lon="4.75609">
        <ele>112.166466</ele>
        <time>2021-07-19T07:52:08Z</time>
      </trkpt>
      <trkpt lat="45.45625" lon="4.75602">
        <ele>112.13476</ele>
        <time>2021-07-19T07:52:09Z</time>
      </trkpt>
      <trkpt lat="45.45622" lon="4.75595">
        <ele>112.12948</ele>
        <time>2021-07-19T07:52:10Z</time>
      </trkpt>
      <trkpt lat="45.45619" lon="4.75588">
        <ele>112.16119</ele>
        <time>2021-07-19T07:52:11Z</time>
      </trkpt>
      <trkpt lat="45.45616" lon="4.7558">
        <ele>112.14533</ele>
        <time>2021-07-19T07:52:12Z</time>
      </trkpt>
      <trkpt lat="45.45613" lon="4.75573">
        <ele>112.17704</ele>
        <time>2021-07-19T07:52:13Z</time>
      </trkpt>
      <trkpt lat="45.4561" lon="4.75565">
        <ele>112.37785</ele>
        <time>2021-07-19T07:52:14Z</time>
      </trkpt>
      <trkpt lat="45.45606" lon="4.75557">
        <ele>112.298584</ele>
        <time>2021-07-19T07:52:15Z</time>
      </trkpt>
      <trkpt lat="45.45603" lon="4.75549">
        <ele>112.30915</ele>
        <time>2021-07-19T07:52:16Z</time>
      </trkpt>
      <trkpt lat="45.45599" lon="4.75542">
        <ele>112.40956</ele>
        <time>2021-07-19T07:52:17Z</time>
      </trkpt>
      <trkpt lat="45.45596" lon="4.75535">
        <ele>112.39371</ele>
        <time>2021-07-19T07:52:18Z</time>
      </trkpt>
      <trkpt lat="45.45594" lon="4.75528">
        <ele>112.38843</ele>
        <time>2021-07-19T07:52:19Z</time>
      </trkpt>
      <trkpt lat="45.4559" lon="4.75522">
        <ele>112.39899</ele>
        <time>2021-07-19T07:52:20Z</time>
      </trkpt>
      <trkpt lat="45.45587" lon="4.75517">
        <ele>112.19817</ele>
        <time>2021-07-19T07:52:21Z</time>
      </trkpt>
      <trkpt lat="45.45583" lon="4.75512">
        <ele>112.325005</ele>
        <time>2021-07-19T07:52:22Z</time>
      </trkpt>
      <trkpt lat="45.4558" lon="4.75507">
        <ele>112.39371</ele>
        <time>2021-07-19T07:52:23Z</time>
      </trkpt>
      <trkpt lat="45.45577" lon="4.75502">
        <ele>112.52054</ele>
        <time>2021-07-19T07:52:24Z</time>
      </trkpt>
      <trkpt lat="45.45573" lon="4.75498">
        <ele>112.54697</ele>
        <time>2021-07-19T07:52:25Z</time>
      </trkpt>
      <trkpt lat="45.45569" lon="4.75493">
        <ele>112.53639</ele>
        <time>2021-07-19T07:52:26Z</time>
      </trkpt>
      <trkpt lat="45.45565" lon="4.75488">
        <ele>112.59453</ele>
        <time>2021-07-19T07:52:27Z</time>
      </trkpt>
      <trkpt lat="45.45561" lon="4.75484">
        <ele>112.64738</ele>
        <time>2021-07-19T07:52:28Z</time>
      </trkpt>
      <trkpt lat="45.45557" lon="4.75479">
        <ele>112.583954</ele>
        <time>2021-07-19T07:52:29Z</time>
      </trkpt>
      <trkpt lat="45.45552" lon="4.75475">
        <ele>112.478264</ele>
        <time>2021-07-19T07:52:30Z</time>
      </trkpt>
      <trkpt lat="45.45548" lon="4.75471">
        <ele>112.420135</ele>
        <time>2021-07-19T07:52:31Z</time>
      </trkpt>
      <trkpt lat="45.45544" lon="4.75467">
        <ele>112.27745</ele>
        <time>2021-07-19T07:52:32Z</time>
      </trkpt>
      <trkpt lat="45.4554" lon="4.75463">
        <ele>112.20875</ele>
        <time>2021-07-19T07:52:33Z</time>
      </trkpt>
      <trkpt lat="45.45537" lon="4.7546">
        <ele>112.12419</ele>
        <time>2021-07-19T07:52:34Z</time>
      </trkpt>
      <trkpt lat="45.45535" lon="4.75458">
        <ele>112.166466</ele>
        <time>2021-07-19T07:52:35Z</time>
      </trkpt>
      <trkpt lat="45.45535" lon="4.75457">
        <ele>112.15061</ele>
        <time>2021-07-19T07:52:36Z</time>
      </trkpt>
      <trkpt lat="45.45535" lon="4.75457">
        <ele>112.02378</ele>
        <time>2021-07-19T07:52:37Z</time>
      </trkpt>
      <trkpt lat="45.45535" lon="4.75457">
        <ele>112.11362</ele>
        <time>2021-07-19T07:52:38Z</time>
      </trkpt>
      <trkpt lat="45.45535" lon="4.75457">
        <ele>112.07663</ele>
        <time>2021-07-19T07:52:39Z</time>
      </trkpt>
      <trkpt lat="45.45535" lon="4.75457">
        <ele>112.166466</ele>
        <time>2021-07-19T07:52:40Z</time>
      </trkpt>
      <trkpt lat="45.45535" lon="4.75457">
        <ele>112.33558</ele>
        <time>2021-07-19T07:52:41Z</time>
      </trkpt>
      <trkpt lat="45.45535" lon="4.75457">
        <ele>112.23517</ele>
        <time>2021-07-19T07:52:42Z</time>
      </trkpt>
      <trkpt lat="45.45535" lon="4.75457">
        <ele>112.48354</ele>
        <time>2021-07-19T07:52:43Z</time>
      </trkpt>
      <trkpt lat="45.45535" lon="4.75457">
        <ele>112.48354</ele>
        <time>2021-07-19T07:52:43Z</time>
      </trkpt>
      <trkpt lat="45.45535" lon="4.75457">
        <ele>112.48354</ele>
        <time>2021-07-19T07:52:43Z</time>
      </trkpt>
      <trkpt lat="45.45516" lon="4.75447">
        <ele>112.034355</ele>
        <time>2021-07-19T07:54:39Z</time>
      </trkpt>
      <trkpt lat="45.45515" lon="4.75446">
        <ele>111.881096</ele>
        <time>2021-07-19T07:54:40Z</time>
      </trkpt>
      <trkpt lat="45.45513" lon="4.75445">
        <ele>111.828255</ele>
        <time>2021-07-19T07:54:41Z</time>
      </trkpt>
      <trkpt lat="45.45511" lon="4.75444">
        <ele>111.85468</ele>
        <time>2021-07-19T07:54:42Z</time>
      </trkpt>
      <trkpt lat="45.45509" lon="4.75442">
        <ele>111.96037</ele>
        <time>2021-07-19T07:54:43Z</time>
      </trkpt>
      <trkpt lat="45.45507" lon="4.7544">
        <ele>112.02906</ele>
        <time>2021-07-19T07:54:44Z</time>
      </trkpt>
      <trkpt lat="45.45504" lon="4.75438">
        <ele>112.17704</ele>
        <time>2021-07-19T07:54:45Z</time>
      </trkpt>
      <trkpt lat="45.45501" lon="4.75435">
        <ele>112.07663</ele>
        <time>2021-07-19T07:54:46Z</time>
      </trkpt>
      <trkpt lat="45.45497" lon="4.75433">
        <ele>112.17704</ele>
        <time>2021-07-19T07:54:47Z</time>
      </trkpt>
      <trkpt lat="45.45492" lon="4.75431">
        <ele>112.22989</ele>
        <time>2021-07-19T07:54:48Z</time>
      </trkpt>
      <trkpt lat="45.45488" lon="4.7543">
        <ele>112.319725</ele>
        <time>2021-07-19T07:54:49Z</time>
      </trkpt>
      <trkpt lat="45.45483" lon="4.75429">
        <ele>112.36729</ele>
        <time>2021-07-19T07:54:50Z</time>
      </trkpt>
      <trkpt lat="45.45478" lon="4.75427">
        <ele>112.325005</ele>
        <time>2021-07-19T07:54:51Z</time>
      </trkpt>
      <trkpt lat="45.45473" lon="4.75426">
        <ele>112.39371</ele>
        <time>2021-07-19T07:54:52Z</time>
      </trkpt>
      <trkpt lat="45.45467" lon="4.75425">
        <ele>112.272156</ele>
        <time>2021-07-19T07:54:53Z</time>
      </trkpt>
      <trkpt lat="45.45462" lon="4.75424">
        <ele>112.43599</ele>
        <time>2021-07-19T07:54:54Z</time>
      </trkpt>
      <trkpt lat="45.45456" lon="4.75424">
        <ele>112.34086</ele>
        <time>2021-07-19T07:54:55Z</time>
      </trkpt>
      <trkpt lat="45.4545" lon="4.75423">
        <ele>112.53111</ele>
        <time>2021-07-19T07:54:56Z</time>
      </trkpt>
      <trkpt lat="45.45445" lon="4.75422">
        <ele>112.49412</ele>
        <time>2021-07-19T07:54:57Z</time>
      </trkpt>
      <trkpt lat="45.45439" lon="4.75421">
        <ele>112.59453</ele>
        <time>2021-07-19T07:54:58Z</time>
      </trkpt>
      <trkpt lat="45.45433" lon="4.75421">
        <ele>112.837616</ele>
        <time>2021-07-19T07:54:59Z</time>
      </trkpt>
      <trkpt lat="45.45428" lon="4.7542">
        <ele>112.90103</ele>
        <time>2021-07-19T07:55:00Z</time>
      </trkpt>
      <trkpt lat="45.45423" lon="4.7542">
        <ele>113.08071</ele>
        <time>2021-07-19T07:55:01Z</time>
      </trkpt>
      <trkpt lat="45.45417" lon="4.75419">
        <ele>113.12827</ele>
        <time>2021-07-19T07:55:02Z</time>
      </trkpt>
      <trkpt lat="45.45411" lon="4.75419">
        <ele>113.13356</ele>
        <time>2021-07-19T07:55:03Z</time>
      </trkpt>
      <trkpt lat="45.45406" lon="4.75418">
        <ele>113.355515</ele>
        <time>2021-07-19T07:55:04Z</time>
      </trkpt>
      <trkpt lat="45.45401" lon="4.75417">
        <ele>113.302666</ele>
        <time>2021-07-19T07:55:05Z</time>
      </trkpt>
      <trkpt lat="45.45396" lon="4.75417">
        <ele>113.588036</ele>
        <time>2021-07-19T07:55:06Z</time>
      </trkpt>
      <trkpt lat="45.45391" lon="4.75415">
        <ele>113.646164</ele>
        <time>2021-07-19T07:55:07Z</time>
      </trkpt>
      <trkpt lat="45.45386" lon="4.75415">
        <ele>113.582756</ele>
        <time>2021-07-19T07:55:08Z</time>
      </trkpt>
      <trkpt lat="45.45381" lon="4.75414">
        <ele>113.49292</ele>
        <time>2021-07-19T07:55:09Z</time>
      </trkpt>
      <trkpt lat="45.45377" lon="4.75413">
        <ele>113.29738</ele>
        <time>2021-07-19T07:55:10Z</time>
      </trkpt>
      <trkpt lat="45.45372" lon="4.75412">
        <ele>113.12299</ele>
        <time>2021-07-19T07:55:11Z</time>
      </trkpt>
      <trkpt lat="45.45367" lon="4.75411">
        <ele>112.964455</ele>
        <time>2021-07-19T07:55:12Z</time>
      </trkpt>
      <trkpt lat="45.45361" lon="4.7541">
        <ele>113.149414</ele>
        <time>2021-07-19T07:55:13Z</time>
      </trkpt>
      <trkpt lat="45.45356" lon="4.75411">
        <ele>112.93803</ele>
        <time>2021-07-19T07:55:14Z</time>
      </trkpt>
      <trkpt lat="45.45351" lon="4.75412">
        <ele>112.64208</ele>
        <time>2021-07-19T07:55:15Z</time>
      </trkpt>
      <trkpt lat="45.45345" lon="4.75413">
        <ele>112.54697</ele>
        <time>2021-07-19T07:55:16Z</time>
      </trkpt>
      <trkpt lat="45.4534" lon="4.75413">
        <ele>112.67908</ele>
        <time>2021-07-19T07:55:17Z</time>
      </trkpt>
      <trkpt lat="45.45334" lon="4.75413">
        <ele>112.74778</ele>
        <time>2021-07-19T07:55:18Z</time>
      </trkpt>
      <trkpt lat="45.45328" lon="4.75413">
        <ele>112.59981</ele>
        <time>2021-07-19T07:55:19Z</time>
      </trkpt>
      <trkpt lat="45.45322" lon="4.75413">
        <ele>112.583954</ele>
        <time>2021-07-19T07:55:20Z</time>
      </trkpt>
      <trkpt lat="45.45316" lon="4.75412">
        <ele>112.4994</ele>
        <time>2021-07-19T07:55:21Z</time>
      </trkpt>
      <trkpt lat="45.4531" lon="4.75411">
        <ele>112.504684</ele>
        <time>2021-07-19T07:55:22Z</time>
      </trkpt>
      <trkpt lat="45.45304" lon="4.7541">
        <ele>112.53111</ele>
        <time>2021-07-19T07:55:23Z</time>
      </trkpt>
      <trkpt lat="45.45296" lon="4.75406">
        <ele>112.62623</ele>
        <time>2021-07-19T07:55:24Z</time>
      </trkpt>
      <trkpt lat="45.4529" lon="4.75405">
        <ele>112.59453</ele>
        <time>2021-07-19T07:55:25Z</time>
      </trkpt>
      <trkpt lat="45.45284" lon="4.75404">
        <ele>112.8799</ele>
        <time>2021-07-19T07:55:26Z</time>
      </trkpt>
      <trkpt lat="45.4528" lon="4.75404">
        <ele>112.93275</ele>
        <time>2021-07-19T07:55:27Z</time>
      </trkpt>
      <trkpt lat="45.45276" lon="4.75403">
        <ele>112.89575</ele>
        <time>2021-07-19T07:55:28Z</time>
      </trkpt>
      <trkpt lat="45.4527" lon="4.75402">
        <ele>112.86932</ele>
        <time>2021-07-19T07:55:29Z</time>
      </trkpt>
      <trkpt lat="45.45265" lon="4.75402">
        <ele>112.75835</ele>
        <time>2021-07-19T07:55:30Z</time>
      </trkpt>
      <trkpt lat="45.45259" lon="4.75401">
        <ele>112.90632</ele>
        <time>2021-07-19T07:55:31Z</time>
      </trkpt>
      <trkpt lat="45.45253" lon="4.75401">
        <ele>112.969734</ele>
        <time>2021-07-19T07:55:32Z</time>
      </trkpt>
      <trkpt lat="45.45247" lon="4.754">
        <ele>113.149414</ele>
        <time>2021-07-19T07:55:33Z</time>
      </trkpt>
      <trkpt lat="45.45241" lon="4.754">
        <ele>113.302666</ele>
        <time>2021-07-19T07:55:34Z</time>
      </trkpt>
      <trkpt lat="45.45236" lon="4.75399">
        <ele>113.37137</ele>
        <time>2021-07-19T07:55:35Z</time>
      </trkpt>
      <trkpt lat="45.45229" lon="4.75399">
        <ele>113.40307</ele>
        <time>2021-07-19T07:55:36Z</time>
      </trkpt>
      <trkpt lat="45.45223" lon="4.75398">
        <ele>113.57218</ele>
        <time>2021-07-19T07:55:37Z</time>
      </trkpt>
      <trkpt lat="45.45217" lon="4.75398">
        <ele>113.772995</ele>
        <time>2021-07-19T07:55:38Z</time>
      </trkpt>
      <trkpt lat="45.45212" lon="4.75398">
        <ele>113.72544</ele>
        <time>2021-07-19T07:55:39Z</time>
      </trkpt>
      <trkpt lat="45.45206" lon="4.75397">
        <ele>113.81528</ele>
        <time>2021-07-19T07:55:40Z</time>
      </trkpt>
      <trkpt lat="45.452" lon="4.75397">
        <ele>113.81</ele>
        <time>2021-07-19T07:55:41Z</time>
      </trkpt>
      <trkpt lat="45.45195" lon="4.75396">
        <ele>113.69373</ele>
        <time>2021-07-19T07:55:42Z</time>
      </trkpt>
      <trkpt lat="45.45189" lon="4.75395">
        <ele>113.95796</ele>
        <time>2021-07-19T07:55:43Z</time>
      </trkpt>
      <trkpt lat="45.45184" lon="4.75395">
        <ele>113.878685</ele>
        <time>2021-07-19T07:55:44Z</time>
      </trkpt>
      <trkpt lat="45.45178" lon="4.75395">
        <ele>113.741295</ele>
        <time>2021-07-19T07:55:45Z</time>
      </trkpt>
      <trkpt lat="45.45173" lon="4.75394">
        <ele>113.78885</ele>
        <time>2021-07-19T07:55:46Z</time>
      </trkpt>
      <trkpt lat="45.45167" lon="4.75393">
        <ele>113.82584</ele>
        <time>2021-07-19T07:55:47Z</time>
      </trkpt>
      <trkpt lat="45.45162" lon="4.75392">
        <ele>114.1165</ele>
        <time>2021-07-19T07:55:48Z</time>
      </trkpt>
      <trkpt lat="45.45157" lon="4.75392">
        <ele>114.127075</ele>
        <time>2021-07-19T07:55:49Z</time>
      </trkpt>
      <trkpt lat="45.45152" lon="4.75391">
        <ele>114.19048</ele>
        <time>2021-07-19T07:55:50Z</time>
      </trkpt>
      <trkpt lat="45.45148" lon="4.75391">
        <ele>114.33846</ele>
        <time>2021-07-19T07:55:51Z</time>
      </trkpt>
      <trkpt lat="45.45143" lon="4.7539">
        <ele>114.417725</ele>
        <time>2021-07-19T07:55:52Z</time>
      </trkpt>
      <trkpt lat="45.45139" lon="4.75389">
        <ele>114.37545</ele>
        <time>2021-07-19T07:55:53Z</time>
      </trkpt>
      <trkpt lat="45.45134" lon="4.75388">
        <ele>114.16406</ele>
        <time>2021-07-19T07:55:54Z</time>
      </trkpt>
      <trkpt lat="45.45131" lon="4.75388">
        <ele>114.132355</ele>
        <time>2021-07-19T07:55:55Z</time>
      </trkpt>
      <trkpt lat="45.45129" lon="4.75387">
        <ele>114.19048</ele>
        <time>2021-07-19T07:55:56Z</time>
      </trkpt>
      <trkpt lat="45.45129" lon="4.75387">
        <ele>114.12178</ele>
        <time>2021-07-19T07:55:57Z</time>
      </trkpt>
      <trkpt lat="45.45128" lon="4.75386">
        <ele>113.98967</ele>
        <time>2021-07-19T07:55:58Z</time>
      </trkpt>
      <trkpt lat="45.45128" lon="4.75386">
        <ele>114.417725</ele>
        <time>2021-07-19T07:55:59Z</time>
      </trkpt>
      <trkpt lat="45.45127" lon="4.75386">
        <ele>113.52991</ele>
        <time>2021-07-19T07:56:00Z</time>
      </trkpt>
      <trkpt lat="45.45126" lon="4.75383">
        <ele>113.36608</ele>
        <time>2021-07-19T07:56:01Z</time>
      </trkpt>
      <trkpt lat="45.45124" lon="4.75382">
        <ele>114.07423</ele>
        <time>2021-07-19T07:56:02Z</time>
      </trkpt>
      <trkpt lat="45.45124" lon="4.75382">
        <ele>114.07423</ele>
        <time>2021-07-19T07:56:02Z</time>
      </trkpt>
      <trkpt lat="45.45124" lon="4.75382">
        <ele>114.07423</ele>
        <time>2021-07-19T07:56:02Z</time>
      </trkpt>
      <trkpt lat="45.45108" lon="4.75371">
        <ele>113.72544</ele>
        <time>2021-07-19T07:56:22Z</time>
      </trkpt>
      <trkpt lat="45.45105" lon="4.75367">
        <ele>113.67787</ele>
        <time>2021-07-19T07:56:23Z</time>
      </trkpt>
      <trkpt lat="45.45102" lon="4.75363">
        <ele>113.36608</ele>
        <time>2021-07-19T07:56:24Z</time>
      </trkpt>
      <trkpt lat="45.45098" lon="4.7536">
        <ele>113.202255</ele>
        <time>2021-07-19T07:56:25Z</time>
      </trkpt>
      <trkpt lat="45.45094" lon="4.75358">
        <ele>113.202255</ele>
        <time>2021-07-19T07:56:26Z</time>
      </trkpt>
      <trkpt lat="45.45089" lon="4.75356">
        <ele>113.17055</ele>
        <time>2021-07-19T07:56:27Z</time>
      </trkpt>
      <trkpt lat="45.45085" lon="4.75354">
        <ele>113.21283</ele>
        <time>2021-07-19T07:56:28Z</time>
      </trkpt>
      <trkpt lat="45.4508" lon="4.75353">
        <ele>113.02258</ele>
        <time>2021-07-19T07:56:29Z</time>
      </trkpt>
      <trkpt lat="45.45075" lon="4.75352">
        <ele>113.02786</ele>
        <time>2021-07-19T07:56:30Z</time>
      </trkpt>
      <trkpt lat="45.4507" lon="4.75351">
        <ele>113.19169</ele>
        <time>2021-07-19T07:56:31Z</time>
      </trkpt>
      <trkpt lat="45.45064" lon="4.75349">
        <ele>113.249825</ele>
        <time>2021-07-19T07:56:32Z</time>
      </trkpt>
      <trkpt lat="45.45058" lon="4.75348">
        <ele>113.33966</ele>
        <time>2021-07-19T07:56:33Z</time>
      </trkpt>
      <trkpt lat="45.45052" lon="4.75346">
        <ele>113.56161</ele>
        <time>2021-07-19T07:56:34Z</time>
      </trkpt>
      <trkpt lat="45.45046" lon="4.75344">
        <ele>113.33438</ele>
        <time>2021-07-19T07:56:35Z</time>
      </trkpt>
      <trkpt lat="45.4504" lon="4.75343">
        <ele>113.11242</ele>
        <time>2021-07-19T07:56:36Z</time>
      </trkpt>
      <trkpt lat="45.45034" lon="4.75341">
        <ele>113.13356</ele>
        <time>2021-07-19T07:56:37Z</time>
      </trkpt>
      <trkpt lat="45.45028" lon="4.75339">
        <ele>112.8429</ele>
        <time>2021-07-19T07:56:38Z</time>
      </trkpt>
      <trkpt lat="45.45022" lon="4.75338">
        <ele>112.684364</ele>
        <time>2021-07-19T07:56:39Z</time>
      </trkpt>
      <trkpt lat="45.45016" lon="4.75336">
        <ele>112.8746</ele>
        <time>2021-07-19T07:56:40Z</time>
      </trkpt>
      <trkpt lat="45.45009" lon="4.75334">
        <ele>112.811195</ele>
        <time>2021-07-19T07:56:41Z</time>
      </trkpt>
      <trkpt lat="45.45003" lon="4.75333">
        <ele>112.73192</ele>
        <time>2021-07-19T07:56:42Z</time>
      </trkpt>
      <trkpt lat="45.44996" lon="4.75331">
        <ele>112.49412</ele>
        <time>2021-07-19T07:56:43Z</time>
      </trkpt>
      <trkpt lat="45.4499" lon="4.75329">
        <ele>112.19817</ele>
        <time>2021-07-19T07:56:44Z</time>
      </trkpt>
      <trkpt lat="45.44983" lon="4.75328">
        <ele>112.16119</ele>
        <time>2021-07-19T07:56:45Z</time>
      </trkpt>
      <trkpt lat="45.44976" lon="4.75326">
        <ele>112.39371</ele>
        <time>2021-07-19T07:56:46Z</time>
      </trkpt>
      <trkpt lat="45.4497" lon="4.75326">
        <ele>112.2933</ele>
        <time>2021-07-19T07:56:47Z</time>
      </trkpt>
      <trkpt lat="45.44963" lon="4.75325">
        <ele>112.35143</ele>
        <time>2021-07-19T07:56:48Z</time>
      </trkpt>
      <trkpt lat="45.44957" lon="4.75324">
        <ele>112.25102</ele>
        <time>2021-07-19T07:56:49Z</time>
      </trkpt>
      <trkpt lat="45.44951" lon="4.75322">
        <ele>112.192894</ele>
        <time>2021-07-19T07:56:50Z</time>
      </trkpt>
      <trkpt lat="45.44944" lon="4.75321">
        <ele>112.18761</ele>
        <time>2021-07-19T07:56:51Z</time>
      </trkpt>
      <trkpt lat="45.44938" lon="4.75321">
        <ele>112.2563</ele>
        <time>2021-07-19T07:56:52Z</time>
      </trkpt>
      <trkpt lat="45.44931" lon="4.7532">
        <ele>112.14533</ele>
        <time>2021-07-19T07:56:53Z</time>
      </trkpt>
      <trkpt lat="45.44925" lon="4.75319">
        <ele>112.18232</ele>
        <time>2021-07-19T07:56:54Z</time>
      </trkpt>
      <trkpt lat="45.44919" lon="4.75319">
        <ele>111.92337</ele>
        <time>2021-07-19T07:56:55Z</time>
      </trkpt>
      <trkpt lat="45.44914" lon="4.75319">
        <ele>111.79654</ele>
        <time>2021-07-19T07:56:56Z</time>
      </trkpt>
      <trkpt lat="45.44909" lon="4.75318">
        <ele>111.85468</ele>
        <time>2021-07-19T07:56:57Z</time>
      </trkpt>
      <trkpt lat="45.44906" lon="4.75316">
        <ele>111.86524</ele>
        <time>2021-07-19T07:56:58Z</time>
      </trkpt>
      <trkpt lat="45.44904" lon="4.75314">
        <ele>111.99207</ele>
        <time>2021-07-19T07:56:59Z</time>
      </trkpt>
      <trkpt lat="45.44903" lon="4.75311">
        <ele>112.21403</ele>
        <time>2021-07-19T07:57:00Z</time>
      </trkpt>
      <trkpt lat="45.44905" lon="4.75307">
        <ele>112.525826</ele>
        <time>2021-07-19T07:57:01Z</time>
      </trkpt>
      <trkpt lat="45.44906" lon="4.75303">
        <ele>112.716064</ele>
        <time>2021-07-19T07:57:02Z</time>
      </trkpt>
      <trkpt lat="45.44907" lon="4.75297">
        <ele>113.00144</ele>
        <time>2021-07-19T07:57:03Z</time>
      </trkpt>
      <trkpt lat="45.44909" lon="4.75292">
        <ele>113.2921</ele>
        <time>2021-07-19T07:57:04Z</time>
      </trkpt>
      <trkpt lat="45.4491" lon="4.75286">
        <ele>113.46649</ele>
        <time>2021-07-19T07:57:05Z</time>
      </trkpt>
      <trkpt lat="45.44912" lon="4.7528">
        <ele>113.56161</ele>
        <time>2021-07-19T07:57:06Z</time>
      </trkpt>
      <trkpt lat="45.44914" lon="4.75276">
        <ele>113.7043</ele>
        <time>2021-07-19T07:57:07Z</time>
      </trkpt>
      <trkpt lat="45.44915" lon="4.75271">
        <ele>113.72544</ele>
        <time>2021-07-19T07:57:08Z</time>
      </trkpt>
      <trkpt lat="45.44917" lon="4.75267">
        <ele>113.741295</ele>
        <time>2021-07-19T07:57:09Z</time>
      </trkpt>
      <trkpt lat="45.44918" lon="4.75264">
        <ele>113.78357</ele>
        <time>2021-07-19T07:57:10Z</time>
      </trkpt>
      <trkpt lat="45.44919" lon="4.75261">
        <ele>113.93153</ele>
        <time>2021-07-19T07:57:11Z</time>
      </trkpt>
      <trkpt lat="45.4492" lon="4.75258">
        <ele>114.50228</ele>
        <time>2021-07-19T07:57:12Z</time>
      </trkpt>
      <trkpt lat="45.4492" lon="4.75258">
        <ele>114.68724</ele>
        <time>2021-07-19T07:57:13Z</time>
      </trkpt>
      <trkpt lat="45.4492" lon="4.75258">
        <ele>114.92505</ele>
        <time>2021-07-19T07:57:14Z</time>
      </trkpt>
      <trkpt lat="45.4492" lon="4.75258">
        <ele>115.141716</ele>
        <time>2021-07-19T07:57:15Z</time>
      </trkpt>
      <trkpt lat="45.44923" lon="4.75251">
        <ele>115.395386</ele>
        <time>2021-07-19T07:57:16Z</time>
      </trkpt>
      <trkpt lat="45.44924" lon="4.7525">
        <ele>115.7019</ele>
        <time>2021-07-19T07:57:17Z</time>
      </trkpt>
      <trkpt lat="45.44926" lon="4.75249">
        <ele>116.10353</ele>
        <time>2021-07-19T07:57:18Z</time>
      </trkpt>
      <trkpt lat="45.44929" lon="4.75247">
        <ele>116.357185</ele>
        <time>2021-07-19T07:57:19Z</time>
      </trkpt>
      <trkpt lat="45.44933" lon="4.75245">
        <ele>116.737686</ele>
        <time>2021-07-19T07:57:20Z</time>
      </trkpt>
      <trkpt lat="45.44938" lon="4.75244">
        <ele>117.287285</ele>
        <time>2021-07-19T07:57:21Z</time>
      </trkpt>
      <trkpt lat="45.44941" lon="4.75242">
        <ele>117.440544</ele>
        <time>2021-07-19T07:57:22Z</time>
      </trkpt>
      <trkpt lat="45.44944" lon="4.7524">
        <ele>117.667786</ele>
        <time>2021-07-19T07:57:23Z</time>
      </trkpt>
      <trkpt lat="45.44948" lon="4.75237">
        <ele>117.85274</ele>
        <time>2021-07-19T07:57:24Z</time>
      </trkpt>
      <trkpt lat="45.44951" lon="4.75232">
        <ele>117.84217</ele>
        <time>2021-07-19T07:57:25Z</time>
      </trkpt>
      <trkpt lat="45.44954" lon="4.75227">
        <ele>118.15925</ele>
        <time>2021-07-19T07:57:26Z</time>
      </trkpt>
      <trkpt lat="45.44955" lon="4.75222">
        <ele>118.37592</ele>
        <time>2021-07-19T07:57:27Z</time>
      </trkpt>
      <trkpt lat="45.44957" lon="4.75218">
        <ele>118.67715</ele>
        <time>2021-07-19T07:57:28Z</time>
      </trkpt>
      <trkpt lat="45.44959" lon="4.75213">
        <ele>118.455185</ele>
        <time>2021-07-19T07:57:29Z</time>
      </trkpt>
      <trkpt lat="45.4496" lon="4.75209">
        <ele>118.85154</ele>
        <time>2021-07-19T07:57:30Z</time>
      </trkpt>
      <trkpt lat="45.4496" lon="4.75203">
        <ele>119.18976</ele>
        <time>2021-07-19T07:57:31Z</time>
      </trkpt>
      <trkpt lat="45.44959" lon="4.75199">
        <ele>119.40114</ele>
        <time>2021-07-19T07:57:32Z</time>
      </trkpt>
      <trkpt lat="45.44959" lon="4.75194">
        <ele>119.73936</ele>
        <time>2021-07-19T07:57:33Z</time>
      </trkpt>
      <trkpt lat="45.44959" lon="4.7519">
        <ele>119.81334</ele>
        <time>2021-07-19T07:57:34Z</time>
      </trkpt>
      <trkpt lat="45.44957" lon="4.75185">
        <ele>120.02473</ele>
        <time>2021-07-19T07:57:35Z</time>
      </trkpt>
      <trkpt lat="45.44956" lon="4.75182">
        <ele>120.33124</ele>
        <time>2021-07-19T07:57:36Z</time>
      </trkpt>
      <trkpt lat="45.44955" lon="4.75178">
        <ele>120.63246</ele>
        <time>2021-07-19T07:57:37Z</time>
      </trkpt>
      <trkpt lat="45.44953" lon="4.75175">
        <ele>121.07637</ele>
        <time>2021-07-19T07:57:38Z</time>
      </trkpt>
      <trkpt lat="45.44951" lon="4.75173">
        <ele>121.29304</ele>
        <time>2021-07-19T07:57:39Z</time>
      </trkpt>
      <trkpt lat="45.44949" lon="4.7517">
        <ele>121.67354</ele>
        <time>2021-07-19T07:57:40Z</time>
      </trkpt>
      <trkpt lat="45.44947" lon="4.75167">
        <ele>121.69995</ele>
        <time>2021-07-19T07:57:41Z</time>
      </trkpt>
      <trkpt lat="45.44945" lon="4.75165">
        <ele>121.87435</ele>
        <time>2021-07-19T07:57:42Z</time>
      </trkpt>
      <trkpt lat="45.44942" lon="4.75162">
        <ele>121.62069</ele>
        <time>2021-07-19T07:57:43Z</time>
      </trkpt>
      <trkpt lat="45.4494" lon="4.75159">
        <ele>121.91134</ele>
        <time>2021-07-19T07:57:44Z</time>
      </trkpt>
      <trkpt lat="45.44938" lon="4.75156">
        <ele>122.50322</ele>
        <time>2021-07-19T07:57:45Z</time>
      </trkpt>
      <trkpt lat="45.44937" lon="4.75153">
        <ele>122.85201</ele>
        <time>2021-07-19T07:57:46Z</time>
      </trkpt>
      <trkpt lat="45.44934" lon="4.75151">
        <ele>122.97356</ele>
        <time>2021-07-19T07:57:47Z</time>
      </trkpt>
      <trkpt lat="45.44932" lon="4.75149">
        <ele>123.19022</ele>
        <time>2021-07-19T07:57:48Z</time>
      </trkpt>
      <trkpt lat="45.4493" lon="4.75146">
        <ele>123.35405</ele>
        <time>2021-07-19T07:57:49Z</time>
      </trkpt>
      <trkpt lat="45.44927" lon="4.75144">
        <ele>123.85081</ele>
        <time>2021-07-19T07:57:50Z</time>
      </trkpt>
      <trkpt lat="45.44925" lon="4.75142">
        <ele>123.882515</ele>
        <time>2021-07-19T07:57:51Z</time>
      </trkpt>
      <trkpt lat="45.44923" lon="4.7514">
        <ele>124.083336</ele>
        <time>2021-07-19T07:57:52Z</time>
      </trkpt>
      <trkpt lat="45.44918" lon="4.75136">
        <ele>124.80205</ele>
        <time>2021-07-19T07:57:54Z</time>
      </trkpt>
      <trkpt lat="45.44918" lon="4.75136">
        <ele>124.80205</ele>
        <time>2021-07-19T07:57:54Z</time>
      </trkpt>
      <trkpt lat="45.44915" lon="4.75134">
        <ele>124.965866</ele>
        <time>2021-07-19T07:57:55Z</time>
      </trkpt>
      <trkpt lat="45.44913" lon="4.75133">
        <ele>125.224815</ele>
        <time>2021-07-19T07:57:56Z</time>
      </trkpt>
      <trkpt lat="45.44911" lon="4.75132">
        <ele>125.48376</ele>
        <time>2021-07-19T07:57:57Z</time>
      </trkpt>
      <trkpt lat="45.44909" lon="4.75131">
        <ele>125.63174</ele>
        <time>2021-07-19T07:57:58Z</time>
      </trkpt>
      <trkpt lat="45.44907" lon="4.75129">
        <ele>125.78498</ele>
        <time>2021-07-19T07:57:59Z</time>
      </trkpt>
      <trkpt lat="45.44905" lon="4.75128">
        <ele>126.22361</ele>
        <time>2021-07-19T07:58:00Z</time>
      </trkpt>
      <trkpt lat="45.44902" lon="4.75126">
        <ele>126.42443</ele>
        <time>2021-07-19T07:58:01Z</time>
      </trkpt>
      <trkpt lat="45.449" lon="4.75125">
        <ele>126.6041</ele>
        <time>2021-07-19T07:58:02Z</time>
      </trkpt>
      <trkpt lat="45.44898" lon="4.75123">
        <ele>126.79964</ele>
        <time>2021-07-19T07:58:03Z</time>
      </trkpt>
      <trkpt lat="45.44895" lon="4.75121">
        <ele>127.063866</ele>
        <time>2021-07-19T07:58:04Z</time>
      </trkpt>
      <trkpt lat="45.44893" lon="4.75119">
        <ele>127.23298</ele>
        <time>2021-07-19T07:58:05Z</time>
      </trkpt>
      <trkpt lat="45.4489" lon="4.75117">
        <ele>127.54477</ele>
        <time>2021-07-19T07:58:06Z</time>
      </trkpt>
      <trkpt lat="45.44888" lon="4.75116">
        <ele>127.809</ele>
        <time>2021-07-19T07:58:07Z</time>
      </trkpt>
      <trkpt lat="45.44885" lon="4.75114">
        <ele>128.09436</ele>
        <time>2021-07-19T07:58:08Z</time>
      </trkpt>
      <trkpt lat="45.44882" lon="4.75113">
        <ele>128.32161</ele>
        <time>2021-07-19T07:58:09Z</time>
      </trkpt>
      <trkpt lat="45.4488" lon="4.75112">
        <ele>128.37975</ele>
        <time>2021-07-19T07:58:10Z</time>
      </trkpt>
      <trkpt lat="45.44878" lon="4.75111">
        <ele>128.65454</ele>
        <time>2021-07-19T07:58:11Z</time>
      </trkpt>
      <trkpt lat="45.44875" lon="4.7511">
        <ele>128.93991</ele>
        <time>2021-07-19T07:58:12Z</time>
      </trkpt>
      <trkpt lat="45.44873" lon="4.75109">
        <ele>129.19357</ele>
        <time>2021-07-19T07:58:13Z</time>
      </trkpt>
      <trkpt lat="45.4487" lon="4.75108">
        <ele>129.3574</ele>
        <time>2021-07-19T07:58:14Z</time>
      </trkpt>
      <trkpt lat="45.44867" lon="4.75107">
        <ele>129.61635</ele>
        <time>2021-07-19T07:58:15Z</time>
      </trkpt>
      <trkpt lat="45.44865" lon="4.75106">
        <ele>129.87529</ele>
        <time>2021-07-19T07:58:16Z</time>
      </trkpt>
      <trkpt lat="45.44862" lon="4.75105">
        <ele>130.07611</ele>
        <time>2021-07-19T07:58:17Z</time>
      </trkpt>
      <trkpt lat="45.44859" lon="4.75104">
        <ele>130.3245</ele>
        <time>2021-07-19T07:58:18Z</time>
      </trkpt>
      <trkpt lat="45.44857" lon="4.75103">
        <ele>130.60986</ele>
        <time>2021-07-19T07:58:19Z</time>
      </trkpt>
      <trkpt lat="45.44854" lon="4.75103">
        <ele>130.79483</ele>
        <time>2021-07-19T07:58:20Z</time>
      </trkpt>
      <trkpt lat="45.44851" lon="4.75102">
        <ele>131.05905</ele>
        <time>2021-07-19T07:58:21Z</time>
      </trkpt>
      <trkpt lat="45.44849" lon="4.75101">
        <ele>131.355</ele>
        <time>2021-07-19T07:58:22Z</time>
      </trkpt>
      <trkpt lat="45.44847" lon="4.751">
        <ele>131.58223</ele>
        <time>2021-07-19T07:58:23Z</time>
      </trkpt>
      <trkpt lat="45.44845" lon="4.75099">
        <ele>131.89403</ele>
        <time>2021-07-19T07:58:24Z</time>
      </trkpt>
      <trkpt lat="45.44843" lon="4.75099">
        <ele>131.99443</ele>
        <time>2021-07-19T07:58:25Z</time>
      </trkpt>
      <trkpt lat="45.4484" lon="4.75097">
        <ele>132.26395</ele>
        <time>2021-07-19T07:58:26Z</time>
      </trkpt>
      <trkpt lat="45.44838" lon="4.75096">
        <ele>132.48062</ele>
        <time>2021-07-19T07:58:27Z</time>
      </trkpt>
      <trkpt lat="45.44836" lon="4.75095">
        <ele>132.71315</ele>
        <time>2021-07-19T07:58:28Z</time>
      </trkpt>
      <trkpt lat="45.44834" lon="4.75093">
        <ele>133.0725</ele>
        <time>2021-07-19T07:58:29Z</time>
      </trkpt>
      <trkpt lat="45.44831" lon="4.75092">
        <ele>133.43715</ele>
        <time>2021-07-19T07:58:30Z</time>
      </trkpt>
      <trkpt lat="45.44827" lon="4.75092">
        <ele>133.7965</ele>
        <time>2021-07-19T07:58:31Z</time>
      </trkpt>
      <trkpt lat="45.44824" lon="4.75091">
        <ele>134.02374</ele>
        <time>2021-07-19T07:58:32Z</time>
      </trkpt>
      <trkpt lat="45.44821" lon="4.7509">
        <ele>134.16643</ele>
        <time>2021-07-19T07:58:33Z</time>
      </trkpt>
      <trkpt lat="45.44819" lon="4.75089">
        <ele>134.49936</ele>
        <time>2021-07-19T07:58:34Z</time>
      </trkpt>
      <trkpt lat="45.44816" lon="4.75088">
        <ele>134.9327</ele>
        <time>2021-07-19T07:58:35Z</time>
      </trkpt>
      <trkpt lat="45.44814" lon="4.75087">
        <ele>135.17578</ele>
        <time>2021-07-19T07:58:36Z</time>
      </trkpt>
      <trkpt lat="45.44811" lon="4.75086">
        <ele>135.04895</ele>
        <time>2021-07-19T07:58:37Z</time>
      </trkpt>
      <trkpt lat="45.44809" lon="4.75085">
        <ele>135.12823</ele>
        <time>2021-07-19T07:58:38Z</time>
      </trkpt>
      <trkpt lat="45.44807" lon="4.75085">
        <ele>135.56157</ele>
        <time>2021-07-19T07:58:39Z</time>
      </trkpt>
      <trkpt lat="45.44804" lon="4.75084">
        <ele>135.94734</ele>
        <time>2021-07-19T07:58:40Z</time>
      </trkpt>
      <trkpt lat="45.44802" lon="4.75084">
        <ele>136.25386</ele>
        <time>2021-07-19T07:58:41Z</time>
      </trkpt>
      <trkpt lat="45.44799" lon="4.75084">
        <ele>136.42824</ele>
        <time>2021-07-19T07:58:42Z</time>
      </trkpt>
      <trkpt lat="45.44797" lon="4.75084">
        <ele>136.49695</ele>
        <time>2021-07-19T07:58:43Z</time>
      </trkpt>
      <trkpt lat="45.44795" lon="4.75085">
        <ele>136.81403</ele>
        <time>2021-07-19T07:58:44Z</time>
      </trkpt>
      <trkpt lat="45.44792" lon="4.75084">
        <ele>137.05711</ele>
        <time>2021-07-19T07:58:45Z</time>
      </trkpt>
      <trkpt lat="45.44789" lon="4.75084">
        <ele>137.47989</ele>
        <time>2021-07-19T07:58:46Z</time>
      </trkpt>
      <trkpt lat="45.44787" lon="4.75084">
        <ele>137.90266</ele>
        <time>2021-07-19T07:58:47Z</time>
      </trkpt>
      <trkpt lat="45.44784" lon="4.75083">
        <ele>138.23032</ele>
        <time>2021-07-19T07:58:48Z</time>
      </trkpt>
      <trkpt lat="45.44782" lon="4.75083">
        <ele>138.35185</ele>
        <time>2021-07-19T07:58:49Z</time>
      </trkpt>
      <trkpt lat="45.44778" lon="4.75082">
        <ele>138.82219</ele>
        <time>2021-07-19T07:58:50Z</time>
      </trkpt>
      <trkpt lat="45.44776" lon="4.75081">
        <ele>138.73764</ele>
        <time>2021-07-19T07:58:51Z</time>
      </trkpt>
      <trkpt lat="45.44774" lon="4.75079">
        <ele>138.83276</ele>
        <time>2021-07-19T07:58:52Z</time>
      </trkpt>
      <trkpt lat="45.44769" lon="4.75076">
        <ele>139.46692</ele>
        <time>2021-07-19T07:58:54Z</time>
      </trkpt>
      <trkpt lat="45.44769" lon="4.75076">
        <ele>139.46692</ele>
        <time>2021-07-19T07:58:54Z</time>
      </trkpt>
      <trkpt lat="45.44767" lon="4.75074">
        <ele>139.72586</ele>
        <time>2021-07-19T07:58:55Z</time>
      </trkpt>
      <trkpt lat="45.44766" lon="4.75071">
        <ele>140.0905</ele>
        <time>2021-07-19T07:58:56Z</time>
      </trkpt>
      <trkpt lat="45.44764" lon="4.75069">
        <ele>140.17505</ele>
        <time>2021-07-19T07:58:57Z</time>
      </trkpt>
      <trkpt lat="45.44762" lon="4.75066">
        <ele>140.33359</ele>
        <time>2021-07-19T07:58:58Z</time>
      </trkpt>
      <trkpt lat="45.44762" lon="4.75064">
        <ele>140.6031</ele>
        <time>2021-07-19T07:58:59Z</time>
      </trkpt>
      <trkpt lat="45.4476" lon="4.75061">
        <ele>140.77222</ele>
        <time>2021-07-19T07:59:00Z</time>
      </trkpt>
      <trkpt lat="45.44759" lon="4.75057">
        <ele>140.90962</ele>
        <time>2021-07-19T07:59:01Z</time>
      </trkpt>
      <trkpt lat="45.44758" lon="4.75054">
        <ele>141.08401</ele>
        <time>2021-07-19T07:59:02Z</time>
      </trkpt>
      <trkpt lat="45.44757" lon="4.75051">
        <ele>141.52792</ele>
        <time>2021-07-19T07:59:03Z</time>
      </trkpt>
      <trkpt lat="45.44756" lon="4.75047">
        <ele>141.6389</ele>
        <time>2021-07-19T07:59:04Z</time>
      </trkpt>
      <trkpt lat="45.44756" lon="4.75044">
        <ele>141.92957</ele>
        <time>2021-07-19T07:59:05Z</time>
      </trkpt>
      <trkpt lat="45.44755" lon="4.75041">
        <ele>142.0564</ele>
        <time>2021-07-19T07:59:06Z</time>
      </trkpt>
      <trkpt lat="45.44756" lon="4.75038">
        <ele>142.06168</ele>
        <time>2021-07-19T07:59:07Z</time>
      </trkpt>
      <trkpt lat="45.44756" lon="4.75035">
        <ele>142.28891</ele>
        <time>2021-07-19T07:59:08Z</time>
      </trkpt>
      <trkpt lat="45.44756" lon="4.75032">
        <ele>142.42104</ele>
        <time>2021-07-19T07:59:09Z</time>
      </trkpt>
      <trkpt lat="45.44756" lon="4.75029">
        <ele>142.8808</ele>
        <time>2021-07-19T07:59:10Z</time>
      </trkpt>
      <trkpt lat="45.44756" lon="4.75026">
        <ele>142.95477</ele>
        <time>2021-07-19T07:59:11Z</time>
      </trkpt>
      <trkpt lat="45.44756" lon="4.75023">
        <ele>143.34584</ele>
        <time>2021-07-19T07:59:12Z</time>
      </trkpt>
      <trkpt lat="45.44755" lon="4.7502">
        <ele>143.38812</ele>
        <time>2021-07-19T07:59:13Z</time>
      </trkpt>
      <trkpt lat="45.44754" lon="4.75016">
        <ele>143.6735</ele>
        <time>2021-07-19T07:59:14Z</time>
      </trkpt>
      <trkpt lat="45.44754" lon="4.75013">
        <ele>144.04341</ele>
        <time>2021-07-19T07:59:15Z</time>
      </trkpt>
      <trkpt lat="45.44753" lon="4.7501">
        <ele>144.17552</ele>
        <time>2021-07-19T07:59:16Z</time>
      </trkpt>
      <trkpt lat="45.44753" lon="4.75006">
        <ele>144.3922</ele>
        <time>2021-07-19T07:59:17Z</time>
      </trkpt>
      <trkpt lat="45.44751" lon="4.75001">
        <ele>144.93123</ele>
        <time>2021-07-19T07:59:19Z</time>
      </trkpt>
      <trkpt lat="45.44751" lon="4.75001">
        <ele>144.93123</ele>
        <time>2021-07-19T07:59:19Z</time>
      </trkpt>
      <trkpt lat="45.4475" lon="4.74997">
        <ele>145.41742</ele>
        <time>2021-07-19T07:59:20Z</time>
      </trkpt>
      <trkpt lat="45.44748" lon="4.74995">
        <ele>145.68166</ele>
        <time>2021-07-19T07:59:21Z</time>
      </trkpt>
      <trkpt lat="45.44748" lon="4.74992">
        <ele>145.82434</ele>
        <time>2021-07-19T07:59:22Z</time>
      </trkpt>
      <trkpt lat="45.44747" lon="4.74989">
        <ele>145.93532</ele>
        <time>2021-07-19T07:59:23Z</time>
      </trkpt>
      <trkpt lat="45.44746" lon="4.74986">
        <ele>146.21011</ele>
        <time>2021-07-19T07:59:24Z</time>
      </trkpt>
      <trkpt lat="45.44745" lon="4.74983">
        <ele>146.39508</ele>
        <time>2021-07-19T07:59:25Z</time>
      </trkpt>
      <trkpt lat="45.44743" lon="4.74977">
        <ele>146.69101</ele>
        <time>2021-07-19T07:59:27Z</time>
      </trkpt>
      <trkpt lat="45.44743" lon="4.74977">
        <ele>146.69101</ele>
        <time>2021-07-19T07:59:27Z</time>
      </trkpt>
      <trkpt lat="45.44742" lon="4.74974">
        <ele>147.01338</ele>
        <time>2021-07-19T07:59:28Z</time>
      </trkpt>
      <trkpt lat="45.44741" lon="4.74969">
        <ele>147.3886</ele>
        <time>2021-07-19T07:59:30Z</time>
      </trkpt>
      <trkpt lat="45.44741" lon="4.74969">
        <ele>147.3886</ele>
        <time>2021-07-19T07:59:30Z</time>
      </trkpt>
      <trkpt lat="45.4474" lon="4.74966">
        <ele>147.78494</ele>
        <time>2021-07-19T07:59:31Z</time>
      </trkpt>
      <trkpt lat="45.4474" lon="4.74963">
        <ele>147.89062</ele>
        <time>2021-07-19T07:59:32Z</time>
      </trkpt>
      <trkpt lat="45.4474" lon="4.74961">
        <ele>148.1073</ele>
        <time>2021-07-19T07:59:33Z</time>
      </trkpt>
      <trkpt lat="45.44738" lon="4.74957">
        <ele>148.36624</ele>
        <time>2021-07-19T07:59:34Z</time>
      </trkpt>
      <trkpt lat="45.44737" lon="4.74954">
        <ele>148.54593</ele>
        <time>2021-07-19T07:59:35Z</time>
      </trkpt>
      <trkpt lat="45.44738" lon="4.74951">
        <ele>148.57236</ele>
        <time>2021-07-19T07:59:36Z</time>
      </trkpt>
      <trkpt lat="45.44737" lon="4.74947">
        <ele>148.90529</ele>
        <time>2021-07-19T07:59:37Z</time>
      </trkpt>
      <trkpt lat="45.44735" lon="4.74944">
        <ele>149.26991</ele>
        <time>2021-07-19T07:59:38Z</time>
      </trkpt>
      <trkpt lat="45.44731" lon="4.74946">
        <ele>149.55</ele>
        <time>2021-07-19T07:59:39Z</time>
      </trkpt>
      <trkpt lat="45.44727" lon="4.74946">
        <ele>150.01506</ele>
        <time>2021-07-19T07:59:41Z</time>
      </trkpt>
      <trkpt lat="45.44727" lon="4.74946">
        <ele>150.01506</ele>
        <time>2021-07-19T07:59:41Z</time>
      </trkpt>
      <trkpt lat="45.44725" lon="4.74946">
        <ele>150.237</ele>
        <time>2021-07-19T07:59:42Z</time>
      </trkpt>
      <trkpt lat="45.44722" lon="4.74944">
        <ele>150.61751</ele>
        <time>2021-07-19T07:59:44Z</time>
      </trkpt>
      <trkpt lat="45.44722" lon="4.74944">
        <ele>150.61751</ele>
        <time>2021-07-19T07:59:44Z</time>
      </trkpt>
      <trkpt lat="45.44721" lon="4.74944">
        <ele>150.81831</ele>
        <time>2021-07-19T07:59:45Z</time>
      </trkpt>
      <trkpt lat="45.44719" lon="4.74944">
        <ele>151.00328</ele>
        <time>2021-07-19T07:59:46Z</time>
      </trkpt>
      <trkpt lat="45.44718" lon="4.74945">
        <ele>151.45776</ele>
        <time>2021-07-19T07:59:48Z</time>
      </trkpt>
      <trkpt lat="45.44718" lon="4.74947">
        <ele>151.67972</ele>
        <time>2021-07-19T07:59:49Z</time>
      </trkpt>
      <trkpt lat="45.44716" lon="4.74949">
        <ele>151.75899</ele>
        <time>2021-07-19T07:59:50Z</time>
      </trkpt>
      <trkpt lat="45.44716" lon="4.74949">
        <ele>151.75899</ele>
        <time>2021-07-19T07:59:50Z</time>
      </trkpt>
      <trkpt lat="45.44716" lon="4.74949">
        <ele>151.75899</ele>
        <time>2021-07-19T07:59:50Z</time>
      </trkpt>
      <trkpt lat="45.44716" lon="4.74949">
        <ele>151.75899</ele>
        <time>2021-07-19T07:59:50Z</time>
      </trkpt>
      <trkpt lat="45.44716" lon="4.74949">
        <ele>151.75899</ele>
        <time>2021-07-19T07:59:50Z</time>
      </trkpt>
      <trkpt lat="45.44694" lon="4.74986">
        <ele>157.57208</ele>
        <time>2021-07-19T08:00:16Z</time>
      </trkpt>
      <trkpt lat="45.44692" lon="4.74983">
        <ele>157.8416</ele>
        <time>2021-07-19T08:00:17Z</time>
      </trkpt>
      <trkpt lat="45.44691" lon="4.74979">
        <ele>158.12169</ele>
        <time>2021-07-19T08:00:18Z</time>
      </trkpt>
      <trkpt lat="45.4469" lon="4.74976">
        <ele>158.4282</ele>
        <time>2021-07-19T08:00:19Z</time>
      </trkpt>
      <trkpt lat="45.44689" lon="4.74973">
        <ele>158.82983</ele>
        <time>2021-07-19T08:00:20Z</time>
      </trkpt>
      <trkpt lat="45.4469" lon="4.74972">
        <ele>159.26846</ele>
        <time>2021-07-19T08:00:21Z</time>
      </trkpt>
      <trkpt lat="45.44691" lon="4.74971">
        <ele>159.52213</ele>
        <time>2021-07-19T08:00:22Z</time>
      </trkpt>
      <trkpt lat="45.44691" lon="4.74971">
        <ele>159.52213</ele>
        <time>2021-07-19T08:00:22Z</time>
      </trkpt>
      <trkpt lat="45.44693" lon="4.74969">
        <ele>160.3518</ele>
        <time>2021-07-19T08:00:24Z</time>
      </trkpt>
      <trkpt lat="45.44695" lon="4.74968">
        <ele>160.50507</ele>
        <time>2021-07-19T08:00:25Z</time>
      </trkpt>
      <trkpt lat="45.44697" lon="4.74967">
        <ele>160.77458</ele>
        <time>2021-07-19T08:00:26Z</time>
      </trkpt>
      <trkpt lat="45.44699" lon="4.74965">
        <ele>161.09694</ele>
        <time>2021-07-19T08:00:27Z</time>
      </trkpt>
      <trkpt lat="45.44701" lon="4.74963">
        <ele>161.22905</ele>
        <time>2021-07-19T08:00:28Z</time>
      </trkpt>
      <trkpt lat="45.44703" lon="4.74961">
        <ele>161.27663</ele>
        <time>2021-07-19T08:00:29Z</time>
      </trkpt>
      <trkpt lat="45.44705" lon="4.74958">
        <ele>161.50914</ele>
        <time>2021-07-19T08:00:30Z</time>
      </trkpt>
      <trkpt lat="45.44707" lon="4.74955">
        <ele>161.4616</ele>
        <time>2021-07-19T08:00:31Z</time>
      </trkpt>
      <trkpt lat="45.44709" lon="4.74951">
        <ele>161.49858</ele>
        <time>2021-07-19T08:00:32Z</time>
      </trkpt>
      <trkpt lat="45.4471" lon="4.74948">
        <ele>161.79979</ele>
        <time>2021-07-19T08:00:33Z</time>
      </trkpt>
      <trkpt lat="45.44708" lon="4.74943">
        <ele>161.87378</ele>
        <time>2021-07-19T08:00:34Z</time>
      </trkpt>
      <trkpt lat="45.44708" lon="4.74942">
        <ele>162.03233</ele>
        <time>2021-07-19T08:00:35Z</time>
      </trkpt>
      <trkpt lat="45.44703" lon="4.74939">
        <ele>162.0746</ele>
        <time>2021-07-19T08:00:36Z</time>
      </trkpt>
      <trkpt lat="45.44701" lon="4.74937">
        <ele>162.05875</ele>
        <time>2021-07-19T08:00:37Z</time>
      </trkpt>
      <trkpt lat="45.44699" lon="4.74936">
        <ele>162.30185</ele>
        <time>2021-07-19T08:00:38Z</time>
      </trkpt>
      <trkpt lat="45.44697" lon="4.74935">
        <ele>162.32826</ele>
        <time>2021-07-19T08:00:39Z</time>
      </trkpt>
      <trkpt lat="45.44698" lon="4.74933">
        <ele>162.5925</ele>
        <time>2021-07-19T08:00:40Z</time>
      </trkpt>
      <trkpt lat="45.44698" lon="4.74931">
        <ele>162.88315</ele>
        <time>2021-07-19T08:00:41Z</time>
      </trkpt>
      <trkpt lat="45.447" lon="4.74929">
        <ele>163.02055</ele>
        <time>2021-07-19T08:00:42Z</time>
      </trkpt>
      <trkpt lat="45.44701" lon="4.74928">
        <ele>163.24251</ele>
        <time>2021-07-19T08:00:43Z</time>
      </trkpt>
      <trkpt lat="45.44702" lon="4.74925">
        <ele>163.56487</ele>
        <time>2021-07-19T08:00:44Z</time>
      </trkpt>
      <trkpt lat="45.44703" lon="4.74923">
        <ele>163.70757</ele>
        <time>2021-07-19T08:00:45Z</time>
      </trkpt>
      <trkpt lat="45.44703" lon="4.74922">
        <ele>163.90309</ele>
        <time>2021-07-19T08:00:46Z</time>
      </trkpt>
      <trkpt lat="45.44704" lon="4.74921">
        <ele>164.18846</ele>
        <time>2021-07-19T08:00:47Z</time>
      </trkpt>
      <trkpt lat="45.44706" lon="4.74919">
        <ele>164.37341</ele>
        <time>2021-07-19T08:00:48Z</time>
      </trkpt>
      <trkpt lat="45.44706" lon="4.74916">
        <ele>164.69049</ele>
        <time>2021-07-19T08:00:49Z</time>
      </trkpt>
      <trkpt lat="45.44707" lon="4.74913">
        <ele>164.89131</ele>
        <time>2021-07-19T08:00:50Z</time>
      </trkpt>
      <trkpt lat="45.44708" lon="4.74911">
        <ele>165.16612</ele>
        <time>2021-07-19T08:00:51Z</time>
      </trkpt>
      <trkpt lat="45.44708" lon="4.74909">
        <ele>165.39865</ele>
        <time>2021-07-19T08:00:52Z</time>
      </trkpt>
      <trkpt lat="45.44709" lon="4.74908">
        <ele>165.64703</ele>
        <time>2021-07-19T08:00:53Z</time>
      </trkpt>
      <trkpt lat="45.44709" lon="4.74907">
        <ele>165.87955</ele>
        <time>2021-07-19T08:00:54Z</time>
      </trkpt>
      <trkpt lat="45.4471" lon="4.74904">
        <ele>166.1649</ele>
        <time>2021-07-19T08:00:55Z</time>
      </trkpt>
      <trkpt lat="45.44711" lon="4.74903">
        <ele>166.408</ele>
        <time>2021-07-19T08:00:56Z</time>
      </trkpt>
      <trkpt lat="45.44712" lon="4.74901">
        <ele>166.73036</ele>
        <time>2021-07-19T08:00:57Z</time>
      </trkpt>
      <trkpt lat="45.44713" lon="4.749">
        <ele>166.82549</ele>
        <time>2021-07-19T08:00:58Z</time>
      </trkpt>
      <trkpt lat="45.44713" lon="4.749">
        <ele>167.206</ele>
        <time>2021-07-19T08:00:59Z</time>
      </trkpt>
      <trkpt lat="45.44714" lon="4.74899">
        <ele>167.42793</ele>
        <time>2021-07-19T08:01:00Z</time>
      </trkpt>
      <trkpt lat="45.44716" lon="4.74898">
        <ele>167.6446</ele>
        <time>2021-07-19T08:01:01Z</time>
      </trkpt>
      <trkpt lat="45.44719" lon="4.74898">
        <ele>167.77144</ele>
        <time>2021-07-19T08:01:02Z</time>
      </trkpt>
      <trkpt lat="45.44721" lon="4.74897">
        <ele>168.06738</ele>
        <time>2021-07-19T08:01:03Z</time>
      </trkpt>
      <trkpt lat="45.44724" lon="4.74897">
        <ele>168.25235</ele>
        <time>2021-07-19T08:01:04Z</time>
      </trkpt>
      <trkpt lat="45.44725" lon="4.74896">
        <ele>168.66455</ele>
        <time>2021-07-19T08:01:05Z</time>
      </trkpt>
      <trkpt lat="45.44728" lon="4.74897">
        <ele>168.9499</ele>
        <time>2021-07-19T08:01:06Z</time>
      </trkpt>
      <trkpt lat="45.44729" lon="4.74897">
        <ele>169.11902</ele>
        <time>2021-07-19T08:01:07Z</time>
      </trkpt>
      <trkpt lat="45.44731" lon="4.74898">
        <ele>169.36212</ele>
        <time>2021-07-19T08:01:08Z</time>
      </trkpt>
      <trkpt lat="45.44733" lon="4.749">
        <ele>169.53651</ele>
        <time>2021-07-19T08:01:09Z</time>
      </trkpt>
      <trkpt lat="45.44737" lon="4.74905">
        <ele>169.86415</ele>
        <time>2021-07-19T08:01:10Z</time>
      </trkpt>
      <trkpt lat="45.4474" lon="4.74909">
        <ele>170.16011</ele>
        <time>2021-07-19T08:01:11Z</time>
      </trkpt>
      <trkpt lat="45.44742" lon="4.74911">
        <ele>170.25522</ele>
        <time>2021-07-19T08:01:12Z</time>
      </trkpt>
      <trkpt lat="45.44745" lon="4.74913">
        <ele>170.4666</ele>
        <time>2021-07-19T08:01:13Z</time>
      </trkpt>
      <trkpt lat="45.44747" lon="4.74916">
        <ele>170.71498</ele>
        <time>2021-07-19T08:01:14Z</time>
      </trkpt>
      <trkpt lat="45.44749" lon="4.74919">
        <ele>171.10606</ele>
        <time>2021-07-19T08:01:15Z</time>
      </trkpt>
      <trkpt lat="45.44751" lon="4.74921">
        <ele>171.26459</ele>
        <time>2021-07-19T08:01:16Z</time>
      </trkpt>
      <trkpt lat="45.44754" lon="4.74925">
        <ele>171.47069</ele>
        <time>2021-07-19T08:01:17Z</time>
      </trkpt>
      <trkpt lat="45.44756" lon="4.74928">
        <ele>171.6398</ele>
        <time>2021-07-19T08:01:18Z</time>
      </trkpt>
      <trkpt lat="45.44758" lon="4.74931">
        <ele>171.86176</ele>
        <time>2021-07-19T08:01:19Z</time>
      </trkpt>
      <trkpt lat="45.4476" lon="4.74934">
        <ele>172.14713</ele>
        <time>2021-07-19T08:01:20Z</time>
      </trkpt>
      <trkpt lat="45.44762" lon="4.74937">
        <ele>172.27925</ele>
        <time>2021-07-19T08:01:21Z</time>
      </trkpt>
      <trkpt lat="45.44764" lon="4.7494">
        <ele>172.58575</ele>
        <time>2021-07-19T08:01:22Z</time>
      </trkpt>
      <trkpt lat="45.44767" lon="4.74943">
        <ele>172.83942</ele>
        <time>2021-07-19T08:01:23Z</time>
      </trkpt>
      <trkpt lat="45.44769" lon="4.74946">
        <ele>172.91869</ele>
        <time>2021-07-19T08:01:24Z</time>
      </trkpt>
      <trkpt lat="45.44771" lon="4.74949">
        <ele>173.26219</ele>
        <time>2021-07-19T08:01:25Z</time>
      </trkpt>
      <trkpt lat="45.44774" lon="4.74952">
        <ele>173.44714</ele>
        <time>2021-07-19T08:01:26Z</time>
      </trkpt>
      <trkpt lat="45.44775" lon="4.74954">
        <ele>173.71667</ele>
        <time>2021-07-19T08:01:27Z</time>
      </trkpt>
      <trkpt lat="45.44778" lon="4.74957">
        <ele>173.89107</ele>
        <time>2021-07-19T08:01:28Z</time>
      </trkpt>
      <trkpt lat="45.4478" lon="4.7496">
        <ele>174.34024</ele>
        <time>2021-07-19T08:01:29Z</time>
      </trkpt>
      <trkpt lat="45.44782" lon="4.74962">
        <ele>174.57277</ele>
        <time>2021-07-19T08:01:30Z</time>
      </trkpt>
      <trkpt lat="45.44785" lon="4.74965">
        <ele>174.6996</ele>
        <time>2021-07-19T08:01:31Z</time>
      </trkpt>
      <trkpt lat="45.44787" lon="4.74968">
        <ele>174.6362</ele>
        <time>2021-07-19T08:01:32Z</time>
      </trkpt>
      <trkpt lat="45.44788" lon="4.7497">
        <ele>174.73131</ele>
        <time>2021-07-19T08:01:33Z</time>
      </trkpt>
      <trkpt lat="45.44791" lon="4.74973">
        <ele>174.95856</ele>
        <time>2021-07-19T08:01:34Z</time>
      </trkpt>
      <trkpt lat="45.44793" lon="4.74975">
        <ele>175.2175</ele>
        <time>2021-07-19T08:01:35Z</time>
      </trkpt>
      <trkpt lat="45.44795" lon="4.74978">
        <ele>175.48701</ele>
        <time>2021-07-19T08:01:36Z</time>
      </trkpt>
      <trkpt lat="45.44796" lon="4.74981">
        <ele>175.58215</ele>
        <time>2021-07-19T08:01:37Z</time>
      </trkpt>
      <trkpt lat="45.44798" lon="4.74983">
        <ele>175.68254</ele>
        <time>2021-07-19T08:01:38Z</time>
      </trkpt>
      <trkpt lat="45.44801" lon="4.74986">
        <ele>175.94678</ele>
        <time>2021-07-19T08:01:39Z</time>
      </trkpt>
      <trkpt lat="45.44803" lon="4.74988">
        <ele>176.08418</ele>
        <time>2021-07-19T08:01:40Z</time>
      </trkpt>
      <trkpt lat="45.44805" lon="4.74991">
        <ele>176.22159</ele>
        <time>2021-07-19T08:01:41Z</time>
      </trkpt>
      <trkpt lat="45.44807" lon="4.74994">
        <ele>176.61266</ele>
        <time>2021-07-19T08:01:42Z</time>
      </trkpt>
      <trkpt lat="45.44809" lon="4.74996">
        <ele>176.79233</ele>
        <time>2021-07-19T08:01:43Z</time>
      </trkpt>
      <trkpt lat="45.44811" lon="4.74999">
        <ele>176.98256</ele>
        <time>2021-07-19T08:01:44Z</time>
      </trkpt>
      <trkpt lat="45.44813" lon="4.75002">
        <ele>177.24681</ele>
        <time>2021-07-19T08:01:45Z</time>
      </trkpt>
      <trkpt lat="45.44815" lon="4.75005">
        <ele>177.53746</ele>
        <time>2021-07-19T08:01:46Z</time>
      </trkpt>
      <trkpt lat="45.44817" lon="4.75008">
        <ele>177.77527</ele>
        <time>2021-07-19T08:01:47Z</time>
      </trkpt>
      <trkpt lat="45.44819" lon="4.7501">
        <ele>177.9708</ele>
        <time>2021-07-19T08:01:48Z</time>
      </trkpt>
      <trkpt lat="45.44821" lon="4.75011">
        <ele>178.26674</ele>
        <time>2021-07-19T08:01:49Z</time>
      </trkpt>
      <trkpt lat="45.44823" lon="4.75012">
        <ele>178.36185</ele>
        <time>2021-07-19T08:01:50Z</time>
      </trkpt>
      <trkpt lat="45.44825" lon="4.75014">
        <ele>178.49925</ele>
        <time>2021-07-19T08:01:51Z</time>
      </trkpt>
      <trkpt lat="45.44827" lon="4.75016">
        <ele>178.75821</ele>
        <time>2021-07-19T08:01:52Z</time>
      </trkpt>
      <trkpt lat="45.44829" lon="4.75017">
        <ele>178.9326</ele>
        <time>2021-07-19T08:01:53Z</time>
      </trkpt>
      <trkpt lat="45.44832" lon="4.75018">
        <ele>179.2074</ele>
        <time>2021-07-19T08:01:54Z</time>
      </trkpt>
      <trkpt lat="45.44835" lon="4.75019">
        <ele>179.6513</ele>
        <time>2021-07-19T08:01:55Z</time>
      </trkpt>
      <trkpt lat="45.44837" lon="4.75019">
        <ele>179.68301</ele>
        <time>2021-07-19T08:01:56Z</time>
      </trkpt>
      <trkpt lat="45.4484" lon="4.7502">
        <ele>179.79927</ele>
        <time>2021-07-19T08:01:57Z</time>
      </trkpt>
      <trkpt lat="45.44843" lon="4.7502">
        <ele>179.84155</ele>
        <time>2021-07-19T08:01:58Z</time>
      </trkpt>
      <trkpt lat="45.44846" lon="4.7502">
        <ele>180.16393</ele>
        <time>2021-07-19T08:01:59Z</time>
      </trkpt>
      <trkpt lat="45.44849" lon="4.7502">
        <ele>180.38588</ele>
        <time>2021-07-19T08:02:00Z</time>
      </trkpt>
      <trkpt lat="45.44851" lon="4.7502">
        <ele>180.6501</ele>
        <time>2021-07-19T08:02:01Z</time>
      </trkpt>
      <trkpt lat="45.44854" lon="4.75021">
        <ele>180.86679</ele>
        <time>2021-07-19T08:02:02Z</time>
      </trkpt>
      <trkpt lat="45.44856" lon="4.75022">
        <ele>180.97247</ele>
        <time>2021-07-19T08:02:03Z</time>
      </trkpt>
      <trkpt lat="45.44859" lon="4.75023">
        <ele>181.16272</ele>
        <time>2021-07-19T08:02:04Z</time>
      </trkpt>
      <trkpt lat="45.44862" lon="4.75023">
        <ele>181.3741</ele>
        <time>2021-07-19T08:02:05Z</time>
      </trkpt>
      <trkpt lat="45.44864" lon="4.75024">
        <ele>181.54321</ele>
        <time>2021-07-19T08:02:06Z</time>
      </trkpt>
      <trkpt lat="45.44867" lon="4.75024">
        <ele>181.69647</ele>
        <time>2021-07-19T08:02:07Z</time>
      </trkpt>
      <trkpt lat="45.4487" lon="4.75023">
        <ele>182.1034</ele>
        <time>2021-07-19T08:02:08Z</time>
      </trkpt>
      <trkpt lat="45.44872" lon="4.75022">
        <ele>182.18794</ele>
        <time>2021-07-19T08:02:09Z</time>
      </trkpt>
      <trkpt lat="45.44875" lon="4.75022">
        <ele>182.45746</ele>
        <time>2021-07-19T08:02:10Z</time>
      </trkpt>
      <trkpt lat="45.44878" lon="4.75019">
        <ele>182.72168</ele>
        <time>2021-07-19T08:02:11Z</time>
      </trkpt>
      <trkpt lat="45.4488" lon="4.75017">
        <ele>182.8908</ele>
        <time>2021-07-19T08:02:12Z</time>
      </trkpt>
      <trkpt lat="45.44883" lon="4.75015">
        <ele>183.12862</ele>
        <time>2021-07-19T08:02:13Z</time>
      </trkpt>
      <trkpt lat="45.44885" lon="4.75014">
        <ele>183.26071</ele>
        <time>2021-07-19T08:02:14Z</time>
      </trkpt>
      <trkpt lat="45.44888" lon="4.75013">
        <ele>183.48268</ele>
        <time>2021-07-19T08:02:15Z</time>
      </trkpt>
      <trkpt lat="45.44891" lon="4.75012">
        <ele>183.63065</ele>
        <time>2021-07-19T08:02:16Z</time>
      </trkpt>
      <trkpt lat="45.44893" lon="4.75011">
        <ele>183.70992</ele>
        <time>2021-07-19T08:02:17Z</time>
      </trkpt>
      <trkpt lat="45.44896" lon="4.75009">
        <ele>183.75218</ele>
        <time>2021-07-19T08:02:18Z</time>
      </trkpt>
      <trkpt lat="45.44898" lon="4.75006">
        <ele>183.9213</ele>
        <time>2021-07-19T08:02:19Z</time>
      </trkpt>
      <trkpt lat="45.44901" lon="4.75004">
        <ele>184.13268</ele>
        <time>2021-07-19T08:02:20Z</time>
      </trkpt>
      <trkpt lat="45.44903" lon="4.75002">
        <ele>184.32822</ele>
        <time>2021-07-19T08:02:21Z</time>
      </trkpt>
      <trkpt lat="45.44906" lon="4.74999">
        <ele>184.49733</ele>
        <time>2021-07-19T08:02:22Z</time>
      </trkpt>
      <trkpt lat="45.44908" lon="4.74997">
        <ele>184.60303</ele>
        <time>2021-07-19T08:02:23Z</time>
      </trkpt>
      <trkpt lat="45.4491" lon="4.74995">
        <ele>184.76155</ele>
        <time>2021-07-19T08:02:24Z</time>
      </trkpt>
      <trkpt lat="45.44913" lon="4.74992">
        <ele>185.0945</ele>
        <time>2021-07-19T08:02:25Z</time>
      </trkpt>
      <trkpt lat="45.44915" lon="4.74989">
        <ele>185.00993</ele>
        <time>2021-07-19T08:02:26Z</time>
      </trkpt>
      <trkpt lat="45.44918" lon="4.74987">
        <ele>185.27946</ele>
        <time>2021-07-19T08:02:27Z</time>
      </trkpt>
      <trkpt lat="45.4492" lon="4.74984">
        <ele>185.58067</ele>
        <time>2021-07-19T08:02:28Z</time>
      </trkpt>
      <trkpt lat="45.44922" lon="4.74982">
        <ele>185.9506</ele>
        <time>2021-07-19T08:02:29Z</time>
      </trkpt>
      <trkpt lat="45.44925" lon="4.7498">
        <ele>186.05101</ele>
        <time>2021-07-19T08:02:30Z</time>
      </trkpt>
      <trkpt lat="45.44928" lon="4.74978">
        <ele>186.13556</ele>
        <time>2021-07-19T08:02:31Z</time>
      </trkpt>
      <trkpt lat="45.44931" lon="4.74975">
        <ele>186.2994</ele>
        <time>2021-07-19T08:02:32Z</time>
      </trkpt>
      <trkpt lat="45.44933" lon="4.74973">
        <ele>186.48434</ele>
        <time>2021-07-19T08:02:33Z</time>
      </trkpt>
      <trkpt lat="45.44936" lon="4.74971">
        <ele>186.92827</ele>
        <time>2021-07-19T08:02:34Z</time>
      </trkpt>
      <trkpt lat="45.44938" lon="4.74969">
        <ele>187.18193</ele>
        <time>2021-07-19T08:02:35Z</time>
      </trkpt>
      <trkpt lat="45.4494" lon="4.74967">
        <ele>187.33517</ele>
        <time>2021-07-19T08:02:36Z</time>
      </trkpt>
      <trkpt lat="45.44942" lon="4.74967">
        <ele>187.66812</ele>
        <time>2021-07-19T08:02:37Z</time>
      </trkpt>
      <trkpt lat="45.44944" lon="4.74964">
        <ele>187.84251</ele>
        <time>2021-07-19T08:02:38Z</time>
      </trkpt>
      <trkpt lat="45.44946" lon="4.74962">
        <ele>188.01161</ele>
        <time>2021-07-19T08:02:39Z</time>
      </trkpt>
      <trkpt lat="45.44947" lon="4.7496">
        <ele>188.27057</ele>
        <time>2021-07-19T08:02:40Z</time>
      </trkpt>
      <trkpt lat="45.44949" lon="4.74957">
        <ele>188.51894</ele>
        <time>2021-07-19T08:02:41Z</time>
      </trkpt>
      <trkpt lat="45.44951" lon="4.74956">
        <ele>188.74617</ele>
        <time>2021-07-19T08:02:42Z</time>
      </trkpt>
      <trkpt lat="45.44953" lon="4.74954">
        <ele>188.96284</ele>
        <time>2021-07-19T08:02:43Z</time>
      </trkpt>
      <trkpt lat="45.44955" lon="4.74953">
        <ele>189.00513</ele>
        <time>2021-07-19T08:02:44Z</time>
      </trkpt>
      <trkpt lat="45.44957" lon="4.74951">
        <ele>189.43318</ele>
        <time>2021-07-19T08:02:45Z</time>
      </trkpt>
      <trkpt lat="45.44958" lon="4.7495">
        <ele>189.50717</ele>
        <time>2021-07-19T08:02:46Z</time>
      </trkpt>
      <trkpt lat="45.44959" lon="4.74949">
        <ele>189.6657</ele>
        <time>2021-07-19T08:02:47Z</time>
      </trkpt>
      <trkpt lat="45.4496" lon="4.74948">
        <ele>189.91408</ele>
        <time>2021-07-19T08:02:48Z</time>
      </trkpt>
      <trkpt lat="45.44962" lon="4.74949">
        <ele>190.05148</ele>
        <time>2021-07-19T08:02:49Z</time>
      </trkpt>
      <trkpt lat="45.44964" lon="4.74948">
        <ele>190.35799</ele>
        <time>2021-07-19T08:02:50Z</time>
      </trkpt>
      <trkpt lat="45.44966" lon="4.74946">
        <ele>190.51125</ele>
        <time>2021-07-19T08:02:51Z</time>
      </trkpt>
      <trkpt lat="45.44968" lon="4.74944">
        <ele>190.64336</ele>
        <time>2021-07-19T08:02:52Z</time>
      </trkpt>
      <trkpt lat="45.44969" lon="4.74942">
        <ele>190.84418</ele>
        <time>2021-07-19T08:02:53Z</time>
      </trkpt>
      <trkpt lat="45.44972" lon="4.74939">
        <ele>191.008</ele>
        <time>2021-07-19T08:02:54Z</time>
      </trkpt>
      <trkpt lat="45.44975" lon="4.74936">
        <ele>191.26695</ele>
        <time>2021-07-19T08:02:55Z</time>
      </trkpt>
      <trkpt lat="45.44977" lon="4.74933">
        <ele>191.49947</ele>
        <time>2021-07-19T08:02:56Z</time>
      </trkpt>
      <trkpt lat="45.44979" lon="4.74929">
        <ele>191.68445</ele>
        <time>2021-07-19T08:02:57Z</time>
      </trkpt>
      <trkpt lat="45.44981" lon="4.74926">
        <ele>191.85884</ele>
        <time>2021-07-19T08:02:58Z</time>
      </trkpt>
      <trkpt lat="45.44982" lon="4.74925">
        <ele>191.99622</ele>
        <time>2021-07-19T08:02:59Z</time>
      </trkpt>
      <trkpt lat="45.44986" lon="4.74922">
        <ele>192.2129</ele>
        <time>2021-07-19T08:03:00Z</time>
      </trkpt>
      <trkpt lat="45.44992" lon="4.74919">
        <ele>192.37144</ele>
        <time>2021-07-19T08:03:01Z</time>
      </trkpt>
      <trkpt lat="45.44996" lon="4.74917">
        <ele>192.5564</ele>
        <time>2021-07-19T08:03:02Z</time>
      </trkpt>
      <trkpt lat="45.45" lon="4.74916">
        <ele>192.79948</ele>
        <time>2021-07-19T08:03:03Z</time>
      </trkpt>
      <trkpt lat="45.45003" lon="4.74915">
        <ele>193.09015</ele>
        <time>2021-07-19T08:03:04Z</time>
      </trkpt>
      <trkpt lat="45.45005" lon="4.74915">
        <ele>193.40723</ele>
        <time>2021-07-19T08:03:05Z</time>
      </trkpt>
      <trkpt lat="45.45008" lon="4.74914">
        <ele>193.56577</ele>
        <time>2021-07-19T08:03:06Z</time>
      </trkpt>
      <trkpt lat="45.4501" lon="4.74914">
        <ele>193.8353</ele>
        <time>2021-07-19T08:03:07Z</time>
      </trkpt>
      <trkpt lat="45.45012" lon="4.74913">
        <ele>194.12595</ele>
        <time>2021-07-19T08:03:08Z</time>
      </trkpt>
      <trkpt lat="45.45013" lon="4.74911">
        <ele>194.30034</ele>
        <time>2021-07-19T08:03:09Z</time>
      </trkpt>
      <trkpt lat="45.45014" lon="4.74908">
        <ele>194.42188</ele>
        <time>2021-07-19T08:03:10Z</time>
      </trkpt>
      <trkpt lat="45.45015" lon="4.74905">
        <ele>194.73367</ele>
        <time>2021-07-19T08:03:11Z</time>
      </trkpt>
      <trkpt lat="45.45016" lon="4.74902">
        <ele>195.05075</ele>
        <time>2021-07-19T08:03:12Z</time>
      </trkpt>
      <trkpt lat="45.45015" lon="4.74901">
        <ele>195.24101</ele>
        <time>2021-07-19T08:03:13Z</time>
      </trkpt>
      <trkpt lat="45.45013" lon="4.74899">
        <ele>195.52107</ele>
        <time>2021-07-19T08:03:14Z</time>
      </trkpt>
      <trkpt lat="45.45012" lon="4.74897">
        <ele>195.6849</ele>
        <time>2021-07-19T08:03:15Z</time>
      </trkpt>
      <trkpt lat="45.45011" lon="4.74895">
        <ele>195.95972</ele>
        <time>2021-07-19T08:03:16Z</time>
      </trkpt>
      <trkpt lat="45.45011" lon="4.74895">
        <ele>195.95972</ele>
        <time>2021-07-19T08:03:16Z</time>
      </trkpt>
      <trkpt lat="45.45011" lon="4.74895">
        <ele>195.95972</ele>
        <time>2021-07-19T08:03:16Z</time>
      </trkpt>
      <trkpt lat="45.44999" lon="4.74905">
        <ele>197.70363</ele>
        <time>2021-07-19T08:03:27Z</time>
      </trkpt>
      <trkpt lat="45.44997" lon="4.74906">
        <ele>197.70363</ele>
        <time>2021-07-19T08:03:28Z</time>
      </trkpt>
      <trkpt lat="45.44993" lon="4.74907">
        <ele>197.86746</ele>
        <time>2021-07-19T08:03:29Z</time>
      </trkpt>
      <trkpt lat="45.44984" lon="4.74907">
        <ele>198.29552</ele>
        <time>2021-07-19T08:03:31Z</time>
      </trkpt>
      <trkpt lat="45.44984" lon="4.74907">
        <ele>198.29552</ele>
        <time>2021-07-19T08:03:31Z</time>
      </trkpt>
      <trkpt lat="45.44981" lon="4.74906">
        <ele>198.41707</ele>
        <time>2021-07-19T08:03:32Z</time>
      </trkpt>
      <trkpt lat="45.44973" lon="4.74911">
        <ele>198.67073</ele>
        <time>2021-07-19T08:03:33Z</time>
      </trkpt>
      <trkpt lat="45.44969" lon="4.74918">
        <ele>198.82397</ele>
        <time>2021-07-19T08:03:34Z</time>
      </trkpt>
      <trkpt lat="45.44965" lon="4.7492">
        <ele>199.01952</ele>
        <time>2021-07-19T08:03:35Z</time>
      </trkpt>
      <trkpt lat="45.4496" lon="4.74919">
        <ele>199.17805</ele>
        <time>2021-07-19T08:03:36Z</time>
      </trkpt>
      <trkpt lat="45.44957" lon="4.7492">
        <ele>199.38943</ele>
        <time>2021-07-19T08:03:37Z</time>
      </trkpt>
      <trkpt lat="45.44953" lon="4.74919">
        <ele>199.5797</ele>
        <time>2021-07-19T08:03:38Z</time>
      </trkpt>
      <trkpt lat="45.44949" lon="4.74919">
        <ele>199.6748</ele>
        <time>2021-07-19T08:03:39Z</time>
      </trkpt>
      <trkpt lat="45.44946" lon="4.74918">
        <ele>199.9179</ele>
        <time>2021-07-19T08:03:40Z</time>
      </trkpt>
      <trkpt lat="45.44942" lon="4.74917">
        <ele>200.15044</ele>
        <time>2021-07-19T08:03:41Z</time>
      </trkpt>
      <trkpt lat="45.44939" lon="4.74916">
        <ele>200.46223</ele>
        <time>2021-07-19T08:03:42Z</time>
      </trkpt>
      <trkpt lat="45.44936" lon="4.74915">
        <ele>200.64719</ele>
        <time>2021-07-19T08:03:43Z</time>
      </trkpt>
      <trkpt lat="45.44932" lon="4.74914">
        <ele>200.9114</ele>
        <time>2021-07-19T08:03:44Z</time>
      </trkpt>
      <trkpt lat="45.44928" lon="4.74914">
        <ele>201.11223</ele>
        <time>2021-07-19T08:03:45Z</time>
      </trkpt>
      <trkpt lat="45.44925" lon="4.74914">
        <ele>201.31833</ele>
        <time>2021-07-19T08:03:46Z</time>
      </trkpt>
      <trkpt lat="45.44922" lon="4.74914">
        <ele>201.38704</ele>
        <time>2021-07-19T08:03:47Z</time>
      </trkpt>
      <trkpt lat="45.44919" lon="4.74913">
        <ele>201.63013</ele>
        <time>2021-07-19T08:03:48Z</time>
      </trkpt>
      <trkpt lat="45.44915" lon="4.74913">
        <ele>201.85208</ele>
        <time>2021-07-19T08:03:49Z</time>
      </trkpt>
      <trkpt lat="45.44913" lon="4.74913">
        <ele>202.23257</ele>
        <time>2021-07-19T08:03:50Z</time>
      </trkpt>
      <trkpt lat="45.4491" lon="4.74912">
        <ele>202.43867</ele>
        <time>2021-07-19T08:03:51Z</time>
      </trkpt>
      <trkpt lat="45.44904" lon="4.74911">
        <ele>202.98827</ele>
        <time>2021-07-19T08:03:53Z</time>
      </trkpt>
      <trkpt lat="45.44902" lon="4.74911">
        <ele>203.11511</ele>
        <time>2021-07-19T08:03:54Z</time>
      </trkpt>
      <trkpt lat="45.44902" lon="4.74911">
        <ele>203.11511</ele>
        <time>2021-07-19T08:03:54Z</time>
      </trkpt>
      <trkpt lat="45.44899" lon="4.7491">
        <ele>203.33707</ele>
        <time>2021-07-19T08:03:55Z</time>
      </trkpt>
      <trkpt lat="45.44896" lon="4.74909">
        <ele>203.51674</ele>
        <time>2021-07-19T08:03:56Z</time>
      </trkpt>
      <trkpt lat="45.44893" lon="4.74909">
        <ele>203.7017</ele>
        <time>2021-07-19T08:03:57Z</time>
      </trkpt>
      <trkpt lat="45.4489" lon="4.74908">
        <ele>204.14034</ele>
        <time>2021-07-19T08:03:58Z</time>
      </trkpt>
      <trkpt lat="45.44887" lon="4.74908">
        <ele>204.34116</ele>
        <time>2021-07-19T08:03:59Z</time>
      </trkpt>
      <trkpt lat="45.44884" lon="4.74907">
        <ele>204.61595</ele>
        <time>2021-07-19T08:04:00Z</time>
      </trkpt>
      <trkpt lat="45.44878" lon="4.74905">
        <ele>204.89604</ele>
        <time>2021-07-19T08:04:02Z</time>
      </trkpt>
      <trkpt lat="45.44875" lon="4.74904">
        <ele>205.17082</ele>
        <time>2021-07-19T08:04:03Z</time>
      </trkpt>
      <trkpt lat="45.44875" lon="4.74904">
        <ele>205.17082</ele>
        <time>2021-07-19T08:04:03Z</time>
      </trkpt>
      <trkpt lat="45.44872" lon="4.74903">
        <ele>205.40337</ele>
        <time>2021-07-19T08:04:04Z</time>
      </trkpt>
      <trkpt lat="45.4487" lon="4.74902">
        <ele>205.56189</ele>
        <time>2021-07-19T08:04:05Z</time>
      </trkpt>
      <trkpt lat="45.44867" lon="4.749">
        <ele>205.67816</ele>
        <time>2021-07-19T08:04:06Z</time>
      </trkpt>
      <trkpt lat="45.4486" lon="4.74896">
        <ele>206.10622</ele>
        <time>2021-07-19T08:04:08Z</time>
      </trkpt>
      <trkpt lat="45.4486" lon="4.74896">
        <ele>206.10622</ele>
        <time>2021-07-19T08:04:08Z</time>
      </trkpt>
      <trkpt lat="45.44857" lon="4.74895">
        <ele>206.34402</ele>
        <time>2021-07-19T08:04:09Z</time>
      </trkpt>
      <trkpt lat="45.44852" lon="4.74891">
        <ele>206.71922</ele>
        <time>2021-07-19T08:04:11Z</time>
      </trkpt>
      <trkpt lat="45.44848" lon="4.74887">
        <ele>206.99931</ele>
        <time>2021-07-19T08:04:12Z</time>
      </trkpt>
      <trkpt lat="45.44848" lon="4.74887">
        <ele>206.99931</ele>
        <time>2021-07-19T08:04:12Z</time>
      </trkpt>
      <trkpt lat="45.44845" lon="4.74884">
        <ele>207.19485</ele>
        <time>2021-07-19T08:04:13Z</time>
      </trkpt>
      <trkpt lat="45.44843" lon="4.7488">
        <ele>207.41681</ele>
        <time>2021-07-19T08:04:14Z</time>
      </trkpt>
      <trkpt lat="45.44838" lon="4.74872">
        <ele>208.09323</ele>
        <time>2021-07-19T08:04:16Z</time>
      </trkpt>
      <trkpt lat="45.44836" lon="4.74867">
        <ele>208.33633</ele>
        <time>2021-07-19T08:04:17Z</time>
      </trkpt>
      <trkpt lat="45.44835" lon="4.74862">
        <ele>208.57942</ele>
        <time>2021-07-19T08:04:18Z</time>
      </trkpt>
      <trkpt lat="45.44834" lon="4.74857">
        <ele>208.81195</ele>
        <time>2021-07-19T08:04:19Z</time>
      </trkpt>
      <trkpt lat="45.44834" lon="4.74853">
        <ele>209.03918</ele>
        <time>2021-07-19T08:04:20Z</time>
      </trkpt>
      <trkpt lat="45.44834" lon="4.74848">
        <ele>209.28229</ele>
        <time>2021-07-19T08:04:21Z</time>
      </trkpt>
      <trkpt lat="45.44834" lon="4.74844">
        <ele>209.45668</ele>
        <time>2021-07-19T08:04:22Z</time>
      </trkpt>
      <trkpt lat="45.44835" lon="4.74841">
        <ele>209.8319</ele>
        <time>2021-07-19T08:04:23Z</time>
      </trkpt>
      <trkpt lat="45.44835" lon="4.74841">
        <ele>209.8319</ele>
        <time>2021-07-19T08:04:23Z</time>
      </trkpt>
      <trkpt lat="45.44835" lon="4.74832">
        <ele>210.2388</ele>
        <time>2021-07-19T08:04:25Z</time>
      </trkpt>
      <trkpt lat="45.44835" lon="4.74828">
        <ele>210.48718</ele>
        <time>2021-07-19T08:04:26Z</time>
      </trkpt>
      <trkpt lat="45.44835" lon="4.74828">
        <ele>210.48718</ele>
        <time>2021-07-19T08:04:26Z</time>
      </trkpt>
      <trkpt lat="45.44836" lon="4.74824">
        <ele>210.5506</ele>
        <time>2021-07-19T08:04:27Z</time>
      </trkpt>
      <trkpt lat="45.44837" lon="4.7482">
        <ele>210.84125</ele>
        <time>2021-07-19T08:04:28Z</time>
      </trkpt>
      <trkpt lat="45.44838" lon="4.74817">
        <ele>210.94167</ele>
        <time>2021-07-19T08:04:29Z</time>
      </trkpt>
      <trkpt lat="45.44838" lon="4.74812">
        <ele>211.32216</ele>
        <time>2021-07-19T08:04:30Z</time>
      </trkpt>
      <trkpt lat="45.44839" lon="4.74808">
        <ele>211.59695</ele>
        <time>2021-07-19T08:04:31Z</time>
      </trkpt>
      <trkpt lat="45.4484" lon="4.748">
        <ele>211.95103</ele>
        <time>2021-07-19T08:04:33Z</time>
      </trkpt>
      <trkpt lat="45.4484" lon="4.748">
        <ele>211.95103</ele>
        <time>2021-07-19T08:04:33Z</time>
      </trkpt>
      <trkpt lat="45.4484" lon="4.74795">
        <ele>212.08315</ele>
        <time>2021-07-19T08:04:34Z</time>
      </trkpt>
      <trkpt lat="45.44841" lon="4.74791">
        <ele>212.22583</ele>
        <time>2021-07-19T08:04:35Z</time>
      </trkpt>
      <trkpt lat="45.44841" lon="4.74787">
        <ele>212.33153</ele>
        <time>2021-07-19T08:04:36Z</time>
      </trkpt>
      <trkpt lat="45.44841" lon="4.74782">
        <ele>212.55348</ele>
        <time>2021-07-19T08:04:37Z</time>
      </trkpt>
      <trkpt lat="45.44841" lon="4.74775">
        <ele>212.93925</ele>
        <time>2021-07-19T08:04:39Z</time>
      </trkpt>
      <trkpt lat="45.44841" lon="4.74775">
        <ele>212.93925</ele>
        <time>2021-07-19T08:04:39Z</time>
      </trkpt>
      <trkpt lat="45.44841" lon="4.74771">
        <ele>213.11365</ele>
        <time>2021-07-19T08:04:40Z</time>
      </trkpt>
      <trkpt lat="45.4484" lon="4.74767">
        <ele>213.54698</ele>
        <time>2021-07-19T08:04:41Z</time>
      </trkpt>
      <trkpt lat="45.44838" lon="4.74764">
        <ele>213.81651</ele>
        <time>2021-07-19T08:04:42Z</time>
      </trkpt>
      <trkpt lat="45.44834" lon="4.74759">
        <ele>214.28156</ele>
        <time>2021-07-19T08:04:44Z</time>
      </trkpt>
      <trkpt lat="45.44834" lon="4.74759">
        <ele>214.28156</ele>
        <time>2021-07-19T08:04:44Z</time>
      </trkpt>
      <trkpt lat="45.4483" lon="4.74757">
        <ele>214.41368</ele>
        <time>2021-07-19T08:04:45Z</time>
      </trkpt>
      <trkpt lat="45.44825" lon="4.7475">
        <ele>214.96855</ele>
        <time>2021-07-19T08:04:47Z</time>
      </trkpt>
      <trkpt lat="45.44825" lon="4.7475">
        <ele>214.96855</ele>
        <time>2021-07-19T08:04:47Z</time>
      </trkpt>
      <trkpt lat="45.44821" lon="4.74745">
        <ele>215.18524</ele>
        <time>2021-07-19T08:04:49Z</time>
      </trkpt>
      <trkpt lat="45.44821" lon="4.74745">
        <ele>215.18524</ele>
        <time>2021-07-19T08:04:49Z</time>
      </trkpt>
      <trkpt lat="45.44819" lon="4.74742">
        <ele>215.40718</ele>
        <time>2021-07-19T08:04:50Z</time>
      </trkpt>
      <trkpt lat="45.44817" lon="4.74739">
        <ele>215.63971</ele>
        <time>2021-07-19T08:04:51Z</time>
      </trkpt>
      <trkpt lat="45.44815" lon="4.74735">
        <ele>215.91978</ele>
        <time>2021-07-19T08:04:52Z</time>
      </trkpt>
      <trkpt lat="45.44813" lon="4.74732">
        <ele>216.03606</ele>
        <time>2021-07-19T08:04:53Z</time>
      </trkpt>
      <trkpt lat="45.44812" lon="4.74728">
        <ele>216.27916</ele>
        <time>2021-07-19T08:04:54Z</time>
      </trkpt>
      <trkpt lat="45.44811" lon="4.74723">
        <ele>216.62263</ele>
        <time>2021-07-19T08:04:55Z</time>
      </trkpt>
      <trkpt lat="45.4481" lon="4.74717">
        <ele>216.82346</ele>
        <time>2021-07-19T08:04:56Z</time>
      </trkpt>
      <trkpt lat="45.4481" lon="4.74712">
        <ele>217.04541</ele>
        <time>2021-07-19T08:04:57Z</time>
      </trkpt>
      <trkpt lat="45.44809" lon="4.74707">
        <ele>217.13525</ele>
        <time>2021-07-19T08:04:58Z</time>
      </trkpt>
      <trkpt lat="45.44809" lon="4.74703">
        <ele>217.38364</ele>
        <time>2021-07-19T08:04:59Z</time>
      </trkpt>
      <trkpt lat="45.44811" lon="4.74694">
        <ele>217.79056</ele>
        <time>2021-07-19T08:05:01Z</time>
      </trkpt>
      <trkpt lat="45.4481" lon="4.74691">
        <ele>217.95438</ele>
        <time>2021-07-19T08:05:02Z</time>
      </trkpt>
      <trkpt lat="45.44809" lon="4.74688">
        <ele>218.69951</ele>
        <time>2021-07-19T08:05:03Z</time>
      </trkpt>
      <trkpt lat="45.44809" lon="4.74688">
        <ele>218.69951</ele>
        <time>2021-07-19T08:05:03Z</time>
      </trkpt>
      <trkpt lat="45.44809" lon="4.74684">
        <ele>218.27673</ele>
        <time>2021-07-19T08:05:04Z</time>
      </trkpt>
      <trkpt lat="45.44811" lon="4.74675">
        <ele>219.15399</ele>
        <time>2021-07-19T08:05:06Z</time>
      </trkpt>
      <trkpt lat="45.44811" lon="4.74675">
        <ele>219.15399</ele>
        <time>2021-07-19T08:05:06Z</time>
      </trkpt>
      <trkpt lat="45.44812" lon="4.7467">
        <ele>218.99017</ele>
        <time>2021-07-19T08:05:07Z</time>
      </trkpt>
      <trkpt lat="45.44813" lon="4.74665">
        <ele>219.20685</ele>
        <time>2021-07-19T08:05:08Z</time>
      </trkpt>
      <trkpt lat="45.44814" lon="4.7466">
        <ele>219.34424</ele>
        <time>2021-07-19T08:05:09Z</time>
      </trkpt>
      <trkpt lat="45.44814" lon="4.74656">
        <ele>219.58205</ele>
        <time>2021-07-19T08:05:10Z</time>
      </trkpt>
      <trkpt lat="45.44813" lon="4.74654">
        <ele>219.83572</ele>
        <time>2021-07-19T08:05:11Z</time>
      </trkpt>
      <trkpt lat="45.44817" lon="4.74645">
        <ele>220.13693</ele>
        <time>2021-07-19T08:05:13Z</time>
      </trkpt>
      <trkpt lat="45.44816" lon="4.74641">
        <ele>220.33247</ele>
        <time>2021-07-19T08:05:14Z</time>
      </trkpt>
      <trkpt lat="45.44815" lon="4.74639">
        <ele>220.59142</ele>
        <time>2021-07-19T08:05:15Z</time>
      </trkpt>
      <trkpt lat="45.44815" lon="4.74639">
        <ele>220.59142</ele>
        <time>2021-07-19T08:05:15Z</time>
      </trkpt>
      <trkpt lat="45.44814" lon="4.74636">
        <ele>220.67596</ele>
        <time>2021-07-19T08:05:16Z</time>
      </trkpt>
      <trkpt lat="45.44815" lon="4.74628">
        <ele>221.11987</ele>
        <time>2021-07-19T08:05:18Z</time>
      </trkpt>
      <trkpt lat="45.44815" lon="4.74628">
        <ele>221.11987</ele>
        <time>2021-07-19T08:05:18Z</time>
      </trkpt>
      <trkpt lat="45.44814" lon="4.7462">
        <ele>221.54793</ele>
        <time>2021-07-19T08:05:20Z</time>
      </trkpt>
      <trkpt lat="45.44814" lon="4.7462">
        <ele>221.54793</ele>
        <time>2021-07-19T08:05:20Z</time>
      </trkpt>
      <trkpt lat="45.44814" lon="4.74617">
        <ele>221.73288</ele>
        <time>2021-07-19T08:05:21Z</time>
      </trkpt>
      <trkpt lat="45.44812" lon="4.74614">
        <ele>222.01828</ele>
        <time>2021-07-19T08:05:22Z</time>
      </trkpt>
      <trkpt lat="45.44812" lon="4.74611">
        <ele>222.15565</ele>
        <time>2021-07-19T08:05:23Z</time>
      </trkpt>
      <trkpt lat="45.4481" lon="4.74604">
        <ele>222.83739</ele>
        <time>2021-07-19T08:05:25Z</time>
      </trkpt>
      <trkpt lat="45.4481" lon="4.74604">
        <ele>222.83739</ele>
        <time>2021-07-19T08:05:25Z</time>
      </trkpt>
      <trkpt lat="45.44809" lon="4.74595">
        <ele>223.34999</ele>
        <time>2021-07-19T08:05:27Z</time>
      </trkpt>
      <trkpt lat="45.44809" lon="4.74591">
        <ele>223.55609</ele>
        <time>2021-07-19T08:05:28Z</time>
      </trkpt>
      <trkpt lat="45.44809" lon="4.74591">
        <ele>223.55609</ele>
        <time>2021-07-19T08:05:28Z</time>
      </trkpt>
      <trkpt lat="45.44808" lon="4.74583">
        <ele>223.97887</ele>
        <time>2021-07-19T08:05:30Z</time>
      </trkpt>
      <trkpt lat="45.44808" lon="4.74579">
        <ele>224.10042</ele>
        <time>2021-07-19T08:05:31Z</time>
      </trkpt>
      <trkpt lat="45.44808" lon="4.74579">
        <ele>224.10042</ele>
        <time>2021-07-19T08:05:31Z</time>
      </trkpt>
      <trkpt lat="45.44807" lon="4.74576">
        <ele>224.2114</ele>
        <time>2021-07-19T08:05:32Z</time>
      </trkpt>
      <trkpt lat="45.44807" lon="4.74569">
        <ele>224.77686</ele>
        <time>2021-07-19T08:05:34Z</time>
      </trkpt>
      <trkpt lat="45.44808" lon="4.74564">
        <ele>224.87198</ele>
        <time>2021-07-19T08:05:35Z</time>
      </trkpt>
      <trkpt lat="45.44807" lon="4.7456">
        <ele>225.15205</ele>
        <time>2021-07-19T08:05:36Z</time>
      </trkpt>
      <trkpt lat="45.44809" lon="4.74556">
        <ele>225.2736</ele>
        <time>2021-07-19T08:05:37Z</time>
      </trkpt>
      <trkpt lat="45.44808" lon="4.74551">
        <ele>225.51141</ele>
        <time>2021-07-19T08:05:38Z</time>
      </trkpt>
      <trkpt lat="45.44809" lon="4.74548">
        <ele>225.60124</ele>
        <time>2021-07-19T08:05:39Z</time>
      </trkpt>
      <trkpt lat="45.44809" lon="4.74548">
        <ele>225.60124</ele>
        <time>2021-07-19T08:05:39Z</time>
      </trkpt>
      <trkpt lat="45.4481" lon="4.74539">
        <ele>225.98175</ele>
        <time>2021-07-19T08:05:41Z</time>
      </trkpt>
      <trkpt lat="45.44812" lon="4.74534">
        <ele>226.10858</ele>
        <time>2021-07-19T08:05:42Z</time>
      </trkpt>
      <trkpt lat="45.44812" lon="4.7453">
        <ele>226.29883</ele>
        <time>2021-07-19T08:05:43Z</time>
      </trkpt>
      <trkpt lat="45.4481" lon="4.74527">
        <ele>226.48906</ele>
        <time>2021-07-19T08:05:44Z</time>
      </trkpt>
      <trkpt lat="45.4481" lon="4.74527">
        <ele>226.48906</ele>
        <time>2021-07-19T08:05:44Z</time>
      </trkpt>
      <trkpt lat="45.4481" lon="4.74519">
        <ele>226.81145</ele>
        <time>2021-07-19T08:05:46Z</time>
      </trkpt>
      <trkpt lat="45.4481" lon="4.74519">
        <ele>226.81145</ele>
        <time>2021-07-19T08:05:46Z</time>
      </trkpt>
      <trkpt lat="45.44812" lon="4.74515">
        <ele>226.83784</ele>
        <time>2021-07-19T08:05:47Z</time>
      </trkpt>
      <trkpt lat="45.44811" lon="4.74507">
        <ele>227.21307</ele>
        <time>2021-07-19T08:05:49Z</time>
      </trkpt>
      <trkpt lat="45.44811" lon="4.74507">
        <ele>227.21307</ele>
        <time>2021-07-19T08:05:49Z</time>
      </trkpt>
      <trkpt lat="45.44809" lon="4.745">
        <ele>227.77324</ele>
        <time>2021-07-19T08:05:51Z</time>
      </trkpt>
      <trkpt lat="45.44809" lon="4.745">
        <ele>227.77324</ele>
        <time>2021-07-19T08:05:51Z</time>
      </trkpt>
      <trkpt lat="45.44808" lon="4.74496">
        <ele>227.97934</ele>
        <time>2021-07-19T08:05:52Z</time>
      </trkpt>
      <trkpt lat="45.44807" lon="4.74493">
        <ele>228.21185</ele>
        <time>2021-07-19T08:05:53Z</time>
      </trkpt>
      <trkpt lat="45.44806" lon="4.74488">
        <ele>228.24886</ele>
        <time>2021-07-19T08:05:54Z</time>
      </trkpt>
      <trkpt lat="45.44805" lon="4.74485">
        <ele>228.48138</ele>
        <time>2021-07-19T08:05:55Z</time>
      </trkpt>
      <trkpt lat="45.44804" lon="4.7448">
        <ele>228.50253</ele>
        <time>2021-07-19T08:05:56Z</time>
      </trkpt>
      <trkpt lat="45.44804" lon="4.74477">
        <ele>228.4761</ele>
        <time>2021-07-19T08:05:57Z</time>
      </trkpt>
      <trkpt lat="45.44804" lon="4.74472">
        <ele>228.87772</ele>
        <time>2021-07-19T08:05:58Z</time>
      </trkpt>
      <trkpt lat="45.44803" lon="4.74468">
        <ele>229.06798</ele>
        <time>2021-07-19T08:05:59Z</time>
      </trkpt>
      <trkpt lat="45.44801" lon="4.7446">
        <ele>229.06268</ele>
        <time>2021-07-19T08:06:01Z</time>
      </trkpt>
      <trkpt lat="45.44802" lon="4.74456">
        <ele>229.23708</ele>
        <time>2021-07-19T08:06:02Z</time>
      </trkpt>
      <trkpt lat="45.44802" lon="4.74456">
        <ele>229.23708</ele>
        <time>2021-07-19T08:06:02Z</time>
      </trkpt>
      <trkpt lat="45.44801" lon="4.74452">
        <ele>229.41676</ele>
        <time>2021-07-19T08:06:03Z</time>
      </trkpt>
      <trkpt lat="45.44801" lon="4.74448">
        <ele>229.65985</ele>
        <time>2021-07-19T08:06:04Z</time>
      </trkpt>
      <trkpt lat="45.44801" lon="4.74445">
        <ele>229.90294</ele>
        <time>2021-07-19T08:06:05Z</time>
      </trkpt>
      <trkpt lat="45.448" lon="4.74441">
        <ele>230.18831</ele>
        <time>2021-07-19T08:06:06Z</time>
      </trkpt>
      <trkpt lat="45.448" lon="4.74433">
        <ele>230.45255</ele>
        <time>2021-07-19T08:06:08Z</time>
      </trkpt>
      <trkpt lat="45.448" lon="4.74429">
        <ele>230.73792</ele>
        <time>2021-07-19T08:06:09Z</time>
      </trkpt>
      <trkpt lat="45.448" lon="4.74429">
        <ele>230.73792</ele>
        <time>2021-07-19T08:06:09Z</time>
      </trkpt>
      <trkpt lat="45.44801" lon="4.74425">
        <ele>230.87532</ele>
        <time>2021-07-19T08:06:10Z</time>
      </trkpt>
      <trkpt lat="45.44801" lon="4.7442">
        <ele>231.15013</ele>
        <time>2021-07-19T08:06:11Z</time>
      </trkpt>
      <trkpt lat="45.44799" lon="4.74414">
        <ele>231.54646</ele>
        <time>2021-07-19T08:06:13Z</time>
      </trkpt>
      <trkpt lat="45.44798" lon="4.7441">
        <ele>231.72087</ele>
        <time>2021-07-19T08:06:14Z</time>
      </trkpt>
      <trkpt lat="45.44797" lon="4.74406">
        <ele>231.79485</ele>
        <time>2021-07-19T08:06:15Z</time>
      </trkpt>
      <trkpt lat="45.44797" lon="4.74406">
        <ele>231.79485</ele>
        <time>2021-07-19T08:06:15Z</time>
      </trkpt>
      <trkpt lat="45.44795" lon="4.74402">
        <ele>231.85826</ele>
        <time>2021-07-19T08:06:16Z</time>
      </trkpt>
      <trkpt lat="45.44792" lon="4.74395">
        <ele>232.04851</ele>
        <time>2021-07-19T08:06:18Z</time>
      </trkpt>
      <trkpt lat="45.4479" lon="4.74393">
        <ele>232.22818</ele>
        <time>2021-07-19T08:06:19Z</time>
      </trkpt>
      <trkpt lat="45.44787" lon="4.74391">
        <ele>232.35503</ele>
        <time>2021-07-19T08:06:20Z</time>
      </trkpt>
      <trkpt lat="45.44784" lon="4.74391">
        <ele>232.36559</ele>
        <time>2021-07-19T08:06:21Z</time>
      </trkpt>
      <trkpt lat="45.44784" lon="4.74391">
        <ele>232.36559</ele>
        <time>2021-07-19T08:06:21Z</time>
      </trkpt>
      <trkpt lat="45.4478" lon="4.74392">
        <ele>232.6034</ele>
        <time>2021-07-19T08:06:22Z</time>
      </trkpt>
      <trkpt lat="45.44775" lon="4.74395">
        <ele>232.82007</ele>
        <time>2021-07-19T08:06:24Z</time>
      </trkpt>
      <trkpt lat="45.44774" lon="4.74397">
        <ele>232.95218</ele>
        <time>2021-07-19T08:06:25Z</time>
      </trkpt>
      <trkpt lat="45.44772" lon="4.74398">
        <ele>233.03145</ele>
        <time>2021-07-19T08:06:26Z</time>
      </trkpt>
      <trkpt lat="45.44771" lon="4.744">
        <ele>233.21642</ele>
        <time>2021-07-19T08:06:27Z</time>
      </trkpt>
      <trkpt lat="45.44769" lon="4.74403">
        <ele>233.38553</ele>
        <time>2021-07-19T08:06:28Z</time>
      </trkpt>
      <trkpt lat="45.44768" lon="4.74407">
        <ele>233.49649</ele>
        <time>2021-07-19T08:06:29Z</time>
      </trkpt>
      <trkpt lat="45.44767" lon="4.74409">
        <ele>233.78186</ele>
        <time>2021-07-19T08:06:30Z</time>
      </trkpt>
      <trkpt lat="45.44767" lon="4.74409">
        <ele>233.78186</ele>
        <time>2021-07-19T08:06:30Z</time>
      </trkpt>
      <trkpt lat="45.44766" lon="4.74412">
        <ele>233.92455</ele>
        <time>2021-07-19T08:06:31Z</time>
      </trkpt>
      <trkpt lat="45.44766" lon="4.74419">
        <ele>234.25749</ele>
        <time>2021-07-19T08:06:33Z</time>
      </trkpt>
      <trkpt lat="45.44766" lon="4.74424">
        <ele>234.59041</ele>
        <time>2021-07-19T08:06:34Z</time>
      </trkpt>
      <trkpt lat="45.44766" lon="4.74424">
        <ele>234.59041</ele>
        <time>2021-07-19T08:06:34Z</time>
      </trkpt>
      <trkpt lat="45.44767" lon="4.74434">
        <ele>234.95506</ele>
        <time>2021-07-19T08:06:36Z</time>
      </trkpt>
      <trkpt lat="45.44767" lon="4.74441">
        <ele>235.35669</ele>
        <time>2021-07-19T08:06:37Z</time>
      </trkpt>
      <trkpt lat="45.44768" lon="4.74445">
        <ele>235.48882</ele>
        <time>2021-07-19T08:06:38Z</time>
      </trkpt>
      <trkpt lat="45.44769" lon="4.7445">
        <ele>235.47295</ele>
        <time>2021-07-19T08:06:39Z</time>
      </trkpt>
      <trkpt lat="45.44769" lon="4.7445">
        <ele>235.47295</ele>
        <time>2021-07-19T08:06:39Z</time>
      </trkpt>
      <trkpt lat="45.44769" lon="4.74455">
        <ele>235.43596</ele>
        <time>2021-07-19T08:06:40Z</time>
      </trkpt>
      <trkpt lat="45.4477" lon="4.74464">
        <ele>235.64206</ele>
        <time>2021-07-19T08:06:42Z</time>
      </trkpt>
      <trkpt lat="45.4477" lon="4.74464">
        <ele>235.64206</ele>
        <time>2021-07-19T08:06:42Z</time>
      </trkpt>
      <trkpt lat="45.44769" lon="4.74474">
        <ele>236.4189</ele>
        <time>2021-07-19T08:06:44Z</time>
      </trkpt>
      <trkpt lat="45.44767" lon="4.74483">
        <ele>236.56686</ele>
        <time>2021-07-19T08:06:45Z</time>
      </trkpt>
      <trkpt lat="45.44767" lon="4.74483">
        <ele>236.56686</ele>
        <time>2021-07-19T08:06:45Z</time>
      </trkpt>
      <trkpt lat="45.44766" lon="4.7449">
        <ele>236.9368</ele>
        <time>2021-07-19T08:06:46Z</time>
      </trkpt>
      <trkpt lat="45.44763" lon="4.74504">
        <ele>237.79819</ele>
        <time>2021-07-19T08:06:48Z</time>
      </trkpt>
      <trkpt lat="45.44763" lon="4.74504">
        <ele>237.79819</ele>
        <time>2021-07-19T08:06:48Z</time>
      </trkpt>
      <trkpt lat="45.44762" lon="4.7451">
        <ele>238.03072</ele>
        <time>2021-07-19T08:06:49Z</time>
      </trkpt>
      <trkpt lat="45.44758" lon="4.74519">
        <ele>238.53804</ele>
        <time>2021-07-19T08:06:51Z</time>
      </trkpt>
      <trkpt lat="45.44757" lon="4.74524">
        <ele>238.9027</ele>
        <time>2021-07-19T08:06:52Z</time>
      </trkpt>
      <trkpt lat="45.44756" lon="4.74528">
        <ele>239.09293</ele>
        <time>2021-07-19T08:06:53Z</time>
      </trkpt>
      <trkpt lat="45.44756" lon="4.74528">
        <ele>239.09293</ele>
        <time>2021-07-19T08:06:53Z</time>
      </trkpt>
      <trkpt lat="45.44754" lon="4.74532">
        <ele>239.3096</ele>
        <time>2021-07-19T08:06:54Z</time>
      </trkpt>
      <trkpt lat="45.44751" lon="4.74539">
        <ele>239.66898</ele>
        <time>2021-07-19T08:06:56Z</time>
      </trkpt>
      <trkpt lat="45.44749" lon="4.74543">
        <ele>239.88564</ele>
        <time>2021-07-19T08:06:57Z</time>
      </trkpt>
      <trkpt lat="45.44748" lon="4.74546">
        <ele>240.18684</ele>
        <time>2021-07-19T08:06:58Z</time>
      </trkpt>
      <trkpt lat="45.44745" lon="4.7455">
        <ele>240.45638</ele>
        <time>2021-07-19T08:06:59Z</time>
      </trkpt>
      <trkpt lat="45.44743" lon="4.74552">
        <ele>240.39296</ele>
        <time>2021-07-19T08:07:00Z</time>
      </trkpt>
      <trkpt lat="45.44743" lon="4.74552">
        <ele>240.39296</ele>
        <time>2021-07-19T08:07:00Z</time>
      </trkpt>
      <trkpt lat="45.44741" lon="4.74555">
        <ele>240.90027</ele>
        <time>2021-07-19T08:07:01Z</time>
      </trkpt>
      <trkpt lat="45.44735" lon="4.7456">
        <ele>241.55557</ele>
        <time>2021-07-19T08:07:03Z</time>
      </trkpt>
      <trkpt lat="45.44732" lon="4.74561">
        <ele>241.78282</ele>
        <time>2021-07-19T08:07:04Z</time>
      </trkpt>
      <trkpt lat="45.44729" lon="4.74562">
        <ele>242.03648</ele>
        <time>2021-07-19T08:07:05Z</time>
      </trkpt>
      <trkpt lat="45.44727" lon="4.74563">
        <ele>242.29543</ele>
        <time>2021-07-19T08:07:06Z</time>
      </trkpt>
      <trkpt lat="45.44727" lon="4.74563">
        <ele>242.29543</ele>
        <time>2021-07-19T08:07:06Z</time>
      </trkpt>
      <trkpt lat="45.44721" lon="4.74564">
        <ele>242.7182</ele>
        <time>2021-07-19T08:07:08Z</time>
      </trkpt>
      <trkpt lat="45.44718" lon="4.74565">
        <ele>242.993</ele>
        <time>2021-07-19T08:07:09Z</time>
      </trkpt>
      <trkpt lat="45.44718" lon="4.74565">
        <ele>242.993</ele>
        <time>2021-07-19T08:07:09Z</time>
      </trkpt>
      <trkpt lat="45.44712" lon="4.74566">
        <ele>243.49504</ele>
        <time>2021-07-19T08:07:11Z</time>
      </trkpt>
      <trkpt lat="45.44709" lon="4.74567">
        <ele>243.75398</ele>
        <time>2021-07-19T08:07:12Z</time>
      </trkpt>
      <trkpt lat="45.44706" lon="4.74567">
        <ele>243.92838</ele>
        <time>2021-07-19T08:07:13Z</time>
      </trkpt>
      <trkpt lat="45.44703" lon="4.74567">
        <ele>244.12392</ele>
        <time>2021-07-19T08:07:14Z</time>
      </trkpt>
      <trkpt lat="45.447" lon="4.74568">
        <ele>244.43571</ele>
        <time>2021-07-19T08:07:15Z</time>
      </trkpt>
      <trkpt lat="45.44697" lon="4.74568">
        <ele>244.56783</ele>
        <time>2021-07-19T08:07:16Z</time>
      </trkpt>
      <trkpt lat="45.44694" lon="4.74569">
        <ele>244.89548</ele>
        <time>2021-07-19T08:07:17Z</time>
      </trkpt>
      <trkpt lat="45.44692" lon="4.7457">
        <ele>244.97473</ele>
        <time>2021-07-19T08:07:18Z</time>
      </trkpt>
      <trkpt lat="45.44688" lon="4.74571">
        <ele>245.31296</ele>
        <time>2021-07-19T08:07:19Z</time>
      </trkpt>
      <trkpt lat="45.44685" lon="4.74573">
        <ele>245.54547</ele>
        <time>2021-07-19T08:07:20Z</time>
      </trkpt>
      <trkpt lat="45.44682" lon="4.74574">
        <ele>245.85199</ele>
        <time>2021-07-19T08:07:21Z</time>
      </trkpt>
      <trkpt lat="45.44679" lon="4.74574">
        <ele>245.93126</ele>
        <time>2021-07-19T08:07:22Z</time>
      </trkpt>
      <trkpt lat="45.44675" lon="4.74575">
        <ele>246.16907</ele>
        <time>2021-07-19T08:07:23Z</time>
      </trkpt>
      <trkpt lat="45.44672" lon="4.74575">
        <ele>246.30647</ele>
        <time>2021-07-19T08:07:24Z</time>
      </trkpt>
      <trkpt lat="45.44668" lon="4.74575">
        <ele>246.45444</ele>
        <time>2021-07-19T08:07:25Z</time>
      </trkpt>
      <trkpt lat="45.44665" lon="4.74575">
        <ele>246.76624</ele>
        <time>2021-07-19T08:07:26Z</time>
      </trkpt>
      <trkpt lat="45.44661" lon="4.74575">
        <ele>246.9459</ele>
        <time>2021-07-19T08:07:27Z</time>
      </trkpt>
      <trkpt lat="45.44658" lon="4.74576">
        <ele>246.85608</ele>
        <time>2021-07-19T08:07:28Z</time>
      </trkpt>
      <trkpt lat="45.44655" lon="4.74576">
        <ele>247.2947</ele>
        <time>2021-07-19T08:07:29Z</time>
      </trkpt>
      <trkpt lat="45.44651" lon="4.74576">
        <ele>247.40039</ele>
        <time>2021-07-19T08:07:30Z</time>
      </trkpt>
      <trkpt lat="45.44651" lon="4.74576">
        <ele>247.40039</ele>
        <time>2021-07-19T08:07:30Z</time>
      </trkpt>
      <trkpt lat="45.44644" lon="4.74577">
        <ele>248.05038</ele>
        <time>2021-07-19T08:07:32Z</time>
      </trkpt>
      <trkpt lat="45.44644" lon="4.74577">
        <ele>248.05038</ele>
        <time>2021-07-19T08:07:32Z</time>
      </trkpt>
      <trkpt lat="45.4464" lon="4.74577">
        <ele>248.09268</ele>
        <time>2021-07-19T08:07:33Z</time>
      </trkpt>
      <trkpt lat="45.44632" lon="4.74575">
        <ele>248.19838</ele>
        <time>2021-07-19T08:07:35Z</time>
      </trkpt>
      <trkpt lat="45.44629" lon="4.74572">
        <ele>248.36218</ele>
        <time>2021-07-19T08:07:36Z</time>
      </trkpt>
      <trkpt lat="45.44629" lon="4.74572">
        <ele>248.36218</ele>
        <time>2021-07-19T08:07:36Z</time>
      </trkpt>
      <trkpt lat="45.44625" lon="4.74569">
        <ele>249.10204</ele>
        <time>2021-07-19T08:07:37Z</time>
      </trkpt>
      <trkpt lat="45.44618" lon="4.74562">
        <ele>249.45082</ele>
        <time>2021-07-19T08:07:39Z</time>
      </trkpt>
      <trkpt lat="45.44615" lon="4.74557">
        <ele>249.62521</ele>
        <time>2021-07-19T08:07:40Z</time>
      </trkpt>
      <trkpt lat="45.44612" lon="4.74552">
        <ele>249.60938</ele>
        <time>2021-07-19T08:07:41Z</time>
      </trkpt>
      <trkpt lat="45.44609" lon="4.74546">
        <ele>249.55124</ele>
        <time>2021-07-19T08:07:42Z</time>
      </trkpt>
      <trkpt lat="45.44606" lon="4.74542">
        <ele>249.91058</ele>
        <time>2021-07-19T08:07:43Z</time>
      </trkpt>
      <trkpt lat="45.44606" lon="4.74542">
        <ele>249.91058</ele>
        <time>2021-07-19T08:07:43Z</time>
      </trkpt>
      <trkpt lat="45.44603" lon="4.74536">
        <ele>250.23825</ele>
        <time>2021-07-19T08:07:44Z</time>
      </trkpt>
      <trkpt lat="45.44598" lon="4.74529">
        <ele>250.33336</ele>
        <time>2021-07-19T08:07:46Z</time>
      </trkpt>
      <trkpt lat="45.44598" lon="4.74529">
        <ele>250.33336</ele>
        <time>2021-07-19T08:07:46Z</time>
      </trkpt>
      <trkpt lat="45.44596" lon="4.74525">
        <ele>250.5976</ele>
        <time>2021-07-19T08:07:47Z</time>
      </trkpt>
      <trkpt lat="45.4459" lon="4.74517">
        <ele>250.88824</ele>
        <time>2021-07-19T08:07:49Z</time>
      </trkpt>
      <trkpt lat="45.4459" lon="4.74517">
        <ele>250.88824</ele>
        <time>2021-07-19T08:07:49Z</time>
      </trkpt>
      <trkpt lat="45.44588" lon="4.74513">
        <ele>250.92525</ele>
        <time>2021-07-19T08:07:50Z</time>
      </trkpt>
      <trkpt lat="45.44585" lon="4.74509">
        <ele>251.11548</ele>
        <time>2021-07-19T08:07:51Z</time>
      </trkpt>
      <trkpt lat="45.44581" lon="4.74503">
        <ele>251.49599</ele>
        <time>2021-07-19T08:07:53Z</time>
      </trkpt>
      <trkpt lat="45.44581" lon="4.74503">
        <ele>251.49599</ele>
        <time>2021-07-19T08:07:53Z</time>
      </trkpt>
      <trkpt lat="45.44576" lon="4.74496">
        <ele>252.26753</ele>
        <time>2021-07-19T08:07:55Z</time>
      </trkpt>
      <trkpt lat="45.44576" lon="4.74496">
        <ele>252.26753</ele>
        <time>2021-07-19T08:07:55Z</time>
      </trkpt>
      <trkpt lat="45.44573" lon="4.74486">
        <ele>252.79073</ele>
        <time>2021-07-19T08:07:57Z</time>
      </trkpt>
      <trkpt lat="45.44571" lon="4.74482">
        <ele>252.90698</ele>
        <time>2021-07-19T08:07:58Z</time>
      </trkpt>
      <trkpt lat="45.44569" lon="4.74478">
        <ele>253.03381</ele>
        <time>2021-07-19T08:07:59Z</time>
      </trkpt>
      <trkpt lat="45.44569" lon="4.74478">
        <ele>253.03381</ele>
        <time>2021-07-19T08:07:59Z</time>
      </trkpt>
      <trkpt lat="45.44564" lon="4.7447">
        <ele>253.37732</ele>
        <time>2021-07-19T08:08:01Z</time>
      </trkpt>
      <trkpt lat="45.44564" lon="4.7447">
        <ele>253.37732</ele>
        <time>2021-07-19T08:08:01Z</time>
      </trkpt>
      <trkpt lat="45.44562" lon="4.74467">
        <ele>253.67325</ele>
        <time>2021-07-19T08:08:02Z</time>
      </trkpt>
      <trkpt lat="45.44556" lon="4.74461">
        <ele>254.09074</ele>
        <time>2021-07-19T08:08:04Z</time>
      </trkpt>
      <trkpt lat="45.44556" lon="4.74461">
        <ele>254.09074</ele>
        <time>2021-07-19T08:08:04Z</time>
      </trkpt>
      <trkpt lat="45.44551" lon="4.74455">
        <ele>254.47124</ele>
        <time>2021-07-19T08:08:06Z</time>
      </trkpt>
      <trkpt lat="45.44549" lon="4.74452">
        <ele>254.75133</ele>
        <time>2021-07-19T08:08:07Z</time>
      </trkpt>
      <trkpt lat="45.44546" lon="4.74449">
        <ele>254.95741</ele>
        <time>2021-07-19T08:08:08Z</time>
      </trkpt>
      <trkpt lat="45.44544" lon="4.74446">
        <ele>255.04726</ele>
        <time>2021-07-19T08:08:09Z</time>
      </trkpt>
      <trkpt lat="45.44541" lon="4.74443">
        <ele>255.2428</ele>
        <time>2021-07-19T08:08:10Z</time>
      </trkpt>
      <trkpt lat="45.44539" lon="4.7444">
        <ele>255.35378</ele>
        <time>2021-07-19T08:08:11Z</time>
      </trkpt>
      <trkpt lat="45.44536" lon="4.74437">
        <ele>255.43304</ele>
        <time>2021-07-19T08:08:12Z</time>
      </trkpt>
      <trkpt lat="45.44533" lon="4.74434">
        <ele>255.8611</ele>
        <time>2021-07-19T08:08:13Z</time>
      </trkpt>
      <trkpt lat="45.44531" lon="4.74431">
        <ele>256.37372</ele>
        <time>2021-07-19T08:08:14Z</time>
      </trkpt>
      <trkpt lat="45.44528" lon="4.74429">
        <ele>256.4794</ele>
        <time>2021-07-19T08:08:15Z</time>
      </trkpt>
      <trkpt lat="45.44526" lon="4.74425">
        <ele>256.43182</ele>
        <time>2021-07-19T08:08:16Z</time>
      </trkpt>
      <trkpt lat="45.44523" lon="4.74422">
        <ele>256.67493</ele>
        <time>2021-07-19T08:08:17Z</time>
      </trkpt>
      <trkpt lat="45.44521" lon="4.74419">
        <ele>256.992</ele>
        <time>2021-07-19T08:08:18Z</time>
      </trkpt>
      <trkpt lat="45.44518" lon="4.74415">
        <ele>257.13467</ele>
        <time>2021-07-19T08:08:19Z</time>
      </trkpt>
      <trkpt lat="45.44516" lon="4.74412">
        <ele>257.4835</ele>
        <time>2021-07-19T08:08:20Z</time>
      </trkpt>
      <trkpt lat="45.44513" lon="4.74409">
        <ele>257.70013</ele>
        <time>2021-07-19T08:08:21Z</time>
      </trkpt>
      <trkpt lat="45.4451" lon="4.74407">
        <ele>257.95383</ele>
        <time>2021-07-19T08:08:22Z</time>
      </trkpt>
      <trkpt lat="45.44507" lon="4.74404">
        <ele>258.0965</ele>
        <time>2021-07-19T08:08:23Z</time>
      </trkpt>
      <trkpt lat="45.44505" lon="4.74401">
        <ele>258.4823</ele>
        <time>2021-07-19T08:08:24Z</time>
      </trkpt>
      <trkpt lat="45.44502" lon="4.74398">
        <ele>258.69894</ele>
        <time>2021-07-19T08:08:25Z</time>
      </trkpt>
      <trkpt lat="45.44499" lon="4.74395">
        <ele>258.89447</ele>
        <time>2021-07-19T08:08:26Z</time>
      </trkpt>
      <trkpt lat="45.44496" lon="4.74392">
        <ele>259.06888</ele>
        <time>2021-07-19T08:08:27Z</time>
      </trkpt>
      <trkpt lat="45.44494" lon="4.74389">
        <ele>259.29083</ele>
        <time>2021-07-19T08:08:28Z</time>
      </trkpt>
      <trkpt lat="45.44491" lon="4.74387">
        <ele>259.5075</ele>
        <time>2021-07-19T08:08:29Z</time>
      </trkpt>
      <trkpt lat="45.44488" lon="4.74385">
        <ele>259.80344</ele>
        <time>2021-07-19T08:08:30Z</time>
      </trkpt>
      <trkpt lat="45.44486" lon="4.74383">
        <ele>260.1205</ele>
        <time>2021-07-19T08:08:31Z</time>
      </trkpt>
      <trkpt lat="45.44483" lon="4.74381">
        <ele>260.27377</ele>
        <time>2021-07-19T08:08:32Z</time>
      </trkpt>
      <trkpt lat="45.4448" lon="4.74378">
        <ele>260.30548</ele>
        <time>2021-07-19T08:08:33Z</time>
      </trkpt>
      <trkpt lat="45.44477" lon="4.74375">
        <ele>260.6807</ele>
        <time>2021-07-19T08:08:34Z</time>
      </trkpt>
      <trkpt lat="45.44474" lon="4.74372">
        <ele>260.70712</ele>
        <time>2021-07-19T08:08:35Z</time>
      </trkpt>
      <trkpt lat="45.44471" lon="4.74369">
        <ele>260.92908</ele>
        <time>2021-07-19T08:08:36Z</time>
      </trkpt>
      <trkpt lat="45.44468" lon="4.74366">
        <ele>261.09818</ele>
        <time>2021-07-19T08:08:37Z</time>
      </trkpt>
      <trkpt lat="45.44465" lon="4.74364">
        <ele>261.17215</ele>
        <time>2021-07-19T08:08:38Z</time>
      </trkpt>
      <trkpt lat="45.44461" lon="4.74361">
        <ele>261.4258</ele>
        <time>2021-07-19T08:08:39Z</time>
      </trkpt>
      <trkpt lat="45.44458" lon="4.74359">
        <ele>261.71118</ele>
        <time>2021-07-19T08:08:40Z</time>
      </trkpt>
      <trkpt lat="45.44455" lon="4.74356">
        <ele>261.7376</ele>
        <time>2021-07-19T08:08:41Z</time>
      </trkpt>
      <trkpt lat="45.44452" lon="4.74354">
        <ele>261.96484</ele>
        <time>2021-07-19T08:08:42Z</time>
      </trkpt>
      <trkpt lat="45.4445" lon="4.74352">
        <ele>262.20267</ele>
        <time>2021-07-19T08:08:43Z</time>
      </trkpt>
      <trkpt lat="45.44447" lon="4.7435">
        <ele>262.4669</ele>
        <time>2021-07-19T08:08:44Z</time>
      </trkpt>
      <trkpt lat="45.44444" lon="4.74347">
        <ele>262.30835</ele>
        <time>2021-07-19T08:08:45Z</time>
      </trkpt>
      <trkpt lat="45.44441" lon="4.74344">
        <ele>262.55145</ele>
        <time>2021-07-19T08:08:46Z</time>
      </trkpt>
      <trkpt lat="45.44438" lon="4.74342">
        <ele>262.62015</ele>
        <time>2021-07-19T08:08:47Z</time>
      </trkpt>
      <trkpt lat="45.44435" lon="4.74339">
        <ele>262.8421</ele>
        <time>2021-07-19T08:08:48Z</time>
      </trkpt>
      <trkpt lat="45.44432" lon="4.74337">
        <ele>262.90552</ele>
        <time>2021-07-19T08:08:49Z</time>
      </trkpt>
      <trkpt lat="45.44429" lon="4.74335">
        <ele>263.07465</ele>
        <time>2021-07-19T08:08:50Z</time>
      </trkpt>
      <trkpt lat="45.44426" lon="4.74333">
        <ele>262.86853</ele>
        <time>2021-07-19T08:08:51Z</time>
      </trkpt>
      <trkpt lat="45.44423" lon="4.7433">
        <ele>262.67297</ele>
        <time>2021-07-19T08:08:52Z</time>
      </trkpt>
      <trkpt lat="45.4442" lon="4.74328">
        <ele>262.72583</ele>
        <time>2021-07-19T08:08:53Z</time>
      </trkpt>
      <trkpt lat="45.44416" lon="4.74325">
        <ele>262.95306</ele>
        <time>2021-07-19T08:08:54Z</time>
      </trkpt>
      <trkpt lat="45.44413" lon="4.74322">
        <ele>262.90024</ele>
        <time>2021-07-19T08:08:55Z</time>
      </trkpt>
      <trkpt lat="45.44409" lon="4.7432">
        <ele>262.8527</ele>
        <time>2021-07-19T08:08:56Z</time>
      </trkpt>
      <trkpt lat="45.44406" lon="4.74317">
        <ele>262.88437</ele>
        <time>2021-07-19T08:08:57Z</time>
      </trkpt>
      <trkpt lat="45.44402" lon="4.74314">
        <ele>262.95837</ele>
        <time>2021-07-19T08:08:58Z</time>
      </trkpt>
      <trkpt lat="45.44398" lon="4.74311">
        <ele>262.9742</ele>
        <time>2021-07-19T08:08:59Z</time>
      </trkpt>
      <trkpt lat="45.44394" lon="4.74309">
        <ele>262.93723</ele>
        <time>2021-07-19T08:09:00Z</time>
      </trkpt>
      <trkpt lat="45.4439" lon="4.74307">
        <ele>262.9795</ele>
        <time>2021-07-19T08:09:01Z</time>
      </trkpt>
      <trkpt lat="45.44386" lon="4.74304">
        <ele>262.8738</ele>
        <time>2021-07-19T08:09:02Z</time>
      </trkpt>
      <trkpt lat="45.44382" lon="4.74302">
        <ele>262.9742</ele>
        <time>2021-07-19T08:09:03Z</time>
      </trkpt>
      <trkpt lat="45.44378" lon="4.74299">
        <ele>262.91608</ele>
        <time>2021-07-19T08:09:04Z</time>
      </trkpt>
      <trkpt lat="45.44374" lon="4.74296">
        <ele>262.67828</ele>
        <time>2021-07-19T08:09:05Z</time>
      </trkpt>
      <trkpt lat="45.44369" lon="4.74293">
        <ele>262.7047</ele>
        <time>2021-07-19T08:09:06Z</time>
      </trkpt>
      <trkpt lat="45.44365" lon="4.74289">
        <ele>262.7417</ele>
        <time>2021-07-19T08:09:07Z</time>
      </trkpt>
      <trkpt lat="45.4436" lon="4.74287">
        <ele>262.83154</ele>
        <time>2021-07-19T08:09:08Z</time>
      </trkpt>
      <trkpt lat="45.44356" lon="4.74283">
        <ele>262.599</ele>
        <time>2021-07-19T08:09:09Z</time>
      </trkpt>
      <trkpt lat="45.44351" lon="4.7428">
        <ele>262.78397</ele>
        <time>2021-07-19T08:09:10Z</time>
      </trkpt>
      <trkpt lat="45.44347" lon="4.74276">
        <ele>262.7734</ele>
        <time>2021-07-19T08:09:11Z</time>
      </trkpt>
      <trkpt lat="45.44343" lon="4.74273">
        <ele>262.67297</ele>
        <time>2021-07-19T08:09:12Z</time>
      </trkpt>
      <trkpt lat="45.44338" lon="4.7427">
        <ele>262.5303</ele>
        <time>2021-07-19T08:09:13Z</time>
      </trkpt>
      <trkpt lat="45.44333" lon="4.74266">
        <ele>262.8051</ele>
        <time>2021-07-19T08:09:14Z</time>
      </trkpt>
      <trkpt lat="45.44329" lon="4.74263">
        <ele>262.93723</ele>
        <time>2021-07-19T08:09:15Z</time>
      </trkpt>
      <trkpt lat="45.44325" lon="4.74259">
        <ele>263.09048</ele>
        <time>2021-07-19T08:09:16Z</time>
      </trkpt>
      <trkpt lat="45.4432" lon="4.74256">
        <ele>263.33356</ele>
        <time>2021-07-19T08:09:17Z</time>
      </trkpt>
      <trkpt lat="45.44317" lon="4.74252">
        <ele>263.41284</ele>
        <time>2021-07-19T08:09:18Z</time>
      </trkpt>
      <trkpt lat="45.44313" lon="4.74249">
        <ele>263.7088</ele>
        <time>2021-07-19T08:09:19Z</time>
      </trkpt>
      <trkpt lat="45.4431" lon="4.74245">
        <ele>263.8409</ele>
        <time>2021-07-19T08:09:20Z</time>
      </trkpt>
      <trkpt lat="45.44307" lon="4.74241">
        <ele>264.13156</ele>
        <time>2021-07-19T08:09:21Z</time>
      </trkpt>
      <trkpt lat="45.44305" lon="4.74236">
        <ele>264.22668</ele>
        <time>2021-07-19T08:09:22Z</time>
      </trkpt>
      <trkpt lat="45.44303" lon="4.74232">
        <ele>264.6019</ele>
        <time>2021-07-19T08:09:23Z</time>
      </trkpt>
      <trkpt lat="45.44302" lon="4.74227">
        <ele>265.0828</ele>
        <time>2021-07-19T08:09:24Z</time>
      </trkpt>
      <trkpt lat="45.44301" lon="4.74222">
        <ele>265.36816</ele>
        <time>2021-07-19T08:09:25Z</time>
      </trkpt>
      <trkpt lat="45.44299" lon="4.74218">
        <ele>265.53198</ele>
        <time>2021-07-19T08:09:26Z</time>
      </trkpt>
      <trkpt lat="45.44299" lon="4.74213">
        <ele>265.91248</ele>
        <time>2021-07-19T08:09:27Z</time>
      </trkpt>
      <trkpt lat="45.44298" lon="4.74209">
        <ele>266.26126</ele>
        <time>2021-07-19T08:09:28Z</time>
      </trkpt>
      <trkpt lat="45.44299" lon="4.74204">
        <ele>266.48322</ele>
        <time>2021-07-19T08:09:29Z</time>
      </trkpt>
      <trkpt lat="45.44301" lon="4.742">
        <ele>266.54663</ele>
        <time>2021-07-19T08:09:30Z</time>
      </trkpt>
      <trkpt lat="45.44301" lon="4.74196">
        <ele>266.8003</ele>
        <time>2021-07-19T08:09:31Z</time>
      </trkpt>
      <trkpt lat="45.44302" lon="4.74192">
        <ele>267.1121</ele>
        <time>2021-07-19T08:09:32Z</time>
      </trkpt>
      <trkpt lat="45.44302" lon="4.74188">
        <ele>267.4239</ele>
        <time>2021-07-19T08:09:33Z</time>
      </trkpt>
      <trkpt lat="45.44303" lon="4.74184">
        <ele>267.84137</ele>
        <time>2021-07-19T08:09:34Z</time>
      </trkpt>
      <trkpt lat="45.44303" lon="4.7418">
        <ele>268.2694</ele>
        <time>2021-07-19T08:09:35Z</time>
      </trkpt>
      <trkpt lat="45.44304" lon="4.74176">
        <ele>268.52307</ele>
        <time>2021-07-19T08:09:36Z</time>
      </trkpt>
      <trkpt lat="45.44305" lon="4.74172">
        <ele>268.87717</ele>
        <time>2021-07-19T08:09:37Z</time>
      </trkpt>
      <trkpt lat="45.44307" lon="4.74167">
        <ele>269.42676</ele>
        <time>2021-07-19T08:09:38Z</time>
      </trkpt>
      <trkpt lat="45.44308" lon="4.74162">
        <ele>269.6276</ele>
        <time>2021-07-19T08:09:39Z</time>
      </trkpt>
      <trkpt lat="45.44309" lon="4.74158">
        <ele>269.5166</ele>
        <time>2021-07-19T08:09:40Z</time>
      </trkpt>
      <trkpt lat="45.4431" lon="4.74154">
        <ele>269.7597</ele>
        <time>2021-07-19T08:09:41Z</time>
      </trkpt>
      <trkpt lat="45.44313" lon="4.74147">
        <ele>270.11377</ele>
        <time>2021-07-19T08:09:42Z</time>
      </trkpt>
      <trkpt lat="45.44313" lon="4.74144">
        <ele>270.43085</ele>
        <time>2021-07-19T08:09:43Z</time>
      </trkpt>
      <trkpt lat="45.44313" lon="4.7414">
        <ele>270.84833</ele>
        <time>2021-07-19T08:09:44Z</time>
      </trkpt>
      <trkpt lat="45.44315" lon="4.74135">
        <ele>271.12314</ele>
        <time>2021-07-19T08:09:45Z</time>
      </trkpt>
      <trkpt lat="45.44318" lon="4.74127">
        <ele>271.29224</ele>
        <time>2021-07-19T08:09:46Z</time>
      </trkpt>
      <trkpt lat="45.4432" lon="4.74121">
        <ele>271.50363</ele>
        <time>2021-07-19T08:09:47Z</time>
      </trkpt>
      <trkpt lat="45.44321" lon="4.74116">
        <ele>271.77316</ele>
        <time>2021-07-19T08:09:48Z</time>
      </trkpt>
      <trkpt lat="45.44322" lon="4.74112">
        <ele>272.1325</ele>
        <time>2021-07-19T08:09:49Z</time>
      </trkpt>
      <trkpt lat="45.44323" lon="4.74109">
        <ele>272.40732</ele>
        <time>2021-07-19T08:09:50Z</time>
      </trkpt>
      <trkpt lat="45.44323" lon="4.74104">
        <ele>272.73495</ele>
        <time>2021-07-19T08:09:51Z</time>
      </trkpt>
      <trkpt lat="45.44323" lon="4.74101">
        <ele>272.79837</ele>
        <time>2021-07-19T08:09:52Z</time>
      </trkpt>
      <trkpt lat="45.44323" lon="4.74097">
        <ele>273.03088</ele>
        <time>2021-07-19T08:09:53Z</time>
      </trkpt>
      <trkpt lat="45.44323" lon="4.74093">
        <ele>273.44836</ele>
        <time>2021-07-19T08:09:54Z</time>
      </trkpt>
      <trkpt lat="45.44323" lon="4.74088">
        <ele>273.7496</ele>
        <time>2021-07-19T08:09:55Z</time>
      </trkpt>
      <trkpt lat="45.44323" lon="4.74084">
        <ele>273.87643</ele>
        <time>2021-07-19T08:09:56Z</time>
      </trkpt>
      <trkpt lat="45.44323" lon="4.7408">
        <ele>274.15652</ele>
        <time>2021-07-19T08:09:57Z</time>
      </trkpt>
      <trkpt lat="45.44323" lon="4.74077">
        <ele>274.40488</ele>
        <time>2021-07-19T08:09:58Z</time>
      </trkpt>
      <trkpt lat="45.44323" lon="4.74073">
        <ele>274.69556</ele>
        <time>2021-07-19T08:09:59Z</time>
      </trkpt>
      <trkpt lat="45.44323" lon="4.74069">
        <ele>275.0866</ele>
        <time>2021-07-19T08:10:00Z</time>
      </trkpt>
      <trkpt lat="45.44323" lon="4.74065">
        <ele>275.25043</ele>
        <time>2021-07-19T08:10:01Z</time>
      </trkpt>
      <trkpt lat="45.44322" lon="4.74061">
        <ele>275.25043</ele>
        <time>2021-07-19T08:10:02Z</time>
      </trkpt>
      <trkpt lat="45.44321" lon="4.74057">
        <ele>275.35083</ele>
        <time>2021-07-19T08:10:03Z</time>
      </trkpt>
      <trkpt lat="45.4432" lon="4.74053">
        <ele>275.6045</ele>
        <time>2021-07-19T08:10:04Z</time>
      </trkpt>
      <trkpt lat="45.44319" lon="4.74049">
        <ele>275.8212</ele>
        <time>2021-07-19T08:10:05Z</time>
      </trkpt>
      <trkpt lat="45.44318" lon="4.74045">
        <ele>276.1224</ele>
        <time>2021-07-19T08:10:06Z</time>
      </trkpt>
      <trkpt lat="45.44317" lon="4.74042">
        <ele>276.30206</ele>
        <time>2021-07-19T08:10:07Z</time>
      </trkpt>
      <trkpt lat="45.44315" lon="4.74038">
        <ele>276.3602</ele>
        <time>2021-07-19T08:10:08Z</time>
      </trkpt>
      <trkpt lat="45.44314" lon="4.74035">
        <ele>276.5346</ele>
        <time>2021-07-19T08:10:09Z</time>
      </trkpt>
      <trkpt lat="45.44312" lon="4.74032">
        <ele>276.672</ele>
        <time>2021-07-19T08:10:10Z</time>
      </trkpt>
      <trkpt lat="45.44311" lon="4.74028">
        <ele>276.89923</ele>
        <time>2021-07-19T08:10:11Z</time>
      </trkpt>
      <trkpt lat="45.44308" lon="4.74027">
        <ele>277.04193</ele>
        <time>2021-07-19T08:10:12Z</time>
      </trkpt>
      <trkpt lat="45.44305" lon="4.74025">
        <ele>277.11063</ele>
        <time>2021-07-19T08:10:13Z</time>
      </trkpt>
      <trkpt lat="45.44303" lon="4.74022">
        <ele>277.31674</ele>
        <time>2021-07-19T08:10:14Z</time>
      </trkpt>
      <trkpt lat="45.44301" lon="4.74019">
        <ele>277.50696</ele>
        <time>2021-07-19T08:10:15Z</time>
      </trkpt>
      <trkpt lat="45.44299" lon="4.74014">
        <ele>277.6391</ele>
        <time>2021-07-19T08:10:16Z</time>
      </trkpt>
      <trkpt lat="45.44298" lon="4.7401">
        <ele>277.75537</ele>
        <time>2021-07-19T08:10:17Z</time>
      </trkpt>
      <trkpt lat="45.44296" lon="4.74006">
        <ele>277.79764</ele>
        <time>2021-07-19T08:10:18Z</time>
      </trkpt>
      <trkpt lat="45.44295" lon="4.74003">
        <ele>277.99844</ele>
        <time>2021-07-19T08:10:19Z</time>
      </trkpt>
      <trkpt lat="45.44294" lon="4.73999">
        <ele>278.00375</ele>
        <time>2021-07-19T08:10:20Z</time>
      </trkpt>
      <trkpt lat="45.44293" lon="4.73995">
        <ele>278.38953</ele>
        <time>2021-07-19T08:10:21Z</time>
      </trkpt>
      <trkpt lat="45.44291" lon="4.73991">
        <ele>278.33667</ele>
        <time>2021-07-19T08:10:22Z</time>
      </trkpt>
      <trkpt lat="45.4429" lon="4.73987">
        <ele>278.29968</ele>
        <time>2021-07-19T08:10:23Z</time>
      </trkpt>
      <trkpt lat="45.44288" lon="4.73983">
        <ele>278.83344</ele>
        <time>2021-07-19T08:10:24Z</time>
      </trkpt>
      <trkpt lat="45.44287" lon="4.73977">
        <ele>278.71188</ele>
        <time>2021-07-19T08:10:25Z</time>
      </trkpt>
      <trkpt lat="45.44286" lon="4.73972">
        <ele>278.78058</ele>
        <time>2021-07-19T08:10:26Z</time>
      </trkpt>
      <trkpt lat="45.44285" lon="4.73968">
        <ele>279.12408</ele>
        <time>2021-07-19T08:10:27Z</time>
      </trkpt>
      <trkpt lat="45.44284" lon="4.73963">
        <ele>279.19806</ele>
        <time>2021-07-19T08:10:28Z</time>
      </trkpt>
      <trkpt lat="45.44283" lon="4.73957">
        <ele>279.30374</ele>
        <time>2021-07-19T08:10:29Z</time>
      </trkpt>
      <trkpt lat="45.44282" lon="4.73952">
        <ele>279.47815</ele>
        <time>2021-07-19T08:10:30Z</time>
      </trkpt>
      <trkpt lat="45.44281" lon="4.73947">
        <ele>279.6684</ele>
        <time>2021-07-19T08:10:31Z</time>
      </trkpt>
      <trkpt lat="45.44281" lon="4.73942">
        <ele>279.8322</ele>
        <time>2021-07-19T08:10:32Z</time>
      </trkpt>
      <trkpt lat="45.44281" lon="4.73937">
        <ele>280.07532</ele>
        <time>2021-07-19T08:10:33Z</time>
      </trkpt>
      <trkpt lat="45.4428" lon="4.73932">
        <ele>280.3184</ele>
        <time>2021-07-19T08:10:34Z</time>
      </trkpt>
      <trkpt lat="45.4428" lon="4.73927">
        <ele>280.46637</ele>
        <time>2021-07-19T08:10:35Z</time>
      </trkpt>
      <trkpt lat="45.44279" lon="4.73922">
        <ele>280.83102</ele>
        <time>2021-07-19T08:10:36Z</time>
      </trkpt>
      <trkpt lat="45.44279" lon="4.73916">
        <ele>280.79404</ele>
        <time>2021-07-19T08:10:37Z</time>
      </trkpt>
      <trkpt lat="45.44279" lon="4.73911">
        <ele>281.06354</ele>
        <time>2021-07-19T08:10:38Z</time>
      </trkpt>
      <trkpt lat="45.44279" lon="4.73906">
        <ele>281.05826</ele>
        <time>2021-07-19T08:10:39Z</time>
      </trkpt>
      <trkpt lat="45.44279" lon="4.739">
        <ele>281.25378</ele>
        <time>2021-07-19T08:10:40Z</time>
      </trkpt>
      <trkpt lat="45.44279" lon="4.73895">
        <ele>281.38593</ele>
        <time>2021-07-19T08:10:41Z</time>
      </trkpt>
      <trkpt lat="45.44278" lon="4.73889">
        <ele>281.61844</ele>
        <time>2021-07-19T08:10:42Z</time>
      </trkpt>
      <trkpt lat="45.44278" lon="4.73884">
        <ele>281.8298</ele>
        <time>2021-07-19T08:10:43Z</time>
      </trkpt>
      <trkpt lat="45.44277" lon="4.73879">
        <ele>281.95135</ele>
        <time>2021-07-19T08:10:44Z</time>
      </trkpt>
      <trkpt lat="45.44277" lon="4.73874">
        <ele>282.18915</ele>
        <time>2021-07-19T08:10:45Z</time>
      </trkpt>
      <trkpt lat="45.44276" lon="4.73869">
        <ele>282.44284</ele>
        <time>2021-07-19T08:10:46Z</time>
      </trkpt>
      <trkpt lat="45.44276" lon="4.73864">
        <ele>282.69122</ele>
        <time>2021-07-19T08:10:47Z</time>
      </trkpt>
      <trkpt lat="45.44275" lon="4.73858">
        <ele>282.71234</ele>
        <time>2021-07-19T08:10:48Z</time>
      </trkpt>
      <trkpt lat="45.44273" lon="4.73852">
        <ele>282.68063</ele>
        <time>2021-07-19T08:10:49Z</time>
      </trkpt>
      <trkpt lat="45.44271" lon="4.73847">
        <ele>282.34772</ele>
        <time>2021-07-19T08:10:50Z</time>
      </trkpt>
      <trkpt lat="45.44269" lon="4.73842">
        <ele>282.36356</ele>
        <time>2021-07-19T08:10:51Z</time>
      </trkpt>
      <trkpt lat="45.44267" lon="4.73837">
        <ele>282.30545</ele>
        <time>2021-07-19T08:10:52Z</time>
      </trkpt>
      <trkpt lat="45.44264" lon="4.73831">
        <ele>282.20502</ele>
        <time>2021-07-19T08:10:53Z</time>
      </trkpt>
      <trkpt lat="45.44261" lon="4.73826">
        <ele>282.23672</ele>
        <time>2021-07-19T08:10:54Z</time>
      </trkpt>
      <trkpt lat="45.44258" lon="4.7382">
        <ele>282.3847</ele>
        <time>2021-07-19T08:10:55Z</time>
      </trkpt>
      <trkpt lat="45.44255" lon="4.73815">
        <ele>282.32657</ele>
        <time>2021-07-19T08:10:56Z</time>
      </trkpt>
      <trkpt lat="45.44252" lon="4.73809">
        <ele>282.2843</ele>
        <time>2021-07-19T08:10:57Z</time>
      </trkpt>
      <trkpt lat="45.44249" lon="4.73804">
        <ele>282.22617</ele>
        <time>2021-07-19T08:10:58Z</time>
      </trkpt>
      <trkpt lat="45.44246" lon="4.73798">
        <ele>282.58023</ele>
        <time>2021-07-19T08:10:59Z</time>
      </trkpt>
      <trkpt lat="45.44244" lon="4.73792">
        <ele>282.40054</ele>
        <time>2021-07-19T08:11:00Z</time>
      </trkpt>
      <trkpt lat="45.4424" lon="4.73787">
        <ele>282.41113</ele>
        <time>2021-07-19T08:11:01Z</time>
      </trkpt>
      <trkpt lat="45.44237" lon="4.73781">
        <ele>282.34772</ele>
        <time>2021-07-19T08:11:02Z</time>
      </trkpt>
      <trkpt lat="45.44233" lon="4.73776">
        <ele>282.35828</ele>
        <time>2021-07-19T08:11:03Z</time>
      </trkpt>
      <trkpt lat="45.4423" lon="4.7377">
        <ele>282.50095</ele>
        <time>2021-07-19T08:11:04Z</time>
      </trkpt>
      <trkpt lat="45.44227" lon="4.73765">
        <ele>282.56967</ele>
        <time>2021-07-19T08:11:05Z</time>
      </trkpt>
      <trkpt lat="45.44223" lon="4.73762">
        <ele>282.52737</ele>
        <time>2021-07-19T08:11:06Z</time>
      </trkpt>
      <trkpt lat="45.4422" lon="4.73755">
        <ele>282.73877</ele>
        <time>2021-07-19T08:11:07Z</time>
      </trkpt>
      <trkpt lat="45.44216" lon="4.7375">
        <ele>282.7282</ele>
        <time>2021-07-19T08:11:08Z</time>
      </trkpt>
      <trkpt lat="45.44213" lon="4.73745">
        <ele>282.7652</ele>
        <time>2021-07-19T08:11:09Z</time>
      </trkpt>
      <trkpt lat="45.44209" lon="4.73739">
        <ele>282.98187</ele>
        <time>2021-07-19T08:11:10Z</time>
      </trkpt>
      <trkpt lat="45.44207" lon="4.73734">
        <ele>283.02942</ele>
        <time>2021-07-19T08:11:11Z</time>
      </trkpt>
      <trkpt lat="45.44204" lon="4.73728">
        <ele>282.9766</ele>
        <time>2021-07-19T08:11:12Z</time>
      </trkpt>
      <trkpt lat="45.44201" lon="4.73722">
        <ele>283.2884</ele>
        <time>2021-07-19T08:11:13Z</time>
      </trkpt>
      <trkpt lat="45.44198" lon="4.73717">
        <ele>283.35178</ele>
        <time>2021-07-19T08:11:14Z</time>
      </trkpt>
      <trkpt lat="45.44195" lon="4.73711">
        <ele>283.57904</ele>
        <time>2021-07-19T08:11:15Z</time>
      </trkpt>
      <trkpt lat="45.44192" lon="4.73706">
        <ele>283.7957</ele>
        <time>2021-07-19T08:11:16Z</time>
      </trkpt>
      <trkpt lat="45.4419" lon="4.73701">
        <ele>284.01764</ele>
        <time>2021-07-19T08:11:17Z</time>
      </trkpt>
      <trkpt lat="45.44187" lon="4.73695">
        <ele>284.12863</ele>
        <time>2021-07-19T08:11:18Z</time>
      </trkpt>
      <trkpt lat="45.44185" lon="4.7369">
        <ele>284.04407</ele>
        <time>2021-07-19T08:11:19Z</time>
      </trkpt>
      <trkpt lat="45.44182" lon="4.73684">
        <ele>284.29773</ele>
        <time>2021-07-19T08:11:20Z</time>
      </trkpt>
      <trkpt lat="45.4418" lon="4.73679">
        <ele>284.3823</ele>
        <time>2021-07-19T08:11:21Z</time>
      </trkpt>
      <trkpt lat="45.44178" lon="4.73673">
        <ele>284.7628</ele>
        <time>2021-07-19T08:11:22Z</time>
      </trkpt>
      <trkpt lat="45.44176" lon="4.73668">
        <ele>284.85263</ele>
        <time>2021-07-19T08:11:23Z</time>
      </trkpt>
      <trkpt lat="45.44174" lon="4.73662">
        <ele>285.15387</ele>
        <time>2021-07-19T08:11:24Z</time>
      </trkpt>
      <trkpt lat="45.44172" lon="4.73656">
        <ele>285.16443</ele>
        <time>2021-07-19T08:11:25Z</time>
      </trkpt>
      <trkpt lat="45.44171" lon="4.73651">
        <ele>285.42865</ele>
        <time>2021-07-19T08:11:26Z</time>
      </trkpt>
      <trkpt lat="45.4417" lon="4.73645">
        <ele>285.43924</ele>
        <time>2021-07-19T08:11:27Z</time>
      </trkpt>
      <trkpt lat="45.44169" lon="4.73639">
        <ele>285.60303</ele>
        <time>2021-07-19T08:11:28Z</time>
      </trkpt>
      <trkpt lat="45.44168" lon="4.73633">
        <ele>285.11685</ele>
        <time>2021-07-19T08:11:29Z</time>
      </trkpt>
      <trkpt lat="45.44166" lon="4.73627">
        <ele>285.95184</ele>
        <time>2021-07-19T08:11:30Z</time>
      </trkpt>
      <trkpt lat="45.44164" lon="4.73621">
        <ele>285.93597</ele>
        <time>2021-07-19T08:11:31Z</time>
      </trkpt>
      <trkpt lat="45.44162" lon="4.73615">
        <ele>286.0734</ele>
        <time>2021-07-19T08:11:32Z</time>
      </trkpt>
      <trkpt lat="45.44161" lon="4.73609">
        <ele>285.825</ele>
        <time>2021-07-19T08:11:33Z</time>
      </trkpt>
      <trkpt lat="45.44159" lon="4.73604">
        <ele>285.88312</ele>
        <time>2021-07-19T08:11:34Z</time>
      </trkpt>
      <trkpt lat="45.44156" lon="4.73598">
        <ele>285.9624</ele>
        <time>2021-07-19T08:11:35Z</time>
      </trkpt>
      <trkpt lat="45.44153" lon="4.73593">
        <ele>285.83557</ele>
        <time>2021-07-19T08:11:36Z</time>
      </trkpt>
      <trkpt lat="45.4415" lon="4.73587">
        <ele>285.862</ele>
        <time>2021-07-19T08:11:37Z</time>
      </trkpt>
      <trkpt lat="45.44147" lon="4.73581">
        <ele>285.83557</ele>
        <time>2021-07-19T08:11:38Z</time>
      </trkpt>
      <trkpt lat="45.44144" lon="4.73576">
        <ele>285.87256</ele>
        <time>2021-07-19T08:11:39Z</time>
      </trkpt>
      <trkpt lat="45.44141" lon="4.7357">
        <ele>285.9994</ele>
        <time>2021-07-19T08:11:40Z</time>
      </trkpt>
      <trkpt lat="45.44137" lon="4.73565">
        <ele>286.02054</ele>
        <time>2021-07-19T08:11:41Z</time>
      </trkpt>
      <trkpt lat="45.44134" lon="4.73559">
        <ele>285.8937</ele>
        <time>2021-07-19T08:11:42Z</time>
      </trkpt>
      <trkpt lat="45.4413" lon="4.73554">
        <ele>285.98883</ele>
        <time>2021-07-19T08:11:43Z</time>
      </trkpt>
      <trkpt lat="45.44127" lon="4.73549">
        <ele>285.8937</ele>
        <time>2021-07-19T08:11:44Z</time>
      </trkpt>
      <trkpt lat="45.44124" lon="4.73544">
        <ele>285.825</ele>
        <time>2021-07-19T08:11:45Z</time>
      </trkpt>
      <trkpt lat="45.4412" lon="4.73538">
        <ele>285.6876</ele>
        <time>2021-07-19T08:11:46Z</time>
      </trkpt>
      <trkpt lat="45.44117" lon="4.73531">
        <ele>285.57132</ele>
        <time>2021-07-19T08:11:47Z</time>
      </trkpt>
      <trkpt lat="45.44114" lon="4.73525">
        <ele>285.57663</ele>
        <time>2021-07-19T08:11:48Z</time>
      </trkpt>
      <trkpt lat="45.44111" lon="4.73519">
        <ele>285.65588</ele>
        <time>2021-07-19T08:11:49Z</time>
      </trkpt>
      <trkpt lat="45.44107" lon="4.73514">
        <ele>285.60834</ele>
        <time>2021-07-19T08:11:50Z</time>
      </trkpt>
      <trkpt lat="45.44104" lon="4.73507">
        <ele>285.5185</ele>
        <time>2021-07-19T08:11:51Z</time>
      </trkpt>
      <trkpt lat="45.44101" lon="4.73501">
        <ele>285.60303</ele>
        <time>2021-07-19T08:11:52Z</time>
      </trkpt>
      <trkpt lat="45.44098" lon="4.73495">
        <ele>285.66116</ele>
        <time>2021-07-19T08:11:53Z</time>
      </trkpt>
      <trkpt lat="45.44094" lon="4.73488">
        <ele>285.3811</ele>
        <time>2021-07-19T08:11:54Z</time>
      </trkpt>
      <trkpt lat="45.44091" lon="4.73481">
        <ele>285.49207</ele>
        <time>2021-07-19T08:11:55Z</time>
      </trkpt>
      <trkpt lat="45.44088" lon="4.73475">
        <ele>285.6823</ele>
        <time>2021-07-19T08:11:56Z</time>
      </trkpt>
      <trkpt lat="45.44085" lon="4.73469">
        <ele>285.84613</ele>
        <time>2021-07-19T08:11:57Z</time>
      </trkpt>
      <trkpt lat="45.44083" lon="4.73462">
        <ele>285.75632</ele>
        <time>2021-07-19T08:11:58Z</time>
      </trkpt>
      <trkpt lat="45.4408" lon="4.73455">
        <ele>286.15793</ele>
        <time>2021-07-19T08:11:59Z</time>
      </trkpt>
      <trkpt lat="45.44077" lon="4.73448">
        <ele>285.80386</ele>
        <time>2021-07-19T08:12:00Z</time>
      </trkpt>
      <trkpt lat="45.44074" lon="4.73442">
        <ele>285.9254</ele>
        <time>2021-07-19T08:12:01Z</time>
      </trkpt>
      <trkpt lat="45.44072" lon="4.73435">
        <ele>286.0628</ele>
        <time>2021-07-19T08:12:02Z</time>
      </trkpt>
      <trkpt lat="45.44069" lon="4.73429">
        <ele>286.12622</ele>
        <time>2021-07-19T08:12:03Z</time>
      </trkpt>
      <trkpt lat="45.44067" lon="4.73421">
        <ele>286.2636</ele>
        <time>2021-07-19T08:12:04Z</time>
      </trkpt>
      <trkpt lat="45.44064" lon="4.73415">
        <ele>286.27948</ele>
        <time>2021-07-19T08:12:05Z</time>
      </trkpt>
      <trkpt lat="45.44062" lon="4.73408">
        <ele>286.29004</ele>
        <time>2021-07-19T08:12:06Z</time>
      </trkpt>
      <trkpt lat="45.4406" lon="4.73402">
        <ele>286.11566</ele>
        <time>2021-07-19T08:12:07Z</time>
      </trkpt>
      <trkpt lat="45.44057" lon="4.73395">
        <ele>286.0945</ele>
        <time>2021-07-19T08:12:08Z</time>
      </trkpt>
      <trkpt lat="45.44055" lon="4.73389">
        <ele>286.26892</ele>
        <time>2021-07-19T08:12:09Z</time>
      </trkpt>
      <trkpt lat="45.44053" lon="4.73383">
        <ele>286.49084</ele>
        <time>2021-07-19T08:12:10Z</time>
      </trkpt>
      <trkpt lat="45.44051" lon="4.73376">
        <ele>286.2319</ele>
        <time>2021-07-19T08:12:11Z</time>
      </trkpt>
      <trkpt lat="45.44048" lon="4.7337">
        <ele>286.48557</ele>
        <time>2021-07-19T08:12:12Z</time>
      </trkpt>
      <trkpt lat="45.44046" lon="4.73365">
        <ele>286.43802</ele>
        <time>2021-07-19T08:12:13Z</time>
      </trkpt>
      <trkpt lat="45.44044" lon="4.73358">
        <ele>286.43274</ele>
        <time>2021-07-19T08:12:14Z</time>
      </trkpt>
      <trkpt lat="45.44042" lon="4.73352">
        <ele>286.6547</ele>
        <time>2021-07-19T08:12:15Z</time>
      </trkpt>
      <trkpt lat="45.4404" lon="4.73345">
        <ele>286.68112</ele>
        <time>2021-07-19T08:12:16Z</time>
      </trkpt>
      <trkpt lat="45.44038" lon="4.7334">
        <ele>287.01404</ele>
        <time>2021-07-19T08:12:17Z</time>
      </trkpt>
      <trkpt lat="45.44036" lon="4.73334">
        <ele>286.94534</ele>
        <time>2021-07-19T08:12:18Z</time>
      </trkpt>
      <trkpt lat="45.44034" lon="4.73328">
        <ele>286.72867</ele>
        <time>2021-07-19T08:12:19Z</time>
      </trkpt>
      <trkpt lat="45.44033" lon="4.73322">
        <ele>286.98233</ele>
        <time>2021-07-19T08:12:20Z</time>
      </trkpt>
      <trkpt lat="45.44031" lon="4.73317">
        <ele>287.20956</ele>
        <time>2021-07-19T08:12:21Z</time>
      </trkpt>
      <trkpt lat="45.4403" lon="4.7331">
        <ele>287.31</ele>
        <time>2021-07-19T08:12:22Z</time>
      </trkpt>
      <trkpt lat="45.44029" lon="4.73305">
        <ele>287.07217</ele>
        <time>2021-07-19T08:12:23Z</time>
      </trkpt>
      <trkpt lat="45.44027" lon="4.73299">
        <ele>287.199</ele>
        <time>2021-07-19T08:12:24Z</time>
      </trkpt>
      <trkpt lat="45.44025" lon="4.73293">
        <ele>287.51608</ele>
        <time>2021-07-19T08:12:25Z</time>
      </trkpt>
      <trkpt lat="45.44023" lon="4.73287">
        <ele>287.84903</ele>
        <time>2021-07-19T08:12:26Z</time>
      </trkpt>
      <trkpt lat="45.44022" lon="4.73281">
        <ele>287.86487</ele>
        <time>2021-07-19T08:12:27Z</time>
      </trkpt>
      <trkpt lat="45.4402" lon="4.73276">
        <ele>287.97055</ele>
        <time>2021-07-19T08:12:28Z</time>
      </trkpt>
      <trkpt lat="45.44018" lon="4.7327">
        <ele>288.45676</ele>
        <time>2021-07-19T08:12:29Z</time>
      </trkpt>
      <trkpt lat="45.44016" lon="4.73264">
        <ele>288.80554</ele>
        <time>2021-07-19T08:12:30Z</time>
      </trkpt>
      <trkpt lat="45.44014" lon="4.73259">
        <ele>289.0222</ele>
        <time>2021-07-19T08:12:31Z</time>
      </trkpt>
      <trkpt lat="45.44013" lon="4.73253">
        <ele>288.8848</ele>
        <time>2021-07-19T08:12:32Z</time>
      </trkpt>
      <trkpt lat="45.44011" lon="4.73248">
        <ele>289.08035</ele>
        <time>2021-07-19T08:12:33Z</time>
      </trkpt>
      <trkpt lat="45.44009" lon="4.73242">
        <ele>289.31287</ele>
        <time>2021-07-19T08:12:34Z</time>
      </trkpt>
      <trkpt lat="45.44007" lon="4.73237">
        <ele>289.55594</ele>
        <time>2021-07-19T08:12:35Z</time>
      </trkpt>
      <trkpt lat="45.44005" lon="4.73231">
        <ele>289.7145</ele>
        <time>2021-07-19T08:12:36Z</time>
      </trkpt>
      <trkpt lat="45.44003" lon="4.73226">
        <ele>289.94174</ele>
        <time>2021-07-19T08:12:37Z</time>
      </trkpt>
      <trkpt lat="45.44001" lon="4.73221">
        <ele>290.095</ele>
        <time>2021-07-19T08:12:38Z</time>
      </trkpt>
      <trkpt lat="45.44" lon="4.73216">
        <ele>290.33807</ele>
        <time>2021-07-19T08:12:39Z</time>
      </trkpt>
      <trkpt lat="45.43998" lon="4.7321">
        <ele>290.49133</ele>
        <time>2021-07-19T08:12:40Z</time>
      </trkpt>
      <trkpt lat="45.43995" lon="4.73205">
        <ele>290.69745</ele>
        <time>2021-07-19T08:12:41Z</time>
      </trkpt>
      <trkpt lat="45.43993" lon="4.732">
        <ele>290.76614</ele>
        <time>2021-07-19T08:12:42Z</time>
      </trkpt>
      <trkpt lat="45.43992" lon="4.73195">
        <ele>291.11493</ele>
        <time>2021-07-19T08:12:43Z</time>
      </trkpt>
      <trkpt lat="45.4399" lon="4.7319">
        <ele>291.10965</ele>
        <time>2021-07-19T08:12:44Z</time>
      </trkpt>
      <trkpt lat="45.43988" lon="4.73186">
        <ele>291.47427</ele>
        <time>2021-07-19T08:12:45Z</time>
      </trkpt>
      <trkpt lat="45.43985" lon="4.73181">
        <ele>291.6011</ele>
        <time>2021-07-19T08:12:46Z</time>
      </trkpt>
      <trkpt lat="45.43983" lon="4.73177">
        <ele>291.63812</ele>
        <time>2021-07-19T08:12:47Z</time>
      </trkpt>
      <trkpt lat="45.4398" lon="4.73172">
        <ele>292.156</ele>
        <time>2021-07-19T08:12:48Z</time>
      </trkpt>
      <trkpt lat="45.43978" lon="4.73168">
        <ele>292.2353</ele>
        <time>2021-07-19T08:12:49Z</time>
      </trkpt>
      <trkpt lat="45.43975" lon="4.73164">
        <ele>292.33038</ele>
        <time>2021-07-19T08:12:50Z</time>
      </trkpt>
      <trkpt lat="45.43972" lon="4.7316">
        <ele>292.54178</ele>
        <time>2021-07-19T08:12:51Z</time>
      </trkpt>
      <trkpt lat="45.4397" lon="4.73156">
        <ele>292.7056</ele>
        <time>2021-07-19T08:12:52Z</time>
      </trkpt>
      <trkpt lat="45.43967" lon="4.73151">
        <ele>292.92227</ele>
        <time>2021-07-19T08:12:53Z</time>
      </trkpt>
      <trkpt lat="45.43964" lon="4.73148">
        <ele>293.1495</ele>
        <time>2021-07-19T08:12:54Z</time>
      </trkpt>
      <trkpt lat="45.43961" lon="4.73144">
        <ele>293.38202</ele>
        <time>2021-07-19T08:12:55Z</time>
      </trkpt>
      <trkpt lat="45.43959" lon="4.7314">
        <ele>293.6304</ele>
        <time>2021-07-19T08:12:56Z</time>
      </trkpt>
      <trkpt lat="45.43956" lon="4.73135">
        <ele>293.76254</ele>
        <time>2021-07-19T08:12:57Z</time>
      </trkpt>
      <trkpt lat="45.43954" lon="4.7313">
        <ele>293.9739</ele>
        <time>2021-07-19T08:12:58Z</time>
      </trkpt>
      <trkpt lat="45.43951" lon="4.73126">
        <ele>294.12717</ele>
        <time>2021-07-19T08:12:59Z</time>
      </trkpt>
      <trkpt lat="45.43949" lon="4.73121">
        <ele>294.4284</ele>
        <time>2021-07-19T08:13:00Z</time>
      </trkpt>
      <trkpt lat="45.43947" lon="4.73117">
        <ele>294.5869</ele>
        <time>2021-07-19T08:13:01Z</time>
      </trkpt>
      <trkpt lat="45.43945" lon="4.73112">
        <ele>294.63977</ele>
        <time>2021-07-19T08:13:02Z</time>
      </trkpt>
      <trkpt lat="45.43943" lon="4.73107">
        <ele>295.089</ele>
        <time>2021-07-19T08:13:03Z</time>
      </trkpt>
      <trkpt lat="45.43941" lon="4.73102">
        <ele>295.36905</ele>
        <time>2021-07-19T08:13:04Z</time>
      </trkpt>
      <trkpt lat="45.4394" lon="4.73097">
        <ele>295.5223</ele>
        <time>2021-07-19T08:13:05Z</time>
      </trkpt>
      <trkpt lat="45.43938" lon="4.73092">
        <ele>295.75482</ele>
        <time>2021-07-19T08:13:06Z</time>
      </trkpt>
      <trkpt lat="45.43937" lon="4.73087">
        <ele>295.76013</ele>
        <time>2021-07-19T08:13:07Z</time>
      </trkpt>
      <trkpt lat="45.43935" lon="4.73081">
        <ele>296.05606</ele>
        <time>2021-07-19T08:13:08Z</time>
      </trkpt>
      <trkpt lat="45.43934" lon="4.73076">
        <ele>296.19876</ele>
        <time>2021-07-19T08:13:09Z</time>
      </trkpt>
      <trkpt lat="45.43933" lon="4.7307">
        <ele>296.20932</ele>
        <time>2021-07-19T08:13:10Z</time>
      </trkpt>
      <trkpt lat="45.43932" lon="4.73065">
        <ele>296.48413</ele>
        <time>2021-07-19T08:13:11Z</time>
      </trkpt>
      <trkpt lat="45.4393" lon="4.73059">
        <ele>296.60037</ele>
        <time>2021-07-19T08:13:12Z</time>
      </trkpt>
      <trkpt lat="45.43929" lon="4.73054">
        <ele>296.5951</ele>
        <time>2021-07-19T08:13:13Z</time>
      </trkpt>
      <trkpt lat="45.43929" lon="4.73047">
        <ele>296.5634</ele>
        <time>2021-07-19T08:13:14Z</time>
      </trkpt>
      <trkpt lat="45.43927" lon="4.73042">
        <ele>296.75363</ele>
        <time>2021-07-19T08:13:15Z</time>
      </trkpt>
      <trkpt lat="45.43926" lon="4.73037">
        <ele>296.8065</ele>
        <time>2021-07-19T08:13:16Z</time>
      </trkpt>
      <trkpt lat="45.43925" lon="4.73031">
        <ele>296.94916</ele>
        <time>2021-07-19T08:13:17Z</time>
      </trkpt>
      <trkpt lat="45.43923" lon="4.73026">
        <ele>296.89633</ele>
        <time>2021-07-19T08:13:18Z</time>
      </trkpt>
      <trkpt lat="45.43922" lon="4.73021">
        <ele>297.04428</ele>
        <time>2021-07-19T08:13:19Z</time>
      </trkpt>
      <trkpt lat="45.43919" lon="4.73016">
        <ele>297.09186</ele>
        <time>2021-07-19T08:13:20Z</time>
      </trkpt>
      <trkpt lat="45.43917" lon="4.73011">
        <ele>297.01257</ele>
        <time>2021-07-19T08:13:21Z</time>
      </trkpt>
      <trkpt lat="45.43915" lon="4.73005">
        <ele>296.9069</ele>
        <time>2021-07-19T08:13:22Z</time>
      </trkpt>
      <trkpt lat="45.43913" lon="4.73">
        <ele>297.1183</ele>
        <time>2021-07-19T08:13:23Z</time>
      </trkpt>
      <trkpt lat="45.43911" lon="4.72994">
        <ele>297.12885</ele>
        <time>2021-07-19T08:13:24Z</time>
      </trkpt>
      <trkpt lat="45.43908" lon="4.72988">
        <ele>297.13412</ele>
        <time>2021-07-19T08:13:25Z</time>
      </trkpt>
      <trkpt lat="45.43906" lon="4.72983">
        <ele>297.2715</ele>
        <time>2021-07-19T08:13:26Z</time>
      </trkpt>
      <trkpt lat="45.43904" lon="4.72977">
        <ele>297.3138</ele>
        <time>2021-07-19T08:13:27Z</time>
      </trkpt>
      <trkpt lat="45.43901" lon="4.72972">
        <ele>297.23453</ele>
        <time>2021-07-19T08:13:28Z</time>
      </trkpt>
      <trkpt lat="45.43899" lon="4.72966">
        <ele>297.15527</ele>
        <time>2021-07-19T08:13:29Z</time>
      </trkpt>
      <trkpt lat="45.43896" lon="4.7296">
        <ele>297.06543</ele>
        <time>2021-07-19T08:13:30Z</time>
      </trkpt>
      <trkpt lat="45.43894" lon="4.72954">
        <ele>297.4618</ele>
        <time>2021-07-19T08:13:31Z</time>
      </trkpt>
      <trkpt lat="45.43891" lon="4.72948">
        <ele>297.47235</ele>
        <time>2021-07-19T08:13:32Z</time>
      </trkpt>
      <trkpt lat="45.43889" lon="4.72942">
        <ele>297.50934</ele>
        <time>2021-07-19T08:13:33Z</time>
      </trkpt>
      <trkpt lat="45.43886" lon="4.72936">
        <ele>297.60974</ele>
        <time>2021-07-19T08:13:34Z</time>
      </trkpt>
      <trkpt lat="45.43884" lon="4.72929">
        <ele>297.54633</ele>
        <time>2021-07-19T08:13:35Z</time>
      </trkpt>
      <trkpt lat="45.43882" lon="4.72923">
        <ele>297.70486</ele>
        <time>2021-07-19T08:13:36Z</time>
      </trkpt>
      <trkpt lat="45.4388" lon="4.72917">
        <ele>297.82114</ele>
        <time>2021-07-19T08:13:37Z</time>
      </trkpt>
      <trkpt lat="45.43877" lon="4.7291">
        <ele>297.6996</ele>
        <time>2021-07-19T08:13:38Z</time>
      </trkpt>
      <trkpt lat="45.43875" lon="4.72904">
        <ele>297.78415</ele>
        <time>2021-07-19T08:13:39Z</time>
      </trkpt>
      <trkpt lat="45.43873" lon="4.72898">
        <ele>297.8053</ele>
        <time>2021-07-19T08:13:40Z</time>
      </trkpt>
      <trkpt lat="45.4387" lon="4.72891">
        <ele>297.82642</ele>
        <time>2021-07-19T08:13:41Z</time>
      </trkpt>
      <trkpt lat="45.43868" lon="4.72886">
        <ele>297.7947</ele>
        <time>2021-07-19T08:13:42Z</time>
      </trkpt>
      <trkpt lat="45.43866" lon="4.72879">
        <ele>297.82114</ele>
        <time>2021-07-19T08:13:43Z</time>
      </trkpt>
      <trkpt lat="45.43863" lon="4.72873">
        <ele>297.84756</ele>
        <time>2021-07-19T08:13:44Z</time>
      </trkpt>
      <trkpt lat="45.43861" lon="4.72866">
        <ele>297.87927</ele>
        <time>2021-07-19T08:13:45Z</time>
      </trkpt>
      <trkpt lat="45.43859" lon="4.7286">
        <ele>298.0748</ele>
        <time>2021-07-19T08:13:46Z</time>
      </trkpt>
      <trkpt lat="45.43856" lon="4.72853">
        <ele>298.1382</ele>
        <time>2021-07-19T08:13:47Z</time>
      </trkpt>
      <trkpt lat="45.43855" lon="4.72847">
        <ele>298.23862</ele>
        <time>2021-07-19T08:13:48Z</time>
      </trkpt>
      <trkpt lat="45.43853" lon="4.7284">
        <ele>298.09067</ele>
        <time>2021-07-19T08:13:49Z</time>
      </trkpt>
      <trkpt lat="45.43851" lon="4.72833">
        <ele>298.16464</ele>
        <time>2021-07-19T08:13:50Z</time>
      </trkpt>
      <trkpt lat="45.43849" lon="4.72825">
        <ele>298.19107</ele>
        <time>2021-07-19T08:13:51Z</time>
      </trkpt>
      <trkpt lat="45.43848" lon="4.72818">
        <ele>298.49228</ele>
        <time>2021-07-19T08:13:52Z</time>
      </trkpt>
      <trkpt lat="45.43847" lon="4.72811">
        <ele>298.40775</ele>
        <time>2021-07-19T08:13:53Z</time>
      </trkpt>
      <trkpt lat="45.43846" lon="4.72804">
        <ele>298.40775</ele>
        <time>2021-07-19T08:13:54Z</time>
      </trkpt>
      <trkpt lat="45.43845" lon="4.72798">
        <ele>298.43945</ele>
        <time>2021-07-19T08:13:55Z</time>
      </trkpt>
      <trkpt lat="45.43845" lon="4.72791">
        <ele>298.4183</ele>
        <time>2021-07-19T08:13:56Z</time>
      </trkpt>
      <trkpt lat="45.43844" lon="4.72784">
        <ele>298.376</ele>
        <time>2021-07-19T08:13:57Z</time>
      </trkpt>
      <trkpt lat="45.43844" lon="4.72777">
        <ele>298.74594</ele>
        <time>2021-07-19T08:13:58Z</time>
      </trkpt>
      <trkpt lat="45.43844" lon="4.7277">
        <ele>298.78824</ele>
        <time>2021-07-19T08:13:59Z</time>
      </trkpt>
      <trkpt lat="45.43843" lon="4.72764">
        <ele>298.53455</ele>
        <time>2021-07-19T08:14:00Z</time>
      </trkpt>
      <trkpt lat="45.43842" lon="4.72757">
        <ele>298.6931</ele>
        <time>2021-07-19T08:14:01Z</time>
      </trkpt>
      <trkpt lat="45.43842" lon="4.7275">
        <ele>298.75122</ele>
        <time>2021-07-19T08:14:02Z</time>
      </trkpt>
      <trkpt lat="45.43841" lon="4.72744">
        <ele>298.8622</ele>
        <time>2021-07-19T08:14:03Z</time>
      </trkpt>
      <trkpt lat="45.4384" lon="4.72737">
        <ele>299.0313</ele>
        <time>2021-07-19T08:14:04Z</time>
      </trkpt>
      <trkpt lat="45.4384" lon="4.72731">
        <ele>299.05246</ele>
        <time>2021-07-19T08:14:05Z</time>
      </trkpt>
      <trkpt lat="45.43839" lon="4.72724">
        <ele>298.9362</ele>
        <time>2021-07-19T08:14:06Z</time>
      </trkpt>
      <trkpt lat="45.43838" lon="4.72717">
        <ele>299.1423</ele>
        <time>2021-07-19T08:14:07Z</time>
      </trkpt>
      <trkpt lat="45.43837" lon="4.72711">
        <ele>299.2057</ele>
        <time>2021-07-19T08:14:08Z</time>
      </trkpt>
      <trkpt lat="45.43836" lon="4.72704">
        <ele>299.11588</ele>
        <time>2021-07-19T08:14:09Z</time>
      </trkpt>
      <trkpt lat="45.43835" lon="4.72698">
        <ele>299.50165</ele>
        <time>2021-07-19T08:14:10Z</time>
      </trkpt>
      <trkpt lat="45.43834" lon="4.72691">
        <ele>299.69717</ele>
        <time>2021-07-19T08:14:11Z</time>
      </trkpt>
      <trkpt lat="45.43831" lon="4.72686">
        <ele>299.71304</ele>
        <time>2021-07-19T08:14:12Z</time>
      </trkpt>
      <trkpt lat="45.43829" lon="4.7268">
        <ele>299.76587</ele>
        <time>2021-07-19T08:14:13Z</time>
      </trkpt>
      <trkpt lat="45.43826" lon="4.72675">
        <ele>299.73947</ele>
        <time>2021-07-19T08:14:14Z</time>
      </trkpt>
      <trkpt lat="45.43823" lon="4.7267">
        <ele>299.81345</ele>
        <time>2021-07-19T08:14:15Z</time>
      </trkpt>
      <trkpt lat="45.43819" lon="4.72665">
        <ele>299.824</ele>
        <time>2021-07-19T08:14:16Z</time>
      </trkpt>
      <trkpt lat="45.43815" lon="4.72661">
        <ele>299.8557</ele>
        <time>2021-07-19T08:14:17Z</time>
      </trkpt>
      <trkpt lat="45.43811" lon="4.72657">
        <ele>299.95084</ele>
        <time>2021-07-19T08:14:18Z</time>
      </trkpt>
      <trkpt lat="45.43807" lon="4.72653">
        <ele>300.0354</ele>
        <time>2021-07-19T08:14:19Z</time>
      </trkpt>
      <trkpt lat="45.43802" lon="4.72649">
        <ele>300.01953</ele>
        <time>2021-07-19T08:14:20Z</time>
      </trkpt>
      <trkpt lat="45.43798" lon="4.72646">
        <ele>300.01425</ele>
        <time>2021-07-19T08:14:21Z</time>
      </trkpt>
      <trkpt lat="45.43794" lon="4.72643">
        <ele>300.00897</ele>
        <time>2021-07-19T08:14:22Z</time>
      </trkpt>
      <trkpt lat="45.4379" lon="4.72641">
        <ele>300.1675</ele>
        <time>2021-07-19T08:14:23Z</time>
      </trkpt>
      <trkpt lat="45.43785" lon="4.72639">
        <ele>300.18335</ele>
        <time>2021-07-19T08:14:24Z</time>
      </trkpt>
      <trkpt lat="45.43781" lon="4.72636">
        <ele>300.2415</ele>
        <time>2021-07-19T08:14:25Z</time>
      </trkpt>
      <trkpt lat="45.43777" lon="4.72633">
        <ele>300.56387</ele>
        <time>2021-07-19T08:14:26Z</time>
      </trkpt>
      <trkpt lat="45.43773" lon="4.7263">
        <ele>300.60086</ele>
        <time>2021-07-19T08:14:27Z</time>
      </trkpt>
      <trkpt lat="45.4377" lon="4.72626">
        <ele>300.80695</ele>
        <time>2021-07-19T08:14:28Z</time>
      </trkpt>
      <trkpt lat="45.43766" lon="4.72623">
        <ele>301.1082</ele>
        <time>2021-07-19T08:14:29Z</time>
      </trkpt>
      <trkpt lat="45.43763" lon="4.7262">
        <ele>301.3724</ele>
        <time>2021-07-19T08:14:30Z</time>
      </trkpt>
      <trkpt lat="45.43761" lon="4.72616">
        <ele>301.69476</ele>
        <time>2021-07-19T08:14:31Z</time>
      </trkpt>
      <trkpt lat="45.43758" lon="4.72611">
        <ele>301.9537</ele>
        <time>2021-07-19T08:14:32Z</time>
      </trkpt>
      <trkpt lat="45.43757" lon="4.72608">
        <ele>302.27078</ele>
        <time>2021-07-19T08:14:33Z</time>
      </trkpt>
      <trkpt lat="45.43754" lon="4.72603">
        <ele>302.52975</ele>
        <time>2021-07-19T08:14:34Z</time>
      </trkpt>
      <trkpt lat="45.43752" lon="4.72599">
        <ele>302.84683</ele>
        <time>2021-07-19T08:14:35Z</time>
      </trkpt>
      <trkpt lat="45.4375" lon="4.72595">
        <ele>302.9578</ele>
        <time>2021-07-19T08:14:36Z</time>
      </trkpt>
      <trkpt lat="45.43747" lon="4.7259">
        <ele>303.27487</ele>
        <time>2021-07-19T08:14:37Z</time>
      </trkpt>
      <trkpt lat="45.43744" lon="4.72586">
        <ele>303.4334</ele>
        <time>2021-07-19T08:14:38Z</time>
      </trkpt>
      <trkpt lat="45.43741" lon="4.72582">
        <ele>303.71878</ele>
        <time>2021-07-19T08:14:39Z</time>
      </trkpt>
      <trkpt lat="45.43739" lon="4.72578">
        <ele>303.9883</ele>
        <time>2021-07-19T08:14:40Z</time>
      </trkpt>
      <trkpt lat="45.43736" lon="4.72574">
        <ele>304.1574</ele>
        <time>2021-07-19T08:14:41Z</time>
      </trkpt>
      <trkpt lat="45.43733" lon="4.7257">
        <ele>304.33182</ele>
        <time>2021-07-19T08:14:42Z</time>
      </trkpt>
      <trkpt lat="45.4373" lon="4.72566">
        <ele>304.4692</ele>
        <time>2021-07-19T08:14:43Z</time>
      </trkpt>
      <trkpt lat="45.43728" lon="4.72563">
        <ele>304.5749</ele>
        <time>2021-07-19T08:14:44Z</time>
      </trkpt>
      <trkpt lat="45.43724" lon="4.72559">
        <ele>304.69644</ele>
        <time>2021-07-19T08:14:45Z</time>
      </trkpt>
      <trkpt lat="45.43721" lon="4.72555">
        <ele>304.7176</ele>
        <time>2021-07-19T08:14:46Z</time>
      </trkpt>
      <trkpt lat="45.43718" lon="4.72552">
        <ele>305.07693</ele>
        <time>2021-07-19T08:14:47Z</time>
      </trkpt>
      <trkpt lat="45.43714" lon="4.72548">
        <ele>305.51556</ele>
        <time>2021-07-19T08:14:48Z</time>
      </trkpt>
      <trkpt lat="45.43712" lon="4.72544">
        <ele>305.58957</ele>
        <time>2021-07-19T08:14:49Z</time>
      </trkpt>
      <trkpt lat="45.43708" lon="4.72541">
        <ele>305.90134</ele>
        <time>2021-07-19T08:14:50Z</time>
      </trkpt>
      <trkpt lat="45.43705" lon="4.72537">
        <ele>306.09158</ele>
        <time>2021-07-19T08:14:51Z</time>
      </trkpt>
      <trkpt lat="45.43702" lon="4.72534">
        <ele>306.2977</ele>
        <time>2021-07-19T08:14:52Z</time>
      </trkpt>
      <trkpt lat="45.43699" lon="4.7253">
        <ele>306.4774</ele>
        <time>2021-07-19T08:14:53Z</time>
      </trkpt>
      <trkpt lat="45.43696" lon="4.72527">
        <ele>306.6042</ele>
        <time>2021-07-19T08:14:54Z</time>
      </trkpt>
      <trkpt lat="45.43693" lon="4.72523">
        <ele>306.76804</ele>
        <time>2021-07-19T08:14:55Z</time>
      </trkpt>
      <trkpt lat="45.4369" lon="4.72519">
        <ele>306.78918</ele>
        <time>2021-07-19T08:14:56Z</time>
      </trkpt>
      <trkpt lat="45.43687" lon="4.72515">
        <ele>307.0217</ele>
        <time>2021-07-19T08:14:57Z</time>
      </trkpt>
      <trkpt lat="45.43684" lon="4.72511">
        <ele>307.28592</ele>
        <time>2021-07-19T08:14:58Z</time>
      </trkpt>
      <trkpt lat="45.43681" lon="4.72508">
        <ele>307.42862</ele>
        <time>2021-07-19T08:14:59Z</time>
      </trkpt>
      <trkpt lat="45.43678" lon="4.72504">
        <ele>307.55014</ele>
        <time>2021-07-19T08:15:00Z</time>
      </trkpt>
      <trkpt lat="45.43675" lon="4.725">
        <ele>307.76157</ele>
        <time>2021-07-19T08:15:01Z</time>
      </trkpt>
      <trkpt lat="45.43672" lon="4.72496">
        <ele>307.90952</ele>
        <time>2021-07-19T08:15:02Z</time>
      </trkpt>
      <trkpt lat="45.43669" lon="4.72492">
        <ele>308.16843</ele>
        <time>2021-07-19T08:15:03Z</time>
      </trkpt>
      <trkpt lat="45.43665" lon="4.72488">
        <ele>308.40628</ele>
        <time>2021-07-19T08:15:04Z</time>
      </trkpt>
      <trkpt lat="45.43662" lon="4.72484">
        <ele>308.47498</ele>
        <time>2021-07-19T08:15:05Z</time>
      </trkpt>
      <trkpt lat="45.43659" lon="4.72481">
        <ele>308.59122</ele>
        <time>2021-07-19T08:15:06Z</time>
      </trkpt>
      <trkpt lat="45.43655" lon="4.72477">
        <ele>308.6388</ele>
        <time>2021-07-19T08:15:07Z</time>
      </trkpt>
      <trkpt lat="45.43652" lon="4.72473">
        <ele>308.88187</ele>
        <time>2021-07-19T08:15:08Z</time>
      </trkpt>
      <trkpt lat="45.43649" lon="4.7247">
        <ele>308.85016</ele>
        <time>2021-07-19T08:15:09Z</time>
      </trkpt>
      <trkpt lat="45.43646" lon="4.72466">
        <ele>308.98758</ele>
        <time>2021-07-19T08:15:10Z</time>
      </trkpt>
      <trkpt lat="45.43642" lon="4.72463">
        <ele>309.16196</ele>
        <time>2021-07-19T08:15:11Z</time>
      </trkpt>
      <trkpt lat="45.43639" lon="4.7246">
        <ele>309.2835</ele>
        <time>2021-07-19T08:15:12Z</time>
      </trkpt>
      <trkpt lat="45.43635" lon="4.72457">
        <ele>309.4949</ele>
        <time>2021-07-19T08:15:13Z</time>
      </trkpt>
      <trkpt lat="45.43631" lon="4.72454">
        <ele>309.69043</ele>
        <time>2021-07-19T08:15:14Z</time>
      </trkpt>
      <trkpt lat="45.43628" lon="4.72451">
        <ele>309.81726</ele>
        <time>2021-07-19T08:15:15Z</time>
      </trkpt>
      <trkpt lat="45.43625" lon="4.72448">
        <ele>309.9071</ele>
        <time>2021-07-19T08:15:16Z</time>
      </trkpt>
      <trkpt lat="45.43621" lon="4.72446">
        <ele>309.90182</ele>
        <time>2021-07-19T08:15:17Z</time>
      </trkpt>
      <trkpt lat="45.43617" lon="4.72443">
        <ele>310.0445</ele>
        <time>2021-07-19T08:15:18Z</time>
      </trkpt>
      <trkpt lat="45.43613" lon="4.72441">
        <ele>310.03394</ele>
        <time>2021-07-19T08:15:19Z</time>
      </trkpt>
      <trkpt lat="45.43609" lon="4.72438">
        <ele>310.13434</ele>
        <time>2021-07-19T08:15:20Z</time>
      </trkpt>
      <trkpt lat="45.43605" lon="4.72435">
        <ele>310.22418</ele>
        <time>2021-07-19T08:15:21Z</time>
      </trkpt>
      <trkpt lat="45.43602" lon="4.72431">
        <ele>310.4884</ele>
        <time>2021-07-19T08:15:22Z</time>
      </trkpt>
      <trkpt lat="45.43599" lon="4.72428">
        <ele>310.71567</ele>
        <time>2021-07-19T08:15:23Z</time>
      </trkpt>
      <trkpt lat="45.43595" lon="4.72425">
        <ele>311.12784</ele>
        <time>2021-07-19T08:15:24Z</time>
      </trkpt>
      <trkpt lat="45.43592" lon="4.72423">
        <ele>311.31808</ele>
        <time>2021-07-19T08:15:25Z</time>
      </trkpt>
      <trkpt lat="45.43589" lon="4.72419">
        <ele>311.59818</ele>
        <time>2021-07-19T08:15:26Z</time>
      </trkpt>
      <trkpt lat="45.43586" lon="4.72416">
        <ele>311.71973</ele>
        <time>2021-07-19T08:15:27Z</time>
      </trkpt>
      <trkpt lat="45.43583" lon="4.72413">
        <ele>311.67746</ele>
        <time>2021-07-19T08:15:28Z</time>
      </trkpt>
      <trkpt lat="45.4358" lon="4.72409">
        <ele>311.78317</ele>
        <time>2021-07-19T08:15:29Z</time>
      </trkpt>
      <trkpt lat="45.43577" lon="4.72403">
        <ele>312.04736</ele>
        <time>2021-07-19T08:15:30Z</time>
      </trkpt>
      <trkpt lat="45.43575" lon="4.72397">
        <ele>312.1689</ele>
        <time>2021-07-19T08:15:31Z</time>
      </trkpt>
      <trkpt lat="45.43572" lon="4.72393">
        <ele>312.3539</ele>
        <time>2021-07-19T08:15:32Z</time>
      </trkpt>
      <trkpt lat="45.43568" lon="4.72389">
        <ele>312.44373</ele>
        <time>2021-07-19T08:15:33Z</time>
      </trkpt>
      <trkpt lat="45.43565" lon="4.72384">
        <ele>312.50186</ele>
        <time>2021-07-19T08:15:34Z</time>
      </trkpt>
      <trkpt lat="45.43562" lon="4.7238">
        <ele>312.64456</ele>
        <time>2021-07-19T08:15:35Z</time>
      </trkpt>
      <trkpt lat="45.4356" lon="4.72377">
        <ele>312.88763</ele>
        <time>2021-07-19T08:15:36Z</time>
      </trkpt>
      <trkpt lat="45.43558" lon="4.72371">
        <ele>313.13074</ele>
        <time>2021-07-19T08:15:37Z</time>
      </trkpt>
      <trkpt lat="45.43556" lon="4.72366">
        <ele>313.15714</ele>
        <time>2021-07-19T08:15:38Z</time>
      </trkpt>
      <trkpt lat="45.43554" lon="4.72361">
        <ele>313.41083</ele>
        <time>2021-07-19T08:15:39Z</time>
      </trkpt>
      <trkpt lat="45.43551" lon="4.72356">
        <ele>313.4425</ele>
        <time>2021-07-19T08:15:40Z</time>
      </trkpt>
      <trkpt lat="45.43547" lon="4.72353">
        <ele>313.4214</ele>
        <time>2021-07-19T08:15:41Z</time>
      </trkpt>
      <trkpt lat="45.43543" lon="4.72351">
        <ele>313.47952</ele>
        <time>2021-07-19T08:15:42Z</time>
      </trkpt>
      <trkpt lat="45.43539" lon="4.72348">
        <ele>313.80188</ele>
        <time>2021-07-19T08:15:43Z</time>
      </trkpt>
      <trkpt lat="45.43537" lon="4.72342">
        <ele>313.74905</ele>
        <time>2021-07-19T08:15:44Z</time>
      </trkpt>
      <trkpt lat="45.43535" lon="4.72337">
        <ele>313.9974</ele>
        <time>2021-07-19T08:15:45Z</time>
      </trkpt>
      <trkpt lat="45.43531" lon="4.72333">
        <ele>314.12952</ele>
        <time>2021-07-19T08:15:46Z</time>
      </trkpt>
      <trkpt lat="45.43528" lon="4.7233">
        <ele>314.49945</ele>
        <time>2021-07-19T08:15:47Z</time>
      </trkpt>
      <trkpt lat="45.43525" lon="4.72328">
        <ele>314.6633</ele>
        <time>2021-07-19T08:15:48Z</time>
      </trkpt>
      <trkpt lat="45.43521" lon="4.72324">
        <ele>314.77426</ele>
        <time>2021-07-19T08:15:49Z</time>
      </trkpt>
      <trkpt lat="45.43518" lon="4.72321">
        <ele>314.7531</ele>
        <time>2021-07-19T08:15:50Z</time>
      </trkpt>
      <trkpt lat="45.43515" lon="4.72318">
        <ele>315.03848</ele>
        <time>2021-07-19T08:15:51Z</time>
      </trkpt>
      <trkpt lat="45.43512" lon="4.72315">
        <ele>315.27628</ele>
        <time>2021-07-19T08:15:52Z</time>
      </trkpt>
      <trkpt lat="45.4351" lon="4.72311">
        <ele>315.49823</ele>
        <time>2021-07-19T08:15:53Z</time>
      </trkpt>
      <trkpt lat="45.43507" lon="4.72307">
        <ele>315.7942</ele>
        <time>2021-07-19T08:15:54Z</time>
      </trkpt>
      <trkpt lat="45.43504" lon="4.72303">
        <ele>316.06897</ele>
        <time>2021-07-19T08:15:55Z</time>
      </trkpt>
      <trkpt lat="45.43502" lon="4.72299">
        <ele>316.19052</ele>
        <time>2021-07-19T08:15:56Z</time>
      </trkpt>
      <trkpt lat="45.43499" lon="4.72296">
        <ele>316.50763</ele>
        <time>2021-07-19T08:15:57Z</time>
      </trkpt>
      <trkpt lat="45.43496" lon="4.72292">
        <ele>316.8881</ele>
        <time>2021-07-19T08:15:58Z</time>
      </trkpt>
      <trkpt lat="45.43494" lon="4.72288">
        <ele>316.793</ele>
        <time>2021-07-19T08:15:59Z</time>
      </trkpt>
      <trkpt lat="45.43491" lon="4.72283">
        <ele>316.8617</ele>
        <time>2021-07-19T08:16:00Z</time>
      </trkpt>
      <trkpt lat="45.43488" lon="4.7228">
        <ele>317.08365</ele>
        <time>2021-07-19T08:16:01Z</time>
      </trkpt>
      <trkpt lat="45.43486" lon="4.72275">
        <ele>317.1365</ele>
        <time>2021-07-19T08:16:02Z</time>
      </trkpt>
      <trkpt lat="45.43483" lon="4.72272">
        <ele>317.08893</ele>
        <time>2021-07-19T08:16:03Z</time>
      </trkpt>
      <trkpt lat="45.43481" lon="4.72267">
        <ele>317.13123</ele>
        <time>2021-07-19T08:16:04Z</time>
      </trkpt>
      <trkpt lat="45.43478" lon="4.72263">
        <ele>317.35846</ele>
        <time>2021-07-19T08:16:05Z</time>
      </trkpt>
      <trkpt lat="45.43477" lon="4.72258">
        <ele>317.75476</ele>
        <time>2021-07-19T08:16:06Z</time>
      </trkpt>
      <trkpt lat="45.43475" lon="4.72254">
        <ele>317.83936</ele>
        <time>2021-07-19T08:16:07Z</time>
      </trkpt>
      <trkpt lat="45.43473" lon="4.72249">
        <ele>317.86047</ele>
        <time>2021-07-19T08:16:08Z</time>
      </trkpt>
      <trkpt lat="45.43471" lon="4.72245">
        <ele>318.10886</ele>
        <time>2021-07-19T08:16:09Z</time>
      </trkpt>
      <trkpt lat="45.4347" lon="4.72239">
        <ele>318.3678</ele>
        <time>2021-07-19T08:16:10Z</time>
      </trkpt>
      <trkpt lat="45.43468" lon="4.72234">
        <ele>318.46823</ele>
        <time>2021-07-19T08:16:11Z</time>
      </trkpt>
      <trkpt lat="45.43467" lon="4.72229">
        <ele>318.42593</ele>
        <time>2021-07-19T08:16:12Z</time>
      </trkpt>
      <trkpt lat="45.43465" lon="4.72223">
        <ele>318.41537</ele>
        <time>2021-07-19T08:16:13Z</time>
      </trkpt>
      <trkpt lat="45.43464" lon="4.72218">
        <ele>318.65317</ele>
        <time>2021-07-19T08:16:14Z</time>
      </trkpt>
      <trkpt lat="45.43463" lon="4.72213">
        <ele>318.85928</ele>
        <time>2021-07-19T08:16:15Z</time>
      </trkpt>
      <trkpt lat="45.43462" lon="4.72207">
        <ele>318.91214</ele>
        <time>2021-07-19T08:16:16Z</time>
      </trkpt>
      <trkpt lat="45.4346" lon="4.72202">
        <ele>319.02838</ele>
        <time>2021-07-19T08:16:17Z</time>
      </trkpt>
      <trkpt lat="45.43459" lon="4.72196">
        <ele>319.07596</ele>
        <time>2021-07-19T08:16:18Z</time>
      </trkpt>
      <trkpt lat="45.43458" lon="4.72191">
        <ele>319.1341</ele>
        <time>2021-07-19T08:16:19Z</time>
      </trkpt>
      <trkpt lat="45.43457" lon="4.72185">
        <ele>319.28732</ele>
        <time>2021-07-19T08:16:20Z</time>
      </trkpt>
      <trkpt lat="45.43456" lon="4.7218">
        <ele>319.46173</ele>
        <time>2021-07-19T08:16:21Z</time>
      </trkpt>
      <trkpt lat="45.43455" lon="4.72174">
        <ele>319.55685</ele>
        <time>2021-07-19T08:16:22Z</time>
      </trkpt>
      <trkpt lat="45.43454" lon="4.72169">
        <ele>319.615</ele>
        <time>2021-07-19T08:16:23Z</time>
      </trkpt>
      <trkpt lat="45.43453" lon="4.72163">
        <ele>319.65726</ele>
        <time>2021-07-19T08:16:24Z</time>
      </trkpt>
      <trkpt lat="45.43452" lon="4.72158">
        <ele>319.7841</ele>
        <time>2021-07-19T08:16:25Z</time>
      </trkpt>
      <trkpt lat="45.43451" lon="4.72153">
        <ele>320.28085</ele>
        <time>2021-07-19T08:16:26Z</time>
      </trkpt>
      <trkpt lat="45.4345" lon="4.72147">
        <ele>320.46054</ele>
        <time>2021-07-19T08:16:27Z</time>
      </trkpt>
      <trkpt lat="45.43448" lon="4.72142">
        <ele>320.67722</ele>
        <time>2021-07-19T08:16:28Z</time>
      </trkpt>
      <trkpt lat="45.43447" lon="4.72136">
        <ele>320.69305</ele>
        <time>2021-07-19T08:16:29Z</time>
      </trkpt>
      <trkpt lat="45.43446" lon="4.72131">
        <ele>320.83044</ele>
        <time>2021-07-19T08:16:30Z</time>
      </trkpt>
      <trkpt lat="45.43445" lon="4.72126">
        <ele>320.88858</ele>
        <time>2021-07-19T08:16:31Z</time>
      </trkpt>
      <trkpt lat="45.43444" lon="4.7212">
        <ele>321.28494</ele>
        <time>2021-07-19T08:16:32Z</time>
      </trkpt>
      <trkpt lat="45.43443" lon="4.72114">
        <ele>321.1845</ele>
        <time>2021-07-19T08:16:33Z</time>
      </trkpt>
      <trkpt lat="45.43441" lon="4.72109">
        <ele>321.3748</ele>
        <time>2021-07-19T08:16:34Z</time>
      </trkpt>
      <trkpt lat="45.4344" lon="4.72104">
        <ele>321.4646</ele>
        <time>2021-07-19T08:16:35Z</time>
      </trkpt>
      <trkpt lat="45.43439" lon="4.72098">
        <ele>321.6073</ele>
        <time>2021-07-19T08:16:36Z</time>
      </trkpt>
      <trkpt lat="45.43437" lon="4.72093">
        <ele>321.48572</ele>
        <time>2021-07-19T08:16:37Z</time>
      </trkpt>
      <trkpt lat="45.43436" lon="4.72088">
        <ele>321.7447</ele>
        <time>2021-07-19T08:16:38Z</time>
      </trkpt>
      <trkpt lat="45.43435" lon="4.72083">
        <ele>322.0459</ele>
        <time>2021-07-19T08:16:39Z</time>
      </trkpt>
      <trkpt lat="45.43433" lon="4.72078">
        <ele>322.252</ele>
        <time>2021-07-19T08:16:40Z</time>
      </trkpt>
      <trkpt lat="45.43432" lon="4.72072">
        <ele>322.39996</ele>
        <time>2021-07-19T08:16:41Z</time>
      </trkpt>
      <trkpt lat="45.43431" lon="4.72067">
        <ele>322.363</ele>
        <time>2021-07-19T08:16:42Z</time>
      </trkpt>
      <trkpt lat="45.43429" lon="4.72062">
        <ele>322.59552</ele>
        <time>2021-07-19T08:16:43Z</time>
      </trkpt>
      <trkpt lat="45.43428" lon="4.72057">
        <ele>322.68533</ele>
        <time>2021-07-19T08:16:44Z</time>
      </trkpt>
      <trkpt lat="45.43426" lon="4.72052">
        <ele>322.59552</ele>
        <time>2021-07-19T08:16:45Z</time>
      </trkpt>
      <trkpt lat="45.43425" lon="4.72047">
        <ele>322.91263</ele>
        <time>2021-07-19T08:16:46Z</time>
      </trkpt>
      <trkpt lat="45.43423" lon="4.72041">
        <ele>323.1557</ele>
        <time>2021-07-19T08:16:47Z</time>
      </trkpt>
      <trkpt lat="45.43422" lon="4.72036">
        <ele>323.3565</ele>
        <time>2021-07-19T08:16:48Z</time>
      </trkpt>
      <trkpt lat="45.4342" lon="4.72031">
        <ele>323.4622</ele>
        <time>2021-07-19T08:16:49Z</time>
      </trkpt>
      <trkpt lat="45.43419" lon="4.72026">
        <ele>323.57318</ele>
        <time>2021-07-19T08:16:50Z</time>
      </trkpt>
      <trkpt lat="45.43418" lon="4.7202">
        <ele>323.83743</ele>
        <time>2021-07-19T08:16:51Z</time>
      </trkpt>
      <trkpt lat="45.43416" lon="4.72015">
        <ele>323.99066</ele>
        <time>2021-07-19T08:16:52Z</time>
      </trkpt>
      <trkpt lat="45.43415" lon="4.7201">
        <ele>324.13864</ele>
        <time>2021-07-19T08:16:53Z</time>
      </trkpt>
      <trkpt lat="45.43413" lon="4.72004">
        <ele>324.41873</ele>
        <time>2021-07-19T08:16:54Z</time>
      </trkpt>
      <trkpt lat="45.43412" lon="4.71999">
        <ele>324.68295</ele>
        <time>2021-07-19T08:16:55Z</time>
      </trkpt>
      <trkpt lat="45.43411" lon="4.71994">
        <ele>325.10046</ele>
        <time>2021-07-19T08:16:56Z</time>
      </trkpt>
      <trkpt lat="45.43409" lon="4.71989">
        <ele>325.25897</ele>
        <time>2021-07-19T08:16:57Z</time>
      </trkpt>
      <trkpt lat="45.43408" lon="4.71984">
        <ele>325.3171</ele>
        <time>2021-07-19T08:16:58Z</time>
      </trkpt>
      <trkpt lat="45.43407" lon="4.7198">
        <ele>325.62363</ele>
        <time>2021-07-19T08:16:59Z</time>
      </trkpt>
      <trkpt lat="45.43405" lon="4.71976">
        <ele>325.75046</ele>
        <time>2021-07-19T08:17:00Z</time>
      </trkpt>
      <trkpt lat="45.43404" lon="4.71971">
        <ele>326.03583</ele>
        <time>2021-07-19T08:17:01Z</time>
      </trkpt>
      <trkpt lat="45.43403" lon="4.71966">
        <ele>326.31592</ele>
        <time>2021-07-19T08:17:02Z</time>
      </trkpt>
      <trkpt lat="45.43401" lon="4.71961">
        <ele>326.70694</ele>
        <time>2021-07-19T08:17:03Z</time>
      </trkpt>
      <trkpt lat="45.43399" lon="4.71956">
        <ele>326.84436</ele>
        <time>2021-07-19T08:17:04Z</time>
      </trkpt>
      <trkpt lat="45.43398" lon="4.71952">
        <ele>326.95535</ele>
        <time>2021-07-19T08:17:05Z</time>
      </trkpt>
      <trkpt lat="45.43397" lon="4.71947">
        <ele>326.98175</ele>
        <time>2021-07-19T08:17:06Z</time>
      </trkpt>
      <trkpt lat="45.43396" lon="4.71941">
        <ele>327.1139</ele>
        <time>2021-07-19T08:17:07Z</time>
      </trkpt>
      <trkpt lat="45.43395" lon="4.71934">
        <ele>327.6371</ele>
        <time>2021-07-19T08:17:08Z</time>
      </trkpt>
      <trkpt lat="45.43395" lon="4.71927">
        <ele>327.62653</ele>
        <time>2021-07-19T08:17:09Z</time>
      </trkpt>
      <trkpt lat="45.43394" lon="4.71922">
        <ele>327.92773</ele>
        <time>2021-07-19T08:17:10Z</time>
      </trkpt>
      <trkpt lat="45.43393" lon="4.71917">
        <ele>328.4509</ele>
        <time>2021-07-19T08:17:11Z</time>
      </trkpt>
      <trkpt lat="45.43393" lon="4.71911">
        <ele>329.02692</ele>
        <time>2021-07-19T08:17:12Z</time>
      </trkpt>
      <trkpt lat="45.43391" lon="4.71906">
        <ele>328.84726</ele>
        <time>2021-07-19T08:17:13Z</time>
      </trkpt>
      <trkpt lat="45.4339" lon="4.71901">
        <ele>329.08505</ele>
        <time>2021-07-19T08:17:14Z</time>
      </trkpt>
      <trkpt lat="45.43389" lon="4.71896">
        <ele>329.3493</ele>
        <time>2021-07-19T08:17:15Z</time>
      </trkpt>
      <trkpt lat="45.43388" lon="4.71891">
        <ele>329.58182</ele>
        <time>2021-07-19T08:17:16Z</time>
      </trkpt>
      <trkpt lat="45.43387" lon="4.71886">
        <ele>329.67694</ele>
        <time>2021-07-19T08:17:17Z</time>
      </trkpt>
      <trkpt lat="45.43386" lon="4.71881">
        <ele>329.60825</ele>
        <time>2021-07-19T08:17:18Z</time>
      </trkpt>
      <trkpt lat="45.43385" lon="4.71876">
        <ele>330.01514</ele>
        <time>2021-07-19T08:17:19Z</time>
      </trkpt>
      <trkpt lat="45.43385" lon="4.71872">
        <ele>329.85132</ele>
        <time>2021-07-19T08:17:20Z</time>
      </trkpt>
      <trkpt lat="45.43384" lon="4.71867">
        <ele>329.84604</ele>
        <time>2021-07-19T08:17:21Z</time>
      </trkpt>
      <trkpt lat="45.43383" lon="4.71863">
        <ele>329.97818</ele>
        <time>2021-07-19T08:17:22Z</time>
      </trkpt>
      <trkpt lat="45.43382" lon="4.71858">
        <ele>329.9306</ele>
        <time>2021-07-19T08:17:23Z</time>
      </trkpt>
      <trkpt lat="45.43381" lon="4.71852">
        <ele>330.91882</ele>
        <time>2021-07-19T08:17:24Z</time>
      </trkpt>
      <trkpt lat="45.43379" lon="4.71848">
        <ele>330.55948</ele>
        <time>2021-07-19T08:17:25Z</time>
      </trkpt>
      <trkpt lat="45.43377" lon="4.71843">
        <ele>330.77612</ele>
        <time>2021-07-19T08:17:26Z</time>
      </trkpt>
      <trkpt lat="45.43375" lon="4.71839">
        <ele>330.91882</ele>
        <time>2021-07-19T08:17:27Z</time>
      </trkpt>
      <trkpt lat="45.43372" lon="4.71834">
        <ele>331.1249</ele>
        <time>2021-07-19T08:17:28Z</time>
      </trkpt>
      <trkpt lat="45.4337" lon="4.71829">
        <ele>331.3152</ele>
        <time>2021-07-19T08:17:29Z</time>
      </trkpt>
      <trkpt lat="45.43368" lon="4.71825">
        <ele>331.56354</ele>
        <time>2021-07-19T08:17:30Z</time>
      </trkpt>
      <trkpt lat="45.43366" lon="4.7182">
        <ele>331.7591</ele>
        <time>2021-07-19T08:17:31Z</time>
      </trkpt>
      <trkpt lat="45.43364" lon="4.71815">
        <ele>331.89648</ele>
        <time>2021-07-19T08:17:32Z</time>
      </trkpt>
      <trkpt lat="45.43362" lon="4.71811">
        <ele>332.05502</ele>
        <time>2021-07-19T08:17:33Z</time>
      </trkpt>
      <trkpt lat="45.4336" lon="4.71807">
        <ele>332.28757</ele>
        <time>2021-07-19T08:17:34Z</time>
      </trkpt>
      <trkpt lat="45.43358" lon="4.71803">
        <ele>332.46194</ele>
        <time>2021-07-19T08:17:35Z</time>
      </trkpt>
      <trkpt lat="45.43356" lon="4.71799">
        <ele>332.76315</ele>
        <time>2021-07-19T08:17:36Z</time>
      </trkpt>
      <trkpt lat="45.43353" lon="4.71794">
        <ele>332.76843</ele>
        <time>2021-07-19T08:17:37Z</time>
      </trkpt>
      <trkpt lat="45.43351" lon="4.71789">
        <ele>333.15424</ele>
        <time>2021-07-19T08:17:38Z</time>
      </trkpt>
      <trkpt lat="45.43349" lon="4.71785">
        <ele>333.42905</ele>
        <time>2021-07-19T08:17:39Z</time>
      </trkpt>
      <trkpt lat="45.43347" lon="4.7178">
        <ele>333.52942</ele>
        <time>2021-07-19T08:17:40Z</time>
      </trkpt>
      <trkpt lat="45.43345" lon="4.71776">
        <ele>333.8307</ele>
        <time>2021-07-19T08:17:41Z</time>
      </trkpt>
      <trkpt lat="45.43343" lon="4.71772">
        <ele>334.06848</ele>
        <time>2021-07-19T08:17:42Z</time>
      </trkpt>
      <trkpt lat="45.43341" lon="4.71767">
        <ele>334.21643</ele>
        <time>2021-07-19T08:17:43Z</time>
      </trkpt>
      <trkpt lat="45.43339" lon="4.71762">
        <ele>334.3697</ele>
        <time>2021-07-19T08:17:44Z</time>
      </trkpt>
      <trkpt lat="45.43337" lon="4.71758">
        <ele>334.74493</ele>
        <time>2021-07-19T08:17:45Z</time>
      </trkpt>
      <trkpt lat="45.43335" lon="4.71753">
        <ele>335.0937</ele>
        <time>2021-07-19T08:17:46Z</time>
      </trkpt>
      <trkpt lat="45.43333" lon="4.71749">
        <ele>334.9933</ele>
        <time>2021-07-19T08:17:47Z</time>
      </trkpt>
      <trkpt lat="45.4333" lon="4.71744">
        <ele>335.22052</ele>
        <time>2021-07-19T08:17:48Z</time>
      </trkpt>
      <trkpt lat="45.43329" lon="4.7174">
        <ele>335.22052</ele>
        <time>2021-07-19T08:17:49Z</time>
      </trkpt>
      <trkpt lat="45.43327" lon="4.71736">
        <ele>335.2892</ele>
        <time>2021-07-19T08:17:50Z</time>
      </trkpt>
      <trkpt lat="45.43325" lon="4.71732">
        <ele>335.3368</ele>
        <time>2021-07-19T08:17:51Z</time>
      </trkpt>
      <trkpt lat="45.43323" lon="4.71728">
        <ele>335.5059</ele>
        <time>2021-07-19T08:17:52Z</time>
      </trkpt>
      <trkpt lat="45.43321" lon="4.71723">
        <ele>335.71725</ele>
        <time>2021-07-19T08:17:53Z</time>
      </trkpt>
      <trkpt lat="45.43319" lon="4.71718">
        <ele>335.68558</ele>
        <time>2021-07-19T08:17:54Z</time>
      </trkpt>
      <trkpt lat="45.43317" lon="4.71713">
        <ele>335.79126</ele>
        <time>2021-07-19T08:17:55Z</time>
      </trkpt>
      <trkpt lat="45.43314" lon="4.71708">
        <ele>335.94455</ele>
        <time>2021-07-19T08:17:56Z</time>
      </trkpt>
      <trkpt lat="45.43313" lon="4.71703">
        <ele>336.14532</ele>
        <time>2021-07-19T08:17:57Z</time>
      </trkpt>
      <trkpt lat="45.4331" lon="4.71699">
        <ele>335.90225</ele>
        <time>2021-07-19T08:17:58Z</time>
      </trkpt>
      <trkpt lat="45.43308" lon="4.71694">
        <ele>335.62216</ele>
        <time>2021-07-19T08:17:59Z</time>
      </trkpt>
      <trkpt lat="45.43305" lon="4.7169">
        <ele>335.66446</ele>
        <time>2021-07-19T08:18:00Z</time>
      </trkpt>
      <trkpt lat="45.43303" lon="4.71685">
        <ele>335.38965</ele>
        <time>2021-07-19T08:18:01Z</time>
      </trkpt>
      <trkpt lat="45.433" lon="4.7168">
        <ele>335.1571</ele>
        <time>2021-07-19T08:18:02Z</time>
      </trkpt>
      <trkpt lat="45.43297" lon="4.71675">
        <ele>335.00912</ele>
        <time>2021-07-19T08:18:03Z</time>
      </trkpt>
      <trkpt lat="45.43294" lon="4.71668">
        <ele>335.22052</ele>
        <time>2021-07-19T08:18:04Z</time>
      </trkpt>
      <trkpt lat="45.43291" lon="4.71662">
        <ele>335.10428</ele>
        <time>2021-07-19T08:18:05Z</time>
      </trkpt>
      <trkpt lat="45.43288" lon="4.71655">
        <ele>334.8453</ele>
        <time>2021-07-19T08:18:06Z</time>
      </trkpt>
      <trkpt lat="45.43285" lon="4.71649">
        <ele>334.44894</ele>
        <time>2021-07-19T08:18:07Z</time>
      </trkpt>
      <trkpt lat="45.43279" lon="4.7164">
        <ele>334.0209</ele>
        <time>2021-07-19T08:18:08Z</time>
      </trkpt>
      <trkpt lat="45.43274" lon="4.71633">
        <ele>333.86237</ele>
        <time>2021-07-19T08:18:09Z</time>
      </trkpt>
      <trkpt lat="45.43269" lon="4.71625">
        <ele>333.77255</ele>
        <time>2021-07-19T08:18:10Z</time>
      </trkpt>
      <trkpt lat="45.43266" lon="4.71618">
        <ele>333.70383</ele>
        <time>2021-07-19T08:18:11Z</time>
      </trkpt>
      <trkpt lat="45.43261" lon="4.7161">
        <ele>333.55588</ele>
        <time>2021-07-19T08:18:12Z</time>
      </trkpt>
      <trkpt lat="45.43257" lon="4.71603">
        <ele>333.62985</ele>
        <time>2021-07-19T08:18:13Z</time>
      </trkpt>
      <trkpt lat="45.43253" lon="4.71595">
        <ele>333.34976</ele>
        <time>2021-07-19T08:18:14Z</time>
      </trkpt>
      <trkpt lat="45.4325" lon="4.71586">
        <ele>333.14368</ele>
        <time>2021-07-19T08:18:15Z</time>
      </trkpt>
      <trkpt lat="45.43244" lon="4.71579">
        <ele>332.7156</ele>
        <time>2021-07-19T08:18:16Z</time>
      </trkpt>
      <trkpt lat="45.4324" lon="4.71571">
        <ele>332.41968</ele>
        <time>2021-07-19T08:18:17Z</time>
      </trkpt>
      <trkpt lat="45.43235" lon="4.71563">
        <ele>332.12372</ele>
        <time>2021-07-19T08:18:18Z</time>
      </trkpt>
      <trkpt lat="45.4323" lon="4.71555">
        <ele>331.98102</ele>
        <time>2021-07-19T08:18:19Z</time>
      </trkpt>
      <trkpt lat="45.43226" lon="4.71547">
        <ele>331.6798</ele>
        <time>2021-07-19T08:18:20Z</time>
      </trkpt>
      <trkpt lat="45.43221" lon="4.71538">
        <ele>331.52658</ele>
        <time>2021-07-19T08:18:21Z</time>
      </trkpt>
      <trkpt lat="45.43217" lon="4.71529">
        <ele>331.71683</ele>
        <time>2021-07-19T08:18:22Z</time>
      </trkpt>
      <trkpt lat="45.43212" lon="4.71519">
        <ele>331.66397</ele>
        <time>2021-07-19T08:18:23Z</time>
      </trkpt>
      <trkpt lat="45.43208" lon="4.7151">
        <ele>331.41556</ele>
        <time>2021-07-19T08:18:24Z</time>
      </trkpt>
      <trkpt lat="45.43203" lon="4.715">
        <ele>331.3099</ele>
        <time>2021-07-19T08:18:25Z</time>
      </trkpt>
      <trkpt lat="45.43199" lon="4.7149">
        <ele>331.48428</ele>
        <time>2021-07-19T08:18:26Z</time>
      </trkpt>
      <trkpt lat="45.43194" lon="4.71481">
        <ele>331.15665</ele>
        <time>2021-07-19T08:18:27Z</time>
      </trkpt>
      <trkpt lat="45.43189" lon="4.71471">
        <ele>330.94525</ele>
        <time>2021-07-19T08:18:28Z</time>
      </trkpt>
      <trkpt lat="45.43184" lon="4.71462">
        <ele>330.5119</ele>
        <time>2021-07-19T08:18:29Z</time>
      </trkpt>
      <trkpt lat="45.43179" lon="4.71452">
        <ele>330.2794</ele>
        <time>2021-07-19T08:18:30Z</time>
      </trkpt>
      <trkpt lat="45.43173" lon="4.71443">
        <ele>330.26883</ele>
        <time>2021-07-19T08:18:31Z</time>
      </trkpt>
      <trkpt lat="45.43168" lon="4.71433">
        <ele>329.7879</ele>
        <time>2021-07-19T08:18:32Z</time>
      </trkpt>
      <trkpt lat="45.43162" lon="4.71423">
        <ele>329.6505</ele>
        <time>2021-07-19T08:18:33Z</time>
      </trkpt>
      <trkpt lat="45.43157" lon="4.71414">
        <ele>329.05865</ele>
        <time>2021-07-19T08:18:34Z</time>
      </trkpt>
      <trkpt lat="45.43152" lon="4.71404">
        <ele>328.86838</ele>
        <time>2021-07-19T08:18:35Z</time>
      </trkpt>
      <trkpt lat="45.43147" lon="4.71393">
        <ele>328.59357</ele>
        <time>2021-07-19T08:18:36Z</time>
      </trkpt>
      <trkpt lat="45.43144" lon="4.71382">
        <ele>328.67285</ele>
        <time>2021-07-19T08:18:37Z</time>
      </trkpt>
      <trkpt lat="45.4314" lon="4.71371">
        <ele>328.18665</ele>
        <time>2021-07-19T08:18:38Z</time>
      </trkpt>
      <trkpt lat="45.43136" lon="4.7136">
        <ele>328.05457</ele>
        <time>2021-07-19T08:18:39Z</time>
      </trkpt>
      <trkpt lat="45.43131" lon="4.71351">
        <ele>327.8379</ele>
        <time>2021-07-19T08:18:40Z</time>
      </trkpt>
      <trkpt lat="45.43126" lon="4.71342">
        <ele>327.57895</ele>
        <time>2021-07-19T08:18:41Z</time>
      </trkpt>
      <trkpt lat="45.43121" lon="4.71331">
        <ele>327.25656</ele>
        <time>2021-07-19T08:18:42Z</time>
      </trkpt>
      <trkpt lat="45.43116" lon="4.71322">
        <ele>327.12445</ele>
        <time>2021-07-19T08:18:43Z</time>
      </trkpt>
      <trkpt lat="45.43111" lon="4.71314">
        <ele>327.30414</ele>
        <time>2021-07-19T08:18:44Z</time>
      </trkpt>
      <trkpt lat="45.43107" lon="4.71304">
        <ele>327.60007</ele>
        <time>2021-07-19T08:18:45Z</time>
      </trkpt>
      <trkpt lat="45.43102" lon="4.71296">
        <ele>327.84845</ele>
        <time>2021-07-19T08:18:46Z</time>
      </trkpt>
      <trkpt lat="45.43098" lon="4.71287">
        <ele>327.7005</ele>
        <time>2021-07-19T08:18:47Z</time>
      </trkpt>
      <trkpt lat="45.43094" lon="4.71278">
        <ele>327.5895</ele>
        <time>2021-07-19T08:18:48Z</time>
      </trkpt>
      <trkpt lat="45.4309" lon="4.71269">
        <ele>327.7005</ele>
        <time>2021-07-19T08:18:49Z</time>
      </trkpt>
      <trkpt lat="45.43087" lon="4.71261">
        <ele>327.71106</ele>
        <time>2021-07-19T08:18:50Z</time>
      </trkpt>
      <trkpt lat="45.43082" lon="4.71253">
        <ele>327.77975</ele>
        <time>2021-07-19T08:18:51Z</time>
      </trkpt>
      <trkpt lat="45.43079" lon="4.71244">
        <ele>327.79562</ele>
        <time>2021-07-19T08:18:52Z</time>
      </trkpt>
      <trkpt lat="45.43075" lon="4.71236">
        <ele>327.9806</ele>
        <time>2021-07-19T08:18:53Z</time>
      </trkpt>
      <trkpt lat="45.43071" lon="4.71228">
        <ele>328.11267</ele>
        <time>2021-07-19T08:18:54Z</time>
      </trkpt>
      <trkpt lat="45.43068" lon="4.71221">
        <ele>328.40335</ele>
        <time>2021-07-19T08:18:55Z</time>
      </trkpt>
      <trkpt lat="45.43063" lon="4.71214">
        <ele>328.46146</ele>
        <time>2021-07-19T08:18:56Z</time>
      </trkpt>
      <trkpt lat="45.43061" lon="4.71206">
        <ele>328.71515</ele>
        <time>2021-07-19T08:18:57Z</time>
      </trkpt>
      <trkpt lat="45.43058" lon="4.71199">
        <ele>328.85782</ele>
        <time>2021-07-19T08:18:58Z</time>
      </trkpt>
      <trkpt lat="45.43055" lon="4.71192">
        <ele>329.1168</ele>
        <time>2021-07-19T08:18:59Z</time>
      </trkpt>
      <trkpt lat="45.43051" lon="4.71185">
        <ele>329.38626</ele>
        <time>2021-07-19T08:19:00Z</time>
      </trkpt>
      <trkpt lat="45.43048" lon="4.71179">
        <ele>329.42328</ele>
        <time>2021-07-19T08:19:01Z</time>
      </trkpt>
      <trkpt lat="45.43045" lon="4.71172">
        <ele>329.70337</ele>
        <time>2021-07-19T08:19:02Z</time>
      </trkpt>
      <trkpt lat="45.43042" lon="4.71166">
        <ele>329.74036</ele>
        <time>2021-07-19T08:19:03Z</time>
      </trkpt>
      <trkpt lat="45.43039" lon="4.7116">
        <ele>329.77734</ele>
        <time>2021-07-19T08:19:04Z</time>
      </trkpt>
      <trkpt lat="45.43036" lon="4.71153">
        <ele>329.74567</ele>
        <time>2021-07-19T08:19:05Z</time>
      </trkpt>
      <trkpt lat="45.43033" lon="4.71147">
        <ele>329.94116</ele>
        <time>2021-07-19T08:19:06Z</time>
      </trkpt>
      <trkpt lat="45.43029" lon="4.71141">
        <ele>330.18954</ele>
        <time>2021-07-19T08:19:07Z</time>
      </trkpt>
      <trkpt lat="45.43026" lon="4.71135">
        <ele>330.4538</ele>
        <time>2021-07-19T08:19:08Z</time>
      </trkpt>
      <trkpt lat="45.43023" lon="4.7113">
        <ele>330.80258</ele>
        <time>2021-07-19T08:19:09Z</time>
      </trkpt>
      <trkpt lat="45.4302" lon="4.71124">
        <ele>330.82898</ele>
        <time>2021-07-19T08:19:10Z</time>
      </trkpt>
      <trkpt lat="45.43017" lon="4.71118">
        <ele>331.13022</ele>
        <time>2021-07-19T08:19:11Z</time>
      </trkpt>
      <trkpt lat="45.43015" lon="4.71113">
        <ele>331.36276</ele>
        <time>2021-07-19T08:19:12Z</time>
      </trkpt>
      <trkpt lat="45.43012" lon="4.71107">
        <ele>331.5107</ele>
        <time>2021-07-19T08:19:13Z</time>
      </trkpt>
      <trkpt lat="45.4301" lon="4.71102">
        <ele>331.70624</ele>
        <time>2021-07-19T08:19:14Z</time>
      </trkpt>
      <trkpt lat="45.43007" lon="4.71097">
        <ele>331.87537</ele>
        <time>2021-07-19T08:19:15Z</time>
      </trkpt>
      <trkpt lat="45.43005" lon="4.71092">
        <ele>332.11844</ele>
        <time>2021-07-19T08:19:16Z</time>
      </trkpt>
      <trkpt lat="45.43002" lon="4.71087">
        <ele>332.4038</ele>
        <time>2021-07-19T08:19:17Z</time>
      </trkpt>
      <trkpt lat="45.43" lon="4.71082">
        <ele>332.46722</ele>
        <time>2021-07-19T08:19:18Z</time>
      </trkpt>
      <trkpt lat="45.42997" lon="4.71077">
        <ele>332.4038</ele>
        <time>2021-07-19T08:19:19Z</time>
      </trkpt>
      <trkpt lat="45.42994" lon="4.71072">
        <ele>332.63635</ele>
        <time>2021-07-19T08:19:20Z</time>
      </trkpt>
      <trkpt lat="45.42992" lon="4.71066">
        <ele>332.95868</ele>
        <time>2021-07-19T08:19:21Z</time>
      </trkpt>
      <trkpt lat="45.42989" lon="4.71061">
        <ele>333.04324</ele>
        <time>2021-07-19T08:19:22Z</time>
      </trkpt>
      <trkpt lat="45.42986" lon="4.71056">
        <ele>333.31277</ele>
        <time>2021-07-19T08:19:23Z</time>
      </trkpt>
      <trkpt lat="45.42983" lon="4.7105">
        <ele>333.56644</ele>
        <time>2021-07-19T08:19:24Z</time>
      </trkpt>
      <trkpt lat="45.42981" lon="4.71044">
        <ele>333.7408</ele>
        <time>2021-07-19T08:19:25Z</time>
      </trkpt>
      <trkpt lat="45.42978" lon="4.71039">
        <ele>333.71442</ele>
        <time>2021-07-19T08:19:26Z</time>
      </trkpt>
      <trkpt lat="45.42975" lon="4.71034">
        <ele>334.14246</ele>
        <time>2021-07-19T08:19:27Z</time>
      </trkpt>
      <trkpt lat="45.42972" lon="4.71028">
        <ele>334.14246</ele>
        <time>2021-07-19T08:19:28Z</time>
      </trkpt>
      <trkpt lat="45.42969" lon="4.71023">
        <ele>334.1583</ele>
        <time>2021-07-19T08:19:29Z</time>
      </trkpt>
      <trkpt lat="45.42967" lon="4.71018">
        <ele>334.44366</ele>
        <time>2021-07-19T08:19:30Z</time>
      </trkpt>
      <trkpt lat="45.42964" lon="4.71013">
        <ele>334.70264</ele>
        <time>2021-07-19T08:19:31Z</time>
      </trkpt>
      <trkpt lat="45.42961" lon="4.71008">
        <ele>334.9193</ele>
        <time>2021-07-19T08:19:32Z</time>
      </trkpt>
      <trkpt lat="45.42959" lon="4.71003">
        <ele>335.0567</ele>
        <time>2021-07-19T08:19:33Z</time>
      </trkpt>
      <trkpt lat="45.42956" lon="4.70998">
        <ele>335.52176</ele>
        <time>2021-07-19T08:19:34Z</time>
      </trkpt>
      <trkpt lat="45.42953" lon="4.70992">
        <ele>335.59045</ele>
        <time>2021-07-19T08:19:35Z</time>
      </trkpt>
      <trkpt lat="45.4295" lon="4.70987">
        <ele>335.82825</ele>
        <time>2021-07-19T08:19:36Z</time>
      </trkpt>
      <trkpt lat="45.42948" lon="4.70982">
        <ele>335.83356</ele>
        <time>2021-07-19T08:19:37Z</time>
      </trkpt>
      <trkpt lat="45.42945" lon="4.70976">
        <ele>336.1242</ele>
        <time>2021-07-19T08:19:38Z</time>
      </trkpt>
      <trkpt lat="45.42942" lon="4.70971">
        <ele>336.38843</ele>
        <time>2021-07-19T08:19:39Z</time>
      </trkpt>
      <trkpt lat="45.42939" lon="4.70966">
        <ele>336.61038</ele>
        <time>2021-07-19T08:19:40Z</time>
      </trkpt>
      <trkpt lat="45.42937" lon="4.70961">
        <ele>336.61566</ele>
        <time>2021-07-19T08:19:41Z</time>
      </trkpt>
      <trkpt lat="45.42934" lon="4.70956">
        <ele>336.6421</ele>
        <time>2021-07-19T08:19:42Z</time>
      </trkpt>
      <trkpt lat="45.4293" lon="4.7095">
        <ele>336.69492</ele>
        <time>2021-07-19T08:19:43Z</time>
      </trkpt>
      <trkpt lat="45.42927" lon="4.70945">
        <ele>336.81122</ele>
        <time>2021-07-19T08:19:44Z</time>
      </trkpt>
      <trkpt lat="45.42924" lon="4.70939">
        <ele>337.02258</ele>
        <time>2021-07-19T08:19:45Z</time>
      </trkpt>
      <trkpt lat="45.42921" lon="4.70933">
        <ele>337.21286</ele>
        <time>2021-07-19T08:19:46Z</time>
      </trkpt>
      <trkpt lat="45.42918" lon="4.70927">
        <ele>337.33966</ele>
        <time>2021-07-19T08:19:47Z</time>
      </trkpt>
      <trkpt lat="45.42915" lon="4.70922">
        <ele>337.51935</ele>
        <time>2021-07-19T08:19:48Z</time>
      </trkpt>
      <trkpt lat="45.42913" lon="4.70917">
        <ele>337.61975</ele>
        <time>2021-07-19T08:19:49Z</time>
      </trkpt>
      <trkpt lat="45.4291" lon="4.70912">
        <ele>337.84167</ele>
        <time>2021-07-19T08:19:50Z</time>
      </trkpt>
      <trkpt lat="45.42907" lon="4.70907">
        <ele>337.97382</ele>
        <time>2021-07-19T08:19:51Z</time>
      </trkpt>
      <trkpt lat="45.42905" lon="4.70902">
        <ele>338.17462</ele>
        <time>2021-07-19T08:19:52Z</time>
      </trkpt>
      <trkpt lat="45.42902" lon="4.70897">
        <ele>338.34375</ele>
        <time>2021-07-19T08:19:53Z</time>
      </trkpt>
      <trkpt lat="45.429" lon="4.70892">
        <ele>338.39658</ele>
        <time>2021-07-19T08:19:54Z</time>
      </trkpt>
      <trkpt lat="45.42897" lon="4.70887">
        <ele>338.43887</ele>
        <time>2021-07-19T08:19:55Z</time>
      </trkpt>
      <trkpt lat="45.42894" lon="4.70882">
        <ele>338.48645</ele>
        <time>2021-07-19T08:19:56Z</time>
      </trkpt>
      <trkpt lat="45.42892" lon="4.70877">
        <ele>338.6714</ele>
        <time>2021-07-19T08:19:57Z</time>
      </trkpt>
      <trkpt lat="45.42889" lon="4.70872">
        <ele>338.83524</ele>
        <time>2021-07-19T08:19:58Z</time>
      </trkpt>
      <trkpt lat="45.42887" lon="4.70867">
        <ele>338.89862</ele>
        <time>2021-07-19T08:19:59Z</time>
      </trkpt>
      <trkpt lat="45.42884" lon="4.70861">
        <ele>339.1206</ele>
        <time>2021-07-19T08:20:00Z</time>
      </trkpt>
      <trkpt lat="45.42882" lon="4.70856">
        <ele>339.18402</ele>
        <time>2021-07-19T08:20:01Z</time>
      </trkpt>
      <trkpt lat="45.42879" lon="4.7085">
        <ele>339.332</ele>
        <time>2021-07-19T08:20:02Z</time>
      </trkpt>
      <trkpt lat="45.42876" lon="4.70845">
        <ele>339.4588</ele>
        <time>2021-07-19T08:20:03Z</time>
      </trkpt>
      <trkpt lat="45.42874" lon="4.7084">
        <ele>339.61206</ele>
        <time>2021-07-19T08:20:04Z</time>
      </trkpt>
      <trkpt lat="45.42871" lon="4.70835">
        <ele>339.74417</ele>
        <time>2021-07-19T08:20:05Z</time>
      </trkpt>
      <trkpt lat="45.42869" lon="4.70829">
        <ele>339.89743</ele>
        <time>2021-07-19T08:20:06Z</time>
      </trkpt>
      <trkpt lat="45.42867" lon="4.70823">
        <ele>340.13522</ele>
        <time>2021-07-19T08:20:07Z</time>
      </trkpt>
      <trkpt lat="45.42865" lon="4.70817">
        <ele>340.38892</ele>
        <time>2021-07-19T08:20:08Z</time>
      </trkpt>
      <trkpt lat="45.42862" lon="4.70812">
        <ele>340.52103</ele>
        <time>2021-07-19T08:20:09Z</time>
      </trkpt>
      <trkpt lat="45.42861" lon="4.70806">
        <ele>340.48404</ele>
        <time>2021-07-19T08:20:10Z</time>
      </trkpt>
      <trkpt lat="45.42859" lon="4.708">
        <ele>340.64783</ele>
        <time>2021-07-19T08:20:11Z</time>
      </trkpt>
      <trkpt lat="45.42857" lon="4.70793">
        <ele>340.51572</ele>
        <time>2021-07-19T08:20:12Z</time>
      </trkpt>
      <trkpt lat="45.42855" lon="4.70787">
        <ele>340.5369</ele>
        <time>2021-07-19T08:20:13Z</time>
      </trkpt>
      <trkpt lat="45.42854" lon="4.7078">
        <ele>340.39948</ele>
        <time>2021-07-19T08:20:14Z</time>
      </trkpt>
      <trkpt lat="45.42852" lon="4.70773">
        <ele>340.39948</ele>
        <time>2021-07-19T08:20:15Z</time>
      </trkpt>
      <trkpt lat="45.4285" lon="4.70766">
        <ele>340.23035</ele>
        <time>2021-07-19T08:20:16Z</time>
      </trkpt>
      <trkpt lat="45.42848" lon="4.70758">
        <ele>340.28848</ele>
        <time>2021-07-19T08:20:17Z</time>
      </trkpt>
      <trkpt lat="45.42846" lon="4.70751">
        <ele>340.2621</ele>
        <time>2021-07-19T08:20:18Z</time>
      </trkpt>
      <trkpt lat="45.42845" lon="4.70743">
        <ele>340.09296</ele>
        <time>2021-07-19T08:20:19Z</time>
      </trkpt>
      <trkpt lat="45.42843" lon="4.70733">
        <ele>340.2832</ele>
        <time>2021-07-19T08:20:20Z</time>
      </trkpt>
      <trkpt lat="45.42842" lon="4.70724">
        <ele>340.20395</ele>
        <time>2021-07-19T08:20:21Z</time>
      </trkpt>
      <trkpt lat="45.42839" lon="4.70712">
        <ele>339.982</ele>
        <time>2021-07-19T08:20:22Z</time>
      </trkpt>
      <trkpt lat="45.42836" lon="4.70702">
        <ele>339.69662</ele>
        <time>2021-07-19T08:20:23Z</time>
      </trkpt>
      <trkpt lat="45.42834" lon="4.70693">
        <ele>339.64377</ele>
        <time>2021-07-19T08:20:24Z</time>
      </trkpt>
      <trkpt lat="45.42832" lon="4.70683">
        <ele>339.28442</ele>
        <time>2021-07-19T08:20:25Z</time>
      </trkpt>
      <trkpt lat="45.42829" lon="4.70673">
        <ele>339.11533</ele>
        <time>2021-07-19T08:20:26Z</time>
      </trkpt>
      <trkpt lat="45.42827" lon="4.70664">
        <ele>339.1047</ele>
        <time>2021-07-19T08:20:27Z</time>
      </trkpt>
      <trkpt lat="45.42823" lon="4.70654">
        <ele>338.72424</ele>
        <time>2021-07-19T08:20:28Z</time>
      </trkpt>
      <trkpt lat="45.4282" lon="4.70645">
        <ele>338.4283</ele>
        <time>2021-07-19T08:20:29Z</time>
      </trkpt>
      <trkpt lat="45.42817" lon="4.70634">
        <ele>337.90512</ele>
        <time>2021-07-19T08:20:30Z</time>
      </trkpt>
      <trkpt lat="45.42814" lon="4.70624">
        <ele>337.52463</ele>
        <time>2021-07-19T08:20:31Z</time>
      </trkpt>
      <trkpt lat="45.42811" lon="4.70613">
        <ele>337.2551</ele>
        <time>2021-07-19T08:20:32Z</time>
      </trkpt>
      <trkpt lat="45.42807" lon="4.70602">
        <ele>337.18112</ele>
        <time>2021-07-19T08:20:33Z</time>
      </trkpt>
      <trkpt lat="45.42803" lon="4.70591">
        <ele>336.4254</ele>
        <time>2021-07-19T08:20:34Z</time>
      </trkpt>
      <trkpt lat="45.42799" lon="4.70579">
        <ele>336.5787</ele>
        <time>2021-07-19T08:20:35Z</time>
      </trkpt>
      <trkpt lat="45.42795" lon="4.70568">
        <ele>336.436</ele>
        <time>2021-07-19T08:20:36Z</time>
      </trkpt>
      <trkpt lat="45.42791" lon="4.70557">
        <ele>335.9551</ele>
        <time>2021-07-19T08:20:37Z</time>
      </trkpt>
      <trkpt lat="45.42788" lon="4.70544">
        <ele>335.4319</ele>
        <time>2021-07-19T08:20:38Z</time>
      </trkpt>
      <trkpt lat="45.42784" lon="4.70532">
        <ele>334.6709</ele>
        <time>2021-07-19T08:20:39Z</time>
      </trkpt>
      <trkpt lat="45.4278" lon="4.70519">
        <ele>333.96277</ele>
        <time>2021-07-19T08:20:40Z</time>
      </trkpt>
      <trkpt lat="45.42776" lon="4.70506">
        <ele>333.55588</ele>
        <time>2021-07-19T08:20:41Z</time>
      </trkpt>
      <trkpt lat="45.42772" lon="4.70493">
        <ele>333.09082</ele>
        <time>2021-07-19T08:20:42Z</time>
      </trkpt>
      <trkpt lat="45.42768" lon="4.7048">
        <ele>332.80545</ele>
        <time>2021-07-19T08:20:43Z</time>
      </trkpt>
      <trkpt lat="45.42764" lon="4.70466">
        <ele>332.29813</ele>
        <time>2021-07-19T08:20:44Z</time>
      </trkpt>
      <trkpt lat="45.4276" lon="4.70453">
        <ele>332.74203</ele>
        <time>2021-07-19T08:20:45Z</time>
      </trkpt>
      <trkpt lat="45.42756" lon="4.70439">
        <ele>332.4408</ele>
        <time>2021-07-19T08:20:46Z</time>
      </trkpt>
      <trkpt lat="45.42753" lon="4.70425">
        <ele>332.01804</ele>
        <time>2021-07-19T08:20:47Z</time>
      </trkpt>
      <trkpt lat="45.42749" lon="4.70412">
        <ele>332.0656</ele>
        <time>2021-07-19T08:20:48Z</time>
      </trkpt>
      <trkpt lat="45.42746" lon="4.70399">
        <ele>331.38916</ele>
        <time>2021-07-19T08:20:49Z</time>
      </trkpt>
      <trkpt lat="45.42742" lon="4.70386">
        <ele>331.23062</ele>
        <time>2021-07-19T08:20:50Z</time>
      </trkpt>
      <trkpt lat="45.4274" lon="4.70374">
        <ele>331.48428</ele>
        <time>2021-07-19T08:20:51Z</time>
      </trkpt>
      <trkpt lat="45.42737" lon="4.70362">
        <ele>331.18835</ele>
        <time>2021-07-19T08:20:52Z</time>
      </trkpt>
      <trkpt lat="45.42734" lon="4.7035">
        <ele>331.1725</ele>
        <time>2021-07-19T08:20:53Z</time>
      </trkpt>
      <trkpt lat="45.42731" lon="4.70339">
        <ele>331.01398</ele>
        <time>2021-07-19T08:20:54Z</time>
      </trkpt>
      <trkpt lat="45.42728" lon="4.70329">
        <ele>330.7339</ele>
        <time>2021-07-19T08:20:55Z</time>
      </trkpt>
      <trkpt lat="45.42726" lon="4.70319">
        <ele>330.8924</ele>
        <time>2021-07-19T08:20:56Z</time>
      </trkpt>
      <trkpt lat="45.42723" lon="4.70309">
        <ele>331.28345</ele>
        <time>2021-07-19T08:20:57Z</time>
      </trkpt>
      <trkpt lat="45.42721" lon="4.703">
        <ele>331.34686</ele>
        <time>2021-07-19T08:20:58Z</time>
      </trkpt>
      <trkpt lat="45.42719" lon="4.70291">
        <ele>331.56882</ele>
        <time>2021-07-19T08:20:59Z</time>
      </trkpt>
      <trkpt lat="45.42717" lon="4.70283">
        <ele>331.7591</ele>
        <time>2021-07-19T08:21:00Z</time>
      </trkpt>
      <trkpt lat="45.42715" lon="4.70275">
        <ele>332.129</ele>
        <time>2021-07-19T08:21:01Z</time>
      </trkpt>
      <trkpt lat="45.42713" lon="4.70267">
        <ele>332.20828</ele>
        <time>2021-07-19T08:21:02Z</time>
      </trkpt>
      <trkpt lat="45.42711" lon="4.7026">
        <ele>332.39325</ele>
        <time>2021-07-19T08:21:03Z</time>
      </trkpt>
      <trkpt lat="45.4271" lon="4.70253">
        <ele>332.49893</ele>
        <time>2021-07-19T08:21:04Z</time>
      </trkpt>
      <trkpt lat="45.42709" lon="4.70246">
        <ele>332.39325</ele>
        <time>2021-07-19T08:21:05Z</time>
      </trkpt>
      <trkpt lat="45.42707" lon="4.70239">
        <ele>332.59933</ele>
        <time>2021-07-19T08:21:06Z</time>
      </trkpt>
      <trkpt lat="45.42706" lon="4.70232">
        <ele>332.83185</ele>
        <time>2021-07-19T08:21:07Z</time>
      </trkpt>
      <trkpt lat="45.42706" lon="4.70226">
        <ele>332.90582</ele>
        <time>2021-07-19T08:21:08Z</time>
      </trkpt>
      <trkpt lat="45.42704" lon="4.70219">
        <ele>333.12253</ele>
        <time>2021-07-19T08:21:09Z</time>
      </trkpt>
      <trkpt lat="45.42704" lon="4.70212">
        <ele>333.08026</ele>
        <time>2021-07-19T08:21:10Z</time>
      </trkpt>
      <trkpt lat="45.42703" lon="4.70206">
        <ele>333.25992</ele>
        <time>2021-07-19T08:21:11Z</time>
      </trkpt>
      <trkpt lat="45.42703" lon="4.70199">
        <ele>333.466</ele>
        <time>2021-07-19T08:21:12Z</time>
      </trkpt>
      <trkpt lat="45.42703" lon="4.70193">
        <ele>333.7831</ele>
        <time>2021-07-19T08:21:13Z</time>
      </trkpt>
      <trkpt lat="45.42702" lon="4.70187">
        <ele>333.79895</ele>
        <time>2021-07-19T08:21:14Z</time>
      </trkpt>
      <trkpt lat="45.42702" lon="4.70181">
        <ele>333.9892</ele>
        <time>2021-07-19T08:21:15Z</time>
      </trkpt>
      <trkpt lat="45.42701" lon="4.70175">
        <ele>334.14246</ele>
        <time>2021-07-19T08:21:16Z</time>
      </trkpt>
      <trkpt lat="45.42701" lon="4.70169">
        <ele>334.227</ele>
        <time>2021-07-19T08:21:17Z</time>
      </trkpt>
      <trkpt lat="45.42701" lon="4.70163">
        <ele>334.38025</ele>
        <time>2021-07-19T08:21:18Z</time>
      </trkpt>
      <trkpt lat="45.427" lon="4.70157">
        <ele>334.56522</ele>
        <time>2021-07-19T08:21:19Z</time>
      </trkpt>
      <trkpt lat="45.427" lon="4.70151">
        <ele>334.72903</ele>
        <time>2021-07-19T08:21:20Z</time>
      </trkpt>
      <trkpt lat="45.42699" lon="4.70146">
        <ele>334.85587</ele>
        <time>2021-07-19T08:21:21Z</time>
      </trkpt>
      <trkpt lat="45.42699" lon="4.7014">
        <ele>334.82947</ele>
        <time>2021-07-19T08:21:22Z</time>
      </trkpt>
      <trkpt lat="45.42699" lon="4.70135">
        <ele>334.83475</ele>
        <time>2021-07-19T08:21:23Z</time>
      </trkpt>
      <trkpt lat="45.42698" lon="4.70129">
        <ele>334.97745</ele>
        <time>2021-07-19T08:21:24Z</time>
      </trkpt>
      <trkpt lat="45.42698" lon="4.70123">
        <ele>335.06726</ele>
        <time>2021-07-19T08:21:25Z</time>
      </trkpt>
      <trkpt lat="45.42697" lon="4.70117">
        <ele>335.0937</ele>
        <time>2021-07-19T08:21:26Z</time>
      </trkpt>
      <trkpt lat="45.42697" lon="4.70111">
        <ele>335.12012</ele>
        <time>2021-07-19T08:21:27Z</time>
      </trkpt>
      <trkpt lat="45.42696" lon="4.70105">
        <ele>335.1677</ele>
        <time>2021-07-19T08:21:28Z</time>
      </trkpt>
      <trkpt lat="45.42695" lon="4.701">
        <ele>335.47946</ele>
        <time>2021-07-19T08:21:29Z</time>
      </trkpt>
      <trkpt lat="45.42695" lon="4.70094">
        <ele>335.5482</ele>
        <time>2021-07-19T08:21:30Z</time>
      </trkpt>
      <trkpt lat="45.42693" lon="4.70088">
        <ele>335.57986</ele>
        <time>2021-07-19T08:21:31Z</time>
      </trkpt>
      <trkpt lat="45.42693" lon="4.70083">
        <ele>335.88638</ele>
        <time>2021-07-19T08:21:32Z</time>
      </trkpt>
      <trkpt lat="45.42691" lon="4.70077">
        <ele>335.9128</ele>
        <time>2021-07-19T08:21:33Z</time>
      </trkpt>
      <trkpt lat="45.4269" lon="4.70072">
        <ele>336.0238</ele>
        <time>2021-07-19T08:21:34Z</time>
      </trkpt>
      <trkpt lat="45.42689" lon="4.70067">
        <ele>336.3039</ele>
        <time>2021-07-19T08:21:35Z</time>
      </trkpt>
      <trkpt lat="45.42687" lon="4.70063">
        <ele>336.436</ele>
        <time>2021-07-19T08:21:36Z</time>
      </trkpt>
      <trkpt lat="45.42686" lon="4.70058">
        <ele>336.48355</ele>
        <time>2021-07-19T08:21:37Z</time>
      </trkpt>
      <trkpt lat="45.42684" lon="4.70053">
        <ele>336.34613</ele>
        <time>2021-07-19T08:21:38Z</time>
      </trkpt>
      <trkpt lat="45.42682" lon="4.70048">
        <ele>336.45184</ele>
        <time>2021-07-19T08:21:39Z</time>
      </trkpt>
      <trkpt lat="45.4268" lon="4.70044">
        <ele>336.65268</ele>
        <time>2021-07-19T08:21:40Z</time>
      </trkpt>
      <trkpt lat="45.42678" lon="4.70039">
        <ele>336.70023</ele>
        <time>2021-07-19T08:21:41Z</time>
      </trkpt>
      <trkpt lat="45.42676" lon="4.70035">
        <ele>336.68964</ele>
        <time>2021-07-19T08:21:42Z</time>
      </trkpt>
      <trkpt lat="45.42673" lon="4.7003">
        <ele>336.70023</ele>
        <time>2021-07-19T08:21:43Z</time>
      </trkpt>
      <trkpt lat="45.42671" lon="4.70026">
        <ele>336.67908</ele>
        <time>2021-07-19T08:21:44Z</time>
      </trkpt>
      <trkpt lat="45.42668" lon="4.70022">
        <ele>336.83762</ele>
        <time>2021-07-19T08:21:45Z</time>
      </trkpt>
      <trkpt lat="45.42666" lon="4.70017">
        <ele>336.8429</ele>
        <time>2021-07-19T08:21:46Z</time>
      </trkpt>
      <trkpt lat="45.42663" lon="4.70013">
        <ele>336.8165</ele>
        <time>2021-07-19T08:21:47Z</time>
      </trkpt>
      <trkpt lat="45.42659" lon="4.70008">
        <ele>336.76364</ele>
        <time>2021-07-19T08:21:48Z</time>
      </trkpt>
      <trkpt lat="45.42656" lon="4.70004">
        <ele>336.85876</ele>
        <time>2021-07-19T08:21:49Z</time>
      </trkpt>
      <trkpt lat="45.42653" lon="4.7">
        <ele>336.91687</ele>
        <time>2021-07-19T08:21:50Z</time>
      </trkpt>
      <trkpt lat="45.42649" lon="4.69996">
        <ele>336.99615</ele>
        <time>2021-07-19T08:21:51Z</time>
      </trkpt>
      <trkpt lat="45.42646" lon="4.69991">
        <ele>336.9539</ele>
        <time>2021-07-19T08:21:52Z</time>
      </trkpt>
      <trkpt lat="45.42641" lon="4.69987">
        <ele>337.02258</ele>
        <time>2021-07-19T08:21:53Z</time>
      </trkpt>
      <trkpt lat="45.42638" lon="4.69982">
        <ele>337.13354</ele>
        <time>2021-07-19T08:21:54Z</time>
      </trkpt>
      <trkpt lat="45.42634" lon="4.69978">
        <ele>336.99088</ele>
        <time>2021-07-19T08:21:55Z</time>
      </trkpt>
      <trkpt lat="45.4263" lon="4.69974">
        <ele>336.9486</ele>
        <time>2021-07-19T08:21:56Z</time>
      </trkpt>
      <trkpt lat="45.42626" lon="4.69969">
        <ele>337.02786</ele>
        <time>2021-07-19T08:21:57Z</time>
      </trkpt>
      <trkpt lat="45.42622" lon="4.69965">
        <ele>336.86407</ele>
        <time>2021-07-19T08:21:58Z</time>
      </trkpt>
      <trkpt lat="45.42618" lon="4.6996">
        <ele>336.62622</ele>
        <time>2021-07-19T08:21:59Z</time>
      </trkpt>
      <trkpt lat="45.42614" lon="4.69955">
        <ele>336.58926</ele>
        <time>2021-07-19T08:22:00Z</time>
      </trkpt>
      <trkpt lat="45.42609" lon="4.69949">
        <ele>336.7055</ele>
        <time>2021-07-19T08:22:01Z</time>
      </trkpt>
      <trkpt lat="45.42605" lon="4.69944">
        <ele>336.41486</ele>
        <time>2021-07-19T08:22:02Z</time>
      </trkpt>
      <trkpt lat="45.42601" lon="4.69938">
        <ele>336.26688</ele>
        <time>2021-07-19T08:22:03Z</time>
      </trkpt>
      <trkpt lat="45.42596" lon="4.69932">
        <ele>336.1929</ele>
        <time>2021-07-19T08:22:04Z</time>
      </trkpt>
      <trkpt lat="45.42593" lon="4.69926">
        <ele>336.20346</ele>
        <time>2021-07-19T08:22:05Z</time>
      </trkpt>
      <trkpt lat="45.42589" lon="4.69919">
        <ele>336.01852</ele>
        <time>2021-07-19T08:22:06Z</time>
      </trkpt>
      <trkpt lat="45.42586" lon="4.69912">
        <ele>336.06076</ele>
        <time>2021-07-19T08:22:07Z</time>
      </trkpt>
      <trkpt lat="45.42584" lon="4.69904">
        <ele>336.14532</ele>
        <time>2021-07-19T08:22:08Z</time>
      </trkpt>
      <trkpt lat="45.42581" lon="4.69897">
        <ele>336.3937</ele>
        <time>2021-07-19T08:22:09Z</time>
      </trkpt>
      <trkpt lat="45.42579" lon="4.6989">
        <ele>336.4941</ele>
        <time>2021-07-19T08:22:10Z</time>
      </trkpt>
      <trkpt lat="45.42577" lon="4.69883">
        <ele>336.59454</ele>
        <time>2021-07-19T08:22:11Z</time>
      </trkpt>
      <trkpt lat="45.42575" lon="4.69876">
        <ele>336.6315</ele>
        <time>2021-07-19T08:22:12Z</time>
      </trkpt>
      <trkpt lat="45.42573" lon="4.69869">
        <ele>336.56808</ele>
        <time>2021-07-19T08:22:13Z</time>
      </trkpt>
      <trkpt lat="45.42571" lon="4.69863">
        <ele>336.62094</ele>
        <time>2021-07-19T08:22:14Z</time>
      </trkpt>
      <trkpt lat="45.42569" lon="4.69856">
        <ele>336.52585</ele>
        <time>2021-07-19T08:22:15Z</time>
      </trkpt>
      <trkpt lat="45.42567" lon="4.69849">
        <ele>336.59982</ele>
        <time>2021-07-19T08:22:16Z</time>
      </trkpt>
      <trkpt lat="45.42565" lon="4.69843">
        <ele>336.7108</ele>
        <time>2021-07-19T08:22:17Z</time>
      </trkpt>
      <trkpt lat="45.42563" lon="4.69837">
        <ele>336.8165</ele>
        <time>2021-07-19T08:22:18Z</time>
      </trkpt>
      <trkpt lat="45.4256" lon="4.6983">
        <ele>336.8799</ele>
        <time>2021-07-19T08:22:19Z</time>
      </trkpt>
      <trkpt lat="45.42558" lon="4.69823">
        <ele>336.93805</ele>
        <time>2021-07-19T08:22:20Z</time>
      </trkpt>
      <trkpt lat="45.42555" lon="4.69816">
        <ele>336.79007</ele>
        <time>2021-07-19T08:22:21Z</time>
      </trkpt>
      <trkpt lat="45.42553" lon="4.69809">
        <ele>336.70023</ele>
        <time>2021-07-19T08:22:22Z</time>
      </trkpt>
      <trkpt lat="45.4255" lon="4.69801">
        <ele>336.59982</ele>
        <time>2021-07-19T08:22:23Z</time>
      </trkpt>
      <trkpt lat="45.42548" lon="4.69793">
        <ele>336.54697</ele>
        <time>2021-07-19T08:22:24Z</time>
      </trkpt>
      <trkpt lat="45.42545" lon="4.69785">
        <ele>336.31445</ele>
        <time>2021-07-19T08:22:25Z</time>
      </trkpt>
      <trkpt lat="45.42543" lon="4.69776">
        <ele>336.06607</ele>
        <time>2021-07-19T08:22:26Z</time>
      </trkpt>
      <trkpt lat="45.42541" lon="4.69767">
        <ele>335.56403</ele>
        <time>2021-07-19T08:22:27Z</time>
      </trkpt>
      <trkpt lat="45.42539" lon="4.69757">
        <ele>335.21524</ele>
        <time>2021-07-19T08:22:28Z</time>
      </trkpt>
      <trkpt lat="45.42537" lon="4.69747">
        <ele>335.25754</ele>
        <time>2021-07-19T08:22:29Z</time>
      </trkpt>
      <trkpt lat="45.42535" lon="4.69737">
        <ele>334.96158</ele>
        <time>2021-07-19T08:22:30Z</time>
      </trkpt>
      <trkpt lat="45.42534" lon="4.69726">
        <ele>334.8242</ele>
        <time>2021-07-19T08:22:31Z</time>
      </trkpt>
      <trkpt lat="45.42532" lon="4.69714">
        <ele>334.24814</ele>
        <time>2021-07-19T08:22:32Z</time>
      </trkpt>
      <trkpt lat="45.42532" lon="4.69703">
        <ele>333.87292</ele>
        <time>2021-07-19T08:22:33Z</time>
      </trkpt>
      <trkpt lat="45.4253" lon="4.69691">
        <ele>333.00098</ele>
        <time>2021-07-19T08:22:34Z</time>
      </trkpt>
      <trkpt lat="45.4253" lon="4.69679">
        <ele>332.55704</ele>
        <time>2021-07-19T08:22:35Z</time>
      </trkpt>
      <trkpt lat="45.4253" lon="4.69666">
        <ele>332.31924</ele>
        <time>2021-07-19T08:22:36Z</time>
      </trkpt>
      <trkpt lat="45.42529" lon="4.69654">
        <ele>332.15543</ele>
        <time>2021-07-19T08:22:37Z</time>
      </trkpt>
      <trkpt lat="45.42528" lon="4.69641">
        <ele>332.37738</ele>
        <time>2021-07-19T08:22:38Z</time>
      </trkpt>
      <trkpt lat="45.42527" lon="4.69628">
        <ele>331.8912</ele>
        <time>2021-07-19T08:22:39Z</time>
      </trkpt>
      <trkpt lat="45.42525" lon="4.69615">
        <ele>331.06677</ele>
        <time>2021-07-19T08:22:40Z</time>
      </trkpt>
      <trkpt lat="45.42525" lon="4.69602">
        <ele>330.179</ele>
        <time>2021-07-19T08:22:41Z</time>
      </trkpt>
      <trkpt lat="45.42524" lon="4.69588">
        <ele>329.56067</ele>
        <time>2021-07-19T08:22:42Z</time>
      </trkpt>
      <trkpt lat="45.42524" lon="4.69575">
        <ele>329.17487</ele>
        <time>2021-07-19T08:22:43Z</time>
      </trkpt>
      <trkpt lat="45.42524" lon="4.69561">
        <ele>328.9688</ele>
        <time>2021-07-19T08:22:44Z</time>
      </trkpt>
      <trkpt lat="45.42523" lon="4.69547">
        <ele>328.03342</ele>
        <time>2021-07-19T08:22:45Z</time>
      </trkpt>
      <trkpt lat="45.42521" lon="4.69533">
        <ele>327.209</ele>
        <time>2021-07-19T08:22:46Z</time>
      </trkpt>
      <trkpt lat="45.42519" lon="4.69518">
        <ele>326.29477</ele>
        <time>2021-07-19T08:22:47Z</time>
      </trkpt>
      <trkpt lat="45.42516" lon="4.69503">
        <ele>326.0834</ele>
        <time>2021-07-19T08:22:48Z</time>
      </trkpt>
      <trkpt lat="45.42513" lon="4.69489">
        <ele>325.9777</ele>
        <time>2021-07-19T08:22:49Z</time>
      </trkpt>
      <trkpt lat="45.4251" lon="4.69475">
        <ele>325.35938</ele>
        <time>2021-07-19T08:22:50Z</time>
      </trkpt>
      <trkpt lat="45.42507" lon="4.6946">
        <ele>325.60776</ele>
        <time>2021-07-19T08:22:51Z</time>
      </trkpt>
      <trkpt lat="45.42505" lon="4.69445">
        <ele>324.93134</ele>
        <time>2021-07-19T08:22:52Z</time>
      </trkpt>
      <trkpt lat="45.42503" lon="4.6943">
        <ele>323.97482</ele>
        <time>2021-07-19T08:22:53Z</time>
      </trkpt>
      <trkpt lat="45.42505" lon="4.69416">
        <ele>323.3301</ele>
        <time>2021-07-19T08:22:54Z</time>
      </trkpt>
      <trkpt lat="45.4251" lon="4.69401">
        <ele>322.24146</ele>
        <time>2021-07-19T08:22:55Z</time>
      </trkpt>
      <trkpt lat="45.42516" lon="4.69388">
        <ele>321.24792</ele>
        <time>2021-07-19T08:22:56Z</time>
      </trkpt>
      <trkpt lat="45.42526" lon="4.6938">
        <ele>320.94672</ele>
        <time>2021-07-19T08:22:57Z</time>
      </trkpt>
      <trkpt lat="45.42535" lon="4.69373">
        <ele>320.1963</ele>
        <time>2021-07-19T08:22:58Z</time>
      </trkpt>
      <trkpt lat="45.42542" lon="4.69362">
        <ele>319.23447</ele>
        <time>2021-07-19T08:22:59Z</time>
      </trkpt>
      <trkpt lat="45.42545" lon="4.69351">
        <ele>318.95972</ele>
        <time>2021-07-19T08:23:00Z</time>
      </trkpt>
      <trkpt lat="45.42548" lon="4.69337">
        <ele>318.6003</ele>
        <time>2021-07-19T08:23:01Z</time>
      </trkpt>
      <trkpt lat="45.42548" lon="4.69321">
        <ele>318.12473</ele>
        <time>2021-07-19T08:23:02Z</time>
      </trkpt>
      <trkpt lat="45.42547" lon="4.69305">
        <ele>317.6544</ele>
        <time>2021-07-19T08:23:03Z</time>
      </trkpt>
      <trkpt lat="45.42543" lon="4.69289">
        <ele>317.07837</ele>
        <time>2021-07-19T08:23:04Z</time>
      </trkpt>
      <trkpt lat="45.42536" lon="4.69277">
        <ele>316.15356</ele>
        <time>2021-07-19T08:23:05Z</time>
      </trkpt>
      <trkpt lat="45.42527" lon="4.69266">
        <ele>315.74136</ele>
        <time>2021-07-19T08:23:06Z</time>
      </trkpt>
      <trkpt lat="45.4252" lon="4.69253">
        <ele>315.23404</ele>
        <time>2021-07-19T08:23:07Z</time>
      </trkpt>
      <trkpt lat="45.42514" lon="4.6924">
        <ele>314.63684</ele>
        <time>2021-07-19T08:23:08Z</time>
      </trkpt>
      <trkpt lat="45.42508" lon="4.69226">
        <ele>314.00797</ele>
        <time>2021-07-19T08:23:09Z</time>
      </trkpt>
      <trkpt lat="45.42503" lon="4.69213">
        <ele>313.36325</ele>
        <time>2021-07-19T08:23:10Z</time>
      </trkpt>
      <trkpt lat="45.42498" lon="4.69199">
        <ele>313.15186</ele>
        <time>2021-07-19T08:23:11Z</time>
      </trkpt>
      <trkpt lat="45.42492" lon="4.69186">
        <ele>312.30634</ele>
        <time>2021-07-19T08:23:12Z</time>
      </trkpt>
      <trkpt lat="45.42486" lon="4.69173">
        <ele>311.6563</ele>
        <time>2021-07-19T08:23:13Z</time>
      </trkpt>
      <trkpt lat="45.4248" lon="4.6916">
        <ele>311.2917</ele>
        <time>2021-07-19T08:23:14Z</time>
      </trkpt>
      <trkpt lat="45.42476" lon="4.69145">
        <ele>311.09088</ele>
        <time>2021-07-19T08:23:15Z</time>
      </trkpt>
      <trkpt lat="45.42474" lon="4.6913">
        <ele>310.41443</ele>
        <time>2021-07-19T08:23:16Z</time>
      </trkpt>
      <trkpt lat="45.42471" lon="4.69114">
        <ele>309.9758</ele>
        <time>2021-07-19T08:23:17Z</time>
      </trkpt>
      <trkpt lat="45.42471" lon="4.69097">
        <ele>309.57944</ele>
        <time>2021-07-19T08:23:18Z</time>
      </trkpt>
      <trkpt lat="45.4247" lon="4.69081">
        <ele>309.10913</ele>
        <time>2021-07-19T08:23:19Z</time>
      </trkpt>
      <trkpt lat="45.42469" lon="4.69066">
        <ele>308.78146</ele>
        <time>2021-07-19T08:23:20Z</time>
      </trkpt>
      <trkpt lat="45.42468" lon="4.6905">
        <ele>308.06277</ele>
        <time>2021-07-19T08:23:21Z</time>
      </trkpt>
      <trkpt lat="45.42465" lon="4.69035">
        <ele>307.44974</ele>
        <time>2021-07-19T08:23:22Z</time>
      </trkpt>
      <trkpt lat="45.42463" lon="4.69022">
        <ele>307.3969</ele>
        <time>2021-07-19T08:23:23Z</time>
      </trkpt>
      <trkpt lat="45.42458" lon="4.69008">
        <ele>307.58185</ele>
        <time>2021-07-19T08:23:24Z</time>
      </trkpt>
      <trkpt lat="45.42454" lon="4.68995">
        <ele>307.5343</ele>
        <time>2021-07-19T08:23:25Z</time>
      </trkpt>
      <trkpt lat="45.42451" lon="4.68982">
        <ele>307.55542</ele>
        <time>2021-07-19T08:23:27Z</time>
      </trkpt>
      <trkpt lat="45.42449" lon="4.68969">
        <ele>307.28592</ele>
        <time>2021-07-19T08:23:28Z</time>
      </trkpt>
      <trkpt lat="45.4245" lon="4.68955">
        <ele>307.14325</ele>
        <time>2021-07-19T08:23:29Z</time>
      </trkpt>
      <trkpt lat="45.42451" lon="4.68942">
        <ele>306.8103</ele>
        <time>2021-07-19T08:23:30Z</time>
      </trkpt>
      <trkpt lat="45.42453" lon="4.68929">
        <ele>306.24484</ele>
        <time>2021-07-19T08:23:31Z</time>
      </trkpt>
      <trkpt lat="45.42454" lon="4.68916">
        <ele>306.02817</ele>
        <time>2021-07-19T08:23:32Z</time>
      </trkpt>
      <trkpt lat="45.42456" lon="4.68903">
        <ele>305.92776</ele>
        <time>2021-07-19T08:23:33Z</time>
      </trkpt>
      <trkpt lat="45.42456" lon="4.68891">
        <ele>305.48914</ele>
        <time>2021-07-19T08:23:34Z</time>
      </trkpt>
      <trkpt lat="45.42457" lon="4.68879">
        <ele>305.2989</ele>
        <time>2021-07-19T08:23:35Z</time>
      </trkpt>
      <trkpt lat="45.42455" lon="4.68867">
        <ele>304.36353</ele>
        <time>2021-07-19T08:23:36Z</time>
      </trkpt>
      <trkpt lat="45.42452" lon="4.68855">
        <ele>304.00946</ele>
        <time>2021-07-19T08:23:37Z</time>
      </trkpt>
      <trkpt lat="45.42446" lon="4.68847">
        <ele>304.00418</ele>
        <time>2021-07-19T08:23:38Z</time>
      </trkpt>
      <trkpt lat="45.42438" lon="4.6884">
        <ele>304.057</ele>
        <time>2021-07-19T08:23:39Z</time>
      </trkpt>
      <trkpt lat="45.42431" lon="4.68833">
        <ele>304.1627</ele>
        <time>2021-07-19T08:23:40Z</time>
      </trkpt>
      <trkpt lat="45.42425" lon="4.68826">
        <ele>304.53262</ele>
        <time>2021-07-19T08:23:41Z</time>
      </trkpt>
      <trkpt lat="45.42419" lon="4.68821">
        <ele>304.892</ele>
        <time>2021-07-19T08:23:42Z</time>
      </trkpt>
      <trkpt lat="45.42413" lon="4.68818">
        <ele>305.0294</ele>
        <time>2021-07-19T08:23:43Z</time>
      </trkpt>
      <trkpt lat="45.42408" lon="4.68817">
        <ele>305.3623</ele>
        <time>2021-07-19T08:23:44Z</time>
      </trkpt>
      <trkpt lat="45.42405" lon="4.68818">
        <ele>305.99118</ele>
        <time>2021-07-19T08:23:45Z</time>
      </trkpt>
      <trkpt lat="45.42403" lon="4.68818">
        <ele>306.46152</ele>
        <time>2021-07-19T08:23:46Z</time>
      </trkpt>
      <trkpt lat="45.424" lon="4.68822">
        <ele>306.58307</ele>
        <time>2021-07-19T08:23:47Z</time>
      </trkpt>
      <trkpt lat="45.42399" lon="4.68824">
        <ele>306.59363</ele>
        <time>2021-07-19T08:23:48Z</time>
      </trkpt>
      <trkpt lat="45.42396" lon="4.68828">
        <ele>307.0111</ele>
        <time>2021-07-19T08:23:49Z</time>
      </trkpt>
      <trkpt lat="45.42393" lon="4.68832">
        <ele>307.18552</ele>
        <time>2021-07-19T08:23:50Z</time>
      </trkpt>
      <trkpt lat="45.4239" lon="4.68838">
        <ele>307.1908</ele>
        <time>2021-07-19T08:23:51Z</time>
      </trkpt>
      <trkpt lat="45.42386" lon="4.68843">
        <ele>307.24362</ele>
        <time>2021-07-19T08:23:52Z</time>
      </trkpt>
      <trkpt lat="45.42384" lon="4.68848">
        <ele>307.4656</ele>
        <time>2021-07-19T08:23:53Z</time>
      </trkpt>
      <trkpt lat="45.42381" lon="4.68851">
        <ele>307.6717</ele>
        <time>2021-07-19T08:23:54Z</time>
      </trkpt>
      <trkpt lat="45.42379" lon="4.68856">
        <ele>307.81436</ele>
        <time>2021-07-19T08:23:55Z</time>
      </trkpt>
      <trkpt lat="45.42376" lon="4.68859">
        <ele>307.95178</ele>
        <time>2021-07-19T08:23:56Z</time>
      </trkpt>
      <trkpt lat="45.42375" lon="4.68862">
        <ele>308.1526</ele>
        <time>2021-07-19T08:23:57Z</time>
      </trkpt>
      <trkpt lat="45.42373" lon="4.68865">
        <ele>308.31113</ele>
        <time>2021-07-19T08:23:58Z</time>
      </trkpt>
      <trkpt lat="45.42372" lon="4.68869">
        <ele>308.54367</ele>
        <time>2021-07-19T08:23:59Z</time>
      </trkpt>
      <trkpt lat="45.4237" lon="4.68874">
        <ele>308.62823</ele>
        <time>2021-07-19T08:24:00Z</time>
      </trkpt>
      <trkpt lat="45.42367" lon="4.68879">
        <ele>308.86603</ele>
        <time>2021-07-19T08:24:01Z</time>
      </trkpt>
      <trkpt lat="45.42365" lon="4.68885">
        <ele>309.10385</ele>
        <time>2021-07-19T08:24:02Z</time>
      </trkpt>
      <trkpt lat="45.42363" lon="4.6889">
        <ele>309.2888</ele>
        <time>2021-07-19T08:24:03Z</time>
      </trkpt>
      <trkpt lat="45.42362" lon="4.68896">
        <ele>309.38394</ele>
        <time>2021-07-19T08:24:04Z</time>
      </trkpt>
      <trkpt lat="45.42362" lon="4.68901">
        <ele>309.56888</ele>
        <time>2021-07-19T08:24:05Z</time>
      </trkpt>
      <trkpt lat="45.42361" lon="4.68906">
        <ele>309.95468</ele>
        <time>2021-07-19T08:24:06Z</time>
      </trkpt>
      <trkpt lat="45.42362" lon="4.68912">
        <ele>310.0022</ele>
        <time>2021-07-19T08:24:07Z</time>
      </trkpt>
      <trkpt lat="45.42362" lon="4.68917">
        <ele>310.1132</ele>
        <time>2021-07-19T08:24:08Z</time>
      </trkpt>
      <trkpt lat="45.42362" lon="4.68922">
        <ele>310.44086</ele>
        <time>2021-07-19T08:24:09Z</time>
      </trkpt>
      <trkpt lat="45.42363" lon="4.68926">
        <ele>310.6681</ele>
        <time>2021-07-19T08:24:10Z</time>
      </trkpt>
      <trkpt lat="45.42363" lon="4.68931">
        <ele>310.86893</ele>
        <time>2021-07-19T08:24:11Z</time>
      </trkpt>
      <trkpt lat="45.42364" lon="4.68935">
        <ele>310.97986</ele>
        <time>2021-07-19T08:24:12Z</time>
      </trkpt>
      <trkpt lat="45.42365" lon="4.6894">
        <ele>311.33395</ele>
        <time>2021-07-19T08:24:13Z</time>
      </trkpt>
      <trkpt lat="45.42366" lon="4.68944">
        <ele>311.47662</ele>
        <time>2021-07-19T08:24:14Z</time>
      </trkpt>
      <trkpt lat="45.42366" lon="4.68948">
        <ele>311.7039</ele>
        <time>2021-07-19T08:24:15Z</time>
      </trkpt>
      <trkpt lat="45.42368" lon="4.68952">
        <ele>311.99982</ele>
        <time>2021-07-19T08:24:16Z</time>
      </trkpt>
      <trkpt lat="45.42369" lon="4.68957">
        <ele>312.2482</ele>
        <time>2021-07-19T08:24:17Z</time>
      </trkpt>
      <trkpt lat="45.4237" lon="4.68962">
        <ele>312.52298</ele>
        <time>2021-07-19T08:24:18Z</time>
      </trkpt>
      <trkpt lat="45.42371" lon="4.68966">
        <ele>312.78195</ele>
        <time>2021-07-19T08:24:19Z</time>
      </trkpt>
      <trkpt lat="45.42371" lon="4.68971">
        <ele>313.04092</ele>
        <time>2021-07-19T08:24:20Z</time>
      </trkpt>
      <trkpt lat="45.42371" lon="4.68975">
        <ele>313.25757</ele>
        <time>2021-07-19T08:24:21Z</time>
      </trkpt>
      <trkpt lat="45.42372" lon="4.68979">
        <ele>313.4161</ele>
        <time>2021-07-19T08:24:22Z</time>
      </trkpt>
      <trkpt lat="45.42373" lon="4.68983">
        <ele>313.68036</ele>
        <time>2021-07-19T08:24:23Z</time>
      </trkpt>
      <trkpt lat="45.42373" lon="4.68987">
        <ele>313.74905</ele>
        <time>2021-07-19T08:24:24Z</time>
      </trkpt>
      <trkpt lat="45.42374" lon="4.68991">
        <ele>313.94455</ele>
        <time>2021-07-19T08:24:25Z</time>
      </trkpt>
      <trkpt lat="45.42375" lon="4.68995">
        <ele>314.12952</ele>
        <time>2021-07-19T08:24:26Z</time>
      </trkpt>
      <trkpt lat="45.42376" lon="4.68999">
        <ele>314.2775</ele>
        <time>2021-07-19T08:24:27Z</time>
      </trkpt>
      <trkpt lat="45.42377" lon="4.69003">
        <ele>314.4836</ele>
        <time>2021-07-19T08:24:28Z</time>
      </trkpt>
      <trkpt lat="45.42378" lon="4.69007">
        <ele>314.60516</ele>
        <time>2021-07-19T08:24:29Z</time>
      </trkpt>
      <trkpt lat="45.42379" lon="4.69011">
        <ele>314.82184</ele>
        <time>2021-07-19T08:24:30Z</time>
      </trkpt>
      <trkpt lat="45.4238" lon="4.69015">
        <ele>314.9962</ele>
        <time>2021-07-19T08:24:31Z</time>
      </trkpt>
      <trkpt lat="45.42381" lon="4.69019">
        <ele>315.21286</ele>
        <time>2021-07-19T08:24:32Z</time>
      </trkpt>
      <trkpt lat="45.42382" lon="4.69023">
        <ele>315.38727</ele>
        <time>2021-07-19T08:24:33Z</time>
      </trkpt>
      <trkpt lat="45.42383" lon="4.69027">
        <ele>315.63565</ele>
        <time>2021-07-19T08:24:34Z</time>
      </trkpt>
      <trkpt lat="45.42384" lon="4.6903">
        <ele>315.81006</ele>
        <time>2021-07-19T08:24:35Z</time>
      </trkpt>
      <trkpt lat="45.42386" lon="4.69033">
        <ele>315.85757</ele>
        <time>2021-07-19T08:24:36Z</time>
      </trkpt>
      <trkpt lat="45.42387" lon="4.69037">
        <ele>315.97916</ele>
        <time>2021-07-19T08:24:37Z</time>
      </trkpt>
      <trkpt lat="45.42389" lon="4.69042">
        <ele>316.3015</ele>
        <time>2021-07-19T08:24:38Z</time>
      </trkpt>
      <trkpt lat="45.42391" lon="4.69048">
        <ele>316.5182</ele>
        <time>2021-07-19T08:24:39Z</time>
      </trkpt>
      <trkpt lat="45.42393" lon="4.69053">
        <ele>316.8194</ele>
        <time>2021-07-19T08:24:40Z</time>
      </trkpt>
      <trkpt lat="45.42394" lon="4.69058">
        <ele>316.98322</ele>
        <time>2021-07-19T08:24:41Z</time>
      </trkpt>
      <trkpt lat="45.42395" lon="4.69063">
        <ele>317.2633</ele>
        <time>2021-07-19T08:24:42Z</time>
      </trkpt>
      <trkpt lat="45.42395" lon="4.69068">
        <ele>317.42715</ele>
        <time>2021-07-19T08:24:43Z</time>
      </trkpt>
      <trkpt lat="45.42395" lon="4.69073">
        <ele>317.71252</ele>
        <time>2021-07-19T08:24:44Z</time>
      </trkpt>
      <trkpt lat="45.42395" lon="4.69078">
        <ele>318.04547</ele>
        <time>2021-07-19T08:24:45Z</time>
      </trkpt>
      <trkpt lat="45.42394" lon="4.69084">
        <ele>318.13528</ele>
        <time>2021-07-19T08:24:46Z</time>
      </trkpt>
      <trkpt lat="45.42394" lon="4.69088">
        <ele>318.32556</ele>
        <time>2021-07-19T08:24:47Z</time>
      </trkpt>
      <trkpt lat="45.42393" lon="4.69093">
        <ele>318.53693</ele>
        <time>2021-07-19T08:24:48Z</time>
      </trkpt>
      <trkpt lat="45.42392" lon="4.69098">
        <ele>318.6215</ele>
        <time>2021-07-19T08:24:49Z</time>
      </trkpt>
      <trkpt lat="45.42391" lon="4.69102">
        <ele>319.09708</ele>
        <time>2021-07-19T08:24:50Z</time>
      </trkpt>
      <trkpt lat="45.4239" lon="4.69106">
        <ele>319.17636</ele>
        <time>2021-07-19T08:24:51Z</time>
      </trkpt>
      <trkpt lat="45.42389" lon="4.6911">
        <ele>319.45114</ele>
        <time>2021-07-19T08:24:52Z</time>
      </trkpt>
      <trkpt lat="45.42387" lon="4.69116">
        <ele>319.65198</ele>
        <time>2021-07-19T08:24:53Z</time>
      </trkpt>
      <trkpt lat="45.42386" lon="4.69121">
        <ele>319.79465</ele>
        <time>2021-07-19T08:24:54Z</time>
      </trkpt>
      <trkpt lat="45.42385" lon="4.69126">
        <ele>320.1699</ele>
        <time>2021-07-19T08:24:55Z</time>
      </trkpt>
      <trkpt lat="45.42384" lon="4.69131">
        <ele>320.33368</ele>
        <time>2021-07-19T08:24:56Z</time>
      </trkpt>
      <trkpt lat="45.42382" lon="4.69137">
        <ele>320.5821</ele>
        <time>2021-07-19T08:24:57Z</time>
      </trkpt>
      <trkpt lat="45.42381" lon="4.69142">
        <ele>320.7723</ele>
        <time>2021-07-19T08:24:58Z</time>
      </trkpt>
      <trkpt lat="45.4238" lon="4.69147">
        <ele>320.99954</ele>
        <time>2021-07-19T08:24:59Z</time>
      </trkpt>
      <trkpt lat="45.42379" lon="4.69152">
        <ele>321.28494</ele>
        <time>2021-07-19T08:25:00Z</time>
      </trkpt>
      <trkpt lat="45.42378" lon="4.69157">
        <ele>321.51746</ele>
        <time>2021-07-19T08:25:01Z</time>
      </trkpt>
      <trkpt lat="45.42377" lon="4.69162">
        <ele>321.64957</ele>
        <time>2021-07-19T08:25:02Z</time>
      </trkpt>
      <trkpt lat="45.42375" lon="4.69167">
        <ele>321.787</ele>
        <time>2021-07-19T08:25:03Z</time>
      </trkpt>
      <trkpt lat="45.42374" lon="4.69173">
        <ele>322.16217</ele>
        <time>2021-07-19T08:25:04Z</time>
      </trkpt>
      <trkpt lat="45.42373" lon="4.69178">
        <ele>322.35245</ele>
        <time>2021-07-19T08:25:05Z</time>
      </trkpt>
      <trkpt lat="45.42371" lon="4.69182">
        <ele>322.63782</ele>
        <time>2021-07-19T08:25:06Z</time>
      </trkpt>
      <trkpt lat="45.4237" lon="4.69187">
        <ele>322.8016</ele>
        <time>2021-07-19T08:25:07Z</time>
      </trkpt>
      <trkpt lat="45.42368" lon="4.69192">
        <ele>323.01828</ele>
        <time>2021-07-19T08:25:08Z</time>
      </trkpt>
      <trkpt lat="45.42366" lon="4.69196">
        <ele>323.2878</ele>
        <time>2021-07-19T08:25:09Z</time>
      </trkpt>
      <trkpt lat="45.42364" lon="4.69201">
        <ele>323.52032</ele>
        <time>2021-07-19T08:25:10Z</time>
      </trkpt>
      <trkpt lat="45.42362" lon="4.69206">
        <ele>323.74756</ele>
        <time>2021-07-19T08:25:11Z</time>
      </trkpt>
      <trkpt lat="45.4236" lon="4.6921">
        <ele>324.1122</ele>
        <time>2021-07-19T08:25:12Z</time>
      </trkpt>
      <trkpt lat="45.42358" lon="4.69214">
        <ele>324.12808</ele>
        <time>2021-07-19T08:25:13Z</time>
      </trkpt>
      <trkpt lat="45.42356" lon="4.69218">
        <ele>324.30774</ele>
        <time>2021-07-19T08:25:14Z</time>
      </trkpt>
      <trkpt lat="45.42353" lon="4.69222">
        <ele>324.461</ele>
        <time>2021-07-19T08:25:15Z</time>
      </trkpt>
      <trkpt lat="45.42352" lon="4.69225">
        <ele>324.61954</ele>
        <time>2021-07-19T08:25:16Z</time>
      </trkpt>
      <trkpt lat="45.42349" lon="4.69228">
        <ele>324.75168</ele>
        <time>2021-07-19T08:25:17Z</time>
      </trkpt>
      <trkpt lat="45.42347" lon="4.69231">
        <ele>324.9049</ele>
        <time>2021-07-19T08:25:18Z</time>
      </trkpt>
      <trkpt lat="45.42344" lon="4.69234">
        <ele>325.12158</ele>
        <time>2021-07-19T08:25:19Z</time>
      </trkpt>
      <trkpt lat="45.42342" lon="4.69236">
        <ele>325.38052</ele>
        <time>2021-07-19T08:25:20Z</time>
      </trkpt>
      <trkpt lat="45.42339" lon="4.69239">
        <ele>325.54962</ele>
        <time>2021-07-19T08:25:21Z</time>
      </trkpt>
      <trkpt lat="45.42337" lon="4.69241">
        <ele>325.81915</ele>
        <time>2021-07-19T08:25:22Z</time>
      </trkpt>
      <trkpt lat="45.42334" lon="4.69243">
        <ele>326.08868</ele>
        <time>2021-07-19T08:25:23Z</time>
      </trkpt>
      <trkpt lat="45.42331" lon="4.69245">
        <ele>326.5009</ele>
        <time>2021-07-19T08:25:24Z</time>
      </trkpt>
      <trkpt lat="45.42328" lon="4.69247">
        <ele>326.75452</ele>
        <time>2021-07-19T08:25:25Z</time>
      </trkpt>
      <trkpt lat="45.42325" lon="4.69248">
        <ele>327.0346</ele>
        <time>2021-07-19T08:25:26Z</time>
      </trkpt>
      <trkpt lat="45.42322" lon="4.6925">
        <ele>327.22488</ele>
        <time>2021-07-19T08:25:27Z</time>
      </trkpt>
      <trkpt lat="45.4232" lon="4.69251">
        <ele>327.3781</ele>
        <time>2021-07-19T08:25:28Z</time>
      </trkpt>
      <trkpt lat="45.42316" lon="4.69252">
        <ele>327.6371</ele>
        <time>2021-07-19T08:25:29Z</time>
      </trkpt>
      <trkpt lat="45.42314" lon="4.69253">
        <ele>327.95413</ele>
        <time>2021-07-19T08:25:30Z</time>
      </trkpt>
      <trkpt lat="45.42311" lon="4.69254">
        <ele>328.22366</ele>
        <time>2021-07-19T08:25:31Z</time>
      </trkpt>
      <trkpt lat="45.42308" lon="4.69255">
        <ele>328.54605</ele>
        <time>2021-07-19T08:25:32Z</time>
      </trkpt>
      <trkpt lat="45.42305" lon="4.69256">
        <ele>328.7257</ele>
        <time>2021-07-19T08:25:33Z</time>
      </trkpt>
      <trkpt lat="45.42302" lon="4.69256">
        <ele>328.9688</ele>
        <time>2021-07-19T08:25:34Z</time>
      </trkpt>
      <trkpt lat="45.42299" lon="4.69256">
        <ele>329.22772</ele>
        <time>2021-07-19T08:25:35Z</time>
      </trkpt>
      <trkpt lat="45.42296" lon="4.69257">
        <ele>329.39685</ele>
        <time>2021-07-19T08:25:36Z</time>
      </trkpt>
      <trkpt lat="45.42292" lon="4.69256">
        <ele>329.8672</ele>
        <time>2021-07-19T08:25:37Z</time>
      </trkpt>
      <trkpt lat="45.42289" lon="4.69256">
        <ele>329.88834</ele>
        <time>2021-07-19T08:25:38Z</time>
      </trkpt>
      <trkpt lat="45.42285" lon="4.69256">
        <ele>330.068</ele>
        <time>2021-07-19T08:25:39Z</time>
      </trkpt>
      <trkpt lat="45.42283" lon="4.69256">
        <ele>330.3428</ele>
        <time>2021-07-19T08:25:40Z</time>
      </trkpt>
      <trkpt lat="45.42279" lon="4.69257">
        <ele>330.49075</ele>
        <time>2021-07-19T08:25:41Z</time>
      </trkpt>
      <trkpt lat="45.42276" lon="4.69257">
        <ele>330.70743</ele>
        <time>2021-07-19T08:25:42Z</time>
      </trkpt>
      <trkpt lat="45.42272" lon="4.69256">
        <ele>331.00336</ele>
        <time>2021-07-19T08:25:43Z</time>
      </trkpt>
      <trkpt lat="45.42268" lon="4.69256">
        <ele>331.25177</ele>
        <time>2021-07-19T08:25:44Z</time>
      </trkpt>
      <trkpt lat="45.42265" lon="4.69256">
        <ele>331.43674</ele>
        <time>2021-07-19T08:25:45Z</time>
      </trkpt>
      <trkpt lat="45.42262" lon="4.69256">
        <ele>331.83835</ele>
        <time>2021-07-19T08:25:46Z</time>
      </trkpt>
      <trkpt lat="45.42259" lon="4.69256">
        <ele>331.9335</ele>
        <time>2021-07-19T08:25:47Z</time>
      </trkpt>
      <trkpt lat="45.42255" lon="4.69255">
        <ele>332.12372</ele>
        <time>2021-07-19T08:25:48Z</time>
      </trkpt>
      <trkpt lat="45.42251" lon="4.69255">
        <ele>332.3351</ele>
        <time>2021-07-19T08:25:49Z</time>
      </trkpt>
      <trkpt lat="45.42248" lon="4.69255">
        <ele>332.4725</ele>
        <time>2021-07-19T08:25:50Z</time>
      </trkpt>
      <trkpt lat="45.42245" lon="4.69255">
        <ele>332.68918</ele>
        <time>2021-07-19T08:25:51Z</time>
      </trkpt>
      <trkpt lat="45.42242" lon="4.69255">
        <ele>332.95868</ele>
        <time>2021-07-19T08:25:52Z</time>
      </trkpt>
      <trkpt lat="45.42239" lon="4.69254">
        <ele>333.14368</ele>
        <time>2021-07-19T08:25:53Z</time>
      </trkpt>
      <trkpt lat="45.42236" lon="4.69253">
        <ele>333.35504</ele>
        <time>2021-07-19T08:25:54Z</time>
      </trkpt>
      <trkpt lat="45.42234" lon="4.69252">
        <ele>333.48718</ele>
        <time>2021-07-19T08:25:55Z</time>
      </trkpt>
      <trkpt lat="45.4223" lon="4.69251">
        <ele>333.71442</ele>
        <time>2021-07-19T08:25:56Z</time>
      </trkpt>
      <trkpt lat="45.42228" lon="4.6925">
        <ele>333.88348</ele>
        <time>2021-07-19T08:25:57Z</time>
      </trkpt>
      <trkpt lat="45.42225" lon="4.69249">
        <ele>334.07376</ele>
        <time>2021-07-19T08:25:58Z</time>
      </trkpt>
      <trkpt lat="45.42222" lon="4.69247">
        <ele>334.39615</ele>
        <time>2021-07-19T08:25:59Z</time>
      </trkpt>
      <trkpt lat="45.42218" lon="4.69244">
        <ele>334.50708</ele>
        <time>2021-07-19T08:26:00Z</time>
      </trkpt>
      <trkpt lat="45.42216" lon="4.69242">
        <ele>334.72903</ele>
        <time>2021-07-19T08:26:01Z</time>
      </trkpt>
      <trkpt lat="45.42213" lon="4.6924">
        <ele>334.99857</ele>
        <time>2021-07-19T08:26:02Z</time>
      </trkpt>
      <trkpt lat="45.4221" lon="4.69237">
        <ele>335.28394</ele>
        <time>2021-07-19T08:26:03Z</time>
      </trkpt>
      <trkpt lat="45.42208" lon="4.69233">
        <ele>335.6116</ele>
        <time>2021-07-19T08:26:04Z</time>
      </trkpt>
      <trkpt lat="45.42205" lon="4.69229">
        <ele>335.69614</ele>
        <time>2021-07-19T08:26:05Z</time>
      </trkpt>
      <trkpt lat="45.42203" lon="4.69225">
        <ele>336.01324</ele>
        <time>2021-07-19T08:26:06Z</time>
      </trkpt>
      <trkpt lat="45.42201" lon="4.69221">
        <ele>336.2986</ele>
        <time>2021-07-19T08:26:07Z</time>
      </trkpt>
      <trkpt lat="45.42199" lon="4.69217">
        <ele>336.399</ele>
        <time>2021-07-19T08:26:08Z</time>
      </trkpt>
      <trkpt lat="45.42198" lon="4.69213">
        <ele>336.4677</ele>
        <time>2021-07-19T08:26:09Z</time>
      </trkpt>
      <trkpt lat="45.42196" lon="4.69209">
        <ele>336.70023</ele>
        <time>2021-07-19T08:26:10Z</time>
      </trkpt>
      <trkpt lat="45.42195" lon="4.69205">
        <ele>337.04373</ele>
        <time>2021-07-19T08:26:11Z</time>
      </trkpt>
      <trkpt lat="45.42194" lon="4.69201">
        <ele>337.21814</ele>
        <time>2021-07-19T08:26:12Z</time>
      </trkpt>
      <trkpt lat="45.42193" lon="4.69196">
        <ele>337.3978</ele>
        <time>2021-07-19T08:26:13Z</time>
      </trkpt>
      <trkpt lat="45.42193" lon="4.69191">
        <ele>337.4612</ele>
        <time>2021-07-19T08:26:14Z</time>
      </trkpt>
      <trkpt lat="45.42192" lon="4.69186">
        <ele>337.69373</ele>
        <time>2021-07-19T08:26:15Z</time>
      </trkpt>
      <trkpt lat="45.42191" lon="4.69182">
        <ele>337.86285</ele>
        <time>2021-07-19T08:26:16Z</time>
      </trkpt>
      <trkpt lat="45.4219" lon="4.69177">
        <ele>337.95798</ele>
        <time>2021-07-19T08:26:17Z</time>
      </trkpt>
      <trkpt lat="45.4219" lon="4.69172">
        <ele>338.24863</ele>
        <time>2021-07-19T08:26:18Z</time>
      </trkpt>
      <trkpt lat="45.42189" lon="4.69166">
        <ele>338.37018</ele>
        <time>2021-07-19T08:26:19Z</time>
      </trkpt>
      <trkpt lat="45.42189" lon="4.69161">
        <ele>338.47055</ele>
        <time>2021-07-19T08:26:20Z</time>
      </trkpt>
      <trkpt lat="45.42188" lon="4.69156">
        <ele>338.58154</ele>
        <time>2021-07-19T08:26:21Z</time>
      </trkpt>
      <trkpt lat="45.42188" lon="4.69151">
        <ele>338.67667</ele>
        <time>2021-07-19T08:26:22Z</time>
      </trkpt>
      <trkpt lat="45.42187" lon="4.69146">
        <ele>338.95148</ele>
        <time>2021-07-19T08:26:23Z</time>
      </trkpt>
      <trkpt lat="45.42186" lon="4.69141">
        <ele>339.18402</ele>
        <time>2021-07-19T08:26:24Z</time>
      </trkpt>
      <trkpt lat="45.42185" lon="4.69136">
        <ele>339.37424</ele>
        <time>2021-07-19T08:26:25Z</time>
      </trkpt>
      <trkpt lat="45.42184" lon="4.69131">
        <ele>339.4958</ele>
        <time>2021-07-19T08:26:26Z</time>
      </trkpt>
      <trkpt lat="45.42183" lon="4.69126">
        <ele>339.64905</ele>
        <time>2021-07-19T08:26:27Z</time>
      </trkpt>
      <trkpt lat="45.42182" lon="4.69121">
        <ele>339.73358</ele>
        <time>2021-07-19T08:26:28Z</time>
      </trkpt>
      <trkpt lat="45.4218" lon="4.69117">
        <ele>339.95026</ele>
        <time>2021-07-19T08:26:29Z</time>
      </trkpt>
      <trkpt lat="45.42178" lon="4.69112">
        <ele>339.99255</ele>
        <time>2021-07-19T08:26:30Z</time>
      </trkpt>
      <trkpt lat="45.42175" lon="4.69108">
        <ele>339.99255</ele>
        <time>2021-07-19T08:26:31Z</time>
      </trkpt>
      <trkpt lat="45.42173" lon="4.69104">
        <ele>340.09296</ele>
        <time>2021-07-19T08:26:32Z</time>
      </trkpt>
      <trkpt lat="45.42169" lon="4.69101">
        <ele>340.22507</ele>
        <time>2021-07-19T08:26:33Z</time>
      </trkpt>
      <trkpt lat="45.42166" lon="4.69099">
        <ele>340.3255</ele>
        <time>2021-07-19T08:26:34Z</time>
      </trkpt>
      <trkpt lat="45.42164" lon="4.69097">
        <ele>340.48932</ele>
        <time>2021-07-19T08:26:35Z</time>
      </trkpt>
      <trkpt lat="45.42161" lon="4.69095">
        <ele>340.6003</ele>
        <time>2021-07-19T08:26:36Z</time>
      </trkpt>
      <trkpt lat="45.42158" lon="4.69093">
        <ele>340.71655</ele>
        <time>2021-07-19T08:26:37Z</time>
      </trkpt>
      <trkpt lat="45.42154" lon="4.69092">
        <ele>340.95966</ele>
        <time>2021-07-19T08:26:38Z</time>
      </trkpt>
      <trkpt lat="45.4215" lon="4.69092">
        <ele>341.13403</ele>
        <time>2021-07-19T08:26:39Z</time>
      </trkpt>
      <trkpt lat="45.42146" lon="4.69091">
        <ele>341.23975</ele>
        <time>2021-07-19T08:26:40Z</time>
      </trkpt>
      <trkpt lat="45.42142" lon="4.69091">
        <ele>341.36127</ele>
        <time>2021-07-19T08:26:41Z</time>
      </trkpt>
      <trkpt lat="45.42138" lon="4.6909">
        <ele>341.52512</ele>
        <time>2021-07-19T08:26:42Z</time>
      </trkpt>
      <trkpt lat="45.42134" lon="4.69089">
        <ele>341.6625</ele>
        <time>2021-07-19T08:26:43Z</time>
      </trkpt>
      <trkpt lat="45.4213" lon="4.69088">
        <ele>341.78934</ele>
        <time>2021-07-19T08:26:44Z</time>
      </trkpt>
      <trkpt lat="45.42127" lon="4.69086">
        <ele>342.03772</ele>
        <time>2021-07-19T08:26:45Z</time>
      </trkpt>
      <trkpt lat="45.42123" lon="4.69085">
        <ele>342.11697</ele>
        <time>2021-07-19T08:26:46Z</time>
      </trkpt>
      <trkpt lat="45.42119" lon="4.69083">
        <ele>342.0694</ele>
        <time>2021-07-19T08:26:47Z</time>
      </trkpt>
      <trkpt lat="45.42115" lon="4.69082">
        <ele>342.30194</ele>
        <time>2021-07-19T08:26:48Z</time>
      </trkpt>
      <trkpt lat="45.42111" lon="4.6908">
        <ele>342.37064</ele>
        <time>2021-07-19T08:26:49Z</time>
      </trkpt>
      <trkpt lat="45.42107" lon="4.69079">
        <ele>342.43408</ele>
        <time>2021-07-19T08:26:50Z</time>
      </trkpt>
      <trkpt lat="45.42103" lon="4.69077">
        <ele>342.4975</ele>
        <time>2021-07-19T08:26:51Z</time>
      </trkpt>
      <trkpt lat="45.421" lon="4.69077">
        <ele>342.9044</ele>
        <time>2021-07-19T08:26:52Z</time>
      </trkpt>
      <trkpt lat="45.42096" lon="4.69076">
        <ele>342.77225</ele>
        <time>2021-07-19T08:26:53Z</time>
      </trkpt>
      <trkpt lat="45.42093" lon="4.69075">
        <ele>342.94666</ele>
        <time>2021-07-19T08:26:54Z</time>
      </trkpt>
      <trkpt lat="45.42089" lon="4.69074">
        <ele>343.08408</ele>
        <time>2021-07-19T08:26:55Z</time>
      </trkpt>
      <trkpt lat="45.42084" lon="4.69073">
        <ele>343.3377</ele>
        <time>2021-07-19T08:26:56Z</time>
      </trkpt>
      <trkpt lat="45.4208" lon="4.69072">
        <ele>343.50156</ele>
        <time>2021-07-19T08:26:57Z</time>
      </trkpt>
      <trkpt lat="45.42077" lon="4.69071">
        <ele>343.52798</ele>
        <time>2021-07-19T08:26:58Z</time>
      </trkpt>
      <trkpt lat="45.42073" lon="4.6907">
        <ele>343.78165</ele>
        <time>2021-07-19T08:26:59Z</time>
      </trkpt>
      <trkpt lat="45.42069" lon="4.69069">
        <ele>343.8926</ele>
        <time>2021-07-19T08:27:00Z</time>
      </trkpt>
      <trkpt lat="45.42064" lon="4.69066">
        <ele>343.90848</ele>
        <time>2021-07-19T08:27:01Z</time>
      </trkpt>
      <trkpt lat="45.42059" lon="4.69064">
        <ele>344.17798</ele>
        <time>2021-07-19T08:27:02Z</time>
      </trkpt>
      <trkpt lat="45.42055" lon="4.69063">
        <ele>344.26785</ele>
        <time>2021-07-19T08:27:03Z</time>
      </trkpt>
      <trkpt lat="45.42051" lon="4.6906">
        <ele>344.3524</ele>
        <time>2021-07-19T08:27:04Z</time>
      </trkpt>
      <trkpt lat="45.42046" lon="4.69057">
        <ele>344.56378</ele>
        <time>2021-07-19T08:27:05Z</time>
      </trkpt>
      <trkpt lat="45.42042" lon="4.69055">
        <ele>344.80685</ele>
        <time>2021-07-19T08:27:06Z</time>
      </trkpt>
      <trkpt lat="45.42039" lon="4.69052">
        <ele>344.94424</ele>
        <time>2021-07-19T08:27:07Z</time>
      </trkpt>
      <trkpt lat="45.42035" lon="4.69049">
        <ele>345.08167</ele>
        <time>2021-07-19T08:27:08Z</time>
      </trkpt>
      <trkpt lat="45.42035" lon="4.69047">
        <ele>345.07108</ele>
        <time>2021-07-19T08:27:09Z</time>
      </trkpt>
      <trkpt lat="45.42034" lon="4.69046">
        <ele>345.0764</ele>
        <time>2021-07-19T08:27:10Z</time>
      </trkpt>
      <trkpt lat="45.42033" lon="4.69045">
        <ele>345.1398</ele>
        <time>2021-07-19T08:27:11Z</time>
      </trkpt>
      <trkpt lat="45.42033" lon="4.69044">
        <ele>345.3459</ele>
        <time>2021-07-19T08:27:12Z</time>
      </trkpt>
      <trkpt lat="45.42032" lon="4.69041">
        <ele>345.63126</ele>
        <time>2021-07-19T08:27:13Z</time>
      </trkpt>
      <trkpt lat="45.4203" lon="4.69039">
        <ele>345.66296</ele>
        <time>2021-07-19T08:27:14Z</time>
      </trkpt>
      <trkpt lat="45.4203" lon="4.69036">
        <ele>345.7898</ele>
        <time>2021-07-19T08:27:15Z</time>
      </trkpt>
      <trkpt lat="45.42029" lon="4.69034">
        <ele>345.9959</ele>
        <time>2021-07-19T08:27:16Z</time>
      </trkpt>
      <trkpt lat="45.42028" lon="4.6903">
        <ele>346.18088</ele>
        <time>2021-07-19T08:27:17Z</time>
      </trkpt>
      <trkpt lat="45.42027" lon="4.69026">
        <ele>346.39755</ele>
        <time>2021-07-19T08:27:18Z</time>
      </trkpt>
      <trkpt lat="45.42026" lon="4.69022">
        <ele>346.7992</ele>
        <time>2021-07-19T08:27:19Z</time>
      </trkpt>
      <trkpt lat="45.42026" lon="4.69016">
        <ele>347.07394</ele>
        <time>2021-07-19T08:27:20Z</time>
      </trkpt>
      <trkpt lat="45.42025" lon="4.69011">
        <ele>347.39633</ele>
        <time>2021-07-19T08:27:21Z</time>
      </trkpt>
      <trkpt lat="45.42025" lon="4.69006">
        <ele>347.68698</ele>
        <time>2021-07-19T08:27:22Z</time>
      </trkpt>
      <trkpt lat="45.42025" lon="4.69001">
        <ele>347.7927</ele>
        <time>2021-07-19T08:27:23Z</time>
      </trkpt>
      <trkpt lat="45.42025" lon="4.68996">
        <ele>348.14676</ele>
        <time>2021-07-19T08:27:24Z</time>
      </trkpt>
      <trkpt lat="45.42025" lon="4.68991">
        <ele>348.263</ele>
        <time>2021-07-19T08:27:25Z</time>
      </trkpt>
      <trkpt lat="45.42025" lon="4.68987">
        <ele>348.57483</ele>
        <time>2021-07-19T08:27:26Z</time>
      </trkpt>
      <trkpt lat="45.42026" lon="4.68983">
        <ele>348.66464</ele>
        <time>2021-07-19T08:27:27Z</time>
      </trkpt>
      <trkpt lat="45.42026" lon="4.68978">
        <ele>348.77036</ele>
        <time>2021-07-19T08:27:28Z</time>
      </trkpt>
      <trkpt lat="45.42026" lon="4.68973">
        <ele>348.9976</ele>
        <time>2021-07-19T08:27:29Z</time>
      </trkpt>
      <trkpt lat="45.42026" lon="4.68968">
        <ele>349.22482</ele>
        <time>2021-07-19T08:27:30Z</time>
      </trkpt>
      <trkpt lat="45.42026" lon="4.68963">
        <ele>349.4045</ele>
        <time>2021-07-19T08:27:31Z</time>
      </trkpt>
      <trkpt lat="45.42026" lon="4.68959">
        <ele>349.711</ele>
        <time>2021-07-19T08:27:32Z</time>
      </trkpt>
      <trkpt lat="45.42026" lon="4.68954">
        <ele>350.11264</ele>
        <time>2021-07-19T08:27:33Z</time>
      </trkpt>
      <trkpt lat="45.42026" lon="4.68949">
        <ele>350.31876</ele>
        <time>2021-07-19T08:27:34Z</time>
      </trkpt>
      <trkpt lat="45.42026" lon="4.68945">
        <ele>350.56183</ele>
        <time>2021-07-19T08:27:35Z</time>
      </trkpt>
      <trkpt lat="45.42026" lon="4.6894">
        <ele>350.6675</ele>
        <time>2021-07-19T08:27:36Z</time>
      </trkpt>
      <trkpt lat="45.42026" lon="4.68937">
        <ele>351.0797</ele>
        <time>2021-07-19T08:27:37Z</time>
      </trkpt>
      <trkpt lat="45.42026" lon="4.68933">
        <ele>351.2224</ele>
        <time>2021-07-19T08:27:38Z</time>
      </trkpt>
      <trkpt lat="45.42025" lon="4.68929">
        <ele>351.4444</ele>
        <time>2021-07-19T08:27:39Z</time>
      </trkpt>
      <trkpt lat="45.42025" lon="4.68924">
        <ele>351.56592</ele>
        <time>2021-07-19T08:27:40Z</time>
      </trkpt>
      <trkpt lat="45.42025" lon="4.6892">
        <ele>351.66632</ele>
        <time>2021-07-19T08:27:41Z</time>
      </trkpt>
      <trkpt lat="45.42025" lon="4.68916">
        <ele>352.1948</ele>
        <time>2021-07-19T08:27:42Z</time>
      </trkpt>
      <trkpt lat="45.42025" lon="4.68912">
        <ele>352.6017</ele>
        <time>2021-07-19T08:27:43Z</time>
      </trkpt>
      <trkpt lat="45.42026" lon="4.68907">
        <ele>352.72327</ele>
        <time>2021-07-19T08:27:44Z</time>
      </trkpt>
      <trkpt lat="45.42025" lon="4.68904">
        <ele>352.81308</ele>
        <time>2021-07-19T08:27:45Z</time>
      </trkpt>
      <trkpt lat="45.42025" lon="4.689">
        <ele>352.80252</ele>
        <time>2021-07-19T08:27:46Z</time>
      </trkpt>
      <trkpt lat="45.42025" lon="4.68896">
        <ele>352.8395</ele>
        <time>2021-07-19T08:27:47Z</time>
      </trkpt>
      <trkpt lat="45.42025" lon="4.68892">
        <ele>353.183</ele>
        <time>2021-07-19T08:27:48Z</time>
      </trkpt>
      <trkpt lat="45.42025" lon="4.68887">
        <ele>353.54236</ele>
        <time>2021-07-19T08:27:49Z</time>
      </trkpt>
      <trkpt lat="45.42024" lon="4.68882">
        <ele>353.7643</ele>
        <time>2021-07-19T08:27:50Z</time>
      </trkpt>
      <trkpt lat="45.42024" lon="4.68876">
        <ele>353.88058</ele>
        <time>2021-07-19T08:27:51Z</time>
      </trkpt>
      <trkpt lat="45.42024" lon="4.68871">
        <ele>354.09198</ele>
        <time>2021-07-19T08:27:52Z</time>
      </trkpt>
      <trkpt lat="45.42024" lon="4.68866">
        <ele>354.35092</ele>
        <time>2021-07-19T08:27:53Z</time>
      </trkpt>
      <trkpt lat="45.42024" lon="4.68861">
        <ele>354.594</ele>
        <time>2021-07-19T08:27:54Z</time>
      </trkpt>
      <trkpt lat="45.42024" lon="4.68856">
        <ele>354.7737</ele>
        <time>2021-07-19T08:27:55Z</time>
      </trkpt>
      <trkpt lat="45.42023" lon="4.68851">
        <ele>355.12778</ele>
        <time>2021-07-19T08:27:56Z</time>
      </trkpt>
      <trkpt lat="45.42023" lon="4.68847">
        <ele>355.30743</ele>
        <time>2021-07-19T08:27:57Z</time>
      </trkpt>
      <trkpt lat="45.42022" lon="4.68844">
        <ele>355.5294</ele>
        <time>2021-07-19T08:27:58Z</time>
      </trkpt>
      <trkpt lat="45.42021" lon="4.68839">
        <ele>355.69324</ele>
        <time>2021-07-19T08:27:59Z</time>
      </trkpt>
      <trkpt lat="45.4202" lon="4.68834">
        <ele>355.7672</ele>
        <time>2021-07-19T08:28:00Z</time>
      </trkpt>
      <trkpt lat="45.42019" lon="4.68829">
        <ele>355.99445</ele>
        <time>2021-07-19T08:28:01Z</time>
      </trkpt>
      <trkpt lat="45.42019" lon="4.68825">
        <ele>356.2481</ele>
        <time>2021-07-19T08:28:02Z</time>
      </trkpt>
      <trkpt lat="45.42019" lon="4.6882">
        <ele>356.51764</ele>
        <time>2021-07-19T08:28:03Z</time>
      </trkpt>
      <trkpt lat="45.42017" lon="4.68815">
        <ele>356.6973</ele>
        <time>2021-07-19T08:28:04Z</time>
      </trkpt>
      <trkpt lat="45.42017" lon="4.6881">
        <ele>356.85056</ele>
        <time>2021-07-19T08:28:05Z</time>
      </trkpt>
      <trkpt lat="45.42016" lon="4.68806">
        <ele>357.13593</ele>
        <time>2021-07-19T08:28:06Z</time>
      </trkpt>
      <trkpt lat="45.42015" lon="4.68802">
        <ele>357.6644</ele>
        <time>2021-07-19T08:28:07Z</time>
      </trkpt>
      <trkpt lat="45.42014" lon="4.68797">
        <ele>357.7965</ele>
        <time>2021-07-19T08:28:08Z</time>
      </trkpt>
      <trkpt lat="45.42013" lon="4.68793">
        <ele>357.9233</ele>
        <time>2021-07-19T08:28:09Z</time>
      </trkpt>
      <trkpt lat="45.42012" lon="4.68789">
        <ele>358.02374</ele>
        <time>2021-07-19T08:28:10Z</time>
      </trkpt>
      <trkpt lat="45.42011" lon="4.68784">
        <ele>358.2668</ele>
        <time>2021-07-19T08:28:11Z</time>
      </trkpt>
      <trkpt lat="45.4201" lon="4.6878">
        <ele>358.50467</ele>
        <time>2021-07-19T08:28:12Z</time>
      </trkpt>
      <trkpt lat="45.42009" lon="4.68775">
        <ele>358.6315</ele>
        <time>2021-07-19T08:28:13Z</time>
      </trkpt>
      <trkpt lat="45.42009" lon="4.68771">
        <ele>358.92215</ele>
        <time>2021-07-19T08:28:14Z</time>
      </trkpt>
      <trkpt lat="45.42007" lon="4.68767">
        <ele>359.17578</ele>
        <time>2021-07-19T08:28:15Z</time>
      </trkpt>
      <trkpt lat="45.42007" lon="4.68762">
        <ele>359.25504</ele>
        <time>2021-07-19T08:28:16Z</time>
      </trkpt>
      <trkpt lat="45.42006" lon="4.68758">
        <ele>359.31848</ele>
        <time>2021-07-19T08:28:17Z</time>
      </trkpt>
      <trkpt lat="45.42005" lon="4.68754">
        <ele>359.35547</ele>
        <time>2021-07-19T08:28:18Z</time>
      </trkpt>
      <trkpt lat="45.42004" lon="4.6875">
        <ele>359.5827</ele>
        <time>2021-07-19T08:28:19Z</time>
      </trkpt>
      <trkpt lat="45.42003" lon="4.68745">
        <ele>359.78354</ele>
        <time>2021-07-19T08:28:20Z</time>
      </trkpt>
      <trkpt lat="45.42002" lon="4.6874">
        <ele>360.01605</ele>
        <time>2021-07-19T08:28:21Z</time>
      </trkpt>
      <trkpt lat="45.42001" lon="4.68736">
        <ele>360.09003</ele>
        <time>2021-07-19T08:28:22Z</time>
      </trkpt>
      <trkpt lat="45.42001" lon="4.68731">
        <ele>360.29614</ele>
        <time>2021-07-19T08:28:23Z</time>
      </trkpt>
      <trkpt lat="45.42" lon="4.68726">
        <ele>360.57623</ele>
        <time>2021-07-19T08:28:24Z</time>
      </trkpt>
      <trkpt lat="45.41999" lon="4.68721">
        <ele>360.63965</ele>
        <time>2021-07-19T08:28:25Z</time>
      </trkpt>
      <trkpt lat="45.41997" lon="4.68718">
        <ele>360.86157</ele>
        <time>2021-07-19T08:28:26Z</time>
      </trkpt>
      <trkpt lat="45.41996" lon="4.68714">
        <ele>361.05185</ele>
        <time>2021-07-19T08:28:27Z</time>
      </trkpt>
      <trkpt lat="45.41995" lon="4.68709">
        <ele>361.2104</ele>
        <time>2021-07-19T08:28:28Z</time>
      </trkpt>
      <trkpt lat="45.41994" lon="4.68705">
        <ele>361.4429</ele>
        <time>2021-07-19T08:28:29Z</time>
      </trkpt>
      <trkpt lat="45.41995" lon="4.687">
        <ele>361.4376</ele>
        <time>2021-07-19T08:28:30Z</time>
      </trkpt>
      <trkpt lat="45.41994" lon="4.68695">
        <ele>361.8181</ele>
        <time>2021-07-19T08:28:31Z</time>
      </trkpt>
      <trkpt lat="45.41993" lon="4.6869">
        <ele>362.28842</ele>
        <time>2021-07-19T08:28:32Z</time>
      </trkpt>
      <trkpt lat="45.41993" lon="4.68685">
        <ele>362.5157</ele>
        <time>2021-07-19T08:28:33Z</time>
      </trkpt>
      <trkpt lat="45.41991" lon="4.6868">
        <ele>362.60025</ele>
        <time>2021-07-19T08:28:34Z</time>
      </trkpt>
      <trkpt lat="45.4199" lon="4.68676">
        <ele>362.6372</ele>
        <time>2021-07-19T08:28:35Z</time>
      </trkpt>
      <trkpt lat="45.4199" lon="4.68671">
        <ele>362.92258</ele>
        <time>2021-07-19T08:28:36Z</time>
      </trkpt>
      <trkpt lat="45.41989" lon="4.68666">
        <ele>363.14984</ele>
        <time>2021-07-19T08:28:37Z</time>
      </trkpt>
      <trkpt lat="45.41988" lon="4.68662">
        <ele>363.28198</ele>
        <time>2021-07-19T08:28:38Z</time>
      </trkpt>
      <trkpt lat="45.41988" lon="4.68658">
        <ele>363.747</ele>
        <time>2021-07-19T08:28:39Z</time>
      </trkpt>
      <trkpt lat="45.41987" lon="4.68653">
        <ele>363.95837</ele>
        <time>2021-07-19T08:28:40Z</time>
      </trkpt>
      <trkpt lat="45.41987" lon="4.68649">
        <ele>364.3336</ele>
        <time>2021-07-19T08:28:41Z</time>
      </trkpt>
      <trkpt lat="45.41986" lon="4.68644">
        <ele>364.508</ele>
        <time>2021-07-19T08:28:42Z</time>
      </trkpt>
      <trkpt lat="45.41985" lon="4.6864">
        <ele>364.61896</ele>
        <time>2021-07-19T08:28:43Z</time>
      </trkpt>
      <trkpt lat="45.41985" lon="4.68636">
        <ele>365.09985</ele>
        <time>2021-07-19T08:28:44Z</time>
      </trkpt>
      <trkpt lat="45.41985" lon="4.68631">
        <ele>365.14743</ele>
        <time>2021-07-19T08:28:45Z</time>
      </trkpt>
      <trkpt lat="45.41984" lon="4.68626">
        <ele>365.29013</ele>
        <time>2021-07-19T08:28:46Z</time>
      </trkpt>
      <trkpt lat="45.41984" lon="4.68621">
        <ele>365.45923</ele>
        <time>2021-07-19T08:28:47Z</time>
      </trkpt>
      <trkpt lat="45.41983" lon="4.68616">
        <ele>365.62836</ele>
        <time>2021-07-19T08:28:48Z</time>
      </trkpt>
      <trkpt lat="45.41982" lon="4.68611">
        <ele>365.9243</ele>
        <time>2021-07-19T08:28:49Z</time>
      </trkpt>
      <trkpt lat="45.41982" lon="4.68607">
        <ele>366.20438</ele>
        <time>2021-07-19T08:28:50Z</time>
      </trkpt>
      <trkpt lat="45.41982" lon="4.68602">
        <ele>366.47388</ele>
        <time>2021-07-19T08:28:51Z</time>
      </trkpt>
      <trkpt lat="45.41982" lon="4.68598">
        <ele>366.62714</ele>
        <time>2021-07-19T08:28:52Z</time>
      </trkpt>
      <trkpt lat="45.41981" lon="4.68592">
        <ele>366.90723</ele>
        <time>2021-07-19T08:28:53Z</time>
      </trkpt>
      <trkpt lat="45.41979" lon="4.68585">
        <ele>367.35114</ele>
        <time>2021-07-19T08:28:54Z</time>
      </trkpt>
      <trkpt lat="45.41978" lon="4.68578">
        <ele>367.2877</ele>
        <time>2021-07-19T08:28:55Z</time>
      </trkpt>
      <trkpt lat="45.41975" lon="4.68572">
        <ele>367.45682</ele>
        <time>2021-07-19T08:28:56Z</time>
      </trkpt>
      <trkpt lat="45.41975" lon="4.68569">
        <ele>367.50967</ele>
        <time>2021-07-19T08:28:57Z</time>
      </trkpt>
      <trkpt lat="45.41975" lon="4.68567">
        <ele>367.8162</ele>
        <time>2021-07-19T08:28:58Z</time>
      </trkpt>
      <trkpt lat="45.41975" lon="4.68563">
        <ele>367.87433</ele>
        <time>2021-07-19T08:28:59Z</time>
      </trkpt>
      <trkpt lat="45.41974" lon="4.68558">
        <ele>368.23367</ele>
        <time>2021-07-19T08:29:00Z</time>
      </trkpt>
      <trkpt lat="45.41972" lon="4.68554">
        <ele>368.37634</ele>
        <time>2021-07-19T08:29:01Z</time>
      </trkpt>
      <trkpt lat="45.41971" lon="4.6855">
        <ele>368.38165</ele>
        <time>2021-07-19T08:29:02Z</time>
      </trkpt>
      <trkpt lat="45.4197" lon="4.68546">
        <ele>368.6406</ele>
        <time>2021-07-19T08:29:03Z</time>
      </trkpt>
      <trkpt lat="45.41969" lon="4.68542">
        <ele>369.0475</ele>
        <time>2021-07-19T08:29:04Z</time>
      </trkpt>
      <trkpt lat="45.41968" lon="4.68539">
        <ele>369.26944</ele>
        <time>2021-07-19T08:29:05Z</time>
      </trkpt>
      <trkpt lat="45.41967" lon="4.68535">
        <ele>369.64468</ele>
        <time>2021-07-19T08:29:06Z</time>
      </trkpt>
      <trkpt lat="45.41965" lon="4.68532">
        <ele>369.9089</ele>
        <time>2021-07-19T08:29:07Z</time>
      </trkpt>
      <trkpt lat="45.41963" lon="4.68528">
        <ele>370.041</ele>
        <time>2021-07-19T08:29:08Z</time>
      </trkpt>
      <trkpt lat="45.41961" lon="4.68523">
        <ele>369.9882</ele>
        <time>2021-07-19T08:29:09Z</time>
      </trkpt>
      <trkpt lat="45.41959" lon="4.6852">
        <ele>370.34753</ele>
        <time>2021-07-19T08:29:10Z</time>
      </trkpt>
      <trkpt lat="45.41957" lon="4.68515">
        <ele>370.80728</ele>
        <time>2021-07-19T08:29:11Z</time>
      </trkpt>
      <trkpt lat="45.41955" lon="4.68511">
        <ele>370.9394</ele>
        <time>2021-07-19T08:29:12Z</time>
      </trkpt>
      <trkpt lat="45.41953" lon="4.68508">
        <ele>370.98697</ele>
        <time>2021-07-19T08:29:13Z</time>
      </trkpt>
      <trkpt lat="45.41952" lon="4.68504">
        <ele>370.9341</ele>
        <time>2021-07-19T08:29:14Z</time>
      </trkpt>
      <trkpt lat="45.4195" lon="4.68501">
        <ele>371.01865</ele>
        <time>2021-07-19T08:29:15Z</time>
      </trkpt>
      <trkpt lat="45.41948" lon="4.68496">
        <ele>371.22476</ele>
        <time>2021-07-19T08:29:16Z</time>
      </trkpt>
      <trkpt lat="45.41946" lon="4.68493">
        <ele>371.4203</ele>
        <time>2021-07-19T08:29:17Z</time>
      </trkpt>
      <trkpt lat="45.41944" lon="4.6849">
        <ele>371.6528</ele>
        <time>2021-07-19T08:29:18Z</time>
      </trkpt>
      <trkpt lat="45.41942" lon="4.68487">
        <ele>371.70566</ele>
        <time>2021-07-19T08:29:19Z</time>
      </trkpt>
      <trkpt lat="45.4194" lon="4.68482">
        <ele>371.98047</ele>
        <time>2021-07-19T08:29:20Z</time>
      </trkpt>
      <trkpt lat="45.41939" lon="4.68478">
        <ele>372.36096</ele>
        <time>2021-07-19T08:29:21Z</time>
      </trkpt>
      <trkpt lat="45.41938" lon="4.68473">
        <ele>372.56177</ele>
        <time>2021-07-19T08:29:22Z</time>
      </trkpt>
      <trkpt lat="45.41935" lon="4.68469">
        <ele>372.72562</ele>
        <time>2021-07-19T08:29:23Z</time>
      </trkpt>
      <trkpt lat="45.41933" lon="4.68465">
        <ele>372.87888</ele>
        <time>2021-07-19T08:29:24Z</time>
      </trkpt>
      <trkpt lat="45.41931" lon="4.6846">
        <ele>373.0004</ele>
        <time>2021-07-19T08:29:25Z</time>
      </trkpt>
      <trkpt lat="45.41928" lon="4.68455">
        <ele>373.2752</ele>
        <time>2021-07-19T08:29:26Z</time>
      </trkpt>
      <trkpt lat="45.41926" lon="4.68451">
        <ele>373.37036</ele>
        <time>2021-07-19T08:29:27Z</time>
      </trkpt>
      <trkpt lat="45.41923" lon="4.68446">
        <ele>373.587</ele>
        <time>2021-07-19T08:29:28Z</time>
      </trkpt>
      <trkpt lat="45.41921" lon="4.68443">
        <ele>373.80896</ele>
        <time>2021-07-19T08:29:29Z</time>
      </trkpt>
      <trkpt lat="45.41919" lon="4.68439">
        <ele>373.8671</ele>
        <time>2021-07-19T08:29:30Z</time>
      </trkpt>
      <trkpt lat="45.41918" lon="4.68436">
        <ele>374.02036</ele>
        <time>2021-07-19T08:29:31Z</time>
      </trkpt>
      <trkpt lat="45.41916" lon="4.68431">
        <ele>374.1049</ele>
        <time>2021-07-19T08:29:32Z</time>
      </trkpt>
      <trkpt lat="45.41914" lon="4.68428">
        <ele>374.11545</ele>
        <time>2021-07-19T08:29:33Z</time>
      </trkpt>
      <trkpt lat="45.41913" lon="4.68424">
        <ele>374.1683</ele>
        <time>2021-07-19T08:29:34Z</time>
      </trkpt>
      <trkpt lat="45.4191" lon="4.68421">
        <ele>374.49597</ele>
        <time>2021-07-19T08:29:35Z</time>
      </trkpt>
      <trkpt lat="45.41909" lon="4.68417">
        <ele>374.66507</ele>
        <time>2021-07-19T08:29:36Z</time>
      </trkpt>
      <trkpt lat="45.41907" lon="4.68413">
        <ele>374.81833</ele>
        <time>2021-07-19T08:29:37Z</time>
      </trkpt>
      <trkpt lat="45.41905" lon="4.68409">
        <ele>374.99802</ele>
        <time>2021-07-19T08:29:38Z</time>
      </trkpt>
      <trkpt lat="45.41902" lon="4.68404">
        <ele>375.29395</ele>
        <time>2021-07-19T08:29:39Z</time>
      </trkpt>
      <trkpt lat="45.419" lon="4.684">
        <ele>375.47363</ele>
        <time>2021-07-19T08:29:40Z</time>
      </trkpt>
      <trkpt lat="45.41899" lon="4.68395">
        <ele>375.56876</ele>
        <time>2021-07-19T08:29:41Z</time>
      </trkpt>
      <trkpt lat="45.41896" lon="4.6839">
        <ele>375.72726</ele>
        <time>2021-07-19T08:29:42Z</time>
      </trkpt>
      <trkpt lat="45.41894" lon="4.68386">
        <ele>375.91226</ele>
        <time>2021-07-19T08:29:43Z</time>
      </trkpt>
      <trkpt lat="45.41892" lon="4.68381">
        <ele>376.30328</ele>
        <time>2021-07-19T08:29:44Z</time>
      </trkpt>
      <trkpt lat="45.41889" lon="4.68373">
        <ele>376.53058</ele>
        <time>2021-07-19T08:29:45Z</time>
      </trkpt>
      <trkpt lat="45.41887" lon="4.68364">
        <ele>376.77893</ele>
        <time>2021-07-19T08:29:46Z</time>
      </trkpt>
      <trkpt lat="45.41883" lon="4.68354">
        <ele>376.8318</ele>
        <time>2021-07-19T08:29:47Z</time>
      </trkpt>
      <trkpt lat="45.41881" lon="4.68346">
        <ele>376.97974</ele>
        <time>2021-07-19T08:29:48Z</time>
      </trkpt>
      <trkpt lat="45.4188" lon="4.6834">
        <ele>377.08542</ele>
        <time>2021-07-19T08:29:49Z</time>
      </trkpt>
      <trkpt lat="45.4188" lon="4.68334">
        <ele>377.31796</ele>
        <time>2021-07-19T08:29:50Z</time>
      </trkpt>
      <trkpt lat="45.4188" lon="4.68329">
        <ele>377.5769</ele>
        <time>2021-07-19T08:29:51Z</time>
      </trkpt>
      <trkpt lat="45.41879" lon="4.68326">
        <ele>377.83585</ele>
        <time>2021-07-19T08:29:52Z</time>
      </trkpt>
      <trkpt lat="45.41877" lon="4.6832">
        <ele>377.80417</ele>
        <time>2021-07-19T08:29:53Z</time>
      </trkpt>
      <trkpt lat="45.41877" lon="4.68315">
        <ele>378.00494</ele>
        <time>2021-07-19T08:29:54Z</time>
      </trkpt>
      <trkpt lat="45.41874" lon="4.68314">
        <ele>378.30618</ele>
        <time>2021-07-19T08:29:55Z</time>
      </trkpt>
      <trkpt lat="45.41873" lon="4.6831">
        <ele>378.41714</ele>
        <time>2021-07-19T08:29:56Z</time>
      </trkpt>
      <trkpt lat="45.41871" lon="4.68306">
        <ele>378.75537</ele>
        <time>2021-07-19T08:29:57Z</time>
      </trkpt>
      <trkpt lat="45.41867" lon="4.68303">
        <ele>378.544</ele>
        <time>2021-07-19T08:29:58Z</time>
      </trkpt>
      <trkpt lat="45.41866" lon="4.68302">
        <ele>378.7237</ele>
        <time>2021-07-19T08:29:59Z</time>
      </trkpt>
      <trkpt lat="45.41867" lon="4.683">
        <ele>378.79767</ele>
        <time>2021-07-19T08:30:00Z</time>
      </trkpt>
      <trkpt lat="45.41863" lon="4.68304">
        <ele>378.7184</ele>
        <time>2021-07-19T08:30:01Z</time>
      </trkpt>
      <trkpt lat="45.4186" lon="4.68306">
        <ele>378.75537</ele>
        <time>2021-07-19T08:30:02Z</time>
      </trkpt>
      <trkpt lat="45.41857" lon="4.68307">
        <ele>379.08832</ele>
        <time>2021-07-19T08:30:03Z</time>
      </trkpt>
      <trkpt lat="45.41853" lon="4.68307">
        <ele>379.23102</ele>
        <time>2021-07-19T08:30:04Z</time>
      </trkpt>
      <trkpt lat="45.4185" lon="4.68311">
        <ele>379.31555</ele>
        <time>2021-07-19T08:30:05Z</time>
      </trkpt>
      <trkpt lat="45.41848" lon="4.68309">
        <ele>379.27325</ele>
        <time>2021-07-19T08:30:06Z</time>
      </trkpt>
      <trkpt lat="45.41848" lon="4.68307">
        <ele>379.38425</ele>
        <time>2021-07-19T08:30:07Z</time>
      </trkpt>
      <trkpt lat="45.41847" lon="4.68307">
        <ele>379.47937</ele>
        <time>2021-07-19T08:30:08Z</time>
      </trkpt>
      <trkpt lat="45.41845" lon="4.68307">
        <ele>379.49524</ele>
        <time>2021-07-19T08:30:09Z</time>
      </trkpt>
      <trkpt lat="45.41843" lon="4.68307">
        <ele>379.3684</ele>
        <time>2021-07-19T08:30:10Z</time>
      </trkpt>
      <trkpt lat="45.41841" lon="4.68308">
        <ele>379.3737</ele>
        <time>2021-07-19T08:30:11Z</time>
      </trkpt>
      <trkpt lat="45.41839" lon="4.68309">
        <ele>379.13058</ele>
        <time>2021-07-19T08:30:12Z</time>
      </trkpt>
      <trkpt lat="45.41837" lon="4.6831">
        <ele>378.9139</ele>
        <time>2021-07-19T08:30:13Z</time>
      </trkpt>
      <trkpt lat="45.41833" lon="4.68311">
        <ele>378.7184</ele>
        <time>2021-07-19T08:30:14Z</time>
      </trkpt>
      <trkpt lat="45.41829" lon="4.68312">
        <ele>378.69724</ele>
        <time>2021-07-19T08:30:15Z</time>
      </trkpt>
      <trkpt lat="45.41826" lon="4.68313">
        <ele>378.60214</ele>
        <time>2021-07-19T08:30:16Z</time>
      </trkpt>
      <trkpt lat="45.41821" lon="4.68314">
        <ele>378.60214</ele>
        <time>2021-07-19T08:30:17Z</time>
      </trkpt>
      <trkpt lat="45.41818" lon="4.68316">
        <ele>378.30618</ele>
        <time>2021-07-19T08:30:18Z</time>
      </trkpt>
      <trkpt lat="45.41817" lon="4.68319">
        <ele>378.1635</ele>
        <time>2021-07-19T08:30:19Z</time>
      </trkpt>
      <trkpt lat="45.41818" lon="4.68323">
        <ele>378.30618</ele>
        <time>2021-07-19T08:30:20Z</time>
      </trkpt>
      <trkpt lat="45.41819" lon="4.68327">
        <ele>378.4277</ele>
        <time>2021-07-19T08:30:21Z</time>
      </trkpt>
      <trkpt lat="45.4182" lon="4.68329">
        <ele>378.61798</ele>
        <time>2021-07-19T08:30:22Z</time>
      </trkpt>
      <trkpt lat="45.41822" lon="4.6833">
        <ele>378.7924</ele>
        <time>2021-07-19T08:30:23Z</time>
      </trkpt>
      <trkpt lat="45.41826" lon="4.68331">
        <ele>378.92978</ele>
        <time>2021-07-19T08:30:24Z</time>
      </trkpt>
      <trkpt lat="45.41829" lon="4.68329">
        <ele>378.96677</ele>
        <time>2021-07-19T08:30:25Z</time>
      </trkpt>
      <trkpt lat="45.41832" lon="4.68329">
        <ele>378.9192</ele>
        <time>2021-07-19T08:30:26Z</time>
      </trkpt>
      <trkpt lat="45.41834" lon="4.68329">
        <ele>378.99316</ele>
        <time>2021-07-19T08:30:27Z</time>
      </trkpt>
      <trkpt lat="45.41836" lon="4.68328">
        <ele>378.95093</ele>
        <time>2021-07-19T08:30:28Z</time>
      </trkpt>
      <trkpt lat="45.41838" lon="4.68327">
        <ele>379.01962</ele>
        <time>2021-07-19T08:30:29Z</time>
      </trkpt>
      <trkpt lat="45.41839" lon="4.68326">
        <ele>378.96677</ele>
        <time>2021-07-19T08:30:30Z</time>
      </trkpt>
      <trkpt lat="45.4184" lon="4.68326">
        <ele>378.6497</ele>
        <time>2021-07-19T08:30:31Z</time>
      </trkpt>
      <trkpt lat="45.4184" lon="4.68326">
        <ele>378.655</ele>
        <time>2021-07-19T08:30:32Z</time>
      </trkpt>
      <trkpt lat="45.4184" lon="4.68326">
        <ele>378.67612</ele>
        <time>2021-07-19T08:30:33Z</time>
      </trkpt>
      <trkpt lat="45.4184" lon="4.68326">
        <ele>378.67612</ele>
        <time>2021-07-19T08:30:33Z</time>
      </trkpt>
      <trkpt lat="45.4184" lon="4.68326">
        <ele>378.67612</ele>
        <time>2021-07-19T08:30:33Z</time>
      </trkpt>
      <trkpt lat="45.41871" lon="4.6829">
        <ele>378.2005</ele>
        <time>2021-07-19T08:32:50Z</time>
      </trkpt>
      <trkpt lat="45.41875" lon="4.68287">
        <ele>377.98383</ele>
        <time>2021-07-19T08:32:51Z</time>
      </trkpt>
      <trkpt lat="45.41879" lon="4.68283">
        <ele>377.8887</ele>
        <time>2021-07-19T08:32:52Z</time>
      </trkpt>
      <trkpt lat="45.41882" lon="4.6828">
        <ele>377.5188</ele>
        <time>2021-07-19T08:32:53Z</time>
      </trkpt>
      <trkpt lat="45.41885" lon="4.68277">
        <ele>377.42892</ele>
        <time>2021-07-19T08:32:54Z</time>
      </trkpt>
      <trkpt lat="45.41887" lon="4.68276">
        <ele>377.05902</ele>
        <time>2021-07-19T08:32:55Z</time>
      </trkpt>
      <trkpt lat="45.41888" lon="4.68276">
        <ele>376.51468</ele>
        <time>2021-07-19T08:32:56Z</time>
      </trkpt>
      <trkpt lat="45.41889" lon="4.68276">
        <ele>376.53058</ele>
        <time>2021-07-19T08:32:57Z</time>
      </trkpt>
      <trkpt lat="45.4189" lon="4.68278">
        <ele>376.6891</ele>
        <time>2021-07-19T08:32:58Z</time>
      </trkpt>
      <trkpt lat="45.41891" lon="4.68279">
        <ele>376.7208</ele>
        <time>2021-07-19T08:32:59Z</time>
      </trkpt>
      <trkpt lat="45.41892" lon="4.68281">
        <ele>376.66266</ele>
        <time>2021-07-19T08:33:00Z</time>
      </trkpt>
      <trkpt lat="45.41892" lon="4.68281">
        <ele>376.7842</ele>
        <time>2021-07-19T08:33:01Z</time>
      </trkpt>
      <trkpt lat="45.41892" lon="4.68281">
        <ele>376.71024</ele>
        <time>2021-07-19T08:33:02Z</time>
      </trkpt>
      <trkpt lat="45.41892" lon="4.68282">
        <ele>376.77365</ele>
        <time>2021-07-19T08:33:03Z</time>
      </trkpt>
      <trkpt lat="45.41892" lon="4.68281">
        <ele>376.84235</ele>
        <time>2021-07-19T08:33:04Z</time>
      </trkpt>
      <trkpt lat="45.41892" lon="4.68281">
        <ele>376.8318</ele>
        <time>2021-07-19T08:33:05Z</time>
      </trkpt>
      <trkpt lat="45.41892" lon="4.68282">
        <ele>377.1541</ele>
        <time>2021-07-19T08:33:06Z</time>
      </trkpt>
      <trkpt lat="45.41892" lon="4.68281">
        <ele>376.76837</ele>
        <time>2021-07-19T08:33:07Z</time>
      </trkpt>
      <trkpt lat="45.41892" lon="4.68281">
        <ele>376.76837</ele>
        <time>2021-07-19T08:33:07Z</time>
      </trkpt>
      <trkpt lat="45.41892" lon="4.68281">
        <ele>376.76837</ele>
        <time>2021-07-19T08:33:07Z</time>
      </trkpt>
      <trkpt lat="45.41876" lon="4.6829">
        <ele>377.94684</ele>
        <time>2021-07-19T08:34:07Z</time>
      </trkpt>
      <trkpt lat="45.41874" lon="4.68294">
        <ele>377.8887</ele>
        <time>2021-07-19T08:34:08Z</time>
      </trkpt>
      <trkpt lat="45.41871" lon="4.68297">
        <ele>378.26392</ele>
        <time>2021-07-19T08:34:09Z</time>
      </trkpt>
      <trkpt lat="45.41869" lon="4.683">
        <ele>378.32205</ele>
        <time>2021-07-19T08:34:10Z</time>
      </trkpt>
      <trkpt lat="45.41866" lon="4.68302">
        <ele>378.42242</ele>
        <time>2021-07-19T08:34:11Z</time>
      </trkpt>
      <trkpt lat="45.41863" lon="4.68303">
        <ele>378.48587</ele>
        <time>2021-07-19T08:34:12Z</time>
      </trkpt>
      <trkpt lat="45.4186" lon="4.68305">
        <ele>378.544</ele>
        <time>2021-07-19T08:34:13Z</time>
      </trkpt>
      <trkpt lat="45.41858" lon="4.68307">
        <ele>378.6497</ele>
        <time>2021-07-19T08:34:14Z</time>
      </trkpt>
      <trkpt lat="45.41856" lon="4.68308">
        <ele>378.73953</ele>
        <time>2021-07-19T08:34:15Z</time>
      </trkpt>
      <trkpt lat="45.41855" lon="4.68308">
        <ele>378.7924</ele>
        <time>2021-07-19T08:34:16Z</time>
      </trkpt>
      <trkpt lat="45.41853" lon="4.68309">
        <ele>378.8135</ele>
        <time>2021-07-19T08:34:17Z</time>
      </trkpt>
      <trkpt lat="45.4185" lon="4.68307">
        <ele>379.00378</ele>
        <time>2021-07-19T08:34:18Z</time>
      </trkpt>
      <trkpt lat="45.41849" lon="4.68304">
        <ele>379.28387</ele>
        <time>2021-07-19T08:34:19Z</time>
      </trkpt>
      <trkpt lat="45.41847" lon="4.68302">
        <ele>379.52695</ele>
        <time>2021-07-19T08:34:20Z</time>
      </trkpt>
      <trkpt lat="45.41846" lon="4.68299">
        <ele>379.77533</ele>
        <time>2021-07-19T08:34:21Z</time>
      </trkpt>
      <trkpt lat="45.41844" lon="4.68295">
        <ele>379.881</ele>
        <time>2021-07-19T08:34:22Z</time>
      </trkpt>
      <trkpt lat="45.41843" lon="4.68291">
        <ele>380.21924</ele>
        <time>2021-07-19T08:34:23Z</time>
      </trkpt>
      <trkpt lat="45.41841" lon="4.68287">
        <ele>380.44647</ele>
        <time>2021-07-19T08:34:24Z</time>
      </trkpt>
      <trkpt lat="45.41839" lon="4.68282">
        <ele>380.63144</ele>
        <time>2021-07-19T08:34:25Z</time>
      </trkpt>
      <trkpt lat="45.41838" lon="4.68278">
        <ele>380.56274</ele>
        <time>2021-07-19T08:34:26Z</time>
      </trkpt>
      <trkpt lat="45.41836" lon="4.68273">
        <ele>381.08063</ele>
        <time>2021-07-19T08:34:27Z</time>
      </trkpt>
      <trkpt lat="45.41834" lon="4.6827">
        <ele>381.2603</ele>
        <time>2021-07-19T08:34:28Z</time>
      </trkpt>
      <trkpt lat="45.41832" lon="4.68265">
        <ele>381.23386</ele>
        <time>2021-07-19T08:34:29Z</time>
      </trkpt>
      <trkpt lat="45.41831" lon="4.68261">
        <ele>381.38184</ele>
        <time>2021-07-19T08:34:30Z</time>
      </trkpt>
      <trkpt lat="45.41829" lon="4.68257">
        <ele>381.56152</ele>
        <time>2021-07-19T08:34:31Z</time>
      </trkpt>
      <trkpt lat="45.41827" lon="4.68253">
        <ele>381.34485</ele>
        <time>2021-07-19T08:34:32Z</time>
      </trkpt>
      <trkpt lat="45.41826" lon="4.68249">
        <ele>381.48755</ele>
        <time>2021-07-19T08:34:33Z</time>
      </trkpt>
      <trkpt lat="45.41825" lon="4.68244">
        <ele>381.67252</ele>
        <time>2021-07-19T08:34:34Z</time>
      </trkpt>
      <trkpt lat="45.41823" lon="4.68239">
        <ele>381.9579</ele>
        <time>2021-07-19T08:34:35Z</time>
      </trkpt>
      <trkpt lat="45.41822" lon="4.68234">
        <ele>382.1217</ele>
        <time>2021-07-19T08:34:36Z</time>
      </trkpt>
      <trkpt lat="45.41821" lon="4.68229">
        <ele>382.0107</ele>
        <time>2021-07-19T08:34:37Z</time>
      </trkpt>
      <trkpt lat="45.41819" lon="4.68224">
        <ele>382.2221</ele>
        <time>2021-07-19T08:34:38Z</time>
      </trkpt>
      <trkpt lat="45.41818" lon="4.68219">
        <ele>382.36478</ele>
        <time>2021-07-19T08:34:39Z</time>
      </trkpt>
      <trkpt lat="45.41816" lon="4.68216">
        <ele>382.6026</ele>
        <time>2021-07-19T08:34:40Z</time>
      </trkpt>
      <trkpt lat="45.41814" lon="4.68212">
        <ele>382.7453</ele>
        <time>2021-07-19T08:34:41Z</time>
      </trkpt>
      <trkpt lat="45.41813" lon="4.68208">
        <ele>383.14163</ele>
        <time>2021-07-19T08:34:42Z</time>
      </trkpt>
      <trkpt lat="45.41812" lon="4.68204">
        <ele>383.1152</ele>
        <time>2021-07-19T08:34:43Z</time>
      </trkpt>
      <trkpt lat="45.41811" lon="4.68199">
        <ele>382.9461</ele>
        <time>2021-07-19T08:34:44Z</time>
      </trkpt>
      <trkpt lat="45.4181" lon="4.68195">
        <ele>383.0254</ele>
        <time>2021-07-19T08:34:45Z</time>
      </trkpt>
      <trkpt lat="45.41809" lon="4.68191">
        <ele>383.0201</ele>
        <time>2021-07-19T08:34:46Z</time>
      </trkpt>
      <trkpt lat="45.41808" lon="4.68186">
        <ele>383.24734</ele>
        <time>2021-07-19T08:34:47Z</time>
      </trkpt>
      <trkpt lat="45.41807" lon="4.68181">
        <ele>383.48514</ele>
        <time>2021-07-19T08:34:48Z</time>
      </trkpt>
      <trkpt lat="45.41806" lon="4.68177">
        <ele>383.44815</ele>
        <time>2021-07-19T08:34:49Z</time>
      </trkpt>
      <trkpt lat="45.41805" lon="4.68172">
        <ele>383.70178</ele>
        <time>2021-07-19T08:34:50Z</time>
      </trkpt>
      <trkpt lat="45.41803" lon="4.68167">
        <ele>383.82864</ele>
        <time>2021-07-19T08:34:51Z</time>
      </trkpt>
      <trkpt lat="45.41802" lon="4.68162">
        <ele>384.34653</ele>
        <time>2021-07-19T08:34:52Z</time>
      </trkpt>
      <trkpt lat="45.418" lon="4.68157">
        <ele>384.58435</ele>
        <time>2021-07-19T08:34:53Z</time>
      </trkpt>
      <trkpt lat="45.41799" lon="4.68153">
        <ele>384.98068</ele>
        <time>2021-07-19T08:34:54Z</time>
      </trkpt>
      <trkpt lat="45.41798" lon="4.68149">
        <ele>385.0124</ele>
        <time>2021-07-19T08:34:55Z</time>
      </trkpt>
      <trkpt lat="45.41797" lon="4.68145">
        <ele>385.19205</ele>
        <time>2021-07-19T08:34:56Z</time>
      </trkpt>
      <trkpt lat="45.41795" lon="4.68141">
        <ele>385.44046</ele>
        <time>2021-07-19T08:34:57Z</time>
      </trkpt>
      <trkpt lat="45.41794" lon="4.68137">
        <ele>385.40875</ele>
        <time>2021-07-19T08:34:58Z</time>
      </trkpt>
      <trkpt lat="45.41792" lon="4.68133">
        <ele>385.37704</ele>
        <time>2021-07-19T08:34:59Z</time>
      </trkpt>
      <trkpt lat="45.41791" lon="4.68127">
        <ele>385.39816</ele>
        <time>2021-07-19T08:35:00Z</time>
      </trkpt>
      <trkpt lat="45.41791" lon="4.68122">
        <ele>385.50916</ele>
        <time>2021-07-19T08:35:01Z</time>
      </trkpt>
      <trkpt lat="45.41791" lon="4.68118">
        <ele>386.1063</ele>
        <time>2021-07-19T08:35:02Z</time>
      </trkpt>
      <trkpt lat="45.41792" lon="4.68113">
        <ele>386.212</ele>
        <time>2021-07-19T08:35:03Z</time>
      </trkpt>
      <trkpt lat="45.41794" lon="4.68109">
        <ele>386.68234</ele>
        <time>2021-07-19T08:35:04Z</time>
      </trkpt>
      <trkpt lat="45.41796" lon="4.68105">
        <ele>386.75107</ele>
        <time>2021-07-19T08:35:05Z</time>
      </trkpt>
      <trkpt lat="45.41798" lon="4.68101">
        <ele>386.936</ele>
        <time>2021-07-19T08:35:06Z</time>
      </trkpt>
      <trkpt lat="45.418" lon="4.68096">
        <ele>386.91486</ele>
        <time>2021-07-19T08:35:07Z</time>
      </trkpt>
      <trkpt lat="45.41801" lon="4.68093">
        <ele>386.8726</ele>
        <time>2021-07-19T08:35:08Z</time>
      </trkpt>
      <trkpt lat="45.41801" lon="4.6809">
        <ele>387.09985</ele>
        <time>2021-07-19T08:35:09Z</time>
      </trkpt>
      <trkpt lat="45.41802" lon="4.68087">
        <ele>387.30063</ele>
        <time>2021-07-19T08:35:10Z</time>
      </trkpt>
      <trkpt lat="45.41803" lon="4.68084">
        <ele>387.2795</ele>
        <time>2021-07-19T08:35:11Z</time>
      </trkpt>
      <trkpt lat="45.41804" lon="4.68082">
        <ele>387.2372</ele>
        <time>2021-07-19T08:35:12Z</time>
      </trkpt>
      <trkpt lat="45.41806" lon="4.6808">
        <ele>387.3746</ele>
        <time>2021-07-19T08:35:13Z</time>
      </trkpt>
      <trkpt lat="45.41807" lon="4.68079">
        <ele>387.5279</ele>
        <time>2021-07-19T08:35:14Z</time>
      </trkpt>
      <trkpt lat="45.41808" lon="4.68077">
        <ele>387.53317</ele>
        <time>2021-07-19T08:35:15Z</time>
      </trkpt>
      <trkpt lat="45.4181" lon="4.68073">
        <ele>387.60187</ele>
        <time>2021-07-19T08:35:16Z</time>
      </trkpt>
      <trkpt lat="45.41811" lon="4.68069">
        <ele>387.6653</ele>
        <time>2021-07-19T08:35:17Z</time>
      </trkpt>
      <trkpt lat="45.41813" lon="4.68064">
        <ele>387.81854</ele>
        <time>2021-07-19T08:35:18Z</time>
      </trkpt>
      <trkpt lat="45.41815" lon="4.6806">
        <ele>388.05634</ele>
        <time>2021-07-19T08:35:19Z</time>
      </trkpt>
      <trkpt lat="45.41818" lon="4.68056">
        <ele>388.35226</ele>
        <time>2021-07-19T08:35:20Z</time>
      </trkpt>
      <trkpt lat="45.4182" lon="4.6805">
        <ele>388.46854</ele>
        <time>2021-07-19T08:35:21Z</time>
      </trkpt>
      <trkpt lat="45.41822" lon="4.68045">
        <ele>388.51083</ele>
        <time>2021-07-19T08:35:22Z</time>
      </trkpt>
      <trkpt lat="45.41824" lon="4.68041">
        <ele>388.71164</ele>
        <time>2021-07-19T08:35:23Z</time>
      </trkpt>
      <trkpt lat="45.41824" lon="4.68039">
        <ele>388.91245</ele>
        <time>2021-07-19T08:35:24Z</time>
      </trkpt>
      <trkpt lat="45.41826" lon="4.68036">
        <ele>388.97586</ele>
        <time>2021-07-19T08:35:25Z</time>
      </trkpt>
      <trkpt lat="45.41827" lon="4.68033">
        <ele>389.08685</ele>
        <time>2021-07-19T08:35:26Z</time>
      </trkpt>
      <trkpt lat="45.41828" lon="4.68029">
        <ele>389.17142</ele>
        <time>2021-07-19T08:35:27Z</time>
      </trkpt>
      <trkpt lat="45.41829" lon="4.68026">
        <ele>389.48846</ele>
        <time>2021-07-19T08:35:28Z</time>
      </trkpt>
      <trkpt lat="45.4183" lon="4.68023">
        <ele>389.64703</ele>
        <time>2021-07-19T08:35:29Z</time>
      </trkpt>
      <trkpt lat="45.41832" lon="4.68018">
        <ele>389.68402</ele>
        <time>2021-07-19T08:35:30Z</time>
      </trkpt>
      <trkpt lat="45.41834" lon="4.68015">
        <ele>389.91653</ele>
        <time>2021-07-19T08:35:31Z</time>
      </trkpt>
      <trkpt lat="45.41836" lon="4.6801">
        <ele>389.99054</ele>
        <time>2021-07-19T08:35:32Z</time>
      </trkpt>
      <trkpt lat="45.41838" lon="4.68005">
        <ele>390.1913</ele>
        <time>2021-07-19T08:35:33Z</time>
      </trkpt>
      <trkpt lat="45.4184" lon="4.68001">
        <ele>390.3763</ele>
        <time>2021-07-19T08:35:34Z</time>
      </trkpt>
      <trkpt lat="45.41842" lon="4.67997">
        <ele>390.62997</ele>
        <time>2021-07-19T08:35:35Z</time>
      </trkpt>
      <trkpt lat="45.41844" lon="4.67994">
        <ele>390.84665</ele>
        <time>2021-07-19T08:35:36Z</time>
      </trkpt>
      <trkpt lat="45.41847" lon="4.67989">
        <ele>391.11618</ele>
        <time>2021-07-19T08:35:37Z</time>
      </trkpt>
      <trkpt lat="45.4185" lon="4.67983">
        <ele>391.24298</ele>
        <time>2021-07-19T08:35:38Z</time>
      </trkpt>
      <trkpt lat="45.41852" lon="4.67979">
        <ele>391.38565</ele>
        <time>2021-07-19T08:35:39Z</time>
      </trkpt>
      <trkpt lat="45.41855" lon="4.67972">
        <ele>391.63406</ele>
        <time>2021-07-19T08:35:40Z</time>
      </trkpt>
      <trkpt lat="45.41858" lon="4.67967">
        <ele>391.64462</ele>
        <time>2021-07-19T08:35:41Z</time>
      </trkpt>
      <trkpt lat="45.41861" lon="4.67961">
        <ele>392.14667</ele>
        <time>2021-07-19T08:35:42Z</time>
      </trkpt>
      <trkpt lat="45.41863" lon="4.67954">
        <ele>392.13608</ele>
        <time>2021-07-19T08:35:43Z</time>
      </trkpt>
      <trkpt lat="45.41866" lon="4.67949">
        <ele>392.45316</ele>
        <time>2021-07-19T08:35:44Z</time>
      </trkpt>
      <trkpt lat="45.41868" lon="4.67945">
        <ele>392.60645</ele>
        <time>2021-07-19T08:35:45Z</time>
      </trkpt>
      <trkpt lat="45.4187" lon="4.6794">
        <ele>392.8918</ele>
        <time>2021-07-19T08:35:46Z</time>
      </trkpt>
      <trkpt lat="45.41872" lon="4.67935">
        <ele>393.09262</ele>
        <time>2021-07-19T08:35:47Z</time>
      </trkpt>
      <trkpt lat="45.41874" lon="4.67929">
        <ele>393.1349</ele>
        <time>2021-07-19T08:35:48Z</time>
      </trkpt>
      <trkpt lat="45.41876" lon="4.67924">
        <ele>393.3727</ele>
        <time>2021-07-19T08:35:49Z</time>
      </trkpt>
      <trkpt lat="45.41879" lon="4.6792">
        <ele>393.4414</ele>
        <time>2021-07-19T08:35:50Z</time>
      </trkpt>
      <trkpt lat="45.41881" lon="4.67916">
        <ele>393.61578</ele>
        <time>2021-07-19T08:35:51Z</time>
      </trkpt>
      <trkpt lat="45.41883" lon="4.67912">
        <ele>393.73734</ele>
        <time>2021-07-19T08:35:52Z</time>
      </trkpt>
      <trkpt lat="45.41885" lon="4.67908">
        <ele>393.8483</ele>
        <time>2021-07-19T08:35:53Z</time>
      </trkpt>
      <trkpt lat="45.41888" lon="4.67903">
        <ele>394.06497</ele>
        <time>2021-07-19T08:35:54Z</time>
      </trkpt>
      <trkpt lat="45.4189" lon="4.679">
        <ele>394.102</ele>
        <time>2021-07-19T08:35:55Z</time>
      </trkpt>
      <trkpt lat="45.41892" lon="4.67896">
        <ele>394.4349</ele>
        <time>2021-07-19T08:35:56Z</time>
      </trkpt>
      <trkpt lat="45.41894" lon="4.67892">
        <ele>394.58817</ele>
        <time>2021-07-19T08:35:57Z</time>
      </trkpt>
      <trkpt lat="45.41896" lon="4.67887">
        <ele>394.83124</ele>
        <time>2021-07-19T08:35:58Z</time>
      </trkpt>
      <trkpt lat="45.41898" lon="4.67883">
        <ele>394.9528</ele>
        <time>2021-07-19T08:35:59Z</time>
      </trkpt>
      <trkpt lat="45.419" lon="4.67879">
        <ele>395.23288</ele>
        <time>2021-07-19T08:36:00Z</time>
      </trkpt>
      <trkpt lat="45.41902" lon="4.67874">
        <ele>395.33328</ele>
        <time>2021-07-19T08:36:01Z</time>
      </trkpt>
      <trkpt lat="45.41903" lon="4.6787">
        <ele>395.5764</ele>
        <time>2021-07-19T08:36:02Z</time>
      </trkpt>
      <trkpt lat="45.41905" lon="4.67865">
        <ele>395.92517</ele>
        <time>2021-07-19T08:36:03Z</time>
      </trkpt>
      <trkpt lat="45.41906" lon="4.67861">
        <ele>396.38492</ele>
        <time>2021-07-19T08:36:04Z</time>
      </trkpt>
      <trkpt lat="45.41907" lon="4.67856">
        <ele>396.58047</ele>
        <time>2021-07-19T08:36:05Z</time>
      </trkpt>
      <trkpt lat="45.41908" lon="4.67852">
        <ele>396.81827</ele>
        <time>2021-07-19T08:36:06Z</time>
      </trkpt>
      <trkpt lat="45.41909" lon="4.67847">
        <ele>396.80243</ele>
        <time>2021-07-19T08:36:07Z</time>
      </trkpt>
      <trkpt lat="45.41908" lon="4.67843">
        <ele>396.9874</ele>
        <time>2021-07-19T08:36:08Z</time>
      </trkpt>
      <trkpt lat="45.41908" lon="4.67839">
        <ele>397.2886</ele>
        <time>2021-07-19T08:36:09Z</time>
      </trkpt>
      <trkpt lat="45.41907" lon="4.67835">
        <ele>397.5264</ele>
        <time>2021-07-19T08:36:10Z</time>
      </trkpt>
      <trkpt lat="45.41905" lon="4.67831">
        <ele>397.6797</ele>
        <time>2021-07-19T08:36:11Z</time>
      </trkpt>
      <trkpt lat="45.41903" lon="4.67829">
        <ele>397.8488</ele>
        <time>2021-07-19T08:36:12Z</time>
      </trkpt>
      <trkpt lat="45.419" lon="4.67825">
        <ele>398.03375</ele>
        <time>2021-07-19T08:36:13Z</time>
      </trkpt>
      <trkpt lat="45.41898" lon="4.67822">
        <ele>398.12888</ele>
        <time>2021-07-19T08:36:14Z</time>
      </trkpt>
      <trkpt lat="45.41895" lon="4.67819">
        <ele>398.43536</ele>
        <time>2021-07-19T08:36:15Z</time>
      </trkpt>
      <trkpt lat="45.41893" lon="4.67817">
        <ele>398.61505</ele>
        <time>2021-07-19T08:36:16Z</time>
      </trkpt>
      <trkpt lat="45.41892" lon="4.67814">
        <ele>398.6256</ele>
        <time>2021-07-19T08:36:17Z</time>
      </trkpt>
      <trkpt lat="45.41889" lon="4.67811">
        <ele>398.7472</ele>
        <time>2021-07-19T08:36:18Z</time>
      </trkpt>
      <trkpt lat="45.41888" lon="4.6781">
        <ele>398.7366</ele>
        <time>2021-07-19T08:36:19Z</time>
      </trkpt>
      <trkpt lat="45.41885" lon="4.67808">
        <ele>398.78415</ele>
        <time>2021-07-19T08:36:20Z</time>
      </trkpt>
      <trkpt lat="45.41882" lon="4.67807">
        <ele>398.94272</ele>
        <time>2021-07-19T08:36:21Z</time>
      </trkpt>
      <trkpt lat="45.41879" lon="4.67807">
        <ele>399.10126</ele>
        <time>2021-07-19T08:36:22Z</time>
      </trkpt>
      <trkpt lat="45.41877" lon="4.67808">
        <ele>399.05368</ele>
        <time>2021-07-19T08:36:23Z</time>
      </trkpt>
      <trkpt lat="45.41874" lon="4.6781">
        <ele>399.0484</ele>
        <time>2021-07-19T08:36:24Z</time>
      </trkpt>
      <trkpt lat="45.41871" lon="4.67814">
        <ele>398.93213</ele>
        <time>2021-07-19T08:36:25Z</time>
      </trkpt>
      <trkpt lat="45.41868" lon="4.67817">
        <ele>398.8423</ele>
        <time>2021-07-19T08:36:26Z</time>
      </trkpt>
      <trkpt lat="45.41864" lon="4.6782">
        <ele>398.88986</ele>
        <time>2021-07-19T08:36:27Z</time>
      </trkpt>
      <trkpt lat="45.41861" lon="4.67823">
        <ele>398.86874</ele>
        <time>2021-07-19T08:36:28Z</time>
      </trkpt>
      <trkpt lat="45.41858" lon="4.67826">
        <ele>399.13293</ele>
        <time>2021-07-19T08:36:29Z</time>
      </trkpt>
      <trkpt lat="45.41855" lon="4.67829">
        <ele>399.1594</ele>
        <time>2021-07-19T08:36:30Z</time>
      </trkpt>
      <trkpt lat="45.41851" lon="4.67833">
        <ele>399.02725</ele>
        <time>2021-07-19T08:36:31Z</time>
      </trkpt>
      <trkpt lat="45.41848" lon="4.67836">
        <ele>399.02725</ele>
        <time>2021-07-19T08:36:32Z</time>
      </trkpt>
      <trkpt lat="45.41845" lon="4.6784">
        <ele>399.05368</ele>
        <time>2021-07-19T08:36:33Z</time>
      </trkpt>
      <trkpt lat="45.41842" lon="4.67844">
        <ele>399.2492</ele>
        <time>2021-07-19T08:36:34Z</time>
      </trkpt>
      <trkpt lat="45.41839" lon="4.67847">
        <ele>399.27563</ele>
        <time>2021-07-19T08:36:35Z</time>
      </trkpt>
      <trkpt lat="45.41835" lon="4.67851">
        <ele>399.48172</ele>
        <time>2021-07-19T08:36:36Z</time>
      </trkpt>
      <trkpt lat="45.41832" lon="4.67854">
        <ele>399.65613</ele>
        <time>2021-07-19T08:36:37Z</time>
      </trkpt>
      <trkpt lat="45.41828" lon="4.67856">
        <ele>399.598</ele>
        <time>2021-07-19T08:36:38Z</time>
      </trkpt>
      <trkpt lat="45.41824" lon="4.67859">
        <ele>400.06302</ele>
        <time>2021-07-19T08:36:39Z</time>
      </trkpt>
      <trkpt lat="45.41821" lon="4.67861">
        <ele>400.3167</ele>
        <time>2021-07-19T08:36:40Z</time>
      </trkpt>
      <trkpt lat="45.41817" lon="4.67863">
        <ele>400.46994</ele>
        <time>2021-07-19T08:36:41Z</time>
      </trkpt>
      <trkpt lat="45.41814" lon="4.67865">
        <ele>400.6285</ele>
        <time>2021-07-19T08:36:42Z</time>
      </trkpt>
      <trkpt lat="45.41809" lon="4.67866">
        <ele>400.68134</ele>
        <time>2021-07-19T08:36:43Z</time>
      </trkpt>
      <trkpt lat="45.41805" lon="4.67867">
        <ele>400.96143</ele>
        <time>2021-07-19T08:36:44Z</time>
      </trkpt>
      <trkpt lat="45.41801" lon="4.67868">
        <ele>401.04068</ele>
        <time>2021-07-19T08:36:45Z</time>
      </trkpt>
      <trkpt lat="45.41797" lon="4.67869">
        <ele>401.16226</ele>
        <time>2021-07-19T08:36:46Z</time>
      </trkpt>
      <trkpt lat="45.41792" lon="4.6787">
        <ele>401.42648</ele>
        <time>2021-07-19T08:36:47Z</time>
      </trkpt>
      <trkpt lat="45.41789" lon="4.67869">
        <ele>401.54272</ele>
        <time>2021-07-19T08:36:48Z</time>
      </trkpt>
      <trkpt lat="45.41786" lon="4.67869">
        <ele>401.7277</ele>
        <time>2021-07-19T08:36:49Z</time>
      </trkpt>
      <trkpt lat="45.41784" lon="4.67869">
        <ele>401.82812</ele>
        <time>2021-07-19T08:36:50Z</time>
      </trkpt>
      <trkpt lat="45.41782" lon="4.67868">
        <ele>402.0448</ele>
        <time>2021-07-19T08:36:51Z</time>
      </trkpt>
      <trkpt lat="45.41779" lon="4.67867">
        <ele>402.19278</ele>
        <time>2021-07-19T08:36:52Z</time>
      </trkpt>
      <trkpt lat="45.41777" lon="4.67867">
        <ele>402.3513</ele>
        <time>2021-07-19T08:36:53Z</time>
      </trkpt>
      <trkpt lat="45.41774" lon="4.67866">
        <ele>402.62082</ele>
        <time>2021-07-19T08:36:54Z</time>
      </trkpt>
      <trkpt lat="45.41772" lon="4.67867">
        <ele>402.7582</ele>
        <time>2021-07-19T08:36:55Z</time>
      </trkpt>
      <trkpt lat="45.4177" lon="4.67865">
        <ele>402.77408</ele>
        <time>2021-07-19T08:36:56Z</time>
      </trkpt>
      <trkpt lat="45.41768" lon="4.67864">
        <ele>403.08057</ele>
        <time>2021-07-19T08:36:57Z</time>
      </trkpt>
      <trkpt lat="45.41764" lon="4.67862">
        <ele>403.3818</ele>
        <time>2021-07-19T08:36:58Z</time>
      </trkpt>
      <trkpt lat="45.4176" lon="4.67857">
        <ele>403.56674</ele>
        <time>2021-07-19T08:36:59Z</time>
      </trkpt>
      <trkpt lat="45.41758" lon="4.67855">
        <ele>403.68832</ele>
        <time>2021-07-19T08:37:00Z</time>
      </trkpt>
      <trkpt lat="45.41755" lon="4.67852">
        <ele>403.7359</ele>
        <time>2021-07-19T08:37:01Z</time>
      </trkpt>
      <trkpt lat="45.41752" lon="4.6785">
        <ele>403.9631</ele>
        <time>2021-07-19T08:37:02Z</time>
      </trkpt>
      <trkpt lat="45.41748" lon="4.67845">
        <ele>404.10052</ele>
        <time>2021-07-19T08:37:03Z</time>
      </trkpt>
      <trkpt lat="45.41745" lon="4.67842">
        <ele>404.22736</ele>
        <time>2021-07-19T08:37:04Z</time>
      </trkpt>
      <trkpt lat="45.41744" lon="4.67839">
        <ele>404.33832</ele>
        <time>2021-07-19T08:37:05Z</time>
      </trkpt>
      <trkpt lat="45.41741" lon="4.67836">
        <ele>404.43875</ele>
        <time>2021-07-19T08:37:06Z</time>
      </trkpt>
      <trkpt lat="45.41739" lon="4.67832">
        <ele>404.87735</ele>
        <time>2021-07-19T08:37:07Z</time>
      </trkpt>
      <trkpt lat="45.41737" lon="4.67828">
        <ele>405.0993</ele>
        <time>2021-07-19T08:37:08Z</time>
      </trkpt>
      <trkpt lat="45.41734" lon="4.67824">
        <ele>405.4111</ele>
        <time>2021-07-19T08:37:09Z</time>
      </trkpt>
      <trkpt lat="45.41732" lon="4.67819">
        <ele>405.5908</ele>
        <time>2021-07-19T08:37:10Z</time>
      </trkpt>
      <trkpt lat="45.4173" lon="4.67814">
        <ele>405.73874</ele>
        <time>2021-07-19T08:37:11Z</time>
      </trkpt>
      <trkpt lat="45.41727" lon="4.67809">
        <ele>405.90784</ele>
        <time>2021-07-19T08:37:12Z</time>
      </trkpt>
      <trkpt lat="45.41725" lon="4.67804">
        <ele>406.17737</ele>
        <time>2021-07-19T08:37:13Z</time>
      </trkpt>
      <trkpt lat="45.41723" lon="4.67799">
        <ele>406.4469</ele>
        <time>2021-07-19T08:37:14Z</time>
      </trkpt>
      <trkpt lat="45.41721" lon="4.67794">
        <ele>406.67413</ele>
        <time>2021-07-19T08:37:15Z</time>
      </trkpt>
      <trkpt lat="45.41719" lon="4.67789">
        <ele>406.89078</ele>
        <time>2021-07-19T08:37:16Z</time>
      </trkpt>
      <trkpt lat="45.41718" lon="4.67786">
        <ele>407.01764</ele>
        <time>2021-07-19T08:37:17Z</time>
      </trkpt>
      <trkpt lat="45.41716" lon="4.67781">
        <ele>407.11276</ele>
        <time>2021-07-19T08:37:18Z</time>
      </trkpt>
      <trkpt lat="45.41714" lon="4.67778">
        <ele>407.4404</ele>
        <time>2021-07-19T08:37:19Z</time>
      </trkpt>
      <trkpt lat="45.41713" lon="4.67773">
        <ele>407.8103</ele>
        <time>2021-07-19T08:37:20Z</time>
      </trkpt>
      <trkpt lat="45.41711" lon="4.67769">
        <ele>407.94772</ele>
        <time>2021-07-19T08:37:21Z</time>
      </trkpt>
      <trkpt lat="45.41709" lon="4.67764">
        <ele>408.11685</ele>
        <time>2021-07-19T08:37:22Z</time>
      </trkpt>
      <trkpt lat="45.41708" lon="4.6776">
        <ele>408.48676</ele>
        <time>2021-07-19T08:37:23Z</time>
      </trkpt>
      <trkpt lat="45.41706" lon="4.67755">
        <ele>408.74573</ele>
        <time>2021-07-19T08:37:24Z</time>
      </trkpt>
      <trkpt lat="45.41704" lon="4.67751">
        <ele>408.94653</ele>
        <time>2021-07-19T08:37:25Z</time>
      </trkpt>
      <trkpt lat="45.41703" lon="4.67746">
        <ele>409.1262</ele>
        <time>2021-07-19T08:37:26Z</time>
      </trkpt>
      <trkpt lat="45.41701" lon="4.67741">
        <ele>409.24774</ele>
        <time>2021-07-19T08:37:27Z</time>
      </trkpt>
      <trkpt lat="45.417" lon="4.67736">
        <ele>409.62823</ele>
        <time>2021-07-19T08:37:28Z</time>
      </trkpt>
      <trkpt lat="45.41698" lon="4.6773">
        <ele>409.76562</ele>
        <time>2021-07-19T08:37:29Z</time>
      </trkpt>
      <trkpt lat="45.41697" lon="4.67725">
        <ele>409.89777</ele>
        <time>2021-07-19T08:37:30Z</time>
      </trkpt>
      <trkpt lat="45.41695" lon="4.67721">
        <ele>410.0246</ele>
        <time>2021-07-19T08:37:31Z</time>
      </trkpt>
      <trkpt lat="45.41694" lon="4.67715">
        <ele>410.08273</ele>
        <time>2021-07-19T08:37:32Z</time>
      </trkpt>
      <trkpt lat="45.41693" lon="4.67711">
        <ele>410.53192</ele>
        <time>2021-07-19T08:37:33Z</time>
      </trkpt>
      <trkpt lat="45.41692" lon="4.67706">
        <ele>410.78558</ele>
        <time>2021-07-19T08:37:34Z</time>
      </trkpt>
      <trkpt lat="45.4169" lon="4.677">
        <ele>410.82785</ele>
        <time>2021-07-19T08:37:35Z</time>
      </trkpt>
      <trkpt lat="45.41689" lon="4.67695">
        <ele>411.2506</ele>
        <time>2021-07-19T08:37:36Z</time>
      </trkpt>
      <trkpt lat="45.41687" lon="4.67689">
        <ele>411.2031</ele>
        <time>2021-07-19T08:37:37Z</time>
      </trkpt>
      <trkpt lat="45.41686" lon="4.67684">
        <ele>411.3986</ele>
        <time>2021-07-19T08:37:38Z</time>
      </trkpt>
      <trkpt lat="45.41684" lon="4.67679">
        <ele>411.89005</ele>
        <time>2021-07-19T08:37:39Z</time>
      </trkpt>
      <trkpt lat="45.41683" lon="4.67675">
        <ele>411.7791</ele>
        <time>2021-07-19T08:37:40Z</time>
      </trkpt>
      <trkpt lat="45.41681" lon="4.67667">
        <ele>411.9429</ele>
        <time>2021-07-19T08:37:41Z</time>
      </trkpt>
      <trkpt lat="45.41679" lon="4.67662">
        <ele>412.14374</ele>
        <time>2021-07-19T08:37:42Z</time>
      </trkpt>
      <trkpt lat="45.41677" lon="4.67655">
        <ele>412.54538</ele>
        <time>2021-07-19T08:37:43Z</time>
      </trkpt>
      <trkpt lat="45.41676" lon="4.67651">
        <ele>412.73032</ele>
        <time>2021-07-19T08:37:44Z</time>
      </trkpt>
      <trkpt lat="45.41673" lon="4.67644">
        <ele>413.03156</ele>
        <time>2021-07-19T08:37:45Z</time>
      </trkpt>
      <trkpt lat="45.41672" lon="4.67639">
        <ele>413.31693</ele>
        <time>2021-07-19T08:37:46Z</time>
      </trkpt>
      <trkpt lat="45.4167" lon="4.67632">
        <ele>413.51773</ele>
        <time>2021-07-19T08:37:47Z</time>
      </trkpt>
      <trkpt lat="45.41669" lon="4.67628">
        <ele>413.62872</ele>
        <time>2021-07-19T08:37:48Z</time>
      </trkpt>
      <trkpt lat="45.41668" lon="4.67621">
        <ele>413.92993</ele>
        <time>2021-07-19T08:37:49Z</time>
      </trkpt>
      <trkpt lat="45.41666" lon="4.67617">
        <ele>414.12546</ele>
        <time>2021-07-19T08:37:50Z</time>
      </trkpt>
      <trkpt lat="45.41665" lon="4.67611">
        <ele>414.31046</ele>
        <time>2021-07-19T08:37:51Z</time>
      </trkpt>
      <trkpt lat="45.41665" lon="4.67607">
        <ele>414.5271</ele>
        <time>2021-07-19T08:37:52Z</time>
      </trkpt>
      <trkpt lat="45.41663" lon="4.676">
        <ele>414.96573</ele>
        <time>2021-07-19T08:37:53Z</time>
      </trkpt>
      <trkpt lat="45.41662" lon="4.67596">
        <ele>415.1824</ele>
        <time>2021-07-19T08:37:54Z</time>
      </trkpt>
      <trkpt lat="45.41661" lon="4.6759">
        <ele>415.36737</ele>
        <time>2021-07-19T08:37:55Z</time>
      </trkpt>
      <trkpt lat="45.4166" lon="4.67585">
        <ele>415.49417</ele>
        <time>2021-07-19T08:37:56Z</time>
      </trkpt>
      <trkpt lat="45.41658" lon="4.67579">
        <ele>415.58932</ele>
        <time>2021-07-19T08:37:57Z</time>
      </trkpt>
      <trkpt lat="45.41657" lon="4.67574">
        <ele>415.53647</ele>
        <time>2021-07-19T08:37:58Z</time>
      </trkpt>
      <trkpt lat="45.41656" lon="4.67568">
        <ele>415.75842</ele>
        <time>2021-07-19T08:37:59Z</time>
      </trkpt>
      <trkpt lat="45.41655" lon="4.67564">
        <ele>415.91165</ele>
        <time>2021-07-19T08:38:00Z</time>
      </trkpt>
      <trkpt lat="45.41653" lon="4.67557">
        <ele>416.23404</ele>
        <time>2021-07-19T08:38:01Z</time>
      </trkpt>
      <trkpt lat="45.41652" lon="4.67553">
        <ele>416.50885</ele>
        <time>2021-07-19T08:38:02Z</time>
      </trkpt>
      <trkpt lat="45.41651" lon="4.67547">
        <ele>416.75192</ele>
        <time>2021-07-19T08:38:03Z</time>
      </trkpt>
      <trkpt lat="45.4165" lon="4.67543">
        <ele>416.9369</ele>
        <time>2021-07-19T08:38:04Z</time>
      </trkpt>
      <trkpt lat="45.41649" lon="4.67538">
        <ele>417.13245</ele>
        <time>2021-07-19T08:38:05Z</time>
      </trkpt>
      <trkpt lat="45.41648" lon="4.67534">
        <ele>417.4442</ele>
        <time>2021-07-19T08:38:06Z</time>
      </trkpt>
      <trkpt lat="45.41647" lon="4.67527">
        <ele>417.5552</ele>
        <time>2021-07-19T08:38:07Z</time>
      </trkpt>
      <trkpt lat="45.41647" lon="4.67523">
        <ele>417.84586</ele>
        <time>2021-07-19T08:38:08Z</time>
      </trkpt>
      <trkpt lat="45.41646" lon="4.67517">
        <ele>418.18936</ele>
        <time>2021-07-19T08:38:09Z</time>
      </trkpt>
      <trkpt lat="45.41645" lon="4.67513">
        <ele>418.33206</ele>
        <time>2021-07-19T08:38:10Z</time>
      </trkpt>
      <trkpt lat="45.41645" lon="4.67506">
        <ele>418.44302</ele>
        <time>2021-07-19T08:38:11Z</time>
      </trkpt>
      <trkpt lat="45.41644" lon="4.67502">
        <ele>418.74426</ele>
        <time>2021-07-19T08:38:12Z</time>
      </trkpt>
      <trkpt lat="45.41644" lon="4.67495">
        <ele>419.11945</ele>
        <time>2021-07-19T08:38:13Z</time>
      </trkpt>
      <trkpt lat="45.41643" lon="4.67491">
        <ele>419.23044</ele>
        <time>2021-07-19T08:38:14Z</time>
      </trkpt>
      <trkpt lat="45.41642" lon="4.67485">
        <ele>419.2991</ele>
        <time>2021-07-19T08:38:15Z</time>
      </trkpt>
      <trkpt lat="45.41642" lon="4.6748">
        <ele>419.47882</ele>
        <time>2021-07-19T08:38:16Z</time>
      </trkpt>
      <trkpt lat="45.41641" lon="4.67474">
        <ele>419.84872</ele>
        <time>2021-07-19T08:38:17Z</time>
      </trkpt>
      <trkpt lat="45.41641" lon="4.67469">
        <ele>420.11826</ele>
        <time>2021-07-19T08:38:18Z</time>
      </trkpt>
      <trkpt lat="45.41641" lon="4.67463">
        <ele>420.29266</ele>
        <time>2021-07-19T08:38:19Z</time>
      </trkpt>
      <trkpt lat="45.4164" lon="4.67459">
        <ele>420.36664</ele>
        <time>2021-07-19T08:38:20Z</time>
      </trkpt>
      <trkpt lat="45.41639" lon="4.67452">
        <ele>420.44064</ele>
        <time>2021-07-19T08:38:21Z</time>
      </trkpt>
      <trkpt lat="45.41639" lon="4.67447">
        <ele>420.64145</ele>
        <time>2021-07-19T08:38:22Z</time>
      </trkpt>
      <trkpt lat="45.41638" lon="4.67441">
        <ele>420.78415</ele>
        <time>2021-07-19T08:38:23Z</time>
      </trkpt>
      <trkpt lat="45.41638" lon="4.67436">
        <ele>420.95322</ele>
        <time>2021-07-19T08:38:24Z</time>
      </trkpt>
      <trkpt lat="45.41637" lon="4.67431">
        <ele>421.2016</ele>
        <time>2021-07-19T08:38:25Z</time>
      </trkpt>
      <trkpt lat="45.41637" lon="4.67425">
        <ele>421.38657</ele>
        <time>2021-07-19T08:38:26Z</time>
      </trkpt>
      <trkpt lat="45.41636" lon="4.67421">
        <ele>421.59268</ele>
        <time>2021-07-19T08:38:27Z</time>
      </trkpt>
      <trkpt lat="45.41636" lon="4.67416">
        <ele>421.99432</ele>
        <time>2021-07-19T08:38:28Z</time>
      </trkpt>
      <trkpt lat="45.41635" lon="4.67411">
        <ele>422.22684</ele>
        <time>2021-07-19T08:38:29Z</time>
      </trkpt>
      <trkpt lat="45.41634" lon="4.67406">
        <ele>422.31137</ele>
        <time>2021-07-19T08:38:30Z</time>
      </trkpt>
      <trkpt lat="45.41634" lon="4.67401">
        <ele>422.31665</ele>
        <time>2021-07-19T08:38:31Z</time>
      </trkpt>
      <trkpt lat="45.41634" lon="4.67396">
        <ele>422.4118</ele>
        <time>2021-07-19T08:38:32Z</time>
      </trkpt>
      <trkpt lat="45.41633" lon="4.67391">
        <ele>422.62848</ele>
        <time>2021-07-19T08:38:33Z</time>
      </trkpt>
      <trkpt lat="45.41633" lon="4.67386">
        <ele>422.77643</ele>
        <time>2021-07-19T08:38:34Z</time>
      </trkpt>
      <trkpt lat="45.41633" lon="4.67381">
        <ele>423.00366</ele>
        <time>2021-07-19T08:38:35Z</time>
      </trkpt>
      <trkpt lat="45.41633" lon="4.67377">
        <ele>423.17807</ele>
        <time>2021-07-19T08:38:36Z</time>
      </trkpt>
      <trkpt lat="45.41632" lon="4.67372">
        <ele>423.41586</ele>
        <time>2021-07-19T08:38:37Z</time>
      </trkpt>
      <trkpt lat="45.41632" lon="4.67367">
        <ele>423.5374</ele>
        <time>2021-07-19T08:38:38Z</time>
      </trkpt>
      <trkpt lat="45.41631" lon="4.67363">
        <ele>423.6801</ele>
        <time>2021-07-19T08:38:39Z</time>
      </trkpt>
      <trkpt lat="45.41631" lon="4.67358">
        <ele>424.0183</ele>
        <time>2021-07-19T08:38:40Z</time>
      </trkpt>
      <trkpt lat="45.41631" lon="4.67353">
        <ele>424.309</ele>
        <time>2021-07-19T08:38:41Z</time>
      </trkpt>
      <trkpt lat="45.4163" lon="4.67348">
        <ele>424.55206</ele>
        <time>2021-07-19T08:38:42Z</time>
      </trkpt>
      <trkpt lat="45.4163" lon="4.67343">
        <ele>424.6736</ele>
        <time>2021-07-19T08:38:43Z</time>
      </trkpt>
      <trkpt lat="45.4163" lon="4.67339">
        <ele>424.92728</ele>
        <time>2021-07-19T08:38:44Z</time>
      </trkpt>
      <trkpt lat="45.41629" lon="4.67334">
        <ele>425.23907</ele>
        <time>2021-07-19T08:38:45Z</time>
      </trkpt>
      <trkpt lat="45.41629" lon="4.67329">
        <ele>425.40817</ele>
        <time>2021-07-19T08:38:46Z</time>
      </trkpt>
      <trkpt lat="45.4163" lon="4.67324">
        <ele>425.66183</ele>
        <time>2021-07-19T08:38:47Z</time>
      </trkpt>
      <trkpt lat="45.4163" lon="4.67319">
        <ele>426.0265</ele>
        <time>2021-07-19T08:38:48Z</time>
      </trkpt>
      <trkpt lat="45.4163" lon="4.67315">
        <ele>426.10574</ele>
        <time>2021-07-19T08:38:49Z</time>
      </trkpt>
      <trkpt lat="45.41629" lon="4.6731">
        <ele>426.21146</ele>
        <time>2021-07-19T08:38:50Z</time>
      </trkpt>
      <trkpt lat="45.41629" lon="4.67304">
        <ele>426.3964</ele>
        <time>2021-07-19T08:38:51Z</time>
      </trkpt>
      <trkpt lat="45.41629" lon="4.67299">
        <ele>426.56552</ele>
        <time>2021-07-19T08:38:52Z</time>
      </trkpt>
      <trkpt lat="45.41629" lon="4.67294">
        <ele>426.72934</ele>
        <time>2021-07-19T08:38:53Z</time>
      </trkpt>
      <trkpt lat="45.41629" lon="4.67289">
        <ele>427.00415</ele>
        <time>2021-07-19T08:38:54Z</time>
      </trkpt>
      <trkpt lat="45.41629" lon="4.67284">
        <ele>427.1521</ele>
        <time>2021-07-19T08:38:55Z</time>
      </trkpt>
      <trkpt lat="45.41629" lon="4.6728">
        <ele>427.27368</ele>
        <time>2021-07-19T08:38:56Z</time>
      </trkpt>
      <trkpt lat="45.41629" lon="4.67275">
        <ele>427.4956</ele>
        <time>2021-07-19T08:38:57Z</time>
      </trkpt>
      <trkpt lat="45.41629" lon="4.6727">
        <ele>427.707</ele>
        <time>2021-07-19T08:38:58Z</time>
      </trkpt>
      <trkpt lat="45.41629" lon="4.67265">
        <ele>427.91312</ele>
        <time>2021-07-19T08:38:59Z</time>
      </trkpt>
      <trkpt lat="45.41628" lon="4.67261">
        <ele>428.04523</ele>
        <time>2021-07-19T08:39:00Z</time>
      </trkpt>
      <trkpt lat="45.41628" lon="4.67256">
        <ele>428.34116</ele>
        <time>2021-07-19T08:39:01Z</time>
      </trkpt>
      <trkpt lat="45.41627" lon="4.67251">
        <ele>428.62125</ele>
        <time>2021-07-19T08:39:02Z</time>
      </trkpt>
      <trkpt lat="45.41627" lon="4.67246">
        <ele>428.81146</ele>
        <time>2021-07-19T08:39:03Z</time>
      </trkpt>
      <trkpt lat="45.41626" lon="4.67241">
        <ele>429.22366</ele>
        <time>2021-07-19T08:39:04Z</time>
      </trkpt>
      <trkpt lat="45.41626" lon="4.67237">
        <ele>429.5302</ele>
        <time>2021-07-19T08:39:05Z</time>
      </trkpt>
      <trkpt lat="45.41626" lon="4.67233">
        <ele>429.58304</ele>
        <time>2021-07-19T08:39:06Z</time>
      </trkpt>
      <trkpt lat="45.41626" lon="4.67228">
        <ele>429.77856</ele>
        <time>2021-07-19T08:39:07Z</time>
      </trkpt>
      <trkpt lat="45.41626" lon="4.67224">
        <ele>429.92654</ele>
        <time>2021-07-19T08:39:08Z</time>
      </trkpt>
      <trkpt lat="45.41626" lon="4.67219">
        <ele>430.20132</ele>
        <time>2021-07-19T08:39:09Z</time>
      </trkpt>
      <trkpt lat="45.41626" lon="4.67214">
        <ele>430.31763</ele>
        <time>2021-07-19T08:39:10Z</time>
      </trkpt>
      <trkpt lat="45.41626" lon="4.67209">
        <ele>430.43918</ele>
        <time>2021-07-19T08:39:11Z</time>
      </trkpt>
      <trkpt lat="45.41626" lon="4.67203">
        <ele>430.61884</ele>
        <time>2021-07-19T08:39:12Z</time>
      </trkpt>
      <trkpt lat="45.41626" lon="4.67197">
        <ele>430.70337</ele>
        <time>2021-07-19T08:39:13Z</time>
      </trkpt>
      <trkpt lat="45.41627" lon="4.67192">
        <ele>430.92532</ele>
        <time>2021-07-19T08:39:14Z</time>
      </trkpt>
      <trkpt lat="45.41627" lon="4.67188">
        <ele>431.23184</ele>
        <time>2021-07-19T08:39:15Z</time>
      </trkpt>
      <trkpt lat="45.41627" lon="4.67183">
        <ele>431.61234</ele>
        <time>2021-07-19T08:39:16Z</time>
      </trkpt>
      <trkpt lat="45.41627" lon="4.67178">
        <ele>431.79202</ele>
        <time>2021-07-19T08:39:17Z</time>
      </trkpt>
      <trkpt lat="45.41627" lon="4.67174">
        <ele>432.17252</ele>
        <time>2021-07-19T08:39:18Z</time>
      </trkpt>
      <trkpt lat="45.41626" lon="4.67169">
        <ele>432.20422</ele>
        <time>2021-07-19T08:39:19Z</time>
      </trkpt>
      <trkpt lat="45.41626" lon="4.67164">
        <ele>432.22537</ele>
        <time>2021-07-19T08:39:20Z</time>
      </trkpt>
      <trkpt lat="45.41626" lon="4.67158">
        <ele>432.71683</ele>
        <time>2021-07-19T08:39:21Z</time>
      </trkpt>
      <trkpt lat="45.41626" lon="4.67154">
        <ele>432.59</ele>
        <time>2021-07-19T08:39:22Z</time>
      </trkpt>
      <trkpt lat="45.41625" lon="4.6715">
        <ele>432.62173</ele>
        <time>2021-07-19T08:39:23Z</time>
      </trkpt>
      <trkpt lat="45.41625" lon="4.67145">
        <ele>433.06033</ele>
        <time>2021-07-19T08:39:24Z</time>
      </trkpt>
      <trkpt lat="45.41625" lon="4.67142">
        <ele>433.21887</ele>
        <time>2021-07-19T08:39:25Z</time>
      </trkpt>
      <trkpt lat="45.41625" lon="4.67138">
        <ele>433.49896</ele>
        <time>2021-07-19T08:39:26Z</time>
      </trkpt>
      <trkpt lat="45.41625" lon="4.67133">
        <ele>433.6469</ele>
        <time>2021-07-19T08:39:27Z</time>
      </trkpt>
      <trkpt lat="45.41625" lon="4.67128">
        <ele>433.88474</ele>
        <time>2021-07-19T08:39:28Z</time>
      </trkpt>
      <trkpt lat="45.41625" lon="4.67123">
        <ele>433.93228</ele>
        <time>2021-07-19T08:39:29Z</time>
      </trkpt>
      <trkpt lat="45.41626" lon="4.67118">
        <ele>434.14368</ele>
        <time>2021-07-19T08:39:30Z</time>
      </trkpt>
      <trkpt lat="45.41626" lon="4.67113">
        <ele>434.614</ele>
        <time>2021-07-19T08:39:31Z</time>
      </trkpt>
      <trkpt lat="45.41626" lon="4.67108">
        <ele>434.57175</ele>
        <time>2021-07-19T08:39:32Z</time>
      </trkpt>
      <trkpt lat="45.41626" lon="4.67103">
        <ele>434.74615</ele>
        <time>2021-07-19T08:39:33Z</time>
      </trkpt>
      <trkpt lat="45.41626" lon="4.67098">
        <ele>435.03152</ele>
        <time>2021-07-19T08:39:34Z</time>
      </trkpt>
      <trkpt lat="45.41626" lon="4.67094">
        <ele>435.2429</ele>
        <time>2021-07-19T08:39:35Z</time>
      </trkpt>
      <trkpt lat="45.41626" lon="4.67089">
        <ele>435.5177</ele>
        <time>2021-07-19T08:39:36Z</time>
      </trkpt>
      <trkpt lat="45.41626" lon="4.67084">
        <ele>435.8242</ele>
        <time>2021-07-19T08:39:37Z</time>
      </trkpt>
      <trkpt lat="45.41627" lon="4.67079">
        <ele>435.9669</ele>
        <time>2021-07-19T08:39:38Z</time>
      </trkpt>
      <trkpt lat="45.41628" lon="4.67074">
        <ele>436.12543</ele>
        <time>2021-07-19T08:39:39Z</time>
      </trkpt>
      <trkpt lat="45.41628" lon="4.6707">
        <ele>436.34207</ele>
        <time>2021-07-19T08:39:40Z</time>
      </trkpt>
      <trkpt lat="45.41629" lon="4.67064">
        <ele>436.60104</ele>
        <time>2021-07-19T08:39:41Z</time>
      </trkpt>
      <trkpt lat="45.41629" lon="4.6706">
        <ele>436.74902</ele>
        <time>2021-07-19T08:39:42Z</time>
      </trkpt>
      <trkpt lat="45.41631" lon="4.67054">
        <ele>437.02908</ele>
        <time>2021-07-19T08:39:43Z</time>
      </trkpt>
      <trkpt lat="45.41631" lon="4.67049">
        <ele>437.21408</ele>
        <time>2021-07-19T08:39:44Z</time>
      </trkpt>
      <trkpt lat="45.41631" lon="4.67044">
        <ele>437.40958</ele>
        <time>2021-07-19T08:39:45Z</time>
      </trkpt>
      <trkpt lat="45.41632" lon="4.67039">
        <ele>437.6791</ele>
        <time>2021-07-19T08:39:46Z</time>
      </trkpt>
      <trkpt lat="45.41633" lon="4.67033">
        <ele>437.86935</ele>
        <time>2021-07-19T08:39:47Z</time>
      </trkpt>
      <trkpt lat="45.41633" lon="4.67028">
        <ele>438.23926</ele>
        <time>2021-07-19T08:39:48Z</time>
      </trkpt>
      <trkpt lat="45.41633" lon="4.67023">
        <ele>438.2921</ele>
        <time>2021-07-19T08:39:49Z</time>
      </trkpt>
      <trkpt lat="45.41634" lon="4.67019">
        <ele>438.59335</ele>
        <time>2021-07-19T08:39:50Z</time>
      </trkpt>
      <trkpt lat="45.41634" lon="4.67015">
        <ele>438.87872</ele>
        <time>2021-07-19T08:39:51Z</time>
      </trkpt>
      <trkpt lat="45.41634" lon="4.67011">
        <ele>439.1271</ele>
        <time>2021-07-19T08:39:52Z</time>
      </trkpt>
      <trkpt lat="45.41634" lon="4.67006">
        <ele>439.44946</ele>
        <time>2021-07-19T08:39:53Z</time>
      </trkpt>
      <trkpt lat="45.41635" lon="4.67002">
        <ele>439.571</ele>
        <time>2021-07-19T08:39:54Z</time>
      </trkpt>
      <trkpt lat="45.41636" lon="4.66997">
        <ele>439.6873</ele>
        <time>2021-07-19T08:39:55Z</time>
      </trkpt>
      <trkpt lat="45.41636" lon="4.66992">
        <ele>439.90924</ele>
        <time>2021-07-19T08:39:56Z</time>
      </trkpt>
      <trkpt lat="45.41637" lon="4.66988">
        <ele>440.1259</ele>
        <time>2021-07-19T08:39:57Z</time>
      </trkpt>
      <trkpt lat="45.41638" lon="4.66982">
        <ele>440.31616</ele>
        <time>2021-07-19T08:39:58Z</time>
      </trkpt>
      <trkpt lat="45.41639" lon="4.66977">
        <ele>440.72308</ele>
        <time>2021-07-19T08:39:59Z</time>
      </trkpt>
      <trkpt lat="45.41639" lon="4.66972">
        <ele>440.7812</ele>
        <time>2021-07-19T08:40:00Z</time>
      </trkpt>
      <trkpt lat="45.4164" lon="4.66967">
        <ele>441.0877</ele>
        <time>2021-07-19T08:40:01Z</time>
      </trkpt>
      <trkpt lat="45.41641" lon="4.66962">
        <ele>441.34665</ele>
        <time>2021-07-19T08:40:02Z</time>
      </trkpt>
      <trkpt lat="45.41642" lon="4.66957">
        <ele>441.44177</ele>
        <time>2021-07-19T08:40:03Z</time>
      </trkpt>
      <trkpt lat="45.41642" lon="4.66952">
        <ele>441.61087</ele>
        <time>2021-07-19T08:40:04Z</time>
      </trkpt>
      <trkpt lat="45.41643" lon="4.66947">
        <ele>441.84338</ele>
        <time>2021-07-19T08:40:05Z</time>
      </trkpt>
      <trkpt lat="45.41644" lon="4.66942">
        <ele>441.93326</ele>
        <time>2021-07-19T08:40:06Z</time>
      </trkpt>
      <trkpt lat="45.41644" lon="4.66937">
        <ele>442.41943</ele>
        <time>2021-07-19T08:40:07Z</time>
      </trkpt>
      <trkpt lat="45.41645" lon="4.66932">
        <ele>442.75763</ele>
        <time>2021-07-19T08:40:08Z</time>
      </trkpt>
      <trkpt lat="45.41645" lon="4.66927">
        <ele>442.72595</ele>
        <time>2021-07-19T08:40:09Z</time>
      </trkpt>
      <trkpt lat="45.41647" lon="4.66922">
        <ele>443.00073</ele>
        <time>2021-07-19T08:40:10Z</time>
      </trkpt>
      <trkpt lat="45.41647" lon="4.66917">
        <ele>443.27554</ele>
        <time>2021-07-19T08:40:11Z</time>
      </trkpt>
      <trkpt lat="45.41648" lon="4.66913">
        <ele>443.3654</ele>
        <time>2021-07-19T08:40:12Z</time>
      </trkpt>
      <trkpt lat="45.41649" lon="4.66908">
        <ele>443.52393</ele>
        <time>2021-07-19T08:40:13Z</time>
      </trkpt>
      <trkpt lat="45.4165" lon="4.66904">
        <ele>443.48694</ele>
        <time>2021-07-19T08:40:14Z</time>
      </trkpt>
      <trkpt lat="45.4165" lon="4.669">
        <ele>443.37067</ele>
        <time>2021-07-19T08:40:15Z</time>
      </trkpt>
      <trkpt lat="45.41652" lon="4.66896">
        <ele>443.4552</ele>
        <time>2021-07-19T08:40:16Z</time>
      </trkpt>
      <trkpt lat="45.41652" lon="4.66891">
        <ele>443.66132</ele>
        <time>2021-07-19T08:40:17Z</time>
      </trkpt>
      <trkpt lat="45.41653" lon="4.66886">
        <ele>443.83044</ele>
        <time>2021-07-19T08:40:18Z</time>
      </trkpt>
      <trkpt lat="45.41655" lon="4.66882">
        <ele>443.878</ele>
        <time>2021-07-19T08:40:19Z</time>
      </trkpt>
      <trkpt lat="45.41655" lon="4.66878">
        <ele>444.02066</ele>
        <time>2021-07-19T08:40:20Z</time>
      </trkpt>
      <trkpt lat="45.41657" lon="4.66874">
        <ele>444.20035</ele>
        <time>2021-07-19T08:40:21Z</time>
      </trkpt>
      <trkpt lat="45.41658" lon="4.6687">
        <ele>444.528</ele>
        <time>2021-07-19T08:40:22Z</time>
      </trkpt>
      <trkpt lat="45.4166" lon="4.66867">
        <ele>444.81866</ele>
        <time>2021-07-19T08:40:23Z</time>
      </trkpt>
      <trkpt lat="45.41662" lon="4.66865">
        <ele>444.9402</ele>
        <time>2021-07-19T08:40:24Z</time>
      </trkpt>
      <trkpt lat="45.41665" lon="4.66863">
        <ele>445.1093</ele>
        <time>2021-07-19T08:40:25Z</time>
      </trkpt>
      <trkpt lat="45.41667" lon="4.66863">
        <ele>445.22556</ele>
        <time>2021-07-19T08:40:26Z</time>
      </trkpt>
      <trkpt lat="45.4167" lon="4.66864">
        <ele>445.46866</ele>
        <time>2021-07-19T08:40:27Z</time>
      </trkpt>
      <trkpt lat="45.41672" lon="4.66865">
        <ele>445.72763</ele>
        <time>2021-07-19T08:40:28Z</time>
      </trkpt>
      <trkpt lat="45.41675" lon="4.66867">
        <ele>445.93903</ele>
        <time>2021-07-19T08:40:29Z</time>
      </trkpt>
      <trkpt lat="45.41677" lon="4.6687">
        <ele>446.3829</ele>
        <time>2021-07-19T08:40:30Z</time>
      </trkpt>
      <trkpt lat="45.41679" lon="4.66875">
        <ele>446.65244</ele>
        <time>2021-07-19T08:40:31Z</time>
      </trkpt>
      <trkpt lat="45.4168" lon="4.66879">
        <ele>446.83737</ele>
        <time>2021-07-19T08:40:32Z</time>
      </trkpt>
      <trkpt lat="45.41681" lon="4.66884">
        <ele>446.90607</ele>
        <time>2021-07-19T08:40:33Z</time>
      </trkpt>
      <trkpt lat="45.41681" lon="4.6689">
        <ele>447.15448</ele>
        <time>2021-07-19T08:40:34Z</time>
      </trkpt>
      <trkpt lat="45.4168" lon="4.66895">
        <ele>447.16504</ele>
        <time>2021-07-19T08:40:35Z</time>
      </trkpt>
      <trkpt lat="45.4168" lon="4.669">
        <ele>447.52966</ele>
        <time>2021-07-19T08:40:36Z</time>
      </trkpt>
      <trkpt lat="45.41679" lon="4.66905">
        <ele>447.4557</ele>
        <time>2021-07-19T08:40:37Z</time>
      </trkpt>
      <trkpt lat="45.41679" lon="4.6691">
        <ele>447.50854</ele>
        <time>2021-07-19T08:40:38Z</time>
      </trkpt>
      <trkpt lat="45.41679" lon="4.66915">
        <ele>447.7305</ele>
        <time>2021-07-19T08:40:39Z</time>
      </trkpt>
      <trkpt lat="45.41678" lon="4.6692">
        <ele>447.78864</ele>
        <time>2021-07-19T08:40:40Z</time>
      </trkpt>
      <trkpt lat="45.41679" lon="4.66925">
        <ele>447.97357</ele>
        <time>2021-07-19T08:40:41Z</time>
      </trkpt>
      <trkpt lat="45.41678" lon="4.66931">
        <ele>448.12686</ele>
        <time>2021-07-19T08:40:42Z</time>
      </trkpt>
      <trkpt lat="45.41678" lon="4.66937">
        <ele>448.24838</ele>
        <time>2021-07-19T08:40:43Z</time>
      </trkpt>
      <trkpt lat="45.41677" lon="4.66943">
        <ele>448.61832</ele>
        <time>2021-07-19T08:40:44Z</time>
      </trkpt>
      <trkpt lat="45.41677" lon="4.66949">
        <ele>448.67114</ele>
        <time>2021-07-19T08:40:45Z</time>
      </trkpt>
      <trkpt lat="45.41676" lon="4.66954">
        <ele>448.92484</ele>
        <time>2021-07-19T08:40:46Z</time>
      </trkpt>
      <trkpt lat="45.41677" lon="4.66959">
        <ele>449.0464</ele>
        <time>2021-07-19T08:40:47Z</time>
      </trkpt>
      <trkpt lat="45.41677" lon="4.66965">
        <ele>449.11508</ele>
        <time>2021-07-19T08:40:48Z</time>
      </trkpt>
      <trkpt lat="45.41677" lon="4.6697">
        <ele>449.1785</ele>
        <time>2021-07-19T08:40:49Z</time>
      </trkpt>
      <trkpt lat="45.41677" lon="4.66976">
        <ele>449.25778</ele>
        <time>2021-07-19T08:40:50Z</time>
      </trkpt>
      <trkpt lat="45.41678" lon="4.66982">
        <ele>449.559</ele>
        <time>2021-07-19T08:40:51Z</time>
      </trkpt>
      <trkpt lat="45.41678" lon="4.66987">
        <ele>449.63824</ele>
        <time>2021-07-19T08:40:52Z</time>
      </trkpt>
      <trkpt lat="45.41678" lon="4.66992">
        <ele>450.02933</ele>
        <time>2021-07-19T08:40:53Z</time>
      </trkpt>
      <trkpt lat="45.41679" lon="4.66998">
        <ele>450.3728</ele>
        <time>2021-07-19T08:40:54Z</time>
      </trkpt>
      <trkpt lat="45.41679" lon="4.67004">
        <ele>450.55777</ele>
        <time>2021-07-19T08:40:55Z</time>
      </trkpt>
      <trkpt lat="45.4168" lon="4.67009">
        <ele>450.5895</ele>
        <time>2021-07-19T08:40:56Z</time>
      </trkpt>
      <trkpt lat="45.41681" lon="4.67015">
        <ele>450.80087</ele>
        <time>2021-07-19T08:40:57Z</time>
      </trkpt>
      <trkpt lat="45.41682" lon="4.6702">
        <ele>451.0598</ele>
        <time>2021-07-19T08:40:58Z</time>
      </trkpt>
      <trkpt lat="45.41683" lon="4.67025">
        <ele>451.25534</ele>
        <time>2021-07-19T08:40:59Z</time>
      </trkpt>
      <trkpt lat="45.41684" lon="4.6703">
        <ele>451.3082</ele>
        <time>2021-07-19T08:41:00Z</time>
      </trkpt>
      <trkpt lat="45.41685" lon="4.67035">
        <ele>451.39804</ele>
        <time>2021-07-19T08:41:01Z</time>
      </trkpt>
      <trkpt lat="45.41686" lon="4.67041">
        <ele>451.70453</ele>
        <time>2021-07-19T08:41:02Z</time>
      </trkpt>
      <trkpt lat="45.41686" lon="4.67046">
        <ele>451.8525</ele>
        <time>2021-07-19T08:41:03Z</time>
      </trkpt>
      <trkpt lat="45.41687" lon="4.67051">
        <ele>452.08505</ele>
        <time>2021-07-19T08:41:04Z</time>
      </trkpt>
      <trkpt lat="45.41689" lon="4.67056">
        <ele>452.38098</ele>
        <time>2021-07-19T08:41:05Z</time>
      </trkpt>
      <trkpt lat="45.4169" lon="4.67061">
        <ele>452.43384</ele>
        <time>2021-07-19T08:41:06Z</time>
      </trkpt>
      <trkpt lat="45.41692" lon="4.67067">
        <ele>452.50253</ele>
        <time>2021-07-19T08:41:07Z</time>
      </trkpt>
      <trkpt lat="45.41693" lon="4.67072">
        <ele>452.7245</ele>
        <time>2021-07-19T08:41:08Z</time>
      </trkpt>
      <trkpt lat="45.41694" lon="4.67077">
        <ele>452.9993</ele>
        <time>2021-07-19T08:41:09Z</time>
      </trkpt>
      <trkpt lat="45.41695" lon="4.67082">
        <ele>453.17368</ele>
        <time>2021-07-19T08:41:10Z</time>
      </trkpt>
      <trkpt lat="45.41697" lon="4.67087">
        <ele>453.3692</ele>
        <time>2021-07-19T08:41:11Z</time>
      </trkpt>
      <trkpt lat="45.41699" lon="4.67092">
        <ele>453.44318</ele>
        <time>2021-07-19T08:41:12Z</time>
      </trkpt>
      <trkpt lat="45.41701" lon="4.67097">
        <ele>453.52246</ele>
        <time>2021-07-19T08:41:13Z</time>
      </trkpt>
      <trkpt lat="45.41703" lon="4.67101">
        <ele>453.72855</ele>
        <time>2021-07-19T08:41:14Z</time>
      </trkpt>
      <trkpt lat="45.41705" lon="4.67104">
        <ele>454.14078</ele>
        <time>2021-07-19T08:41:15Z</time>
      </trkpt>
      <trkpt lat="45.41708" lon="4.67109">
        <ele>454.23587</ele>
        <time>2021-07-19T08:41:16Z</time>
      </trkpt>
      <trkpt lat="45.4171" lon="4.67113">
        <ele>454.26233</ele>
        <time>2021-07-19T08:41:17Z</time>
      </trkpt>
      <trkpt lat="45.41713" lon="4.67117">
        <ele>454.5952</ele>
        <time>2021-07-19T08:41:18Z</time>
      </trkpt>
      <trkpt lat="45.41716" lon="4.67121">
        <ele>454.58994</ele>
        <time>2021-07-19T08:41:19Z</time>
      </trkpt>
      <trkpt lat="45.41718" lon="4.67124">
        <ele>454.82248</ele>
        <time>2021-07-19T08:41:20Z</time>
      </trkpt>
      <trkpt lat="45.41721" lon="4.67127">
        <ele>454.93872</ele>
        <time>2021-07-19T08:41:21Z</time>
      </trkpt>
      <trkpt lat="45.41723" lon="4.67131">
        <ele>455.15012</ele>
        <time>2021-07-19T08:41:22Z</time>
      </trkpt>
      <trkpt lat="45.41726" lon="4.67134">
        <ele>455.23465</ele>
        <time>2021-07-19T08:41:23Z</time>
      </trkpt>
      <trkpt lat="45.41728" lon="4.67138">
        <ele>455.29282</ele>
        <time>2021-07-19T08:41:24Z</time>
      </trkpt>
      <trkpt lat="45.41731" lon="4.67141">
        <ele>455.48306</ele>
        <time>2021-07-19T08:41:25Z</time>
      </trkpt>
      <trkpt lat="45.41733" lon="4.67145">
        <ele>455.62045</ele>
        <time>2021-07-19T08:41:26Z</time>
      </trkpt>
      <trkpt lat="45.41736" lon="4.67148">
        <ele>455.742</ele>
        <time>2021-07-19T08:41:27Z</time>
      </trkpt>
      <trkpt lat="45.4174" lon="4.6715">
        <ele>455.93753</ele>
        <time>2021-07-19T08:41:28Z</time>
      </trkpt>
      <trkpt lat="45.41744" lon="4.67152">
        <ele>456.06964</ele>
        <time>2021-07-19T08:41:29Z</time>
      </trkpt>
      <trkpt lat="45.41747" lon="4.67153">
        <ele>456.17007</ele>
        <time>2021-07-19T08:41:30Z</time>
      </trkpt>
      <trkpt lat="45.4175" lon="4.67154">
        <ele>456.2916</ele>
        <time>2021-07-19T08:41:31Z</time>
      </trkpt>
      <trkpt lat="45.41754" lon="4.67155">
        <ele>456.47128</ele>
        <time>2021-07-19T08:41:32Z</time>
      </trkpt>
      <trkpt lat="45.41757" lon="4.67155">
        <ele>456.73026</ele>
        <time>2021-07-19T08:41:33Z</time>
      </trkpt>
      <trkpt lat="45.4176" lon="4.67154">
        <ele>456.98917</ele>
        <time>2021-07-19T08:41:34Z</time>
      </trkpt>
      <trkpt lat="45.41765" lon="4.67153">
        <ele>457.0896</ele>
        <time>2021-07-19T08:41:35Z</time>
      </trkpt>
      <trkpt lat="45.41769" lon="4.6715">
        <ele>457.30627</ele>
        <time>2021-07-19T08:41:36Z</time>
      </trkpt>
      <trkpt lat="45.41773" lon="4.67148">
        <ele>457.5599</ele>
        <time>2021-07-19T08:41:37Z</time>
      </trkpt>
      <trkpt lat="45.41776" lon="4.67147">
        <ele>457.6445</ele>
        <time>2021-07-19T08:41:38Z</time>
      </trkpt>
      <trkpt lat="45.41779" lon="4.67145">
        <ele>457.7819</ele>
        <time>2021-07-19T08:41:39Z</time>
      </trkpt>
      <trkpt lat="45.41784" lon="4.67141">
        <ele>457.89813</ele>
        <time>2021-07-19T08:41:40Z</time>
      </trkpt>
      <trkpt lat="45.41787" lon="4.67138">
        <ele>458.00912</ele>
        <time>2021-07-19T08:41:41Z</time>
      </trkpt>
      <trkpt lat="45.4179" lon="4.67135">
        <ele>458.1835</ele>
        <time>2021-07-19T08:41:42Z</time>
      </trkpt>
      <trkpt lat="45.41792" lon="4.67132">
        <ele>458.4266</ele>
        <time>2021-07-19T08:41:43Z</time>
      </trkpt>
      <trkpt lat="45.41795" lon="4.67127">
        <ele>458.7384</ele>
        <time>2021-07-19T08:41:44Z</time>
      </trkpt>
      <trkpt lat="45.41797" lon="4.67123">
        <ele>459.0819</ele>
        <time>2021-07-19T08:41:45Z</time>
      </trkpt>
      <trkpt lat="45.41798" lon="4.67114">
        <ele>459.2457</ele>
        <time>2021-07-19T08:41:46Z</time>
      </trkpt>
      <trkpt lat="45.418" lon="4.67107">
        <ele>459.48355</ele>
        <time>2021-07-19T08:41:47Z</time>
      </trkpt>
      <trkpt lat="45.418" lon="4.671">
        <ele>459.74246</ele>
        <time>2021-07-19T08:41:48Z</time>
      </trkpt>
      <trkpt lat="45.418" lon="4.67095">
        <ele>460.0437</ele>
        <time>2021-07-19T08:41:49Z</time>
      </trkpt>
      <trkpt lat="45.418" lon="4.67089">
        <ele>460.36606</ele>
        <time>2021-07-19T08:41:50Z</time>
      </trkpt>
      <trkpt lat="45.418" lon="4.67083">
        <ele>460.56686</ele>
        <time>2021-07-19T08:41:51Z</time>
      </trkpt>
      <trkpt lat="45.418" lon="4.67077">
        <ele>460.97382</ele>
        <time>2021-07-19T08:41:52Z</time>
      </trkpt>
      <trkpt lat="45.41799" lon="4.67071">
        <ele>461.10065</ele>
        <time>2021-07-19T08:41:53Z</time>
      </trkpt>
      <trkpt lat="45.41798" lon="4.67066">
        <ele>461.30673</ele>
        <time>2021-07-19T08:41:54Z</time>
      </trkpt>
      <trkpt lat="45.41798" lon="4.67061">
        <ele>461.43887</ele>
        <time>2021-07-19T08:41:55Z</time>
      </trkpt>
      <trkpt lat="45.41798" lon="4.67056">
        <ele>461.8299</ele>
        <time>2021-07-19T08:41:56Z</time>
      </trkpt>
      <trkpt lat="45.41798" lon="4.67051">
        <ele>461.95148</ele>
        <time>2021-07-19T08:41:57Z</time>
      </trkpt>
      <trkpt lat="45.41799" lon="4.67047">
        <ele>462.00433</ele>
        <time>2021-07-19T08:41:58Z</time>
      </trkpt>
      <trkpt lat="45.41799" lon="4.67044">
        <ele>462.77585</ele>
        <time>2021-07-19T08:41:59Z</time>
      </trkpt>
      <trkpt lat="45.41799" lon="4.6704">
        <ele>462.8974</ele>
        <time>2021-07-19T08:42:00Z</time>
      </trkpt>
      <trkpt lat="45.418" lon="4.67035">
        <ele>462.99783</ele>
        <time>2021-07-19T08:42:01Z</time>
      </trkpt>
      <trkpt lat="45.418" lon="4.67031">
        <ele>462.94498</ele>
        <time>2021-07-19T08:42:02Z</time>
      </trkpt>
      <trkpt lat="45.41801" lon="4.67027">
        <ele>463.22507</ele>
        <time>2021-07-19T08:42:03Z</time>
      </trkpt>
      <trkpt lat="45.41801" lon="4.67023">
        <ele>463.3519</ele>
        <time>2021-07-19T08:42:04Z</time>
      </trkpt>
      <trkpt lat="45.41802" lon="4.67014">
        <ele>463.6108</ele>
        <time>2021-07-19T08:42:05Z</time>
      </trkpt>
      <trkpt lat="45.41802" lon="4.67007">
        <ele>463.93848</ele>
        <time>2021-07-19T08:42:06Z</time>
      </trkpt>
      <trkpt lat="45.41803" lon="4.67">
        <ele>464.1657</ele>
        <time>2021-07-19T08:42:07Z</time>
      </trkpt>
      <trkpt lat="45.41804" lon="4.66993">
        <ele>464.35068</ele>
        <time>2021-07-19T08:42:08Z</time>
      </trkpt>
      <trkpt lat="45.41805" lon="4.66988">
        <ele>464.64133</ele>
        <time>2021-07-19T08:42:09Z</time>
      </trkpt>
      <trkpt lat="45.41805" lon="4.66984">
        <ele>465.14865</ele>
        <time>2021-07-19T08:42:10Z</time>
      </trkpt>
      <trkpt lat="45.41805" lon="4.6698">
        <ele>465.40234</ele>
        <time>2021-07-19T08:42:11Z</time>
      </trkpt>
      <trkpt lat="45.41806" lon="4.66975">
        <ele>465.47104</ele>
        <time>2021-07-19T08:42:12Z</time>
      </trkpt>
      <trkpt lat="45.41806" lon="4.66972">
        <ele>465.57144</ele>
        <time>2021-07-19T08:42:13Z</time>
      </trkpt>
      <trkpt lat="45.41806" lon="4.66967">
        <ele>465.6137</ele>
        <time>2021-07-19T08:42:14Z</time>
      </trkpt>
      <trkpt lat="45.41806" lon="4.66963">
        <ele>465.77225</ele>
        <time>2021-07-19T08:42:15Z</time>
      </trkpt>
      <trkpt lat="45.41806" lon="4.66959">
        <ele>465.96252</ele>
        <time>2021-07-19T08:42:16Z</time>
      </trkpt>
      <trkpt lat="45.41806" lon="4.66954">
        <ele>466.07346</ele>
        <time>2021-07-19T08:42:17Z</time>
      </trkpt>
      <trkpt lat="45.41807" lon="4.66949">
        <ele>466.3377</ele>
        <time>2021-07-19T08:42:18Z</time>
      </trkpt>
      <trkpt lat="45.41808" lon="4.66944">
        <ele>466.53323</ele>
        <time>2021-07-19T08:42:19Z</time>
      </trkpt>
      <trkpt lat="45.41808" lon="4.66935">
        <ele>466.5755</ele>
        <time>2021-07-19T08:42:20Z</time>
      </trkpt>
      <trkpt lat="45.41808" lon="4.66928">
        <ele>466.77106</ele>
        <time>2021-07-19T08:42:21Z</time>
      </trkpt>
      <trkpt lat="45.41808" lon="4.66922">
        <ele>466.92957</ele>
        <time>2021-07-19T08:42:22Z</time>
      </trkpt>
      <trkpt lat="45.41808" lon="4.66915">
        <ele>467.07758</ele>
        <time>2021-07-19T08:42:23Z</time>
      </trkpt>
      <trkpt lat="45.41809" lon="4.66911">
        <ele>467.3048</ele>
        <time>2021-07-19T08:42:24Z</time>
      </trkpt>
      <trkpt lat="45.4181" lon="4.66905">
        <ele>467.52148</ele>
        <time>2021-07-19T08:42:25Z</time>
      </trkpt>
      <trkpt lat="45.41811" lon="4.669">
        <ele>467.70642</ele>
        <time>2021-07-19T08:42:26Z</time>
      </trkpt>
      <trkpt lat="45.41811" lon="4.66896">
        <ele>467.79626</ele>
        <time>2021-07-19T08:42:27Z</time>
      </trkpt>
      <trkpt lat="45.41811" lon="4.66891">
        <ele>468.1239</ele>
        <time>2021-07-19T08:42:28Z</time>
      </trkpt>
      <trkpt lat="45.41811" lon="4.66886">
        <ele>468.3776</ele>
        <time>2021-07-19T08:42:29Z</time>
      </trkpt>
      <trkpt lat="45.41811" lon="4.66881">
        <ele>468.4886</ele>
        <time>2021-07-19T08:42:30Z</time>
      </trkpt>
      <trkpt lat="45.41811" lon="4.66875">
        <ele>468.5784</ele>
        <time>2021-07-19T08:42:31Z</time>
      </trkpt>
      <trkpt lat="45.41812" lon="4.66869">
        <ele>468.6788</ele>
        <time>2021-07-19T08:42:32Z</time>
      </trkpt>
      <trkpt lat="45.41813" lon="4.66863">
        <ele>468.80035</ele>
        <time>2021-07-19T08:42:33Z</time>
      </trkpt>
      <trkpt lat="45.41813" lon="4.66858">
        <ele>468.8532</ele>
        <time>2021-07-19T08:42:34Z</time>
      </trkpt>
      <trkpt lat="45.41813" lon="4.66852">
        <ele>469.18613</ele>
        <time>2021-07-19T08:42:35Z</time>
      </trkpt>
      <trkpt lat="45.41813" lon="4.66846">
        <ele>469.3394</ele>
        <time>2021-07-19T08:42:36Z</time>
      </trkpt>
      <trkpt lat="45.41813" lon="4.66841">
        <ele>469.21255</ele>
        <time>2021-07-19T08:42:37Z</time>
      </trkpt>
      <trkpt lat="45.41814" lon="4.66835">
        <ele>469.21783</ele>
        <time>2021-07-19T08:42:38Z</time>
      </trkpt>
      <trkpt lat="45.41814" lon="4.66829">
        <ele>469.32352</ele>
        <time>2021-07-19T08:42:39Z</time>
      </trkpt>
      <trkpt lat="45.41814" lon="4.66824">
        <ele>469.47153</ele>
        <time>2021-07-19T08:42:40Z</time>
      </trkpt>
      <trkpt lat="45.41814" lon="4.66817">
        <ele>469.52432</ele>
        <time>2021-07-19T08:42:41Z</time>
      </trkpt>
      <trkpt lat="45.41815" lon="4.66811">
        <ele>469.6353</ele>
        <time>2021-07-19T08:42:42Z</time>
      </trkpt>
      <trkpt lat="45.41815" lon="4.66805">
        <ele>469.74628</ele>
        <time>2021-07-19T08:42:43Z</time>
      </trkpt>
      <trkpt lat="45.41816" lon="4.66798">
        <ele>470.0211</ele>
        <time>2021-07-19T08:42:44Z</time>
      </trkpt>
      <trkpt lat="45.41816" lon="4.66792">
        <ele>470.35403</ele>
        <time>2021-07-19T08:42:45Z</time>
      </trkpt>
      <trkpt lat="45.41816" lon="4.66786">
        <ele>470.74512</ele>
        <time>2021-07-19T08:42:46Z</time>
      </trkpt>
      <trkpt lat="45.41816" lon="4.66779">
        <ele>470.70282</ele>
        <time>2021-07-19T08:42:47Z</time>
      </trkpt>
      <trkpt lat="45.41816" lon="4.66773">
        <ele>470.4016</ele>
        <time>2021-07-19T08:42:48Z</time>
      </trkpt>
      <trkpt lat="45.41817" lon="4.66766">
        <ele>470.3646</ele>
        <time>2021-07-19T08:42:49Z</time>
      </trkpt>
      <trkpt lat="45.41817" lon="4.6676">
        <ele>470.38043</ele>
        <time>2021-07-19T08:42:50Z</time>
      </trkpt>
      <trkpt lat="45.41817" lon="4.66753">
        <ele>470.4016</ele>
        <time>2021-07-19T08:42:51Z</time>
      </trkpt>
      <trkpt lat="45.41818" lon="4.66747">
        <ele>470.49142</ele>
        <time>2021-07-19T08:42:52Z</time>
      </trkpt>
      <trkpt lat="45.41818" lon="4.6674">
        <ele>470.73453</ele>
        <time>2021-07-19T08:42:53Z</time>
      </trkpt>
      <trkpt lat="45.41819" lon="4.66734">
        <ele>471.24188</ele>
        <time>2021-07-19T08:42:54Z</time>
      </trkpt>
      <trkpt lat="45.4182" lon="4.66728">
        <ele>471.52722</ele>
        <time>2021-07-19T08:42:55Z</time>
      </trkpt>
      <trkpt lat="45.41821" lon="4.66721">
        <ele>471.34753</ele>
        <time>2021-07-19T08:42:56Z</time>
      </trkpt>
      <trkpt lat="45.41822" lon="4.66715">
        <ele>471.55365</ele>
        <time>2021-07-19T08:42:57Z</time>
      </trkpt>
      <trkpt lat="45.41823" lon="4.66709">
        <ele>471.66992</ele>
        <time>2021-07-19T08:42:58Z</time>
      </trkpt>
      <trkpt lat="45.41824" lon="4.66702">
        <ele>471.85486</ele>
        <time>2021-07-19T08:42:59Z</time>
      </trkpt>
      <trkpt lat="45.41824" lon="4.66696">
        <ele>472.20364</ele>
        <time>2021-07-19T08:43:00Z</time>
      </trkpt>
      <trkpt lat="45.41825" lon="4.6669">
        <ele>472.13495</ele>
        <time>2021-07-19T08:43:01Z</time>
      </trkpt>
      <trkpt lat="45.41826" lon="4.66684">
        <ele>472.47318</ele>
        <time>2021-07-19T08:43:02Z</time>
      </trkpt>
      <trkpt lat="45.41827" lon="4.66679">
        <ele>472.7004</ele>
        <time>2021-07-19T08:43:03Z</time>
      </trkpt>
      <trkpt lat="45.41829" lon="4.66672">
        <ele>472.6053</ele>
        <time>2021-07-19T08:43:04Z</time>
      </trkpt>
      <trkpt lat="45.4183" lon="4.66667">
        <ele>472.64758</ele>
        <time>2021-07-19T08:43:05Z</time>
      </trkpt>
      <trkpt lat="45.41832" lon="4.66661">
        <ele>472.61057</ele>
        <time>2021-07-19T08:43:06Z</time>
      </trkpt>
      <trkpt lat="45.41834" lon="4.66656">
        <ele>472.86426</ele>
        <time>2021-07-19T08:43:07Z</time>
      </trkpt>
      <trkpt lat="45.41835" lon="4.66651">
        <ele>472.89594</ele>
        <time>2021-07-19T08:43:08Z</time>
      </trkpt>
      <trkpt lat="45.41837" lon="4.66645">
        <ele>473.44028</ele>
        <time>2021-07-19T08:43:09Z</time>
      </trkpt>
      <trkpt lat="45.41839" lon="4.66641">
        <ele>473.57767</ele>
        <time>2021-07-19T08:43:10Z</time>
      </trkpt>
      <trkpt lat="45.41842" lon="4.66636">
        <ele>473.37158</ele>
        <time>2021-07-19T08:43:11Z</time>
      </trkpt>
      <trkpt lat="45.41844" lon="4.66632">
        <ele>473.40854</ele>
        <time>2021-07-19T08:43:12Z</time>
      </trkpt>
      <trkpt lat="45.41847" lon="4.66627">
        <ele>473.56183</ele>
        <time>2021-07-19T08:43:13Z</time>
      </trkpt>
      <trkpt lat="45.4185" lon="4.66622">
        <ele>473.75204</ele>
        <time>2021-07-19T08:43:14Z</time>
      </trkpt>
      <trkpt lat="45.41852" lon="4.66618">
        <ele>473.65695</ele>
        <time>2021-07-19T08:43:15Z</time>
      </trkpt>
      <trkpt lat="45.41855" lon="4.66613">
        <ele>473.67807</ele>
        <time>2021-07-19T08:43:16Z</time>
      </trkpt>
      <trkpt lat="45.41858" lon="4.6661">
        <ele>474.26996</ele>
        <time>2021-07-19T08:43:17Z</time>
      </trkpt>
      <trkpt lat="45.41863" lon="4.66605">
        <ele>473.88416</ele>
        <time>2021-07-19T08:43:18Z</time>
      </trkpt>
      <trkpt lat="45.41866" lon="4.66601">
        <ele>474.06387</ele>
        <time>2021-07-19T08:43:19Z</time>
      </trkpt>
      <trkpt lat="45.41869" lon="4.66596">
        <ele>474.3598</ele>
        <time>2021-07-19T08:43:20Z</time>
      </trkpt>
      <trkpt lat="45.41872" lon="4.66593">
        <ele>474.47607</ele>
        <time>2021-07-19T08:43:21Z</time>
      </trkpt>
      <trkpt lat="45.41876" lon="4.66589">
        <ele>474.68747</ele>
        <time>2021-07-19T08:43:22Z</time>
      </trkpt>
      <trkpt lat="45.41879" lon="4.66585">
        <ele>474.57117</ele>
        <time>2021-07-19T08:43:23Z</time>
      </trkpt>
      <trkpt lat="45.41882" lon="4.66582">
        <ele>474.68213</ele>
        <time>2021-07-19T08:43:24Z</time>
      </trkpt>
      <trkpt lat="45.41887" lon="4.66579">
        <ele>475.1472</ele>
        <time>2021-07-19T08:43:25Z</time>
      </trkpt>
      <trkpt lat="45.4189" lon="4.66576">
        <ele>475.01508</ele>
        <time>2021-07-19T08:43:26Z</time>
      </trkpt>
      <trkpt lat="45.41893" lon="4.66573">
        <ele>475.21063</ele>
        <time>2021-07-19T08:43:27Z</time>
      </trkpt>
      <trkpt lat="45.41898" lon="4.66569">
        <ele>475.20004</ele>
        <time>2021-07-19T08:43:28Z</time>
      </trkpt>
      <trkpt lat="45.41901" lon="4.66566">
        <ele>475.6334</ele>
        <time>2021-07-19T08:43:29Z</time>
      </trkpt>
      <trkpt lat="45.41905" lon="4.66564">
        <ele>475.533</ele>
        <time>2021-07-19T08:43:30Z</time>
      </trkpt>
      <trkpt lat="45.41908" lon="4.66561">
        <ele>475.607</ele>
        <time>2021-07-19T08:43:31Z</time>
      </trkpt>
      <trkpt lat="45.41912" lon="4.66557">
        <ele>475.7021</ele>
        <time>2021-07-19T08:43:32Z</time>
      </trkpt>
      <trkpt lat="45.41916" lon="4.66552">
        <ele>475.88174</ele>
        <time>2021-07-19T08:43:33Z</time>
      </trkpt>
      <trkpt lat="45.41919" lon="4.66549">
        <ele>476.06143</ele>
        <time>2021-07-19T08:43:34Z</time>
      </trkpt>
      <trkpt lat="45.41922" lon="4.66544">
        <ele>476.15128</ele>
        <time>2021-07-19T08:43:35Z</time>
      </trkpt>
      <trkpt lat="45.41925" lon="4.66541">
        <ele>476.38382</ele>
        <time>2021-07-19T08:43:36Z</time>
      </trkpt>
      <trkpt lat="45.41929" lon="4.66536">
        <ele>476.5159</ele>
        <time>2021-07-19T08:43:37Z</time>
      </trkpt>
      <trkpt lat="45.41931" lon="4.66533">
        <ele>476.6692</ele>
        <time>2021-07-19T08:43:38Z</time>
      </trkpt>
      <trkpt lat="45.41934" lon="4.66529">
        <ele>476.89114</ele>
        <time>2021-07-19T08:43:39Z</time>
      </trkpt>
      <trkpt lat="45.41937" lon="4.66525">
        <ele>477.08667</ele>
        <time>2021-07-19T08:43:40Z</time>
      </trkpt>
      <trkpt lat="45.4194" lon="4.66521">
        <ele>477.28748</ele>
        <time>2021-07-19T08:43:41Z</time>
      </trkpt>
      <trkpt lat="45.41943" lon="4.66516">
        <ele>477.43015</ele>
        <time>2021-07-19T08:43:42Z</time>
      </trkpt>
      <trkpt lat="45.41946" lon="4.66512">
        <ele>477.47244</ele>
        <time>2021-07-19T08:43:43Z</time>
      </trkpt>
      <trkpt lat="45.41948" lon="4.66508">
        <ele>477.70496</ele>
        <time>2021-07-19T08:43:44Z</time>
      </trkpt>
      <trkpt lat="45.4195" lon="4.66504">
        <ele>477.74197</ele>
        <time>2021-07-19T08:43:45Z</time>
      </trkpt>
      <trkpt lat="45.41953" lon="4.665">
        <ele>477.87408</ele>
        <time>2021-07-19T08:43:46Z</time>
      </trkpt>
      <trkpt lat="45.41955" lon="4.66495">
        <ele>477.9375</ele>
        <time>2021-07-19T08:43:47Z</time>
      </trkpt>
      <trkpt lat="45.41957" lon="4.66492">
        <ele>478.25986</ele>
        <time>2021-07-19T08:43:48Z</time>
      </trkpt>
      <trkpt lat="45.4196" lon="4.66487">
        <ele>478.43954</ele>
        <time>2021-07-19T08:43:49Z</time>
      </trkpt>
      <trkpt lat="45.41962" lon="4.66482">
        <ele>478.62976</ele>
        <time>2021-07-19T08:43:50Z</time>
      </trkpt>
      <trkpt lat="45.41965" lon="4.66478">
        <ele>478.82</ele>
        <time>2021-07-19T08:43:51Z</time>
      </trkpt>
      <trkpt lat="45.41967" lon="4.66474">
        <ele>479.06842</ele>
        <time>2021-07-19T08:43:52Z</time>
      </trkpt>
      <trkpt lat="45.4197" lon="4.66469">
        <ele>479.23224</ele>
        <time>2021-07-19T08:43:53Z</time>
      </trkpt>
      <trkpt lat="45.41972" lon="4.66465">
        <ele>479.49646</ele>
        <time>2021-07-19T08:43:54Z</time>
      </trkpt>
      <trkpt lat="45.41974" lon="4.6646">
        <ele>479.75012</ele>
        <time>2021-07-19T08:43:55Z</time>
      </trkpt>
      <trkpt lat="45.41976" lon="4.66456">
        <ele>479.8611</ele>
        <time>2021-07-19T08:43:56Z</time>
      </trkpt>
      <trkpt lat="45.41979" lon="4.66451">
        <ele>480.1359</ele>
        <time>2021-07-19T08:43:57Z</time>
      </trkpt>
      <trkpt lat="45.4198" lon="4.66448">
        <ele>480.38956</ele>
        <time>2021-07-19T08:43:58Z</time>
      </trkpt>
      <trkpt lat="45.41983" lon="4.66443">
        <ele>480.3737</ele>
        <time>2021-07-19T08:43:59Z</time>
      </trkpt>
      <trkpt lat="45.41985" lon="4.66438">
        <ele>480.66965</ele>
        <time>2021-07-19T08:44:00Z</time>
      </trkpt>
      <trkpt lat="45.41987" lon="4.66434">
        <ele>480.77536</ele>
        <time>2021-07-19T08:44:01Z</time>
      </trkpt>
      <trkpt lat="45.41989" lon="4.6643">
        <ele>480.66965</ele>
        <time>2021-07-19T08:44:02Z</time>
      </trkpt>
      <trkpt lat="45.41991" lon="4.66425">
        <ele>480.73834</ele>
        <time>2021-07-19T08:44:03Z</time>
      </trkpt>
      <trkpt lat="45.41993" lon="4.66421">
        <ele>480.91803</ele>
        <time>2021-07-19T08:44:04Z</time>
      </trkpt>
      <trkpt lat="45.41995" lon="4.66417">
        <ele>480.9286</ele>
        <time>2021-07-19T08:44:05Z</time>
      </trkpt>
      <trkpt lat="45.41996" lon="4.66413">
        <ele>481.0343</ele>
        <time>2021-07-19T08:44:06Z</time>
      </trkpt>
      <trkpt lat="45.41999" lon="4.66407">
        <ele>481.19812</ele>
        <time>2021-07-19T08:44:07Z</time>
      </trkpt>
      <trkpt lat="45.42001" lon="4.66404">
        <ele>481.33023</ele>
        <time>2021-07-19T08:44:08Z</time>
      </trkpt>
      <trkpt lat="45.42003" lon="4.66399">
        <ele>481.35138</ele>
        <time>2021-07-19T08:44:09Z</time>
      </trkpt>
      <trkpt lat="45.42005" lon="4.66394">
        <ele>481.4835</ele>
        <time>2021-07-19T08:44:10Z</time>
      </trkpt>
      <trkpt lat="45.42007" lon="4.6639">
        <ele>481.66318</ele>
        <time>2021-07-19T08:44:11Z</time>
      </trkpt>
      <trkpt lat="45.42009" lon="4.66386">
        <ele>482.08594</ele>
        <time>2021-07-19T08:44:12Z</time>
      </trkpt>
      <trkpt lat="45.42011" lon="4.66382">
        <ele>482.20746</ele>
        <time>2021-07-19T08:44:13Z</time>
      </trkpt>
      <trkpt lat="45.42013" lon="4.66378">
        <ele>482.3026</ele>
        <time>2021-07-19T08:44:14Z</time>
      </trkpt>
      <trkpt lat="45.42015" lon="4.66373">
        <ele>482.4506</ele>
        <time>2021-07-19T08:44:15Z</time>
      </trkpt>
      <trkpt lat="45.42017" lon="4.6637">
        <ele>482.7095</ele>
        <time>2021-07-19T08:44:16Z</time>
      </trkpt>
      <trkpt lat="45.42019" lon="4.66365">
        <ele>482.91562</ele>
        <time>2021-07-19T08:44:17Z</time>
      </trkpt>
      <trkpt lat="45.42021" lon="4.66361">
        <ele>482.99487</ele>
        <time>2021-07-19T08:44:18Z</time>
      </trkpt>
      <trkpt lat="45.42023" lon="4.66357">
        <ele>483.3067</ele>
        <time>2021-07-19T08:44:19Z</time>
      </trkpt>
      <trkpt lat="45.42025" lon="4.66354">
        <ele>483.69772</ele>
        <time>2021-07-19T08:44:20Z</time>
      </trkpt>
      <trkpt lat="45.42027" lon="4.6635">
        <ele>483.72946</ele>
        <time>2021-07-19T08:44:21Z</time>
      </trkpt>
      <trkpt lat="45.42028" lon="4.66347">
        <ele>484.0254</ele>
        <time>2021-07-19T08:44:22Z</time>
      </trkpt>
      <trkpt lat="45.4203" lon="4.66344">
        <ele>484.33188</ele>
        <time>2021-07-19T08:44:23Z</time>
      </trkpt>
      <trkpt lat="45.42032" lon="4.66341">
        <ele>484.55386</ele>
        <time>2021-07-19T08:44:24Z</time>
      </trkpt>
      <trkpt lat="45.42036" lon="4.66336">
        <ele>484.81808</ele>
        <time>2021-07-19T08:44:25Z</time>
      </trkpt>
      <trkpt lat="45.42038" lon="4.66333">
        <ele>485.04535</ele>
        <time>2021-07-19T08:44:26Z</time>
      </trkpt>
      <trkpt lat="45.42042" lon="4.66327">
        <ele>485.11932</ele>
        <time>2021-07-19T08:44:27Z</time>
      </trkpt>
      <trkpt lat="45.42044" lon="4.66325">
        <ele>485.43112</ele>
        <time>2021-07-19T08:44:28Z</time>
      </trkpt>
      <trkpt lat="45.42048" lon="4.66321">
        <ele>485.5685</ele>
        <time>2021-07-19T08:44:29Z</time>
      </trkpt>
      <trkpt lat="45.42051" lon="4.66318">
        <ele>485.91202</ele>
        <time>2021-07-19T08:44:30Z</time>
      </trkpt>
      <trkpt lat="45.42054" lon="4.66315">
        <ele>486.1551</ele>
        <time>2021-07-19T08:44:31Z</time>
      </trkpt>
      <trkpt lat="45.42057" lon="4.66312">
        <ele>486.30307</ele>
        <time>2021-07-19T08:44:32Z</time>
      </trkpt>
      <trkpt lat="45.42061" lon="4.6631">
        <ele>486.59372</ele>
        <time>2021-07-19T08:44:33Z</time>
      </trkpt>
      <trkpt lat="45.42064" lon="4.66309">
        <ele>486.72583</ele>
        <time>2021-07-19T08:44:34Z</time>
      </trkpt>
      <trkpt lat="45.42067" lon="4.66307">
        <ele>486.8421</ele>
        <time>2021-07-19T08:44:35Z</time>
      </trkpt>
      <trkpt lat="45.42071" lon="4.66306">
        <ele>487.0271</ele>
        <time>2021-07-19T08:44:36Z</time>
      </trkpt>
      <trkpt lat="45.42075" lon="4.66305">
        <ele>487.23846</ele>
        <time>2021-07-19T08:44:37Z</time>
      </trkpt>
      <trkpt lat="45.42078" lon="4.66304">
        <ele>487.61896</ele>
        <time>2021-07-19T08:44:38Z</time>
      </trkpt>
      <trkpt lat="45.42082" lon="4.66304">
        <ele>487.83032</ele>
        <time>2021-07-19T08:44:39Z</time>
      </trkpt>
      <trkpt lat="45.42083" lon="4.66306">
        <ele>487.89905</ele>
        <time>2021-07-19T08:44:40Z</time>
      </trkpt>
      <trkpt lat="45.42088" lon="4.66304">
        <ele>488.07343</ele>
        <time>2021-07-19T08:44:41Z</time>
      </trkpt>
      <trkpt lat="45.42091" lon="4.66305">
        <ele>488.07343</ele>
        <time>2021-07-19T08:44:42Z</time>
      </trkpt>
      <trkpt lat="45.42094" lon="4.66305">
        <ele>488.21082</ele>
        <time>2021-07-19T08:44:43Z</time>
      </trkpt>
      <trkpt lat="45.42097" lon="4.66306">
        <ele>488.4698</ele>
        <time>2021-07-19T08:44:44Z</time>
      </trkpt>
      <trkpt lat="45.42101" lon="4.66305">
        <ele>488.6653</ele>
        <time>2021-07-19T08:44:45Z</time>
      </trkpt>
      <trkpt lat="45.42104" lon="4.66305">
        <ele>488.8133</ele>
        <time>2021-07-19T08:44:46Z</time>
      </trkpt>
      <trkpt lat="45.42107" lon="4.66306">
        <ele>488.8344</ele>
        <time>2021-07-19T08:44:47Z</time>
      </trkpt>
      <trkpt lat="45.4211" lon="4.66306">
        <ele>489.11978</ele>
        <time>2021-07-19T08:44:48Z</time>
      </trkpt>
      <trkpt lat="45.42115" lon="4.66306">
        <ele>489.3576</ele>
        <time>2021-07-19T08:44:49Z</time>
      </trkpt>
      <trkpt lat="45.42118" lon="4.66306">
        <ele>489.5003</ele>
        <time>2021-07-19T08:44:50Z</time>
      </trkpt>
      <trkpt lat="45.42122" lon="4.66305">
        <ele>489.74338</ele>
        <time>2021-07-19T08:44:51Z</time>
      </trkpt>
      <trkpt lat="45.42124" lon="4.66305">
        <ele>490.01288</ele>
        <time>2021-07-19T08:44:52Z</time>
      </trkpt>
      <trkpt lat="45.42128" lon="4.66305">
        <ele>490.1503</ele>
        <time>2021-07-19T08:44:53Z</time>
      </trkpt>
      <trkpt lat="45.42131" lon="4.66304">
        <ele>490.2613</ele>
        <time>2021-07-19T08:44:54Z</time>
      </trkpt>
      <trkpt lat="45.42135" lon="4.66304">
        <ele>490.15558</ele>
        <time>2021-07-19T08:44:55Z</time>
      </trkpt>
      <trkpt lat="45.42138" lon="4.66303">
        <ele>490.50964</ele>
        <time>2021-07-19T08:44:56Z</time>
      </trkpt>
      <trkpt lat="45.42141" lon="4.66303">
        <ele>490.7052</ele>
        <time>2021-07-19T08:44:57Z</time>
      </trkpt>
      <trkpt lat="45.42144" lon="4.66302">
        <ele>490.96414</ele>
        <time>2021-07-19T08:44:58Z</time>
      </trkpt>
      <trkpt lat="45.42149" lon="4.663">
        <ele>491.0434</ele>
        <time>2021-07-19T08:44:59Z</time>
      </trkpt>
      <trkpt lat="45.42152" lon="4.66299">
        <ele>491.40277</ele>
        <time>2021-07-19T08:45:00Z</time>
      </trkpt>
      <trkpt lat="45.42156" lon="4.66298">
        <ele>491.519</ele>
        <time>2021-07-19T08:45:01Z</time>
      </trkpt>
      <trkpt lat="45.42158" lon="4.66297">
        <ele>491.68814</ele>
        <time>2021-07-19T08:45:02Z</time>
      </trkpt>
      <trkpt lat="45.42161" lon="4.66296">
        <ele>491.9788</ele>
        <time>2021-07-19T08:45:03Z</time>
      </trkpt>
      <trkpt lat="45.42164" lon="4.66295">
        <ele>492.16904</ele>
        <time>2021-07-19T08:45:04Z</time>
      </trkpt>
      <trkpt lat="45.42167" lon="4.66293">
        <ele>492.33813</ele>
        <time>2021-07-19T08:45:05Z</time>
      </trkpt>
      <trkpt lat="45.4217" lon="4.66291">
        <ele>492.64462</ele>
        <time>2021-07-19T08:45:06Z</time>
      </trkpt>
      <trkpt lat="45.42175" lon="4.66288">
        <ele>493.09384</ele>
        <time>2021-07-19T08:45:07Z</time>
      </trkpt>
      <trkpt lat="45.42178" lon="4.66286">
        <ele>492.9247</ele>
        <time>2021-07-19T08:45:08Z</time>
      </trkpt>
      <trkpt lat="45.42182" lon="4.66283">
        <ele>493.25766</ele>
        <time>2021-07-19T08:45:09Z</time>
      </trkpt>
      <trkpt lat="45.42185" lon="4.66281">
        <ele>493.36865</ele>
        <time>2021-07-19T08:45:10Z</time>
      </trkpt>
      <trkpt lat="45.42189" lon="4.66278">
        <ele>493.63284</ele>
        <time>2021-07-19T08:45:11Z</time>
      </trkpt>
      <trkpt lat="45.42192" lon="4.66276">
        <ele>493.7597</ele>
        <time>2021-07-19T08:45:12Z</time>
      </trkpt>
      <trkpt lat="45.42196" lon="4.66274">
        <ele>493.88654</ele>
        <time>2021-07-19T08:45:13Z</time>
      </trkpt>
      <trkpt lat="45.42198" lon="4.66272">
        <ele>494.15607</ele>
        <time>2021-07-19T08:45:14Z</time>
      </trkpt>
      <trkpt lat="45.42202" lon="4.6627">
        <ele>494.35687</ele>
        <time>2021-07-19T08:45:15Z</time>
      </trkpt>
      <trkpt lat="45.42205" lon="4.66268">
        <ele>494.42557</ele>
        <time>2021-07-19T08:45:16Z</time>
      </trkpt>
      <trkpt lat="45.42209" lon="4.66266">
        <ele>494.56827</ele>
        <time>2021-07-19T08:45:17Z</time>
      </trkpt>
      <trkpt lat="45.42211" lon="4.66264">
        <ele>494.81134</ele>
        <time>2021-07-19T08:45:18Z</time>
      </trkpt>
      <trkpt lat="45.42215" lon="4.66263">
        <ele>494.94345</ele>
        <time>2021-07-19T08:45:19Z</time>
      </trkpt>
      <trkpt lat="45.42217" lon="4.66261">
        <ele>495.2764</ele>
        <time>2021-07-19T08:45:20Z</time>
      </trkpt>
      <trkpt lat="45.4222" lon="4.66259">
        <ele>495.39792</ele>
        <time>2021-07-19T08:45:21Z</time>
      </trkpt>
      <trkpt lat="45.42223" lon="4.66258">
        <ele>495.61462</ele>
        <time>2021-07-19T08:45:22Z</time>
      </trkpt>
      <trkpt lat="45.42226" lon="4.66256">
        <ele>495.8207</ele>
        <time>2021-07-19T08:45:23Z</time>
      </trkpt>
      <trkpt lat="45.42229" lon="4.66255">
        <ele>496.2382</ele>
        <time>2021-07-19T08:45:24Z</time>
      </trkpt>
      <trkpt lat="45.42233" lon="4.66253">
        <ele>496.25406</ele>
        <time>2021-07-19T08:45:25Z</time>
      </trkpt>
      <trkpt lat="45.42236" lon="4.66251">
        <ele>496.34918</ele>
        <time>2021-07-19T08:45:26Z</time>
      </trkpt>
      <trkpt lat="45.4224" lon="4.66249">
        <ele>496.33862</ele>
        <time>2021-07-19T08:45:27Z</time>
      </trkpt>
      <trkpt lat="45.42242" lon="4.66247">
        <ele>496.74554</ele>
        <time>2021-07-19T08:45:28Z</time>
      </trkpt>
      <trkpt lat="45.42247" lon="4.66245">
        <ele>496.8935</ele>
        <time>2021-07-19T08:45:29Z</time>
      </trkpt>
      <trkpt lat="45.4225" lon="4.66243">
        <ele>497.49594</ele>
        <time>2021-07-19T08:45:30Z</time>
      </trkpt>
      <trkpt lat="45.42254" lon="4.6624">
        <ele>497.49594</ele>
        <time>2021-07-19T08:45:31Z</time>
      </trkpt>
      <trkpt lat="45.42258" lon="4.66238">
        <ele>497.94516</ele>
        <time>2021-07-19T08:45:32Z</time>
      </trkpt>
      <trkpt lat="45.42262" lon="4.66235">
        <ele>497.72318</ele>
        <time>2021-07-19T08:45:33Z</time>
      </trkpt>
      <trkpt lat="45.42265" lon="4.66232">
        <ele>497.85</ele>
        <time>2021-07-19T08:45:34Z</time>
      </trkpt>
      <trkpt lat="45.42269" lon="4.66229">
        <ele>498.4049</ele>
        <time>2021-07-19T08:45:35Z</time>
      </trkpt>
      <trkpt lat="45.42272" lon="4.66227">
        <ele>498.3732</ele>
        <time>2021-07-19T08:45:36Z</time>
      </trkpt>
      <trkpt lat="45.42276" lon="4.66225">
        <ele>498.3045</ele>
        <time>2021-07-19T08:45:37Z</time>
      </trkpt>
      <trkpt lat="45.42278" lon="4.66223">
        <ele>498.4049</ele>
        <time>2021-07-19T08:45:38Z</time>
      </trkpt>
      <trkpt lat="45.42282" lon="4.66221">
        <ele>498.28864</ele>
        <time>2021-07-19T08:45:39Z</time>
      </trkpt>
      <trkpt lat="45.42284" lon="4.6622">
        <ele>498.27805</ele>
        <time>2021-07-19T08:45:40Z</time>
      </trkpt>
      <trkpt lat="45.42288" lon="4.66218">
        <ele>498.54758</ele>
        <time>2021-07-19T08:45:41Z</time>
      </trkpt>
      <trkpt lat="45.42291" lon="4.66217">
        <ele>498.8435</ele>
        <time>2021-07-19T08:45:42Z</time>
      </trkpt>
      <trkpt lat="45.42294" lon="4.66216">
        <ele>498.9122</ele>
        <time>2021-07-19T08:45:43Z</time>
      </trkpt>
      <trkpt lat="45.42296" lon="4.66215">
        <ele>499.07605</ele>
        <time>2021-07-19T08:45:44Z</time>
      </trkpt>
      <trkpt lat="45.42299" lon="4.66215">
        <ele>499.2082</ele>
        <time>2021-07-19T08:45:45Z</time>
      </trkpt>
      <trkpt lat="45.42302" lon="4.66214">
        <ele>499.43015</ele>
        <time>2021-07-19T08:45:46Z</time>
      </trkpt>
      <trkpt lat="45.42307" lon="4.66213">
        <ele>499.5781</ele>
        <time>2021-07-19T08:45:47Z</time>
      </trkpt>
      <trkpt lat="45.42309" lon="4.66213">
        <ele>499.96387</ele>
        <time>2021-07-19T08:45:48Z</time>
      </trkpt>
      <trkpt lat="45.42313" lon="4.66213">
        <ele>499.89517</ele>
        <time>2021-07-19T08:45:49Z</time>
      </trkpt>
      <trkpt lat="45.42315" lon="4.66213">
        <ele>500.17523</ele>
        <time>2021-07-19T08:45:50Z</time>
      </trkpt>
      <trkpt lat="45.4232" lon="4.66212">
        <ele>500.3972</ele>
        <time>2021-07-19T08:45:51Z</time>
      </trkpt>
      <trkpt lat="45.42322" lon="4.66212">
        <ele>500.5346</ele>
        <time>2021-07-19T08:45:52Z</time>
      </trkpt>
      <trkpt lat="45.42326" lon="4.66212">
        <ele>500.42365</ele>
        <time>2021-07-19T08:45:53Z</time>
      </trkpt>
      <trkpt lat="45.42329" lon="4.66213">
        <ele>500.64032</ele>
        <time>2021-07-19T08:45:54Z</time>
      </trkpt>
      <trkpt lat="45.42333" lon="4.66213">
        <ele>500.66672</ele>
        <time>2021-07-19T08:45:55Z</time>
      </trkpt>
      <trkpt lat="45.42336" lon="4.66213">
        <ele>501.09476</ele>
        <time>2021-07-19T08:45:56Z</time>
      </trkpt>
      <trkpt lat="45.42339" lon="4.66214">
        <ele>501.58096</ele>
        <time>2021-07-19T08:45:57Z</time>
      </trkpt>
      <trkpt lat="45.42342" lon="4.66214">
        <ele>501.7025</ele>
        <time>2021-07-19T08:45:58Z</time>
      </trkpt>
      <trkpt lat="45.42345" lon="4.66215">
        <ele>501.59152</ele>
        <time>2021-07-19T08:45:59Z</time>
      </trkpt>
      <trkpt lat="45.42349" lon="4.66215">
        <ele>501.82407</ele>
        <time>2021-07-19T08:46:00Z</time>
      </trkpt>
      <trkpt lat="45.42351" lon="4.66215">
        <ele>501.95087</ele>
        <time>2021-07-19T08:46:01Z</time>
      </trkpt>
      <trkpt lat="45.42353" lon="4.66215">
        <ele>501.81348</ele>
        <time>2021-07-19T08:46:02Z</time>
      </trkpt>
      <trkpt lat="45.42357" lon="4.66215">
        <ele>501.80292</ele>
        <time>2021-07-19T08:46:03Z</time>
      </trkpt>
      <trkpt lat="45.4236" lon="4.66215">
        <ele>501.78177</ele>
        <time>2021-07-19T08:46:04Z</time>
      </trkpt>
      <trkpt lat="45.42364" lon="4.66215">
        <ele>501.7765</ele>
        <time>2021-07-19T08:46:05Z</time>
      </trkpt>
      <trkpt lat="45.42369" lon="4.66214">
        <ele>501.78177</ele>
        <time>2021-07-19T08:46:06Z</time>
      </trkpt>
      <trkpt lat="45.42373" lon="4.66212">
        <ele>501.88748</ele>
        <time>2021-07-19T08:46:07Z</time>
      </trkpt>
      <trkpt lat="45.42378" lon="4.66209">
        <ele>501.88217</ele>
        <time>2021-07-19T08:46:08Z</time>
      </trkpt>
      <trkpt lat="45.42382" lon="4.66207">
        <ele>501.83994</ele>
        <time>2021-07-19T08:46:09Z</time>
      </trkpt>
      <trkpt lat="45.42387" lon="4.66204">
        <ele>501.88217</ele>
        <time>2021-07-19T08:46:10Z</time>
      </trkpt>
      <trkpt lat="45.4239" lon="4.66201">
        <ele>501.7448</ele>
        <time>2021-07-19T08:46:11Z</time>
      </trkpt>
      <trkpt lat="45.42394" lon="4.66197">
        <ele>501.90335</ele>
        <time>2021-07-19T08:46:12Z</time>
      </trkpt>
      <trkpt lat="45.42397" lon="4.66193">
        <ele>501.81348</ele>
        <time>2021-07-19T08:46:13Z</time>
      </trkpt>
      <trkpt lat="45.424" lon="4.66188">
        <ele>501.6814</ele>
        <time>2021-07-19T08:46:14Z</time>
      </trkpt>
      <trkpt lat="45.42403" lon="4.66182">
        <ele>501.79764</ele>
        <time>2021-07-19T08:46:15Z</time>
      </trkpt>
      <trkpt lat="45.42405" lon="4.66178">
        <ele>501.97733</ele>
        <time>2021-07-19T08:46:16Z</time>
      </trkpt>
      <trkpt lat="45.42408" lon="4.66173">
        <ele>502.00372</ele>
        <time>2021-07-19T08:46:17Z</time>
      </trkpt>
      <trkpt lat="45.4241" lon="4.66167">
        <ele>501.88217</ele>
        <time>2021-07-19T08:46:18Z</time>
      </trkpt>
      <trkpt lat="45.42412" lon="4.6616">
        <ele>501.8716</ele>
        <time>2021-07-19T08:46:19Z</time>
      </trkpt>
      <trkpt lat="45.42414" lon="4.66154">
        <ele>501.6655</ele>
        <time>2021-07-19T08:46:20Z</time>
      </trkpt>
      <trkpt lat="45.42417" lon="4.66146">
        <ele>501.60208</ele>
        <time>2021-07-19T08:46:21Z</time>
      </trkpt>
      <trkpt lat="45.42419" lon="4.66139">
        <ele>501.8082</ele>
        <time>2021-07-19T08:46:22Z</time>
      </trkpt>
      <trkpt lat="45.42422" lon="4.66131">
        <ele>501.82407</ele>
        <time>2021-07-19T08:46:23Z</time>
      </trkpt>
      <trkpt lat="45.42424" lon="4.66124">
        <ele>501.68668</ele>
        <time>2021-07-19T08:46:24Z</time>
      </trkpt>
      <trkpt lat="45.42427" lon="4.66117">
        <ele>501.72363</ele>
        <time>2021-07-19T08:46:25Z</time>
      </trkpt>
      <trkpt lat="45.42429" lon="4.66111">
        <ele>501.64438</ele>
        <time>2021-07-19T08:46:26Z</time>
      </trkpt>
      <trkpt lat="45.42432" lon="4.66104">
        <ele>501.58096</ele>
        <time>2021-07-19T08:46:27Z</time>
      </trkpt>
      <trkpt lat="45.42434" lon="4.66098">
        <ele>501.62326</ele>
        <time>2021-07-19T08:46:28Z</time>
      </trkpt>
      <trkpt lat="45.42437" lon="4.66094">
        <ele>501.7025</ele>
        <time>2021-07-19T08:46:29Z</time>
      </trkpt>
      <trkpt lat="45.4244" lon="4.66089">
        <ele>501.86633</ele>
        <time>2021-07-19T08:46:30Z</time>
      </trkpt>
      <trkpt lat="45.42445" lon="4.66083">
        <ele>502.12</ele>
        <time>2021-07-19T08:46:31Z</time>
      </trkpt>
      <trkpt lat="45.42448" lon="4.66079">
        <ele>502.10416</ele>
        <time>2021-07-19T08:46:32Z</time>
      </trkpt>
      <trkpt lat="45.42453" lon="4.66074">
        <ele>502.009</ele>
        <time>2021-07-19T08:46:33Z</time>
      </trkpt>
      <trkpt lat="45.42457" lon="4.6607">
        <ele>502.21512</ele>
        <time>2021-07-19T08:46:34Z</time>
      </trkpt>
      <trkpt lat="45.42461" lon="4.66067">
        <ele>502.31555</ele>
        <time>2021-07-19T08:46:35Z</time>
      </trkpt>
      <trkpt lat="45.42465" lon="4.66065">
        <ele>502.23096</ele>
        <time>2021-07-19T08:46:36Z</time>
      </trkpt>
      <trkpt lat="45.4247" lon="4.66063">
        <ele>502.16757</ele>
        <time>2021-07-19T08:46:37Z</time>
      </trkpt>
      <trkpt lat="45.42474" lon="4.66061">
        <ele>502.0883</ele>
        <time>2021-07-19T08:46:38Z</time>
      </trkpt>
      <trkpt lat="45.42478" lon="4.66059">
        <ele>502.06714</ele>
        <time>2021-07-19T08:46:39Z</time>
      </trkpt>
      <trkpt lat="45.42482" lon="4.66058">
        <ele>501.92975</ele>
        <time>2021-07-19T08:46:40Z</time>
      </trkpt>
      <trkpt lat="45.42489" lon="4.66056">
        <ele>502.11472</ele>
        <time>2021-07-19T08:46:41Z</time>
      </trkpt>
      <trkpt lat="45.42492" lon="4.66055">
        <ele>501.99316</ele>
        <time>2021-07-19T08:46:42Z</time>
      </trkpt>
      <trkpt lat="45.42497" lon="4.66053">
        <ele>502.05658</ele>
        <time>2021-07-19T08:46:43Z</time>
      </trkpt>
      <trkpt lat="45.42501" lon="4.66052">
        <ele>501.99844</ele>
        <time>2021-07-19T08:46:44Z</time>
      </trkpt>
      <trkpt lat="45.42505" lon="4.6605">
        <ele>501.96677</ele>
        <time>2021-07-19T08:46:45Z</time>
      </trkpt>
      <trkpt lat="45.4251" lon="4.66049">
        <ele>502.12</ele>
        <time>2021-07-19T08:46:46Z</time>
      </trkpt>
      <trkpt lat="45.42516" lon="4.66046">
        <ele>502.13586</ele>
        <time>2021-07-19T08:46:47Z</time>
      </trkpt>
      <trkpt lat="45.42521" lon="4.66043">
        <ele>502.2204</ele>
        <time>2021-07-19T08:46:48Z</time>
      </trkpt>
      <trkpt lat="45.42527" lon="4.66041">
        <ele>502.2838</ele>
        <time>2021-07-19T08:46:49Z</time>
      </trkpt>
      <trkpt lat="45.42531" lon="4.6604">
        <ele>502.51633</ele>
        <time>2021-07-19T08:46:50Z</time>
      </trkpt>
      <trkpt lat="45.42537" lon="4.6604">
        <ele>502.62204</ele>
        <time>2021-07-19T08:46:51Z</time>
      </trkpt>
      <trkpt lat="45.4254" lon="4.6604">
        <ele>502.807</ele>
        <time>2021-07-19T08:46:52Z</time>
      </trkpt>
      <trkpt lat="45.42545" lon="4.6604">
        <ele>503.0818</ele>
        <time>2021-07-19T08:46:53Z</time>
      </trkpt>
      <trkpt lat="45.42548" lon="4.6604">
        <ele>503.44647</ele>
        <time>2021-07-19T08:46:54Z</time>
      </trkpt>
      <trkpt lat="45.42553" lon="4.6604">
        <ele>503.44116</ele>
        <time>2021-07-19T08:46:55Z</time>
      </trkpt>
      <trkpt lat="45.42557" lon="4.66039">
        <ele>503.78464</ele>
        <time>2021-07-19T08:46:56Z</time>
      </trkpt>
      <trkpt lat="45.42562" lon="4.66039">
        <ele>504.1123</ele>
        <time>2021-07-19T08:46:57Z</time>
      </trkpt>
      <trkpt lat="45.42565" lon="4.66039">
        <ele>504.2867</ele>
        <time>2021-07-19T08:46:58Z</time>
      </trkpt>
      <trkpt lat="45.42569" lon="4.66038">
        <ele>504.4347</ele>
        <time>2021-07-19T08:46:59Z</time>
      </trkpt>
      <trkpt lat="45.42572" lon="4.66038">
        <ele>504.5668</ele>
        <time>2021-07-19T08:47:00Z</time>
      </trkpt>
      <trkpt lat="45.42577" lon="4.66037">
        <ele>504.65665</ele>
        <time>2021-07-19T08:47:01Z</time>
      </trkpt>
      <trkpt lat="45.4258" lon="4.66038">
        <ele>504.88388</ele>
        <time>2021-07-19T08:47:02Z</time>
      </trkpt>
      <trkpt lat="45.42584" lon="4.66038">
        <ele>505.16394</ele>
        <time>2021-07-19T08:47:03Z</time>
      </trkpt>
      <trkpt lat="45.42588" lon="4.66038">
        <ele>505.29608</ele>
        <time>2021-07-19T08:47:04Z</time>
      </trkpt>
      <trkpt lat="45.42592" lon="4.66038">
        <ele>505.5286</ele>
        <time>2021-07-19T08:47:05Z</time>
      </trkpt>
      <trkpt lat="45.42595" lon="4.66037">
        <ele>505.6396</ele>
        <time>2021-07-19T08:47:06Z</time>
      </trkpt>
      <trkpt lat="45.42599" lon="4.66037">
        <ele>505.8404</ele>
        <time>2021-07-19T08:47:07Z</time>
      </trkpt>
      <trkpt lat="45.42602" lon="4.66037">
        <ele>506.05707</ele>
        <time>2021-07-19T08:47:08Z</time>
      </trkpt>
      <trkpt lat="45.42606" lon="4.66036">
        <ele>506.20505</ele>
        <time>2021-07-19T08:47:09Z</time>
      </trkpt>
      <trkpt lat="45.42609" lon="4.66037">
        <ele>506.34244</ele>
        <time>2021-07-19T08:47:10Z</time>
      </trkpt>
      <trkpt lat="45.42613" lon="4.66037">
        <ele>506.67007</ele>
        <time>2021-07-19T08:47:11Z</time>
      </trkpt>
      <trkpt lat="45.42615" lon="4.66038">
        <ele>507.26196</ele>
        <time>2021-07-19T08:47:12Z</time>
      </trkpt>
      <trkpt lat="45.42619" lon="4.66039">
        <ele>507.33066</ele>
        <time>2021-07-19T08:47:13Z</time>
      </trkpt>
      <trkpt lat="45.42622" lon="4.6604">
        <ele>507.48392</ele>
        <time>2021-07-19T08:47:14Z</time>
      </trkpt>
      <trkpt lat="45.42625" lon="4.66041">
        <ele>507.64774</ele>
        <time>2021-07-19T08:47:15Z</time>
      </trkpt>
      <trkpt lat="45.42628" lon="4.66041">
        <ele>507.764</ele>
        <time>2021-07-19T08:47:16Z</time>
      </trkpt>
      <trkpt lat="45.42632" lon="4.66043">
        <ele>507.71643</ele>
        <time>2021-07-19T08:47:17Z</time>
      </trkpt>
      <trkpt lat="45.42635" lon="4.66044">
        <ele>507.94366</ele>
        <time>2021-07-19T08:47:18Z</time>
      </trkpt>
      <trkpt lat="45.42639" lon="4.66045">
        <ele>508.14447</ele>
        <time>2021-07-19T08:47:19Z</time>
      </trkpt>
      <trkpt lat="45.42643" lon="4.66047">
        <ele>508.09695</ele>
        <time>2021-07-19T08:47:20Z</time>
      </trkpt>
      <trkpt lat="45.42646" lon="4.66048">
        <ele>508.30304</ele>
        <time>2021-07-19T08:47:21Z</time>
      </trkpt>
      <trkpt lat="45.4265" lon="4.6605">
        <ele>508.72583</ele>
        <time>2021-07-19T08:47:22Z</time>
      </trkpt>
      <trkpt lat="45.42654" lon="4.66051">
        <ele>509.19086</ele>
        <time>2021-07-19T08:47:23Z</time>
      </trkpt>
      <trkpt lat="45.42661" lon="4.66054">
        <ele>509.39166</ele>
        <time>2021-07-19T08:47:25Z</time>
      </trkpt>
      <trkpt lat="45.42661" lon="4.66054">
        <ele>509.39166</ele>
        <time>2021-07-19T08:47:25Z</time>
      </trkpt>
      <trkpt lat="45.42664" lon="4.66055">
        <ele>509.56076</ele>
        <time>2021-07-19T08:47:26Z</time>
      </trkpt>
      <trkpt lat="45.42669" lon="4.66056">
        <ele>509.77747</ele>
        <time>2021-07-19T08:47:27Z</time>
      </trkpt>
      <trkpt lat="45.42676" lon="4.66059">
        <ele>510.07867</ele>
        <time>2021-07-19T08:47:29Z</time>
      </trkpt>
      <trkpt lat="45.42676" lon="4.66059">
        <ele>510.07867</ele>
        <time>2021-07-19T08:47:29Z</time>
      </trkpt>
      <trkpt lat="45.42683" lon="4.66062">
        <ele>510.44858</ele>
        <time>2021-07-19T08:47:31Z</time>
      </trkpt>
      <trkpt lat="45.42687" lon="4.66063">
        <ele>510.3746</ele>
        <time>2021-07-19T08:47:32Z</time>
      </trkpt>
      <trkpt lat="45.42687" lon="4.66063">
        <ele>510.3746</ele>
        <time>2021-07-19T08:47:32Z</time>
      </trkpt>
      <trkpt lat="45.42694" lon="4.66066">
        <ele>510.7868</ele>
        <time>2021-07-19T08:47:34Z</time>
      </trkpt>
      <trkpt lat="45.42694" lon="4.66066">
        <ele>510.7868</ele>
        <time>2021-07-19T08:47:34Z</time>
      </trkpt>
      <trkpt lat="45.42698" lon="4.66068">
        <ele>510.98764</ele>
        <time>2021-07-19T08:47:35Z</time>
      </trkpt>
      <trkpt lat="45.42705" lon="4.66071">
        <ele>511.28357</ele>
        <time>2021-07-19T08:47:37Z</time>
      </trkpt>
      <trkpt lat="45.42708" lon="4.66073">
        <ele>511.5108</ele>
        <time>2021-07-19T08:47:38Z</time>
      </trkpt>
      <trkpt lat="45.42708" lon="4.66073">
        <ele>511.5108</ele>
        <time>2021-07-19T08:47:38Z</time>
      </trkpt>
      <trkpt lat="45.42711" lon="4.66074">
        <ele>511.63763</ele>
        <time>2021-07-19T08:47:39Z</time>
      </trkpt>
      <trkpt lat="45.42718" lon="4.66079">
        <ele>511.923</ele>
        <time>2021-07-19T08:47:41Z</time>
      </trkpt>
      <trkpt lat="45.42721" lon="4.66081">
        <ele>511.9547</ele>
        <time>2021-07-19T08:47:42Z</time>
      </trkpt>
      <trkpt lat="45.42725" lon="4.66084">
        <ele>512.07623</ele>
        <time>2021-07-19T08:47:43Z</time>
      </trkpt>
      <trkpt lat="45.42725" lon="4.66084">
        <ele>512.07623</ele>
        <time>2021-07-19T08:47:43Z</time>
      </trkpt>
      <trkpt lat="45.42731" lon="4.6609">
        <ele>512.0604</ele>
        <time>2021-07-19T08:47:45Z</time>
      </trkpt>
      <trkpt lat="45.42733" lon="4.66093">
        <ele>512.0868</ele>
        <time>2021-07-19T08:47:46Z</time>
      </trkpt>
      <trkpt lat="45.42736" lon="4.66097">
        <ele>512.1661</ele>
        <time>2021-07-19T08:47:47Z</time>
      </trkpt>
      <trkpt lat="45.42739" lon="4.661">
        <ele>512.3352</ele>
        <time>2021-07-19T08:47:48Z</time>
      </trkpt>
      <trkpt lat="45.42739" lon="4.661">
        <ele>512.3352</ele>
        <time>2021-07-19T08:47:48Z</time>
      </trkpt>
      <trkpt lat="45.42744" lon="4.66106">
        <ele>512.6364</ele>
        <time>2021-07-19T08:47:50Z</time>
      </trkpt>
      <trkpt lat="45.42744" lon="4.66106">
        <ele>512.6364</ele>
        <time>2021-07-19T08:47:50Z</time>
      </trkpt>
      <trkpt lat="45.42747" lon="4.66109">
        <ele>512.795</ele>
        <time>2021-07-19T08:47:51Z</time>
      </trkpt>
      <trkpt lat="45.42752" lon="4.66115">
        <ele>513.00635</ele>
        <time>2021-07-19T08:47:53Z</time>
      </trkpt>
      <trkpt lat="45.42753" lon="4.66117">
        <ele>513.2917</ele>
        <time>2021-07-19T08:47:54Z</time>
      </trkpt>
      <trkpt lat="45.42753" lon="4.66117">
        <ele>513.2917</ele>
        <time>2021-07-19T08:47:54Z</time>
      </trkpt>
      <trkpt lat="45.42757" lon="4.66122">
        <ele>513.6035</ele>
        <time>2021-07-19T08:47:56Z</time>
      </trkpt>
      <trkpt lat="45.42757" lon="4.66122">
        <ele>513.6035</ele>
        <time>2021-07-19T08:47:56Z</time>
      </trkpt>
      <trkpt lat="45.42761" lon="4.66124">
        <ele>513.87305</ele>
        <time>2021-07-19T08:47:57Z</time>
      </trkpt>
      <trkpt lat="45.42764" lon="4.66126">
        <ele>514.0633</ele>
        <time>2021-07-19T08:47:58Z</time>
      </trkpt>
      <trkpt lat="45.42772" lon="4.66126">
        <ele>514.55475</ele>
        <time>2021-07-19T08:48:00Z</time>
      </trkpt>
      <trkpt lat="45.42772" lon="4.66126">
        <ele>514.55475</ele>
        <time>2021-07-19T08:48:00Z</time>
      </trkpt>
      <trkpt lat="45.4278" lon="4.66126">
        <ele>515.00397</ele>
        <time>2021-07-19T08:48:02Z</time>
      </trkpt>
      <trkpt lat="45.42785" lon="4.66125">
        <ele>515.17303</ele>
        <time>2021-07-19T08:48:03Z</time>
      </trkpt>
      <trkpt lat="45.42786" lon="4.66124">
        <ele>515.37915</ele>
        <time>2021-07-19T08:48:04Z</time>
      </trkpt>
      <trkpt lat="45.42791" lon="4.66121">
        <ele>515.61694</ele>
        <time>2021-07-19T08:48:05Z</time>
      </trkpt>
      <trkpt lat="45.42794" lon="4.66119">
        <ele>515.80194</ele>
        <time>2021-07-19T08:48:06Z</time>
      </trkpt>
      <trkpt lat="45.42798" lon="4.66113">
        <ele>515.5324</ele>
        <time>2021-07-19T08:48:07Z</time>
      </trkpt>
      <trkpt lat="45.42799" lon="4.6611">
        <ele>515.2523</ele>
        <time>2021-07-19T08:48:08Z</time>
      </trkpt>
      <trkpt lat="45.42801" lon="4.66105">
        <ele>515.3475</ele>
        <time>2021-07-19T08:48:09Z</time>
      </trkpt>
      <trkpt lat="45.42801" lon="4.66105">
        <ele>515.3475</ele>
        <time>2021-07-19T08:48:09Z</time>
      </trkpt>
      <trkpt lat="45.42805" lon="4.66096">
        <ele>515.4056</ele>
        <time>2021-07-19T08:48:11Z</time>
      </trkpt>
      <trkpt lat="45.42806" lon="4.66092">
        <ele>515.4479</ele>
        <time>2021-07-19T08:48:12Z</time>
      </trkpt>
      <trkpt lat="45.42807" lon="4.66087">
        <ele>515.70685</ele>
        <time>2021-07-19T08:48:13Z</time>
      </trkpt>
      <trkpt lat="45.42807" lon="4.66087">
        <ele>515.70685</ele>
        <time>2021-07-19T08:48:13Z</time>
      </trkpt>
      <trkpt lat="45.4281" lon="4.66078">
        <ele>516.00275</ele>
        <time>2021-07-19T08:48:15Z</time>
      </trkpt>
      <trkpt lat="45.4281" lon="4.66075">
        <ele>516.05035</ele>
        <time>2021-07-19T08:48:16Z</time>
      </trkpt>
      <trkpt lat="45.42811" lon="4.66072">
        <ele>516.2194</ele>
        <time>2021-07-19T08:48:17Z</time>
      </trkpt>
      <trkpt lat="45.42812" lon="4.66068">
        <ele>516.34625</ele>
        <time>2021-07-19T08:48:18Z</time>
      </trkpt>
      <trkpt lat="45.42814" lon="4.66064">
        <ele>516.4572</ele>
        <time>2021-07-19T08:48:19Z</time>
      </trkpt>
      <trkpt lat="45.42814" lon="4.66064">
        <ele>516.4572</ele>
        <time>2021-07-19T08:48:19Z</time>
      </trkpt>
      <trkpt lat="45.42816" lon="4.66056">
        <ele>516.7109</ele>
        <time>2021-07-19T08:48:21Z</time>
      </trkpt>
      <trkpt lat="45.42817" lon="4.66052">
        <ele>516.94867</ele>
        <time>2021-07-19T08:48:22Z</time>
      </trkpt>
      <trkpt lat="45.42819" lon="4.66048">
        <ele>517.1178</ele>
        <time>2021-07-19T08:48:23Z</time>
      </trkpt>
      <trkpt lat="45.4282" lon="4.66044">
        <ele>517.13367</ele>
        <time>2021-07-19T08:48:24Z</time>
      </trkpt>
      <trkpt lat="45.42822" lon="4.6604">
        <ele>517.3398</ele>
        <time>2021-07-19T08:48:25Z</time>
      </trkpt>
      <trkpt lat="45.42823" lon="4.66035">
        <ele>517.4613</ele>
        <time>2021-07-19T08:48:26Z</time>
      </trkpt>
      <trkpt lat="45.42825" lon="4.6603">
        <ele>517.6621</ele>
        <time>2021-07-19T08:48:27Z</time>
      </trkpt>
      <trkpt lat="45.42827" lon="4.66027">
        <ele>517.93164</ele>
        <time>2021-07-19T08:48:28Z</time>
      </trkpt>
      <trkpt lat="45.42829" lon="4.66023">
        <ele>517.9792</ele>
        <time>2021-07-19T08:48:29Z</time>
      </trkpt>
      <trkpt lat="45.4283" lon="4.66019">
        <ele>518.39667</ele>
        <time>2021-07-19T08:48:30Z</time>
      </trkpt>
      <trkpt lat="45.42832" lon="4.66015">
        <ele>518.6081</ele>
        <time>2021-07-19T08:48:31Z</time>
      </trkpt>
      <trkpt lat="45.42834" lon="4.66011">
        <ele>518.7666</ele>
        <time>2021-07-19T08:48:32Z</time>
      </trkpt>
      <trkpt lat="45.42836" lon="4.66007">
        <ele>519.0309</ele>
        <time>2021-07-19T08:48:33Z</time>
      </trkpt>
      <trkpt lat="45.42837" lon="4.66003">
        <ele>519.2052</ele>
        <time>2021-07-19T08:48:34Z</time>
      </trkpt>
      <trkpt lat="45.42839" lon="4.66">
        <ele>519.4272</ele>
        <time>2021-07-19T08:48:35Z</time>
      </trkpt>
      <trkpt lat="45.4284" lon="4.65997">
        <ele>519.4906</ele>
        <time>2021-07-19T08:48:36Z</time>
      </trkpt>
      <trkpt lat="45.42842" lon="4.65993">
        <ele>519.44836</ele>
        <time>2021-07-19T08:48:37Z</time>
      </trkpt>
      <trkpt lat="45.42844" lon="4.6599">
        <ele>519.5699</ele>
        <time>2021-07-19T08:48:38Z</time>
      </trkpt>
      <trkpt lat="45.42845" lon="4.65986">
        <ele>519.76013</ele>
        <time>2021-07-19T08:48:39Z</time>
      </trkpt>
      <trkpt lat="45.42847" lon="4.65983">
        <ele>519.9504</ele>
        <time>2021-07-19T08:48:40Z</time>
      </trkpt>
      <trkpt lat="45.42849" lon="4.65978">
        <ele>520.1935</ele>
        <time>2021-07-19T08:48:41Z</time>
      </trkpt>
      <trkpt lat="45.42851" lon="4.65975">
        <ele>520.4154</ele>
        <time>2021-07-19T08:48:42Z</time>
      </trkpt>
      <trkpt lat="45.42852" lon="4.65971">
        <ele>520.60565</ele>
        <time>2021-07-19T08:48:43Z</time>
      </trkpt>
      <trkpt lat="45.42854" lon="4.65968">
        <ele>520.7589</ele>
        <time>2021-07-19T08:48:44Z</time>
      </trkpt>
      <trkpt lat="45.42857" lon="4.65962">
        <ele>520.8646</ele>
        <time>2021-07-19T08:48:45Z</time>
      </trkpt>
      <trkpt lat="45.42858" lon="4.65959">
        <ele>521.0073</ele>
        <time>2021-07-19T08:48:46Z</time>
      </trkpt>
      <trkpt lat="45.4286" lon="4.65954">
        <ele>521.0654</ele>
        <time>2021-07-19T08:48:47Z</time>
      </trkpt>
      <trkpt lat="45.42862" lon="4.65951">
        <ele>521.16583</ele>
        <time>2021-07-19T08:48:48Z</time>
      </trkpt>
      <trkpt lat="45.42863" lon="4.65947">
        <ele>521.2663</ele>
        <time>2021-07-19T08:48:49Z</time>
      </trkpt>
      <trkpt lat="45.42863" lon="4.65942">
        <ele>521.7894</ele>
        <time>2021-07-19T08:48:50Z</time>
      </trkpt>
      <trkpt lat="45.42862" lon="4.65937">
        <ele>521.985</ele>
        <time>2021-07-19T08:48:51Z</time>
      </trkpt>
      <trkpt lat="45.42861" lon="4.65932">
        <ele>522.1276</ele>
        <time>2021-07-19T08:48:52Z</time>
      </trkpt>
      <trkpt lat="45.42859" lon="4.65929">
        <ele>522.23334</ele>
        <time>2021-07-19T08:48:53Z</time>
      </trkpt>
      <trkpt lat="45.42856" lon="4.65927">
        <ele>522.40247</ele>
        <time>2021-07-19T08:48:54Z</time>
      </trkpt>
      <trkpt lat="45.42852" lon="4.65927">
        <ele>522.71423</ele>
        <time>2021-07-19T08:48:55Z</time>
      </trkpt>
      <trkpt lat="45.42849" lon="4.65929">
        <ele>522.989</ele>
        <time>2021-07-19T08:48:56Z</time>
      </trkpt>
      <trkpt lat="45.42845" lon="4.65931">
        <ele>523.4858</ele>
        <time>2021-07-19T08:48:57Z</time>
      </trkpt>
      <trkpt lat="45.42842" lon="4.65933">
        <ele>523.7764</ele>
        <time>2021-07-19T08:48:58Z</time>
      </trkpt>
      <trkpt lat="45.42839" lon="4.65935">
        <ele>523.6972</ele>
        <time>2021-07-19T08:48:59Z</time>
      </trkpt>
      <trkpt lat="45.42836" lon="4.65937">
        <ele>523.75006</ele>
        <time>2021-07-19T08:49:00Z</time>
      </trkpt>
      <trkpt lat="45.42833" lon="4.6594">
        <ele>523.9191</ele>
        <time>2021-07-19T08:49:01Z</time>
      </trkpt>
      <trkpt lat="45.42831" lon="4.65943">
        <ele>524.0618</ele>
        <time>2021-07-19T08:49:02Z</time>
      </trkpt>
      <trkpt lat="45.42828" lon="4.65947">
        <ele>524.2732</ele>
        <time>2021-07-19T08:49:03Z</time>
      </trkpt>
      <trkpt lat="45.42826" lon="4.6595">
        <ele>524.5903</ele>
        <time>2021-07-19T08:49:04Z</time>
      </trkpt>
      <trkpt lat="45.42823" lon="4.65953">
        <ele>524.6854</ele>
        <time>2021-07-19T08:49:05Z</time>
      </trkpt>
      <trkpt lat="45.42821" lon="4.65956">
        <ele>524.6907</ele>
        <time>2021-07-19T08:49:06Z</time>
      </trkpt>
      <trkpt lat="45.42819" lon="4.65959">
        <ele>524.7858</ele>
        <time>2021-07-19T08:49:07Z</time>
      </trkpt>
      <trkpt lat="45.42816" lon="4.65962">
        <ele>524.74884</ele>
        <time>2021-07-19T08:49:08Z</time>
      </trkpt>
      <trkpt lat="45.42814" lon="4.65966">
        <ele>524.90735</ele>
        <time>2021-07-19T08:49:09Z</time>
      </trkpt>
      <trkpt lat="45.42812" lon="4.65969">
        <ele>525.0184</ele>
        <time>2021-07-19T08:49:10Z</time>
      </trkpt>
      <trkpt lat="45.4281" lon="4.65972">
        <ele>525.29846</ele>
        <time>2021-07-19T08:49:11Z</time>
      </trkpt>
      <trkpt lat="45.42808" lon="4.65976">
        <ele>525.43585</ele>
        <time>2021-07-19T08:49:12Z</time>
      </trkpt>
      <trkpt lat="45.42806" lon="4.65979">
        <ele>525.5204</ele>
        <time>2021-07-19T08:49:13Z</time>
      </trkpt>
      <trkpt lat="45.42804" lon="4.65982">
        <ele>525.63666</ele>
        <time>2021-07-19T08:49:14Z</time>
      </trkpt>
      <trkpt lat="45.428" lon="4.65985">
        <ele>525.8903</ele>
        <time>2021-07-19T08:49:15Z</time>
      </trkpt>
      <trkpt lat="45.42797" lon="4.65988">
        <ele>526.22327</ele>
        <time>2021-07-19T08:49:16Z</time>
      </trkpt>
      <trkpt lat="45.42794" lon="4.6599">
        <ele>526.43463</ele>
        <time>2021-07-19T08:49:17Z</time>
      </trkpt>
      <trkpt lat="45.4279" lon="4.65992">
        <ele>526.5826</ele>
        <time>2021-07-19T08:49:18Z</time>
      </trkpt>
      <trkpt lat="45.42787" lon="4.65993">
        <ele>527.0159</ele>
        <time>2021-07-19T08:49:19Z</time>
      </trkpt>
      <trkpt lat="45.42784" lon="4.65995">
        <ele>527.11633</ele>
        <time>2021-07-19T08:49:20Z</time>
      </trkpt>
      <trkpt lat="45.42781" lon="4.65996">
        <ele>527.1956</ele>
        <time>2021-07-19T08:49:21Z</time>
      </trkpt>
      <trkpt lat="45.42777" lon="4.65997">
        <ele>527.4545</ele>
        <time>2021-07-19T08:49:22Z</time>
      </trkpt>
      <trkpt lat="45.42773" lon="4.65997">
        <ele>527.76636</ele>
        <time>2021-07-19T08:49:23Z</time>
      </trkpt>
      <trkpt lat="45.4277" lon="4.65998">
        <ele>528.00946</ele>
        <time>2021-07-19T08:49:24Z</time>
      </trkpt>
      <trkpt lat="45.42765" lon="4.65999">
        <ele>528.3424</ele>
        <time>2021-07-19T08:49:25Z</time>
      </trkpt>
      <trkpt lat="45.42762" lon="4.66">
        <ele>528.5802</ele>
        <time>2021-07-19T08:49:26Z</time>
      </trkpt>
      <trkpt lat="45.42758" lon="4.66">
        <ele>528.8867</ele>
        <time>2021-07-19T08:49:27Z</time>
      </trkpt>
      <trkpt lat="45.42754" lon="4.66">
        <ele>529.21436</ele>
        <time>2021-07-19T08:49:28Z</time>
      </trkpt>
      <trkpt lat="45.42751" lon="4.66">
        <ele>529.57367</ele>
        <time>2021-07-19T08:49:29Z</time>
      </trkpt>
      <trkpt lat="45.42748" lon="4.65999">
        <ele>529.7692</ele>
        <time>2021-07-19T08:49:30Z</time>
      </trkpt>
      <trkpt lat="45.42745" lon="4.65999">
        <ele>530.07043</ele>
        <time>2021-07-19T08:49:31Z</time>
      </trkpt>
      <trkpt lat="45.42741" lon="4.65998">
        <ele>530.35583</ele>
        <time>2021-07-19T08:49:32Z</time>
      </trkpt>
      <trkpt lat="45.42738" lon="4.65998">
        <ele>530.6518</ele>
        <time>2021-07-19T08:49:33Z</time>
      </trkpt>
      <trkpt lat="45.42735" lon="4.65997">
        <ele>530.69934</ele>
        <time>2021-07-19T08:49:34Z</time>
      </trkpt>
      <trkpt lat="45.42732" lon="4.65996">
        <ele>530.9847</ele>
        <time>2021-07-19T08:49:35Z</time>
      </trkpt>
      <trkpt lat="45.4273" lon="4.65994">
        <ele>531.22253</ele>
        <time>2021-07-19T08:49:36Z</time>
      </trkpt>
      <trkpt lat="45.42727" lon="4.65992">
        <ele>531.4392</ele>
        <time>2021-07-19T08:49:37Z</time>
      </trkpt>
      <trkpt lat="45.42724" lon="4.6599">
        <ele>531.7193</ele>
        <time>2021-07-19T08:49:38Z</time>
      </trkpt>
      <trkpt lat="45.42721" lon="4.65988">
        <ele>532.0363</ele>
        <time>2021-07-19T08:49:39Z</time>
      </trkpt>
      <trkpt lat="45.42719" lon="4.65986">
        <ele>532.24774</ele>
        <time>2021-07-19T08:49:40Z</time>
      </trkpt>
      <trkpt lat="45.42716" lon="4.65984">
        <ele>532.35345</ele>
        <time>2021-07-19T08:49:41Z</time>
      </trkpt>
      <trkpt lat="45.42714" lon="4.65982">
        <ele>532.4169</ele>
        <time>2021-07-19T08:49:42Z</time>
      </trkpt>
      <trkpt lat="45.42711" lon="4.6598">
        <ele>532.5225</ele>
        <time>2021-07-19T08:49:43Z</time>
      </trkpt>
      <trkpt lat="45.42708" lon="4.65979">
        <ele>532.85016</ele>
        <time>2021-07-19T08:49:44Z</time>
      </trkpt>
      <trkpt lat="45.42705" lon="4.65977">
        <ele>533.20953</ele>
        <time>2021-07-19T08:49:45Z</time>
      </trkpt>
      <trkpt lat="45.42702" lon="4.65975">
        <ele>533.4473</ele>
        <time>2021-07-19T08:49:46Z</time>
      </trkpt>
      <trkpt lat="45.42699" lon="4.65973">
        <ele>533.6323</ele>
        <time>2021-07-19T08:49:47Z</time>
      </trkpt>
      <trkpt lat="45.42696" lon="4.65971">
        <ele>533.8437</ele>
        <time>2021-07-19T08:49:48Z</time>
      </trkpt>
      <trkpt lat="45.42693" lon="4.6597">
        <ele>534.44617</ele>
        <time>2021-07-19T08:49:49Z</time>
      </trkpt>
      <trkpt lat="45.4269" lon="4.65969">
        <ele>534.5941</ele>
        <time>2021-07-19T08:49:50Z</time>
      </trkpt>
      <trkpt lat="45.42688" lon="4.65967">
        <ele>534.927</ele>
        <time>2021-07-19T08:49:51Z</time>
      </trkpt>
      <trkpt lat="45.42685" lon="4.65965">
        <ele>535.1913</ele>
        <time>2021-07-19T08:49:52Z</time>
      </trkpt>
      <trkpt lat="45.42682" lon="4.65964">
        <ele>535.3868</ele>
        <time>2021-07-19T08:49:53Z</time>
      </trkpt>
      <trkpt lat="45.4268" lon="4.65963">
        <ele>535.6616</ele>
        <time>2021-07-19T08:49:54Z</time>
      </trkpt>
      <trkpt lat="45.42677" lon="4.65961">
        <ele>536.1425</ele>
        <time>2021-07-19T08:49:55Z</time>
      </trkpt>
      <trkpt lat="45.42674" lon="4.6596">
        <ele>536.3592</ele>
        <time>2021-07-19T08:49:56Z</time>
      </trkpt>
      <trkpt lat="45.42672" lon="4.65959">
        <ele>536.6023</ele>
        <time>2021-07-19T08:49:57Z</time>
      </trkpt>
      <trkpt lat="45.42669" lon="4.65957">
        <ele>536.8823</ele>
        <time>2021-07-19T08:49:58Z</time>
      </trkpt>
      <trkpt lat="45.42666" lon="4.65956">
        <ele>537.07263</ele>
        <time>2021-07-19T08:49:59Z</time>
      </trkpt>
      <trkpt lat="45.42664" lon="4.65954">
        <ele>537.1413</ele>
        <time>2021-07-19T08:50:00Z</time>
      </trkpt>
      <trkpt lat="45.42661" lon="4.65952">
        <ele>537.6222</ele>
        <time>2021-07-19T08:50:01Z</time>
      </trkpt>
      <trkpt lat="45.42658" lon="4.6595">
        <ele>537.71735</ele>
        <time>2021-07-19T08:50:02Z</time>
      </trkpt>
      <trkpt lat="45.42655" lon="4.65949">
        <ele>538.0661</ele>
        <time>2021-07-19T08:50:03Z</time>
      </trkpt>
      <trkpt lat="45.42653" lon="4.65948">
        <ele>538.3515</ele>
        <time>2021-07-19T08:50:04Z</time>
      </trkpt>
      <trkpt lat="45.4265" lon="4.65947">
        <ele>538.7531</ele>
        <time>2021-07-19T08:50:05Z</time>
      </trkpt>
      <trkpt lat="45.42647" lon="4.65945">
        <ele>539.02795</ele>
        <time>2021-07-19T08:50:06Z</time>
      </trkpt>
      <trkpt lat="45.42644" lon="4.65944">
        <ele>539.28687</ele>
        <time>2021-07-19T08:50:07Z</time>
      </trkpt>
      <trkpt lat="45.42641" lon="4.65943">
        <ele>539.47186</ele>
        <time>2021-07-19T08:50:08Z</time>
      </trkpt>
      <trkpt lat="45.42638" lon="4.65941">
        <ele>539.64624</ele>
        <time>2021-07-19T08:50:09Z</time>
      </trkpt>
      <trkpt lat="45.42635" lon="4.6594">
        <ele>539.81537</ele>
        <time>2021-07-19T08:50:10Z</time>
      </trkpt>
      <trkpt lat="45.42631" lon="4.6594">
        <ele>540.2698</ele>
        <time>2021-07-19T08:50:11Z</time>
      </trkpt>
      <trkpt lat="45.42627" lon="4.65939">
        <ele>540.4125</ele>
        <time>2021-07-19T08:50:12Z</time>
      </trkpt>
      <trkpt lat="45.42624" lon="4.65938">
        <ele>540.63446</ele>
        <time>2021-07-19T08:50:13Z</time>
      </trkpt>
      <trkpt lat="45.42619" lon="4.65938">
        <ele>540.9621</ele>
        <time>2021-07-19T08:50:14Z</time>
      </trkpt>
      <trkpt lat="45.42616" lon="4.65938">
        <ele>541.2369</ele>
        <time>2021-07-19T08:50:15Z</time>
      </trkpt>
      <trkpt lat="45.42613" lon="4.65938">
        <ele>541.45886</ele>
        <time>2021-07-19T08:50:16Z</time>
      </trkpt>
      <trkpt lat="45.42609" lon="4.65938">
        <ele>541.75476</ele>
        <time>2021-07-19T08:50:17Z</time>
      </trkpt>
      <trkpt lat="45.42606" lon="4.65939">
        <ele>541.8182</ele>
        <time>2021-07-19T08:50:18Z</time>
      </trkpt>
      <trkpt lat="45.42603" lon="4.65938">
        <ele>542.093</ele>
        <time>2021-07-19T08:50:19Z</time>
      </trkpt>
      <trkpt lat="45.426" lon="4.65937">
        <ele>542.21985</ele>
        <time>2021-07-19T08:50:20Z</time>
      </trkpt>
      <trkpt lat="45.42598" lon="4.65935">
        <ele>542.5739</ele>
        <time>2021-07-19T08:50:21Z</time>
      </trkpt>
      <trkpt lat="45.42595" lon="4.65934">
        <ele>542.7853</ele>
        <time>2021-07-19T08:50:22Z</time>
      </trkpt>
      <trkpt lat="45.42593" lon="4.65932">
        <ele>543.08655</ele>
        <time>2021-07-19T08:50:23Z</time>
      </trkpt>
      <trkpt lat="45.4259" lon="4.6593">
        <ele>543.28204</ele>
        <time>2021-07-19T08:50:24Z</time>
      </trkpt>
      <trkpt lat="45.42587" lon="4.65928">
        <ele>543.5093</ele>
        <time>2021-07-19T08:50:25Z</time>
      </trkpt>
      <trkpt lat="45.42584" lon="4.65925">
        <ele>543.6837</ele>
        <time>2021-07-19T08:50:26Z</time>
      </trkpt>
      <trkpt lat="45.42582" lon="4.65923">
        <ele>543.9955</ele>
        <time>2021-07-19T08:50:27Z</time>
      </trkpt>
      <trkpt lat="45.4258" lon="4.6592">
        <ele>544.25446</ele>
        <time>2021-07-19T08:50:28Z</time>
      </trkpt>
      <trkpt lat="45.42577" lon="4.65918">
        <ele>544.50806</ele>
        <time>2021-07-19T08:50:29Z</time>
      </trkpt>
      <trkpt lat="45.42575" lon="4.65915">
        <ele>544.6455</ele>
        <time>2021-07-19T08:50:30Z</time>
      </trkpt>
      <trkpt lat="45.42573" lon="4.65913">
        <ele>544.8886</ele>
        <time>2021-07-19T08:50:31Z</time>
      </trkpt>
      <trkpt lat="45.42571" lon="4.65911">
        <ele>545.1264</ele>
        <time>2021-07-19T08:50:32Z</time>
      </trkpt>
      <trkpt lat="45.42568" lon="4.65909">
        <ele>545.35364</ele>
        <time>2021-07-19T08:50:33Z</time>
      </trkpt>
      <trkpt lat="45.42565" lon="4.65908">
        <ele>545.6284</ele>
        <time>2021-07-19T08:50:34Z</time>
      </trkpt>
      <trkpt lat="45.42563" lon="4.65906">
        <ele>545.9244</ele>
        <time>2021-07-19T08:50:35Z</time>
      </trkpt>
      <trkpt lat="45.42559" lon="4.65903">
        <ele>546.1727</ele>
        <time>2021-07-19T08:50:36Z</time>
      </trkpt>
      <trkpt lat="45.42556" lon="4.65901">
        <ele>546.3947</ele>
        <time>2021-07-19T08:50:37Z</time>
      </trkpt>
      <trkpt lat="45.42554" lon="4.65899">
        <ele>546.6695</ele>
        <time>2021-07-19T08:50:38Z</time>
      </trkpt>
      <trkpt lat="45.42551" lon="4.65895">
        <ele>546.8756</ele>
        <time>2021-07-19T08:50:39Z</time>
      </trkpt>
      <trkpt lat="45.42549" lon="4.65892">
        <ele>547.16626</ele>
        <time>2021-07-19T08:50:40Z</time>
      </trkpt>
      <trkpt lat="45.42546" lon="4.6589">
        <ele>547.38293</ele>
        <time>2021-07-19T08:50:41Z</time>
      </trkpt>
      <trkpt lat="45.42544" lon="4.65887">
        <ele>547.4199</ele>
        <time>2021-07-19T08:50:42Z</time>
      </trkpt>
      <trkpt lat="45.42542" lon="4.65885">
        <ele>547.5785</ele>
        <time>2021-07-19T08:50:43Z</time>
      </trkpt>
      <trkpt lat="45.4254" lon="4.65883">
        <ele>547.9537</ele>
        <time>2021-07-19T08:50:44Z</time>
      </trkpt>
      <trkpt lat="45.42538" lon="4.65881">
        <ele>548.1228</ele>
        <time>2021-07-19T08:50:45Z</time>
      </trkpt>
      <trkpt lat="45.42536" lon="4.65878">
        <ele>548.31305</ele>
        <time>2021-07-19T08:50:46Z</time>
      </trkpt>
      <trkpt lat="45.42535" lon="4.65876">
        <ele>548.6037</ele>
        <time>2021-07-19T08:50:47Z</time>
      </trkpt>
      <trkpt lat="45.42532" lon="4.65874">
        <ele>548.6988</ele>
        <time>2021-07-19T08:50:48Z</time>
      </trkpt>
      <trkpt lat="45.4253" lon="4.65872">
        <ele>548.97363</ele>
        <time>2021-07-19T08:50:49Z</time>
      </trkpt>
      <trkpt lat="45.42527" lon="4.65869">
        <ele>549.2854</ele>
        <time>2021-07-19T08:50:50Z</time>
      </trkpt>
      <trkpt lat="45.42524" lon="4.65866">
        <ele>549.41754</ele>
        <time>2021-07-19T08:50:51Z</time>
      </trkpt>
      <trkpt lat="45.42522" lon="4.65863">
        <ele>549.6078</ele>
        <time>2021-07-19T08:50:52Z</time>
      </trkpt>
      <trkpt lat="45.4252" lon="4.6586">
        <ele>549.8508</ele>
        <time>2021-07-19T08:50:53Z</time>
      </trkpt>
      <trkpt lat="45.42517" lon="4.65857">
        <ele>550.12036</ele>
        <time>2021-07-19T08:50:54Z</time>
      </trkpt>
      <trkpt lat="45.42514" lon="4.65855">
        <ele>550.1362</ele>
        <time>2021-07-19T08:50:55Z</time>
      </trkpt>
      <trkpt lat="45.42512" lon="4.65852">
        <ele>550.2736</ele>
        <time>2021-07-19T08:50:56Z</time>
      </trkpt>
      <trkpt lat="45.42509" lon="4.65849">
        <ele>550.44806</ele>
        <time>2021-07-19T08:50:57Z</time>
      </trkpt>
      <trkpt lat="45.42507" lon="4.65845">
        <ele>550.68054</ele>
        <time>2021-07-19T08:50:58Z</time>
      </trkpt>
      <trkpt lat="45.42505" lon="4.65843">
        <ele>550.8021</ele>
        <time>2021-07-19T08:50:59Z</time>
      </trkpt>
      <trkpt lat="45.42503" lon="4.6584">
        <ele>551.10333</ele>
        <time>2021-07-19T08:51:00Z</time>
      </trkpt>
      <trkpt lat="45.42501" lon="4.65838">
        <ele>551.3411</ele>
        <time>2021-07-19T08:51:01Z</time>
      </trkpt>
      <trkpt lat="45.42498" lon="4.65835">
        <ele>551.4838</ele>
        <time>2021-07-19T08:51:02Z</time>
      </trkpt>
      <trkpt lat="45.42495" lon="4.65832">
        <ele>551.61066</ele>
        <time>2021-07-19T08:51:03Z</time>
      </trkpt>
      <trkpt lat="45.42493" lon="4.65828">
        <ele>551.9383</ele>
        <time>2021-07-19T08:51:04Z</time>
      </trkpt>
      <trkpt lat="45.4249" lon="4.65826">
        <ele>552.05457</ele>
        <time>2021-07-19T08:51:05Z</time>
      </trkpt>
      <trkpt lat="45.42489" lon="4.65823">
        <ele>552.4245</ele>
        <time>2021-07-19T08:51:06Z</time>
      </trkpt>
      <trkpt lat="45.42486" lon="4.6582">
        <ele>552.583</ele>
        <time>2021-07-19T08:51:07Z</time>
      </trkpt>
      <trkpt lat="45.42484" lon="4.65817">
        <ele>552.9318</ele>
        <time>2021-07-19T08:51:08Z</time>
      </trkpt>
      <trkpt lat="45.42481" lon="4.65815">
        <ele>553.2225</ele>
        <time>2021-07-19T08:51:09Z</time>
      </trkpt>
      <trkpt lat="45.42479" lon="4.65812">
        <ele>553.53424</ele>
        <time>2021-07-19T08:51:10Z</time>
      </trkpt>
      <trkpt lat="45.42476" lon="4.65809">
        <ele>553.69806</ele>
        <time>2021-07-19T08:51:11Z</time>
      </trkpt>
      <trkpt lat="45.42474" lon="4.65807">
        <ele>553.98346</ele>
        <time>2021-07-19T08:51:12Z</time>
      </trkpt>
      <trkpt lat="45.42473" lon="4.65804">
        <ele>554.36395</ele>
        <time>2021-07-19T08:51:13Z</time>
      </trkpt>
      <trkpt lat="45.42472" lon="4.65801">
        <ele>554.70215</ele>
        <time>2021-07-19T08:51:14Z</time>
      </trkpt>
      <trkpt lat="45.42471" lon="4.65797">
        <ele>554.9188</ele>
        <time>2021-07-19T08:51:15Z</time>
      </trkpt>
      <trkpt lat="45.42469" lon="4.65795">
        <ele>555.00336</ele>
        <time>2021-07-19T08:51:16Z</time>
      </trkpt>
      <trkpt lat="45.42468" lon="4.65792">
        <ele>555.2782</ele>
        <time>2021-07-19T08:51:17Z</time>
      </trkpt>
      <trkpt lat="45.42467" lon="4.65789">
        <ele>555.442</ele>
        <time>2021-07-19T08:51:18Z</time>
      </trkpt>
      <trkpt lat="45.42466" lon="4.65786">
        <ele>555.6798</ele>
        <time>2021-07-19T08:51:19Z</time>
      </trkpt>
      <trkpt lat="45.42466" lon="4.65783">
        <ele>555.89124</ele>
        <time>2021-07-19T08:51:20Z</time>
      </trkpt>
      <trkpt lat="45.42464" lon="4.6578">
        <ele>556.1766</ele>
        <time>2021-07-19T08:51:21Z</time>
      </trkpt>
      <trkpt lat="45.42464" lon="4.65776">
        <ele>556.5888</ele>
        <time>2021-07-19T08:51:22Z</time>
      </trkpt>
      <trkpt lat="45.42463" lon="4.65773">
        <ele>556.8002</ele>
        <time>2021-07-19T08:51:23Z</time>
      </trkpt>
      <trkpt lat="45.42461" lon="4.65769">
        <ele>556.89</ele>
        <time>2021-07-19T08:51:24Z</time>
      </trkpt>
      <trkpt lat="45.4246" lon="4.65765">
        <ele>557.0433</ele>
        <time>2021-07-19T08:51:25Z</time>
      </trkpt>
      <trkpt lat="45.4246" lon="4.6576">
        <ele>557.2652</ele>
        <time>2021-07-19T08:51:26Z</time>
      </trkpt>
      <trkpt lat="45.42458" lon="4.65756">
        <ele>557.429</ele>
        <time>2021-07-19T08:51:27Z</time>
      </trkpt>
      <trkpt lat="45.42457" lon="4.65752">
        <ele>557.59814</ele>
        <time>2021-07-19T08:51:28Z</time>
      </trkpt>
      <trkpt lat="45.42456" lon="4.65748">
        <ele>557.7937</ele>
        <time>2021-07-19T08:51:29Z</time>
      </trkpt>
      <trkpt lat="45.42455" lon="4.65744">
        <ele>557.9892</ele>
        <time>2021-07-19T08:51:30Z</time>
      </trkpt>
      <trkpt lat="45.42453" lon="4.6574">
        <ele>558.10016</ele>
        <time>2021-07-19T08:51:31Z</time>
      </trkpt>
      <trkpt lat="45.42452" lon="4.65736">
        <ele>558.2904</ele>
        <time>2021-07-19T08:51:32Z</time>
      </trkpt>
      <trkpt lat="45.42451" lon="4.65733">
        <ele>558.5758</ele>
        <time>2021-07-19T08:51:33Z</time>
      </trkpt>
      <trkpt lat="45.4245" lon="4.65729">
        <ele>558.70795</ele>
        <time>2021-07-19T08:51:34Z</time>
      </trkpt>
      <trkpt lat="45.42449" lon="4.65725">
        <ele>558.97217</ele>
        <time>2021-07-19T08:51:35Z</time>
      </trkpt>
      <trkpt lat="45.42448" lon="4.65722">
        <ele>559.1307</ele>
        <time>2021-07-19T08:51:36Z</time>
      </trkpt>
      <trkpt lat="45.42447" lon="4.65718">
        <ele>559.3157</ele>
        <time>2021-07-19T08:51:37Z</time>
      </trkpt>
      <trkpt lat="45.42446" lon="4.65714">
        <ele>559.5429</ele>
        <time>2021-07-19T08:51:38Z</time>
      </trkpt>
      <trkpt lat="45.42445" lon="4.65711">
        <ele>559.92865</ele>
        <time>2021-07-19T08:51:39Z</time>
      </trkpt>
      <trkpt lat="45.42443" lon="4.65707">
        <ele>560.1401</ele>
        <time>2021-07-19T08:51:40Z</time>
      </trkpt>
      <trkpt lat="45.42442" lon="4.65704">
        <ele>560.4677</ele>
        <time>2021-07-19T08:51:41Z</time>
      </trkpt>
      <trkpt lat="45.42441" lon="4.657">
        <ele>560.7267</ele>
        <time>2021-07-19T08:51:42Z</time>
      </trkpt>
      <trkpt lat="45.4244" lon="4.65697">
        <ele>560.8218</ele>
        <time>2021-07-19T08:51:43Z</time>
      </trkpt>
      <trkpt lat="45.42439" lon="4.65694">
        <ele>561.1864</ele>
        <time>2021-07-19T08:51:44Z</time>
      </trkpt>
      <trkpt lat="45.42437" lon="4.65691">
        <ele>561.4718</ele>
        <time>2021-07-19T08:51:45Z</time>
      </trkpt>
      <trkpt lat="45.42436" lon="4.65687">
        <ele>561.8311</ele>
        <time>2021-07-19T08:51:46Z</time>
      </trkpt>
      <trkpt lat="45.42436" lon="4.65685">
        <ele>562.1377</ele>
        <time>2021-07-19T08:51:47Z</time>
      </trkpt>
      <trkpt lat="45.42435" lon="4.65682">
        <ele>562.34906</ele>
        <time>2021-07-19T08:51:48Z</time>
      </trkpt>
      <trkpt lat="45.42434" lon="4.65679">
        <ele>562.9515</ele>
        <time>2021-07-19T08:51:49Z</time>
      </trkpt>
      <trkpt lat="45.42433" lon="4.65675">
        <ele>562.7559</ele>
        <time>2021-07-19T08:51:50Z</time>
      </trkpt>
      <trkpt lat="45.42432" lon="4.65671">
        <ele>562.77185</ele>
        <time>2021-07-19T08:51:51Z</time>
      </trkpt>
      <trkpt lat="45.42431" lon="4.65667">
        <ele>563.14703</ele>
        <time>2021-07-19T08:51:52Z</time>
      </trkpt>
      <trkpt lat="45.4243" lon="4.65663">
        <ele>563.2369</ele>
        <time>2021-07-19T08:51:53Z</time>
      </trkpt>
      <trkpt lat="45.42429" lon="4.6566">
        <ele>563.4852</ele>
        <time>2021-07-19T08:51:54Z</time>
      </trkpt>
      <trkpt lat="45.42427" lon="4.65656">
        <ele>563.8393</ele>
        <time>2021-07-19T08:51:55Z</time>
      </trkpt>
      <trkpt lat="45.42426" lon="4.65653">
        <ele>564.0824</ele>
        <time>2021-07-19T08:51:56Z</time>
      </trkpt>
      <trkpt lat="45.42425" lon="4.65649">
        <ele>564.08765</ele>
        <time>2021-07-19T08:51:57Z</time>
      </trkpt>
      <trkpt lat="45.42424" lon="4.65646">
        <ele>564.3255</ele>
        <time>2021-07-19T08:51:58Z</time>
      </trkpt>
      <trkpt lat="45.42423" lon="4.65643">
        <ele>564.5844</ele>
        <time>2021-07-19T08:51:59Z</time>
      </trkpt>
      <trkpt lat="45.42421" lon="4.65639">
        <ele>564.8645</ele>
        <time>2021-07-19T08:52:00Z</time>
      </trkpt>
      <trkpt lat="45.4242" lon="4.65635">
        <ele>565.17633</ele>
        <time>2021-07-19T08:52:01Z</time>
      </trkpt>
      <trkpt lat="45.42419" lon="4.65631">
        <ele>565.21857</ele>
        <time>2021-07-19T08:52:02Z</time>
      </trkpt>
      <trkpt lat="45.42418" lon="4.65627">
        <ele>565.44586</ele>
        <time>2021-07-19T08:52:03Z</time>
      </trkpt>
      <trkpt lat="45.42417" lon="4.65623">
        <ele>565.6731</ele>
        <time>2021-07-19T08:52:04Z</time>
      </trkpt>
      <trkpt lat="45.42416" lon="4.65618">
        <ele>565.7999</ele>
        <time>2021-07-19T08:52:05Z</time>
      </trkpt>
      <trkpt lat="45.42415" lon="4.65614">
        <ele>566.22797</ele>
        <time>2021-07-19T08:52:06Z</time>
      </trkpt>
      <trkpt lat="45.42414" lon="4.6561">
        <ele>566.25964</ele>
        <time>2021-07-19T08:52:07Z</time>
      </trkpt>
      <trkpt lat="45.42413" lon="4.65605">
        <ele>566.5239</ele>
        <time>2021-07-19T08:52:08Z</time>
      </trkpt>
      <trkpt lat="45.42413" lon="4.65601">
        <ele>566.64014</ele>
        <time>2021-07-19T08:52:09Z</time>
      </trkpt>
      <trkpt lat="45.42412" lon="4.65597">
        <ele>566.7564</ele>
        <time>2021-07-19T08:52:10Z</time>
      </trkpt>
      <trkpt lat="45.42411" lon="4.65594">
        <ele>567.07355</ele>
        <time>2021-07-19T08:52:11Z</time>
      </trkpt>
      <trkpt lat="45.4241" lon="4.6559">
        <ele>567.31134</ele>
        <time>2021-07-19T08:52:12Z</time>
      </trkpt>
      <trkpt lat="45.42409" lon="4.65584">
        <ele>567.5967</ele>
        <time>2021-07-19T08:52:13Z</time>
      </trkpt>
      <trkpt lat="45.42408" lon="4.6558">
        <ele>567.7235</ele>
        <time>2021-07-19T08:52:14Z</time>
      </trkpt>
      <trkpt lat="45.42407" lon="4.65577">
        <ele>567.7817</ele>
        <time>2021-07-19T08:52:15Z</time>
      </trkpt>
      <trkpt lat="45.42407" lon="4.65573">
        <ele>568.04584</ele>
        <time>2021-07-19T08:52:16Z</time>
      </trkpt>
      <trkpt lat="45.42407" lon="4.65569">
        <ele>568.45276</ele>
        <time>2021-07-19T08:52:17Z</time>
      </trkpt>
      <trkpt lat="45.42406" lon="4.65565">
        <ele>568.89667</ele>
        <time>2021-07-19T08:52:18Z</time>
      </trkpt>
      <trkpt lat="45.42405" lon="4.65561">
        <ele>569.0869</ele>
        <time>2021-07-19T08:52:19Z</time>
      </trkpt>
      <trkpt lat="45.42404" lon="4.65557">
        <ele>569.53613</ele>
        <time>2021-07-19T08:52:20Z</time>
      </trkpt>
      <trkpt lat="45.42403" lon="4.65553">
        <ele>570.1016</ele>
        <time>2021-07-19T08:52:21Z</time>
      </trkpt>
      <trkpt lat="45.42402" lon="4.65548">
        <ele>570.239</ele>
        <time>2021-07-19T08:52:22Z</time>
      </trkpt>
      <trkpt lat="45.42402" lon="4.65544">
        <ele>570.32355</ele>
        <time>2021-07-19T08:52:23Z</time>
      </trkpt>
      <trkpt lat="45.42401" lon="4.65539">
        <ele>570.70935</ele>
        <time>2021-07-19T08:52:24Z</time>
      </trkpt>
      <trkpt lat="45.424" lon="4.65535">
        <ele>570.84674</ele>
        <time>2021-07-19T08:52:25Z</time>
      </trkpt>
      <trkpt lat="45.424" lon="4.65531">
        <ele>571.2431</ele>
        <time>2021-07-19T08:52:26Z</time>
      </trkpt>
      <trkpt lat="45.424" lon="4.65527">
        <ele>571.5813</ele>
        <time>2021-07-19T08:52:27Z</time>
      </trkpt>
      <trkpt lat="45.42399" lon="4.65523">
        <ele>571.7134</ele>
        <time>2021-07-19T08:52:28Z</time>
      </trkpt>
      <trkpt lat="45.42398" lon="4.65519">
        <ele>571.80853</ele>
        <time>2021-07-19T08:52:29Z</time>
      </trkpt>
      <trkpt lat="45.42398" lon="4.65515">
        <ele>572.05164</ele>
        <time>2021-07-19T08:52:30Z</time>
      </trkpt>
      <trkpt lat="45.42397" lon="4.65511">
        <ele>572.21545</ele>
        <time>2021-07-19T08:52:31Z</time>
      </trkpt>
      <trkpt lat="45.42397" lon="4.65506">
        <ele>572.4797</ele>
        <time>2021-07-19T08:52:32Z</time>
      </trkpt>
      <trkpt lat="45.42397" lon="4.65503">
        <ele>572.7228</ele>
        <time>2021-07-19T08:52:33Z</time>
      </trkpt>
      <trkpt lat="45.42397" lon="4.65499">
        <ele>572.8549</ele>
        <time>2021-07-19T08:52:34Z</time>
      </trkpt>
      <trkpt lat="45.42396" lon="4.65496">
        <ele>572.95</ele>
        <time>2021-07-19T08:52:35Z</time>
      </trkpt>
      <trkpt lat="45.42396" lon="4.65491">
        <ele>573.03986</ele>
        <time>2021-07-19T08:52:36Z</time>
      </trkpt>
      <trkpt lat="45.42396" lon="4.65487">
        <ele>573.5102</ele>
        <time>2021-07-19T08:52:37Z</time>
      </trkpt>
      <trkpt lat="45.42397" lon="4.65484">
        <ele>573.6687</ele>
        <time>2021-07-19T08:52:38Z</time>
      </trkpt>
      <trkpt lat="45.42397" lon="4.6548">
        <ele>573.9277</ele>
        <time>2021-07-19T08:52:39Z</time>
      </trkpt>
      <trkpt lat="45.42396" lon="4.65476">
        <ele>574.1179</ele>
        <time>2021-07-19T08:52:40Z</time>
      </trkpt>
      <trkpt lat="45.42396" lon="4.65473">
        <ele>574.2342</ele>
        <time>2021-07-19T08:52:41Z</time>
      </trkpt>
      <trkpt lat="45.42396" lon="4.65469">
        <ele>574.5724</ele>
        <time>2021-07-19T08:52:42Z</time>
      </trkpt>
      <trkpt lat="45.42395" lon="4.65465">
        <ele>574.8102</ele>
        <time>2021-07-19T08:52:43Z</time>
      </trkpt>
      <trkpt lat="45.42395" lon="4.65461">
        <ele>574.98987</ele>
        <time>2021-07-19T08:52:44Z</time>
      </trkpt>
      <trkpt lat="45.42394" lon="4.65457">
        <ele>575.1379</ele>
        <time>2021-07-19T08:52:45Z</time>
      </trkpt>
      <trkpt lat="45.42394" lon="4.65453">
        <ele>575.3281</ele>
        <time>2021-07-19T08:52:46Z</time>
      </trkpt>
      <trkpt lat="45.42393" lon="4.65449">
        <ele>575.5448</ele>
        <time>2021-07-19T08:52:47Z</time>
      </trkpt>
      <trkpt lat="45.42392" lon="4.65445">
        <ele>576.0468</ele>
        <time>2021-07-19T08:52:48Z</time>
      </trkpt>
      <trkpt lat="45.42392" lon="4.65442">
        <ele>576.41675</ele>
        <time>2021-07-19T08:52:49Z</time>
      </trkpt>
      <trkpt lat="45.42391" lon="4.65437">
        <ele>576.4854</ele>
        <time>2021-07-19T08:52:50Z</time>
      </trkpt>
      <trkpt lat="45.4239" lon="4.65432">
        <ele>576.79724</ele>
        <time>2021-07-19T08:52:51Z</time>
      </trkpt>
      <trkpt lat="45.4239" lon="4.65429">
        <ele>576.91876</ele>
        <time>2021-07-19T08:52:52Z</time>
      </trkpt>
      <trkpt lat="45.42389" lon="4.65425">
        <ele>576.8765</ele>
        <time>2021-07-19T08:52:53Z</time>
      </trkpt>
      <trkpt lat="45.42388" lon="4.65421">
        <ele>577.1513</ele>
        <time>2021-07-19T08:52:54Z</time>
      </trkpt>
      <trkpt lat="45.42387" lon="4.65417">
        <ele>577.1249</ele>
        <time>2021-07-19T08:52:55Z</time>
      </trkpt>
      <trkpt lat="45.42386" lon="4.65413">
        <ele>577.3574</ele>
        <time>2021-07-19T08:52:56Z</time>
      </trkpt>
      <trkpt lat="45.42385" lon="4.6541">
        <ele>577.42615</ele>
        <time>2021-07-19T08:52:57Z</time>
      </trkpt>
      <trkpt lat="45.42384" lon="4.65406">
        <ele>577.7379</ele>
        <time>2021-07-19T08:52:58Z</time>
      </trkpt>
      <trkpt lat="45.42383" lon="4.65402">
        <ele>577.94403</ele>
        <time>2021-07-19T08:52:59Z</time>
      </trkpt>
      <trkpt lat="45.42382" lon="4.65398">
        <ele>578.2981</ele>
        <time>2021-07-19T08:53:00Z</time>
      </trkpt>
      <trkpt lat="45.4238" lon="4.65393">
        <ele>578.28754</ele>
        <time>2021-07-19T08:53:01Z</time>
      </trkpt>
      <trkpt lat="45.42379" lon="4.65389">
        <ele>578.5042</ele>
        <time>2021-07-19T08:53:02Z</time>
      </trkpt>
      <trkpt lat="45.42378" lon="4.65385">
        <ele>578.78424</ele>
        <time>2021-07-19T08:53:03Z</time>
      </trkpt>
      <trkpt lat="45.42376" lon="4.65381">
        <ele>579.02734</ele>
        <time>2021-07-19T08:53:04Z</time>
      </trkpt>
      <trkpt lat="45.42375" lon="4.65377">
        <ele>579.1859</ele>
        <time>2021-07-19T08:53:05Z</time>
      </trkpt>
      <trkpt lat="45.42373" lon="4.65374">
        <ele>579.429</ele>
        <time>2021-07-19T08:53:06Z</time>
      </trkpt>
      <trkpt lat="45.42372" lon="4.6537">
        <ele>579.61395</ele>
        <time>2021-07-19T08:53:07Z</time>
      </trkpt>
      <trkpt lat="45.42371" lon="4.65367">
        <ele>579.82007</ele>
        <time>2021-07-19T08:53:08Z</time>
      </trkpt>
      <trkpt lat="45.42371" lon="4.65364">
        <ele>579.98914</ele>
        <time>2021-07-19T08:53:09Z</time>
      </trkpt>
      <trkpt lat="45.4237" lon="4.65361">
        <ele>580.3961</ele>
        <time>2021-07-19T08:53:10Z</time>
      </trkpt>
      <trkpt lat="45.42368" lon="4.65357">
        <ele>580.79767</ele>
        <time>2021-07-19T08:53:11Z</time>
      </trkpt>
      <trkpt lat="45.42368" lon="4.65354">
        <ele>580.9932</ele>
        <time>2021-07-19T08:53:12Z</time>
      </trkpt>
      <trkpt lat="45.42366" lon="4.6535">
        <ele>581.0091</ele>
        <time>2021-07-19T08:53:13Z</time>
      </trkpt>
      <trkpt lat="45.42365" lon="4.65347">
        <ele>581.1148</ele>
        <time>2021-07-19T08:53:14Z</time>
      </trkpt>
      <trkpt lat="45.42364" lon="4.65344">
        <ele>581.3473</ele>
        <time>2021-07-19T08:53:15Z</time>
      </trkpt>
      <trkpt lat="45.42363" lon="4.6534">
        <ele>581.6327</ele>
        <time>2021-07-19T08:53:16Z</time>
      </trkpt>
      <trkpt lat="45.42363" lon="4.65337">
        <ele>581.7595</ele>
        <time>2021-07-19T08:53:17Z</time>
      </trkpt>
      <trkpt lat="45.42362" lon="4.65334">
        <ele>582.0554</ele>
        <time>2021-07-19T08:53:18Z</time>
      </trkpt>
      <trkpt lat="45.42361" lon="4.6533">
        <ele>582.362</ele>
        <time>2021-07-19T08:53:19Z</time>
      </trkpt>
      <trkpt lat="45.4236" lon="4.65326">
        <ele>582.56274</ele>
        <time>2021-07-19T08:53:20Z</time>
      </trkpt>
      <trkpt lat="45.42359" lon="4.65323">
        <ele>582.71075</ele>
        <time>2021-07-19T08:53:21Z</time>
      </trkpt>
      <trkpt lat="45.42358" lon="4.65319">
        <ele>582.8957</ele>
        <time>2021-07-19T08:53:22Z</time>
      </trkpt>
      <trkpt lat="45.42358" lon="4.65316">
        <ele>583.11237</ele>
        <time>2021-07-19T08:53:23Z</time>
      </trkpt>
      <trkpt lat="45.42356" lon="4.65311">
        <ele>583.4189</ele>
        <time>2021-07-19T08:53:24Z</time>
      </trkpt>
      <trkpt lat="45.42355" lon="4.65307">
        <ele>583.7465</ele>
        <time>2021-07-19T08:53:25Z</time>
      </trkpt>
      <trkpt lat="45.42355" lon="4.65304">
        <ele>584.17456</ele>
        <time>2021-07-19T08:53:26Z</time>
      </trkpt>
      <trkpt lat="45.42354" lon="4.653">
        <ele>584.4283</ele>
        <time>2021-07-19T08:53:27Z</time>
      </trkpt>
      <trkpt lat="45.42353" lon="4.65295">
        <ele>584.80347</ele>
        <time>2021-07-19T08:53:28Z</time>
      </trkpt>
      <trkpt lat="45.42352" lon="4.65291">
        <ele>584.9937</ele>
        <time>2021-07-19T08:53:29Z</time>
      </trkpt>
      <trkpt lat="45.42351" lon="4.65287">
        <ele>584.9673</ele>
        <time>2021-07-19T08:53:30Z</time>
      </trkpt>
      <trkpt lat="45.4235" lon="4.65283">
        <ele>585.18396</ele>
        <time>2021-07-19T08:53:31Z</time>
      </trkpt>
      <trkpt lat="45.42348" lon="4.65278">
        <ele>585.332</ele>
        <time>2021-07-19T08:53:32Z</time>
      </trkpt>
      <trkpt lat="45.42347" lon="4.65274">
        <ele>585.6384</ele>
        <time>2021-07-19T08:53:33Z</time>
      </trkpt>
      <trkpt lat="45.42345" lon="4.6527">
        <ele>585.84985</ele>
        <time>2021-07-19T08:53:34Z</time>
      </trkpt>
      <trkpt lat="45.42344" lon="4.65266">
        <ele>586.0718</ele>
        <time>2021-07-19T08:53:35Z</time>
      </trkpt>
      <trkpt lat="45.42344" lon="4.65262">
        <ele>586.2568</ele>
        <time>2021-07-19T08:53:36Z</time>
      </trkpt>
      <trkpt lat="45.42343" lon="4.65259">
        <ele>586.32544</ele>
        <time>2021-07-19T08:53:37Z</time>
      </trkpt>
      <trkpt lat="45.42342" lon="4.65255">
        <ele>586.558</ele>
        <time>2021-07-19T08:53:38Z</time>
      </trkpt>
      <trkpt lat="45.42341" lon="4.65251">
        <ele>586.70593</ele>
        <time>2021-07-19T08:53:39Z</time>
      </trkpt>
      <trkpt lat="45.42339" lon="4.65247">
        <ele>587.0389</ele>
        <time>2021-07-19T08:53:40Z</time>
      </trkpt>
      <trkpt lat="45.42339" lon="4.65242">
        <ele>587.1763</ele>
        <time>2021-07-19T08:53:41Z</time>
      </trkpt>
      <trkpt lat="45.42337" lon="4.65237">
        <ele>587.49335</ele>
        <time>2021-07-19T08:53:42Z</time>
      </trkpt>
      <trkpt lat="45.42337" lon="4.65233">
        <ele>587.784</ele>
        <time>2021-07-19T08:53:43Z</time>
      </trkpt>
      <trkpt lat="45.42336" lon="4.65229">
        <ele>587.87384</ele>
        <time>2021-07-19T08:53:44Z</time>
      </trkpt>
      <trkpt lat="45.42336" lon="4.65226">
        <ele>588.07996</ele>
        <time>2021-07-19T08:53:45Z</time>
      </trkpt>
      <trkpt lat="45.42335" lon="4.65222">
        <ele>588.2861</ele>
        <time>2021-07-19T08:53:46Z</time>
      </trkpt>
      <trkpt lat="45.42334" lon="4.65218">
        <ele>588.50275</ele>
        <time>2021-07-19T08:53:47Z</time>
      </trkpt>
      <trkpt lat="45.42334" lon="4.65215">
        <ele>588.5925</ele>
        <time>2021-07-19T08:53:48Z</time>
      </trkpt>
      <trkpt lat="45.42333" lon="4.65211">
        <ele>588.9466</ele>
        <time>2021-07-19T08:53:49Z</time>
      </trkpt>
      <trkpt lat="45.42332" lon="4.65207">
        <ele>589.232</ele>
        <time>2021-07-19T08:53:50Z</time>
      </trkpt>
      <trkpt lat="45.42331" lon="4.65203">
        <ele>589.5121</ele>
        <time>2021-07-19T08:53:51Z</time>
      </trkpt>
      <trkpt lat="45.4233" lon="4.652">
        <ele>589.82916</ele>
        <time>2021-07-19T08:53:52Z</time>
      </trkpt>
      <trkpt lat="45.42329" lon="4.65197">
        <ele>590.0352</ele>
        <time>2021-07-19T08:53:53Z</time>
      </trkpt>
      <trkpt lat="45.42329" lon="4.65193">
        <ele>590.3418</ele>
        <time>2021-07-19T08:53:54Z</time>
      </trkpt>
      <trkpt lat="45.42328" lon="4.6519">
        <ele>590.4316</ele>
        <time>2021-07-19T08:53:55Z</time>
      </trkpt>
      <trkpt lat="45.42328" lon="4.65187">
        <ele>590.7645</ele>
        <time>2021-07-19T08:53:56Z</time>
      </trkpt>
      <trkpt lat="45.42327" lon="4.65183">
        <ele>590.9601</ele>
        <time>2021-07-19T08:53:57Z</time>
      </trkpt>
      <trkpt lat="45.42326" lon="4.65179">
        <ele>591.1503</ele>
        <time>2021-07-19T08:53:58Z</time>
      </trkpt>
      <trkpt lat="45.42325" lon="4.65175">
        <ele>591.3458</ele>
        <time>2021-07-19T08:53:59Z</time>
      </trkpt>
      <trkpt lat="45.42324" lon="4.6517">
        <ele>591.68933</ele>
        <time>2021-07-19T08:54:00Z</time>
      </trkpt>
      <trkpt lat="45.42324" lon="4.65166">
        <ele>591.80035</ele>
        <time>2021-07-19T08:54:01Z</time>
      </trkpt>
      <trkpt lat="45.42323" lon="4.65161">
        <ele>591.99585</ele>
        <time>2021-07-19T08:54:02Z</time>
      </trkpt>
      <trkpt lat="45.42322" lon="4.65156">
        <ele>592.3129</ele>
        <time>2021-07-19T08:54:03Z</time>
      </trkpt>
      <trkpt lat="45.42321" lon="4.65152">
        <ele>592.4873</ele>
        <time>2021-07-19T08:54:04Z</time>
      </trkpt>
      <trkpt lat="45.4232" lon="4.65147">
        <ele>592.8942</ele>
        <time>2021-07-19T08:54:05Z</time>
      </trkpt>
      <trkpt lat="45.4232" lon="4.65143">
        <ele>593.16907</ele>
        <time>2021-07-19T08:54:06Z</time>
      </trkpt>
      <trkpt lat="45.42319" lon="4.65139">
        <ele>593.31177</ele>
        <time>2021-07-19T08:54:07Z</time>
      </trkpt>
      <trkpt lat="45.42318" lon="4.65135">
        <ele>593.6341</ele>
        <time>2021-07-19T08:54:09Z</time>
      </trkpt>
      <trkpt lat="45.42318" lon="4.65131">
        <ele>593.92474</ele>
        <time>2021-07-19T08:54:10Z</time>
      </trkpt>
      <trkpt lat="45.42317" lon="4.65127">
        <ele>594.13086</ele>
        <time>2021-07-19T08:54:11Z</time>
      </trkpt>
      <trkpt lat="45.42316" lon="4.65123">
        <ele>594.41626</ele>
        <time>2021-07-19T08:54:12Z</time>
      </trkpt>
      <trkpt lat="45.42315" lon="4.65121">
        <ele>594.65405</ele>
        <time>2021-07-19T08:54:13Z</time>
      </trkpt>
      <trkpt lat="45.42315" lon="4.65117">
        <ele>594.95526</ele>
        <time>2021-07-19T08:54:14Z</time>
      </trkpt>
      <trkpt lat="45.42313" lon="4.65113">
        <ele>595.11383</ele>
        <time>2021-07-19T08:54:15Z</time>
      </trkpt>
      <trkpt lat="45.42313" lon="4.65109">
        <ele>595.2195</ele>
        <time>2021-07-19T08:54:16Z</time>
      </trkpt>
      <trkpt lat="45.42312" lon="4.65105">
        <ele>595.43616</ele>
        <time>2021-07-19T08:54:17Z</time>
      </trkpt>
      <trkpt lat="45.42312" lon="4.65101">
        <ele>595.55774</ele>
        <time>2021-07-19T08:54:18Z</time>
      </trkpt>
      <trkpt lat="45.42311" lon="4.65097">
        <ele>595.8642</ele>
        <time>2021-07-19T08:54:19Z</time>
      </trkpt>
      <trkpt lat="45.4231" lon="4.65094">
        <ele>596.05975</ele>
        <time>2021-07-19T08:54:20Z</time>
      </trkpt>
      <trkpt lat="45.4231" lon="4.6509">
        <ele>596.3715</ele>
        <time>2021-07-19T08:54:21Z</time>
      </trkpt>
      <trkpt lat="45.42309" lon="4.65087">
        <ele>596.4297</ele>
        <time>2021-07-19T08:54:22Z</time>
      </trkpt>
      <trkpt lat="45.42308" lon="4.65083">
        <ele>596.7309</ele>
        <time>2021-07-19T08:54:23Z</time>
      </trkpt>
      <trkpt lat="45.42307" lon="4.65079">
        <ele>596.84717</ele>
        <time>2021-07-19T08:54:24Z</time>
      </trkpt>
      <trkpt lat="45.42307" lon="4.65076">
        <ele>597.16956</ele>
        <time>2021-07-19T08:54:25Z</time>
      </trkpt>
      <trkpt lat="45.42307" lon="4.65072">
        <ele>597.42316</ele>
        <time>2021-07-19T08:54:26Z</time>
      </trkpt>
      <trkpt lat="45.42306" lon="4.65068">
        <ele>597.68744</ele>
        <time>2021-07-19T08:54:27Z</time>
      </trkpt>
      <trkpt lat="45.42306" lon="4.65065">
        <ele>597.88824</ele>
        <time>2021-07-19T08:54:28Z</time>
      </trkpt>
      <trkpt lat="45.42305" lon="4.6506">
        <ele>598.1049</ele>
        <time>2021-07-19T08:54:29Z</time>
      </trkpt>
      <trkpt lat="45.42305" lon="4.65057">
        <ele>598.32684</ele>
        <time>2021-07-19T08:54:30Z</time>
      </trkpt>
      <trkpt lat="45.42305" lon="4.65053">
        <ele>598.5805</ele>
        <time>2021-07-19T08:54:31Z</time>
      </trkpt>
      <trkpt lat="45.42304" lon="4.6505">
        <ele>598.8976</ele>
        <time>2021-07-19T08:54:32Z</time>
      </trkpt>
      <trkpt lat="45.42304" lon="4.65048">
        <ele>599.2094</ele>
        <time>2021-07-19T08:54:33Z</time>
      </trkpt>
      <trkpt lat="45.42304" lon="4.65044">
        <ele>599.47894</ele>
        <time>2021-07-19T08:54:34Z</time>
      </trkpt>
      <trkpt lat="45.42303" lon="4.65041">
        <ele>599.73785</ele>
        <time>2021-07-19T08:54:35Z</time>
      </trkpt>
      <trkpt lat="45.42303" lon="4.65037">
        <ele>599.9598</ele>
        <time>2021-07-19T08:54:36Z</time>
      </trkpt>
      <trkpt lat="45.42302" lon="4.65034">
        <ele>600.0919</ele>
        <time>2021-07-19T08:54:37Z</time>
      </trkpt>
      <trkpt lat="45.42302" lon="4.65031">
        <ele>600.39844</ele>
        <time>2021-07-19T08:54:38Z</time>
      </trkpt>
      <trkpt lat="45.42301" lon="4.65028">
        <ele>600.6151</ele>
        <time>2021-07-19T08:54:39Z</time>
      </trkpt>
      <trkpt lat="45.423" lon="4.65024">
        <ele>600.8106</ele>
        <time>2021-07-19T08:54:40Z</time>
      </trkpt>
      <trkpt lat="45.42299" lon="4.65021">
        <ele>601.00616</ele>
        <time>2021-07-19T08:54:41Z</time>
      </trkpt>
      <trkpt lat="45.42299" lon="4.65018">
        <ele>601.096</ele>
        <time>2021-07-19T08:54:42Z</time>
      </trkpt>
      <trkpt lat="45.42298" lon="4.65014">
        <ele>601.5399</ele>
        <time>2021-07-19T08:54:43Z</time>
      </trkpt>
      <trkpt lat="45.42297" lon="4.6501">
        <ele>601.7196</ele>
        <time>2021-07-19T08:54:44Z</time>
      </trkpt>
      <trkpt lat="45.42297" lon="4.65006">
        <ele>601.894</ele>
        <time>2021-07-19T08:54:45Z</time>
      </trkpt>
      <trkpt lat="45.42296" lon="4.65001">
        <ele>602.1371</ele>
        <time>2021-07-19T08:54:46Z</time>
      </trkpt>
      <trkpt lat="45.42296" lon="4.64997">
        <ele>602.3855</ele>
        <time>2021-07-19T08:54:47Z</time>
      </trkpt>
      <trkpt lat="45.42295" lon="4.64993">
        <ele>602.5651</ele>
        <time>2021-07-19T08:54:48Z</time>
      </trkpt>
      <trkpt lat="45.42294" lon="4.64988">
        <ele>602.8822</ele>
        <time>2021-07-19T08:54:49Z</time>
      </trkpt>
      <trkpt lat="45.42293" lon="4.64985">
        <ele>602.95624</ele>
        <time>2021-07-19T08:54:50Z</time>
      </trkpt>
      <trkpt lat="45.42292" lon="4.64981">
        <ele>603.12</ele>
        <time>2021-07-19T08:54:51Z</time>
      </trkpt>
      <trkpt lat="45.42291" lon="4.64977">
        <ele>603.39484</ele>
        <time>2021-07-19T08:54:52Z</time>
      </trkpt>
      <trkpt lat="45.42291" lon="4.64974">
        <ele>603.5428</ele>
        <time>2021-07-19T08:54:53Z</time>
      </trkpt>
      <trkpt lat="45.4229" lon="4.64971">
        <ele>603.70667</ele>
        <time>2021-07-19T08:54:54Z</time>
      </trkpt>
      <trkpt lat="45.4229" lon="4.64968">
        <ele>604.029</ele>
        <time>2021-07-19T08:54:55Z</time>
      </trkpt>
      <trkpt lat="45.42289" lon="4.64964">
        <ele>604.1928</ele>
        <time>2021-07-19T08:54:56Z</time>
      </trkpt>
      <trkpt lat="45.42288" lon="4.6496">
        <ele>604.3514</ele>
        <time>2021-07-19T08:54:57Z</time>
      </trkpt>
      <trkpt lat="45.42288" lon="4.64956">
        <ele>604.52576</ele>
        <time>2021-07-19T08:54:58Z</time>
      </trkpt>
      <trkpt lat="45.42287" lon="4.64952">
        <ele>604.716</ele>
        <time>2021-07-19T08:54:59Z</time>
      </trkpt>
      <trkpt lat="45.42288" lon="4.64948">
        <ele>604.9221</ele>
        <time>2021-07-19T08:55:00Z</time>
      </trkpt>
      <trkpt lat="45.42287" lon="4.64942">
        <ele>605.14404</ele>
        <time>2021-07-19T08:55:01Z</time>
      </trkpt>
      <trkpt lat="45.42287" lon="4.64936">
        <ele>605.19165</ele>
        <time>2021-07-19T08:55:02Z</time>
      </trkpt>
      <trkpt lat="45.42286" lon="4.6493">
        <ele>605.58264</ele>
        <time>2021-07-19T08:55:03Z</time>
      </trkpt>
      <trkpt lat="45.42285" lon="4.64925">
        <ele>605.91034</ele>
        <time>2021-07-19T08:55:04Z</time>
      </trkpt>
      <trkpt lat="45.42284" lon="4.64921">
        <ele>606.16394</ele>
        <time>2021-07-19T08:55:05Z</time>
      </trkpt>
      <trkpt lat="45.42283" lon="4.64918">
        <ele>606.31726</ele>
        <time>2021-07-19T08:55:06Z</time>
      </trkpt>
      <trkpt lat="45.42283" lon="4.64914">
        <ele>606.4388</ele>
        <time>2021-07-19T08:55:07Z</time>
      </trkpt>
      <trkpt lat="45.42283" lon="4.6491">
        <ele>606.6872</ele>
        <time>2021-07-19T08:55:08Z</time>
      </trkpt>
      <trkpt lat="45.42282" lon="4.64906">
        <ele>606.8668</ele>
        <time>2021-07-19T08:55:09Z</time>
      </trkpt>
      <trkpt lat="45.42281" lon="4.64902">
        <ele>606.91437</ele>
        <time>2021-07-19T08:55:10Z</time>
      </trkpt>
      <trkpt lat="45.42281" lon="4.64899">
        <ele>607.13635</ele>
        <time>2021-07-19T08:55:11Z</time>
      </trkpt>
      <trkpt lat="45.42281" lon="4.64893">
        <ele>607.2209</ele>
        <time>2021-07-19T08:55:12Z</time>
      </trkpt>
      <trkpt lat="45.4228" lon="4.6489">
        <ele>607.51154</ele>
        <time>2021-07-19T08:55:13Z</time>
      </trkpt>
      <trkpt lat="45.4228" lon="4.64886">
        <ele>607.6912</ele>
        <time>2021-07-19T08:55:14Z</time>
      </trkpt>
      <trkpt lat="45.42279" lon="4.64883">
        <ele>607.7916</ele>
        <time>2021-07-19T08:55:15Z</time>
      </trkpt>
      <trkpt lat="45.42279" lon="4.64879">
        <ele>607.91846</ele>
        <time>2021-07-19T08:55:16Z</time>
      </trkpt>
      <trkpt lat="45.42279" lon="4.64875">
        <ele>608.24615</ele>
        <time>2021-07-19T08:55:17Z</time>
      </trkpt>
      <trkpt lat="45.42279" lon="4.64872">
        <ele>608.34125</ele>
        <time>2021-07-19T08:55:18Z</time>
      </trkpt>
      <trkpt lat="45.42279" lon="4.64869">
        <ele>608.5685</ele>
        <time>2021-07-19T08:55:19Z</time>
      </trkpt>
      <trkpt lat="45.42278" lon="4.64865">
        <ele>608.7693</ele>
        <time>2021-07-19T08:55:20Z</time>
      </trkpt>
      <trkpt lat="45.42278" lon="4.64862">
        <ele>608.9701</ele>
        <time>2021-07-19T08:55:21Z</time>
      </trkpt>
      <trkpt lat="45.42278" lon="4.64857">
        <ele>609.0917</ele>
        <time>2021-07-19T08:55:22Z</time>
      </trkpt>
      <trkpt lat="45.42278" lon="4.64852">
        <ele>609.2819</ele>
        <time>2021-07-19T08:55:23Z</time>
      </trkpt>
      <trkpt lat="45.42278" lon="4.64847">
        <ele>609.6148</ele>
        <time>2021-07-19T08:55:24Z</time>
      </trkpt>
      <trkpt lat="45.42277" lon="4.64843">
        <ele>609.673</ele>
        <time>2021-07-19T08:55:25Z</time>
      </trkpt>
      <trkpt lat="45.42277" lon="4.64839">
        <ele>609.92664</ele>
        <time>2021-07-19T08:55:26Z</time>
      </trkpt>
      <trkpt lat="45.42276" lon="4.64835">
        <ele>610.09045</ele>
        <time>2021-07-19T08:55:27Z</time>
      </trkpt>
      <trkpt lat="45.42276" lon="4.64832">
        <ele>610.1169</ele>
        <time>2021-07-19T08:55:28Z</time>
      </trkpt>
      <trkpt lat="45.42276" lon="4.64828">
        <ele>610.32825</ele>
        <time>2021-07-19T08:55:29Z</time>
      </trkpt>
      <trkpt lat="45.42276" lon="4.64825">
        <ele>610.63477</ele>
        <time>2021-07-19T08:55:30Z</time>
      </trkpt>
      <trkpt lat="45.42276" lon="4.64821">
        <ele>610.71936</ele>
        <time>2021-07-19T08:55:31Z</time>
      </trkpt>
      <trkpt lat="45.42276" lon="4.64818">
        <ele>610.83563</ele>
        <time>2021-07-19T08:55:32Z</time>
      </trkpt>
      <trkpt lat="45.42276" lon="4.64814">
        <ele>611.0787</ele>
        <time>2021-07-19T08:55:33Z</time>
      </trkpt>
      <trkpt lat="45.42276" lon="4.64811">
        <ele>611.27423</ele>
        <time>2021-07-19T08:55:34Z</time>
      </trkpt>
      <trkpt lat="45.42276" lon="4.64808">
        <ele>611.5226</ele>
        <time>2021-07-19T08:55:35Z</time>
      </trkpt>
      <trkpt lat="45.42276" lon="4.64806">
        <ele>611.7128</ele>
        <time>2021-07-19T08:55:36Z</time>
      </trkpt>
      <trkpt lat="45.42276" lon="4.64802">
        <ele>611.96124</ele>
        <time>2021-07-19T08:55:37Z</time>
      </trkpt>
      <trkpt lat="45.42276" lon="4.64799">
        <ele>612.3681</ele>
        <time>2021-07-19T08:55:38Z</time>
      </trkpt>
      <trkpt lat="45.42276" lon="4.64796">
        <ele>612.4738</ele>
        <time>2021-07-19T08:55:39Z</time>
      </trkpt>
      <trkpt lat="45.42276" lon="4.64792">
        <ele>612.78564</ele>
        <time>2021-07-19T08:55:40Z</time>
      </trkpt>
      <trkpt lat="45.42276" lon="4.64789">
        <ele>612.94946</ele>
        <time>2021-07-19T08:55:41Z</time>
      </trkpt>
      <trkpt lat="45.42276" lon="4.64785">
        <ele>613.2401</ele>
        <time>2021-07-19T08:55:42Z</time>
      </trkpt>
      <trkpt lat="45.42276" lon="4.64782">
        <ele>613.4198</ele>
        <time>2021-07-19T08:55:43Z</time>
      </trkpt>
      <trkpt lat="45.42275" lon="4.64779">
        <ele>613.61005</ele>
        <time>2021-07-19T08:55:44Z</time>
      </trkpt>
      <trkpt lat="45.42276" lon="4.64775">
        <ele>613.75275</ele>
        <time>2021-07-19T08:55:45Z</time>
      </trkpt>
      <trkpt lat="45.42276" lon="4.64772">
        <ele>614.0804</ele>
        <time>2021-07-19T08:55:46Z</time>
      </trkpt>
      <trkpt lat="45.42276" lon="4.64769">
        <ele>614.4239</ele>
        <time>2021-07-19T08:55:47Z</time>
      </trkpt>
      <trkpt lat="45.42276" lon="4.64765">
        <ele>614.6828</ele>
        <time>2021-07-19T08:55:48Z</time>
      </trkpt>
      <trkpt lat="45.42276" lon="4.64762">
        <ele>614.83075</ele>
        <time>2021-07-19T08:55:49Z</time>
      </trkpt>
      <trkpt lat="45.42276" lon="4.64759">
        <ele>615.02106</ele>
        <time>2021-07-19T08:55:50Z</time>
      </trkpt>
      <trkpt lat="45.42276" lon="4.64755">
        <ele>615.2377</ele>
        <time>2021-07-19T08:55:51Z</time>
      </trkpt>
      <trkpt lat="45.42276" lon="4.64751">
        <ele>615.4861</ele>
        <time>2021-07-19T08:55:52Z</time>
      </trkpt>
      <trkpt lat="45.42276" lon="4.64747">
        <ele>615.84546</ele>
        <time>2021-07-19T08:55:53Z</time>
      </trkpt>
      <trkpt lat="45.42276" lon="4.64743">
        <ele>616.0991</ele>
        <time>2021-07-19T08:55:54Z</time>
      </trkpt>
      <trkpt lat="45.42275" lon="4.64739">
        <ele>616.28937</ele>
        <time>2021-07-19T08:55:55Z</time>
      </trkpt>
      <trkpt lat="45.42275" lon="4.64735">
        <ele>616.50604</ele>
        <time>2021-07-19T08:55:56Z</time>
      </trkpt>
      <trkpt lat="45.42275" lon="4.64731">
        <ele>616.7385</ele>
        <time>2021-07-19T08:55:57Z</time>
      </trkpt>
      <trkpt lat="45.42275" lon="4.64727">
        <ele>616.95526</ele>
        <time>2021-07-19T08:55:58Z</time>
      </trkpt>
      <trkpt lat="45.42275" lon="4.64723">
        <ele>617.119</ele>
        <time>2021-07-19T08:55:59Z</time>
      </trkpt>
      <trkpt lat="45.42275" lon="4.64719">
        <ele>617.39386</ele>
        <time>2021-07-19T08:56:00Z</time>
      </trkpt>
      <trkpt lat="45.42275" lon="4.64716">
        <ele>617.62103</ele>
        <time>2021-07-19T08:56:01Z</time>
      </trkpt>
      <trkpt lat="45.42275" lon="4.64712">
        <ele>617.81134</ele>
        <time>2021-07-19T08:56:02Z</time>
      </trkpt>
      <trkpt lat="45.42275" lon="4.64708">
        <ele>618.09143</ele>
        <time>2021-07-19T08:56:03Z</time>
      </trkpt>
      <trkpt lat="45.42275" lon="4.64703">
        <ele>618.3504</ele>
        <time>2021-07-19T08:56:04Z</time>
      </trkpt>
      <trkpt lat="45.42275" lon="4.64699">
        <ele>618.5776</ele>
        <time>2021-07-19T08:56:05Z</time>
      </trkpt>
      <trkpt lat="45.42275" lon="4.64695">
        <ele>618.8207</ele>
        <time>2021-07-19T08:56:06Z</time>
      </trkpt>
      <trkpt lat="45.42275" lon="4.64692">
        <ele>619.1272</ele>
        <time>2021-07-19T08:56:07Z</time>
      </trkpt>
      <trkpt lat="45.42275" lon="4.64688">
        <ele>619.27515</ele>
        <time>2021-07-19T08:56:08Z</time>
      </trkpt>
      <trkpt lat="45.42274" lon="4.64685">
        <ele>619.5447</ele>
        <time>2021-07-19T08:56:09Z</time>
      </trkpt>
      <trkpt lat="45.42274" lon="4.64682">
        <ele>619.8089</ele>
        <time>2021-07-19T08:56:10Z</time>
      </trkpt>
      <trkpt lat="45.42274" lon="4.64678">
        <ele>620.1313</ele>
        <time>2021-07-19T08:56:11Z</time>
      </trkpt>
      <trkpt lat="45.42273" lon="4.64675">
        <ele>620.3902</ele>
        <time>2021-07-19T08:56:12Z</time>
      </trkpt>
      <trkpt lat="45.42273" lon="4.64671">
        <ele>620.5858</ele>
        <time>2021-07-19T08:56:13Z</time>
      </trkpt>
      <trkpt lat="45.42273" lon="4.64667">
        <ele>620.71783</ele>
        <time>2021-07-19T08:56:14Z</time>
      </trkpt>
      <trkpt lat="45.42272" lon="4.64663">
        <ele>620.9451</ele>
        <time>2021-07-19T08:56:15Z</time>
      </trkpt>
      <trkpt lat="45.42272" lon="4.64658">
        <ele>621.17236</ele>
        <time>2021-07-19T08:56:16Z</time>
      </trkpt>
      <trkpt lat="45.42272" lon="4.64653">
        <ele>621.537</ele>
        <time>2021-07-19T08:56:17Z</time>
      </trkpt>
      <trkpt lat="45.42272" lon="4.64649">
        <ele>621.76953</ele>
        <time>2021-07-19T08:56:18Z</time>
      </trkpt>
      <trkpt lat="45.42271" lon="4.64645">
        <ele>622.0232</ele>
        <time>2021-07-19T08:56:19Z</time>
      </trkpt>
      <trkpt lat="45.42271" lon="4.64641">
        <ele>622.3508</ele>
        <time>2021-07-19T08:56:20Z</time>
      </trkpt>
      <trkpt lat="45.4227" lon="4.64637">
        <ele>622.6837</ele>
        <time>2021-07-19T08:56:21Z</time>
      </trkpt>
      <trkpt lat="45.4227" lon="4.64633">
        <ele>622.93744</ele>
        <time>2021-07-19T08:56:22Z</time>
      </trkpt>
      <trkpt lat="45.4227" lon="4.64629">
        <ele>623.17523</ele>
        <time>2021-07-19T08:56:23Z</time>
      </trkpt>
      <trkpt lat="45.42269" lon="4.64626">
        <ele>623.37604</ele>
        <time>2021-07-19T08:56:24Z</time>
      </trkpt>
      <trkpt lat="45.42269" lon="4.64621">
        <ele>623.5716</ele>
        <time>2021-07-19T08:56:25Z</time>
      </trkpt>
      <trkpt lat="45.42269" lon="4.64616">
        <ele>623.9098</ele>
        <time>2021-07-19T08:56:26Z</time>
      </trkpt>
      <trkpt lat="45.42268" lon="4.64613">
        <ele>624.174</ele>
        <time>2021-07-19T08:56:27Z</time>
      </trkpt>
      <trkpt lat="45.42268" lon="4.64609">
        <ele>624.44354</ele>
        <time>2021-07-19T08:56:28Z</time>
      </trkpt>
      <trkpt lat="45.42268" lon="4.64604">
        <ele>624.5757</ele>
        <time>2021-07-19T08:56:29Z</time>
      </trkpt>
      <trkpt lat="45.42268" lon="4.646">
        <ele>624.8399</ele>
        <time>2021-07-19T08:56:30Z</time>
      </trkpt>
      <trkpt lat="45.42268" lon="4.64596">
        <ele>624.86633</ele>
        <time>2021-07-19T08:56:31Z</time>
      </trkpt>
      <trkpt lat="45.42268" lon="4.64592">
        <ele>625.0196</ele>
        <time>2021-07-19T08:56:32Z</time>
      </trkpt>
      <trkpt lat="45.42268" lon="4.64587">
        <ele>625.1992</ele>
        <time>2021-07-19T08:56:33Z</time>
      </trkpt>
      <trkpt lat="45.42268" lon="4.64583">
        <ele>625.5322</ele>
        <time>2021-07-19T08:56:34Z</time>
      </trkpt>
      <trkpt lat="45.42268" lon="4.6458">
        <ele>625.8651</ele>
        <time>2021-07-19T08:56:35Z</time>
      </trkpt>
      <trkpt lat="45.42267" lon="4.64575">
        <ele>625.844</ele>
        <time>2021-07-19T08:56:36Z</time>
      </trkpt>
      <trkpt lat="45.42267" lon="4.64571">
        <ele>626.2245</ele>
        <time>2021-07-19T08:56:37Z</time>
      </trkpt>
      <trkpt lat="45.42267" lon="4.64567">
        <ele>626.2509</ele>
        <time>2021-07-19T08:56:38Z</time>
      </trkpt>
      <trkpt lat="45.42267" lon="4.64562">
        <ele>626.3883</ele>
        <time>2021-07-19T08:56:39Z</time>
      </trkpt>
      <trkpt lat="45.42267" lon="4.64557">
        <ele>626.51514</ele>
        <time>2021-07-19T08:56:40Z</time>
      </trkpt>
      <trkpt lat="45.42267" lon="4.64552">
        <ele>626.7793</ele>
        <time>2021-07-19T08:56:41Z</time>
      </trkpt>
      <trkpt lat="45.42266" lon="4.64548">
        <ele>626.98016</ele>
        <time>2021-07-19T08:56:42Z</time>
      </trkpt>
      <trkpt lat="45.42266" lon="4.64544">
        <ele>627.29193</ele>
        <time>2021-07-19T08:56:43Z</time>
      </trkpt>
      <trkpt lat="45.42265" lon="4.64539">
        <ele>627.7095</ele>
        <time>2021-07-19T08:56:44Z</time>
      </trkpt>
      <trkpt lat="45.42265" lon="4.64535">
        <ele>627.9102</ele>
        <time>2021-07-19T08:56:45Z</time>
      </trkpt>
      <trkpt lat="45.42265" lon="4.64531">
        <ele>628.17975</ele>
        <time>2021-07-19T08:56:46Z</time>
      </trkpt>
      <trkpt lat="45.42265" lon="4.64527">
        <ele>628.4334</ele>
        <time>2021-07-19T08:56:47Z</time>
      </trkpt>
      <trkpt lat="45.42264" lon="4.64523">
        <ele>628.8932</ele>
        <time>2021-07-19T08:56:48Z</time>
      </trkpt>
      <trkpt lat="45.42263" lon="4.64519">
        <ele>628.95135</ele>
        <time>2021-07-19T08:56:49Z</time>
      </trkpt>
      <trkpt lat="45.42263" lon="4.64515">
        <ele>629.05176</ele>
        <time>2021-07-19T08:56:50Z</time>
      </trkpt>
      <trkpt lat="45.42262" lon="4.64511">
        <ele>629.36884</ele>
        <time>2021-07-19T08:56:51Z</time>
      </trkpt>
      <trkpt lat="45.42262" lon="4.64507">
        <ele>629.8814</ele>
        <time>2021-07-19T08:56:52Z</time>
      </trkpt>
      <trkpt lat="45.42262" lon="4.64503">
        <ele>630.1351</ele>
        <time>2021-07-19T08:56:53Z</time>
      </trkpt>
      <trkpt lat="45.42261" lon="4.64499">
        <ele>630.15094</ele>
        <time>2021-07-19T08:56:54Z</time>
      </trkpt>
      <trkpt lat="45.4226" lon="4.64494">
        <ele>630.3307</ele>
        <time>2021-07-19T08:56:55Z</time>
      </trkpt>
      <trkpt lat="45.4226" lon="4.6449">
        <ele>630.6107</ele>
        <time>2021-07-19T08:56:56Z</time>
      </trkpt>
      <trkpt lat="45.4226" lon="4.64487">
        <ele>630.7693</ele>
        <time>2021-07-19T08:56:57Z</time>
      </trkpt>
      <trkpt lat="45.42259" lon="4.64483">
        <ele>631.1551</ele>
        <time>2021-07-19T08:56:58Z</time>
      </trkpt>
      <trkpt lat="45.42259" lon="4.6448">
        <ele>631.5355</ele>
        <time>2021-07-19T08:56:59Z</time>
      </trkpt>
      <trkpt lat="45.42259" lon="4.64476">
        <ele>631.91077</ele>
        <time>2021-07-19T08:57:00Z</time>
      </trkpt>
      <trkpt lat="45.42259" lon="4.64471">
        <ele>632.0957</ele>
        <time>2021-07-19T08:57:01Z</time>
      </trkpt>
      <trkpt lat="45.42259" lon="4.64467">
        <ele>632.24896</ele>
        <time>2021-07-19T08:57:02Z</time>
      </trkpt>
      <trkpt lat="45.42259" lon="4.64463">
        <ele>632.3441</ele>
        <time>2021-07-19T08:57:03Z</time>
      </trkpt>
      <trkpt lat="45.4226" lon="4.64459">
        <ele>632.5343</ele>
        <time>2021-07-19T08:57:04Z</time>
      </trkpt>
      <trkpt lat="45.4226" lon="4.64455">
        <ele>632.80383</ele>
        <time>2021-07-19T08:57:05Z</time>
      </trkpt>
      <trkpt lat="45.42261" lon="4.64451">
        <ele>633.06805</ele>
        <time>2021-07-19T08:57:06Z</time>
      </trkpt>
      <trkpt lat="45.42262" lon="4.64447">
        <ele>633.3376</ele>
        <time>2021-07-19T08:57:07Z</time>
      </trkpt>
      <trkpt lat="45.42262" lon="4.64443">
        <ele>633.51196</ele>
        <time>2021-07-19T08:57:08Z</time>
      </trkpt>
      <trkpt lat="45.42263" lon="4.64438">
        <ele>633.7604</ele>
        <time>2021-07-19T08:57:09Z</time>
      </trkpt>
      <trkpt lat="45.42265" lon="4.64433">
        <ele>633.8872</ele>
        <time>2021-07-19T08:57:10Z</time>
      </trkpt>
      <trkpt lat="45.42266" lon="4.64429">
        <ele>634.27826</ele>
        <time>2021-07-19T08:57:11Z</time>
      </trkpt>
      <trkpt lat="45.42267" lon="4.64425">
        <ele>634.39453</ele>
        <time>2021-07-19T08:57:12Z</time>
      </trkpt>
      <trkpt lat="45.42268" lon="4.6442">
        <ele>634.664</ele>
        <time>2021-07-19T08:57:13Z</time>
      </trkpt>
      <trkpt lat="45.42268" lon="4.64417">
        <ele>635.1133</ele>
        <time>2021-07-19T08:57:14Z</time>
      </trkpt>
      <trkpt lat="45.4227" lon="4.64413">
        <ele>635.20306</ele>
        <time>2021-07-19T08:57:15Z</time>
      </trkpt>
      <trkpt lat="45.42271" lon="4.6441">
        <ele>635.38806</ele>
        <time>2021-07-19T08:57:16Z</time>
      </trkpt>
      <trkpt lat="45.42272" lon="4.64406">
        <ele>635.4673</ele>
        <time>2021-07-19T08:57:17Z</time>
      </trkpt>
      <trkpt lat="45.42273" lon="4.64402">
        <ele>635.8425</ele>
        <time>2021-07-19T08:57:18Z</time>
      </trkpt>
      <trkpt lat="45.42274" lon="4.64399">
        <ele>636.14905</ele>
        <time>2021-07-19T08:57:19Z</time>
      </trkpt>
      <trkpt lat="45.42276" lon="4.64394">
        <ele>636.33923</ele>
        <time>2021-07-19T08:57:20Z</time>
      </trkpt>
      <trkpt lat="45.42277" lon="4.6439">
        <ele>636.3974</ele>
        <time>2021-07-19T08:57:21Z</time>
      </trkpt>
      <trkpt lat="45.42278" lon="4.64387">
        <ele>636.55597</ele>
        <time>2021-07-19T08:57:22Z</time>
      </trkpt>
      <trkpt lat="45.42279" lon="4.64383">
        <ele>636.8413</ele>
        <time>2021-07-19T08:57:23Z</time>
      </trkpt>
      <trkpt lat="45.4228" lon="4.64378">
        <ele>637.095</ele>
        <time>2021-07-19T08:57:24Z</time>
      </trkpt>
      <trkpt lat="45.42282" lon="4.64373">
        <ele>637.1056</ele>
        <time>2021-07-19T08:57:25Z</time>
      </trkpt>
      <trkpt lat="45.42283" lon="4.6437">
        <ele>637.4015</ele>
        <time>2021-07-19T08:57:26Z</time>
      </trkpt>
      <trkpt lat="45.42284" lon="4.64366">
        <ele>637.5812</ele>
        <time>2021-07-19T08:57:27Z</time>
      </trkpt>
      <trkpt lat="45.42285" lon="4.64362">
        <ele>637.6869</ele>
        <time>2021-07-19T08:57:28Z</time>
      </trkpt>
      <trkpt lat="45.42286" lon="4.64359">
        <ele>637.9722</ele>
        <time>2021-07-19T08:57:29Z</time>
      </trkpt>
      <trkpt lat="45.42287" lon="4.64354">
        <ele>638.1995</ele>
        <time>2021-07-19T08:57:30Z</time>
      </trkpt>
      <trkpt lat="45.42289" lon="4.64351">
        <ele>638.29987</ele>
        <time>2021-07-19T08:57:31Z</time>
      </trkpt>
      <trkpt lat="45.4229" lon="4.64347">
        <ele>638.6381</ele>
        <time>2021-07-19T08:57:32Z</time>
      </trkpt>
      <trkpt lat="45.42291" lon="4.64343">
        <ele>639.10315</ele>
        <time>2021-07-19T08:57:33Z</time>
      </trkpt>
      <trkpt lat="45.42291" lon="4.64339">
        <ele>639.23</ele>
        <time>2021-07-19T08:57:34Z</time>
      </trkpt>
      <trkpt lat="45.42292" lon="4.64336">
        <ele>639.2722</ele>
        <time>2021-07-19T08:57:35Z</time>
      </trkpt>
      <trkpt lat="45.42294" lon="4.64332">
        <ele>639.39905</ele>
        <time>2021-07-19T08:57:36Z</time>
      </trkpt>
      <trkpt lat="45.42295" lon="4.64329">
        <ele>639.4255</ele>
        <time>2021-07-19T08:57:37Z</time>
      </trkpt>
      <trkpt lat="45.42296" lon="4.64325">
        <ele>639.584</ele>
        <time>2021-07-19T08:57:38Z</time>
      </trkpt>
      <trkpt lat="45.42297" lon="4.64321">
        <ele>639.82715</ele>
        <time>2021-07-19T08:57:39Z</time>
      </trkpt>
      <trkpt lat="45.42298" lon="4.64317">
        <ele>640.0914</ele>
        <time>2021-07-19T08:57:40Z</time>
      </trkpt>
      <trkpt lat="45.42299" lon="4.64314">
        <ele>640.4613</ele>
        <time>2021-07-19T08:57:41Z</time>
      </trkpt>
      <trkpt lat="45.423" lon="4.6431">
        <ele>640.68854</ele>
        <time>2021-07-19T08:57:42Z</time>
      </trkpt>
      <trkpt lat="45.42301" lon="4.64306">
        <ele>641.07434</ele>
        <time>2021-07-19T08:57:43Z</time>
      </trkpt>
      <trkpt lat="45.42303" lon="4.64302">
        <ele>641.37555</ele>
        <time>2021-07-19T08:57:44Z</time>
      </trkpt>
      <trkpt lat="45.42304" lon="4.64298">
        <ele>641.7877</ele>
        <time>2021-07-19T08:57:45Z</time>
      </trkpt>
      <trkpt lat="45.42305" lon="4.64296">
        <ele>641.9251</ele>
        <time>2021-07-19T08:57:46Z</time>
      </trkpt>
      <trkpt lat="45.42306" lon="4.64292">
        <ele>642.04144</ele>
        <time>2021-07-19T08:57:47Z</time>
      </trkpt>
      <trkpt lat="45.42308" lon="4.64288">
        <ele>642.1365</ele>
        <time>2021-07-19T08:57:48Z</time>
      </trkpt>
      <trkpt lat="45.42309" lon="4.64285">
        <ele>642.2792</ele>
        <time>2021-07-19T08:57:49Z</time>
      </trkpt>
      <trkpt lat="45.4231" lon="4.64281">
        <ele>642.4642</ele>
        <time>2021-07-19T08:57:50Z</time>
      </trkpt>
      <trkpt lat="45.42312" lon="4.64278">
        <ele>642.7072</ele>
        <time>2021-07-19T08:57:51Z</time>
      </trkpt>
      <trkpt lat="45.42313" lon="4.64274">
        <ele>643.0191</ele>
        <time>2021-07-19T08:57:52Z</time>
      </trkpt>
      <trkpt lat="45.42314" lon="4.64272">
        <ele>643.3203</ele>
        <time>2021-07-19T08:57:53Z</time>
      </trkpt>
      <trkpt lat="45.42315" lon="4.64269">
        <ele>643.4894</ele>
        <time>2021-07-19T08:57:54Z</time>
      </trkpt>
      <trkpt lat="45.42317" lon="4.64265">
        <ele>643.64264</ele>
        <time>2021-07-19T08:57:55Z</time>
      </trkpt>
      <trkpt lat="45.42318" lon="4.64262">
        <ele>643.78</ele>
        <time>2021-07-19T08:57:56Z</time>
      </trkpt>
      <trkpt lat="45.4232" lon="4.64258">
        <ele>644.1236</ele>
        <time>2021-07-19T08:57:57Z</time>
      </trkpt>
      <trkpt lat="45.4232" lon="4.64255">
        <ele>644.1817</ele>
        <time>2021-07-19T08:57:58Z</time>
      </trkpt>
      <trkpt lat="45.42321" lon="4.64252">
        <ele>644.2821</ele>
        <time>2021-07-19T08:57:59Z</time>
      </trkpt>
      <trkpt lat="45.42322" lon="4.64249">
        <ele>644.4195</ele>
        <time>2021-07-19T08:58:00Z</time>
      </trkpt>
      <trkpt lat="45.42323" lon="4.64245">
        <ele>644.74713</ele>
        <time>2021-07-19T08:58:01Z</time>
      </trkpt>
      <trkpt lat="45.42324" lon="4.64243">
        <ele>644.9374</ele>
        <time>2021-07-19T08:58:02Z</time>
      </trkpt>
      <trkpt lat="45.42324" lon="4.64239">
        <ele>645.228</ele>
        <time>2021-07-19T08:58:03Z</time>
      </trkpt>
      <trkpt lat="45.42325" lon="4.64236">
        <ele>645.33374</ele>
        <time>2021-07-19T08:58:04Z</time>
      </trkpt>
      <trkpt lat="45.42326" lon="4.64232">
        <ele>645.7776</ele>
        <time>2021-07-19T08:58:05Z</time>
      </trkpt>
      <trkpt lat="45.42327" lon="4.64227">
        <ele>645.7089</ele>
        <time>2021-07-19T08:58:06Z</time>
      </trkpt>
      <trkpt lat="45.42328" lon="4.64224">
        <ele>645.6878</ele>
        <time>2021-07-19T08:58:07Z</time>
      </trkpt>
      <trkpt lat="45.42329" lon="4.6422">
        <ele>646.01544</ele>
        <time>2021-07-19T08:58:08Z</time>
      </trkpt>
      <trkpt lat="45.4233" lon="4.64217">
        <ele>646.5069</ele>
        <time>2021-07-19T08:58:09Z</time>
      </trkpt>
      <trkpt lat="45.42331" lon="4.64214">
        <ele>646.45935</ele>
        <time>2021-07-19T08:58:10Z</time>
      </trkpt>
      <trkpt lat="45.42332" lon="4.6421">
        <ele>646.6073</ele>
        <time>2021-07-19T08:58:11Z</time>
      </trkpt>
      <trkpt lat="45.42333" lon="4.64206">
        <ele>646.6549</ele>
        <time>2021-07-19T08:58:12Z</time>
      </trkpt>
      <trkpt lat="45.42334" lon="4.64201">
        <ele>646.94556</ele>
        <time>2021-07-19T08:58:13Z</time>
      </trkpt>
      <trkpt lat="45.42335" lon="4.64198">
        <ele>647.14636</ele>
        <time>2021-07-19T08:58:14Z</time>
      </trkpt>
      <trkpt lat="45.42336" lon="4.64194">
        <ele>647.6061</ele>
        <time>2021-07-19T08:58:15Z</time>
      </trkpt>
      <trkpt lat="45.42337" lon="4.64191">
        <ele>647.70654</ele>
        <time>2021-07-19T08:58:16Z</time>
      </trkpt>
      <trkpt lat="45.42337" lon="4.64187">
        <ele>647.9813</ele>
        <time>2021-07-19T08:58:17Z</time>
      </trkpt>
      <trkpt lat="45.42338" lon="4.64183">
        <ele>648.124</ele>
        <time>2021-07-19T08:58:18Z</time>
      </trkpt>
      <trkpt lat="45.42339" lon="4.64179">
        <ele>648.4887</ele>
        <time>2021-07-19T08:58:19Z</time>
      </trkpt>
      <trkpt lat="45.42339" lon="4.64175">
        <ele>649.1228</ele>
        <time>2021-07-19T08:58:20Z</time>
      </trkpt>
      <trkpt lat="45.4234" lon="4.64171">
        <ele>648.95374</ele>
        <time>2021-07-19T08:58:21Z</time>
      </trkpt>
      <trkpt lat="45.42341" lon="4.64168">
        <ele>649.2602</ele>
        <time>2021-07-19T08:58:22Z</time>
      </trkpt>
      <trkpt lat="45.42342" lon="4.64164">
        <ele>649.5403</ele>
        <time>2021-07-19T08:58:23Z</time>
      </trkpt>
      <trkpt lat="45.42343" lon="4.6416">
        <ele>649.572</ele>
        <time>2021-07-19T08:58:24Z</time>
      </trkpt>
      <trkpt lat="45.42344" lon="4.64156">
        <ele>649.794</ele>
        <time>2021-07-19T08:58:25Z</time>
      </trkpt>
      <trkpt lat="45.42345" lon="4.64153">
        <ele>649.9842</ele>
        <time>2021-07-19T08:58:26Z</time>
      </trkpt>
      <trkpt lat="45.42345" lon="4.6415">
        <ele>650.22205</ele>
        <time>2021-07-19T08:58:27Z</time>
      </trkpt>
      <trkpt lat="45.42346" lon="4.64145">
        <ele>650.50214</ele>
        <time>2021-07-19T08:58:28Z</time>
      </trkpt>
      <trkpt lat="45.42347" lon="4.64142">
        <ele>650.7505</ele>
        <time>2021-07-19T08:58:29Z</time>
      </trkpt>
      <trkpt lat="45.42348" lon="4.64137">
        <ele>651.08344</ele>
        <time>2021-07-19T08:58:30Z</time>
      </trkpt>
      <trkpt lat="45.42349" lon="4.64132">
        <ele>651.30005</ele>
        <time>2021-07-19T08:58:31Z</time>
      </trkpt>
      <trkpt lat="45.4235" lon="4.64128">
        <ele>651.2525</ele>
        <time>2021-07-19T08:58:32Z</time>
      </trkpt>
      <trkpt lat="45.42351" lon="4.64124">
        <ele>651.5115</ele>
        <time>2021-07-19T08:58:33Z</time>
      </trkpt>
      <trkpt lat="45.42352" lon="4.6412">
        <ele>651.7017</ele>
        <time>2021-07-19T08:58:34Z</time>
      </trkpt>
      <trkpt lat="45.42353" lon="4.64116">
        <ele>651.9237</ele>
        <time>2021-07-19T08:58:35Z</time>
      </trkpt>
      <trkpt lat="45.42353" lon="4.64112">
        <ele>652.2355</ele>
        <time>2021-07-19T08:58:36Z</time>
      </trkpt>
      <trkpt lat="45.42354" lon="4.64108">
        <ele>652.4838</ele>
        <time>2021-07-19T08:58:37Z</time>
      </trkpt>
      <trkpt lat="45.42354" lon="4.64105">
        <ele>652.75336</ele>
        <time>2021-07-19T08:58:38Z</time>
      </trkpt>
      <trkpt lat="45.42355" lon="4.641">
        <ele>652.9806</ele>
        <time>2021-07-19T08:58:39Z</time>
      </trkpt>
      <trkpt lat="45.42356" lon="4.64096">
        <ele>652.8802</ele>
        <time>2021-07-19T08:58:40Z</time>
      </trkpt>
      <trkpt lat="45.42357" lon="4.64092">
        <ele>653.2026</ele>
        <time>2021-07-19T08:58:41Z</time>
      </trkpt>
      <trkpt lat="45.42357" lon="4.64088">
        <ele>653.4457</ele>
        <time>2021-07-19T08:58:42Z</time>
      </trkpt>
      <trkpt lat="45.42358" lon="4.64084">
        <ele>653.4139</ele>
        <time>2021-07-19T08:58:43Z</time>
      </trkpt>
      <trkpt lat="45.42359" lon="4.64081">
        <ele>653.4721</ele>
        <time>2021-07-19T08:58:44Z</time>
      </trkpt>
      <trkpt lat="45.4236" lon="4.64077">
        <ele>653.4985</ele>
        <time>2021-07-19T08:58:45Z</time>
      </trkpt>
      <trkpt lat="45.42361" lon="4.64073">
        <ele>653.72577</ele>
        <time>2021-07-19T08:58:46Z</time>
      </trkpt>
      <trkpt lat="45.42362" lon="4.64069">
        <ele>653.95294</ele>
        <time>2021-07-19T08:58:47Z</time>
      </trkpt>
      <trkpt lat="45.42362" lon="4.64065">
        <ele>654.3335</ele>
        <time>2021-07-19T08:58:48Z</time>
      </trkpt>
      <trkpt lat="45.42363" lon="4.64061">
        <ele>654.4339</ele>
        <time>2021-07-19T08:58:49Z</time>
      </trkpt>
      <trkpt lat="45.42364" lon="4.64056">
        <ele>654.67163</ele>
        <time>2021-07-19T08:58:50Z</time>
      </trkpt>
      <trkpt lat="45.42365" lon="4.64052">
        <ele>654.8989</ele>
        <time>2021-07-19T08:58:51Z</time>
      </trkpt>
      <trkpt lat="45.42365" lon="4.64048">
        <ele>655.1579</ele>
        <time>2021-07-19T08:58:52Z</time>
      </trkpt>
      <trkpt lat="45.42366" lon="4.64044">
        <ele>655.20544</ele>
        <time>2021-07-19T08:58:53Z</time>
      </trkpt>
      <trkpt lat="45.42366" lon="4.64041">
        <ele>655.4802</ele>
        <time>2021-07-19T08:58:54Z</time>
      </trkpt>
      <trkpt lat="45.42367" lon="4.64037">
        <ele>655.60706</ele>
        <time>2021-07-19T08:58:55Z</time>
      </trkpt>
      <trkpt lat="45.42368" lon="4.64033">
        <ele>655.7339</ele>
        <time>2021-07-19T08:58:56Z</time>
      </trkpt>
      <trkpt lat="45.42369" lon="4.6403">
        <ele>656.13556</ele>
        <time>2021-07-19T08:58:57Z</time>
      </trkpt>
      <trkpt lat="45.4237" lon="4.64027">
        <ele>656.52136</ele>
        <time>2021-07-19T08:58:58Z</time>
      </trkpt>
      <trkpt lat="45.4237" lon="4.64023">
        <ele>656.9388</ele>
        <time>2021-07-19T08:58:59Z</time>
      </trkpt>
      <trkpt lat="45.42371" lon="4.64019">
        <ele>657.10266</ele>
        <time>2021-07-19T08:59:00Z</time>
      </trkpt>
      <trkpt lat="45.42373" lon="4.64015">
        <ele>657.3722</ele>
        <time>2021-07-19T08:59:01Z</time>
      </trkpt>
      <trkpt lat="45.42374" lon="4.64012">
        <ele>657.82135</ele>
        <time>2021-07-19T08:59:02Z</time>
      </trkpt>
      <trkpt lat="45.42375" lon="4.64008">
        <ele>658.1437</ele>
        <time>2021-07-19T08:59:03Z</time>
      </trkpt>
      <trkpt lat="45.42376" lon="4.64004">
        <ele>658.4872</ele>
        <time>2021-07-19T08:59:04Z</time>
      </trkpt>
      <trkpt lat="45.42377" lon="4.64001">
        <ele>658.61926</ele>
        <time>2021-07-19T08:59:05Z</time>
      </trkpt>
      <trkpt lat="45.42378" lon="4.63998">
        <ele>658.78845</ele>
        <time>2021-07-19T08:59:06Z</time>
      </trkpt>
      <trkpt lat="45.4238" lon="4.63997">
        <ele>659.2007</ele>
        <time>2021-07-19T08:59:07Z</time>
      </trkpt>
      <trkpt lat="45.42382" lon="4.63994">
        <ele>659.4173</ele>
        <time>2021-07-19T08:59:08Z</time>
      </trkpt>
      <trkpt lat="45.42382" lon="4.63994">
        <ele>659.4173</ele>
        <time>2021-07-19T08:59:08Z</time>
      </trkpt>
      <trkpt lat="45.42383" lon="4.6399">
        <ele>659.3539</ele>
        <time>2021-07-19T08:59:09Z</time>
      </trkpt>
      <trkpt lat="45.42384" lon="4.63986">
        <ele>659.5019</ele>
        <time>2021-07-19T08:59:10Z</time>
      </trkpt>
      <trkpt lat="45.42384" lon="4.63982">
        <ele>659.8242</ele>
        <time>2021-07-19T08:59:11Z</time>
      </trkpt>
      <trkpt lat="45.42385" lon="4.63978">
        <ele>659.9986</ele>
        <time>2021-07-19T08:59:12Z</time>
      </trkpt>
      <trkpt lat="45.42386" lon="4.63974">
        <ele>660.4161</ele>
        <time>2021-07-19T08:59:13Z</time>
      </trkpt>
      <trkpt lat="45.42387" lon="4.63969">
        <ele>660.3685</ele>
        <time>2021-07-19T08:59:14Z</time>
      </trkpt>
      <trkpt lat="45.42388" lon="4.63966">
        <ele>660.3633</ele>
        <time>2021-07-19T08:59:15Z</time>
      </trkpt>
      <trkpt lat="45.42389" lon="4.63962">
        <ele>660.5218</ele>
        <time>2021-07-19T08:59:16Z</time>
      </trkpt>
      <trkpt lat="45.42389" lon="4.63958">
        <ele>660.9974</ele>
        <time>2021-07-19T08:59:17Z</time>
      </trkpt>
      <trkpt lat="45.4239" lon="4.63953">
        <ele>660.8811</ele>
        <time>2021-07-19T08:59:18Z</time>
      </trkpt>
      <trkpt lat="45.4239" lon="4.6395">
        <ele>660.99207</ele>
        <time>2021-07-19T08:59:19Z</time>
      </trkpt>
      <trkpt lat="45.42391" lon="4.63946">
        <ele>661.0238</ele>
        <time>2021-07-19T08:59:20Z</time>
      </trkpt>
      <trkpt lat="45.42392" lon="4.63942">
        <ele>661.1718</ele>
        <time>2021-07-19T08:59:21Z</time>
      </trkpt>
      <trkpt lat="45.42392" lon="4.63935">
        <ele>661.11365</ele>
        <time>2021-07-19T08:59:22Z</time>
      </trkpt>
      <trkpt lat="45.42391" lon="4.63931">
        <ele>661.5681</ele>
        <time>2021-07-19T08:59:23Z</time>
      </trkpt>
      <trkpt lat="45.42391" lon="4.63926">
        <ele>661.7214</ele>
        <time>2021-07-19T08:59:24Z</time>
      </trkpt>
      <trkpt lat="45.42392" lon="4.63921">
        <ele>661.77423</ele>
        <time>2021-07-19T08:59:25Z</time>
      </trkpt>
      <trkpt lat="45.42391" lon="4.63915">
        <ele>661.7901</ele>
        <time>2021-07-19T08:59:26Z</time>
      </trkpt>
      <trkpt lat="45.4239" lon="4.63911">
        <ele>662.38727</ele>
        <time>2021-07-19T08:59:27Z</time>
      </trkpt>
      <trkpt lat="45.4239" lon="4.63909">
        <ele>662.68317</ele>
        <time>2021-07-19T08:59:28Z</time>
      </trkpt>
      <trkpt lat="45.42391" lon="4.63904">
        <ele>662.7783</ele>
        <time>2021-07-19T08:59:29Z</time>
      </trkpt>
      <trkpt lat="45.42392" lon="4.63901">
        <ele>662.69904</ele>
        <time>2021-07-19T08:59:30Z</time>
      </trkpt>
      <trkpt lat="45.42392" lon="4.63898">
        <ele>662.958</ele>
        <time>2021-07-19T08:59:31Z</time>
      </trkpt>
      <trkpt lat="45.42392" lon="4.63893">
        <ele>662.921</ele>
        <time>2021-07-19T08:59:32Z</time>
      </trkpt>
      <trkpt lat="45.42392" lon="4.63891">
        <ele>663.01086</ele>
        <time>2021-07-19T08:59:33Z</time>
      </trkpt>
      <trkpt lat="45.42392" lon="4.63886">
        <ele>663.26447</ele>
        <time>2021-07-19T08:59:34Z</time>
      </trkpt>
      <trkpt lat="45.42393" lon="4.63883">
        <ele>663.3649</ele>
        <time>2021-07-19T08:59:35Z</time>
      </trkpt>
      <trkpt lat="45.42393" lon="4.63878">
        <ele>663.5023</ele>
        <time>2021-07-19T08:59:36Z</time>
      </trkpt>
      <trkpt lat="45.42394" lon="4.63874">
        <ele>663.73486</ele>
        <time>2021-07-19T08:59:37Z</time>
      </trkpt>
      <trkpt lat="45.42394" lon="4.6387">
        <ele>663.7982</ele>
        <time>2021-07-19T08:59:38Z</time>
      </trkpt>
      <trkpt lat="45.42394" lon="4.63866">
        <ele>664.08887</ele>
        <time>2021-07-19T08:59:39Z</time>
      </trkpt>
      <trkpt lat="45.42394" lon="4.63862">
        <ele>664.2369</ele>
        <time>2021-07-19T08:59:40Z</time>
      </trkpt>
      <trkpt lat="45.42394" lon="4.63858">
        <ele>664.3003</ele>
        <time>2021-07-19T08:59:41Z</time>
      </trkpt>
      <trkpt lat="45.42394" lon="4.63854">
        <ele>664.45886</ele>
        <time>2021-07-19T08:59:42Z</time>
      </trkpt>
      <trkpt lat="45.42394" lon="4.63849">
        <ele>664.7706</ele>
        <time>2021-07-19T08:59:43Z</time>
      </trkpt>
      <trkpt lat="45.42394" lon="4.63846">
        <ele>665.1459</ele>
        <time>2021-07-19T08:59:44Z</time>
      </trkpt>
      <trkpt lat="45.42394" lon="4.63842">
        <ele>665.28326</ele>
        <time>2021-07-19T08:59:45Z</time>
      </trkpt>
      <trkpt lat="45.42394" lon="4.63839">
        <ele>665.4154</ele>
        <time>2021-07-19T08:59:46Z</time>
      </trkpt>
      <trkpt lat="45.42394" lon="4.63835">
        <ele>665.3414</ele>
        <time>2021-07-19T08:59:47Z</time>
      </trkpt>
      <trkpt lat="45.42393" lon="4.63831">
        <ele>665.65845</ele>
        <time>2021-07-19T08:59:48Z</time>
      </trkpt>
      <trkpt lat="45.42393" lon="4.63827">
        <ele>665.6426</ele>
        <time>2021-07-19T08:59:49Z</time>
      </trkpt>
      <trkpt lat="45.42392" lon="4.63823">
        <ele>665.75885</ele>
        <time>2021-07-19T08:59:50Z</time>
      </trkpt>
      <trkpt lat="45.42392" lon="4.63818">
        <ele>665.85925</ele>
        <time>2021-07-19T08:59:51Z</time>
      </trkpt>
      <trkpt lat="45.42393" lon="4.63813">
        <ele>665.8329</ele>
        <time>2021-07-19T08:59:52Z</time>
      </trkpt>
      <trkpt lat="45.42393" lon="4.63809">
        <ele>665.83813</ele>
        <time>2021-07-19T08:59:53Z</time>
      </trkpt>
      <trkpt lat="45.42394" lon="4.63805">
        <ele>666.14465</ele>
        <time>2021-07-19T08:59:54Z</time>
      </trkpt>
      <trkpt lat="45.42395" lon="4.63801">
        <ele>666.5938</ele>
        <time>2021-07-19T08:59:55Z</time>
      </trkpt>
      <trkpt lat="45.42395" lon="4.63798">
        <ele>666.49866</ele>
        <time>2021-07-19T08:59:56Z</time>
      </trkpt>
      <trkpt lat="45.42396" lon="4.63793">
        <ele>666.41943</ele>
        <time>2021-07-19T08:59:57Z</time>
      </trkpt>
      <trkpt lat="45.42397" lon="4.63787">
        <ele>666.62555</ele>
        <time>2021-07-19T08:59:58Z</time>
      </trkpt>
      <trkpt lat="45.42398" lon="4.63781">
        <ele>666.73126</ele>
        <time>2021-07-19T08:59:59Z</time>
      </trkpt>
      <trkpt lat="45.42399" lon="4.63776">
        <ele>666.932</ele>
        <time>2021-07-19T09:00:00Z</time>
      </trkpt>
      <trkpt lat="45.424" lon="4.63772">
        <ele>667.117</ele>
        <time>2021-07-19T09:00:01Z</time>
      </trkpt>
      <trkpt lat="45.42401" lon="4.63768">
        <ele>667.14343</ele>
        <time>2021-07-19T09:00:02Z</time>
      </trkpt>
      <trkpt lat="45.42402" lon="4.63763">
        <ele>667.3231</ele>
        <time>2021-07-19T09:00:03Z</time>
      </trkpt>
      <trkpt lat="45.42403" lon="4.63759">
        <ele>667.6983</ele>
        <time>2021-07-19T09:00:04Z</time>
      </trkpt>
      <trkpt lat="45.42403" lon="4.63755">
        <ele>667.915</ele>
        <time>2021-07-19T09:00:05Z</time>
      </trkpt>
      <trkpt lat="45.42404" lon="4.6375">
        <ele>668.11584</ele>
        <time>2021-07-19T09:00:06Z</time>
      </trkpt>
      <trkpt lat="45.42405" lon="4.63746">
        <ele>668.39594</ele>
        <time>2021-07-19T09:00:07Z</time>
      </trkpt>
      <trkpt lat="45.42405" lon="4.63743">
        <ele>668.8134</ele>
        <time>2021-07-19T09:00:08Z</time>
      </trkpt>
      <trkpt lat="45.42405" lon="4.63739">
        <ele>669.0036</ele>
        <time>2021-07-19T09:00:09Z</time>
      </trkpt>
      <trkpt lat="45.42405" lon="4.63735">
        <ele>669.252</ele>
        <time>2021-07-19T09:00:10Z</time>
      </trkpt>
      <trkpt lat="45.42405" lon="4.63732">
        <ele>669.6484</ele>
        <time>2021-07-19T09:00:11Z</time>
      </trkpt>
      <trkpt lat="45.42405" lon="4.63729">
        <ele>670.1662</ele>
        <time>2021-07-19T09:00:12Z</time>
      </trkpt>
      <trkpt lat="45.42405" lon="4.63725">
        <ele>670.54675</ele>
        <time>2021-07-19T09:00:13Z</time>
      </trkpt>
      <trkpt lat="45.42405" lon="4.63721">
        <ele>670.3354</ele>
        <time>2021-07-19T09:00:14Z</time>
      </trkpt>
      <trkpt lat="45.42404" lon="4.63717">
        <ele>670.50977</ele>
        <time>2021-07-19T09:00:15Z</time>
      </trkpt>
      <trkpt lat="45.42403" lon="4.63713">
        <ele>670.8638</ele>
        <time>2021-07-19T09:00:16Z</time>
      </trkpt>
      <trkpt lat="45.42403" lon="4.6371">
        <ele>670.93256</ele>
        <time>2021-07-19T09:00:17Z</time>
      </trkpt>
      <trkpt lat="45.42402" lon="4.63706">
        <ele>671.276</ele>
        <time>2021-07-19T09:00:18Z</time>
      </trkpt>
      <trkpt lat="45.42401" lon="4.63703">
        <ele>671.54553</ele>
        <time>2021-07-19T09:00:19Z</time>
      </trkpt>
      <trkpt lat="45.42401" lon="4.63699">
        <ele>671.61957</ele>
        <time>2021-07-19T09:00:20Z</time>
      </trkpt>
      <trkpt lat="45.424" lon="4.63695">
        <ele>671.73047</ele>
        <time>2021-07-19T09:00:21Z</time>
      </trkpt>
      <trkpt lat="45.424" lon="4.63692">
        <ele>671.9102</ele>
        <time>2021-07-19T09:00:22Z</time>
      </trkpt>
      <trkpt lat="45.42399" lon="4.63689">
        <ele>672.28534</ele>
        <time>2021-07-19T09:00:23Z</time>
      </trkpt>
      <trkpt lat="45.42399" lon="4.63686">
        <ele>672.3224</ele>
        <time>2021-07-19T09:00:24Z</time>
      </trkpt>
      <trkpt lat="45.42398" lon="4.63683">
        <ele>672.69226</ele>
        <time>2021-07-19T09:00:25Z</time>
      </trkpt>
      <trkpt lat="45.42397" lon="4.6368">
        <ele>672.7346</ele>
        <time>2021-07-19T09:00:26Z</time>
      </trkpt>
      <trkpt lat="45.42397" lon="4.63677">
        <ele>672.9829</ele>
        <time>2021-07-19T09:00:27Z</time>
      </trkpt>
      <trkpt lat="45.42397" lon="4.63673">
        <ele>673.2155</ele>
        <time>2021-07-19T09:00:28Z</time>
      </trkpt>
      <trkpt lat="45.42396" lon="4.6367">
        <ele>673.2948</ele>
        <time>2021-07-19T09:00:29Z</time>
      </trkpt>
      <trkpt lat="45.42395" lon="4.63666">
        <ele>673.5907</ele>
        <time>2021-07-19T09:00:30Z</time>
      </trkpt>
      <trkpt lat="45.42395" lon="4.63662">
        <ele>673.8285</ele>
        <time>2021-07-19T09:00:31Z</time>
      </trkpt>
      <trkpt lat="45.42395" lon="4.63658">
        <ele>673.9606</ele>
        <time>2021-07-19T09:00:32Z</time>
      </trkpt>
      <trkpt lat="45.42395" lon="4.63655">
        <ele>674.16675</ele>
        <time>2021-07-19T09:00:33Z</time>
      </trkpt>
      <trkpt lat="45.42394" lon="4.63651">
        <ele>674.4363</ele>
        <time>2021-07-19T09:00:34Z</time>
      </trkpt>
      <trkpt lat="45.42394" lon="4.63647">
        <ele>674.5789</ele>
        <time>2021-07-19T09:00:35Z</time>
      </trkpt>
      <trkpt lat="45.42394" lon="4.63644">
        <ele>674.80615</ele>
        <time>2021-07-19T09:00:36Z</time>
      </trkpt>
      <trkpt lat="45.42395" lon="4.6364">
        <ele>675.04395</ele>
        <time>2021-07-19T09:00:37Z</time>
      </trkpt>
      <trkpt lat="45.42395" lon="4.63636">
        <ele>675.3927</ele>
        <time>2021-07-19T09:00:38Z</time>
      </trkpt>
      <trkpt lat="45.42396" lon="4.63633">
        <ele>675.4615</ele>
        <time>2021-07-19T09:00:39Z</time>
      </trkpt>
      <trkpt lat="45.42396" lon="4.6363">
        <ele>675.509</ele>
        <time>2021-07-19T09:00:40Z</time>
      </trkpt>
      <trkpt lat="45.42397" lon="4.63625">
        <ele>675.7574</ele>
        <time>2021-07-19T09:00:41Z</time>
      </trkpt>
      <trkpt lat="45.42398" lon="4.63621">
        <ele>675.9899</ele>
        <time>2021-07-19T09:00:42Z</time>
      </trkpt>
      <trkpt lat="45.42399" lon="4.63617">
        <ele>676.0797</ele>
        <time>2021-07-19T09:00:43Z</time>
      </trkpt>
      <trkpt lat="45.424" lon="4.63613">
        <ele>676.1485</ele>
        <time>2021-07-19T09:00:44Z</time>
      </trkpt>
      <trkpt lat="45.42401" lon="4.63609">
        <ele>676.53955</ele>
        <time>2021-07-19T09:00:45Z</time>
      </trkpt>
      <trkpt lat="45.42402" lon="4.63604">
        <ele>676.7615</ele>
        <time>2021-07-19T09:00:46Z</time>
      </trkpt>
      <trkpt lat="45.42404" lon="4.636">
        <ele>676.87244</ele>
        <time>2021-07-19T09:00:47Z</time>
      </trkpt>
      <trkpt lat="45.42405" lon="4.63596">
        <ele>677.1631</ele>
        <time>2021-07-19T09:00:48Z</time>
      </trkpt>
      <trkpt lat="45.42406" lon="4.63593">
        <ele>677.4432</ele>
        <time>2021-07-19T09:00:49Z</time>
      </trkpt>
      <trkpt lat="45.42407" lon="4.63589">
        <ele>677.54364</ele>
        <time>2021-07-19T09:00:50Z</time>
      </trkpt>
      <trkpt lat="45.42409" lon="4.63586">
        <ele>677.68634</ele>
        <time>2021-07-19T09:00:51Z</time>
      </trkpt>
      <trkpt lat="45.4241" lon="4.63583">
        <ele>677.8765</ele>
        <time>2021-07-19T09:00:52Z</time>
      </trkpt>
      <trkpt lat="45.42411" lon="4.6358">
        <ele>677.9717</ele>
        <time>2021-07-19T09:00:53Z</time>
      </trkpt>
      <trkpt lat="45.42412" lon="4.63577">
        <ele>678.3839</ele>
        <time>2021-07-19T09:00:54Z</time>
      </trkpt>
      <trkpt lat="45.42414" lon="4.63574">
        <ele>678.50543</ele>
        <time>2021-07-19T09:00:55Z</time>
      </trkpt>
      <trkpt lat="45.42415" lon="4.63571">
        <ele>678.81195</ele>
        <time>2021-07-19T09:00:56Z</time>
      </trkpt>
      <trkpt lat="45.42416" lon="4.63568">
        <ele>678.9652</ele>
        <time>2021-07-19T09:00:57Z</time>
      </trkpt>
      <trkpt lat="45.42417" lon="4.63565">
        <ele>679.34033</ele>
        <time>2021-07-19T09:00:58Z</time>
      </trkpt>
      <trkpt lat="45.42419" lon="4.63561">
        <ele>679.5254</ele>
        <time>2021-07-19T09:00:59Z</time>
      </trkpt>
      <trkpt lat="45.42421" lon="4.63554">
        <ele>679.6839</ele>
        <time>2021-07-19T09:01:00Z</time>
      </trkpt>
      <trkpt lat="45.42421" lon="4.63554">
        <ele>679.6839</ele>
        <time>2021-07-19T09:01:00Z</time>
      </trkpt>
      <trkpt lat="45.42423" lon="4.6355">
        <ele>680.07495</ele>
        <time>2021-07-19T09:01:02Z</time>
      </trkpt>
      <trkpt lat="45.42424" lon="4.63546">
        <ele>680.30743</ele>
        <time>2021-07-19T09:01:03Z</time>
      </trkpt>
      <trkpt lat="45.42425" lon="4.63543">
        <ele>680.50305</ele>
        <time>2021-07-19T09:01:04Z</time>
      </trkpt>
      <trkpt lat="45.42426" lon="4.63538">
        <ele>680.6774</ele>
        <time>2021-07-19T09:01:05Z</time>
      </trkpt>
      <trkpt lat="45.42427" lon="4.63534">
        <ele>680.9152</ele>
        <time>2021-07-19T09:01:06Z</time>
      </trkpt>
      <trkpt lat="45.42428" lon="4.6353">
        <ele>681.04736</ele>
        <time>2021-07-19T09:01:07Z</time>
      </trkpt>
      <trkpt lat="45.42429" lon="4.63526">
        <ele>681.3486</ele>
        <time>2021-07-19T09:01:08Z</time>
      </trkpt>
      <trkpt lat="45.42429" lon="4.63523">
        <ele>681.6181</ele>
        <time>2021-07-19T09:01:09Z</time>
      </trkpt>
      <trkpt lat="45.42429" lon="4.63519">
        <ele>681.88226</ele>
        <time>2021-07-19T09:01:10Z</time>
      </trkpt>
      <trkpt lat="45.42429" lon="4.63515">
        <ele>682.2522</ele>
        <time>2021-07-19T09:01:11Z</time>
      </trkpt>
      <trkpt lat="45.4243" lon="4.6351">
        <ele>682.31036</ele>
        <time>2021-07-19T09:01:12Z</time>
      </trkpt>
      <trkpt lat="45.4243" lon="4.63506">
        <ele>682.73846</ele>
        <time>2021-07-19T09:01:13Z</time>
      </trkpt>
      <trkpt lat="45.4243" lon="4.63502">
        <ele>683.22986</ele>
        <time>2021-07-19T09:01:14Z</time>
      </trkpt>
      <trkpt lat="45.42429" lon="4.63498">
        <ele>683.45715</ele>
        <time>2021-07-19T09:01:15Z</time>
      </trkpt>
      <trkpt lat="45.42429" lon="4.63495">
        <ele>683.45715</ele>
        <time>2021-07-19T09:01:16Z</time>
      </trkpt>
      <trkpt lat="45.42428" lon="4.6349">
        <ele>683.7795</ele>
        <time>2021-07-19T09:01:17Z</time>
      </trkpt>
      <trkpt lat="45.42427" lon="4.63486">
        <ele>684.01733</ele>
        <time>2021-07-19T09:01:18Z</time>
      </trkpt>
      <trkpt lat="45.42427" lon="4.63481">
        <ele>684.2974</ele>
        <time>2021-07-19T09:01:19Z</time>
      </trkpt>
      <trkpt lat="45.42427" lon="4.63476">
        <ele>684.6039</ele>
        <time>2021-07-19T09:01:20Z</time>
      </trkpt>
      <trkpt lat="45.42426" lon="4.63472">
        <ele>684.8047</ele>
        <time>2021-07-19T09:01:21Z</time>
      </trkpt>
      <trkpt lat="45.42425" lon="4.63469">
        <ele>685.0531</ele>
        <time>2021-07-19T09:01:22Z</time>
      </trkpt>
      <trkpt lat="45.42424" lon="4.63465">
        <ele>685.3279</ele>
        <time>2021-07-19T09:01:23Z</time>
      </trkpt>
      <trkpt lat="45.42424" lon="4.63462">
        <ele>685.8405</ele>
        <time>2021-07-19T09:01:24Z</time>
      </trkpt>
      <trkpt lat="45.42423" lon="4.63459">
        <ele>686.24207</ele>
        <time>2021-07-19T09:01:25Z</time>
      </trkpt>
      <trkpt lat="45.42423" lon="4.63457">
        <ele>686.1523</ele>
        <time>2021-07-19T09:01:26Z</time>
      </trkpt>
      <trkpt lat="45.42422" lon="4.63453">
        <ele>686.4271</ele>
        <time>2021-07-19T09:01:27Z</time>
      </trkpt>
      <trkpt lat="45.42422" lon="4.6345">
        <ele>686.67017</ele>
        <time>2021-07-19T09:01:28Z</time>
      </trkpt>
      <trkpt lat="45.42422" lon="4.63447">
        <ele>687.0137</ele>
        <time>2021-07-19T09:01:29Z</time>
      </trkpt>
      <trkpt lat="45.42421" lon="4.63445">
        <ele>687.3783</ele>
        <time>2021-07-19T09:01:30Z</time>
      </trkpt>
      <trkpt lat="45.42421" lon="4.63442">
        <ele>687.5104</ele>
        <time>2021-07-19T09:01:31Z</time>
      </trkpt>
      <trkpt lat="45.42421" lon="4.63438">
        <ele>687.5051</ele>
        <time>2021-07-19T09:01:32Z</time>
      </trkpt>
      <trkpt lat="45.42421" lon="4.63434">
        <ele>687.6531</ele>
        <time>2021-07-19T09:01:33Z</time>
      </trkpt>
      <trkpt lat="45.42421" lon="4.6343">
        <ele>687.90674</ele>
        <time>2021-07-19T09:01:34Z</time>
      </trkpt>
      <trkpt lat="45.4242" lon="4.63427">
        <ele>688.07056</ele>
        <time>2021-07-19T09:01:35Z</time>
      </trkpt>
      <trkpt lat="45.42421" lon="4.63423">
        <ele>688.35065</ele>
        <time>2021-07-19T09:01:36Z</time>
      </trkpt>
      <trkpt lat="45.42421" lon="4.63419">
        <ele>688.54095</ele>
        <time>2021-07-19T09:01:37Z</time>
      </trkpt>
      <trkpt lat="45.4242" lon="4.63415">
        <ele>688.77344</ele>
        <time>2021-07-19T09:01:38Z</time>
      </trkpt>
      <trkpt lat="45.4242" lon="4.63412">
        <ele>688.95844</ele>
        <time>2021-07-19T09:01:39Z</time>
      </trkpt>
      <trkpt lat="45.4242" lon="4.63409">
        <ele>689.117</ele>
        <time>2021-07-19T09:01:40Z</time>
      </trkpt>
      <trkpt lat="45.42419" lon="4.63405">
        <ele>689.39703</ele>
        <time>2021-07-19T09:01:41Z</time>
      </trkpt>
      <trkpt lat="45.42419" lon="4.63401">
        <ele>689.62427</ele>
        <time>2021-07-19T09:01:42Z</time>
      </trkpt>
      <trkpt lat="45.42419" lon="4.63398">
        <ele>689.7987</ele>
        <time>2021-07-19T09:01:43Z</time>
      </trkpt>
      <trkpt lat="45.42419" lon="4.63394">
        <ele>690.14746</ele>
        <time>2021-07-19T09:01:44Z</time>
      </trkpt>
      <trkpt lat="45.42419" lon="4.6339">
        <ele>690.23206</ele>
        <time>2021-07-19T09:01:45Z</time>
      </trkpt>
      <trkpt lat="45.42419" lon="4.63387">
        <ele>690.454</ele>
        <time>2021-07-19T09:01:46Z</time>
      </trkpt>
      <trkpt lat="45.42419" lon="4.63383">
        <ele>690.6125</ele>
        <time>2021-07-19T09:01:47Z</time>
      </trkpt>
      <trkpt lat="45.42419" lon="4.63379">
        <ele>690.7658</ele>
        <time>2021-07-19T09:01:48Z</time>
      </trkpt>
      <trkpt lat="45.4242" lon="4.63375">
        <ele>690.9666</ele>
        <time>2021-07-19T09:01:49Z</time>
      </trkpt>
      <trkpt lat="45.4242" lon="4.63371">
        <ele>691.25195</ele>
        <time>2021-07-19T09:01:50Z</time>
      </trkpt>
      <trkpt lat="45.42419" lon="4.63366">
        <ele>691.4211</ele>
        <time>2021-07-19T09:01:51Z</time>
      </trkpt>
      <trkpt lat="45.42419" lon="4.63362">
        <ele>691.61664</ele>
        <time>2021-07-19T09:01:52Z</time>
      </trkpt>
      <trkpt lat="45.4242" lon="4.63358">
        <ele>691.8861</ele>
        <time>2021-07-19T09:01:53Z</time>
      </trkpt>
      <trkpt lat="45.4242" lon="4.63354">
        <ele>691.9284</ele>
        <time>2021-07-19T09:01:54Z</time>
      </trkpt>
      <trkpt lat="45.42419" lon="4.6335">
        <ele>692.27716</ele>
        <time>2021-07-19T09:01:55Z</time>
      </trkpt>
      <trkpt lat="45.4242" lon="4.63346">
        <ele>692.441</ele>
        <time>2021-07-19T09:01:56Z</time>
      </trkpt>
      <trkpt lat="45.4242" lon="4.63341">
        <ele>692.67883</ele>
        <time>2021-07-19T09:01:57Z</time>
      </trkpt>
      <trkpt lat="45.4242" lon="4.63337">
        <ele>692.9695</ele>
        <time>2021-07-19T09:01:58Z</time>
      </trkpt>
      <trkpt lat="45.4242" lon="4.63332">
        <ele>693.2495</ele>
        <time>2021-07-19T09:01:59Z</time>
      </trkpt>
      <trkpt lat="45.42421" lon="4.63328">
        <ele>693.22314</ele>
        <time>2021-07-19T09:02:00Z</time>
      </trkpt>
      <trkpt lat="45.42421" lon="4.63324">
        <ele>693.4979</ele>
        <time>2021-07-19T09:02:01Z</time>
      </trkpt>
      <trkpt lat="45.42421" lon="4.6332">
        <ele>693.741</ele>
        <time>2021-07-19T09:02:02Z</time>
      </trkpt>
      <trkpt lat="45.42422" lon="4.63316">
        <ele>693.94183</ele>
        <time>2021-07-19T09:02:03Z</time>
      </trkpt>
      <trkpt lat="45.42422" lon="4.63312">
        <ele>694.22723</ele>
        <time>2021-07-19T09:02:04Z</time>
      </trkpt>
      <trkpt lat="45.42422" lon="4.63308">
        <ele>694.4756</ele>
        <time>2021-07-19T09:02:05Z</time>
      </trkpt>
      <trkpt lat="45.42422" lon="4.63305">
        <ele>694.56537</ele>
        <time>2021-07-19T09:02:06Z</time>
      </trkpt>
      <trkpt lat="45.42423" lon="4.63301">
        <ele>694.87726</ele>
        <time>2021-07-19T09:02:07Z</time>
      </trkpt>
      <trkpt lat="45.42423" lon="4.63298">
        <ele>695.08856</ele>
        <time>2021-07-19T09:02:08Z</time>
      </trkpt>
      <trkpt lat="45.42423" lon="4.63294">
        <ele>695.43744</ele>
        <time>2021-07-19T09:02:09Z</time>
      </trkpt>
      <trkpt lat="45.42423" lon="4.63285">
        <ele>695.6118</ele>
        <time>2021-07-19T09:02:10Z</time>
      </trkpt>
      <trkpt lat="45.42423" lon="4.63285">
        <ele>695.6118</ele>
        <time>2021-07-19T09:02:10Z</time>
      </trkpt>
      <trkpt lat="45.42424" lon="4.63277">
        <ele>696.0663</ele>
        <time>2021-07-19T09:02:12Z</time>
      </trkpt>
      <trkpt lat="45.42424" lon="4.63277">
        <ele>696.0663</ele>
        <time>2021-07-19T09:02:12Z</time>
      </trkpt>
      <trkpt lat="45.42424" lon="4.63269">
        <ele>696.5525</ele>
        <time>2021-07-19T09:02:14Z</time>
      </trkpt>
      <trkpt lat="45.42424" lon="4.63269">
        <ele>696.5525</ele>
        <time>2021-07-19T09:02:14Z</time>
      </trkpt>
      <trkpt lat="45.42424" lon="4.63265">
        <ele>696.75854</ele>
        <time>2021-07-19T09:02:16Z</time>
      </trkpt>
      <trkpt lat="45.42425" lon="4.6326">
        <ele>697.04395</ele>
        <time>2021-07-19T09:02:17Z</time>
      </trkpt>
      <trkpt lat="45.42426" lon="4.63251">
        <ele>697.213</ele>
        <time>2021-07-19T09:02:18Z</time>
      </trkpt>
      <trkpt lat="45.42426" lon="4.63248">
        <ele>697.5407</ele>
        <time>2021-07-19T09:02:19Z</time>
      </trkpt>
      <trkpt lat="45.42426" lon="4.63244">
        <ele>697.8472</ele>
        <time>2021-07-19T09:02:20Z</time>
      </trkpt>
      <trkpt lat="45.42426" lon="4.63241">
        <ele>698.18536</ele>
        <time>2021-07-19T09:02:21Z</time>
      </trkpt>
      <trkpt lat="45.42426" lon="4.63236">
        <ele>698.5448</ele>
        <time>2021-07-19T09:02:22Z</time>
      </trkpt>
      <trkpt lat="45.42426" lon="4.63232">
        <ele>698.32806</ele>
        <time>2021-07-19T09:02:23Z</time>
      </trkpt>
      <trkpt lat="45.42425" lon="4.63228">
        <ele>698.5395</ele>
        <time>2021-07-19T09:02:24Z</time>
      </trkpt>
      <trkpt lat="45.42425" lon="4.63224">
        <ele>698.7244</ele>
        <time>2021-07-19T09:02:25Z</time>
      </trkpt>
      <trkpt lat="45.42424" lon="4.6322">
        <ele>699.0204</ele>
        <time>2021-07-19T09:02:26Z</time>
      </trkpt>
      <trkpt lat="45.42422" lon="4.63216">
        <ele>699.2529</ele>
        <time>2021-07-19T09:02:27Z</time>
      </trkpt>
      <trkpt lat="45.42421" lon="4.63212">
        <ele>699.4643</ele>
        <time>2021-07-19T09:02:28Z</time>
      </trkpt>
      <trkpt lat="45.42419" lon="4.63209">
        <ele>699.8342</ele>
        <time>2021-07-19T09:02:29Z</time>
      </trkpt>
      <trkpt lat="45.42418" lon="4.63205">
        <ele>699.99805</ele>
        <time>2021-07-19T09:02:30Z</time>
      </trkpt>
      <trkpt lat="45.42416" lon="4.63202">
        <ele>700.23584</ele>
        <time>2021-07-19T09:02:31Z</time>
      </trkpt>
      <trkpt lat="45.42415" lon="4.632">
        <ele>700.5582</ele>
        <time>2021-07-19T09:02:32Z</time>
      </trkpt>
      <trkpt lat="45.42414" lon="4.63198">
        <ele>700.7749</ele>
        <time>2021-07-19T09:02:33Z</time>
      </trkpt>
      <trkpt lat="45.42413" lon="4.63195">
        <ele>700.8647</ele>
        <time>2021-07-19T09:02:34Z</time>
      </trkpt>
      <trkpt lat="45.42412" lon="4.63192">
        <ele>701.26636</ele>
        <time>2021-07-19T09:02:35Z</time>
      </trkpt>
      <trkpt lat="45.42411" lon="4.63189">
        <ele>701.3773</ele>
        <time>2021-07-19T09:02:36Z</time>
      </trkpt>
      <trkpt lat="45.4241" lon="4.63186">
        <ele>701.5306</ele>
        <time>2021-07-19T09:02:37Z</time>
      </trkpt>
      <trkpt lat="45.42408" lon="4.63183">
        <ele>701.84766</ele>
        <time>2021-07-19T09:02:38Z</time>
      </trkpt>
      <trkpt lat="45.42406" lon="4.63179">
        <ele>701.94806</ele>
        <time>2021-07-19T09:02:39Z</time>
      </trkpt>
      <trkpt lat="45.42403" lon="4.63174">
        <ele>702.0485</ele>
        <time>2021-07-19T09:02:40Z</time>
      </trkpt>
      <trkpt lat="45.42402" lon="4.63171">
        <ele>702.17</ele>
        <time>2021-07-19T09:02:41Z</time>
      </trkpt>
      <trkpt lat="45.424" lon="4.63168">
        <ele>702.4131</ele>
        <time>2021-07-19T09:02:42Z</time>
      </trkpt>
      <trkpt lat="45.42398" lon="4.63164">
        <ele>702.67737</ele>
        <time>2021-07-19T09:02:43Z</time>
      </trkpt>
      <trkpt lat="45.42396" lon="4.63161">
        <ele>702.7778</ele>
        <time>2021-07-19T09:02:44Z</time>
      </trkpt>
      <trkpt lat="45.42394" lon="4.63157">
        <ele>703.09485</ele>
        <time>2021-07-19T09:02:45Z</time>
      </trkpt>
      <trkpt lat="45.42392" lon="4.63154">
        <ele>703.4912</ele>
        <time>2021-07-19T09:02:46Z</time>
      </trkpt>
      <trkpt lat="45.42391" lon="4.63152">
        <ele>703.803</ele>
        <time>2021-07-19T09:02:47Z</time>
      </trkpt>
      <trkpt lat="45.42389" lon="4.63149">
        <ele>703.9457</ele>
        <time>2021-07-19T09:02:48Z</time>
      </trkpt>
      <trkpt lat="45.42388" lon="4.63146">
        <ele>704.49524</ele>
        <time>2021-07-19T09:02:49Z</time>
      </trkpt>
      <trkpt lat="45.42387" lon="4.63143">
        <ele>704.8599</ele>
        <time>2021-07-19T09:02:50Z</time>
      </trkpt>
      <trkpt lat="45.42386" lon="4.63139">
        <ele>704.8176</ele>
        <time>2021-07-19T09:02:51Z</time>
      </trkpt>
      <trkpt lat="45.42386" lon="4.63136">
        <ele>704.9656</ele>
        <time>2021-07-19T09:02:52Z</time>
      </trkpt>
      <trkpt lat="45.42385" lon="4.63133">
        <ele>705.16113</ele>
        <time>2021-07-19T09:02:53Z</time>
      </trkpt>
      <trkpt lat="45.42384" lon="4.63129">
        <ele>705.55743</ele>
        <time>2021-07-19T09:02:54Z</time>
      </trkpt>
      <trkpt lat="45.42383" lon="4.63126">
        <ele>705.8957</ele>
        <time>2021-07-19T09:02:55Z</time>
      </trkpt>
      <trkpt lat="45.42382" lon="4.63123">
        <ele>706.0806</ele>
        <time>2021-07-19T09:02:56Z</time>
      </trkpt>
      <trkpt lat="45.42381" lon="4.6312">
        <ele>706.2603</ele>
        <time>2021-07-19T09:02:57Z</time>
      </trkpt>
      <trkpt lat="45.42381" lon="4.63116">
        <ele>706.5351</ele>
        <time>2021-07-19T09:02:58Z</time>
      </trkpt>
      <trkpt lat="45.4238" lon="4.63113">
        <ele>706.8628</ele>
        <time>2021-07-19T09:02:59Z</time>
      </trkpt>
      <trkpt lat="45.42379" lon="4.63109">
        <ele>707.13763</ele>
        <time>2021-07-19T09:03:00Z</time>
      </trkpt>
      <trkpt lat="45.42379" lon="4.63106">
        <ele>707.3278</ele>
        <time>2021-07-19T09:03:01Z</time>
      </trkpt>
      <trkpt lat="45.42378" lon="4.63103">
        <ele>707.6872</ele>
        <time>2021-07-19T09:03:02Z</time>
      </trkpt>
      <trkpt lat="45.42378" lon="4.63099">
        <ele>707.69775</ele>
        <time>2021-07-19T09:03:03Z</time>
      </trkpt>
      <trkpt lat="45.42377" lon="4.63096">
        <ele>707.9197</ele>
        <time>2021-07-19T09:03:04Z</time>
      </trkpt>
      <trkpt lat="45.42375" lon="4.63091">
        <ele>708.1681</ele>
        <time>2021-07-19T09:03:05Z</time>
      </trkpt>
      <trkpt lat="45.42375" lon="4.63088">
        <ele>708.4165</ele>
        <time>2021-07-19T09:03:06Z</time>
      </trkpt>
      <trkpt lat="45.42374" lon="4.63084">
        <ele>708.72296</ele>
        <time>2021-07-19T09:03:07Z</time>
      </trkpt>
      <trkpt lat="45.42373" lon="4.63081">
        <ele>709.0189</ele>
        <time>2021-07-19T09:03:08Z</time>
      </trkpt>
      <trkpt lat="45.42373" lon="4.63077">
        <ele>709.41</ele>
        <time>2021-07-19T09:03:09Z</time>
      </trkpt>
      <trkpt lat="45.42372" lon="4.63073">
        <ele>709.6002</ele>
        <time>2021-07-19T09:03:10Z</time>
      </trkpt>
      <trkpt lat="45.42371" lon="4.63069">
        <ele>709.7112</ele>
        <time>2021-07-19T09:03:11Z</time>
      </trkpt>
      <trkpt lat="45.4237" lon="4.63065">
        <ele>710.18677</ele>
        <time>2021-07-19T09:03:12Z</time>
      </trkpt>
      <trkpt lat="45.42369" lon="4.63061">
        <ele>710.35596</ele>
        <time>2021-07-19T09:03:13Z</time>
      </trkpt>
      <trkpt lat="45.42368" lon="4.63058">
        <ele>710.45105</ele>
        <time>2021-07-19T09:03:14Z</time>
      </trkpt>
      <trkpt lat="45.42367" lon="4.63052">
        <ele>710.6783</ele>
        <time>2021-07-19T09:03:15Z</time>
      </trkpt>
      <trkpt lat="45.42366" lon="4.63049">
        <ele>710.97424</ele>
        <time>2021-07-19T09:03:16Z</time>
      </trkpt>
      <trkpt lat="45.42365" lon="4.63044">
        <ele>711.02704</ele>
        <time>2021-07-19T09:03:17Z</time>
      </trkpt>
      <trkpt lat="45.42363" lon="4.6304">
        <ele>711.1275</ele>
        <time>2021-07-19T09:03:18Z</time>
      </trkpt>
      <trkpt lat="45.42363" lon="4.63036">
        <ele>711.37585</ele>
        <time>2021-07-19T09:03:19Z</time>
      </trkpt>
      <trkpt lat="45.42362" lon="4.63032">
        <ele>711.50275</ele>
        <time>2021-07-19T09:03:20Z</time>
      </trkpt>
      <trkpt lat="45.42362" lon="4.63027">
        <ele>711.7246</ele>
        <time>2021-07-19T09:03:21Z</time>
      </trkpt>
      <trkpt lat="45.42361" lon="4.63023">
        <ele>711.95715</ele>
        <time>2021-07-19T09:03:22Z</time>
      </trkpt>
      <trkpt lat="45.42361" lon="4.63019">
        <ele>712.18976</ele>
        <time>2021-07-19T09:03:23Z</time>
      </trkpt>
      <trkpt lat="45.4236" lon="4.63015">
        <ele>712.40106</ele>
        <time>2021-07-19T09:03:24Z</time>
      </trkpt>
      <trkpt lat="45.4236" lon="4.63011">
        <ele>712.586</ele>
        <time>2021-07-19T09:03:25Z</time>
      </trkpt>
      <trkpt lat="45.4236" lon="4.63007">
        <ele>712.8872</ele>
        <time>2021-07-19T09:03:26Z</time>
      </trkpt>
      <trkpt lat="45.4236" lon="4.63003">
        <ele>713.06696</ele>
        <time>2021-07-19T09:03:27Z</time>
      </trkpt>
      <trkpt lat="45.4236" lon="4.62999">
        <ele>713.2255</ele>
        <time>2021-07-19T09:03:28Z</time>
      </trkpt>
      <trkpt lat="45.4236" lon="4.62996">
        <ele>713.3999</ele>
        <time>2021-07-19T09:03:29Z</time>
      </trkpt>
      <trkpt lat="45.4236" lon="4.62991">
        <ele>713.4527</ele>
        <time>2021-07-19T09:03:30Z</time>
      </trkpt>
      <trkpt lat="45.4236" lon="4.62987">
        <ele>714.21375</ele>
        <time>2021-07-19T09:03:31Z</time>
      </trkpt>
      <trkpt lat="45.4236" lon="4.62983">
        <ele>713.6747</ele>
        <time>2021-07-19T09:03:32Z</time>
      </trkpt>
      <trkpt lat="45.4236" lon="4.62979">
        <ele>714.0816</ele>
        <time>2021-07-19T09:03:33Z</time>
      </trkpt>
      <trkpt lat="45.4236" lon="4.62976">
        <ele>714.1873</ele>
        <time>2021-07-19T09:03:34Z</time>
      </trkpt>
      <trkpt lat="45.4236" lon="4.62972">
        <ele>714.40924</ele>
        <time>2021-07-19T09:03:35Z</time>
      </trkpt>
      <trkpt lat="45.4236" lon="4.62968">
        <ele>714.67346</ele>
        <time>2021-07-19T09:03:36Z</time>
      </trkpt>
      <trkpt lat="45.42359" lon="4.62964">
        <ele>714.6788</ele>
        <time>2021-07-19T09:03:37Z</time>
      </trkpt>
      <trkpt lat="45.42359" lon="4.62961">
        <ele>714.8426</ele>
        <time>2021-07-19T09:03:38Z</time>
      </trkpt>
      <trkpt lat="45.42359" lon="4.62957">
        <ele>714.94824</ele>
        <time>2021-07-19T09:03:39Z</time>
      </trkpt>
      <trkpt lat="45.42358" lon="4.62953">
        <ele>715.15967</ele>
        <time>2021-07-19T09:03:40Z</time>
      </trkpt>
      <trkpt lat="45.42358" lon="4.62949">
        <ele>715.2706</ele>
        <time>2021-07-19T09:03:41Z</time>
      </trkpt>
      <trkpt lat="45.42358" lon="4.62945">
        <ele>715.4715</ele>
        <time>2021-07-19T09:03:42Z</time>
      </trkpt>
      <trkpt lat="45.42359" lon="4.62941">
        <ele>715.72516</ele>
        <time>2021-07-19T09:03:43Z</time>
      </trkpt>
      <trkpt lat="45.42359" lon="4.62938">
        <ele>716.0105</ele>
        <time>2021-07-19T09:03:44Z</time>
      </trkpt>
      <trkpt lat="45.42358" lon="4.62934">
        <ele>716.0686</ele>
        <time>2021-07-19T09:03:45Z</time>
      </trkpt>
      <trkpt lat="45.42358" lon="4.6293">
        <ele>716.317</ele>
        <time>2021-07-19T09:03:46Z</time>
      </trkpt>
      <trkpt lat="45.42358" lon="4.62927">
        <ele>716.60236</ele>
        <time>2021-07-19T09:03:47Z</time>
      </trkpt>
      <trkpt lat="45.42357" lon="4.62923">
        <ele>716.78735</ele>
        <time>2021-07-19T09:03:48Z</time>
      </trkpt>
      <trkpt lat="45.42357" lon="4.62919">
        <ele>716.80316</ele>
        <time>2021-07-19T09:03:49Z</time>
      </trkpt>
      <trkpt lat="45.42357" lon="4.62916">
        <ele>716.94586</ele>
        <time>2021-07-19T09:03:50Z</time>
      </trkpt>
      <trkpt lat="45.42357" lon="4.62913">
        <ele>717.16785</ele>
        <time>2021-07-19T09:03:51Z</time>
      </trkpt>
      <trkpt lat="45.42357" lon="4.62909">
        <ele>717.5642</ele>
        <time>2021-07-19T09:03:52Z</time>
      </trkpt>
      <trkpt lat="45.42356" lon="4.62906">
        <ele>717.6804</ele>
        <time>2021-07-19T09:03:53Z</time>
      </trkpt>
      <trkpt lat="45.42356" lon="4.62902">
        <ele>717.74384</ele>
        <time>2021-07-19T09:03:54Z</time>
      </trkpt>
      <trkpt lat="45.42356" lon="4.62899">
        <ele>717.90765</ele>
        <time>2021-07-19T09:03:55Z</time>
      </trkpt>
      <trkpt lat="45.42355" lon="4.62895">
        <ele>718.2512</ele>
        <time>2021-07-19T09:03:56Z</time>
      </trkpt>
      <trkpt lat="45.42355" lon="4.62891">
        <ele>718.3886</ele>
        <time>2021-07-19T09:03:57Z</time>
      </trkpt>
      <trkpt lat="45.42355" lon="4.62888">
        <ele>718.73737</ele>
        <time>2021-07-19T09:03:58Z</time>
      </trkpt>
      <trkpt lat="45.42354" lon="4.62884">
        <ele>719.23944</ele>
        <time>2021-07-19T09:03:59Z</time>
      </trkpt>
      <trkpt lat="45.42354" lon="4.62881">
        <ele>719.35565</ele>
        <time>2021-07-19T09:04:00Z</time>
      </trkpt>
      <trkpt lat="45.42354" lon="4.62878">
        <ele>719.51953</ele>
        <time>2021-07-19T09:04:01Z</time>
      </trkpt>
      <trkpt lat="45.42353" lon="4.62875">
        <ele>719.82605</ele>
        <time>2021-07-19T09:04:02Z</time>
      </trkpt>
      <trkpt lat="45.42353" lon="4.62871">
        <ele>719.98456</ele>
        <time>2021-07-19T09:04:03Z</time>
      </trkpt>
      <trkpt lat="45.42353" lon="4.62867">
        <ele>720.0955</ele>
        <time>2021-07-19T09:04:04Z</time>
      </trkpt>
      <trkpt lat="45.42353" lon="4.62864">
        <ele>720.3915</ele>
        <time>2021-07-19T09:04:05Z</time>
      </trkpt>
      <trkpt lat="45.42352" lon="4.6286">
        <ele>720.66626</ele>
        <time>2021-07-19T09:04:06Z</time>
      </trkpt>
      <trkpt lat="45.42352" lon="4.62856">
        <ele>720.9093</ele>
        <time>2021-07-19T09:04:07Z</time>
      </trkpt>
      <trkpt lat="45.42352" lon="4.62852">
        <ele>721.0838</ele>
        <time>2021-07-19T09:04:08Z</time>
      </trkpt>
      <trkpt lat="45.42351" lon="4.62848">
        <ele>721.2423</ele>
        <time>2021-07-19T09:04:09Z</time>
      </trkpt>
      <trkpt lat="45.42351" lon="4.62844">
        <ele>721.5435</ele>
        <time>2021-07-19T09:04:10Z</time>
      </trkpt>
      <trkpt lat="45.4235" lon="4.6284">
        <ele>721.7126</ele>
        <time>2021-07-19T09:04:11Z</time>
      </trkpt>
      <trkpt lat="45.4235" lon="4.62836">
        <ele>721.8606</ele>
        <time>2021-07-19T09:04:12Z</time>
      </trkpt>
      <trkpt lat="45.42349" lon="4.62833">
        <ele>721.9663</ele>
        <time>2021-07-19T09:04:13Z</time>
      </trkpt>
      <trkpt lat="45.42349" lon="4.62829">
        <ele>722.2041</ele>
        <time>2021-07-19T09:04:14Z</time>
      </trkpt>
      <trkpt lat="45.42348" lon="4.62825">
        <ele>722.39435</ele>
        <time>2021-07-19T09:04:15Z</time>
      </trkpt>
      <trkpt lat="45.42347" lon="4.62821">
        <ele>722.59515</ele>
        <time>2021-07-19T09:04:16Z</time>
      </trkpt>
      <trkpt lat="45.42346" lon="4.62817">
        <ele>722.83295</ele>
        <time>2021-07-19T09:04:17Z</time>
      </trkpt>
      <trkpt lat="45.42345" lon="4.62813">
        <ele>723.0708</ele>
        <time>2021-07-19T09:04:18Z</time>
      </trkpt>
      <trkpt lat="45.42345" lon="4.6281">
        <ele>723.2346</ele>
        <time>2021-07-19T09:04:19Z</time>
      </trkpt>
      <trkpt lat="45.42345" lon="4.62806">
        <ele>723.46185</ele>
        <time>2021-07-19T09:04:20Z</time>
      </trkpt>
      <trkpt lat="45.42344" lon="4.62803">
        <ele>723.80005</ele>
        <time>2021-07-19T09:04:21Z</time>
      </trkpt>
      <trkpt lat="45.42344" lon="4.62799">
        <ele>723.94275</ele>
        <time>2021-07-19T09:04:22Z</time>
      </trkpt>
      <trkpt lat="45.42343" lon="4.62795">
        <ele>724.13293</ele>
        <time>2021-07-19T09:04:23Z</time>
      </trkpt>
      <trkpt lat="45.42343" lon="4.62791">
        <ele>724.32324</ele>
        <time>2021-07-19T09:04:24Z</time>
      </trkpt>
      <trkpt lat="45.42342" lon="4.62787">
        <ele>724.46594</ele>
        <time>2021-07-19T09:04:25Z</time>
      </trkpt>
      <trkpt lat="45.42342" lon="4.62783">
        <ele>724.9785</ele>
        <time>2021-07-19T09:04:26Z</time>
      </trkpt>
      <trkpt lat="45.42341" lon="4.62779">
        <ele>725.0842</ele>
        <time>2021-07-19T09:04:27Z</time>
      </trkpt>
      <trkpt lat="45.42339" lon="4.62775">
        <ele>725.10535</ele>
        <time>2021-07-19T09:04:28Z</time>
      </trkpt>
      <trkpt lat="45.42338" lon="4.62772">
        <ele>725.18463</ele>
        <time>2021-07-19T09:04:29Z</time>
      </trkpt>
      <trkpt lat="45.42337" lon="4.62768">
        <ele>725.3801</ele>
        <time>2021-07-19T09:04:30Z</time>
      </trkpt>
      <trkpt lat="45.42336" lon="4.62765">
        <ele>725.433</ele>
        <time>2021-07-19T09:04:31Z</time>
      </trkpt>
      <trkpt lat="45.42335" lon="4.62762">
        <ele>725.581</ele>
        <time>2021-07-19T09:04:32Z</time>
      </trkpt>
      <trkpt lat="45.42333" lon="4.6276">
        <ele>725.8557</ele>
        <time>2021-07-19T09:04:33Z</time>
      </trkpt>
      <trkpt lat="45.42332" lon="4.62757">
        <ele>726.0249</ele>
        <time>2021-07-19T09:04:34Z</time>
      </trkpt>
      <trkpt lat="45.42329" lon="4.62755">
        <ele>726.1676</ele>
        <time>2021-07-19T09:04:35Z</time>
      </trkpt>
      <trkpt lat="45.42328" lon="4.62753">
        <ele>726.31555</ele>
        <time>2021-07-19T09:04:36Z</time>
      </trkpt>
      <trkpt lat="45.42326" lon="4.62751">
        <ele>726.73834</ele>
        <time>2021-07-19T09:04:37Z</time>
      </trkpt>
      <trkpt lat="45.42324" lon="4.62747">
        <ele>727.1875</ele>
        <time>2021-07-19T09:04:38Z</time>
      </trkpt>
      <trkpt lat="45.42321" lon="4.62744">
        <ele>727.3672</ele>
        <time>2021-07-19T09:04:39Z</time>
      </trkpt>
      <trkpt lat="45.42319" lon="4.62742">
        <ele>727.58386</ele>
        <time>2021-07-19T09:04:40Z</time>
      </trkpt>
      <trkpt lat="45.42316" lon="4.62741">
        <ele>727.70544</ele>
        <time>2021-07-19T09:04:41Z</time>
      </trkpt>
      <trkpt lat="45.42313" lon="4.6274">
        <ele>727.716</ele>
        <time>2021-07-19T09:04:42Z</time>
      </trkpt>
      <trkpt lat="45.4231" lon="4.6274">
        <ele>727.8005</ele>
        <time>2021-07-19T09:04:43Z</time>
      </trkpt>
      <trkpt lat="45.42307" lon="4.62741">
        <ele>727.8534</ele>
        <time>2021-07-19T09:04:44Z</time>
      </trkpt>
      <trkpt lat="45.42304" lon="4.62742">
        <ele>727.8851</ele>
        <time>2021-07-19T09:04:45Z</time>
      </trkpt>
      <trkpt lat="45.42301" lon="4.62742">
        <ele>728.14935</ele>
        <time>2021-07-19T09:04:46Z</time>
      </trkpt>
      <trkpt lat="45.42299" lon="4.62743">
        <ele>728.3765</ele>
        <time>2021-07-19T09:04:47Z</time>
      </trkpt>
      <trkpt lat="45.42296" lon="4.62743">
        <ele>728.5192</ele>
        <time>2021-07-19T09:04:48Z</time>
      </trkpt>
      <trkpt lat="45.4229" lon="4.62744">
        <ele>729.2591</ele>
        <time>2021-07-19T09:04:50Z</time>
      </trkpt>
      <trkpt lat="45.4229" lon="4.62744">
        <ele>729.2591</ele>
        <time>2021-07-19T09:04:50Z</time>
      </trkpt>
      <trkpt lat="45.42287" lon="4.62746">
        <ele>729.481</ele>
        <time>2021-07-19T09:04:51Z</time>
      </trkpt>
      <trkpt lat="45.42284" lon="4.62748">
        <ele>729.75055</ele>
        <time>2021-07-19T09:04:52Z</time>
      </trkpt>
      <trkpt lat="45.42276" lon="4.62754">
        <ele>729.9514</ele>
        <time>2021-07-19T09:04:54Z</time>
      </trkpt>
      <trkpt lat="45.42273" lon="4.62756">
        <ele>730.19446</ele>
        <time>2021-07-19T09:04:55Z</time>
      </trkpt>
      <trkpt lat="45.4227" lon="4.62759">
        <ele>730.1786</ele>
        <time>2021-07-19T09:04:56Z</time>
      </trkpt>
      <trkpt lat="45.42267" lon="4.62762">
        <ele>730.6278</ele>
        <time>2021-07-19T09:04:57Z</time>
      </trkpt>
      <trkpt lat="45.42264" lon="4.62764">
        <ele>730.91315</ele>
        <time>2021-07-19T09:04:58Z</time>
      </trkpt>
      <trkpt lat="45.42261" lon="4.62766">
        <ele>731.19324</ele>
        <time>2021-07-19T09:04:59Z</time>
      </trkpt>
      <trkpt lat="45.42258" lon="4.62768">
        <ele>731.70056</ele>
        <time>2021-07-19T09:05:00Z</time>
      </trkpt>
      <trkpt lat="45.42255" lon="4.6277">
        <ele>731.9912</ele>
        <time>2021-07-19T09:05:01Z</time>
      </trkpt>
      <trkpt lat="45.42253" lon="4.62772">
        <ele>732.0811</ele>
        <time>2021-07-19T09:05:02Z</time>
      </trkpt>
      <trkpt lat="45.42251" lon="4.62773">
        <ele>732.4193</ele>
        <time>2021-07-19T09:05:03Z</time>
      </trkpt>
      <trkpt lat="45.42249" lon="4.62776">
        <ele>732.6413</ele>
        <time>2021-07-19T09:05:04Z</time>
      </trkpt>
      <trkpt lat="45.42247" lon="4.62778">
        <ele>732.93195</ele>
        <time>2021-07-19T09:05:05Z</time>
      </trkpt>
      <trkpt lat="45.42244" lon="4.62779">
        <ele>733.1327</ele>
        <time>2021-07-19T09:05:06Z</time>
      </trkpt>
      <trkpt lat="45.42242" lon="4.62781">
        <ele>733.28595</ele>
        <time>2021-07-19T09:05:07Z</time>
      </trkpt>
      <trkpt lat="45.4224" lon="4.62783">
        <ele>733.5238</ele>
        <time>2021-07-19T09:05:08Z</time>
      </trkpt>
      <trkpt lat="45.42238" lon="4.62785">
        <ele>733.7722</ele>
        <time>2021-07-19T09:05:09Z</time>
      </trkpt>
      <trkpt lat="45.42234" lon="4.62787">
        <ele>733.89905</ele>
        <time>2021-07-19T09:05:10Z</time>
      </trkpt>
      <trkpt lat="45.42232" lon="4.62789">
        <ele>734.1738</ele>
        <time>2021-07-19T09:05:11Z</time>
      </trkpt>
      <trkpt lat="45.4223" lon="4.62791">
        <ele>734.3693</ele>
        <time>2021-07-19T09:05:12Z</time>
      </trkpt>
      <trkpt lat="45.42228" lon="4.62793">
        <ele>734.61774</ele>
        <time>2021-07-19T09:05:13Z</time>
      </trkpt>
      <trkpt lat="45.42225" lon="4.62794">
        <ele>734.7181</ele>
        <time>2021-07-19T09:05:14Z</time>
      </trkpt>
      <trkpt lat="45.42224" lon="4.62796">
        <ele>734.94006</ele>
        <time>2021-07-19T09:05:15Z</time>
      </trkpt>
      <trkpt lat="45.42222" lon="4.62798">
        <ele>735.1514</ele>
        <time>2021-07-19T09:05:16Z</time>
      </trkpt>
      <trkpt lat="45.4222" lon="4.628">
        <ele>735.384</ele>
        <time>2021-07-19T09:05:17Z</time>
      </trkpt>
      <trkpt lat="45.42217" lon="4.62802">
        <ele>735.6324</ele>
        <time>2021-07-19T09:05:18Z</time>
      </trkpt>
      <trkpt lat="45.42215" lon="4.62804">
        <ele>735.80145</ele>
        <time>2021-07-19T09:05:19Z</time>
      </trkpt>
      <trkpt lat="45.42213" lon="4.62807">
        <ele>736.0129</ele>
        <time>2021-07-19T09:05:20Z</time>
      </trkpt>
      <trkpt lat="45.42211" lon="4.62809">
        <ele>736.24005</ele>
        <time>2021-07-19T09:05:21Z</time>
      </trkpt>
      <trkpt lat="45.42209" lon="4.62811">
        <ele>736.3722</ele>
        <time>2021-07-19T09:05:22Z</time>
      </trkpt>
      <trkpt lat="45.42207" lon="4.62813">
        <ele>736.64703</ele>
        <time>2021-07-19T09:05:23Z</time>
      </trkpt>
      <trkpt lat="45.42205" lon="4.62814">
        <ele>736.7369</ele>
        <time>2021-07-19T09:05:24Z</time>
      </trkpt>
      <trkpt lat="45.42203" lon="4.62816">
        <ele>736.9799</ele>
        <time>2021-07-19T09:05:25Z</time>
      </trkpt>
      <trkpt lat="45.42202" lon="4.62817">
        <ele>737.3393</ele>
        <time>2021-07-19T09:05:26Z</time>
      </trkpt>
      <trkpt lat="45.42201" lon="4.62819">
        <ele>737.5824</ele>
        <time>2021-07-19T09:05:27Z</time>
      </trkpt>
      <trkpt lat="45.42199" lon="4.62821">
        <ele>737.7621</ele>
        <time>2021-07-19T09:05:28Z</time>
      </trkpt>
      <trkpt lat="45.42198" lon="4.62824">
        <ele>738.12146</ele>
        <time>2021-07-19T09:05:29Z</time>
      </trkpt>
      <trkpt lat="45.42196" lon="4.62826">
        <ele>738.34863</ele>
        <time>2021-07-19T09:05:30Z</time>
      </trkpt>
      <trkpt lat="45.42195" lon="4.62829">
        <ele>738.59174</ele>
        <time>2021-07-19T09:05:31Z</time>
      </trkpt>
      <trkpt lat="45.42194" lon="4.62831">
        <ele>738.84546</ele>
        <time>2021-07-19T09:05:32Z</time>
      </trkpt>
      <trkpt lat="45.42192" lon="4.62833">
        <ele>739.07263</ele>
        <time>2021-07-19T09:05:33Z</time>
      </trkpt>
      <trkpt lat="45.42191" lon="4.62834">
        <ele>739.2259</ele>
        <time>2021-07-19T09:05:34Z</time>
      </trkpt>
      <trkpt lat="45.42189" lon="4.62835">
        <ele>739.42145</ele>
        <time>2021-07-19T09:05:35Z</time>
      </trkpt>
      <trkpt lat="45.42188" lon="4.62836">
        <ele>739.66986</ele>
        <time>2021-07-19T09:05:36Z</time>
      </trkpt>
      <trkpt lat="45.42186" lon="4.62837">
        <ele>739.9816</ele>
        <time>2021-07-19T09:05:37Z</time>
      </trkpt>
      <trkpt lat="45.42186" lon="4.62838">
        <ele>740.1877</ele>
        <time>2021-07-19T09:05:38Z</time>
      </trkpt>
      <trkpt lat="45.42184" lon="4.6284">
        <ele>740.4361</ele>
        <time>2021-07-19T09:05:39Z</time>
      </trkpt>
      <trkpt lat="45.42183" lon="4.62843">
        <ele>740.5735</ele>
        <time>2021-07-19T09:05:40Z</time>
      </trkpt>
      <trkpt lat="45.42181" lon="4.62845">
        <ele>740.806</ele>
        <time>2021-07-19T09:05:41Z</time>
      </trkpt>
      <trkpt lat="45.42181" lon="4.62847">
        <ele>741.06494</ele>
        <time>2021-07-19T09:05:42Z</time>
      </trkpt>
      <trkpt lat="45.4218" lon="4.6285">
        <ele>741.3556</ele>
        <time>2021-07-19T09:05:43Z</time>
      </trkpt>
      <trkpt lat="45.42178" lon="4.62851">
        <ele>741.5089</ele>
        <time>2021-07-19T09:05:44Z</time>
      </trkpt>
      <trkpt lat="45.42177" lon="4.62853">
        <ele>741.8471</ele>
        <time>2021-07-19T09:05:45Z</time>
      </trkpt>
      <trkpt lat="45.42177" lon="4.62853">
        <ele>741.8471</ele>
        <time>2021-07-19T09:05:45Z</time>
      </trkpt>
      <trkpt lat="45.42177" lon="4.62853">
        <ele>741.8471</ele>
        <time>2021-07-19T09:05:45Z</time>
      </trkpt>
      <trkpt lat="45.42129" lon="4.62891">
        <ele>745.7683</ele>
        <time>2021-07-19T09:06:04Z</time>
      </trkpt>
      <trkpt lat="45.42125" lon="4.62891">
        <ele>746.0431</ele>
        <time>2021-07-19T09:06:05Z</time>
      </trkpt>
      <trkpt lat="45.4212" lon="4.6289">
        <ele>746.3496</ele>
        <time>2021-07-19T09:06:06Z</time>
      </trkpt>
      <trkpt lat="45.42116" lon="4.62889">
        <ele>746.67194</ele>
        <time>2021-07-19T09:06:07Z</time>
      </trkpt>
      <trkpt lat="45.42114" lon="4.62889">
        <ele>746.92035</ele>
        <time>2021-07-19T09:06:08Z</time>
      </trkpt>
      <trkpt lat="45.4211" lon="4.62889">
        <ele>747.174</ele>
        <time>2021-07-19T09:06:09Z</time>
      </trkpt>
      <trkpt lat="45.42105" lon="4.6289">
        <ele>747.46466</ele>
        <time>2021-07-19T09:06:10Z</time>
      </trkpt>
      <trkpt lat="45.42101" lon="4.62889">
        <ele>747.9614</ele>
        <time>2021-07-19T09:06:11Z</time>
      </trkpt>
      <trkpt lat="45.42097" lon="4.62889">
        <ele>748.10406</ele>
        <time>2021-07-19T09:06:12Z</time>
      </trkpt>
      <trkpt lat="45.42094" lon="4.62889">
        <ele>748.32605</ele>
        <time>2021-07-19T09:06:13Z</time>
      </trkpt>
      <trkpt lat="45.42091" lon="4.62889">
        <ele>748.6537</ele>
        <time>2021-07-19T09:06:14Z</time>
      </trkpt>
      <trkpt lat="45.42088" lon="4.62889">
        <ele>748.84924</ele>
        <time>2021-07-19T09:06:15Z</time>
      </trkpt>
      <trkpt lat="45.42085" lon="4.62888">
        <ele>749.17163</ele>
        <time>2021-07-19T09:06:16Z</time>
      </trkpt>
      <trkpt lat="45.42083" lon="4.62887">
        <ele>749.3724</ele>
        <time>2021-07-19T09:06:17Z</time>
      </trkpt>
      <trkpt lat="45.4208" lon="4.62886">
        <ele>749.59436</ele>
        <time>2021-07-19T09:06:18Z</time>
      </trkpt>
      <trkpt lat="45.42078" lon="4.62885">
        <ele>749.922</ele>
        <time>2021-07-19T09:06:19Z</time>
      </trkpt>
      <trkpt lat="45.42074" lon="4.62883">
        <ele>750.05414</ele>
        <time>2021-07-19T09:06:20Z</time>
      </trkpt>
      <trkpt lat="45.42071" lon="4.62882">
        <ele>750.26556</ele>
        <time>2021-07-19T09:06:21Z</time>
      </trkpt>
      <trkpt lat="45.42069" lon="4.62881">
        <ele>750.5509</ele>
        <time>2021-07-19T09:06:22Z</time>
      </trkpt>
      <trkpt lat="45.42066" lon="4.62879">
        <ele>750.79926</ele>
        <time>2021-07-19T09:06:23Z</time>
      </trkpt>
      <trkpt lat="45.42063" lon="4.62877">
        <ele>751.04236</ele>
        <time>2021-07-19T09:06:24Z</time>
      </trkpt>
      <trkpt lat="45.42061" lon="4.62875">
        <ele>751.222</ele>
        <time>2021-07-19T09:06:25Z</time>
      </trkpt>
      <trkpt lat="45.42059" lon="4.62874">
        <ele>751.3541</ele>
        <time>2021-07-19T09:06:26Z</time>
      </trkpt>
      <trkpt lat="45.42057" lon="4.62873">
        <ele>751.592</ele>
        <time>2021-07-19T09:06:27Z</time>
      </trkpt>
      <trkpt lat="45.42057" lon="4.62872">
        <ele>751.8721</ele>
        <time>2021-07-19T09:06:28Z</time>
      </trkpt>
      <trkpt lat="45.42055" lon="4.62871">
        <ele>752.0993</ele>
        <time>2021-07-19T09:06:29Z</time>
      </trkpt>
      <trkpt lat="45.42053" lon="4.6287">
        <ele>752.2209</ele>
        <time>2021-07-19T09:06:30Z</time>
      </trkpt>
      <trkpt lat="45.42051" lon="4.62869">
        <ele>752.4111</ele>
        <time>2021-07-19T09:06:31Z</time>
      </trkpt>
      <trkpt lat="45.42049" lon="4.62868">
        <ele>752.7176</ele>
        <time>2021-07-19T09:06:32Z</time>
      </trkpt>
      <trkpt lat="45.42048" lon="4.62868">
        <ele>752.9396</ele>
        <time>2021-07-19T09:06:33Z</time>
      </trkpt>
      <trkpt lat="45.42047" lon="4.62867">
        <ele>753.11926</ele>
        <time>2021-07-19T09:06:34Z</time>
      </trkpt>
      <trkpt lat="45.42046" lon="4.62867">
        <ele>753.3729</ele>
        <time>2021-07-19T09:06:35Z</time>
      </trkpt>
      <trkpt lat="45.42046" lon="4.62866">
        <ele>753.5103</ele>
        <time>2021-07-19T09:06:36Z</time>
      </trkpt>
      <trkpt lat="45.42046" lon="4.62865">
        <ele>753.7164</ele>
        <time>2021-07-19T09:06:37Z</time>
      </trkpt>
      <trkpt lat="45.42045" lon="4.62864">
        <ele>753.9119</ele>
        <time>2021-07-19T09:06:38Z</time>
      </trkpt>
      <trkpt lat="45.42045" lon="4.62864">
        <ele>753.9119</ele>
        <time>2021-07-19T09:06:38Z</time>
      </trkpt>
      <trkpt lat="45.42045" lon="4.62864">
        <ele>753.9119</ele>
        <time>2021-07-19T09:06:38Z</time>
      </trkpt>
      <trkpt lat="45.4197" lon="4.62913">
        <ele>759.7567</ele>
        <time>2021-07-19T09:07:07Z</time>
      </trkpt>
      <trkpt lat="45.41968" lon="4.6292">
        <ele>759.9575</ele>
        <time>2021-07-19T09:07:08Z</time>
      </trkpt>
      <trkpt lat="45.41966" lon="4.62925">
        <ele>760.13196</ele>
        <time>2021-07-19T09:07:09Z</time>
      </trkpt>
      <trkpt lat="45.41964" lon="4.62929">
        <ele>760.4543</ele>
        <time>2021-07-19T09:07:10Z</time>
      </trkpt>
      <trkpt lat="45.41961" lon="4.62932">
        <ele>760.64453</ele>
        <time>2021-07-19T09:07:11Z</time>
      </trkpt>
      <trkpt lat="45.41959" lon="4.62935">
        <ele>760.89294</ele>
        <time>2021-07-19T09:07:12Z</time>
      </trkpt>
      <trkpt lat="45.41957" lon="4.62937">
        <ele>761.0938</ele>
        <time>2021-07-19T09:07:13Z</time>
      </trkpt>
      <trkpt lat="45.41955" lon="4.62941">
        <ele>761.2629</ele>
        <time>2021-07-19T09:07:14Z</time>
      </trkpt>
      <trkpt lat="45.41952" lon="4.62943">
        <ele>761.66455</ele>
        <time>2021-07-19T09:07:15Z</time>
      </trkpt>
      <trkpt lat="45.41949" lon="4.62945">
        <ele>761.87585</ele>
        <time>2021-07-19T09:07:16Z</time>
      </trkpt>
      <trkpt lat="45.41945" lon="4.62948">
        <ele>762.01324</ele>
        <time>2021-07-19T09:07:17Z</time>
      </trkpt>
      <trkpt lat="45.41942" lon="4.62952">
        <ele>762.2088</ele>
        <time>2021-07-19T09:07:18Z</time>
      </trkpt>
      <trkpt lat="45.41941" lon="4.62956">
        <ele>762.52594</ele>
        <time>2021-07-19T09:07:19Z</time>
      </trkpt>
      <trkpt lat="45.4194" lon="4.6296">
        <ele>762.8113</ele>
        <time>2021-07-19T09:07:20Z</time>
      </trkpt>
      <trkpt lat="45.4194" lon="4.62967">
        <ele>762.9064</ele>
        <time>2021-07-19T09:07:21Z</time>
      </trkpt>
      <trkpt lat="45.41943" lon="4.62974">
        <ele>763.14417</ele>
        <time>2021-07-19T09:07:22Z</time>
      </trkpt>
      <trkpt lat="45.41945" lon="4.6298">
        <ele>763.2763</ele>
        <time>2021-07-19T09:07:23Z</time>
      </trkpt>
      <trkpt lat="45.41947" lon="4.62986">
        <ele>763.68854</ele>
        <time>2021-07-19T09:07:24Z</time>
      </trkpt>
      <trkpt lat="45.41949" lon="4.62992">
        <ele>763.8312</ele>
        <time>2021-07-19T09:07:25Z</time>
      </trkpt>
      <trkpt lat="45.4195" lon="4.63">
        <ele>764.0585</ele>
        <time>2021-07-19T09:07:26Z</time>
      </trkpt>
      <trkpt lat="45.41948" lon="4.63008">
        <ele>764.3491</ele>
        <time>2021-07-19T09:07:27Z</time>
      </trkpt>
      <trkpt lat="45.41946" lon="4.63013">
        <ele>764.5605</ele>
        <time>2021-07-19T09:07:28Z</time>
      </trkpt>
      <trkpt lat="45.41945" lon="4.63018">
        <ele>764.86694</ele>
        <time>2021-07-19T09:07:29Z</time>
      </trkpt>
      <trkpt lat="45.41942" lon="4.63022">
        <ele>765.0678</ele>
        <time>2021-07-19T09:07:30Z</time>
      </trkpt>
      <trkpt lat="45.41941" lon="4.63025">
        <ele>765.25806</ele>
        <time>2021-07-19T09:07:31Z</time>
      </trkpt>
      <trkpt lat="45.41941" lon="4.63028">
        <ele>765.4853</ele>
        <time>2021-07-19T09:07:32Z</time>
      </trkpt>
      <trkpt lat="45.41941" lon="4.63034">
        <ele>765.6227</ele>
        <time>2021-07-19T09:07:33Z</time>
      </trkpt>
      <trkpt lat="45.41941" lon="4.63039">
        <ele>765.78125</ele>
        <time>2021-07-19T09:07:34Z</time>
      </trkpt>
      <trkpt lat="45.41941" lon="4.63043">
        <ele>765.93976</ele>
        <time>2021-07-19T09:07:35Z</time>
      </trkpt>
      <trkpt lat="45.41939" lon="4.63047">
        <ele>766.27795</ele>
        <time>2021-07-19T09:07:36Z</time>
      </trkpt>
      <trkpt lat="45.41937" lon="4.63052">
        <ele>766.52637</ele>
        <time>2021-07-19T09:07:37Z</time>
      </trkpt>
      <trkpt lat="45.41935" lon="4.63057">
        <ele>766.6479</ele>
        <time>2021-07-19T09:07:38Z</time>
      </trkpt>
      <trkpt lat="45.41934" lon="4.63061">
        <ele>766.9174</ele>
        <time>2021-07-19T09:07:39Z</time>
      </trkpt>
      <trkpt lat="45.41932" lon="4.63064">
        <ele>767.2186</ele>
        <time>2021-07-19T09:07:40Z</time>
      </trkpt>
      <trkpt lat="45.4193" lon="4.63069">
        <ele>767.5568</ele>
        <time>2021-07-19T09:07:41Z</time>
      </trkpt>
      <trkpt lat="45.41928" lon="4.63072">
        <ele>767.77356</ele>
        <time>2021-07-19T09:07:42Z</time>
      </trkpt>
      <trkpt lat="45.41927" lon="4.63077">
        <ele>768.0431</ele>
        <time>2021-07-19T09:07:43Z</time>
      </trkpt>
      <trkpt lat="45.41926" lon="4.6308">
        <ele>768.3179</ele>
        <time>2021-07-19T09:07:44Z</time>
      </trkpt>
      <trkpt lat="45.41924" lon="4.63083">
        <ele>768.5028</ele>
        <time>2021-07-19T09:07:45Z</time>
      </trkpt>
      <trkpt lat="45.41924" lon="4.63086">
        <ele>768.767</ele>
        <time>2021-07-19T09:07:46Z</time>
      </trkpt>
      <trkpt lat="45.41923" lon="4.6309">
        <ele>768.9414</ele>
        <time>2021-07-19T09:07:47Z</time>
      </trkpt>
      <trkpt lat="45.41922" lon="4.63094">
        <ele>769.2004</ele>
        <time>2021-07-19T09:07:48Z</time>
      </trkpt>
      <trkpt lat="45.41921" lon="4.63098">
        <ele>769.4065</ele>
        <time>2021-07-19T09:07:49Z</time>
      </trkpt>
      <trkpt lat="45.41919" lon="4.63102">
        <ele>769.6919</ele>
        <time>2021-07-19T09:07:50Z</time>
      </trkpt>
      <trkpt lat="45.41918" lon="4.63104">
        <ele>769.81335</ele>
        <time>2021-07-19T09:07:51Z</time>
      </trkpt>
      <trkpt lat="45.41917" lon="4.63107">
        <ele>770.1147</ele>
        <time>2021-07-19T09:07:52Z</time>
      </trkpt>
      <trkpt lat="45.41916" lon="4.6311">
        <ele>770.3154</ele>
        <time>2021-07-19T09:07:53Z</time>
      </trkpt>
      <trkpt lat="45.41914" lon="4.63112">
        <ele>770.55853</ele>
        <time>2021-07-19T09:07:54Z</time>
      </trkpt>
      <trkpt lat="45.41912" lon="4.63117">
        <ele>770.696</ele>
        <time>2021-07-19T09:07:55Z</time>
      </trkpt>
      <trkpt lat="45.41911" lon="4.6312">
        <ele>770.9126</ele>
        <time>2021-07-19T09:07:56Z</time>
      </trkpt>
      <trkpt lat="45.4191" lon="4.63122">
        <ele>771.272</ele>
        <time>2021-07-19T09:07:57Z</time>
      </trkpt>
      <trkpt lat="45.41909" lon="4.63124">
        <ele>771.50446</ele>
        <time>2021-07-19T09:07:58Z</time>
      </trkpt>
      <trkpt lat="45.41908" lon="4.63127">
        <ele>771.64185</ele>
        <time>2021-07-19T09:07:59Z</time>
      </trkpt>
      <trkpt lat="45.41907" lon="4.63131">
        <ele>771.7634</ele>
        <time>2021-07-19T09:08:00Z</time>
      </trkpt>
      <trkpt lat="45.41905" lon="4.63137">
        <ele>772.1387</ele>
        <time>2021-07-19T09:08:01Z</time>
      </trkpt>
      <trkpt lat="45.41904" lon="4.63146">
        <ele>772.3659</ele>
        <time>2021-07-19T09:08:02Z</time>
      </trkpt>
      <trkpt lat="45.41906" lon="4.63154">
        <ele>772.646</ele>
        <time>2021-07-19T09:08:03Z</time>
      </trkpt>
      <trkpt lat="45.41907" lon="4.63161">
        <ele>772.8098</ele>
        <time>2021-07-19T09:08:04Z</time>
      </trkpt>
      <trkpt lat="45.41907" lon="4.63164">
        <ele>773.0212</ele>
        <time>2021-07-19T09:08:05Z</time>
      </trkpt>
      <trkpt lat="45.41907" lon="4.63168">
        <ele>773.24316</ele>
        <time>2021-07-19T09:08:06Z</time>
      </trkpt>
      <trkpt lat="45.41906" lon="4.6317">
        <ele>773.4492</ele>
        <time>2021-07-19T09:08:07Z</time>
      </trkpt>
      <trkpt lat="45.41904" lon="4.63172">
        <ele>773.7346</ele>
        <time>2021-07-19T09:08:08Z</time>
      </trkpt>
      <trkpt lat="45.41904" lon="4.63175">
        <ele>774.01996</ele>
        <time>2021-07-19T09:08:09Z</time>
      </trkpt>
      <trkpt lat="45.41904" lon="4.63177">
        <ele>774.17847</ele>
        <time>2021-07-19T09:08:10Z</time>
      </trkpt>
      <trkpt lat="45.41903" lon="4.6318">
        <ele>774.42163</ele>
        <time>2021-07-19T09:08:11Z</time>
      </trkpt>
      <trkpt lat="45.41901" lon="4.63183">
        <ele>774.6594</ele>
        <time>2021-07-19T09:08:12Z</time>
      </trkpt>
      <trkpt lat="45.41899" lon="4.63186">
        <ele>774.88666</ele>
        <time>2021-07-19T09:08:13Z</time>
      </trkpt>
      <trkpt lat="45.41896" lon="4.63189">
        <ele>775.20374</ele>
        <time>2021-07-19T09:08:14Z</time>
      </trkpt>
      <trkpt lat="45.41893" lon="4.63194">
        <ele>775.31995</ele>
        <time>2021-07-19T09:08:15Z</time>
      </trkpt>
      <trkpt lat="45.41889" lon="4.63199">
        <ele>775.65295</ele>
        <time>2021-07-19T09:08:16Z</time>
      </trkpt>
      <trkpt lat="45.41887" lon="4.63203">
        <ele>775.8537</ele>
        <time>2021-07-19T09:08:17Z</time>
      </trkpt>
      <trkpt lat="45.41885" lon="4.63208">
        <ele>776.118</ele>
        <time>2021-07-19T09:08:18Z</time>
      </trkpt>
      <trkpt lat="45.41882" lon="4.63211">
        <ele>776.3664</ele>
        <time>2021-07-19T09:08:19Z</time>
      </trkpt>
      <trkpt lat="45.41881" lon="4.63214">
        <ele>776.694</ele>
        <time>2021-07-19T09:08:20Z</time>
      </trkpt>
      <trkpt lat="45.4188" lon="4.63217">
        <ele>776.805</ele>
        <time>2021-07-19T09:08:21Z</time>
      </trkpt>
      <trkpt lat="45.4188" lon="4.63221">
        <ele>777.03754</ele>
        <time>2021-07-19T09:08:22Z</time>
      </trkpt>
      <trkpt lat="45.41879" lon="4.63226">
        <ele>777.2277</ele>
        <time>2021-07-19T09:08:23Z</time>
      </trkpt>
      <trkpt lat="45.41878" lon="4.6323">
        <ele>777.5237</ele>
        <time>2021-07-19T09:08:24Z</time>
      </trkpt>
      <trkpt lat="45.41876" lon="4.63234">
        <ele>777.69275</ele>
        <time>2021-07-19T09:08:25Z</time>
      </trkpt>
      <trkpt lat="45.41874" lon="4.63237">
        <ele>777.83545</ele>
        <time>2021-07-19T09:08:26Z</time>
      </trkpt>
      <trkpt lat="45.41872" lon="4.6324">
        <ele>778.20013</ele>
        <time>2021-07-19T09:08:27Z</time>
      </trkpt>
      <trkpt lat="45.4187" lon="4.63243">
        <ele>778.44324</ele>
        <time>2021-07-19T09:08:28Z</time>
      </trkpt>
      <trkpt lat="45.41869" lon="4.63246">
        <ele>778.6335</ele>
        <time>2021-07-19T09:08:29Z</time>
      </trkpt>
      <trkpt lat="45.41867" lon="4.63249">
        <ele>778.7761</ele>
        <time>2021-07-19T09:08:30Z</time>
      </trkpt>
      <trkpt lat="45.41866" lon="4.63252">
        <ele>779.05096</ele>
        <time>2021-07-19T09:08:31Z</time>
      </trkpt>
      <trkpt lat="45.41865" lon="4.63256">
        <ele>779.257</ele>
        <time>2021-07-19T09:08:32Z</time>
      </trkpt>
      <trkpt lat="45.41865" lon="4.63259">
        <ele>779.32574</ele>
        <time>2021-07-19T09:08:33Z</time>
      </trkpt>
      <trkpt lat="45.41866" lon="4.63263">
        <ele>779.63226</ele>
        <time>2021-07-19T09:08:34Z</time>
      </trkpt>
      <trkpt lat="45.41866" lon="4.63267">
        <ele>779.8119</ele>
        <time>2021-07-19T09:08:35Z</time>
      </trkpt>
      <trkpt lat="45.41865" lon="4.63272">
        <ele>780.1238</ele>
        <time>2021-07-19T09:08:36Z</time>
      </trkpt>
      <trkpt lat="45.41864" lon="4.63278">
        <ele>780.3034</ele>
        <time>2021-07-19T09:08:37Z</time>
      </trkpt>
      <trkpt lat="45.41862" lon="4.63284">
        <ele>780.5359</ele>
        <time>2021-07-19T09:08:38Z</time>
      </trkpt>
      <trkpt lat="45.4186" lon="4.63289">
        <ele>780.6416</ele>
        <time>2021-07-19T09:08:39Z</time>
      </trkpt>
      <trkpt lat="45.41859" lon="4.63294">
        <ele>780.85834</ele>
        <time>2021-07-19T09:08:40Z</time>
      </trkpt>
      <trkpt lat="45.41859" lon="4.63298">
        <ele>781.1067</ele>
        <time>2021-07-19T09:08:41Z</time>
      </trkpt>
      <trkpt lat="45.41858" lon="4.63302">
        <ele>781.3603</ele>
        <time>2021-07-19T09:08:42Z</time>
      </trkpt>
      <trkpt lat="45.41857" lon="4.63307">
        <ele>781.49243</ele>
        <time>2021-07-19T09:08:43Z</time>
      </trkpt>
      <trkpt lat="45.41856" lon="4.63312">
        <ele>781.70917</ele>
        <time>2021-07-19T09:08:44Z</time>
      </trkpt>
      <trkpt lat="45.41856" lon="4.63316">
        <ele>781.97864</ele>
        <time>2021-07-19T09:08:45Z</time>
      </trkpt>
      <trkpt lat="45.41855" lon="4.63321">
        <ele>782.20056</ele>
        <time>2021-07-19T09:08:46Z</time>
      </trkpt>
      <trkpt lat="45.41854" lon="4.63327">
        <ele>782.4014</ele>
        <time>2021-07-19T09:08:47Z</time>
      </trkpt>
      <trkpt lat="45.41853" lon="4.63334">
        <ele>782.60223</ele>
        <time>2021-07-19T09:08:48Z</time>
      </trkpt>
      <trkpt lat="45.41853" lon="4.63338">
        <ele>782.94574</ele>
        <time>2021-07-19T09:08:49Z</time>
      </trkpt>
      <trkpt lat="45.41852" lon="4.63341">
        <ele>783.28394</ele>
        <time>2021-07-19T09:08:50Z</time>
      </trkpt>
      <trkpt lat="45.41851" lon="4.63343">
        <ele>783.712</ele>
        <time>2021-07-19T09:08:51Z</time>
      </trkpt>
      <trkpt lat="45.41848" lon="4.63343">
        <ele>783.8019</ele>
        <time>2021-07-19T09:08:52Z</time>
      </trkpt>
      <trkpt lat="45.41847" lon="4.63343">
        <ele>784.1612</ele>
        <time>2021-07-19T09:08:53Z</time>
      </trkpt>
      <trkpt lat="45.41845" lon="4.63341">
        <ele>784.64215</ele>
        <time>2021-07-19T09:08:54Z</time>
      </trkpt>
      <trkpt lat="45.41843" lon="4.63338">
        <ele>784.9539</ele>
        <time>2021-07-19T09:08:55Z</time>
      </trkpt>
      <trkpt lat="45.41842" lon="4.63334">
        <ele>784.99615</ele>
        <time>2021-07-19T09:08:56Z</time>
      </trkpt>
      <trkpt lat="45.41841" lon="4.6333">
        <ele>785.3925</ele>
        <time>2021-07-19T09:08:57Z</time>
      </trkpt>
      <trkpt lat="45.41842" lon="4.63327">
        <ele>785.6198</ele>
        <time>2021-07-19T09:08:58Z</time>
      </trkpt>
      <trkpt lat="45.41843" lon="4.63323">
        <ele>785.7942</ele>
        <time>2021-07-19T09:08:59Z</time>
      </trkpt>
      <trkpt lat="45.41843" lon="4.6332">
        <ele>785.8946</ele>
        <time>2021-07-19T09:09:00Z</time>
      </trkpt>
      <trkpt lat="45.41843" lon="4.63316">
        <ele>786.15875</ele>
        <time>2021-07-19T09:09:01Z</time>
      </trkpt>
      <trkpt lat="45.41844" lon="4.63312">
        <ele>786.40186</ele>
        <time>2021-07-19T09:09:02Z</time>
      </trkpt>
      <trkpt lat="45.41845" lon="4.63308">
        <ele>786.5868</ele>
        <time>2021-07-19T09:09:03Z</time>
      </trkpt>
      <trkpt lat="45.41845" lon="4.63305">
        <ele>786.8141</ele>
        <time>2021-07-19T09:09:04Z</time>
      </trkpt>
      <trkpt lat="45.41845" lon="4.63301">
        <ele>786.87744</ele>
        <time>2021-07-19T09:09:05Z</time>
      </trkpt>
      <trkpt lat="45.41845" lon="4.63299">
        <ele>787.1364</ele>
        <time>2021-07-19T09:09:06Z</time>
      </trkpt>
      <trkpt lat="45.41846" lon="4.63296">
        <ele>787.26855</ele>
        <time>2021-07-19T09:09:07Z</time>
      </trkpt>
      <trkpt lat="45.41846" lon="4.63292">
        <ele>787.5857</ele>
        <time>2021-07-19T09:09:08Z</time>
      </trkpt>
      <trkpt lat="45.41847" lon="4.63288">
        <ele>787.7177</ele>
        <time>2021-07-19T09:09:09Z</time>
      </trkpt>
      <trkpt lat="45.41847" lon="4.63284">
        <ele>787.92914</ele>
        <time>2021-07-19T09:09:10Z</time>
      </trkpt>
      <trkpt lat="45.41847" lon="4.6328">
        <ele>788.19867</ele>
        <time>2021-07-19T09:09:11Z</time>
      </trkpt>
      <trkpt lat="45.41847" lon="4.63276">
        <ele>788.51044</ele>
        <time>2021-07-19T09:09:12Z</time>
      </trkpt>
      <trkpt lat="45.41848" lon="4.63272">
        <ele>788.65845</ele>
        <time>2021-07-19T09:09:13Z</time>
      </trkpt>
      <trkpt lat="45.41848" lon="4.63267">
        <ele>788.9068</ele>
        <time>2021-07-19T09:09:14Z</time>
      </trkpt>
      <trkpt lat="45.41848" lon="4.63265">
        <ele>789.1499</ele>
        <time>2021-07-19T09:09:15Z</time>
      </trkpt>
      <trkpt lat="45.41848" lon="4.63263">
        <ele>789.245</ele>
        <time>2021-07-19T09:09:16Z</time>
      </trkpt>
      <trkpt lat="45.41848" lon="4.63261">
        <ele>789.6519</ele>
        <time>2021-07-19T09:09:17Z</time>
      </trkpt>
      <trkpt lat="45.41849" lon="4.63259">
        <ele>789.8581</ele>
        <time>2021-07-19T09:09:18Z</time>
      </trkpt>
      <trkpt lat="45.4185" lon="4.63256">
        <ele>790.05884</ele>
        <time>2021-07-19T09:09:19Z</time>
      </trkpt>
      <trkpt lat="45.4185" lon="4.63253">
        <ele>790.14874</ele>
        <time>2021-07-19T09:09:20Z</time>
      </trkpt>
      <trkpt lat="45.41851" lon="4.6325">
        <ele>790.3759</ele>
        <time>2021-07-19T09:09:21Z</time>
      </trkpt>
      <trkpt lat="45.41851" lon="4.63248">
        <ele>790.7142</ele>
        <time>2021-07-19T09:09:22Z</time>
      </trkpt>
      <trkpt lat="45.41852" lon="4.63245">
        <ele>791.0629</ele>
        <time>2021-07-19T09:09:23Z</time>
      </trkpt>
      <trkpt lat="45.41853" lon="4.63241">
        <ele>791.1211</ele>
        <time>2021-07-19T09:09:24Z</time>
      </trkpt>
      <trkpt lat="45.41852" lon="4.63237">
        <ele>791.2955</ele>
        <time>2021-07-19T09:09:25Z</time>
      </trkpt>
      <trkpt lat="45.41853" lon="4.63233">
        <ele>791.54913</ele>
        <time>2021-07-19T09:09:26Z</time>
      </trkpt>
      <trkpt lat="45.41853" lon="4.63229">
        <ele>791.8609</ele>
        <time>2021-07-19T09:09:27Z</time>
      </trkpt>
      <trkpt lat="45.41853" lon="4.63224">
        <ele>792.20966</ele>
        <time>2021-07-19T09:09:28Z</time>
      </trkpt>
      <trkpt lat="45.41853" lon="4.6322">
        <ele>792.45807</ele>
        <time>2021-07-19T09:09:29Z</time>
      </trkpt>
      <trkpt lat="45.41853" lon="4.63216">
        <ele>792.5532</ele>
        <time>2021-07-19T09:09:30Z</time>
      </trkpt>
      <trkpt lat="45.41853" lon="4.63212">
        <ele>792.82275</ele>
        <time>2021-07-19T09:09:31Z</time>
      </trkpt>
      <trkpt lat="45.41853" lon="4.63208">
        <ele>793.0605</ele>
        <time>2021-07-19T09:09:32Z</time>
      </trkpt>
      <trkpt lat="45.41854" lon="4.63205">
        <ele>793.293</ele>
        <time>2021-07-19T09:09:33Z</time>
      </trkpt>
      <trkpt lat="45.41854" lon="4.63201">
        <ele>793.4886</ele>
        <time>2021-07-19T09:09:34Z</time>
      </trkpt>
      <trkpt lat="45.41855" lon="4.63197">
        <ele>793.5943</ele>
        <time>2021-07-19T09:09:35Z</time>
      </trkpt>
      <trkpt lat="45.41856" lon="4.63194">
        <ele>793.8374</ele>
        <time>2021-07-19T09:09:36Z</time>
      </trkpt>
      <trkpt lat="45.41856" lon="4.6319">
        <ele>794.1333</ele>
        <time>2021-07-19T09:09:37Z</time>
      </trkpt>
      <trkpt lat="45.41857" lon="4.63186">
        <ele>794.44507</ele>
        <time>2021-07-19T09:09:38Z</time>
      </trkpt>
      <trkpt lat="45.41858" lon="4.63182">
        <ele>794.7357</ele>
        <time>2021-07-19T09:09:39Z</time>
      </trkpt>
      <trkpt lat="45.41858" lon="4.63178">
        <ele>794.8573</ele>
        <time>2021-07-19T09:09:40Z</time>
      </trkpt>
      <trkpt lat="45.41859" lon="4.63175">
        <ele>795.2378</ele>
        <time>2021-07-19T09:09:41Z</time>
      </trkpt>
      <trkpt lat="45.41859" lon="4.63171">
        <ele>795.52844</ele>
        <time>2021-07-19T09:09:42Z</time>
      </trkpt>
      <trkpt lat="45.41861" lon="4.63165">
        <ele>795.58655</ele>
        <time>2021-07-19T09:09:43Z</time>
      </trkpt>
      <trkpt lat="45.41861" lon="4.6316">
        <ele>795.7874</ele>
        <time>2021-07-19T09:09:44Z</time>
      </trkpt>
      <trkpt lat="45.41862" lon="4.63156">
        <ele>795.9248</ele>
        <time>2021-07-19T09:09:45Z</time>
      </trkpt>
      <trkpt lat="45.41862" lon="4.6315">
        <ele>796.11505</ele>
        <time>2021-07-19T09:09:46Z</time>
      </trkpt>
      <trkpt lat="45.41862" lon="4.63147">
        <ele>796.2841</ele>
        <time>2021-07-19T09:09:47Z</time>
      </trkpt>
      <trkpt lat="45.41861" lon="4.63142">
        <ele>796.49554</ele>
        <time>2021-07-19T09:09:48Z</time>
      </trkpt>
      <trkpt lat="45.41861" lon="4.63137">
        <ele>796.79675</ele>
        <time>2021-07-19T09:09:49Z</time>
      </trkpt>
      <trkpt lat="45.41862" lon="4.63133">
        <ele>796.94476</ele>
        <time>2021-07-19T09:09:50Z</time>
      </trkpt>
      <trkpt lat="45.41862" lon="4.63128">
        <ele>797.0134</ele>
        <time>2021-07-19T09:09:51Z</time>
      </trkpt>
      <trkpt lat="45.41862" lon="4.63124">
        <ele>797.3147</ele>
        <time>2021-07-19T09:09:52Z</time>
      </trkpt>
      <trkpt lat="45.41863" lon="4.6312">
        <ele>797.4309</ele>
        <time>2021-07-19T09:09:53Z</time>
      </trkpt>
      <trkpt lat="45.41864" lon="4.63115">
        <ele>797.637</ele>
        <time>2021-07-19T09:09:54Z</time>
      </trkpt>
      <trkpt lat="45.41864" lon="4.6311">
        <ele>797.9541</ele>
        <time>2021-07-19T09:09:55Z</time>
      </trkpt>
      <trkpt lat="45.41864" lon="4.63106">
        <ele>798.2712</ele>
        <time>2021-07-19T09:09:56Z</time>
      </trkpt>
      <trkpt lat="45.41865" lon="4.63102">
        <ele>798.4456</ele>
        <time>2021-07-19T09:09:57Z</time>
      </trkpt>
      <trkpt lat="45.41865" lon="4.63099">
        <ele>798.7151</ele>
        <time>2021-07-19T09:09:58Z</time>
      </trkpt>
      <trkpt lat="45.41866" lon="4.63096">
        <ele>798.9001</ele>
        <time>2021-07-19T09:09:59Z</time>
      </trkpt>
      <trkpt lat="45.41866" lon="4.63092">
        <ele>799.2383</ele>
        <time>2021-07-19T09:10:00Z</time>
      </trkpt>
      <trkpt lat="45.41866" lon="4.63088">
        <ele>799.3281</ele>
        <time>2021-07-19T09:10:01Z</time>
      </trkpt>
      <trkpt lat="45.41866" lon="4.63085">
        <ele>799.52893</ele>
        <time>2021-07-19T09:10:02Z</time>
      </trkpt>
      <trkpt lat="45.41866" lon="4.63081">
        <ele>799.74036</ele>
        <time>2021-07-19T09:10:03Z</time>
      </trkpt>
      <trkpt lat="45.41867" lon="4.63076">
        <ele>800.0521</ele>
        <time>2021-07-19T09:10:04Z</time>
      </trkpt>
      <trkpt lat="45.41867" lon="4.63072">
        <ele>800.1684</ele>
        <time>2021-07-19T09:10:05Z</time>
      </trkpt>
      <trkpt lat="45.41867" lon="4.63068">
        <ele>800.35333</ele>
        <time>2021-07-19T09:10:06Z</time>
      </trkpt>
      <trkpt lat="45.41867" lon="4.63064">
        <ele>800.6123</ele>
        <time>2021-07-19T09:10:07Z</time>
      </trkpt>
      <trkpt lat="45.41867" lon="4.6306">
        <ele>800.9663</ele>
        <time>2021-07-19T09:10:08Z</time>
      </trkpt>
      <trkpt lat="45.41868" lon="4.63055">
        <ele>801.48425</ele>
        <time>2021-07-19T09:10:09Z</time>
      </trkpt>
      <trkpt lat="45.41868" lon="4.63052">
        <ele>801.67444</ele>
        <time>2021-07-19T09:10:10Z</time>
      </trkpt>
      <trkpt lat="45.41869" lon="4.63047">
        <ele>801.78015</ele>
        <time>2021-07-19T09:10:11Z</time>
      </trkpt>
      <trkpt lat="45.41869" lon="4.63042">
        <ele>802.1343</ele>
        <time>2021-07-19T09:10:12Z</time>
      </trkpt>
      <trkpt lat="45.41869" lon="4.63038">
        <ele>802.2664</ele>
        <time>2021-07-19T09:10:13Z</time>
      </trkpt>
      <trkpt lat="45.41869" lon="4.63034">
        <ele>802.38794</ele>
        <time>2021-07-19T09:10:14Z</time>
      </trkpt>
      <trkpt lat="45.41869" lon="4.6303">
        <ele>802.60986</ele>
        <time>2021-07-19T09:10:15Z</time>
      </trkpt>
      <trkpt lat="45.41869" lon="4.63026">
        <ele>802.9058</ele>
        <time>2021-07-19T09:10:16Z</time>
      </trkpt>
      <trkpt lat="45.41869" lon="4.63021">
        <ele>803.1595</ele>
        <time>2021-07-19T09:10:17Z</time>
      </trkpt>
      <trkpt lat="45.41869" lon="4.63018">
        <ele>803.30743</ele>
        <time>2021-07-19T09:10:18Z</time>
      </trkpt>
      <trkpt lat="45.41869" lon="4.63014">
        <ele>803.4818</ele>
        <time>2021-07-19T09:10:19Z</time>
      </trkpt>
      <trkpt lat="45.41869" lon="4.63011">
        <ele>803.651</ele>
        <time>2021-07-19T09:10:20Z</time>
      </trkpt>
      <trkpt lat="45.41869" lon="4.63006">
        <ele>803.9257</ele>
        <time>2021-07-19T09:10:21Z</time>
      </trkpt>
      <trkpt lat="45.41869" lon="4.63003">
        <ele>804.19525</ele>
        <time>2021-07-19T09:10:22Z</time>
      </trkpt>
      <trkpt lat="45.41869" lon="4.62998">
        <ele>804.38556</ele>
        <time>2021-07-19T09:10:23Z</time>
      </trkpt>
      <trkpt lat="45.41868" lon="4.62993">
        <ele>804.57574</ele>
        <time>2021-07-19T09:10:24Z</time>
      </trkpt>
      <trkpt lat="45.41868" lon="4.62989">
        <ele>804.7343</ele>
        <time>2021-07-19T09:10:25Z</time>
      </trkpt>
      <trkpt lat="45.41868" lon="4.62985">
        <ele>804.9299</ele>
        <time>2021-07-19T09:10:26Z</time>
      </trkpt>
      <trkpt lat="45.41868" lon="4.62981">
        <ele>805.1729</ele>
        <time>2021-07-19T09:10:27Z</time>
      </trkpt>
      <trkpt lat="45.41868" lon="4.62977">
        <ele>805.3103</ele>
        <time>2021-07-19T09:10:28Z</time>
      </trkpt>
      <trkpt lat="45.41868" lon="4.62973">
        <ele>805.54816</ele>
        <time>2021-07-19T09:10:29Z</time>
      </trkpt>
      <trkpt lat="45.41869" lon="4.62968">
        <ele>805.7965</ele>
        <time>2021-07-19T09:10:30Z</time>
      </trkpt>
      <trkpt lat="45.41868" lon="4.62964">
        <ele>805.8705</ele>
        <time>2021-07-19T09:10:31Z</time>
      </trkpt>
      <trkpt lat="45.41868" lon="4.62961">
        <ele>806.1876</ele>
        <time>2021-07-19T09:10:32Z</time>
      </trkpt>
      <trkpt lat="45.41868" lon="4.62956">
        <ele>806.4518</ele>
        <time>2021-07-19T09:10:33Z</time>
      </trkpt>
      <trkpt lat="45.41868" lon="4.62952">
        <ele>806.6949</ele>
        <time>2021-07-19T09:10:34Z</time>
      </trkpt>
      <trkpt lat="45.41867" lon="4.62948">
        <ele>807.049</ele>
        <time>2021-07-19T09:10:35Z</time>
      </trkpt>
      <trkpt lat="45.41867" lon="4.62945">
        <ele>807.3026</ele>
        <time>2021-07-19T09:10:36Z</time>
      </trkpt>
      <trkpt lat="45.41867" lon="4.62941">
        <ele>807.42413</ele>
        <time>2021-07-19T09:10:37Z</time>
      </trkpt>
      <trkpt lat="45.41867" lon="4.62937">
        <ele>807.6303</ele>
        <time>2021-07-19T09:10:38Z</time>
      </trkpt>
      <trkpt lat="45.41867" lon="4.62934">
        <ele>807.8047</ele>
        <time>2021-07-19T09:10:39Z</time>
      </trkpt>
      <trkpt lat="45.41868" lon="4.62929">
        <ele>808.14813</ele>
        <time>2021-07-19T09:10:40Z</time>
      </trkpt>
      <trkpt lat="45.41868" lon="4.62924">
        <ele>808.312</ele>
        <time>2021-07-19T09:10:41Z</time>
      </trkpt>
      <trkpt lat="45.41868" lon="4.62919">
        <ele>808.44946</ele>
        <time>2021-07-19T09:10:42Z</time>
      </trkpt>
      <trkpt lat="45.41868" lon="4.62915">
        <ele>808.77704</ele>
        <time>2021-07-19T09:10:43Z</time>
      </trkpt>
      <trkpt lat="45.41868" lon="4.6291">
        <ele>808.8933</ele>
        <time>2021-07-19T09:10:44Z</time>
      </trkpt>
      <trkpt lat="45.41868" lon="4.62906">
        <ele>809.1893</ele>
        <time>2021-07-19T09:10:45Z</time>
      </trkpt>
      <trkpt lat="45.41868" lon="4.62902">
        <ele>809.56445</ele>
        <time>2021-07-19T09:10:46Z</time>
      </trkpt>
      <trkpt lat="45.41868" lon="4.62899">
        <ele>809.8287</ele>
        <time>2021-07-19T09:10:47Z</time>
      </trkpt>
      <trkpt lat="45.41869" lon="4.62896">
        <ele>809.9291</ele>
        <time>2021-07-19T09:10:48Z</time>
      </trkpt>
      <trkpt lat="45.4187" lon="4.62894">
        <ele>810.17224</ele>
        <time>2021-07-19T09:10:49Z</time>
      </trkpt>
      <trkpt lat="45.4187" lon="4.6289">
        <ele>810.52094</ele>
        <time>2021-07-19T09:10:50Z</time>
      </trkpt>
      <trkpt lat="45.41871" lon="4.62887">
        <ele>810.71655</ele>
        <time>2021-07-19T09:10:51Z</time>
      </trkpt>
      <trkpt lat="45.41871" lon="4.62884">
        <ele>811.07587</ele>
        <time>2021-07-19T09:10:52Z</time>
      </trkpt>
      <trkpt lat="45.41872" lon="4.6288">
        <ele>811.24493</ele>
        <time>2021-07-19T09:10:53Z</time>
      </trkpt>
      <trkpt lat="45.41872" lon="4.62876">
        <ele>811.525</ele>
        <time>2021-07-19T09:10:54Z</time>
      </trkpt>
      <trkpt lat="45.41871" lon="4.62871">
        <ele>811.6149</ele>
        <time>2021-07-19T09:10:55Z</time>
      </trkpt>
      <trkpt lat="45.41871" lon="4.62867">
        <ele>811.87384</ele>
        <time>2021-07-19T09:10:56Z</time>
      </trkpt>
      <trkpt lat="45.41871" lon="4.62862">
        <ele>812.1645</ele>
        <time>2021-07-19T09:10:57Z</time>
      </trkpt>
      <trkpt lat="45.41871" lon="4.62858">
        <ele>812.3336</ele>
        <time>2021-07-19T09:10:58Z</time>
      </trkpt>
      <trkpt lat="45.41871" lon="4.62853">
        <ele>812.54504</ele>
        <time>2021-07-19T09:10:59Z</time>
      </trkpt>
      <trkpt lat="45.41871" lon="4.62849">
        <ele>812.7775</ele>
        <time>2021-07-19T09:11:00Z</time>
      </trkpt>
      <trkpt lat="45.41871" lon="4.62846">
        <ele>812.93604</ele>
        <time>2021-07-19T09:11:01Z</time>
      </trkpt>
      <trkpt lat="45.41871" lon="4.62842">
        <ele>813.0523</ele>
        <time>2021-07-19T09:11:02Z</time>
      </trkpt>
      <trkpt lat="45.41871" lon="4.62837">
        <ele>813.4117</ele>
        <time>2021-07-19T09:11:03Z</time>
      </trkpt>
      <trkpt lat="45.41871" lon="4.62833">
        <ele>813.6389</ele>
        <time>2021-07-19T09:11:04Z</time>
      </trkpt>
      <trkpt lat="45.41871" lon="4.62829">
        <ele>813.97186</ele>
        <time>2021-07-19T09:11:05Z</time>
      </trkpt>
      <trkpt lat="45.41871" lon="4.62824">
        <ele>814.1304</ele>
        <time>2021-07-19T09:11:06Z</time>
      </trkpt>
      <trkpt lat="45.41871" lon="4.62819">
        <ele>814.31537</ele>
        <time>2021-07-19T09:11:07Z</time>
      </trkpt>
      <trkpt lat="45.41871" lon="4.62815">
        <ele>814.3682</ele>
        <time>2021-07-19T09:11:08Z</time>
      </trkpt>
      <trkpt lat="45.41871" lon="4.62811">
        <ele>814.61127</ele>
        <time>2021-07-19T09:11:09Z</time>
      </trkpt>
      <trkpt lat="45.4187" lon="4.62807">
        <ele>814.791</ele>
        <time>2021-07-19T09:11:10Z</time>
      </trkpt>
      <trkpt lat="45.4187" lon="4.62803">
        <ele>815.0658</ele>
        <time>2021-07-19T09:11:11Z</time>
      </trkpt>
      <trkpt lat="45.41871" lon="4.62799">
        <ele>815.21375</ele>
        <time>2021-07-19T09:11:12Z</time>
      </trkpt>
      <trkpt lat="45.41871" lon="4.62795">
        <ele>815.32996</ele>
        <time>2021-07-19T09:11:13Z</time>
      </trkpt>
      <trkpt lat="45.41871" lon="4.62791">
        <ele>815.6471</ele>
        <time>2021-07-19T09:11:14Z</time>
      </trkpt>
      <trkpt lat="45.41871" lon="4.62788">
        <ele>815.8426</ele>
        <time>2021-07-19T09:11:15Z</time>
      </trkpt>
      <trkpt lat="45.4187" lon="4.62785">
        <ele>816.0434</ele>
        <time>2021-07-19T09:11:16Z</time>
      </trkpt>
      <trkpt lat="45.41869" lon="4.62782">
        <ele>816.2865</ele>
        <time>2021-07-19T09:11:17Z</time>
      </trkpt>
      <trkpt lat="45.41869" lon="4.62778">
        <ele>816.5455</ele>
        <time>2021-07-19T09:11:18Z</time>
      </trkpt>
      <trkpt lat="45.41868" lon="4.62774">
        <ele>816.6776</ele>
        <time>2021-07-19T09:11:19Z</time>
      </trkpt>
      <trkpt lat="45.41868" lon="4.6277">
        <ele>816.8467</ele>
        <time>2021-07-19T09:11:20Z</time>
      </trkpt>
      <trkpt lat="45.41867" lon="4.62766">
        <ele>817.0316</ele>
        <time>2021-07-19T09:11:21Z</time>
      </trkpt>
      <trkpt lat="45.41867" lon="4.62762">
        <ele>817.2589</ele>
        <time>2021-07-19T09:11:22Z</time>
      </trkpt>
      <trkpt lat="45.41867" lon="4.62759">
        <ele>817.5337</ele>
        <time>2021-07-19T09:11:23Z</time>
      </trkpt>
      <trkpt lat="45.41867" lon="4.62755">
        <ele>817.7979</ele>
        <time>2021-07-19T09:11:24Z</time>
      </trkpt>
      <trkpt lat="45.41866" lon="4.62751">
        <ele>817.93536</ele>
        <time>2021-07-19T09:11:25Z</time>
      </trkpt>
      <trkpt lat="45.41866" lon="4.62748">
        <ele>818.12555</ele>
        <time>2021-07-19T09:11:26Z</time>
      </trkpt>
      <trkpt lat="45.41865" lon="4.62745">
        <ele>818.337</ele>
        <time>2021-07-19T09:11:27Z</time>
      </trkpt>
      <trkpt lat="45.41864" lon="4.62742">
        <ele>818.58</ele>
        <time>2021-07-19T09:11:28Z</time>
      </trkpt>
      <trkpt lat="45.41864" lon="4.62739">
        <ele>818.81256</ele>
        <time>2021-07-19T09:11:29Z</time>
      </trkpt>
      <trkpt lat="45.41863" lon="4.62736">
        <ele>818.9711</ele>
        <time>2021-07-19T09:11:30Z</time>
      </trkpt>
      <trkpt lat="45.41862" lon="4.62731">
        <ele>819.18256</ele>
        <time>2021-07-19T09:11:31Z</time>
      </trkpt>
      <trkpt lat="45.41861" lon="4.62727">
        <ele>819.31995</ele>
        <time>2021-07-19T09:11:32Z</time>
      </trkpt>
      <trkpt lat="45.41861" lon="4.62723">
        <ele>819.60004</ele>
        <time>2021-07-19T09:11:33Z</time>
      </trkpt>
      <trkpt lat="45.4186" lon="4.6272">
        <ele>819.75854</ele>
        <time>2021-07-19T09:11:34Z</time>
      </trkpt>
      <trkpt lat="45.41859" lon="4.62716">
        <ele>819.92236</ele>
        <time>2021-07-19T09:11:35Z</time>
      </trkpt>
      <trkpt lat="45.41858" lon="4.62711">
        <ele>820.0545</ele>
        <time>2021-07-19T09:11:36Z</time>
      </trkpt>
      <trkpt lat="45.41858" lon="4.62707">
        <ele>820.19714</ele>
        <time>2021-07-19T09:11:37Z</time>
      </trkpt>
      <trkpt lat="45.41857" lon="4.62704">
        <ele>820.3821</ele>
        <time>2021-07-19T09:11:38Z</time>
      </trkpt>
      <trkpt lat="45.41857" lon="4.627">
        <ele>820.6833</ele>
        <time>2021-07-19T09:11:39Z</time>
      </trkpt>
      <trkpt lat="45.41857" lon="4.62697">
        <ele>820.9159</ele>
        <time>2021-07-19T09:11:40Z</time>
      </trkpt>
      <trkpt lat="45.41857" lon="4.62693">
        <ele>821.1959</ele>
        <time>2021-07-19T09:11:41Z</time>
      </trkpt>
      <trkpt lat="45.41856" lon="4.6269">
        <ele>821.30695</ele>
        <time>2021-07-19T09:11:42Z</time>
      </trkpt>
      <trkpt lat="45.41856" lon="4.62687">
        <ele>821.5817</ele>
        <time>2021-07-19T09:11:43Z</time>
      </trkpt>
      <trkpt lat="45.41855" lon="4.62685">
        <ele>821.85126</ele>
        <time>2021-07-19T09:11:44Z</time>
      </trkpt>
      <trkpt lat="45.41855" lon="4.62682">
        <ele>822.03094</ele>
        <time>2021-07-19T09:11:45Z</time>
      </trkpt>
      <trkpt lat="45.41854" lon="4.6268">
        <ele>822.3216</ele>
        <time>2021-07-19T09:11:46Z</time>
      </trkpt>
      <trkpt lat="45.41853" lon="4.62677">
        <ele>822.5012</ele>
        <time>2021-07-19T09:11:47Z</time>
      </trkpt>
      <trkpt lat="45.41854" lon="4.62674">
        <ele>822.7655</ele>
        <time>2021-07-19T09:11:48Z</time>
      </trkpt>
      <trkpt lat="45.41854" lon="4.62671">
        <ele>822.887</ele>
        <time>2021-07-19T09:11:49Z</time>
      </trkpt>
      <trkpt lat="45.41854" lon="4.62667">
        <ele>823.1513</ele>
        <time>2021-07-19T09:11:50Z</time>
      </trkpt>
      <trkpt lat="45.41853" lon="4.62664">
        <ele>823.4631</ele>
        <time>2021-07-19T09:11:51Z</time>
      </trkpt>
      <trkpt lat="45.41853" lon="4.6266">
        <ele>823.77484</ele>
        <time>2021-07-19T09:11:52Z</time>
      </trkpt>
      <trkpt lat="45.41852" lon="4.62656">
        <ele>823.9439</ele>
        <time>2021-07-19T09:11:53Z</time>
      </trkpt>
      <trkpt lat="45.41851" lon="4.62651">
        <ele>824.30334</ele>
        <time>2021-07-19T09:11:54Z</time>
      </trkpt>
      <trkpt lat="45.4185" lon="4.62646">
        <ele>824.4777</ele>
        <time>2021-07-19T09:11:55Z</time>
      </trkpt>
      <trkpt lat="45.4185" lon="4.62641">
        <ele>824.7155</ele>
        <time>2021-07-19T09:11:56Z</time>
      </trkpt>
      <trkpt lat="45.41849" lon="4.62637">
        <ele>824.93225</ele>
        <time>2021-07-19T09:11:57Z</time>
      </trkpt>
      <trkpt lat="45.41848" lon="4.62632">
        <ele>825.12244</ele>
        <time>2021-07-19T09:11:58Z</time>
      </trkpt>
      <trkpt lat="45.41847" lon="4.62625">
        <ele>825.28625</ele>
        <time>2021-07-19T09:11:59Z</time>
      </trkpt>
      <trkpt lat="45.41847" lon="4.62621">
        <ele>825.51355</ele>
        <time>2021-07-19T09:12:00Z</time>
      </trkpt>
      <trkpt lat="45.41847" lon="4.62617">
        <ele>825.79364</ele>
        <time>2021-07-19T09:12:01Z</time>
      </trkpt>
      <trkpt lat="45.41847" lon="4.62613">
        <ele>825.9997</ele>
        <time>2021-07-19T09:12:02Z</time>
      </trkpt>
      <trkpt lat="45.41847" lon="4.62608">
        <ele>826.23224</ele>
        <time>2021-07-19T09:12:03Z</time>
      </trkpt>
      <trkpt lat="45.41846" lon="4.62603">
        <ele>826.47</ele>
        <time>2021-07-19T09:12:04Z</time>
      </trkpt>
      <trkpt lat="45.41844" lon="4.62599">
        <ele>826.6127</ele>
        <time>2021-07-19T09:12:05Z</time>
      </trkpt>
      <trkpt lat="45.41843" lon="4.62593">
        <ele>826.9985</ele>
        <time>2021-07-19T09:12:06Z</time>
      </trkpt>
      <trkpt lat="45.41843" lon="4.62588">
        <ele>827.1834</ele>
        <time>2021-07-19T09:12:07Z</time>
      </trkpt>
      <trkpt lat="45.41842" lon="4.62584">
        <ele>827.3526</ele>
        <time>2021-07-19T09:12:08Z</time>
      </trkpt>
      <trkpt lat="45.41843" lon="4.62579">
        <ele>827.70135</ele>
        <time>2021-07-19T09:12:09Z</time>
      </trkpt>
      <trkpt lat="45.41843" lon="4.62575">
        <ele>827.97614</ele>
        <time>2021-07-19T09:12:10Z</time>
      </trkpt>
      <trkpt lat="45.41843" lon="4.62571">
        <ele>828.24567</ele>
        <time>2021-07-19T09:12:11Z</time>
      </trkpt>
      <trkpt lat="45.41843" lon="4.62568">
        <ele>828.531</ele>
        <time>2021-07-19T09:12:12Z</time>
      </trkpt>
      <trkpt lat="45.41844" lon="4.62565">
        <ele>828.901</ele>
        <time>2021-07-19T09:12:13Z</time>
      </trkpt>
      <trkpt lat="45.41845" lon="4.62562">
        <ele>829.0331</ele>
        <time>2021-07-19T09:12:14Z</time>
      </trkpt>
      <trkpt lat="45.41846" lon="4.62559">
        <ele>829.26556</ele>
        <time>2021-07-19T09:12:15Z</time>
      </trkpt>
      <trkpt lat="45.41848" lon="4.62557">
        <ele>829.63025</ele>
        <time>2021-07-19T09:12:16Z</time>
      </trkpt>
      <trkpt lat="45.4185" lon="4.62554">
        <ele>829.8152</ele>
        <time>2021-07-19T09:12:17Z</time>
      </trkpt>
      <trkpt lat="45.41852" lon="4.62551">
        <ele>829.98956</ele>
        <time>2021-07-19T09:12:18Z</time>
      </trkpt>
      <trkpt lat="45.41853" lon="4.62548">
        <ele>830.2274</ele>
        <time>2021-07-19T09:12:19Z</time>
      </trkpt>
      <trkpt lat="45.41854" lon="4.62546">
        <ele>830.4176</ele>
        <time>2021-07-19T09:12:20Z</time>
      </trkpt>
      <trkpt lat="45.41855" lon="4.62542">
        <ele>830.5339</ele>
        <time>2021-07-19T09:12:21Z</time>
      </trkpt>
      <trkpt lat="45.41856" lon="4.6254">
        <ele>830.8087</ele>
        <time>2021-07-19T09:12:22Z</time>
      </trkpt>
      <trkpt lat="45.41858" lon="4.62538">
        <ele>830.9831</ele>
        <time>2021-07-19T09:12:23Z</time>
      </trkpt>
      <trkpt lat="45.41859" lon="4.62536">
        <ele>831.0888</ele>
        <time>2021-07-19T09:12:24Z</time>
      </trkpt>
      <trkpt lat="45.41862" lon="4.62534">
        <ele>831.3477</ele>
        <time>2021-07-19T09:12:25Z</time>
      </trkpt>
      <trkpt lat="45.41863" lon="4.62532">
        <ele>831.61725</ele>
        <time>2021-07-19T09:12:26Z</time>
      </trkpt>
      <trkpt lat="45.41865" lon="4.6253">
        <ele>831.7335</ele>
        <time>2021-07-19T09:12:27Z</time>
      </trkpt>
      <trkpt lat="45.41867" lon="4.62529">
        <ele>831.9343</ele>
        <time>2021-07-19T09:12:28Z</time>
      </trkpt>
      <trkpt lat="45.41869" lon="4.62527">
        <ele>832.25665</ele>
        <time>2021-07-19T09:12:29Z</time>
      </trkpt>
      <trkpt lat="45.41871" lon="4.62527">
        <ele>832.4681</ele>
        <time>2021-07-19T09:12:30Z</time>
      </trkpt>
      <trkpt lat="45.41872" lon="4.62525">
        <ele>832.72174</ele>
        <time>2021-07-19T09:12:31Z</time>
      </trkpt>
      <trkpt lat="45.41874" lon="4.62524">
        <ele>832.92786</ele>
        <time>2021-07-19T09:12:32Z</time>
      </trkpt>
      <trkpt lat="45.41876" lon="4.62523">
        <ele>833.2185</ele>
        <time>2021-07-19T09:12:33Z</time>
      </trkpt>
      <trkpt lat="45.41877" lon="4.62521">
        <ele>833.4616</ele>
        <time>2021-07-19T09:12:34Z</time>
      </trkpt>
      <trkpt lat="45.41878" lon="4.62519">
        <ele>833.64124</ele>
        <time>2021-07-19T09:12:35Z</time>
      </trkpt>
      <trkpt lat="45.41879" lon="4.62518">
        <ele>833.88965</ele>
        <time>2021-07-19T09:12:36Z</time>
      </trkpt>
      <trkpt lat="45.4188" lon="4.62517">
        <ele>834.1275</ele>
        <time>2021-07-19T09:12:37Z</time>
      </trkpt>
      <trkpt lat="45.41881" lon="4.62515">
        <ele>834.37585</ele>
        <time>2021-07-19T09:12:38Z</time>
      </trkpt>
      <trkpt lat="45.41882" lon="4.62514">
        <ele>834.5661</ele>
        <time>2021-07-19T09:12:39Z</time>
      </trkpt>
      <trkpt lat="45.41882" lon="4.62512">
        <ele>834.77216</ele>
        <time>2021-07-19T09:12:40Z</time>
      </trkpt>
      <trkpt lat="45.41884" lon="4.62512">
        <ele>835.0681</ele>
        <time>2021-07-19T09:12:41Z</time>
      </trkpt>
      <trkpt lat="45.41886" lon="4.62512">
        <ele>835.3112</ele>
        <time>2021-07-19T09:12:42Z</time>
      </trkpt>
      <trkpt lat="45.4189" lon="4.62511">
        <ele>835.4116</ele>
        <time>2021-07-19T09:12:43Z</time>
      </trkpt>
      <trkpt lat="45.41894" lon="4.62509">
        <ele>835.7128</ele>
        <time>2021-07-19T09:12:44Z</time>
      </trkpt>
      <trkpt lat="45.41897" lon="4.6251">
        <ele>835.9877</ele>
        <time>2021-07-19T09:12:45Z</time>
      </trkpt>
      <trkpt lat="45.419" lon="4.6251">
        <ele>836.24133</ele>
        <time>2021-07-19T09:12:46Z</time>
      </trkpt>
      <trkpt lat="45.41903" lon="4.62511">
        <ele>836.4474</ele>
        <time>2021-07-19T09:12:47Z</time>
      </trkpt>
      <trkpt lat="45.41905" lon="4.62512">
        <ele>836.74335</ele>
        <time>2021-07-19T09:12:48Z</time>
      </trkpt>
      <trkpt lat="45.41907" lon="4.62512">
        <ele>836.9706</ele>
        <time>2021-07-19T09:12:49Z</time>
      </trkpt>
      <trkpt lat="45.41909" lon="4.62513">
        <ele>837.2031</ele>
        <time>2021-07-19T09:12:50Z</time>
      </trkpt>
      <trkpt lat="45.41911" lon="4.62514">
        <ele>837.53076</ele>
        <time>2021-07-19T09:12:51Z</time>
      </trkpt>
      <trkpt lat="45.41913" lon="4.62514">
        <ele>837.73157</ele>
        <time>2021-07-19T09:12:52Z</time>
      </trkpt>
      <trkpt lat="45.41915" lon="4.62514">
        <ele>837.87427</ele>
        <time>2021-07-19T09:12:53Z</time>
      </trkpt>
      <trkpt lat="45.41916" lon="4.62513">
        <ele>838.2178</ele>
        <time>2021-07-19T09:12:54Z</time>
      </trkpt>
      <trkpt lat="45.41918" lon="4.62513">
        <ele>838.43445</ele>
        <time>2021-07-19T09:12:55Z</time>
      </trkpt>
      <trkpt lat="45.4192" lon="4.62513">
        <ele>838.6247</ele>
        <time>2021-07-19T09:12:56Z</time>
      </trkpt>
      <trkpt lat="45.41921" lon="4.62513">
        <ele>838.76215</ele>
        <time>2021-07-19T09:12:57Z</time>
      </trkpt>
      <trkpt lat="45.41922" lon="4.62513">
        <ele>838.89954</ele>
        <time>2021-07-19T09:12:58Z</time>
      </trkpt>
      <trkpt lat="45.41924" lon="4.62515">
        <ele>839.1902</ele>
        <time>2021-07-19T09:12:59Z</time>
      </trkpt>
      <trkpt lat="45.41927" lon="4.62517">
        <ele>839.3804</ele>
        <time>2021-07-19T09:13:00Z</time>
      </trkpt>
      <trkpt lat="45.4193" lon="4.62519">
        <ele>839.56006</ele>
        <time>2021-07-19T09:13:01Z</time>
      </trkpt>
      <trkpt lat="45.41933" lon="4.62521">
        <ele>839.7345</ele>
        <time>2021-07-19T09:13:02Z</time>
      </trkpt>
      <trkpt lat="45.41935" lon="4.62523">
        <ele>839.893</ele>
        <time>2021-07-19T09:13:03Z</time>
      </trkpt>
      <trkpt lat="45.41937" lon="4.62525">
        <ele>840.0938</ele>
        <time>2021-07-19T09:13:04Z</time>
      </trkpt>
      <trkpt lat="45.4194" lon="4.62528">
        <ele>840.432</ele>
        <time>2021-07-19T09:13:05Z</time>
      </trkpt>
      <trkpt lat="45.41942" lon="4.62529">
        <ele>840.50604</ele>
        <time>2021-07-19T09:13:06Z</time>
      </trkpt>
      <trkpt lat="45.41943" lon="4.62531">
        <ele>840.74384</ele>
        <time>2021-07-19T09:13:07Z</time>
      </trkpt>
      <trkpt lat="45.41946" lon="4.62532">
        <ele>841.0609</ele>
        <time>2021-07-19T09:13:08Z</time>
      </trkpt>
      <trkpt lat="45.4195" lon="4.62534">
        <ele>841.49426</ele>
        <time>2021-07-19T09:13:09Z</time>
      </trkpt>
      <trkpt lat="45.41952" lon="4.62535">
        <ele>841.40967</ele>
        <time>2021-07-19T09:13:10Z</time>
      </trkpt>
      <trkpt lat="45.41956" lon="4.62537">
        <ele>841.3991</ele>
        <time>2021-07-19T09:13:11Z</time>
      </trkpt>
      <trkpt lat="45.4196" lon="4.62538">
        <ele>841.61053</ele>
        <time>2021-07-19T09:13:12Z</time>
      </trkpt>
      <trkpt lat="45.41963" lon="4.62538">
        <ele>841.9276</ele>
        <time>2021-07-19T09:13:13Z</time>
      </trkpt>
      <trkpt lat="45.41966" lon="4.62539">
        <ele>842.028</ele>
        <time>2021-07-19T09:13:14Z</time>
      </trkpt>
      <trkpt lat="45.41967" lon="4.62539">
        <ele>842.2235</ele>
        <time>2021-07-19T09:13:15Z</time>
      </trkpt>
      <trkpt lat="45.4197" lon="4.62538">
        <ele>842.53</ele>
        <time>2021-07-19T09:13:16Z</time>
      </trkpt>
      <trkpt lat="45.41972" lon="4.62537">
        <ele>842.87885</ele>
        <time>2021-07-19T09:13:17Z</time>
      </trkpt>
      <trkpt lat="45.41976" lon="4.62536">
        <ele>843.1114</ele>
        <time>2021-07-19T09:13:18Z</time>
      </trkpt>
      <trkpt lat="45.41979" lon="4.62536">
        <ele>843.2752</ele>
        <time>2021-07-19T09:13:19Z</time>
      </trkpt>
      <trkpt lat="45.41981" lon="4.62534">
        <ele>843.4918</ele>
        <time>2021-07-19T09:13:20Z</time>
      </trkpt>
      <trkpt lat="45.41985" lon="4.62532">
        <ele>843.7349</ele>
        <time>2021-07-19T09:13:21Z</time>
      </trkpt>
      <trkpt lat="45.41989" lon="4.62528">
        <ele>843.86176</ele>
        <time>2021-07-19T09:13:22Z</time>
      </trkpt>
      <trkpt lat="45.41992" lon="4.62526">
        <ele>844.09424</ele>
        <time>2021-07-19T09:13:23Z</time>
      </trkpt>
      <trkpt lat="45.41997" lon="4.62519">
        <ele>844.3004</ele>
        <time>2021-07-19T09:13:24Z</time>
      </trkpt>
      <trkpt lat="45.42" lon="4.62513">
        <ele>844.5382</ele>
        <time>2021-07-19T09:13:25Z</time>
      </trkpt>
      <trkpt lat="45.42003" lon="4.62507">
        <ele>844.69147</ele>
        <time>2021-07-19T09:13:26Z</time>
      </trkpt>
      <trkpt lat="45.42005" lon="4.62502">
        <ele>844.88696</ele>
        <time>2021-07-19T09:13:27Z</time>
      </trkpt>
      <trkpt lat="45.42007" lon="4.62498">
        <ele>845.0772</ele>
        <time>2021-07-19T09:13:28Z</time>
      </trkpt>
      <trkpt lat="45.42011" lon="4.62492">
        <ele>845.2411</ele>
        <time>2021-07-19T09:13:29Z</time>
      </trkpt>
      <trkpt lat="45.42013" lon="4.62486">
        <ele>845.55817</ele>
        <time>2021-07-19T09:13:30Z</time>
      </trkpt>
      <trkpt lat="45.42015" lon="4.62483">
        <ele>845.74835</ele>
        <time>2021-07-19T09:13:31Z</time>
      </trkpt>
      <trkpt lat="45.42017" lon="4.6248">
        <ele>845.9809</ele>
        <time>2021-07-19T09:13:32Z</time>
      </trkpt>
      <trkpt lat="45.42019" lon="4.62476">
        <ele>845.89105</ele>
        <time>2021-07-19T09:13:33Z</time>
      </trkpt>
      <trkpt lat="45.42022" lon="4.62472">
        <ele>845.8224</ele>
        <time>2021-07-19T09:13:34Z</time>
      </trkpt>
      <trkpt lat="45.42024" lon="4.6247">
        <ele>846.21875</ele>
        <time>2021-07-19T09:13:35Z</time>
      </trkpt>
      <trkpt lat="45.42026" lon="4.62468">
        <ele>846.874</ele>
        <time>2021-07-19T09:13:36Z</time>
      </trkpt>
      <trkpt lat="45.42028" lon="4.62464">
        <ele>847.00085</ele>
        <time>2021-07-19T09:13:37Z</time>
      </trkpt>
      <trkpt lat="45.4203" lon="4.62461">
        <ele>847.29675</ele>
        <time>2021-07-19T09:13:38Z</time>
      </trkpt>
      <trkpt lat="45.42032" lon="4.62459">
        <ele>847.5716</ele>
        <time>2021-07-19T09:13:39Z</time>
      </trkpt>
      <trkpt lat="45.42034" lon="4.62456">
        <ele>847.78827</ele>
        <time>2021-07-19T09:13:40Z</time>
      </trkpt>
      <trkpt lat="45.42036" lon="4.62453">
        <ele>848.06836</ele>
        <time>2021-07-19T09:13:41Z</time>
      </trkpt>
      <trkpt lat="45.42038" lon="4.6245">
        <ele>848.3167</ele>
        <time>2021-07-19T09:13:42Z</time>
      </trkpt>
      <trkpt lat="45.4204" lon="4.62447">
        <ele>848.58093</ele>
        <time>2021-07-19T09:13:43Z</time>
      </trkpt>
      <trkpt lat="45.42042" lon="4.62444">
        <ele>848.8399</ele>
        <time>2021-07-19T09:13:44Z</time>
      </trkpt>
      <trkpt lat="45.42044" lon="4.62441">
        <ele>849.2521</ele>
        <time>2021-07-19T09:13:45Z</time>
      </trkpt>
      <trkpt lat="45.42046" lon="4.62437">
        <ele>849.2996</ele>
        <time>2021-07-19T09:13:46Z</time>
      </trkpt>
      <trkpt lat="45.42048" lon="4.62433">
        <ele>849.4635</ele>
        <time>2021-07-19T09:13:47Z</time>
      </trkpt>
      <trkpt lat="45.42051" lon="4.6243">
        <ele>849.79114</ele>
        <time>2021-07-19T09:13:48Z</time>
      </trkpt>
      <trkpt lat="45.42054" lon="4.62426">
        <ele>850.09766</ele>
        <time>2021-07-19T09:13:49Z</time>
      </trkpt>
      <trkpt lat="45.42056" lon="4.62423">
        <ele>850.4623</ele>
        <time>2021-07-19T09:13:50Z</time>
      </trkpt>
      <trkpt lat="45.42058" lon="4.6242">
        <ele>850.57324</ele>
        <time>2021-07-19T09:13:51Z</time>
      </trkpt>
      <trkpt lat="45.42061" lon="4.62417">
        <ele>850.7424</ele>
        <time>2021-07-19T09:13:52Z</time>
      </trkpt>
      <trkpt lat="45.42062" lon="4.62414">
        <ele>850.8586</ele>
        <time>2021-07-19T09:13:53Z</time>
      </trkpt>
      <trkpt lat="45.42065" lon="4.62412">
        <ele>851.1493</ele>
        <time>2021-07-19T09:13:54Z</time>
      </trkpt>
      <trkpt lat="45.42067" lon="4.62409">
        <ele>851.5456</ele>
        <time>2021-07-19T09:13:55Z</time>
      </trkpt>
      <trkpt lat="45.42069" lon="4.62406">
        <ele>851.8733</ele>
        <time>2021-07-19T09:13:56Z</time>
      </trkpt>
      <trkpt lat="45.4207" lon="4.62405">
        <ele>851.97363</ele>
        <time>2021-07-19T09:13:57Z</time>
      </trkpt>
      <trkpt lat="45.42071" lon="4.62402">
        <ele>852.0741</ele>
        <time>2021-07-19T09:13:58Z</time>
      </trkpt>
      <trkpt lat="45.42074" lon="4.624">
        <ele>852.20624</ele>
        <time>2021-07-19T09:13:59Z</time>
      </trkpt>
      <trkpt lat="45.42076" lon="4.62398">
        <ele>852.4599</ele>
        <time>2021-07-19T09:14:00Z</time>
      </trkpt>
      <trkpt lat="45.42078" lon="4.62396">
        <ele>852.72943</ele>
        <time>2021-07-19T09:14:01Z</time>
      </trkpt>
      <trkpt lat="45.4208" lon="4.62393">
        <ele>853.0042</ele>
        <time>2021-07-19T09:14:02Z</time>
      </trkpt>
      <trkpt lat="45.42082" lon="4.62392">
        <ele>853.3002</ele>
        <time>2021-07-19T09:14:03Z</time>
      </trkpt>
      <trkpt lat="45.42084" lon="4.62389">
        <ele>853.4428</ele>
        <time>2021-07-19T09:14:04Z</time>
      </trkpt>
      <trkpt lat="45.42087" lon="4.62387">
        <ele>853.67004</ele>
        <time>2021-07-19T09:14:05Z</time>
      </trkpt>
      <trkpt lat="45.42089" lon="4.62384">
        <ele>853.7652</ele>
        <time>2021-07-19T09:14:06Z</time>
      </trkpt>
      <trkpt lat="45.4209" lon="4.62382">
        <ele>853.9819</ele>
        <time>2021-07-19T09:14:07Z</time>
      </trkpt>
      <trkpt lat="45.42092" lon="4.62381">
        <ele>854.31476</ele>
        <time>2021-07-19T09:14:08Z</time>
      </trkpt>
      <trkpt lat="45.42094" lon="4.62378">
        <ele>854.4311</ele>
        <time>2021-07-19T09:14:09Z</time>
      </trkpt>
      <trkpt lat="45.42096" lon="4.62376">
        <ele>854.63184</ele>
        <time>2021-07-19T09:14:10Z</time>
      </trkpt>
      <trkpt lat="45.42098" lon="4.62374">
        <ele>854.79565</ele>
        <time>2021-07-19T09:14:11Z</time>
      </trkpt>
      <trkpt lat="45.42099" lon="4.62372">
        <ele>855.0969</ele>
        <time>2021-07-19T09:14:12Z</time>
      </trkpt>
      <trkpt lat="45.42101" lon="4.6237">
        <ele>855.28186</ele>
        <time>2021-07-19T09:14:13Z</time>
      </trkpt>
      <trkpt lat="45.42103" lon="4.62367">
        <ele>855.4404</ele>
        <time>2021-07-19T09:14:14Z</time>
      </trkpt>
      <trkpt lat="45.42106" lon="4.62364">
        <ele>855.5778</ele>
        <time>2021-07-19T09:14:15Z</time>
      </trkpt>
      <trkpt lat="45.42107" lon="4.6236">
        <ele>855.8315</ele>
        <time>2021-07-19T09:14:16Z</time>
      </trkpt>
      <trkpt lat="45.42109" lon="4.62358">
        <ele>855.9742</ele>
        <time>2021-07-19T09:14:17Z</time>
      </trkpt>
      <trkpt lat="45.42112" lon="4.62354">
        <ele>856.2173</ele>
        <time>2021-07-19T09:14:18Z</time>
      </trkpt>
      <trkpt lat="45.42114" lon="4.62352">
        <ele>856.3864</ele>
        <time>2021-07-19T09:14:19Z</time>
      </trkpt>
      <trkpt lat="45.42116" lon="4.62349">
        <ele>856.51324</ele>
        <time>2021-07-19T09:14:20Z</time>
      </trkpt>
      <trkpt lat="45.42118" lon="4.62348">
        <ele>856.7193</ele>
        <time>2021-07-19T09:14:21Z</time>
      </trkpt>
      <trkpt lat="45.4212" lon="4.62346">
        <ele>856.9994</ele>
        <time>2021-07-19T09:14:22Z</time>
      </trkpt>
      <trkpt lat="45.42122" lon="4.62343">
        <ele>857.2689</ele>
        <time>2021-07-19T09:14:23Z</time>
      </trkpt>
      <trkpt lat="45.42124" lon="4.6234">
        <ele>857.475</ele>
        <time>2021-07-19T09:14:24Z</time>
      </trkpt>
      <trkpt lat="45.42125" lon="4.62338">
        <ele>857.7128</ele>
        <time>2021-07-19T09:14:25Z</time>
      </trkpt>
      <trkpt lat="45.42127" lon="4.62336">
        <ele>857.8872</ele>
        <time>2021-07-19T09:14:26Z</time>
      </trkpt>
      <trkpt lat="45.42128" lon="4.62333">
        <ele>858.2096</ele>
        <time>2021-07-19T09:14:27Z</time>
      </trkpt>
      <trkpt lat="45.4213" lon="4.6233">
        <ele>858.52136</ele>
        <time>2021-07-19T09:14:28Z</time>
      </trkpt>
      <trkpt lat="45.42131" lon="4.62326">
        <ele>858.63763</ele>
        <time>2021-07-19T09:14:29Z</time>
      </trkpt>
      <trkpt lat="45.42134" lon="4.62322">
        <ele>858.90717</ele>
        <time>2021-07-19T09:14:30Z</time>
      </trkpt>
      <trkpt lat="45.42136" lon="4.62318">
        <ele>859.21893</ele>
        <time>2021-07-19T09:14:31Z</time>
      </trkpt>
      <trkpt lat="45.42138" lon="4.62314">
        <ele>859.48846</ele>
        <time>2021-07-19T09:14:32Z</time>
      </trkpt>
      <trkpt lat="45.4214" lon="4.62312">
        <ele>859.7368</ele>
        <time>2021-07-19T09:14:33Z</time>
      </trkpt>
      <trkpt lat="45.42141" lon="4.62309">
        <ele>859.91125</ele>
        <time>2021-07-19T09:14:34Z</time>
      </trkpt>
      <trkpt lat="45.42143" lon="4.62306">
        <ele>860.08563</ele>
        <time>2021-07-19T09:14:35Z</time>
      </trkpt>
      <trkpt lat="45.42144" lon="4.62304">
        <ele>860.35516</ele>
        <time>2021-07-19T09:14:36Z</time>
      </trkpt>
      <trkpt lat="45.42147" lon="4.62301">
        <ele>860.7145</ele>
        <time>2021-07-19T09:14:37Z</time>
      </trkpt>
      <trkpt lat="45.42148" lon="4.62299">
        <ele>860.96814</ele>
        <time>2021-07-19T09:14:38Z</time>
      </trkpt>
      <trkpt lat="45.4215" lon="4.62297">
        <ele>861.14777</ele>
        <time>2021-07-19T09:14:39Z</time>
      </trkpt>
      <trkpt lat="45.42152" lon="4.62295">
        <ele>861.23236</ele>
        <time>2021-07-19T09:14:40Z</time>
      </trkpt>
      <trkpt lat="45.42154" lon="4.62292">
        <ele>861.6023</ele>
        <time>2021-07-19T09:14:41Z</time>
      </trkpt>
      <trkpt lat="45.42157" lon="4.62288">
        <ele>861.9828</ele>
        <time>2021-07-19T09:14:42Z</time>
      </trkpt>
      <trkpt lat="45.42159" lon="4.62284">
        <ele>862.27344</ele>
        <time>2021-07-19T09:14:43Z</time>
      </trkpt>
      <trkpt lat="45.42161" lon="4.62281">
        <ele>862.4479</ele>
        <time>2021-07-19T09:14:44Z</time>
      </trkpt>
      <trkpt lat="45.42162" lon="4.62278">
        <ele>862.48486</ele>
        <time>2021-07-19T09:14:45Z</time>
      </trkpt>
      <trkpt lat="45.42165" lon="4.62273">
        <ele>862.81775</ele>
        <time>2021-07-19T09:14:46Z</time>
      </trkpt>
      <trkpt lat="45.42167" lon="4.62269">
        <ele>862.8918</ele>
        <time>2021-07-19T09:14:47Z</time>
      </trkpt>
      <trkpt lat="45.42169" lon="4.62266">
        <ele>863.0714</ele>
        <time>2021-07-19T09:14:48Z</time>
      </trkpt>
      <trkpt lat="45.42171" lon="4.62263">
        <ele>863.4678</ele>
        <time>2021-07-19T09:14:49Z</time>
      </trkpt>
      <trkpt lat="45.42172" lon="4.62261">
        <ele>863.74786</ele>
        <time>2021-07-19T09:14:50Z</time>
      </trkpt>
      <trkpt lat="45.42174" lon="4.62256">
        <ele>863.8958</ele>
        <time>2021-07-19T09:14:51Z</time>
      </trkpt>
      <trkpt lat="45.42176" lon="4.62252">
        <ele>864.1178</ele>
        <time>2021-07-19T09:14:52Z</time>
      </trkpt>
      <trkpt lat="45.42178" lon="4.6225">
        <ele>864.27637</ele>
        <time>2021-07-19T09:14:53Z</time>
      </trkpt>
      <trkpt lat="45.4218" lon="4.62248">
        <ele>864.4243</ele>
        <time>2021-07-19T09:14:54Z</time>
      </trkpt>
      <trkpt lat="45.42182" lon="4.62246">
        <ele>864.8788</ele>
        <time>2021-07-19T09:14:55Z</time>
      </trkpt>
      <trkpt lat="45.42184" lon="4.62245">
        <ele>864.9369</ele>
        <time>2021-07-19T09:14:56Z</time>
      </trkpt>
      <trkpt lat="45.42185" lon="4.62243">
        <ele>865.13776</ele>
        <time>2021-07-19T09:14:57Z</time>
      </trkpt>
      <trkpt lat="45.42187" lon="4.6224">
        <ele>865.291</ele>
        <time>2021-07-19T09:14:58Z</time>
      </trkpt>
      <trkpt lat="45.42188" lon="4.62236">
        <ele>865.58167</ele>
        <time>2021-07-19T09:14:59Z</time>
      </trkpt>
      <trkpt lat="45.4219" lon="4.62232">
        <ele>865.68207</ele>
        <time>2021-07-19T09:15:00Z</time>
      </trkpt>
      <trkpt lat="45.42191" lon="4.62227">
        <ele>865.8089</ele>
        <time>2021-07-19T09:15:01Z</time>
      </trkpt>
      <trkpt lat="45.42193" lon="4.62224">
        <ele>866.3056</ele>
        <time>2021-07-19T09:15:02Z</time>
      </trkpt>
      <trkpt lat="45.42194" lon="4.62221">
        <ele>866.5329</ele>
        <time>2021-07-19T09:15:03Z</time>
      </trkpt>
      <trkpt lat="45.42195" lon="4.62217">
        <ele>866.61743</ele>
        <time>2021-07-19T09:15:04Z</time>
      </trkpt>
      <trkpt lat="45.42197" lon="4.62213">
        <ele>866.6967</ele>
        <time>2021-07-19T09:15:05Z</time>
      </trkpt>
      <trkpt lat="45.42197" lon="4.6221">
        <ele>867.2199</ele>
        <time>2021-07-19T09:15:06Z</time>
      </trkpt>
      <trkpt lat="45.42199" lon="4.62207">
        <ele>867.537</ele>
        <time>2021-07-19T09:15:07Z</time>
      </trkpt>
      <trkpt lat="45.42201" lon="4.62203">
        <ele>867.6268</ele>
        <time>2021-07-19T09:15:08Z</time>
      </trkpt>
      <trkpt lat="45.42204" lon="4.62199">
        <ele>867.8752</ele>
        <time>2021-07-19T09:15:09Z</time>
      </trkpt>
      <trkpt lat="45.42206" lon="4.62194">
        <ele>867.965</ele>
        <time>2021-07-19T09:15:10Z</time>
      </trkpt>
      <trkpt lat="45.42207" lon="4.62191">
        <ele>867.94916</ele>
        <time>2021-07-19T09:15:11Z</time>
      </trkpt>
      <trkpt lat="45.4221" lon="4.62187">
        <ele>868.28735</ele>
        <time>2021-07-19T09:15:12Z</time>
      </trkpt>
      <trkpt lat="45.42212" lon="4.62184">
        <ele>868.4142</ele>
        <time>2021-07-19T09:15:13Z</time>
      </trkpt>
      <trkpt lat="45.42214" lon="4.62181">
        <ele>868.5569</ele>
        <time>2021-07-19T09:15:14Z</time>
      </trkpt>
      <trkpt lat="45.42217" lon="4.62179">
        <ele>868.8581</ele>
        <time>2021-07-19T09:15:15Z</time>
      </trkpt>
      <trkpt lat="45.42219" lon="4.62176">
        <ele>869.0166</ele>
        <time>2021-07-19T09:15:16Z</time>
      </trkpt>
      <trkpt lat="45.42221" lon="4.62173">
        <ele>869.21747</ele>
        <time>2021-07-19T09:15:17Z</time>
      </trkpt>
      <trkpt lat="45.42223" lon="4.6217">
        <ele>869.45526</ele>
        <time>2021-07-19T09:15:18Z</time>
      </trkpt>
      <trkpt lat="45.42224" lon="4.62167">
        <ele>869.67194</ele>
        <time>2021-07-19T09:15:19Z</time>
      </trkpt>
      <trkpt lat="45.42225" lon="4.62165">
        <ele>869.6667</ele>
        <time>2021-07-19T09:15:20Z</time>
      </trkpt>
      <trkpt lat="45.42227" lon="4.62162">
        <ele>869.99426</ele>
        <time>2021-07-19T09:15:21Z</time>
      </trkpt>
      <trkpt lat="45.42227" lon="4.6216">
        <ele>870.2902</ele>
        <time>2021-07-19T09:15:22Z</time>
      </trkpt>
      <trkpt lat="45.42228" lon="4.62158">
        <ele>870.4805</ele>
        <time>2021-07-19T09:15:23Z</time>
      </trkpt>
      <trkpt lat="45.4223" lon="4.62157">
        <ele>870.6919</ele>
        <time>2021-07-19T09:15:24Z</time>
      </trkpt>
      <trkpt lat="45.42232" lon="4.62154">
        <ele>870.97723</ele>
        <time>2021-07-19T09:15:25Z</time>
      </trkpt>
      <trkpt lat="45.42234" lon="4.6215">
        <ele>871.14105</ele>
        <time>2021-07-19T09:15:26Z</time>
      </trkpt>
      <trkpt lat="45.42236" lon="4.62146">
        <ele>871.3736</ele>
        <time>2021-07-19T09:15:27Z</time>
      </trkpt>
      <trkpt lat="45.42237" lon="4.62142">
        <ele>871.80164</ele>
        <time>2021-07-19T09:15:28Z</time>
      </trkpt>
      <trkpt lat="45.42239" lon="4.62139">
        <ele>872.0342</ele>
        <time>2021-07-19T09:15:29Z</time>
      </trkpt>
      <trkpt lat="45.42241" lon="4.62136">
        <ele>872.2403</ele>
        <time>2021-07-19T09:15:30Z</time>
      </trkpt>
      <trkpt lat="45.42243" lon="4.62132">
        <ele>872.3935</ele>
        <time>2021-07-19T09:15:31Z</time>
      </trkpt>
      <trkpt lat="45.42245" lon="4.62129">
        <ele>872.73175</ele>
        <time>2021-07-19T09:15:32Z</time>
      </trkpt>
      <trkpt lat="45.42247" lon="4.62126">
        <ele>872.93787</ele>
        <time>2021-07-19T09:15:33Z</time>
      </trkpt>
      <trkpt lat="45.42249" lon="4.62121">
        <ele>873.17566</ele>
        <time>2021-07-19T09:15:34Z</time>
      </trkpt>
      <trkpt lat="45.42251" lon="4.62117">
        <ele>873.43463</ele>
        <time>2021-07-19T09:15:35Z</time>
      </trkpt>
      <trkpt lat="45.42253" lon="4.62113">
        <ele>873.5879</ele>
        <time>2021-07-19T09:15:36Z</time>
      </trkpt>
      <trkpt lat="45.42255" lon="4.62109">
        <ele>873.7834</ele>
        <time>2021-07-19T09:15:37Z</time>
      </trkpt>
      <trkpt lat="45.42258" lon="4.62104">
        <ele>873.97894</ele>
        <time>2021-07-19T09:15:38Z</time>
      </trkpt>
      <trkpt lat="45.4226" lon="4.621">
        <ele>874.2908</ele>
        <time>2021-07-19T09:15:39Z</time>
      </trkpt>
      <trkpt lat="45.42261" lon="4.62097">
        <ele>874.4651</ele>
        <time>2021-07-19T09:15:40Z</time>
      </trkpt>
      <trkpt lat="45.42262" lon="4.62094">
        <ele>874.72406</ele>
        <time>2021-07-19T09:15:41Z</time>
      </trkpt>
      <trkpt lat="45.42264" lon="4.62091">
        <ele>874.79803</ele>
        <time>2021-07-19T09:15:42Z</time>
      </trkpt>
      <trkpt lat="45.42265" lon="4.62088">
        <ele>874.96716</ele>
        <time>2021-07-19T09:15:43Z</time>
      </trkpt>
      <trkpt lat="45.42267" lon="4.62086">
        <ele>875.2948</ele>
        <time>2021-07-19T09:15:44Z</time>
      </trkpt>
      <trkpt lat="45.42267" lon="4.62084">
        <ele>875.62244</ele>
        <time>2021-07-19T09:15:45Z</time>
      </trkpt>
      <trkpt lat="45.42267" lon="4.62081">
        <ele>875.78094</ele>
        <time>2021-07-19T09:15:46Z</time>
      </trkpt>
      <trkpt lat="45.42268" lon="4.62079">
        <ele>876.18787</ele>
        <time>2021-07-19T09:15:47Z</time>
      </trkpt>
      <trkpt lat="45.42269" lon="4.62077">
        <ele>876.431</ele>
        <time>2021-07-19T09:15:48Z</time>
      </trkpt>
      <trkpt lat="45.4227" lon="4.62074">
        <ele>876.69525</ele>
        <time>2021-07-19T09:15:49Z</time>
      </trkpt>
      <trkpt lat="45.42273" lon="4.62071">
        <ele>877.0018</ele>
        <time>2021-07-19T09:15:50Z</time>
      </trkpt>
      <trkpt lat="45.42275" lon="4.62068">
        <ele>877.1286</ele>
        <time>2021-07-19T09:15:51Z</time>
      </trkpt>
      <trkpt lat="45.42277" lon="4.62066">
        <ele>877.47205</ele>
        <time>2021-07-19T09:15:52Z</time>
      </trkpt>
      <trkpt lat="45.42279" lon="4.62064">
        <ele>877.69403</ele>
        <time>2021-07-19T09:15:53Z</time>
      </trkpt>
      <trkpt lat="45.42281" lon="4.62061">
        <ele>877.99524</ele>
        <time>2021-07-19T09:15:54Z</time>
      </trkpt>
      <trkpt lat="45.42283" lon="4.62058">
        <ele>878.20667</ele>
        <time>2021-07-19T09:15:55Z</time>
      </trkpt>
      <trkpt lat="45.42284" lon="4.62055">
        <ele>878.5026</ele>
        <time>2021-07-19T09:15:56Z</time>
      </trkpt>
      <trkpt lat="45.42286" lon="4.62053">
        <ele>878.70337</ele>
        <time>2021-07-19T09:15:57Z</time>
      </trkpt>
      <trkpt lat="45.42288" lon="4.62051">
        <ele>878.78796</ele>
        <time>2021-07-19T09:15:58Z</time>
      </trkpt>
      <trkpt lat="45.4229" lon="4.62049">
        <ele>878.90955</ele>
        <time>2021-07-19T09:15:59Z</time>
      </trkpt>
      <trkpt lat="45.42292" lon="4.62047">
        <ele>879.07336</ele>
        <time>2021-07-19T09:16:00Z</time>
      </trkpt>
      <trkpt lat="45.42294" lon="4.62046">
        <ele>879.26886</ele>
        <time>2021-07-19T09:16:01Z</time>
      </trkpt>
      <trkpt lat="45.42296" lon="4.62044">
        <ele>879.3376</ele>
        <time>2021-07-19T09:16:02Z</time>
      </trkpt>
      <trkpt lat="45.42298" lon="4.62041">
        <ele>879.681</ele>
        <time>2021-07-19T09:16:03Z</time>
      </trkpt>
      <trkpt lat="45.42299" lon="4.62039">
        <ele>879.89777</ele>
        <time>2021-07-19T09:16:04Z</time>
      </trkpt>
      <trkpt lat="45.42301" lon="4.62037">
        <ele>880.07214</ele>
        <time>2021-07-19T09:16:05Z</time>
      </trkpt>
      <trkpt lat="45.42304" lon="4.62034">
        <ele>880.2571</ele>
        <time>2021-07-19T09:16:06Z</time>
      </trkpt>
      <trkpt lat="45.42306" lon="4.62031">
        <ele>880.49493</ele>
        <time>2021-07-19T09:16:07Z</time>
      </trkpt>
      <trkpt lat="45.42308" lon="4.62028">
        <ele>880.65344</ele>
        <time>2021-07-19T09:16:08Z</time>
      </trkpt>
      <trkpt lat="45.4231" lon="4.62025">
        <ele>880.9441</ele>
        <time>2021-07-19T09:16:09Z</time>
      </trkpt>
      <trkpt lat="45.42312" lon="4.62023">
        <ele>881.1079</ele>
        <time>2021-07-19T09:16:10Z</time>
      </trkpt>
      <trkpt lat="45.42314" lon="4.6202">
        <ele>881.1925</ele>
        <time>2021-07-19T09:16:11Z</time>
      </trkpt>
      <trkpt lat="45.42316" lon="4.62018">
        <ele>881.5095</ele>
        <time>2021-07-19T09:16:12Z</time>
      </trkpt>
      <trkpt lat="45.42317" lon="4.62015">
        <ele>881.69446</ele>
        <time>2021-07-19T09:16:13Z</time>
      </trkpt>
      <trkpt lat="45.42319" lon="4.62013">
        <ele>881.8055</ele>
        <time>2021-07-19T09:16:14Z</time>
      </trkpt>
      <trkpt lat="45.42321" lon="4.62011">
        <ele>881.964</ele>
        <time>2021-07-19T09:16:15Z</time>
      </trkpt>
      <trkpt lat="45.42323" lon="4.62009">
        <ele>882.2864</ele>
        <time>2021-07-19T09:16:16Z</time>
      </trkpt>
      <trkpt lat="45.42325" lon="4.62006">
        <ele>882.5242</ele>
        <time>2021-07-19T09:16:17Z</time>
      </trkpt>
      <trkpt lat="45.42326" lon="4.62004">
        <ele>882.6933</ele>
        <time>2021-07-19T09:16:18Z</time>
      </trkpt>
      <trkpt lat="45.42328" lon="4.62002">
        <ele>882.94165</ele>
        <time>2021-07-19T09:16:19Z</time>
      </trkpt>
      <trkpt lat="45.42329" lon="4.61999">
        <ele>883.19006</ele>
        <time>2021-07-19T09:16:20Z</time>
      </trkpt>
      <trkpt lat="45.42331" lon="4.61996">
        <ele>883.32745</ele>
        <time>2021-07-19T09:16:21Z</time>
      </trkpt>
      <trkpt lat="45.42333" lon="4.61993">
        <ele>883.57587</ele>
        <time>2021-07-19T09:16:22Z</time>
      </trkpt>
      <trkpt lat="45.42334" lon="4.61991">
        <ele>883.7291</ele>
        <time>2021-07-19T09:16:23Z</time>
      </trkpt>
      <trkpt lat="45.42336" lon="4.61988">
        <ele>883.99335</ele>
        <time>2021-07-19T09:16:24Z</time>
      </trkpt>
      <trkpt lat="45.42339" lon="4.61985">
        <ele>884.3368</ele>
        <time>2021-07-19T09:16:25Z</time>
      </trkpt>
      <trkpt lat="45.42342" lon="4.61981">
        <ele>884.3791</ele>
        <time>2021-07-19T09:16:26Z</time>
      </trkpt>
      <trkpt lat="45.42344" lon="4.61977">
        <ele>884.5852</ele>
        <time>2021-07-19T09:16:27Z</time>
      </trkpt>
      <trkpt lat="45.42345" lon="4.61975">
        <ele>884.8283</ele>
        <time>2021-07-19T09:16:28Z</time>
      </trkpt>
      <trkpt lat="45.42347" lon="4.61972">
        <ele>885.0344</ele>
        <time>2021-07-19T09:16:29Z</time>
      </trkpt>
      <trkpt lat="45.42349" lon="4.6197">
        <ele>885.4466</ele>
        <time>2021-07-19T09:16:30Z</time>
      </trkpt>
      <trkpt lat="45.42351" lon="4.61967">
        <ele>885.57874</ele>
        <time>2021-07-19T09:16:31Z</time>
      </trkpt>
      <trkpt lat="45.42353" lon="4.61964">
        <ele>885.82184</ele>
        <time>2021-07-19T09:16:32Z</time>
      </trkpt>
      <trkpt lat="45.42356" lon="4.61961">
        <ele>886.14417</ele>
        <time>2021-07-19T09:16:33Z</time>
      </trkpt>
      <trkpt lat="45.42358" lon="4.61958">
        <ele>886.30273</ele>
        <time>2021-07-19T09:16:34Z</time>
      </trkpt>
      <trkpt lat="45.4236" lon="4.61954">
        <ele>886.419</ele>
        <time>2021-07-19T09:16:35Z</time>
      </trkpt>
      <trkpt lat="45.42362" lon="4.61951">
        <ele>886.7149</ele>
        <time>2021-07-19T09:16:36Z</time>
      </trkpt>
      <trkpt lat="45.42365" lon="4.61948">
        <ele>886.958</ele>
        <time>2021-07-19T09:16:37Z</time>
      </trkpt>
      <trkpt lat="45.42367" lon="4.61946">
        <ele>887.14825</ele>
        <time>2021-07-19T09:16:38Z</time>
      </trkpt>
      <trkpt lat="45.42369" lon="4.61943">
        <ele>887.3596</ele>
        <time>2021-07-19T09:16:39Z</time>
      </trkpt>
      <trkpt lat="45.42372" lon="4.6194">
        <ele>887.59216</ele>
        <time>2021-07-19T09:16:40Z</time>
      </trkpt>
      <trkpt lat="45.42374" lon="4.61937">
        <ele>887.80884</ele>
        <time>2021-07-19T09:16:41Z</time>
      </trkpt>
      <trkpt lat="45.42377" lon="4.61934">
        <ele>888.0149</ele>
        <time>2021-07-19T09:16:42Z</time>
      </trkpt>
      <trkpt lat="45.42379" lon="4.6193">
        <ele>888.2316</ele>
        <time>2021-07-19T09:16:43Z</time>
      </trkpt>
      <trkpt lat="45.42381" lon="4.61928">
        <ele>888.3425</ele>
        <time>2021-07-19T09:16:44Z</time>
      </trkpt>
      <trkpt lat="45.42383" lon="4.61924">
        <ele>888.63855</ele>
        <time>2021-07-19T09:16:45Z</time>
      </trkpt>
      <trkpt lat="45.42386" lon="4.61921">
        <ele>888.97675</ele>
        <time>2021-07-19T09:16:46Z</time>
      </trkpt>
      <trkpt lat="45.42388" lon="4.61918">
        <ele>889.25684</ele>
        <time>2021-07-19T09:16:47Z</time>
      </trkpt>
      <trkpt lat="45.4239" lon="4.61916">
        <ele>889.42065</ele>
        <time>2021-07-19T09:16:48Z</time>
      </trkpt>
      <trkpt lat="45.42392" lon="4.61913">
        <ele>889.55804</ele>
        <time>2021-07-19T09:16:49Z</time>
      </trkpt>
      <trkpt lat="45.42394" lon="4.6191">
        <ele>889.89624</ele>
        <time>2021-07-19T09:16:50Z</time>
      </trkpt>
      <trkpt lat="45.42396" lon="4.61908">
        <ele>890.17633</ele>
        <time>2021-07-19T09:16:51Z</time>
      </trkpt>
      <trkpt lat="45.42397" lon="4.61906">
        <ele>890.5146</ele>
        <time>2021-07-19T09:16:52Z</time>
      </trkpt>
      <trkpt lat="45.42399" lon="4.61903">
        <ele>890.7841</ele>
        <time>2021-07-19T09:16:53Z</time>
      </trkpt>
      <trkpt lat="45.42401" lon="4.619">
        <ele>890.93207</ele>
        <time>2021-07-19T09:16:54Z</time>
      </trkpt>
      <trkpt lat="45.42403" lon="4.61898">
        <ele>891.2016</ele>
        <time>2021-07-19T09:16:55Z</time>
      </trkpt>
      <trkpt lat="45.42405" lon="4.61895">
        <ele>891.40765</ele>
        <time>2021-07-19T09:16:56Z</time>
      </trkpt>
      <trkpt lat="45.42407" lon="4.61892">
        <ele>891.65076</ele>
        <time>2021-07-19T09:16:57Z</time>
      </trkpt>
      <trkpt lat="45.42409" lon="4.6189">
        <ele>891.79346</ele>
        <time>2021-07-19T09:16:58Z</time>
      </trkpt>
      <trkpt lat="45.42412" lon="4.61888">
        <ele>891.98895</ele>
        <time>2021-07-19T09:16:59Z</time>
      </trkpt>
      <trkpt lat="45.42414" lon="4.61886">
        <ele>892.2479</ele>
        <time>2021-07-19T09:17:00Z</time>
      </trkpt>
      <trkpt lat="45.42416" lon="4.61884">
        <ele>892.565</ele>
        <time>2021-07-19T09:17:01Z</time>
      </trkpt>
      <trkpt lat="45.42418" lon="4.61883">
        <ele>892.76056</ele>
        <time>2021-07-19T09:17:02Z</time>
      </trkpt>
      <trkpt lat="45.42421" lon="4.6188">
        <ele>892.8927</ele>
        <time>2021-07-19T09:17:03Z</time>
      </trkpt>
      <trkpt lat="45.42423" lon="4.61878">
        <ele>893.0882</ele>
        <time>2021-07-19T09:17:04Z</time>
      </trkpt>
      <trkpt lat="45.42426" lon="4.61876">
        <ele>893.28375</ele>
        <time>2021-07-19T09:17:05Z</time>
      </trkpt>
      <trkpt lat="45.42428" lon="4.61874">
        <ele>893.42645</ele>
        <time>2021-07-19T09:17:06Z</time>
      </trkpt>
      <trkpt lat="45.4243" lon="4.61872">
        <ele>893.87036</ele>
        <time>2021-07-19T09:17:07Z</time>
      </trkpt>
      <trkpt lat="45.42432" lon="4.6187">
        <ele>893.8967</ele>
        <time>2021-07-19T09:17:08Z</time>
      </trkpt>
      <trkpt lat="45.42434" lon="4.61867">
        <ele>894.1874</ele>
        <time>2021-07-19T09:17:09Z</time>
      </trkpt>
      <trkpt lat="45.42436" lon="4.61864">
        <ele>894.46747</ele>
        <time>2021-07-19T09:17:10Z</time>
      </trkpt>
      <trkpt lat="45.42438" lon="4.61861">
        <ele>894.811</ele>
        <time>2021-07-19T09:17:11Z</time>
      </trkpt>
      <trkpt lat="45.4244" lon="4.61858">
        <ele>894.89026</ele>
        <time>2021-07-19T09:17:12Z</time>
      </trkpt>
      <trkpt lat="45.42443" lon="4.61856">
        <ele>895.1016</ele>
        <time>2021-07-19T09:17:13Z</time>
      </trkpt>
      <trkpt lat="45.42445" lon="4.61853">
        <ele>895.2972</ele>
        <time>2021-07-19T09:17:14Z</time>
      </trkpt>
      <trkpt lat="45.42447" lon="4.61849">
        <ele>895.6037</ele>
        <time>2021-07-19T09:17:15Z</time>
      </trkpt>
      <trkpt lat="45.4245" lon="4.61846">
        <ele>895.8996</ele>
        <time>2021-07-19T09:17:16Z</time>
      </trkpt>
      <trkpt lat="45.42452" lon="4.61843">
        <ele>895.94183</ele>
        <time>2021-07-19T09:17:17Z</time>
      </trkpt>
      <trkpt lat="45.42454" lon="4.61841">
        <ele>896.1691</ele>
        <time>2021-07-19T09:17:18Z</time>
      </trkpt>
      <trkpt lat="45.42456" lon="4.61838">
        <ele>896.57605</ele>
        <time>2021-07-19T09:17:19Z</time>
      </trkpt>
      <trkpt lat="45.42458" lon="4.61835">
        <ele>897.15735</ele>
        <time>2021-07-19T09:17:20Z</time>
      </trkpt>
      <trkpt lat="45.42461" lon="4.61832">
        <ele>897.2842</ele>
        <time>2021-07-19T09:17:21Z</time>
      </trkpt>
      <trkpt lat="45.42463" lon="4.61831">
        <ele>897.24194</ele>
        <time>2021-07-19T09:17:22Z</time>
      </trkpt>
      <trkpt lat="45.42465" lon="4.61829">
        <ele>897.26306</ele>
        <time>2021-07-19T09:17:23Z</time>
      </trkpt>
      <trkpt lat="45.42468" lon="4.61827">
        <ele>897.411</ele>
        <time>2021-07-19T09:17:24Z</time>
      </trkpt>
      <trkpt lat="45.4247" lon="4.61826">
        <ele>897.59595</ele>
        <time>2021-07-19T09:17:25Z</time>
      </trkpt>
      <trkpt lat="45.42474" lon="4.61825">
        <ele>897.8127</ele>
        <time>2021-07-19T09:17:26Z</time>
      </trkpt>
      <trkpt lat="45.42477" lon="4.61824">
        <ele>898.18256</ele>
        <time>2021-07-19T09:17:27Z</time>
      </trkpt>
      <trkpt lat="45.4248" lon="4.61822">
        <ele>898.394</ele>
        <time>2021-07-19T09:17:28Z</time>
      </trkpt>
      <trkpt lat="45.42483" lon="4.6182">
        <ele>898.43097</ele>
        <time>2021-07-19T09:17:29Z</time>
      </trkpt>
      <trkpt lat="45.42486" lon="4.61818">
        <ele>898.65295</ele>
        <time>2021-07-19T09:17:30Z</time>
      </trkpt>
      <trkpt lat="45.42489" lon="4.61817">
        <ele>898.859</ele>
        <time>2021-07-19T09:17:31Z</time>
      </trkpt>
      <trkpt lat="45.42492" lon="4.61816">
        <ele>899.1655</ele>
        <time>2021-07-19T09:17:32Z</time>
      </trkpt>
      <trkpt lat="45.42494" lon="4.61814">
        <ele>899.4139</ele>
        <time>2021-07-19T09:17:33Z</time>
      </trkpt>
      <trkpt lat="45.42497" lon="4.61813">
        <ele>899.6623</ele>
        <time>2021-07-19T09:17:34Z</time>
      </trkpt>
      <trkpt lat="45.42499" lon="4.61812">
        <ele>899.79443</ele>
        <time>2021-07-19T09:17:35Z</time>
      </trkpt>
      <trkpt lat="45.42501" lon="4.61812">
        <ele>900.0163</ele>
        <time>2021-07-19T09:17:36Z</time>
      </trkpt>
      <trkpt lat="45.42504" lon="4.61811">
        <ele>900.2436</ele>
        <time>2021-07-19T09:17:37Z</time>
      </trkpt>
      <trkpt lat="45.42508" lon="4.6181">
        <ele>900.25946</ele>
        <time>2021-07-19T09:17:38Z</time>
      </trkpt>
      <trkpt lat="45.42511" lon="4.61809">
        <ele>900.59235</ele>
        <time>2021-07-19T09:17:39Z</time>
      </trkpt>
      <trkpt lat="45.42514" lon="4.61808">
        <ele>900.69806</ele>
        <time>2021-07-19T09:17:40Z</time>
      </trkpt>
      <trkpt lat="45.42517" lon="4.61807">
        <ele>900.9306</ele>
        <time>2021-07-19T09:17:41Z</time>
      </trkpt>
      <trkpt lat="45.4252" lon="4.61805">
        <ele>901.1525</ele>
        <time>2021-07-19T09:17:42Z</time>
      </trkpt>
      <trkpt lat="45.42523" lon="4.61803">
        <ele>901.2477</ele>
        <time>2021-07-19T09:17:43Z</time>
      </trkpt>
      <trkpt lat="45.42525" lon="4.61801">
        <ele>901.4591</ele>
        <time>2021-07-19T09:17:44Z</time>
      </trkpt>
      <trkpt lat="45.42527" lon="4.61799">
        <ele>901.83954</ele>
        <time>2021-07-19T09:17:45Z</time>
      </trkpt>
      <trkpt lat="45.4253" lon="4.61797">
        <ele>902.2623</ele>
        <time>2021-07-19T09:17:46Z</time>
      </trkpt>
      <trkpt lat="45.42532" lon="4.61795">
        <ele>902.24646</ele>
        <time>2021-07-19T09:17:47Z</time>
      </trkpt>
      <trkpt lat="45.42533" lon="4.61792">
        <ele>902.4843</ele>
        <time>2021-07-19T09:17:48Z</time>
      </trkpt>
      <trkpt lat="45.42534" lon="4.61789">
        <ele>902.62695</ele>
        <time>2021-07-19T09:17:49Z</time>
      </trkpt>
      <trkpt lat="45.42535" lon="4.61786">
        <ele>902.87006</ele>
        <time>2021-07-19T09:17:50Z</time>
      </trkpt>
      <trkpt lat="45.42536" lon="4.61783">
        <ele>903.04974</ele>
        <time>2021-07-19T09:17:51Z</time>
      </trkpt>
      <trkpt lat="45.42536" lon="4.61781">
        <ele>903.15546</ele>
        <time>2021-07-19T09:17:52Z</time>
      </trkpt>
      <trkpt lat="45.42535" lon="4.61778">
        <ele>903.05505</ele>
        <time>2021-07-19T09:17:53Z</time>
      </trkpt>
      <trkpt lat="45.42535" lon="4.61775">
        <ele>903.00214</ele>
        <time>2021-07-19T09:17:54Z</time>
      </trkpt>
      <trkpt lat="45.42533" lon="4.6177">
        <ele>902.8542</ele>
        <time>2021-07-19T09:17:55Z</time>
      </trkpt>
      <trkpt lat="45.42531" lon="4.61766">
        <ele>902.76965</ele>
        <time>2021-07-19T09:17:56Z</time>
      </trkpt>
      <trkpt lat="45.42529" lon="4.61763">
        <ele>902.6745</ele>
        <time>2021-07-19T09:17:57Z</time>
      </trkpt>
      <trkpt lat="45.42526" lon="4.6176">
        <ele>902.7802</ele>
        <time>2021-07-19T09:17:58Z</time>
      </trkpt>
      <trkpt lat="45.42523" lon="4.61757">
        <ele>903.0075</ele>
        <time>2021-07-19T09:17:59Z</time>
      </trkpt>
      <trkpt lat="45.4252" lon="4.61755">
        <ele>902.7274</ele>
        <time>2021-07-19T09:18:00Z</time>
      </trkpt>
      <trkpt lat="45.42516" lon="4.61754">
        <ele>902.5688</ele>
        <time>2021-07-19T09:18:01Z</time>
      </trkpt>
      <trkpt lat="45.42513" lon="4.61753">
        <ele>902.5001</ele>
        <time>2021-07-19T09:18:02Z</time>
      </trkpt>
      <trkpt lat="45.42509" lon="4.61753">
        <ele>902.66394</ele>
        <time>2021-07-19T09:18:03Z</time>
      </trkpt>
      <trkpt lat="45.42506" lon="4.61753">
        <ele>902.94403</ele>
        <time>2021-07-19T09:18:04Z</time>
      </trkpt>
      <trkpt lat="45.42503" lon="4.61753">
        <ele>903.0075</ele>
        <time>2021-07-19T09:18:05Z</time>
      </trkpt>
      <trkpt lat="45.425" lon="4.61753">
        <ele>903.092</ele>
        <time>2021-07-19T09:18:06Z</time>
      </trkpt>
      <trkpt lat="45.42497" lon="4.61753">
        <ele>903.20825</ele>
        <time>2021-07-19T09:18:07Z</time>
      </trkpt>
      <trkpt lat="45.42493" lon="4.61754">
        <ele>903.3457</ele>
        <time>2021-07-19T09:18:08Z</time>
      </trkpt>
      <trkpt lat="45.42489" lon="4.61754">
        <ele>903.5042</ele>
        <time>2021-07-19T09:18:09Z</time>
      </trkpt>
      <trkpt lat="45.42485" lon="4.61755">
        <ele>903.668</ele>
        <time>2021-07-19T09:18:10Z</time>
      </trkpt>
      <trkpt lat="45.42482" lon="4.61756">
        <ele>903.927</ele>
        <time>2021-07-19T09:18:11Z</time>
      </trkpt>
      <trkpt lat="45.42479" lon="4.61756">
        <ele>904.2071</ele>
        <time>2021-07-19T09:18:12Z</time>
      </trkpt>
      <trkpt lat="45.42475" lon="4.61757">
        <ele>904.2388</ele>
        <time>2021-07-19T09:18:13Z</time>
      </trkpt>
      <trkpt lat="45.42471" lon="4.61758">
        <ele>904.3815</ele>
        <time>2021-07-19T09:18:14Z</time>
      </trkpt>
      <trkpt lat="45.42468" lon="4.61759">
        <ele>904.5823</ele>
        <time>2021-07-19T09:18:15Z</time>
      </trkpt>
      <trkpt lat="45.42464" lon="4.6176">
        <ele>904.79895</ele>
        <time>2021-07-19T09:18:16Z</time>
      </trkpt>
      <trkpt lat="45.42461" lon="4.61761">
        <ele>904.81476</ele>
        <time>2021-07-19T09:18:17Z</time>
      </trkpt>
      <trkpt lat="45.42458" lon="4.61762">
        <ele>905.1054</ele>
        <time>2021-07-19T09:18:18Z</time>
      </trkpt>
      <trkpt lat="45.42455" lon="4.61763">
        <ele>905.39606</ele>
        <time>2021-07-19T09:18:19Z</time>
      </trkpt>
      <trkpt lat="45.42452" lon="4.61764">
        <ele>905.4912</ele>
        <time>2021-07-19T09:18:20Z</time>
      </trkpt>
      <trkpt lat="45.42449" lon="4.61766">
        <ele>905.72906</ele>
        <time>2021-07-19T09:18:21Z</time>
      </trkpt>
      <trkpt lat="45.42445" lon="4.61767">
        <ele>905.7396</ele>
        <time>2021-07-19T09:18:22Z</time>
      </trkpt>
      <trkpt lat="45.42442" lon="4.61768">
        <ele>905.9299</ele>
        <time>2021-07-19T09:18:23Z</time>
      </trkpt>
      <trkpt lat="45.42438" lon="4.61769">
        <ele>906.1941</ele>
        <time>2021-07-19T09:18:24Z</time>
      </trkpt>
      <trkpt lat="45.42434" lon="4.6177">
        <ele>906.4425</ele>
        <time>2021-07-19T09:18:25Z</time>
      </trkpt>
      <trkpt lat="45.42431" lon="4.61771">
        <ele>906.8018</ele>
        <time>2021-07-19T09:18:26Z</time>
      </trkpt>
      <trkpt lat="45.42429" lon="4.61772">
        <ele>906.9022</ele>
        <time>2021-07-19T09:18:27Z</time>
      </trkpt>
      <trkpt lat="45.42427" lon="4.61773">
        <ele>907.0185</ele>
        <time>2021-07-19T09:18:28Z</time>
      </trkpt>
      <trkpt lat="45.42424" lon="4.61774">
        <ele>907.3039</ele>
        <time>2021-07-19T09:18:29Z</time>
      </trkpt>
      <trkpt lat="45.42421" lon="4.61776">
        <ele>907.5839</ele>
        <time>2021-07-19T09:18:30Z</time>
      </trkpt>
      <trkpt lat="45.42419" lon="4.61776">
        <ele>907.80066</ele>
        <time>2021-07-19T09:18:31Z</time>
      </trkpt>
      <trkpt lat="45.42417" lon="4.61777">
        <ele>907.901</ele>
        <time>2021-07-19T09:18:32Z</time>
      </trkpt>
      <trkpt lat="45.42415" lon="4.61779">
        <ele>908.0437</ele>
        <time>2021-07-19T09:18:33Z</time>
      </trkpt>
      <trkpt lat="45.42412" lon="4.6178">
        <ele>908.31323</ele>
        <time>2021-07-19T09:18:34Z</time>
      </trkpt>
      <trkpt lat="45.4241" lon="4.61781">
        <ele>908.49817</ele>
        <time>2021-07-19T09:18:35Z</time>
      </trkpt>
      <trkpt lat="45.42408" lon="4.61782">
        <ele>908.55634</ele>
        <time>2021-07-19T09:18:36Z</time>
      </trkpt>
      <trkpt lat="45.42405" lon="4.61783">
        <ele>909.0319</ele>
        <time>2021-07-19T09:18:37Z</time>
      </trkpt>
      <trkpt lat="45.42404" lon="4.61783">
        <ele>909.3702</ele>
        <time>2021-07-19T09:18:38Z</time>
      </trkpt>
      <trkpt lat="45.42402" lon="4.61785">
        <ele>909.4758</ele>
        <time>2021-07-19T09:18:39Z</time>
      </trkpt>
      <trkpt lat="45.424" lon="4.61786">
        <ele>909.7295</ele>
        <time>2021-07-19T09:18:40Z</time>
      </trkpt>
      <trkpt lat="45.42397" lon="4.61788">
        <ele>910.20514</ele>
        <time>2021-07-19T09:18:41Z</time>
      </trkpt>
      <trkpt lat="45.42394" lon="4.6179">
        <ele>910.1946</ele>
        <time>2021-07-19T09:18:42Z</time>
      </trkpt>
      <trkpt lat="45.4239" lon="4.61792">
        <ele>910.42706</ele>
        <time>2021-07-19T09:18:43Z</time>
      </trkpt>
      <trkpt lat="45.42388" lon="4.61794">
        <ele>910.8234</ele>
        <time>2021-07-19T09:18:44Z</time>
      </trkpt>
      <trkpt lat="45.42387" lon="4.61795">
        <ele>911.0665</ele>
        <time>2021-07-19T09:18:45Z</time>
      </trkpt>
      <trkpt lat="45.42384" lon="4.61799">
        <ele>911.204</ele>
        <time>2021-07-19T09:18:46Z</time>
      </trkpt>
      <trkpt lat="45.42381" lon="4.61802">
        <ele>911.6426</ele>
        <time>2021-07-19T09:18:47Z</time>
      </trkpt>
      <trkpt lat="45.42377" lon="4.61805">
        <ele>911.632</ele>
        <time>2021-07-19T09:18:48Z</time>
      </trkpt>
      <trkpt lat="45.42374" lon="4.61807">
        <ele>911.7905</ele>
        <time>2021-07-19T09:18:49Z</time>
      </trkpt>
      <trkpt lat="45.42371" lon="4.61809">
        <ele>911.891</ele>
        <time>2021-07-19T09:18:50Z</time>
      </trkpt>
      <trkpt lat="45.42367" lon="4.61812">
        <ele>912.1234</ele>
        <time>2021-07-19T09:18:51Z</time>
      </trkpt>
      <trkpt lat="45.42364" lon="4.61813">
        <ele>912.4405</ele>
        <time>2021-07-19T09:18:52Z</time>
      </trkpt>
      <trkpt lat="45.42361" lon="4.61815">
        <ele>912.62024</ele>
        <time>2021-07-19T09:18:53Z</time>
      </trkpt>
      <trkpt lat="45.42358" lon="4.61815">
        <ele>912.77875</ele>
        <time>2021-07-19T09:18:54Z</time>
      </trkpt>
      <trkpt lat="45.42356" lon="4.61815">
        <ele>912.94257</ele>
        <time>2021-07-19T09:18:55Z</time>
      </trkpt>
      <trkpt lat="45.42353" lon="4.61815">
        <ele>913.3231</ele>
        <time>2021-07-19T09:18:56Z</time>
      </trkpt>
      <trkpt lat="45.42351" lon="4.61815">
        <ele>913.55554</ele>
        <time>2021-07-19T09:18:57Z</time>
      </trkpt>
      <trkpt lat="45.42349" lon="4.61816">
        <ele>913.69824</ele>
        <time>2021-07-19T09:18:58Z</time>
      </trkpt>
      <trkpt lat="45.42345" lon="4.61818">
        <ele>914.0048</ele>
        <time>2021-07-19T09:18:59Z</time>
      </trkpt>
      <trkpt lat="45.42343" lon="4.61819">
        <ele>914.36414</ele>
        <time>2021-07-19T09:19:00Z</time>
      </trkpt>
      <trkpt lat="45.4234" lon="4.6182">
        <ele>914.62836</ele>
        <time>2021-07-19T09:19:01Z</time>
      </trkpt>
      <trkpt lat="45.42338" lon="4.61821">
        <ele>914.8345</ele>
        <time>2021-07-19T09:19:02Z</time>
      </trkpt>
      <trkpt lat="45.42335" lon="4.61822">
        <ele>914.9878</ele>
        <time>2021-07-19T09:19:03Z</time>
      </trkpt>
      <trkpt lat="45.42333" lon="4.61823">
        <ele>915.18854</ele>
        <time>2021-07-19T09:19:04Z</time>
      </trkpt>
      <trkpt lat="45.42331" lon="4.61824">
        <ele>915.3365</ele>
        <time>2021-07-19T09:19:05Z</time>
      </trkpt>
      <trkpt lat="45.42328" lon="4.61825">
        <ele>915.643</ele>
        <time>2021-07-19T09:19:06Z</time>
      </trkpt>
      <trkpt lat="45.42324" lon="4.61826">
        <ele>915.93365</ele>
        <time>2021-07-19T09:19:07Z</time>
      </trkpt>
      <trkpt lat="45.42321" lon="4.61827">
        <ele>916.21375</ele>
        <time>2021-07-19T09:19:08Z</time>
      </trkpt>
      <trkpt lat="45.42318" lon="4.61827">
        <ele>916.4252</ele>
        <time>2021-07-19T09:19:09Z</time>
      </trkpt>
      <trkpt lat="45.42315" lon="4.61828">
        <ele>916.77924</ele>
        <time>2021-07-19T09:19:10Z</time>
      </trkpt>
      <trkpt lat="45.42312" lon="4.61828">
        <ele>917.04346</ele>
        <time>2021-07-19T09:19:11Z</time>
      </trkpt>
      <trkpt lat="45.42309" lon="4.6183">
        <ele>917.2073</ele>
        <time>2021-07-19T09:19:12Z</time>
      </trkpt>
      <trkpt lat="45.42307" lon="4.61831">
        <ele>917.46625</ele>
        <time>2021-07-19T09:19:13Z</time>
      </trkpt>
      <trkpt lat="45.42304" lon="4.61833">
        <ele>917.778</ele>
        <time>2021-07-19T09:19:14Z</time>
      </trkpt>
      <trkpt lat="45.42302" lon="4.61834">
        <ele>917.98413</ele>
        <time>2021-07-19T09:19:15Z</time>
      </trkpt>
      <trkpt lat="45.42299" lon="4.61836">
        <ele>918.09515</ele>
        <time>2021-07-19T09:19:16Z</time>
      </trkpt>
      <trkpt lat="45.42297" lon="4.61838">
        <ele>918.4227</ele>
        <time>2021-07-19T09:19:17Z</time>
      </trkpt>
      <trkpt lat="45.42295" lon="4.6184">
        <ele>918.7927</ele>
        <time>2021-07-19T09:19:18Z</time>
      </trkpt>
      <trkpt lat="45.42292" lon="4.61841">
        <ele>918.8244</ele>
        <time>2021-07-19T09:19:19Z</time>
      </trkpt>
      <trkpt lat="45.42289" lon="4.61842">
        <ele>918.8825</ele>
        <time>2021-07-19T09:19:20Z</time>
      </trkpt>
      <trkpt lat="45.42286" lon="4.61844">
        <ele>919.07806</ele>
        <time>2021-07-19T09:19:21Z</time>
      </trkpt>
      <trkpt lat="45.42284" lon="4.61845">
        <ele>919.36346</ele>
        <time>2021-07-19T09:19:22Z</time>
      </trkpt>
      <trkpt lat="45.42282" lon="4.61847">
        <ele>919.6858</ele>
        <time>2021-07-19T09:19:23Z</time>
      </trkpt>
      <trkpt lat="45.42279" lon="4.61849">
        <ele>919.7703</ele>
        <time>2021-07-19T09:19:24Z</time>
      </trkpt>
      <trkpt lat="45.42277" lon="4.61851">
        <ele>920.11383</ele>
        <time>2021-07-19T09:19:25Z</time>
      </trkpt>
      <trkpt lat="45.42275" lon="4.61852">
        <ele>920.2671</ele>
        <time>2021-07-19T09:19:26Z</time>
      </trkpt>
      <trkpt lat="45.42273" lon="4.61855">
        <ele>920.47845</ele>
        <time>2021-07-19T09:19:27Z</time>
      </trkpt>
      <trkpt lat="45.4227" lon="4.61857">
        <ele>920.7321</ele>
        <time>2021-07-19T09:19:28Z</time>
      </trkpt>
      <trkpt lat="45.42267" lon="4.61859">
        <ele>920.7268</ele>
        <time>2021-07-19T09:19:29Z</time>
      </trkpt>
      <trkpt lat="45.42264" lon="4.61861">
        <ele>921.0069</ele>
        <time>2021-07-19T09:19:30Z</time>
      </trkpt>
      <trkpt lat="45.42259" lon="4.61864">
        <ele>921.324</ele>
        <time>2021-07-19T09:19:32Z</time>
      </trkpt>
      <trkpt lat="45.42259" lon="4.61864">
        <ele>921.324</ele>
        <time>2021-07-19T09:19:32Z</time>
      </trkpt>
      <trkpt lat="45.42254" lon="4.6187">
        <ele>922.02686</ele>
        <time>2021-07-19T09:19:34Z</time>
      </trkpt>
      <trkpt lat="45.42254" lon="4.6187">
        <ele>922.02686</ele>
        <time>2021-07-19T09:19:34Z</time>
      </trkpt>
      <trkpt lat="45.4225" lon="4.61873">
        <ele>922.1537</ele>
        <time>2021-07-19T09:19:36Z</time>
      </trkpt>
      <trkpt lat="45.42249" lon="4.61874">
        <ele>922.4708</ele>
        <time>2021-07-19T09:19:37Z</time>
      </trkpt>
      <trkpt lat="45.42247" lon="4.61876">
        <ele>922.55005</ele>
        <time>2021-07-19T09:19:38Z</time>
      </trkpt>
      <trkpt lat="45.42247" lon="4.61876">
        <ele>922.55005</ele>
        <time>2021-07-19T09:19:38Z</time>
      </trkpt>
      <trkpt lat="45.42244" lon="4.61877">
        <ele>922.78784</ele>
        <time>2021-07-19T09:19:39Z</time>
      </trkpt>
      <trkpt lat="45.42242" lon="4.61879">
        <ele>923.1419</ele>
        <time>2021-07-19T09:19:40Z</time>
      </trkpt>
      <trkpt lat="45.42236" lon="4.61883">
        <ele>923.4485</ele>
        <time>2021-07-19T09:19:42Z</time>
      </trkpt>
      <trkpt lat="45.42236" lon="4.61883">
        <ele>923.4485</ele>
        <time>2021-07-19T09:19:42Z</time>
      </trkpt>
      <trkpt lat="45.42233" lon="4.61885">
        <ele>923.6123</ele>
        <time>2021-07-19T09:19:43Z</time>
      </trkpt>
      <trkpt lat="45.42229" lon="4.61887">
        <ele>923.73914</ele>
        <time>2021-07-19T09:19:44Z</time>
      </trkpt>
      <trkpt lat="45.42226" lon="4.61889">
        <ele>924.11426</ele>
        <time>2021-07-19T09:19:45Z</time>
      </trkpt>
      <trkpt lat="45.42223" lon="4.61891">
        <ele>924.41547</ele>
        <time>2021-07-19T09:19:46Z</time>
      </trkpt>
      <trkpt lat="45.42219" lon="4.61897">
        <ele>924.7379</ele>
        <time>2021-07-19T09:19:48Z</time>
      </trkpt>
      <trkpt lat="45.42219" lon="4.61897">
        <ele>924.7379</ele>
        <time>2021-07-19T09:19:48Z</time>
      </trkpt>
      <trkpt lat="45.42217" lon="4.61899">
        <ele>924.92816</ele>
        <time>2021-07-19T09:19:49Z</time>
      </trkpt>
      <trkpt lat="45.42215" lon="4.61901">
        <ele>925.1765</ele>
        <time>2021-07-19T09:19:50Z</time>
      </trkpt>
      <trkpt lat="45.4221" lon="4.61906">
        <ele>925.46716</ele>
        <time>2021-07-19T09:19:52Z</time>
      </trkpt>
      <trkpt lat="45.4221" lon="4.61906">
        <ele>925.46716</ele>
        <time>2021-07-19T09:19:52Z</time>
      </trkpt>
      <trkpt lat="45.42208" lon="4.61908">
        <ele>925.9322</ele>
        <time>2021-07-19T09:19:53Z</time>
      </trkpt>
      <trkpt lat="45.42206" lon="4.6191">
        <ele>926.1542</ele>
        <time>2021-07-19T09:19:54Z</time>
      </trkpt>
      <trkpt lat="45.422" lon="4.61913">
        <ele>926.6034</ele>
        <time>2021-07-19T09:19:56Z</time>
      </trkpt>
      <trkpt lat="45.42197" lon="4.61915">
        <ele>926.6827</ele>
        <time>2021-07-19T09:19:57Z</time>
      </trkpt>
      <trkpt lat="45.42197" lon="4.61915">
        <ele>926.6827</ele>
        <time>2021-07-19T09:19:57Z</time>
      </trkpt>
      <trkpt lat="45.42194" lon="4.61916">
        <ele>926.95215</ele>
        <time>2021-07-19T09:19:58Z</time>
      </trkpt>
      <trkpt lat="45.42189" lon="4.6192">
        <ele>927.3591</ele>
        <time>2021-07-19T09:20:00Z</time>
      </trkpt>
      <trkpt lat="45.42185" lon="4.61922">
        <ele>927.51227</ele>
        <time>2021-07-19T09:20:01Z</time>
      </trkpt>
      <trkpt lat="45.42182" lon="4.61924">
        <ele>927.8347</ele>
        <time>2021-07-19T09:20:02Z</time>
      </trkpt>
      <trkpt lat="45.42182" lon="4.61924">
        <ele>927.8347</ele>
        <time>2021-07-19T09:20:02Z</time>
      </trkpt>
      <trkpt lat="45.42177" lon="4.61928">
        <ele>928.50055</ele>
        <time>2021-07-19T09:20:04Z</time>
      </trkpt>
      <trkpt lat="45.42175" lon="4.6193">
        <ele>928.6274</ele>
        <time>2021-07-19T09:20:05Z</time>
      </trkpt>
      <trkpt lat="45.42172" lon="4.61933">
        <ele>928.73834</ele>
        <time>2021-07-19T09:20:06Z</time>
      </trkpt>
      <trkpt lat="45.4217" lon="4.61935">
        <ele>928.93384</ele>
        <time>2021-07-19T09:20:07Z</time>
      </trkpt>
      <trkpt lat="45.42168" lon="4.61937">
        <ele>929.3513</ele>
        <time>2021-07-19T09:20:08Z</time>
      </trkpt>
      <trkpt lat="45.42165" lon="4.61938">
        <ele>929.42535</ele>
        <time>2021-07-19T09:20:09Z</time>
      </trkpt>
      <trkpt lat="45.42164" lon="4.6194">
        <ele>929.84283</ele>
        <time>2021-07-19T09:20:10Z</time>
      </trkpt>
      <trkpt lat="45.42161" lon="4.61942">
        <ele>929.753</ele>
        <time>2021-07-19T09:20:11Z</time>
      </trkpt>
      <trkpt lat="45.42159" lon="4.61944">
        <ele>930.1758</ele>
        <time>2021-07-19T09:20:12Z</time>
      </trkpt>
      <trkpt lat="45.42157" lon="4.61945">
        <ele>930.3026</ele>
        <time>2021-07-19T09:20:13Z</time>
      </trkpt>
      <trkpt lat="45.42154" lon="4.61947">
        <ele>930.4611</ele>
        <time>2021-07-19T09:20:14Z</time>
      </trkpt>
      <trkpt lat="45.42151" lon="4.61948">
        <ele>930.7941</ele>
        <time>2021-07-19T09:20:15Z</time>
      </trkpt>
      <trkpt lat="45.42149" lon="4.6195">
        <ele>930.8628</ele>
        <time>2021-07-19T09:20:16Z</time>
      </trkpt>
      <trkpt lat="45.42147" lon="4.61951">
        <ele>931.0477</ele>
        <time>2021-07-19T09:20:17Z</time>
      </trkpt>
      <trkpt lat="45.42144" lon="4.61952">
        <ele>931.3278</ele>
        <time>2021-07-19T09:20:18Z</time>
      </trkpt>
      <trkpt lat="45.42141" lon="4.61954">
        <ele>931.5128</ele>
        <time>2021-07-19T09:20:19Z</time>
      </trkpt>
      <trkpt lat="45.42138" lon="4.61956">
        <ele>931.7083</ele>
        <time>2021-07-19T09:20:20Z</time>
      </trkpt>
      <trkpt lat="45.42135" lon="4.61958">
        <ele>932.03064</ele>
        <time>2021-07-19T09:20:21Z</time>
      </trkpt>
      <trkpt lat="45.42133" lon="4.61959">
        <ele>932.11</ele>
        <time>2021-07-19T09:20:22Z</time>
      </trkpt>
      <trkpt lat="45.4213" lon="4.61962">
        <ele>932.3689</ele>
        <time>2021-07-19T09:20:23Z</time>
      </trkpt>
      <trkpt lat="45.42127" lon="4.61964">
        <ele>932.74945</ele>
        <time>2021-07-19T09:20:24Z</time>
      </trkpt>
      <trkpt lat="45.42124" lon="4.61966">
        <ele>932.7917</ele>
        <time>2021-07-19T09:20:25Z</time>
      </trkpt>
      <trkpt lat="45.42122" lon="4.61967">
        <ele>933.14575</ele>
        <time>2021-07-19T09:20:26Z</time>
      </trkpt>
      <trkpt lat="45.4212" lon="4.61968">
        <ele>933.52625</ele>
        <time>2021-07-19T09:20:27Z</time>
      </trkpt>
      <trkpt lat="45.42119" lon="4.61969">
        <ele>933.63196</ele>
        <time>2021-07-19T09:20:28Z</time>
      </trkpt>
      <trkpt lat="45.42116" lon="4.6197">
        <ele>933.82745</ele>
        <time>2021-07-19T09:20:29Z</time>
      </trkpt>
      <trkpt lat="45.42114" lon="4.61972">
        <ele>934.023</ele>
        <time>2021-07-19T09:20:30Z</time>
      </trkpt>
      <trkpt lat="45.4211" lon="4.61973">
        <ele>934.1974</ele>
        <time>2021-07-19T09:20:31Z</time>
      </trkpt>
      <trkpt lat="45.42107" lon="4.61973">
        <ele>934.4246</ele>
        <time>2021-07-19T09:20:32Z</time>
      </trkpt>
      <trkpt lat="45.42104" lon="4.61973">
        <ele>934.6994</ele>
        <time>2021-07-19T09:20:33Z</time>
      </trkpt>
      <trkpt lat="45.42102" lon="4.61974">
        <ele>935.006</ele>
        <time>2021-07-19T09:20:34Z</time>
      </trkpt>
      <trkpt lat="45.421" lon="4.61976">
        <ele>935.2068</ele>
        <time>2021-07-19T09:20:35Z</time>
      </trkpt>
      <trkpt lat="45.42098" lon="4.61978">
        <ele>935.21204</ele>
        <time>2021-07-19T09:20:36Z</time>
      </trkpt>
      <trkpt lat="45.42095" lon="4.6198">
        <ele>935.6612</ele>
        <time>2021-07-19T09:20:37Z</time>
      </trkpt>
      <trkpt lat="45.42093" lon="4.61981">
        <ele>935.92017</ele>
        <time>2021-07-19T09:20:38Z</time>
      </trkpt>
      <trkpt lat="45.42091" lon="4.61983">
        <ele>936.1739</ele>
        <time>2021-07-19T09:20:39Z</time>
      </trkpt>
      <trkpt lat="45.42089" lon="4.61984">
        <ele>936.40643</ele>
        <time>2021-07-19T09:20:40Z</time>
      </trkpt>
      <trkpt lat="45.42087" lon="4.61986">
        <ele>936.61774</ele>
        <time>2021-07-19T09:20:41Z</time>
      </trkpt>
      <trkpt lat="45.42084" lon="4.61987">
        <ele>936.9454</ele>
        <time>2021-07-19T09:20:42Z</time>
      </trkpt>
      <trkpt lat="45.42082" lon="4.61988">
        <ele>937.09863</ele>
        <time>2021-07-19T09:20:43Z</time>
      </trkpt>
      <trkpt lat="45.42079" lon="4.6199">
        <ele>937.2942</ele>
        <time>2021-07-19T09:20:44Z</time>
      </trkpt>
      <trkpt lat="45.42078" lon="4.61991">
        <ele>937.6218</ele>
        <time>2021-07-19T09:20:45Z</time>
      </trkpt>
      <trkpt lat="45.42076" lon="4.61993">
        <ele>937.8015</ele>
        <time>2021-07-19T09:20:46Z</time>
      </trkpt>
      <trkpt lat="45.42075" lon="4.61994">
        <ele>937.94946</ele>
        <time>2021-07-19T09:20:47Z</time>
      </trkpt>
      <trkpt lat="45.42073" lon="4.61996">
        <ele>938.1503</ele>
        <time>2021-07-19T09:20:48Z</time>
      </trkpt>
      <trkpt lat="45.42072" lon="4.61997">
        <ele>938.2666</ele>
        <time>2021-07-19T09:20:49Z</time>
      </trkpt>
      <trkpt lat="45.4207" lon="4.61998">
        <ele>938.5625</ele>
        <time>2021-07-19T09:20:50Z</time>
      </trkpt>
      <trkpt lat="45.42067" lon="4.61998">
        <ele>938.85315</ele>
        <time>2021-07-19T09:20:51Z</time>
      </trkpt>
      <trkpt lat="45.42065" lon="4.62">
        <ele>938.99585</ele>
        <time>2021-07-19T09:20:52Z</time>
      </trkpt>
      <trkpt lat="45.42063" lon="4.62001">
        <ele>939.0804</ele>
        <time>2021-07-19T09:20:53Z</time>
      </trkpt>
      <trkpt lat="45.42061" lon="4.62002">
        <ele>939.2706</ele>
        <time>2021-07-19T09:20:54Z</time>
      </trkpt>
      <trkpt lat="45.42059" lon="4.62004">
        <ele>939.59827</ele>
        <time>2021-07-19T09:20:55Z</time>
      </trkpt>
      <trkpt lat="45.42057" lon="4.62006">
        <ele>939.73566</ele>
        <time>2021-07-19T09:20:56Z</time>
      </trkpt>
      <trkpt lat="45.42054" lon="4.62008">
        <ele>940.1109</ele>
        <time>2021-07-19T09:20:57Z</time>
      </trkpt>
      <trkpt lat="45.42051" lon="4.62011">
        <ele>940.15845</ele>
        <time>2021-07-19T09:20:58Z</time>
      </trkpt>
      <trkpt lat="45.42049" lon="4.62013">
        <ele>940.5337</ele>
        <time>2021-07-19T09:20:59Z</time>
      </trkpt>
      <trkpt lat="45.42045" lon="4.62014">
        <ele>940.7345</ele>
        <time>2021-07-19T09:21:00Z</time>
      </trkpt>
      <trkpt lat="45.42042" lon="4.62015">
        <ele>940.8983</ele>
        <time>2021-07-19T09:21:01Z</time>
      </trkpt>
      <trkpt lat="45.4204" lon="4.62016">
        <ele>941.1731</ele>
        <time>2021-07-19T09:21:02Z</time>
      </trkpt>
      <trkpt lat="45.42037" lon="4.62017">
        <ele>941.37396</ele>
        <time>2021-07-19T09:21:03Z</time>
      </trkpt>
      <trkpt lat="45.42035" lon="4.62019">
        <ele>941.6276</ele>
        <time>2021-07-19T09:21:04Z</time>
      </trkpt>
      <trkpt lat="45.42033" lon="4.62021">
        <ele>941.8548</ele>
        <time>2021-07-19T09:21:05Z</time>
      </trkpt>
      <trkpt lat="45.4203" lon="4.62022">
        <ele>942.0504</ele>
        <time>2021-07-19T09:21:06Z</time>
      </trkpt>
      <trkpt lat="45.42027" lon="4.62023">
        <ele>942.2089</ele>
        <time>2021-07-19T09:21:07Z</time>
      </trkpt>
      <trkpt lat="45.42025" lon="4.62023">
        <ele>942.4625</ele>
        <time>2021-07-19T09:21:08Z</time>
      </trkpt>
      <trkpt lat="45.42023" lon="4.62024">
        <ele>942.7426</ele>
        <time>2021-07-19T09:21:09Z</time>
      </trkpt>
      <trkpt lat="45.42021" lon="4.62025">
        <ele>943.0756</ele>
        <time>2021-07-19T09:21:10Z</time>
      </trkpt>
      <trkpt lat="45.42019" lon="4.62026">
        <ele>943.2817</ele>
        <time>2021-07-19T09:21:11Z</time>
      </trkpt>
      <trkpt lat="45.42016" lon="4.62027">
        <ele>943.4561</ele>
        <time>2021-07-19T09:21:12Z</time>
      </trkpt>
      <trkpt lat="45.42014" lon="4.62029">
        <ele>943.8313</ele>
        <time>2021-07-19T09:21:13Z</time>
      </trkpt>
      <trkpt lat="45.42011" lon="4.62031">
        <ele>943.826</ele>
        <time>2021-07-19T09:21:14Z</time>
      </trkpt>
      <trkpt lat="45.42008" lon="4.62032">
        <ele>944.18536</ele>
        <time>2021-07-19T09:21:15Z</time>
      </trkpt>
      <trkpt lat="45.42006" lon="4.62034">
        <ele>944.41785</ele>
        <time>2021-07-19T09:21:16Z</time>
      </trkpt>
      <trkpt lat="45.42003" lon="4.62035">
        <ele>944.6557</ele>
        <time>2021-07-19T09:21:17Z</time>
      </trkpt>
      <trkpt lat="45.42001" lon="4.62036">
        <ele>945.0151</ele>
        <time>2021-07-19T09:21:18Z</time>
      </trkpt>
      <trkpt lat="45.41998" lon="4.62036">
        <ele>945.274</ele>
        <time>2021-07-19T09:21:19Z</time>
      </trkpt>
      <trkpt lat="45.41995" lon="4.62037">
        <ele>945.4273</ele>
        <time>2021-07-19T09:21:20Z</time>
      </trkpt>
      <trkpt lat="45.41991" lon="4.62038">
        <ele>945.5911</ele>
        <time>2021-07-19T09:21:21Z</time>
      </trkpt>
      <trkpt lat="45.41986" lon="4.62039">
        <ele>945.73376</ele>
        <time>2021-07-19T09:21:22Z</time>
      </trkpt>
      <trkpt lat="45.41981" lon="4.62039">
        <ele>945.92926</ele>
        <time>2021-07-19T09:21:23Z</time>
      </trkpt>
      <trkpt lat="45.41976" lon="4.62039">
        <ele>946.2411</ele>
        <time>2021-07-19T09:21:24Z</time>
      </trkpt>
      <trkpt lat="45.41974" lon="4.62037">
        <ele>946.4155</ele>
        <time>2021-07-19T09:21:25Z</time>
      </trkpt>
      <trkpt lat="45.41971" lon="4.62037">
        <ele>946.6691</ele>
        <time>2021-07-19T09:21:26Z</time>
      </trkpt>
      <trkpt lat="45.41969" lon="4.62037">
        <ele>946.8541</ele>
        <time>2021-07-19T09:21:27Z</time>
      </trkpt>
      <trkpt lat="45.41967" lon="4.62038">
        <ele>947.1501</ele>
        <time>2021-07-19T09:21:28Z</time>
      </trkpt>
      <trkpt lat="45.41964" lon="4.62038">
        <ele>947.32446</ele>
        <time>2021-07-19T09:21:29Z</time>
      </trkpt>
      <trkpt lat="45.41961" lon="4.62038">
        <ele>947.5517</ele>
        <time>2021-07-19T09:21:30Z</time>
      </trkpt>
      <trkpt lat="45.41959" lon="4.62038">
        <ele>947.75775</ele>
        <time>2021-07-19T09:21:31Z</time>
      </trkpt>
      <trkpt lat="45.41956" lon="4.62038">
        <ele>948.133</ele>
        <time>2021-07-19T09:21:32Z</time>
      </trkpt>
      <trkpt lat="45.41953" lon="4.6204">
        <ele>948.5082</ele>
        <time>2021-07-19T09:21:33Z</time>
      </trkpt>
      <trkpt lat="45.4195" lon="4.62041">
        <ele>948.7513</ele>
        <time>2021-07-19T09:21:34Z</time>
      </trkpt>
      <trkpt lat="45.41948" lon="4.62043">
        <ele>948.8887</ele>
        <time>2021-07-19T09:21:35Z</time>
      </trkpt>
      <trkpt lat="45.41945" lon="4.62045">
        <ele>949.04724</ele>
        <time>2021-07-19T09:21:36Z</time>
      </trkpt>
      <trkpt lat="45.41942" lon="4.62047">
        <ele>949.322</ele>
        <time>2021-07-19T09:21:37Z</time>
      </trkpt>
      <trkpt lat="45.4194" lon="4.62049">
        <ele>949.6338</ele>
        <time>2021-07-19T09:21:38Z</time>
      </trkpt>
      <trkpt lat="45.4194" lon="4.62053">
        <ele>949.78174</ele>
        <time>2021-07-19T09:21:39Z</time>
      </trkpt>
      <trkpt lat="45.41937" lon="4.62056">
        <ele>950.00903</ele>
        <time>2021-07-19T09:21:40Z</time>
      </trkpt>
      <trkpt lat="45.41935" lon="4.62058">
        <ele>950.157</ele>
        <time>2021-07-19T09:21:41Z</time>
      </trkpt>
      <trkpt lat="45.41932" lon="4.62059">
        <ele>950.4424</ele>
        <time>2021-07-19T09:21:42Z</time>
      </trkpt>
      <trkpt lat="45.41929" lon="4.6206">
        <ele>950.66437</ele>
        <time>2021-07-19T09:21:43Z</time>
      </trkpt>
      <trkpt lat="45.41927" lon="4.62061">
        <ele>950.74884</ele>
        <time>2021-07-19T09:21:44Z</time>
      </trkpt>
      <trkpt lat="45.41924" lon="4.62061">
        <ele>951.0871</ele>
        <time>2021-07-19T09:21:45Z</time>
      </trkpt>
      <trkpt lat="45.41924" lon="4.62061">
        <ele>951.33014</ele>
        <time>2021-07-19T09:21:46Z</time>
      </trkpt>
      <trkpt lat="45.41922" lon="4.62061">
        <ele>951.5363</ele>
        <time>2021-07-19T09:21:47Z</time>
      </trkpt>
      <trkpt lat="45.41921" lon="4.6206">
        <ele>951.7318</ele>
        <time>2021-07-19T09:21:48Z</time>
      </trkpt>
      <trkpt lat="45.41917" lon="4.6206">
        <ele>952.0806</ele>
        <time>2021-07-19T09:21:49Z</time>
      </trkpt>
      <trkpt lat="45.41914" lon="4.6206">
        <ele>952.1704</ele>
        <time>2021-07-19T09:21:50Z</time>
      </trkpt>
      <trkpt lat="45.41911" lon="4.6206">
        <ele>952.4664</ele>
        <time>2021-07-19T09:21:51Z</time>
      </trkpt>
      <trkpt lat="45.41908" lon="4.6206">
        <ele>952.72534</ele>
        <time>2021-07-19T09:21:52Z</time>
      </trkpt>
      <trkpt lat="45.41906" lon="4.6206">
        <ele>952.979</ele>
        <time>2021-07-19T09:21:53Z</time>
      </trkpt>
      <trkpt lat="45.41904" lon="4.6206">
        <ele>953.3119</ele>
        <time>2021-07-19T09:21:54Z</time>
      </trkpt>
      <trkpt lat="45.41904" lon="4.6206">
        <ele>953.58673</ele>
        <time>2021-07-19T09:21:55Z</time>
      </trkpt>
      <trkpt lat="45.41903" lon="4.62059">
        <ele>953.6026</ele>
        <time>2021-07-19T09:21:56Z</time>
      </trkpt>
      <trkpt lat="45.41903" lon="4.62058">
        <ele>953.93024</ele>
        <time>2021-07-19T09:21:57Z</time>
      </trkpt>
      <trkpt lat="45.41902" lon="4.62058">
        <ele>954.3847</ele>
        <time>2021-07-19T09:21:58Z</time>
      </trkpt>
      <trkpt lat="45.41901" lon="4.62056">
        <ele>954.6067</ele>
        <time>2021-07-19T09:21:59Z</time>
      </trkpt>
      <trkpt lat="45.41899" lon="4.62055">
        <ele>954.9502</ele>
        <time>2021-07-19T09:22:00Z</time>
      </trkpt>
      <trkpt lat="45.41897" lon="4.62054">
        <ele>955.04004</ele>
        <time>2021-07-19T09:22:01Z</time>
      </trkpt>
      <trkpt lat="45.41894" lon="4.62052">
        <ele>955.1245</ele>
        <time>2021-07-19T09:22:02Z</time>
      </trkpt>
      <trkpt lat="45.41892" lon="4.62051">
        <ele>955.2883</ele>
        <time>2021-07-19T09:22:03Z</time>
      </trkpt>
      <trkpt lat="45.4189" lon="4.6205">
        <ele>955.7587</ele>
        <time>2021-07-19T09:22:04Z</time>
      </trkpt>
      <trkpt lat="45.41889" lon="4.62049">
        <ele>955.8961</ele>
        <time>2021-07-19T09:22:05Z</time>
      </trkpt>
      <trkpt lat="45.41888" lon="4.62049">
        <ele>956.0388</ele>
        <time>2021-07-19T09:22:06Z</time>
      </trkpt>
      <trkpt lat="45.41887" lon="4.62048">
        <ele>956.36115</ele>
        <time>2021-07-19T09:22:07Z</time>
      </trkpt>
      <trkpt lat="45.41885" lon="4.62047">
        <ele>956.3876</ele>
        <time>2021-07-19T09:22:08Z</time>
      </trkpt>
      <trkpt lat="45.41883" lon="4.62047">
        <ele>956.7998</ele>
        <time>2021-07-19T09:22:09Z</time>
      </trkpt>
      <trkpt lat="45.41882" lon="4.62046">
        <ele>957.04816</ele>
        <time>2021-07-19T09:22:10Z</time>
      </trkpt>
      <trkpt lat="45.4188" lon="4.62043">
        <ele>957.3019</ele>
        <time>2021-07-19T09:22:11Z</time>
      </trkpt>
      <trkpt lat="45.41876" lon="4.62041">
        <ele>957.57666</ele>
        <time>2021-07-19T09:22:12Z</time>
      </trkpt>
      <trkpt lat="45.41873" lon="4.6204">
        <ele>957.77216</ele>
        <time>2021-07-19T09:22:13Z</time>
      </trkpt>
      <trkpt lat="45.41871" lon="4.62039">
        <ele>958.0047</ele>
        <time>2021-07-19T09:22:14Z</time>
      </trkpt>
      <trkpt lat="45.41869" lon="4.62038">
        <ele>958.21075</ele>
        <time>2021-07-19T09:22:15Z</time>
      </trkpt>
      <trkpt lat="45.41868" lon="4.62038">
        <ele>958.5173</ele>
        <time>2021-07-19T09:22:16Z</time>
      </trkpt>
      <trkpt lat="45.41867" lon="4.62037">
        <ele>958.74457</ele>
        <time>2021-07-19T09:22:17Z</time>
      </trkpt>
      <trkpt lat="45.41865" lon="4.62034">
        <ele>958.9877</ele>
        <time>2021-07-19T09:22:18Z</time>
      </trkpt>
      <trkpt lat="45.41864" lon="4.62032">
        <ele>959.2043</ele>
        <time>2021-07-19T09:22:19Z</time>
      </trkpt>
      <trkpt lat="45.41862" lon="4.62031">
        <ele>959.421</ele>
        <time>2021-07-19T09:22:20Z</time>
      </trkpt>
      <trkpt lat="45.41859" lon="4.62029">
        <ele>959.5795</ele>
        <time>2021-07-19T09:22:21Z</time>
      </trkpt>
      <trkpt lat="45.41856" lon="4.62029">
        <ele>959.96</ele>
        <time>2021-07-19T09:22:22Z</time>
      </trkpt>
      <trkpt lat="45.41852" lon="4.62027">
        <ele>960.0498</ele>
        <time>2021-07-19T09:22:23Z</time>
      </trkpt>
      <trkpt lat="45.41848" lon="4.62026">
        <ele>960.2136</ele>
        <time>2021-07-19T09:22:24Z</time>
      </trkpt>
      <trkpt lat="45.41845" lon="4.62025">
        <ele>960.4726</ele>
        <time>2021-07-19T09:22:25Z</time>
      </trkpt>
      <trkpt lat="45.41842" lon="4.62024">
        <ele>960.7527</ele>
        <time>2021-07-19T09:22:26Z</time>
      </trkpt>
      <trkpt lat="45.4184" lon="4.62024">
        <ele>960.8795</ele>
        <time>2021-07-19T09:22:27Z</time>
      </trkpt>
      <trkpt lat="45.41837" lon="4.62023">
        <ele>961.01166</ele>
        <time>2021-07-19T09:22:28Z</time>
      </trkpt>
      <trkpt lat="45.41835" lon="4.62022">
        <ele>961.1755</ele>
        <time>2021-07-19T09:22:29Z</time>
      </trkpt>
      <trkpt lat="45.4183" lon="4.62022">
        <ele>961.445</ele>
        <time>2021-07-19T09:22:30Z</time>
      </trkpt>
      <trkpt lat="45.41827" lon="4.62023">
        <ele>961.63525</ele>
        <time>2021-07-19T09:22:31Z</time>
      </trkpt>
      <trkpt lat="45.41823" lon="4.62023">
        <ele>961.7938</ele>
        <time>2021-07-19T09:22:32Z</time>
      </trkpt>
      <trkpt lat="45.41819" lon="4.62024">
        <ele>962.12146</ele>
        <time>2021-07-19T09:22:33Z</time>
      </trkpt>
      <trkpt lat="45.41816" lon="4.62025">
        <ele>962.2113</ele>
        <time>2021-07-19T09:22:34Z</time>
      </trkpt>
      <trkpt lat="45.41813" lon="4.62024">
        <ele>962.35925</ele>
        <time>2021-07-19T09:22:35Z</time>
      </trkpt>
      <trkpt lat="45.41809" lon="4.62024">
        <ele>962.5653</ele>
        <time>2021-07-19T09:22:36Z</time>
      </trkpt>
      <trkpt lat="45.41804" lon="4.62023">
        <ele>962.75024</ele>
        <time>2021-07-19T09:22:37Z</time>
      </trkpt>
      <trkpt lat="45.418" lon="4.62022">
        <ele>962.9617</ele>
        <time>2021-07-19T09:22:38Z</time>
      </trkpt>
      <trkpt lat="45.41797" lon="4.62022">
        <ele>963.1995</ele>
        <time>2021-07-19T09:22:39Z</time>
      </trkpt>
      <trkpt lat="45.41794" lon="4.62022">
        <ele>963.3686</ele>
        <time>2021-07-19T09:22:40Z</time>
      </trkpt>
      <trkpt lat="45.41791" lon="4.62022">
        <ele>963.65924</ele>
        <time>2021-07-19T09:22:41Z</time>
      </trkpt>
      <trkpt lat="45.41788" lon="4.62022">
        <ele>963.93933</ele>
        <time>2021-07-19T09:22:42Z</time>
      </trkpt>
      <trkpt lat="45.41786" lon="4.62022">
        <ele>964.19305</ele>
        <time>2021-07-19T09:22:43Z</time>
      </trkpt>
      <trkpt lat="45.41785" lon="4.62023">
        <ele>964.3146</ele>
        <time>2021-07-19T09:22:44Z</time>
      </trkpt>
      <trkpt lat="45.41783" lon="4.62023">
        <ele>964.68445</ele>
        <time>2021-07-19T09:22:45Z</time>
      </trkpt>
      <trkpt lat="45.41781" lon="4.62023">
        <ele>964.76904</ele>
        <time>2021-07-19T09:22:46Z</time>
      </trkpt>
      <trkpt lat="45.41778" lon="4.62023">
        <ele>964.96454</ele>
        <time>2021-07-19T09:22:47Z</time>
      </trkpt>
      <trkpt lat="45.41775" lon="4.62023">
        <ele>965.10724</ele>
        <time>2021-07-19T09:22:48Z</time>
      </trkpt>
      <trkpt lat="45.41771" lon="4.62023">
        <ele>965.3979</ele>
        <time>2021-07-19T09:22:49Z</time>
      </trkpt>
      <trkpt lat="45.41768" lon="4.62022">
        <ele>965.54584</ele>
        <time>2021-07-19T09:22:50Z</time>
      </trkpt>
      <trkpt lat="45.41766" lon="4.6202">
        <ele>965.63574</ele>
        <time>2021-07-19T09:22:51Z</time>
      </trkpt>
      <trkpt lat="45.41762" lon="4.62021">
        <ele>965.8894</ele>
        <time>2021-07-19T09:22:52Z</time>
      </trkpt>
      <trkpt lat="45.41756" lon="4.62022">
        <ele>966.3491</ele>
        <time>2021-07-19T09:22:53Z</time>
      </trkpt>
      <trkpt lat="45.41751" lon="4.62024">
        <ele>966.28577</ele>
        <time>2021-07-19T09:22:54Z</time>
      </trkpt>
      <trkpt lat="45.41744" lon="4.62026">
        <ele>966.402</ele>
        <time>2021-07-19T09:22:55Z</time>
      </trkpt>
      <trkpt lat="45.41738" lon="4.62027">
        <ele>966.72437</ele>
        <time>2021-07-19T09:22:56Z</time>
      </trkpt>
      <trkpt lat="45.41734" lon="4.62028">
        <ele>967.0573</ele>
        <time>2021-07-19T09:22:57Z</time>
      </trkpt>
      <trkpt lat="45.4173" lon="4.62028">
        <ele>967.1947</ele>
        <time>2021-07-19T09:22:58Z</time>
      </trkpt>
      <trkpt lat="45.41726" lon="4.62028">
        <ele>967.44305</ele>
        <time>2021-07-19T09:22:59Z</time>
      </trkpt>
      <trkpt lat="45.41721" lon="4.62028">
        <ele>967.7496</ele>
        <time>2021-07-19T09:23:00Z</time>
      </trkpt>
      <trkpt lat="45.41719" lon="4.62028">
        <ele>967.9504</ele>
        <time>2021-07-19T09:23:01Z</time>
      </trkpt>
      <trkpt lat="45.41715" lon="4.62028">
        <ele>968.58984</ele>
        <time>2021-07-19T09:23:02Z</time>
      </trkpt>
      <trkpt lat="45.41713" lon="4.62029">
        <ele>968.1935</ele>
        <time>2021-07-19T09:23:03Z</time>
      </trkpt>
      <trkpt lat="45.4171" lon="4.62029">
        <ele>968.36255</ele>
        <time>2021-07-19T09:23:04Z</time>
      </trkpt>
      <trkpt lat="45.41708" lon="4.6203">
        <ele>968.8277</ele>
        <time>2021-07-19T09:23:05Z</time>
      </trkpt>
      <trkpt lat="45.41704" lon="4.62031">
        <ele>969.0813</ele>
        <time>2021-07-19T09:23:06Z</time>
      </trkpt>
      <trkpt lat="45.41702" lon="4.62032">
        <ele>969.0443</ele>
        <time>2021-07-19T09:23:07Z</time>
      </trkpt>
      <trkpt lat="45.41699" lon="4.62032">
        <ele>969.52527</ele>
        <time>2021-07-19T09:23:08Z</time>
      </trkpt>
      <trkpt lat="45.41695" lon="4.62032">
        <ele>969.985</ele>
        <time>2021-07-19T09:23:09Z</time>
      </trkpt>
      <trkpt lat="45.41692" lon="4.62033">
        <ele>970.0484</ele>
        <time>2021-07-19T09:23:10Z</time>
      </trkpt>
      <trkpt lat="45.41688" lon="4.62034">
        <ele>970.0378</ele>
        <time>2021-07-19T09:23:11Z</time>
      </trkpt>
      <trkpt lat="45.41686" lon="4.62034">
        <ele>970.10126</ele>
        <time>2021-07-19T09:23:12Z</time>
      </trkpt>
      <trkpt lat="45.41682" lon="4.62034">
        <ele>970.9309</ele>
        <time>2021-07-19T09:23:13Z</time>
      </trkpt>
      <trkpt lat="45.41679" lon="4.62034">
        <ele>970.85693</ele>
        <time>2021-07-19T09:23:14Z</time>
      </trkpt>
      <trkpt lat="45.41676" lon="4.62034">
        <ele>971.15814</ele>
        <time>2021-07-19T09:23:15Z</time>
      </trkpt>
      <trkpt lat="45.41673" lon="4.62034">
        <ele>971.2586</ele>
        <time>2021-07-19T09:23:16Z</time>
      </trkpt>
      <trkpt lat="45.4167" lon="4.62034">
        <ele>971.68134</ele>
        <time>2021-07-19T09:23:17Z</time>
      </trkpt>
      <trkpt lat="45.41668" lon="4.62034">
        <ele>971.6126</ele>
        <time>2021-07-19T09:23:18Z</time>
      </trkpt>
      <trkpt lat="45.41666" lon="4.62034">
        <ele>971.59674</ele>
        <time>2021-07-19T09:23:19Z</time>
      </trkpt>
      <trkpt lat="45.41663" lon="4.62034">
        <ele>972.30493</ele>
        <time>2021-07-19T09:23:20Z</time>
      </trkpt>
      <trkpt lat="45.4166" lon="4.62035">
        <ele>972.5533</ele>
        <time>2021-07-19T09:23:21Z</time>
      </trkpt>
      <trkpt lat="45.41658" lon="4.62034">
        <ele>972.3313</ele>
        <time>2021-07-19T09:23:22Z</time>
      </trkpt>
      <trkpt lat="45.41655" lon="4.62035">
        <ele>972.8545</ele>
        <time>2021-07-19T09:23:23Z</time>
      </trkpt>
      <trkpt lat="45.41652" lon="4.62036">
        <ele>973.1663</ele>
        <time>2021-07-19T09:23:24Z</time>
      </trkpt>
      <trkpt lat="45.41649" lon="4.62037">
        <ele>973.7001</ele>
        <time>2021-07-19T09:23:25Z</time>
      </trkpt>
      <trkpt lat="45.41645" lon="4.62037">
        <ele>973.6631</ele>
        <time>2021-07-19T09:23:26Z</time>
      </trkpt>
      <trkpt lat="45.41643" lon="4.62039">
        <ele>974.14923</ele>
        <time>2021-07-19T09:23:27Z</time>
      </trkpt>
      <trkpt lat="45.41641" lon="4.62041">
        <ele>974.34485</ele>
        <time>2021-07-19T09:23:28Z</time>
      </trkpt>
      <trkpt lat="45.41639" lon="4.62042">
        <ele>974.60376</ele>
        <time>2021-07-19T09:23:29Z</time>
      </trkpt>
      <trkpt lat="45.41636" lon="4.62044">
        <ele>974.54034</ele>
        <time>2021-07-19T09:23:30Z</time>
      </trkpt>
      <trkpt lat="45.41634" lon="4.62045">
        <ele>974.9155</ele>
        <time>2021-07-19T09:23:31Z</time>
      </trkpt>
      <trkpt lat="45.41631" lon="4.62046">
        <ele>975.38586</ele>
        <time>2021-07-19T09:23:32Z</time>
      </trkpt>
      <trkpt lat="45.41629" lon="4.62047">
        <ele>975.13745</ele>
        <time>2021-07-19T09:23:33Z</time>
      </trkpt>
      <trkpt lat="45.41628" lon="4.62049">
        <ele>975.64484</ele>
        <time>2021-07-19T09:23:34Z</time>
      </trkpt>
      <trkpt lat="45.41626" lon="4.62051">
        <ele>975.3119</ele>
        <time>2021-07-19T09:23:35Z</time>
      </trkpt>
      <trkpt lat="45.41624" lon="4.62053">
        <ele>975.4969</ele>
        <time>2021-07-19T09:23:36Z</time>
      </trkpt>
      <trkpt lat="45.41622" lon="4.62055">
        <ele>975.8509</ele>
        <time>2021-07-19T09:23:37Z</time>
      </trkpt>
      <trkpt lat="45.4162" lon="4.62057">
        <ele>976.10455</ele>
        <time>2021-07-19T09:23:38Z</time>
      </trkpt>
      <trkpt lat="45.41616" lon="4.62059">
        <ele>976.25256</ele>
        <time>2021-07-19T09:23:39Z</time>
      </trkpt>
      <trkpt lat="45.41614" lon="4.62061">
        <ele>976.6014</ele>
        <time>2021-07-19T09:23:40Z</time>
      </trkpt>
      <trkpt lat="45.41611" lon="4.62062">
        <ele>976.69116</ele>
        <time>2021-07-19T09:23:41Z</time>
      </trkpt>
      <trkpt lat="45.41608" lon="4.62064">
        <ele>977.27246</ele>
        <time>2021-07-19T09:23:42Z</time>
      </trkpt>
      <trkpt lat="45.41606" lon="4.62065">
        <ele>977.21436</ele>
        <time>2021-07-19T09:23:43Z</time>
      </trkpt>
      <trkpt lat="45.41604" lon="4.62067">
        <ele>977.44165</ele>
        <time>2021-07-19T09:23:44Z</time>
      </trkpt>
      <trkpt lat="45.416" lon="4.62069">
        <ele>977.74286</ele>
        <time>2021-07-19T09:23:45Z</time>
      </trkpt>
      <trkpt lat="45.41598" lon="4.6207">
        <ele>977.84326</ele>
        <time>2021-07-19T09:23:46Z</time>
      </trkpt>
      <trkpt lat="45.41595" lon="4.62072">
        <ele>978.0335</ele>
        <time>2021-07-19T09:23:47Z</time>
      </trkpt>
      <trkpt lat="45.41592" lon="4.62073">
        <ele>978.1709</ele>
        <time>2021-07-19T09:23:48Z</time>
      </trkpt>
      <trkpt lat="45.41588" lon="4.62073">
        <ele>978.6729</ele>
        <time>2021-07-19T09:23:49Z</time>
      </trkpt>
      <trkpt lat="45.41585" lon="4.62074">
        <ele>978.7205</ele>
        <time>2021-07-19T09:23:50Z</time>
      </trkpt>
      <trkpt lat="45.41582" lon="4.62075">
        <ele>978.8896</ele>
        <time>2021-07-19T09:23:51Z</time>
      </trkpt>
      <trkpt lat="45.41579" lon="4.62077">
        <ele>979.26483</ele>
        <time>2021-07-19T09:23:52Z</time>
      </trkpt>
      <trkpt lat="45.41577" lon="4.62078">
        <ele>979.1961</ele>
        <time>2021-07-19T09:23:53Z</time>
      </trkpt>
      <trkpt lat="45.41575" lon="4.6208">
        <ele>979.2754</ele>
        <time>2021-07-19T09:23:54Z</time>
      </trkpt>
      <trkpt lat="45.41573" lon="4.62081">
        <ele>979.70874</ele>
        <time>2021-07-19T09:23:55Z</time>
      </trkpt>
      <trkpt lat="45.41571" lon="4.62082">
        <ele>980.20544</ele>
        <time>2021-07-19T09:23:56Z</time>
      </trkpt>
      <trkpt lat="45.41568" lon="4.62085">
        <ele>980.4591</ele>
        <time>2021-07-19T09:23:57Z</time>
      </trkpt>
      <trkpt lat="45.41565" lon="4.62088">
        <ele>980.4169</ele>
        <time>2021-07-19T09:23:58Z</time>
      </trkpt>
      <trkpt lat="45.41562" lon="4.62091">
        <ele>980.69696</ele>
        <time>2021-07-19T09:23:59Z</time>
      </trkpt>
      <trkpt lat="45.41559" lon="4.62095">
        <ele>981.2307</ele>
        <time>2021-07-19T09:24:00Z</time>
      </trkpt>
      <trkpt lat="45.41555" lon="4.62098">
        <ele>981.0087</ele>
        <time>2021-07-19T09:24:01Z</time>
      </trkpt>
      <trkpt lat="45.41551" lon="4.62101">
        <ele>981.37866</ele>
        <time>2021-07-19T09:24:02Z</time>
      </trkpt>
      <trkpt lat="45.41549" lon="4.62104">
        <ele>981.8701</ele>
        <time>2021-07-19T09:24:03Z</time>
      </trkpt>
      <trkpt lat="45.41546" lon="4.62105">
        <ele>981.9705</ele>
        <time>2021-07-19T09:24:04Z</time>
      </trkpt>
      <trkpt lat="45.41544" lon="4.62107">
        <ele>982.07623</ele>
        <time>2021-07-19T09:24:05Z</time>
      </trkpt>
      <trkpt lat="45.41542" lon="4.6211">
        <ele>982.1819</ele>
        <time>2021-07-19T09:24:06Z</time>
      </trkpt>
      <trkpt lat="45.4154" lon="4.62112">
        <ele>982.56244</ele>
        <time>2021-07-19T09:24:07Z</time>
      </trkpt>
      <trkpt lat="45.41539" lon="4.62113">
        <ele>982.66284</ele>
        <time>2021-07-19T09:24:08Z</time>
      </trkpt>
      <trkpt lat="45.41538" lon="4.62115">
        <ele>983.0592</ele>
        <time>2021-07-19T09:24:09Z</time>
      </trkpt>
      <trkpt lat="45.41536" lon="4.62116">
        <ele>983.1332</ele>
        <time>2021-07-19T09:24:10Z</time>
      </trkpt>
      <trkpt lat="45.41534" lon="4.62119">
        <ele>983.48724</ele>
        <time>2021-07-19T09:24:11Z</time>
      </trkpt>
      <trkpt lat="45.41531" lon="4.62121">
        <ele>983.60345</ele>
        <time>2021-07-19T09:24:12Z</time>
      </trkpt>
      <trkpt lat="45.41529" lon="4.62123">
        <ele>983.83075</ele>
        <time>2021-07-19T09:24:13Z</time>
      </trkpt>
      <trkpt lat="45.41526" lon="4.62124">
        <ele>984.26404</ele>
        <time>2021-07-19T09:24:14Z</time>
      </trkpt>
      <trkpt lat="45.41522" lon="4.62125">
        <ele>984.34863</ele>
        <time>2021-07-19T09:24:15Z</time>
      </trkpt>
      <trkpt lat="45.4152" lon="4.62125">
        <ele>984.6129</ele>
        <time>2021-07-19T09:24:16Z</time>
      </trkpt>
      <trkpt lat="45.41518" lon="4.62126">
        <ele>984.8031</ele>
        <time>2021-07-19T09:24:17Z</time>
      </trkpt>
      <trkpt lat="45.41518" lon="4.62127">
        <ele>985.25757</ele>
        <time>2021-07-19T09:24:18Z</time>
      </trkpt>
      <trkpt lat="45.41515" lon="4.62129">
        <ele>985.4478</ele>
        <time>2021-07-19T09:24:19Z</time>
      </trkpt>
      <trkpt lat="45.41512" lon="4.62131">
        <ele>985.6117</ele>
        <time>2021-07-19T09:24:20Z</time>
      </trkpt>
      <trkpt lat="45.4151" lon="4.62133">
        <ele>985.8072</ele>
        <time>2021-07-19T09:24:21Z</time>
      </trkpt>
      <trkpt lat="45.41508" lon="4.62134">
        <ele>986.09784</ele>
        <time>2021-07-19T09:24:22Z</time>
      </trkpt>
      <trkpt lat="45.41507" lon="4.62135">
        <ele>986.18243</ele>
        <time>2021-07-19T09:24:23Z</time>
      </trkpt>
      <trkpt lat="45.41507" lon="4.62136">
        <ele>986.45197</ele>
        <time>2021-07-19T09:24:24Z</time>
      </trkpt>
      <trkpt lat="45.41507" lon="4.62136">
        <ele>986.45197</ele>
        <time>2021-07-19T09:24:24Z</time>
      </trkpt>
      <trkpt lat="45.41507" lon="4.62136">
        <ele>986.45197</ele>
        <time>2021-07-19T09:24:24Z</time>
      </trkpt>
      <trkpt lat="45.41484" lon="4.62152">
        <ele>988.58167</ele>
        <time>2021-07-19T09:24:33Z</time>
      </trkpt>
      <trkpt lat="45.41481" lon="4.62152">
        <ele>988.8723</ele>
        <time>2021-07-19T09:24:34Z</time>
      </trkpt>
      <trkpt lat="45.41477" lon="4.62153">
        <ele>989.0889</ele>
        <time>2021-07-19T09:24:35Z</time>
      </trkpt>
      <trkpt lat="45.41472" lon="4.62155">
        <ele>989.2263</ele>
        <time>2021-07-19T09:24:36Z</time>
      </trkpt>
      <trkpt lat="45.41467" lon="4.62156">
        <ele>989.369</ele>
        <time>2021-07-19T09:24:37Z</time>
      </trkpt>
      <trkpt lat="45.41463" lon="4.62158">
        <ele>989.6914</ele>
        <time>2021-07-19T09:24:38Z</time>
      </trkpt>
      <trkpt lat="45.41459" lon="4.6216">
        <ele>989.6227</ele>
        <time>2021-07-19T09:24:39Z</time>
      </trkpt>
      <trkpt lat="45.41457" lon="4.62162">
        <ele>989.8552</ele>
        <time>2021-07-19T09:24:40Z</time>
      </trkpt>
      <trkpt lat="45.41455" lon="4.62165">
        <ele>989.98737</ele>
        <time>2021-07-19T09:24:41Z</time>
      </trkpt>
      <trkpt lat="45.41453" lon="4.62167">
        <ele>990.315</ele>
        <time>2021-07-19T09:24:42Z</time>
      </trkpt>
      <trkpt lat="45.41451" lon="4.62169">
        <ele>990.54755</ele>
        <time>2021-07-19T09:24:43Z</time>
      </trkpt>
      <trkpt lat="45.4145" lon="4.62171">
        <ele>990.7694</ele>
        <time>2021-07-19T09:24:44Z</time>
      </trkpt>
      <trkpt lat="45.41447" lon="4.62173">
        <ele>990.95447</ele>
        <time>2021-07-19T09:24:45Z</time>
      </trkpt>
      <trkpt lat="45.41445" lon="4.62175">
        <ele>991.31903</ele>
        <time>2021-07-19T09:24:46Z</time>
      </trkpt>
      <trkpt lat="45.41443" lon="4.62178">
        <ele>991.3772</ele>
        <time>2021-07-19T09:24:47Z</time>
      </trkpt>
      <trkpt lat="45.4144" lon="4.6218">
        <ele>991.689</ele>
        <time>2021-07-19T09:24:48Z</time>
      </trkpt>
      <trkpt lat="45.41438" lon="4.62182">
        <ele>991.9109</ele>
        <time>2021-07-19T09:24:49Z</time>
      </trkpt>
      <trkpt lat="45.41435" lon="4.62185">
        <ele>992.0219</ele>
        <time>2021-07-19T09:24:50Z</time>
      </trkpt>
      <trkpt lat="45.41433" lon="4.62187">
        <ele>992.3337</ele>
        <time>2021-07-19T09:24:51Z</time>
      </trkpt>
      <trkpt lat="45.41431" lon="4.62189">
        <ele>992.5821</ele>
        <time>2021-07-19T09:24:52Z</time>
      </trkpt>
      <trkpt lat="45.41429" lon="4.62191">
        <ele>992.7406</ele>
        <time>2021-07-19T09:24:53Z</time>
      </trkpt>
      <trkpt lat="45.41427" lon="4.62193">
        <ele>992.952</ele>
        <time>2021-07-19T09:24:54Z</time>
      </trkpt>
      <trkpt lat="45.41426" lon="4.62194">
        <ele>993.07886</ele>
        <time>2021-07-19T09:24:55Z</time>
      </trkpt>
      <trkpt lat="45.41423" lon="4.62197">
        <ele>993.3272</ele>
        <time>2021-07-19T09:24:56Z</time>
      </trkpt>
      <trkpt lat="45.41422" lon="4.622">
        <ele>993.55975</ele>
        <time>2021-07-19T09:24:57Z</time>
      </trkpt>
      <trkpt lat="45.4142" lon="4.62203">
        <ele>993.76056</ele>
        <time>2021-07-19T09:24:58Z</time>
      </trkpt>
      <trkpt lat="45.41418" lon="4.62205">
        <ele>993.7923</ele>
        <time>2021-07-19T09:24:59Z</time>
      </trkpt>
      <trkpt lat="45.41415" lon="4.62207">
        <ele>994.17804</ele>
        <time>2021-07-19T09:25:00Z</time>
      </trkpt>
      <trkpt lat="45.41413" lon="4.62209">
        <ele>994.52686</ele>
        <time>2021-07-19T09:25:01Z</time>
      </trkpt>
      <trkpt lat="45.4141" lon="4.62211">
        <ele>994.5004</ele>
        <time>2021-07-19T09:25:02Z</time>
      </trkpt>
      <trkpt lat="45.41409" lon="4.62213">
        <ele>994.88086</ele>
        <time>2021-07-19T09:25:03Z</time>
      </trkpt>
      <trkpt lat="45.41406" lon="4.62214">
        <ele>995.0659</ele>
        <time>2021-07-19T09:25:04Z</time>
      </trkpt>
      <trkpt lat="45.41403" lon="4.62217">
        <ele>995.4199</ele>
        <time>2021-07-19T09:25:05Z</time>
      </trkpt>
      <trkpt lat="45.41401" lon="4.62218">
        <ele>995.49396</ele>
        <time>2021-07-19T09:25:06Z</time>
      </trkpt>
      <trkpt lat="45.41399" lon="4.62219">
        <ele>995.8691</ele>
        <time>2021-07-19T09:25:07Z</time>
      </trkpt>
      <trkpt lat="45.41397" lon="4.62221">
        <ele>996.1915</ele>
        <time>2021-07-19T09:25:08Z</time>
      </trkpt>
      <trkpt lat="45.41394" lon="4.62224">
        <ele>996.387</ele>
        <time>2021-07-19T09:25:09Z</time>
      </trkpt>
      <trkpt lat="45.41391" lon="4.62227">
        <ele>996.6143</ele>
        <time>2021-07-19T09:25:10Z</time>
      </trkpt>
      <trkpt lat="45.41388" lon="4.62229">
        <ele>996.79926</ele>
        <time>2021-07-19T09:25:11Z</time>
      </trkpt>
      <trkpt lat="45.41386" lon="4.62231">
        <ele>997.1163</ele>
        <time>2021-07-19T09:25:12Z</time>
      </trkpt>
      <trkpt lat="45.41383" lon="4.62232">
        <ele>997.1481</ele>
        <time>2021-07-19T09:25:13Z</time>
      </trkpt>
      <trkpt lat="45.41382" lon="4.62234">
        <ele>997.51263</ele>
        <time>2021-07-19T09:25:14Z</time>
      </trkpt>
      <trkpt lat="45.41379" lon="4.62237">
        <ele>997.7716</ele>
        <time>2021-07-19T09:25:15Z</time>
      </trkpt>
      <trkpt lat="45.41376" lon="4.6224">
        <ele>998.1944</ele>
        <time>2021-07-19T09:25:16Z</time>
      </trkpt>
      <trkpt lat="45.41372" lon="4.62243">
        <ele>998.1363</ele>
        <time>2021-07-19T09:25:17Z</time>
      </trkpt>
      <trkpt lat="45.41369" lon="4.62247">
        <ele>998.34235</ele>
        <time>2021-07-19T09:25:18Z</time>
      </trkpt>
      <trkpt lat="45.41367" lon="4.62249">
        <ele>998.6594</ele>
        <time>2021-07-19T09:25:19Z</time>
      </trkpt>
      <trkpt lat="45.41364" lon="4.62252">
        <ele>998.8814</ele>
        <time>2021-07-19T09:25:20Z</time>
      </trkpt>
      <trkpt lat="45.41361" lon="4.62255">
        <ele>998.76514</ele>
        <time>2021-07-19T09:25:21Z</time>
      </trkpt>
      <trkpt lat="45.41358" lon="4.62259">
        <ele>999.0927</ele>
        <time>2021-07-19T09:25:22Z</time>
      </trkpt>
      <trkpt lat="45.41356" lon="4.62262">
        <ele>999.34644</ele>
        <time>2021-07-19T09:25:23Z</time>
      </trkpt>
      <trkpt lat="45.41353" lon="4.62266">
        <ele>999.6847</ele>
        <time>2021-07-19T09:25:24Z</time>
      </trkpt>
      <trkpt lat="45.41351" lon="4.62269">
        <ele>999.7586</ele>
        <time>2021-07-19T09:25:25Z</time>
      </trkpt>
      <trkpt lat="45.41349" lon="4.62272">
        <ele>1000.007</ele>
        <time>2021-07-19T09:25:26Z</time>
      </trkpt>
      <trkpt lat="45.41347" lon="4.62276">
        <ele>1000.2131</ele>
        <time>2021-07-19T09:25:27Z</time>
      </trkpt>
      <trkpt lat="45.41345" lon="4.6228">
        <ele>1000.46674</ele>
        <time>2021-07-19T09:25:28Z</time>
      </trkpt>
      <trkpt lat="45.41343" lon="4.62283">
        <ele>1000.85785</ele>
        <time>2021-07-19T09:25:29Z</time>
      </trkpt>
      <trkpt lat="45.41339" lon="4.62286">
        <ele>1000.94763</ele>
        <time>2021-07-19T09:25:30Z</time>
      </trkpt>
      <trkpt lat="45.41336" lon="4.62288">
        <ele>1001.0639</ele>
        <time>2021-07-19T09:25:31Z</time>
      </trkpt>
      <trkpt lat="45.41333" lon="4.6229">
        <ele>1001.35455</ele>
        <time>2021-07-19T09:25:32Z</time>
      </trkpt>
      <trkpt lat="45.41331" lon="4.62293">
        <ele>1001.5343</ele>
        <time>2021-07-19T09:25:33Z</time>
      </trkpt>
      <trkpt lat="45.41329" lon="4.62295">
        <ele>1001.93585</ele>
        <time>2021-07-19T09:25:34Z</time>
      </trkpt>
      <trkpt lat="45.41327" lon="4.62297">
        <ele>1002.0521</ele>
        <time>2021-07-19T09:25:35Z</time>
      </trkpt>
      <trkpt lat="45.41325" lon="4.62299">
        <ele>1002.29</ele>
        <time>2021-07-19T09:25:36Z</time>
      </trkpt>
      <trkpt lat="45.41324" lon="4.62302">
        <ele>1002.4379</ele>
        <time>2021-07-19T09:25:37Z</time>
      </trkpt>
      <trkpt lat="45.41322" lon="4.62306">
        <ele>1002.57007</ele>
        <time>2021-07-19T09:25:38Z</time>
      </trkpt>
      <trkpt lat="45.4132" lon="4.62309">
        <ele>1002.7761</ele>
        <time>2021-07-19T09:25:39Z</time>
      </trkpt>
      <trkpt lat="45.41319" lon="4.62313">
        <ele>1002.85016</ele>
        <time>2021-07-19T09:25:40Z</time>
      </trkpt>
      <trkpt lat="45.41317" lon="4.62316">
        <ele>1003.23596</ele>
        <time>2021-07-19T09:25:41Z</time>
      </trkpt>
      <trkpt lat="45.41315" lon="4.62319">
        <ele>1003.46844</ele>
        <time>2021-07-19T09:25:42Z</time>
      </trkpt>
      <trkpt lat="45.41312" lon="4.62323">
        <ele>1003.6005</ele>
        <time>2021-07-19T09:25:43Z</time>
      </trkpt>
      <trkpt lat="45.4131" lon="4.62326">
        <ele>1003.79083</ele>
        <time>2021-07-19T09:25:44Z</time>
      </trkpt>
      <trkpt lat="45.41308" lon="4.62329">
        <ele>1003.9441</ele>
        <time>2021-07-19T09:25:45Z</time>
      </trkpt>
      <trkpt lat="45.41306" lon="4.62333">
        <ele>1004.1449</ele>
        <time>2021-07-19T09:25:46Z</time>
      </trkpt>
      <trkpt lat="45.41303" lon="4.62336">
        <ele>1004.34045</ele>
        <time>2021-07-19T09:25:47Z</time>
      </trkpt>
      <trkpt lat="45.41301" lon="4.6234">
        <ele>1004.5782</ele>
        <time>2021-07-19T09:25:48Z</time>
      </trkpt>
      <trkpt lat="45.41299" lon="4.62343">
        <ele>1004.8266</ele>
        <time>2021-07-19T09:25:49Z</time>
      </trkpt>
      <trkpt lat="45.41297" lon="4.62346">
        <ele>1005.20184</ele>
        <time>2021-07-19T09:25:50Z</time>
      </trkpt>
      <trkpt lat="45.41295" lon="4.62349">
        <ele>1005.5242</ele>
        <time>2021-07-19T09:25:51Z</time>
      </trkpt>
      <trkpt lat="45.41293" lon="4.62351">
        <ele>1005.7144</ele>
        <time>2021-07-19T09:25:52Z</time>
      </trkpt>
      <trkpt lat="45.41291" lon="4.62354">
        <ele>1005.9892</ele>
        <time>2021-07-19T09:25:53Z</time>
      </trkpt>
      <trkpt lat="45.41288" lon="4.62357">
        <ele>1006.3697</ele>
        <time>2021-07-19T09:25:54Z</time>
      </trkpt>
      <trkpt lat="45.41287" lon="4.62359">
        <ele>1006.4966</ele>
        <time>2021-07-19T09:25:55Z</time>
      </trkpt>
      <trkpt lat="45.41285" lon="4.62361">
        <ele>1006.89294</ele>
        <time>2021-07-19T09:25:56Z</time>
      </trkpt>
      <trkpt lat="45.41283" lon="4.62361">
        <ele>1007.10956</ele>
        <time>2021-07-19T09:25:57Z</time>
      </trkpt>
      <trkpt lat="45.41281" lon="4.62361">
        <ele>1007.3632</ele>
        <time>2021-07-19T09:25:58Z</time>
      </trkpt>
      <trkpt lat="45.41279" lon="4.62361">
        <ele>1007.6169</ele>
        <time>2021-07-19T09:25:59Z</time>
      </trkpt>
      <trkpt lat="45.41277" lon="4.6236">
        <ele>1007.66974</ele>
        <time>2021-07-19T09:26:00Z</time>
      </trkpt>
      <trkpt lat="45.41275" lon="4.62359">
        <ele>1008.07666</ele>
        <time>2021-07-19T09:26:01Z</time>
      </trkpt>
      <trkpt lat="45.41273" lon="4.62357">
        <ele>1008.41486</ele>
        <time>2021-07-19T09:26:02Z</time>
      </trkpt>
      <trkpt lat="45.41271" lon="4.62355">
        <ele>1008.4201</ele>
        <time>2021-07-19T09:26:03Z</time>
      </trkpt>
      <trkpt lat="45.41269" lon="4.62353">
        <ele>1008.7108</ele>
        <time>2021-07-19T09:26:04Z</time>
      </trkpt>
      <trkpt lat="45.41267" lon="4.62351">
        <ele>1008.9222</ele>
        <time>2021-07-19T09:26:05Z</time>
      </trkpt>
      <trkpt lat="45.41265" lon="4.62348">
        <ele>1009.2604</ele>
        <time>2021-07-19T09:26:06Z</time>
      </trkpt>
      <trkpt lat="45.41263" lon="4.62344">
        <ele>1009.4929</ele>
        <time>2021-07-19T09:26:07Z</time>
      </trkpt>
      <trkpt lat="45.41261" lon="4.62342">
        <ele>1009.58276</ele>
        <time>2021-07-19T09:26:08Z</time>
      </trkpt>
      <trkpt lat="45.4126" lon="4.62339">
        <ele>1009.88403</ele>
        <time>2021-07-19T09:26:09Z</time>
      </trkpt>
      <trkpt lat="45.41257" lon="4.62336">
        <ele>1010.0478</ele>
        <time>2021-07-19T09:26:10Z</time>
      </trkpt>
      <trkpt lat="45.41255" lon="4.62333">
        <ele>1010.38074</ele>
        <time>2021-07-19T09:26:11Z</time>
      </trkpt>
      <trkpt lat="45.41254" lon="4.6233">
        <ele>1010.44946</ele>
        <time>2021-07-19T09:26:12Z</time>
      </trkpt>
      <trkpt lat="45.41251" lon="4.62326">
        <ele>1010.6714</ele>
        <time>2021-07-19T09:26:13Z</time>
      </trkpt>
      <trkpt lat="45.41249" lon="4.62323">
        <ele>1011.0572</ele>
        <time>2021-07-19T09:26:14Z</time>
      </trkpt>
      <trkpt lat="45.41247" lon="4.6232">
        <ele>1011.36896</ele>
        <time>2021-07-19T09:26:15Z</time>
      </trkpt>
      <trkpt lat="45.41245" lon="4.62316">
        <ele>1011.67554</ele>
        <time>2021-07-19T09:26:16Z</time>
      </trkpt>
      <trkpt lat="45.41243" lon="4.62312">
        <ele>1011.9397</ele>
        <time>2021-07-19T09:26:17Z</time>
      </trkpt>
      <trkpt lat="45.41242" lon="4.62308">
        <ele>1012.2198</ele>
        <time>2021-07-19T09:26:18Z</time>
      </trkpt>
      <trkpt lat="45.4124" lon="4.62305">
        <ele>1012.5475</ele>
        <time>2021-07-19T09:26:19Z</time>
      </trkpt>
      <trkpt lat="45.41238" lon="4.62302">
        <ele>1012.91736</ele>
        <time>2021-07-19T09:26:20Z</time>
      </trkpt>
      <trkpt lat="45.41236" lon="4.62299">
        <ele>1013.17633</ele>
        <time>2021-07-19T09:26:21Z</time>
      </trkpt>
      <trkpt lat="45.41235" lon="4.62296">
        <ele>1013.3507</ele>
        <time>2021-07-19T09:26:22Z</time>
      </trkpt>
      <trkpt lat="45.41233" lon="4.62293">
        <ele>1013.6149</ele>
        <time>2021-07-19T09:26:23Z</time>
      </trkpt>
      <trkpt lat="45.41231" lon="4.6229">
        <ele>1013.78937</ele>
        <time>2021-07-19T09:26:24Z</time>
      </trkpt>
      <trkpt lat="45.41229" lon="4.62288">
        <ele>1014.0589</ele>
        <time>2021-07-19T09:26:25Z</time>
      </trkpt>
      <trkpt lat="45.41228" lon="4.62286">
        <ele>1014.32837</ele>
        <time>2021-07-19T09:26:26Z</time>
      </trkpt>
      <trkpt lat="45.41226" lon="4.62283">
        <ele>1014.68774</ele>
        <time>2021-07-19T09:26:27Z</time>
      </trkpt>
      <trkpt lat="45.41224" lon="4.6228">
        <ele>1014.7987</ele>
        <time>2021-07-19T09:26:28Z</time>
      </trkpt>
      <trkpt lat="45.41222" lon="4.62277">
        <ele>1015.13165</ele>
        <time>2021-07-19T09:26:29Z</time>
      </trkpt>
      <trkpt lat="45.41221" lon="4.62275">
        <ele>1015.3113</ele>
        <time>2021-07-19T09:26:30Z</time>
      </trkpt>
      <trkpt lat="45.41219" lon="4.62273">
        <ele>1015.41174</ele>
        <time>2021-07-19T09:26:31Z</time>
      </trkpt>
      <trkpt lat="45.41217" lon="4.62272">
        <ele>1015.79755</ele>
        <time>2021-07-19T09:26:32Z</time>
      </trkpt>
      <trkpt lat="45.41216" lon="4.6227">
        <ele>1015.9666</ele>
        <time>2021-07-19T09:26:33Z</time>
      </trkpt>
      <trkpt lat="45.41214" lon="4.62267">
        <ele>1016.31006</ele>
        <time>2021-07-19T09:26:34Z</time>
      </trkpt>
      <trkpt lat="45.41213" lon="4.62265">
        <ele>1016.48456</ele>
        <time>2021-07-19T09:26:35Z</time>
      </trkpt>
      <trkpt lat="45.41211" lon="4.62261">
        <ele>1016.7012</ele>
        <time>2021-07-19T09:26:36Z</time>
      </trkpt>
      <trkpt lat="45.41209" lon="4.62258">
        <ele>1017.05</ele>
        <time>2021-07-19T09:26:37Z</time>
      </trkpt>
      <trkpt lat="45.41207" lon="4.62255">
        <ele>1017.30896</ele>
        <time>2021-07-19T09:26:38Z</time>
      </trkpt>
      <trkpt lat="45.41205" lon="4.62252">
        <ele>1017.6947</ele>
        <time>2021-07-19T09:26:39Z</time>
      </trkpt>
      <trkpt lat="45.41204" lon="4.62249">
        <ele>1017.98535</ele>
        <time>2021-07-19T09:26:40Z</time>
      </trkpt>
      <trkpt lat="45.41203" lon="4.62246">
        <ele>1018.03296</ele>
        <time>2021-07-19T09:26:41Z</time>
      </trkpt>
      <trkpt lat="45.41202" lon="4.62242">
        <ele>1018.1545</ele>
        <time>2021-07-19T09:26:42Z</time>
      </trkpt>
      <trkpt lat="45.41202" lon="4.62237">
        <ele>1018.7305</ele>
        <time>2021-07-19T09:26:43Z</time>
      </trkpt>
      <trkpt lat="45.412" lon="4.62236">
        <ele>1019.1162</ele>
        <time>2021-07-19T09:26:44Z</time>
      </trkpt>
      <trkpt lat="45.41198" lon="4.62235">
        <ele>1019.19025</ele>
        <time>2021-07-19T09:26:45Z</time>
      </trkpt>
      <trkpt lat="45.41198" lon="4.62229">
        <ele>1019.5866</ele>
        <time>2021-07-19T09:26:46Z</time>
      </trkpt>
      <trkpt lat="45.41196" lon="4.62226">
        <ele>1019.8191</ele>
        <time>2021-07-19T09:26:47Z</time>
      </trkpt>
      <trkpt lat="45.41195" lon="4.62223">
        <ele>1020.0675</ele>
        <time>2021-07-19T09:26:48Z</time>
      </trkpt>
      <trkpt lat="45.41193" lon="4.6222">
        <ele>1020.32117</ele>
        <time>2021-07-19T09:26:49Z</time>
      </trkpt>
      <trkpt lat="45.41192" lon="4.62217">
        <ele>1020.5537</ele>
        <time>2021-07-19T09:26:50Z</time>
      </trkpt>
      <trkpt lat="45.4119" lon="4.62215">
        <ele>1020.8708</ele>
        <time>2021-07-19T09:26:51Z</time>
      </trkpt>
      <trkpt lat="45.41188" lon="4.62213">
        <ele>1021.07684</ele>
        <time>2021-07-19T09:26:52Z</time>
      </trkpt>
      <trkpt lat="45.41188" lon="4.62211">
        <ele>1021.4732</ele>
        <time>2021-07-19T09:26:53Z</time>
      </trkpt>
      <trkpt lat="45.41186" lon="4.62208">
        <ele>1021.7374</ele>
        <time>2021-07-19T09:26:54Z</time>
      </trkpt>
      <trkpt lat="45.41185" lon="4.62207">
        <ele>1021.7533</ele>
        <time>2021-07-19T09:26:55Z</time>
      </trkpt>
      <trkpt lat="45.41184" lon="4.62206">
        <ele>1022.0334</ele>
        <time>2021-07-19T09:26:56Z</time>
      </trkpt>
      <trkpt lat="45.41183" lon="4.62204">
        <ele>1022.33984</ele>
        <time>2021-07-19T09:26:57Z</time>
      </trkpt>
      <trkpt lat="45.41183" lon="4.62201">
        <ele>1022.59357</ele>
        <time>2021-07-19T09:26:58Z</time>
      </trkpt>
      <trkpt lat="45.41183" lon="4.622">
        <ele>1022.9635</ele>
        <time>2021-07-19T09:26:59Z</time>
      </trkpt>
      <trkpt lat="45.41182" lon="4.62197">
        <ele>1023.2489</ele>
        <time>2021-07-19T09:27:00Z</time>
      </trkpt>
      <trkpt lat="45.4118" lon="4.62195">
        <ele>1023.2383</ele>
        <time>2021-07-19T09:27:01Z</time>
      </trkpt>
      <trkpt lat="45.41178" lon="4.62194">
        <ele>1023.6664</ele>
        <time>2021-07-19T09:27:02Z</time>
      </trkpt>
      <trkpt lat="45.41176" lon="4.62193">
        <ele>1023.8038</ele>
        <time>2021-07-19T09:27:03Z</time>
      </trkpt>
      <trkpt lat="45.41176" lon="4.62191">
        <ele>1024.1261</ele>
        <time>2021-07-19T09:27:04Z</time>
      </trkpt>
      <trkpt lat="45.41174" lon="4.62189">
        <ele>1024.3374</ele>
        <time>2021-07-19T09:27:05Z</time>
      </trkpt>
      <trkpt lat="45.41172" lon="4.62187">
        <ele>1024.512</ele>
        <time>2021-07-19T09:27:06Z</time>
      </trkpt>
      <trkpt lat="45.4117" lon="4.62186">
        <ele>1024.8342</ele>
        <time>2021-07-19T09:27:07Z</time>
      </trkpt>
      <trkpt lat="45.41168" lon="4.62184">
        <ele>1025.0879</ele>
        <time>2021-07-19T09:27:08Z</time>
      </trkpt>
      <trkpt lat="45.41167" lon="4.62181">
        <ele>1025.3785</ele>
        <time>2021-07-19T09:27:09Z</time>
      </trkpt>
      <trkpt lat="45.41166" lon="4.62176">
        <ele>1025.6111</ele>
        <time>2021-07-19T09:27:10Z</time>
      </trkpt>
      <trkpt lat="45.41165" lon="4.62175">
        <ele>1025.8014</ele>
        <time>2021-07-19T09:27:11Z</time>
      </trkpt>
      <trkpt lat="45.41163" lon="4.62173">
        <ele>1026.0233</ele>
        <time>2021-07-19T09:27:12Z</time>
      </trkpt>
      <trkpt lat="45.41161" lon="4.6217">
        <ele>1026.24</ele>
        <time>2021-07-19T09:27:13Z</time>
      </trkpt>
      <trkpt lat="45.41159" lon="4.62169">
        <ele>1026.4884</ele>
        <time>2021-07-19T09:27:14Z</time>
      </trkpt>
      <trkpt lat="45.41157" lon="4.62167">
        <ele>1026.705</ele>
        <time>2021-07-19T09:27:15Z</time>
      </trkpt>
      <trkpt lat="45.41155" lon="4.62165">
        <ele>1027.0221</ele>
        <time>2021-07-19T09:27:16Z</time>
      </trkpt>
      <trkpt lat="45.41153" lon="4.6216">
        <ele>1027.355</ele>
        <time>2021-07-19T09:27:17Z</time>
      </trkpt>
      <trkpt lat="45.41151" lon="4.62156">
        <ele>1027.4448</ele>
        <time>2021-07-19T09:27:18Z</time>
      </trkpt>
      <trkpt lat="45.41149" lon="4.62152">
        <ele>1027.651</ele>
        <time>2021-07-19T09:27:19Z</time>
      </trkpt>
      <trkpt lat="45.41148" lon="4.62149">
        <ele>1027.9205</ele>
        <time>2021-07-19T09:27:20Z</time>
      </trkpt>
      <trkpt lat="45.41145" lon="4.62147">
        <ele>1028.3591</ele>
        <time>2021-07-19T09:27:21Z</time>
      </trkpt>
      <trkpt lat="45.41144" lon="4.62145">
        <ele>1028.5864</ele>
        <time>2021-07-19T09:27:22Z</time>
      </trkpt>
      <trkpt lat="45.41142" lon="4.62143">
        <ele>1028.8241</ele>
        <time>2021-07-19T09:27:23Z</time>
      </trkpt>
      <trkpt lat="45.41139" lon="4.6214">
        <ele>1029.0884</ele>
        <time>2021-07-19T09:27:24Z</time>
      </trkpt>
      <trkpt lat="45.41137" lon="4.62138">
        <ele>1029.2998</ele>
        <time>2021-07-19T09:27:25Z</time>
      </trkpt>
      <trkpt lat="45.41134" lon="4.62136">
        <ele>1029.6274</ele>
        <time>2021-07-19T09:27:26Z</time>
      </trkpt>
      <trkpt lat="45.41131" lon="4.62133">
        <ele>1029.8071</ele>
        <time>2021-07-19T09:27:27Z</time>
      </trkpt>
      <trkpt lat="45.4113" lon="4.62131">
        <ele>1029.9603</ele>
        <time>2021-07-19T09:27:28Z</time>
      </trkpt>
      <trkpt lat="45.41128" lon="4.62129">
        <ele>1030.2562</ele>
        <time>2021-07-19T09:27:29Z</time>
      </trkpt>
      <trkpt lat="45.41126" lon="4.62126">
        <ele>1030.4941</ele>
        <time>2021-07-19T09:27:30Z</time>
      </trkpt>
      <trkpt lat="45.41123" lon="4.62124">
        <ele>1030.6737</ele>
        <time>2021-07-19T09:27:31Z</time>
      </trkpt>
      <trkpt lat="45.41119" lon="4.62122">
        <ele>1030.901</ele>
        <time>2021-07-19T09:27:32Z</time>
      </trkpt>
      <trkpt lat="45.41116" lon="4.6212">
        <ele>1031.2075</ele>
        <time>2021-07-19T09:27:33Z</time>
      </trkpt>
      <trkpt lat="45.41114" lon="4.62118">
        <ele>1031.4453</ele>
        <time>2021-07-19T09:27:34Z</time>
      </trkpt>
      <trkpt lat="45.41113" lon="4.62116">
        <ele>1031.4982</ele>
        <time>2021-07-19T09:27:35Z</time>
      </trkpt>
      <trkpt lat="45.41111" lon="4.62115">
        <ele>1031.6885</ele>
        <time>2021-07-19T09:27:36Z</time>
      </trkpt>
      <trkpt lat="45.41108" lon="4.62113">
        <ele>1031.9896</ele>
        <time>2021-07-19T09:27:37Z</time>
      </trkpt>
      <trkpt lat="45.41106" lon="4.62111">
        <ele>1032.2856</ele>
        <time>2021-07-19T09:27:38Z</time>
      </trkpt>
      <trkpt lat="45.41105" lon="4.62109">
        <ele>1032.5128</ele>
        <time>2021-07-19T09:27:39Z</time>
      </trkpt>
      <trkpt lat="45.41102" lon="4.62107">
        <ele>1032.7136</ele>
        <time>2021-07-19T09:27:40Z</time>
      </trkpt>
      <trkpt lat="45.41101" lon="4.62106">
        <ele>1032.8511</ele>
        <time>2021-07-19T09:27:41Z</time>
      </trkpt>
      <trkpt lat="45.41098" lon="4.62103">
        <ele>1033.1892</ele>
        <time>2021-07-19T09:27:42Z</time>
      </trkpt>
      <trkpt lat="45.41095" lon="4.62102">
        <ele>1033.4852</ele>
        <time>2021-07-19T09:27:43Z</time>
      </trkpt>
      <trkpt lat="45.41092" lon="4.621">
        <ele>1033.6226</ele>
        <time>2021-07-19T09:27:44Z</time>
      </trkpt>
      <trkpt lat="45.4109" lon="4.62098">
        <ele>1033.945</ele>
        <time>2021-07-19T09:27:45Z</time>
      </trkpt>
      <trkpt lat="45.41088" lon="4.62097">
        <ele>1034.1564</ele>
        <time>2021-07-19T09:27:46Z</time>
      </trkpt>
      <trkpt lat="45.41084" lon="4.62096">
        <ele>1034.2991</ele>
        <time>2021-07-19T09:27:47Z</time>
      </trkpt>
      <trkpt lat="45.41081" lon="4.62096">
        <ele>1034.6426</ele>
        <time>2021-07-19T09:27:48Z</time>
      </trkpt>
      <trkpt lat="45.41078" lon="4.62096">
        <ele>1034.7853</ele>
        <time>2021-07-19T09:27:50Z</time>
      </trkpt>
      <trkpt lat="45.41076" lon="4.62095">
        <ele>1034.9755</ele>
        <time>2021-07-19T09:27:50Z</time>
      </trkpt>
      <trkpt lat="45.41072" lon="4.62094">
        <ele>1035.2344</ele>
        <time>2021-07-19T09:27:51Z</time>
      </trkpt>
      <trkpt lat="45.4107" lon="4.62093">
        <ele>1035.4458</ele>
        <time>2021-07-19T09:27:53Z</time>
      </trkpt>
      <trkpt lat="45.41068" lon="4.62093">
        <ele>1035.6042</ele>
        <time>2021-07-19T09:27:54Z</time>
      </trkpt>
      <trkpt lat="45.41065" lon="4.62092">
        <ele>1035.8685</ele>
        <time>2021-07-19T09:27:55Z</time>
      </trkpt>
      <trkpt lat="45.41063" lon="4.62092">
        <ele>1036.1276</ele>
        <time>2021-07-19T09:27:56Z</time>
      </trkpt>
      <trkpt lat="45.41061" lon="4.6209">
        <ele>1036.3019</ele>
        <time>2021-07-19T09:27:57Z</time>
      </trkpt>
      <trkpt lat="45.41059" lon="4.62089">
        <ele>1036.5608</ele>
        <time>2021-07-19T09:27:58Z</time>
      </trkpt>
      <trkpt lat="45.41057" lon="4.62087">
        <ele>1036.8303</ele>
        <time>2021-07-19T09:27:59Z</time>
      </trkpt>
      <trkpt lat="45.41055" lon="4.62085">
        <ele>1036.9889</ele>
        <time>2021-07-19T09:28:00Z</time>
      </trkpt>
      <trkpt lat="45.41054" lon="4.62083">
        <ele>1037.2848</ele>
        <time>2021-07-19T09:28:01Z</time>
      </trkpt>
      <trkpt lat="45.41053" lon="4.62081">
        <ele>1037.3535</ele>
        <time>2021-07-19T09:28:02Z</time>
      </trkpt>
      <trkpt lat="45.41051" lon="4.6208">
        <ele>1037.5438</ele>
        <time>2021-07-19T09:28:03Z</time>
      </trkpt>
      <trkpt lat="45.4105" lon="4.62079">
        <ele>1037.898</ele>
        <time>2021-07-19T09:28:04Z</time>
      </trkpt>
      <trkpt lat="45.41048" lon="4.62077">
        <ele>1038.0829</ele>
        <time>2021-07-19T09:28:05Z</time>
      </trkpt>
      <trkpt lat="45.41046" lon="4.62077">
        <ele>1038.5109</ele>
        <time>2021-07-19T09:28:06Z</time>
      </trkpt>
      <trkpt lat="45.41043" lon="4.62076">
        <ele>1038.6536</ele>
        <time>2021-07-19T09:28:07Z</time>
      </trkpt>
      <trkpt lat="45.4104" lon="4.62075">
        <ele>1038.8702</ele>
        <time>2021-07-19T09:28:08Z</time>
      </trkpt>
      <trkpt lat="45.41037" lon="4.62074">
        <ele>1039.1344</ele>
        <time>2021-07-19T09:28:09Z</time>
      </trkpt>
      <trkpt lat="45.41034" lon="4.62072">
        <ele>1039.3564</ele>
        <time>2021-07-19T09:28:10Z</time>
      </trkpt>
      <trkpt lat="45.41031" lon="4.62071">
        <ele>1039.6841</ele>
        <time>2021-07-19T09:28:11Z</time>
      </trkpt>
      <trkpt lat="45.41028" lon="4.62068">
        <ele>1039.8109</ele>
        <time>2021-07-19T09:28:12Z</time>
      </trkpt>
      <trkpt lat="45.41027" lon="4.62065">
        <ele>1039.8214</ele>
        <time>2021-07-19T09:28:13Z</time>
      </trkpt>
      <trkpt lat="45.41025" lon="4.62063">
        <ele>1039.9377</ele>
        <time>2021-07-19T09:28:14Z</time>
      </trkpt>
      <trkpt lat="45.41021" lon="4.62061">
        <ele>1040.1544</ele>
        <time>2021-07-19T09:28:15Z</time>
      </trkpt>
      <trkpt lat="45.4102" lon="4.6206">
        <ele>1040.3552</ele>
        <time>2021-07-19T09:28:16Z</time>
      </trkpt>
      <trkpt lat="45.41018" lon="4.62058">
        <ele>1040.5243</ele>
        <time>2021-07-19T09:28:17Z</time>
      </trkpt>
      <trkpt lat="45.41017" lon="4.62055">
        <ele>1040.6141</ele>
        <time>2021-07-19T09:28:18Z</time>
      </trkpt>
      <trkpt lat="45.41015" lon="4.62053">
        <ele>1040.8573</ele>
        <time>2021-07-19T09:28:19Z</time>
      </trkpt>
      <trkpt lat="45.41013" lon="4.6205">
        <ele>1041.2642</ele>
        <time>2021-07-19T09:28:20Z</time>
      </trkpt>
      <trkpt lat="45.41011" lon="4.62047">
        <ele>1041.502</ele>
        <time>2021-07-19T09:28:21Z</time>
      </trkpt>
      <trkpt lat="45.41009" lon="4.62043">
        <ele>1041.7186</ele>
        <time>2021-07-19T09:28:22Z</time>
      </trkpt>
      <trkpt lat="45.41007" lon="4.62038">
        <ele>1042.0728</ele>
        <time>2021-07-19T09:28:23Z</time>
      </trkpt>
      <trkpt lat="45.41005" lon="4.62032">
        <ele>1042.2472</ele>
        <time>2021-07-19T09:28:24Z</time>
      </trkpt>
      <trkpt lat="45.41003" lon="4.62028">
        <ele>1042.3845</ele>
        <time>2021-07-19T09:28:25Z</time>
      </trkpt>
      <trkpt lat="45.41002" lon="4.62025">
        <ele>1042.596</ele>
        <time>2021-07-19T09:28:26Z</time>
      </trkpt>
      <trkpt lat="45.41" lon="4.62023">
        <ele>1042.913</ele>
        <time>2021-07-19T09:28:27Z</time>
      </trkpt>
      <trkpt lat="45.40999" lon="4.6202">
        <ele>1042.913</ele>
        <time>2021-07-19T09:28:28Z</time>
      </trkpt>
      <trkpt lat="45.40997" lon="4.62017">
        <ele>1043.1244</ele>
        <time>2021-07-19T09:28:29Z</time>
      </trkpt>
      <trkpt lat="45.40995" lon="4.62014">
        <ele>1043.2512</ele>
        <time>2021-07-19T09:28:30Z</time>
      </trkpt>
      <trkpt lat="45.40992" lon="4.62009">
        <ele>1043.5789</ele>
        <time>2021-07-19T09:28:31Z</time>
      </trkpt>
      <trkpt lat="45.4099" lon="4.62005">
        <ele>1043.7638</ele>
        <time>2021-07-19T09:28:32Z</time>
      </trkpt>
      <trkpt lat="45.40987" lon="4.62001">
        <ele>1043.9541</ele>
        <time>2021-07-19T09:28:33Z</time>
      </trkpt>
      <trkpt lat="45.40984" lon="4.61998">
        <ele>1044.1127</ele>
        <time>2021-07-19T09:28:34Z</time>
      </trkpt>
      <trkpt lat="45.40982" lon="4.61996">
        <ele>1044.2976</ele>
        <time>2021-07-19T09:28:35Z</time>
      </trkpt>
      <trkpt lat="45.4098" lon="4.61995">
        <ele>1044.5935</ele>
        <time>2021-07-19T09:28:36Z</time>
      </trkpt>
      <trkpt lat="45.40979" lon="4.61994">
        <ele>1044.8208</ele>
        <time>2021-07-19T09:28:37Z</time>
      </trkpt>
      <trkpt lat="45.40977" lon="4.61991">
        <ele>1045.0216</ele>
        <time>2021-07-19T09:28:38Z</time>
      </trkpt>
      <trkpt lat="45.40975" lon="4.6199">
        <ele>1045.1959</ele>
        <time>2021-07-19T09:28:39Z</time>
      </trkpt>
      <trkpt lat="45.40973" lon="4.61988">
        <ele>1045.3123</ele>
        <time>2021-07-19T09:28:40Z</time>
      </trkpt>
      <trkpt lat="45.40971" lon="4.61985">
        <ele>1045.5289</ele>
        <time>2021-07-19T09:28:41Z</time>
      </trkpt>
      <trkpt lat="45.40971" lon="4.61982">
        <ele>1045.661</ele>
        <time>2021-07-19T09:28:42Z</time>
      </trkpt>
      <trkpt lat="45.4097" lon="4.6198">
        <ele>1045.8777</ele>
        <time>2021-07-19T09:28:43Z</time>
      </trkpt>
      <trkpt lat="45.40968" lon="4.61978">
        <ele>1046.0732</ele>
        <time>2021-07-19T09:28:44Z</time>
      </trkpt>
      <trkpt lat="45.40965" lon="4.61976">
        <ele>1046.1736</ele>
        <time>2021-07-19T09:28:45Z</time>
      </trkpt>
      <trkpt lat="45.40963" lon="4.61974">
        <ele>1046.4272</ele>
        <time>2021-07-19T09:28:46Z</time>
      </trkpt>
      <trkpt lat="45.40961" lon="4.61972">
        <ele>1046.6809</ele>
        <time>2021-07-19T09:28:47Z</time>
      </trkpt>
      <trkpt lat="45.4096" lon="4.6197">
        <ele>1046.8817</ele>
        <time>2021-07-19T09:28:48Z</time>
      </trkpt>
      <trkpt lat="45.40958" lon="4.61968">
        <ele>1047.0773</ele>
        <time>2021-07-19T09:28:49Z</time>
      </trkpt>
      <trkpt lat="45.40956" lon="4.61966">
        <ele>1047.3151</ele>
        <time>2021-07-19T09:28:50Z</time>
      </trkpt>
      <trkpt lat="45.40955" lon="4.61965">
        <ele>1047.5371</ele>
        <time>2021-07-19T09:28:51Z</time>
      </trkpt>
      <trkpt lat="45.40953" lon="4.61964">
        <ele>1047.7273</ele>
        <time>2021-07-19T09:28:52Z</time>
      </trkpt>
      <trkpt lat="45.4095" lon="4.61962">
        <ele>1047.8805</ele>
        <time>2021-07-19T09:28:53Z</time>
      </trkpt>
      <trkpt lat="45.40949" lon="4.61961">
        <ele>1048.0972</ele>
        <time>2021-07-19T09:28:54Z</time>
      </trkpt>
      <trkpt lat="45.40945" lon="4.61959">
        <ele>1048.409</ele>
        <time>2021-07-19T09:28:55Z</time>
      </trkpt>
      <trkpt lat="45.40942" lon="4.61956">
        <ele>1048.5623</ele>
        <time>2021-07-19T09:28:56Z</time>
      </trkpt>
      <trkpt lat="45.40939" lon="4.61955">
        <ele>1048.8688</ele>
        <time>2021-07-19T09:28:57Z</time>
      </trkpt>
      <trkpt lat="45.40936" lon="4.61953">
        <ele>1049.0061</ele>
        <time>2021-07-19T09:28:58Z</time>
      </trkpt>
      <trkpt lat="45.40933" lon="4.61951">
        <ele>1049.2493</ele>
        <time>2021-07-19T09:28:59Z</time>
      </trkpt>
      <trkpt lat="45.40931" lon="4.6195">
        <ele>1049.5504</ele>
        <time>2021-07-19T09:29:00Z</time>
      </trkpt>
      <trkpt lat="45.40929" lon="4.61948">
        <ele>1050.0103</ele>
        <time>2021-07-19T09:29:01Z</time>
      </trkpt>
      <trkpt lat="45.40927" lon="4.61947">
        <ele>1050.1371</ele>
        <time>2021-07-19T09:29:02Z</time>
      </trkpt>
      <trkpt lat="45.40925" lon="4.61947">
        <ele>1050.4384</ele>
        <time>2021-07-19T09:29:03Z</time>
      </trkpt>
      <trkpt lat="45.40924" lon="4.61947">
        <ele>1050.5652</ele>
        <time>2021-07-19T09:29:04Z</time>
      </trkpt>
      <trkpt lat="45.40922" lon="4.61946">
        <ele>1050.7395</ele>
        <time>2021-07-19T09:29:05Z</time>
      </trkpt>
      <trkpt lat="45.40921" lon="4.61944">
        <ele>1051.1041</ele>
        <time>2021-07-19T09:29:06Z</time>
      </trkpt>
      <trkpt lat="45.40919" lon="4.61941">
        <ele>1051.2416</ele>
        <time>2021-07-19T09:29:07Z</time>
      </trkpt>
      <trkpt lat="45.40916" lon="4.61936">
        <ele>1051.6908</ele>
        <time>2021-07-19T09:29:08Z</time>
      </trkpt>
      <trkpt lat="45.40913" lon="4.61932">
        <ele>1051.8916</ele>
        <time>2021-07-19T09:29:09Z</time>
      </trkpt>
      <trkpt lat="45.40911" lon="4.61929">
        <ele>1052.214</ele>
        <time>2021-07-19T09:29:10Z</time>
      </trkpt>
      <trkpt lat="45.40908" lon="4.61928">
        <ele>1052.4412</ele>
        <time>2021-07-19T09:29:11Z</time>
      </trkpt>
      <trkpt lat="45.40907" lon="4.61926">
        <ele>1052.7266</ele>
        <time>2021-07-19T09:29:12Z</time>
      </trkpt>
      <trkpt lat="45.40906" lon="4.61926">
        <ele>1053.0966</ele>
        <time>2021-07-19T09:29:13Z</time>
      </trkpt>
      <trkpt lat="45.40905" lon="4.61924">
        <ele>1053.3342</ele>
        <time>2021-07-19T09:29:14Z</time>
      </trkpt>
      <trkpt lat="45.40904" lon="4.61923">
        <ele>1053.5669</ele>
        <time>2021-07-19T09:29:15Z</time>
      </trkpt>
      <trkpt lat="45.40902" lon="4.61922">
        <ele>1053.8258</ele>
        <time>2021-07-19T09:29:16Z</time>
      </trkpt>
      <trkpt lat="45.409" lon="4.61922">
        <ele>1054.2063</ele>
        <time>2021-07-19T09:29:17Z</time>
      </trkpt>
      <trkpt lat="45.40899" lon="4.61922">
        <ele>1054.3807</ele>
        <time>2021-07-19T09:29:18Z</time>
      </trkpt>
      <trkpt lat="45.40899" lon="4.61922">
        <ele>1054.3807</ele>
        <time>2021-07-19T09:29:18Z</time>
      </trkpt>
      <trkpt lat="45.40899" lon="4.61922">
        <ele>1054.3807</ele>
        <time>2021-07-19T09:29:18Z</time>
      </trkpt>
      <trkpt lat="45.40832" lon="4.61887">
        <ele>1060.2148</ele>
        <time>2021-07-19T09:29:43Z</time>
      </trkpt>
      <trkpt lat="45.4083" lon="4.61887">
        <ele>1060.5161</ele>
        <time>2021-07-19T09:29:44Z</time>
      </trkpt>
      <trkpt lat="45.40828" lon="4.61886">
        <ele>1060.8385</ele>
        <time>2021-07-19T09:29:45Z</time>
      </trkpt>
      <trkpt lat="45.40825" lon="4.61884">
        <ele>1060.7961</ele>
        <time>2021-07-19T09:29:46Z</time>
      </trkpt>
      <trkpt lat="45.4082" lon="4.61881">
        <ele>1061.034</ele>
        <time>2021-07-19T09:29:47Z</time>
      </trkpt>
      <trkpt lat="45.40817" lon="4.61879">
        <ele>1061.0023</ele>
        <time>2021-07-19T09:29:48Z</time>
      </trkpt>
      <trkpt lat="45.40814" lon="4.61877">
        <ele>1061.3352</ele>
        <time>2021-07-19T09:29:49Z</time>
      </trkpt>
      <trkpt lat="45.40811" lon="4.61875">
        <ele>1061.5255</ele>
        <time>2021-07-19T09:29:50Z</time>
      </trkpt>
      <trkpt lat="45.40809" lon="4.61874">
        <ele>1061.8055</ele>
        <time>2021-07-19T09:29:51Z</time>
      </trkpt>
      <trkpt lat="45.40807" lon="4.61873">
        <ele>1061.943</ele>
        <time>2021-07-19T09:29:52Z</time>
      </trkpt>
      <trkpt lat="45.40806" lon="4.61873">
        <ele>1062.3394</ele>
        <time>2021-07-19T09:29:53Z</time>
      </trkpt>
      <trkpt lat="45.40804" lon="4.61872">
        <ele>1062.5824</ele>
        <time>2021-07-19T09:29:54Z</time>
      </trkpt>
      <trkpt lat="45.40801" lon="4.61871">
        <ele>1062.7303</ele>
        <time>2021-07-19T09:29:55Z</time>
      </trkpt>
      <trkpt lat="45.40799" lon="4.6187">
        <ele>1063.0264</ele>
        <time>2021-07-19T09:29:56Z</time>
      </trkpt>
      <trkpt lat="45.40797" lon="4.61868">
        <ele>1063.2694</ele>
        <time>2021-07-19T09:29:57Z</time>
      </trkpt>
      <trkpt lat="45.40792" lon="4.61866">
        <ele>1063.539</ele>
        <time>2021-07-19T09:29:58Z</time>
      </trkpt>
      <trkpt lat="45.4079" lon="4.61864">
        <ele>1063.6658</ele>
        <time>2021-07-19T09:29:59Z</time>
      </trkpt>
      <trkpt lat="45.40788" lon="4.61862">
        <ele>1063.8613</ele>
        <time>2021-07-19T09:30:00Z</time>
      </trkpt>
      <trkpt lat="45.40785" lon="4.61861">
        <ele>1064.1309</ele>
        <time>2021-07-19T09:30:01Z</time>
      </trkpt>
      <trkpt lat="45.40782" lon="4.61859">
        <ele>1064.2682</ele>
        <time>2021-07-19T09:30:02Z</time>
      </trkpt>
      <trkpt lat="45.40777" lon="4.61858">
        <ele>1064.4796</ele>
        <time>2021-07-19T09:30:03Z</time>
      </trkpt>
      <trkpt lat="45.40775" lon="4.61857">
        <ele>1064.6012</ele>
        <time>2021-07-19T09:30:04Z</time>
      </trkpt>
      <trkpt lat="45.40771" lon="4.61855">
        <ele>1064.8073</ele>
        <time>2021-07-19T09:30:05Z</time>
      </trkpt>
      <trkpt lat="45.40767" lon="4.61853">
        <ele>1064.8495</ele>
        <time>2021-07-19T09:30:06Z</time>
      </trkpt>
      <trkpt lat="45.40763" lon="4.6185">
        <ele>1065.2987</ele>
        <time>2021-07-19T09:30:07Z</time>
      </trkpt>
      <trkpt lat="45.4076" lon="4.61848">
        <ele>1065.378</ele>
        <time>2021-07-19T09:30:08Z</time>
      </trkpt>
      <trkpt lat="45.40759" lon="4.61846">
        <ele>1065.8906</ele>
        <time>2021-07-19T09:30:09Z</time>
      </trkpt>
      <trkpt lat="45.40756" lon="4.61845">
        <ele>1066.1865</ele>
        <time>2021-07-19T09:30:10Z</time>
      </trkpt>
      <trkpt lat="45.40754" lon="4.61844">
        <ele>1066.398</ele>
        <time>2021-07-19T09:30:11Z</time>
      </trkpt>
      <trkpt lat="45.40751" lon="4.61842">
        <ele>1066.1232</ele>
        <time>2021-07-19T09:30:12Z</time>
      </trkpt>
      <trkpt lat="45.40749" lon="4.6184">
        <ele>1066.7361</ele>
        <time>2021-07-19T09:30:13Z</time>
      </trkpt>
      <trkpt lat="45.40747" lon="4.6184">
        <ele>1066.8102</ele>
        <time>2021-07-19T09:30:14Z</time>
      </trkpt>
      <trkpt lat="45.40746" lon="4.61839">
        <ele>1067.0426</ele>
        <time>2021-07-19T09:30:15Z</time>
      </trkpt>
      <trkpt lat="45.40744" lon="4.61838">
        <ele>1067.3915</ele>
        <time>2021-07-19T09:30:16Z</time>
      </trkpt>
      <trkpt lat="45.40743" lon="4.61838">
        <ele>1067.6134</ele>
        <time>2021-07-19T09:30:17Z</time>
      </trkpt>
      <trkpt lat="45.40741" lon="4.61837">
        <ele>1067.8829</ele>
        <time>2021-07-19T09:30:18Z</time>
      </trkpt>
      <trkpt lat="45.40737" lon="4.61836">
        <ele>1068.2264</ele>
        <time>2021-07-19T09:30:19Z</time>
      </trkpt>
      <trkpt lat="45.40734" lon="4.61835">
        <ele>1068.4431</ele>
        <time>2021-07-19T09:30:20Z</time>
      </trkpt>
      <trkpt lat="45.40731" lon="4.61835">
        <ele>1069.0403</ele>
        <time>2021-07-19T09:30:21Z</time>
      </trkpt>
      <trkpt lat="45.40729" lon="4.61835">
        <ele>1068.9187</ele>
        <time>2021-07-19T09:30:22Z</time>
      </trkpt>
      <trkpt lat="45.40727" lon="4.61835">
        <ele>1069.2411</ele>
        <time>2021-07-19T09:30:23Z</time>
      </trkpt>
      <trkpt lat="45.40723" lon="4.61834">
        <ele>1069.6533</ele>
        <time>2021-07-19T09:30:24Z</time>
      </trkpt>
      <trkpt lat="45.4072" lon="4.61835">
        <ele>1069.8013</ele>
        <time>2021-07-19T09:30:25Z</time>
      </trkpt>
      <trkpt lat="45.40715" lon="4.61834">
        <ele>1069.9175</ele>
        <time>2021-07-19T09:30:26Z</time>
      </trkpt>
      <trkpt lat="45.40712" lon="4.61832">
        <ele>1070.1659</ele>
        <time>2021-07-19T09:30:27Z</time>
      </trkpt>
      <trkpt lat="45.40709" lon="4.61832">
        <ele>1070.372</ele>
        <time>2021-07-19T09:30:28Z</time>
      </trkpt>
      <trkpt lat="45.40706" lon="4.61831">
        <ele>1070.6415</ele>
        <time>2021-07-19T09:30:29Z</time>
      </trkpt>
      <trkpt lat="45.40702" lon="4.61832">
        <ele>1070.9216</ele>
        <time>2021-07-19T09:30:30Z</time>
      </trkpt>
      <trkpt lat="45.407" lon="4.61833">
        <ele>1071.2228</ele>
        <time>2021-07-19T09:30:31Z</time>
      </trkpt>
      <trkpt lat="45.40697" lon="4.61834">
        <ele>1071.265</ele>
        <time>2021-07-19T09:30:32Z</time>
      </trkpt>
      <trkpt lat="45.40695" lon="4.61835">
        <ele>1071.6879</ele>
        <time>2021-07-19T09:30:33Z</time>
      </trkpt>
      <trkpt lat="45.40693" lon="4.61834">
        <ele>1071.915</ele>
        <time>2021-07-19T09:30:34Z</time>
      </trkpt>
      <trkpt lat="45.4069" lon="4.61834">
        <ele>1072.0895</ele>
        <time>2021-07-19T09:30:35Z</time>
      </trkpt>
      <trkpt lat="45.40688" lon="4.61833">
        <ele>1072.1265</ele>
        <time>2021-07-19T09:30:36Z</time>
      </trkpt>
      <trkpt lat="45.40686" lon="4.61834">
        <ele>1072.544</ele>
        <time>2021-07-19T09:30:37Z</time>
      </trkpt>
      <trkpt lat="45.40683" lon="4.61834">
        <ele>1072.7236</ele>
        <time>2021-07-19T09:30:38Z</time>
      </trkpt>
      <trkpt lat="45.40681" lon="4.61835">
        <ele>1072.972</ele>
        <time>2021-07-19T09:30:39Z</time>
      </trkpt>
      <trkpt lat="45.40679" lon="4.61835">
        <ele>1073.1676</ele>
        <time>2021-07-19T09:30:40Z</time>
      </trkpt>
      <trkpt lat="45.40676" lon="4.61836">
        <ele>1073.3948</ele>
        <time>2021-07-19T09:30:41Z</time>
      </trkpt>
      <trkpt lat="45.40673" lon="4.61836">
        <ele>1073.5057</ele>
        <time>2021-07-19T09:30:42Z</time>
      </trkpt>
      <trkpt lat="45.4067" lon="4.61837">
        <ele>1073.881</ele>
        <time>2021-07-19T09:30:43Z</time>
      </trkpt>
      <trkpt lat="45.40669" lon="4.61837">
        <ele>1074.1558</ele>
        <time>2021-07-19T09:30:44Z</time>
      </trkpt>
      <trkpt lat="45.40665" lon="4.61838">
        <ele>1074.4993</ele>
        <time>2021-07-19T09:30:45Z</time>
      </trkpt>
      <trkpt lat="45.40662" lon="4.61838">
        <ele>1074.531</ele>
        <time>2021-07-19T09:30:46Z</time>
      </trkpt>
      <trkpt lat="45.40659" lon="4.61839">
        <ele>1074.9167</ele>
        <time>2021-07-19T09:30:47Z</time>
      </trkpt>
      <trkpt lat="45.40657" lon="4.61839">
        <ele>1075.218</ele>
        <time>2021-07-19T09:30:48Z</time>
      </trkpt>
      <trkpt lat="45.40654" lon="4.61839">
        <ele>1075.3237</ele>
        <time>2021-07-19T09:30:49Z</time>
      </trkpt>
      <trkpt lat="45.40651" lon="4.6184">
        <ele>1075.6831</ele>
        <time>2021-07-19T09:30:50Z</time>
      </trkpt>
      <trkpt lat="45.40649" lon="4.61841">
        <ele>1075.9895</ele>
        <time>2021-07-19T09:30:51Z</time>
      </trkpt>
      <trkpt lat="45.40646" lon="4.61841">
        <ele>1076.1744</ele>
        <time>2021-07-19T09:30:52Z</time>
      </trkpt>
      <trkpt lat="45.40643" lon="4.61842">
        <ele>1076.2115</ele>
        <time>2021-07-19T09:30:53Z</time>
      </trkpt>
      <trkpt lat="45.4064" lon="4.61843">
        <ele>1076.703</ele>
        <time>2021-07-19T09:30:54Z</time>
      </trkpt>
      <trkpt lat="45.40636" lon="4.61843">
        <ele>1076.9303</ele>
        <time>2021-07-19T09:30:55Z</time>
      </trkpt>
      <trkpt lat="45.40633" lon="4.61843">
        <ele>1077.221</ele>
        <time>2021-07-19T09:30:56Z</time>
      </trkpt>
      <trkpt lat="45.40631" lon="4.61842">
        <ele>1077.3741</ele>
        <time>2021-07-19T09:30:57Z</time>
      </trkpt>
      <trkpt lat="45.40628" lon="4.61841">
        <ele>1077.707</ele>
        <time>2021-07-19T09:30:58Z</time>
      </trkpt>
      <trkpt lat="45.40626" lon="4.61841">
        <ele>1077.9818</ele>
        <time>2021-07-19T09:30:59Z</time>
      </trkpt>
      <trkpt lat="45.40624" lon="4.61841">
        <ele>1078.262</ele>
        <time>2021-07-19T09:31:00Z</time>
      </trkpt>
      <trkpt lat="45.40622" lon="4.61841">
        <ele>1078.3254</ele>
        <time>2021-07-19T09:31:01Z</time>
      </trkpt>
      <trkpt lat="45.4062" lon="4.61841">
        <ele>1078.6847</ele>
        <time>2021-07-19T09:31:02Z</time>
      </trkpt>
      <trkpt lat="45.40617" lon="4.61842">
        <ele>1078.8168</ele>
        <time>2021-07-19T09:31:03Z</time>
      </trkpt>
      <trkpt lat="45.40615" lon="4.61842">
        <ele>1079.023</ele>
        <time>2021-07-19T09:31:04Z</time>
      </trkpt>
      <trkpt lat="45.40612" lon="4.61841">
        <ele>1079.4774</ele>
        <time>2021-07-19T09:31:05Z</time>
      </trkpt>
      <trkpt lat="45.40609" lon="4.6184">
        <ele>1079.6254</ele>
        <time>2021-07-19T09:31:06Z</time>
      </trkpt>
      <trkpt lat="45.40606" lon="4.6184">
        <ele>1079.8525</ele>
        <time>2021-07-19T09:31:07Z</time>
      </trkpt>
      <trkpt lat="45.40602" lon="4.6184">
        <ele>1079.8262</ele>
        <time>2021-07-19T09:31:08Z</time>
      </trkpt>
      <trkpt lat="45.40598" lon="4.61839">
        <ele>1080.0746</ele>
        <time>2021-07-19T09:31:09Z</time>
      </trkpt>
      <trkpt lat="45.40595" lon="4.61839">
        <ele>1080.2437</ele>
        <time>2021-07-19T09:31:10Z</time>
      </trkpt>
      <trkpt lat="45.40592" lon="4.61839">
        <ele>1080.7775</ele>
        <time>2021-07-19T09:31:11Z</time>
      </trkpt>
      <trkpt lat="45.4059" lon="4.6184">
        <ele>1080.8884</ele>
        <time>2021-07-19T09:31:12Z</time>
      </trkpt>
      <trkpt lat="45.40587" lon="4.6184">
        <ele>1081.1367</ele>
        <time>2021-07-19T09:31:13Z</time>
      </trkpt>
      <trkpt lat="45.40584" lon="4.61841">
        <ele>1081.0945</ele>
        <time>2021-07-19T09:31:14Z</time>
      </trkpt>
      <trkpt lat="45.4058" lon="4.61843">
        <ele>1081.6177</ele>
        <time>2021-07-19T09:31:15Z</time>
      </trkpt>
      <trkpt lat="45.40577" lon="4.61844">
        <ele>1081.5702</ele>
        <time>2021-07-19T09:31:16Z</time>
      </trkpt>
      <trkpt lat="45.40573" lon="4.61844">
        <ele>1081.8237</ele>
        <time>2021-07-19T09:31:17Z</time>
      </trkpt>
      <trkpt lat="45.4057" lon="4.61845">
        <ele>1082.1356</ele>
        <time>2021-07-19T09:31:18Z</time>
      </trkpt>
      <trkpt lat="45.40567" lon="4.61845">
        <ele>1082.1937</ele>
        <time>2021-07-19T09:31:19Z</time>
      </trkpt>
      <trkpt lat="45.40565" lon="4.61845">
        <ele>1082.3734</ele>
        <time>2021-07-19T09:31:20Z</time>
      </trkpt>
      <trkpt lat="45.40562" lon="4.61845">
        <ele>1082.4738</ele>
        <time>2021-07-19T09:31:21Z</time>
      </trkpt>
      <trkpt lat="45.40559" lon="4.61845">
        <ele>1082.643</ele>
        <time>2021-07-19T09:31:22Z</time>
      </trkpt>
      <trkpt lat="45.40556" lon="4.61845">
        <ele>1082.7698</ele>
        <time>2021-07-19T09:31:23Z</time>
      </trkpt>
      <trkpt lat="45.40553" lon="4.61844">
        <ele>1083.0815</ele>
        <time>2021-07-19T09:31:24Z</time>
      </trkpt>
      <trkpt lat="45.40549" lon="4.61843">
        <ele>1083.2295</ele>
        <time>2021-07-19T09:31:25Z</time>
      </trkpt>
      <trkpt lat="45.40545" lon="4.61841">
        <ele>1083.4092</ele>
        <time>2021-07-19T09:31:26Z</time>
      </trkpt>
      <trkpt lat="45.40543" lon="4.6184">
        <ele>1083.6998</ele>
        <time>2021-07-19T09:31:27Z</time>
      </trkpt>
      <trkpt lat="45.40541" lon="4.61839">
        <ele>1083.9165</ele>
        <time>2021-07-19T09:31:28Z</time>
      </trkpt>
      <trkpt lat="45.4054" lon="4.61838">
        <ele>1084.0908</ele>
        <time>2021-07-19T09:31:29Z</time>
      </trkpt>
      <trkpt lat="45.40538" lon="4.61838">
        <ele>1084.2548</ele>
        <time>2021-07-19T09:31:30Z</time>
      </trkpt>
      <trkpt lat="45.40536" lon="4.61837">
        <ele>1084.5454</ele>
        <time>2021-07-19T09:31:31Z</time>
      </trkpt>
      <trkpt lat="45.40533" lon="4.61836">
        <ele>1084.6564</ele>
        <time>2021-07-19T09:31:32Z</time>
      </trkpt>
      <trkpt lat="45.40531" lon="4.61835">
        <ele>1084.6616</ele>
        <time>2021-07-19T09:31:33Z</time>
      </trkpt>
      <trkpt lat="45.4053" lon="4.61835">
        <ele>1085.0527</ele>
        <time>2021-07-19T09:31:34Z</time>
      </trkpt>
      <trkpt lat="45.40529" lon="4.61834">
        <ele>1085.1478</ele>
        <time>2021-07-19T09:31:35Z</time>
      </trkpt>
      <trkpt lat="45.40527" lon="4.61834">
        <ele>1085.3328</ele>
        <time>2021-07-19T09:31:36Z</time>
      </trkpt>
      <trkpt lat="45.40525" lon="4.61833">
        <ele>1085.5494</ele>
        <time>2021-07-19T09:31:37Z</time>
      </trkpt>
      <trkpt lat="45.40524" lon="4.61833">
        <ele>1085.7926</ele>
        <time>2021-07-19T09:31:38Z</time>
      </trkpt>
      <trkpt lat="45.40523" lon="4.61833">
        <ele>1086.0568</ele>
        <time>2021-07-19T09:31:39Z</time>
      </trkpt>
      <trkpt lat="45.40522" lon="4.61833">
        <ele>1086.2523</ele>
        <time>2021-07-19T09:31:40Z</time>
      </trkpt>
      <trkpt lat="45.4052" lon="4.61832">
        <ele>1086.5271</ele>
        <time>2021-07-19T09:31:41Z</time>
      </trkpt>
      <trkpt lat="45.40517" lon="4.61831">
        <ele>1086.6963</ele>
        <time>2021-07-19T09:31:42Z</time>
      </trkpt>
      <trkpt lat="45.40516" lon="4.61831">
        <ele>1086.7914</ele>
        <time>2021-07-19T09:31:43Z</time>
      </trkpt>
      <trkpt lat="45.40514" lon="4.61832">
        <ele>1086.9393</ele>
        <time>2021-07-19T09:31:44Z</time>
      </trkpt>
      <trkpt lat="45.40511" lon="4.61833">
        <ele>1087.2617</ele>
        <time>2021-07-19T09:31:45Z</time>
      </trkpt>
      <trkpt lat="45.40508" lon="4.61834">
        <ele>1087.5524</ele>
        <time>2021-07-19T09:31:46Z</time>
      </trkpt>
      <trkpt lat="45.40504" lon="4.61834">
        <ele>1087.7797</ele>
        <time>2021-07-19T09:31:47Z</time>
      </trkpt>
      <trkpt lat="45.405" lon="4.61833">
        <ele>1087.9487</ele>
        <time>2021-07-19T09:31:48Z</time>
      </trkpt>
      <trkpt lat="45.40498" lon="4.61833">
        <ele>1088.0491</ele>
        <time>2021-07-19T09:31:49Z</time>
      </trkpt>
      <trkpt lat="45.40495" lon="4.61833">
        <ele>1088.5934</ele>
        <time>2021-07-19T09:31:50Z</time>
      </trkpt>
      <trkpt lat="45.40495" lon="4.61834">
        <ele>1088.641</ele>
        <time>2021-07-19T09:31:51Z</time>
      </trkpt>
      <trkpt lat="45.40492" lon="4.61832">
        <ele>1089.0743</ele>
        <time>2021-07-19T09:31:52Z</time>
      </trkpt>
      <trkpt lat="45.4049" lon="4.61832">
        <ele>1089.3386</ele>
        <time>2021-07-19T09:31:53Z</time>
      </trkpt>
      <trkpt lat="45.40486" lon="4.61831">
        <ele>1089.5288</ele>
        <time>2021-07-19T09:31:54Z</time>
      </trkpt>
      <trkpt lat="45.40482" lon="4.61829">
        <ele>1089.6293</ele>
        <time>2021-07-19T09:31:55Z</time>
      </trkpt>
      <trkpt lat="45.40482" lon="4.61828">
        <ele>1089.8882</ele>
        <time>2021-07-19T09:31:56Z</time>
      </trkpt>
      <trkpt lat="45.4048" lon="4.61827">
        <ele>1090.2792</ele>
        <time>2021-07-19T09:31:57Z</time>
      </trkpt>
      <trkpt lat="45.40479" lon="4.61826">
        <ele>1090.5435</ele>
        <time>2021-07-19T09:31:58Z</time>
      </trkpt>
      <trkpt lat="45.40476" lon="4.61824">
        <ele>1090.7708</ele>
        <time>2021-07-19T09:31:59Z</time>
      </trkpt>
      <trkpt lat="45.40474" lon="4.61823">
        <ele>1090.9187</ele>
        <time>2021-07-19T09:32:00Z</time>
      </trkpt>
      <trkpt lat="45.40474" lon="4.61822">
        <ele>1091.204</ele>
        <time>2021-07-19T09:32:01Z</time>
      </trkpt>
      <trkpt lat="45.40472" lon="4.61819">
        <ele>1091.3573</ele>
        <time>2021-07-19T09:32:02Z</time>
      </trkpt>
      <trkpt lat="45.40472" lon="4.61819">
        <ele>1091.3573</ele>
        <time>2021-07-19T09:32:02Z</time>
      </trkpt>
      <trkpt lat="45.40472" lon="4.61819">
        <ele>1091.3573</ele>
        <time>2021-07-19T09:32:02Z</time>
      </trkpt>
      <trkpt lat="45.40284" lon="4.61804">
        <ele>1107.7185</ele>
        <time>2021-07-19T09:33:13Z</time>
      </trkpt>
      <trkpt lat="45.40275" lon="4.6181">
        <ele>1107.9406</ele>
        <time>2021-07-19T09:33:14Z</time>
      </trkpt>
      <trkpt lat="45.40273" lon="4.61813">
        <ele>1108.1836</ele>
        <time>2021-07-19T09:33:15Z</time>
      </trkpt>
      <trkpt lat="45.40269" lon="4.61815">
        <ele>1108.4214</ele>
        <time>2021-07-19T09:33:16Z</time>
      </trkpt>
      <trkpt lat="45.40267" lon="4.61817">
        <ele>1108.7279</ele>
        <time>2021-07-19T09:33:17Z</time>
      </trkpt>
      <trkpt lat="45.40265" lon="4.61819">
        <ele>1108.8759</ele>
        <time>2021-07-19T09:33:18Z</time>
      </trkpt>
      <trkpt lat="45.40263" lon="4.6182">
        <ele>1109.1031</ele>
        <time>2021-07-19T09:33:19Z</time>
      </trkpt>
      <trkpt lat="45.40263" lon="4.61821">
        <ele>1109.3357</ele>
        <time>2021-07-19T09:33:20Z</time>
      </trkpt>
      <trkpt lat="45.40262" lon="4.61823">
        <ele>1109.7108</ele>
        <time>2021-07-19T09:33:21Z</time>
      </trkpt>
      <trkpt lat="45.40259" lon="4.61825">
        <ele>1109.8271</ele>
        <time>2021-07-19T09:33:22Z</time>
      </trkpt>
      <trkpt lat="45.40256" lon="4.61828">
        <ele>1110.0754</ele>
        <time>2021-07-19T09:33:23Z</time>
      </trkpt>
      <trkpt lat="45.40253" lon="4.61832">
        <ele>1110.4401</ele>
        <time>2021-07-19T09:33:24Z</time>
      </trkpt>
      <trkpt lat="45.40252" lon="4.61835">
        <ele>1110.3926</ele>
        <time>2021-07-19T09:33:25Z</time>
      </trkpt>
      <trkpt lat="45.40247" lon="4.61838">
        <ele>1110.7942</ele>
        <time>2021-07-19T09:33:26Z</time>
      </trkpt>
      <trkpt lat="45.40243" lon="4.61839">
        <ele>1111.1958</ele>
        <time>2021-07-19T09:33:27Z</time>
      </trkpt>
      <trkpt lat="45.40241" lon="4.61841">
        <ele>1111.3807</ele>
        <time>2021-07-19T09:33:28Z</time>
      </trkpt>
      <trkpt lat="45.40238" lon="4.61845">
        <ele>1111.6292</ele>
        <time>2021-07-19T09:33:29Z</time>
      </trkpt>
      <trkpt lat="45.40236" lon="4.61848">
        <ele>1112.0044</ele>
        <time>2021-07-19T09:33:30Z</time>
      </trkpt>
      <trkpt lat="45.40236" lon="4.61848">
        <ele>1112.0044</ele>
        <time>2021-07-19T09:33:30Z</time>
      </trkpt>
      <trkpt lat="45.40234" lon="4.61853">
        <ele>1112.3849</ele>
        <time>2021-07-19T09:33:32Z</time>
      </trkpt>
      <trkpt lat="45.40233" lon="4.61857">
        <ele>1112.686</ele>
        <time>2021-07-19T09:33:33Z</time>
      </trkpt>
      <trkpt lat="45.40231" lon="4.61861">
        <ele>1112.8975</ele>
        <time>2021-07-19T09:33:34Z</time>
      </trkpt>
      <trkpt lat="45.40229" lon="4.61864">
        <ele>1113.1141</ele>
        <time>2021-07-19T09:33:35Z</time>
      </trkpt>
      <trkpt lat="45.40228" lon="4.61867">
        <ele>1113.1881</ele>
        <time>2021-07-19T09:33:36Z</time>
      </trkpt>
      <trkpt lat="45.40225" lon="4.6187">
        <ele>1113.3308</ele>
        <time>2021-07-19T09:33:37Z</time>
      </trkpt>
      <trkpt lat="45.40223" lon="4.61873">
        <ele>1113.5634</ele>
        <time>2021-07-19T09:33:38Z</time>
      </trkpt>
      <trkpt lat="45.40221" lon="4.61875">
        <ele>1113.706</ele>
        <time>2021-07-19T09:33:39Z</time>
      </trkpt>
      <trkpt lat="45.4022" lon="4.61876">
        <ele>1113.9227</ele>
        <time>2021-07-19T09:33:40Z</time>
      </trkpt>
      <trkpt lat="45.40219" lon="4.61879">
        <ele>1114.0178</ele>
        <time>2021-07-19T09:33:41Z</time>
      </trkpt>
      <trkpt lat="45.40217" lon="4.61881">
        <ele>1114.3455</ele>
        <time>2021-07-19T09:33:42Z</time>
      </trkpt>
      <trkpt lat="45.40215" lon="4.61884">
        <ele>1114.4882</ele>
        <time>2021-07-19T09:33:43Z</time>
      </trkpt>
      <trkpt lat="45.40213" lon="4.61887">
        <ele>1114.5728</ele>
        <time>2021-07-19T09:33:44Z</time>
      </trkpt>
      <trkpt lat="45.4021" lon="4.61888">
        <ele>1114.895</ele>
        <time>2021-07-19T09:33:45Z</time>
      </trkpt>
      <trkpt lat="45.40208" lon="4.6189">
        <ele>1115.1011</ele>
        <time>2021-07-19T09:33:46Z</time>
      </trkpt>
      <trkpt lat="45.40207" lon="4.61892">
        <ele>1115.2333</ele>
        <time>2021-07-19T09:33:47Z</time>
      </trkpt>
      <trkpt lat="45.40205" lon="4.61895">
        <ele>1115.6244</ele>
        <time>2021-07-19T09:33:48Z</time>
      </trkpt>
      <trkpt lat="45.40204" lon="4.61898">
        <ele>1115.8463</ele>
        <time>2021-07-19T09:33:49Z</time>
      </trkpt>
      <trkpt lat="45.40204" lon="4.61901">
        <ele>1116.1633</ele>
        <time>2021-07-19T09:33:50Z</time>
      </trkpt>
      <trkpt lat="45.40202" lon="4.61906">
        <ele>1116.2427</ele>
        <time>2021-07-19T09:33:51Z</time>
      </trkpt>
      <trkpt lat="45.40202" lon="4.61909">
        <ele>1116.4382</ele>
        <time>2021-07-19T09:33:52Z</time>
      </trkpt>
      <trkpt lat="45.40199" lon="4.61913">
        <ele>1116.7024</ele>
        <time>2021-07-19T09:33:53Z</time>
      </trkpt>
      <trkpt lat="45.40197" lon="4.61918">
        <ele>1116.7764</ele>
        <time>2021-07-19T09:33:54Z</time>
      </trkpt>
      <trkpt lat="45.40194" lon="4.61923">
        <ele>1116.9719</ele>
        <time>2021-07-19T09:33:55Z</time>
      </trkpt>
      <trkpt lat="45.40192" lon="4.61926">
        <ele>1117.2045</ele>
        <time>2021-07-19T09:33:56Z</time>
      </trkpt>
      <trkpt lat="45.4019" lon="4.61928">
        <ele>1117.3524</ele>
        <time>2021-07-19T09:33:57Z</time>
      </trkpt>
      <trkpt lat="45.40185" lon="4.61932">
        <ele>1117.5216</ele>
        <time>2021-07-19T09:33:58Z</time>
      </trkpt>
      <trkpt lat="45.40185" lon="4.61932">
        <ele>1117.5216</ele>
        <time>2021-07-19T09:33:58Z</time>
      </trkpt>
      <trkpt lat="45.40183" lon="4.61935">
        <ele>1118.0342</ele>
        <time>2021-07-19T09:34:00Z</time>
      </trkpt>
      <trkpt lat="45.40181" lon="4.61938">
        <ele>1118.2191</ele>
        <time>2021-07-19T09:34:01Z</time>
      </trkpt>
      <trkpt lat="45.40176" lon="4.61943">
        <ele>1118.4939</ele>
        <time>2021-07-19T09:34:02Z</time>
      </trkpt>
      <trkpt lat="45.40173" lon="4.61945">
        <ele>1118.7106</ele>
        <time>2021-07-19T09:34:03Z</time>
      </trkpt>
      <trkpt lat="45.40171" lon="4.61947">
        <ele>1118.9801</ele>
        <time>2021-07-19T09:34:04Z</time>
      </trkpt>
      <trkpt lat="45.40169" lon="4.61949">
        <ele>1119.3553</ele>
        <time>2021-07-19T09:34:05Z</time>
      </trkpt>
      <trkpt lat="45.40167" lon="4.61952">
        <ele>1119.4927</ele>
        <time>2021-07-19T09:34:06Z</time>
      </trkpt>
      <trkpt lat="45.40164" lon="4.61954">
        <ele>1119.6195</ele>
        <time>2021-07-19T09:34:07Z</time>
      </trkpt>
      <trkpt lat="45.40162" lon="4.61955">
        <ele>1119.8679</ele>
        <time>2021-07-19T09:34:08Z</time>
      </trkpt>
      <trkpt lat="45.4016" lon="4.61956">
        <ele>1120.1005</ele>
        <time>2021-07-19T09:34:09Z</time>
      </trkpt>
      <trkpt lat="45.40159" lon="4.61958">
        <ele>1120.317</ele>
        <time>2021-07-19T09:34:10Z</time>
      </trkpt>
      <trkpt lat="45.40157" lon="4.61959">
        <ele>1120.5127</ele>
        <time>2021-07-19T09:34:11Z</time>
      </trkpt>
      <trkpt lat="45.40155" lon="4.61962">
        <ele>1120.7557</ele>
        <time>2021-07-19T09:34:12Z</time>
      </trkpt>
      <trkpt lat="45.40153" lon="4.61965">
        <ele>1120.8508</ele>
        <time>2021-07-19T09:34:13Z</time>
      </trkpt>
      <trkpt lat="45.40151" lon="4.61969">
        <ele>1121.1256</ele>
        <time>2021-07-19T09:34:14Z</time>
      </trkpt>
      <trkpt lat="45.40148" lon="4.61972">
        <ele>1121.2578</ele>
        <time>2021-07-19T09:34:15Z</time>
      </trkpt>
      <trkpt lat="45.40147" lon="4.61974">
        <ele>1121.5537</ele>
        <time>2021-07-19T09:34:16Z</time>
      </trkpt>
      <trkpt lat="45.40146" lon="4.61976">
        <ele>1121.7386</ele>
        <time>2021-07-19T09:34:17Z</time>
      </trkpt>
      <trkpt lat="45.40144" lon="4.61977">
        <ele>1122.024</ele>
        <time>2021-07-19T09:34:18Z</time>
      </trkpt>
      <trkpt lat="45.40143" lon="4.6198">
        <ele>1122.246</ele>
        <time>2021-07-19T09:34:19Z</time>
      </trkpt>
      <trkpt lat="45.40141" lon="4.61981">
        <ele>1122.3728</ele>
        <time>2021-07-19T09:34:20Z</time>
      </trkpt>
      <trkpt lat="45.40139" lon="4.61983">
        <ele>1122.6318</ele>
        <time>2021-07-19T09:34:21Z</time>
      </trkpt>
      <trkpt lat="45.40137" lon="4.61985">
        <ele>1122.8062</ele>
        <time>2021-07-19T09:34:22Z</time>
      </trkpt>
      <trkpt lat="45.40136" lon="4.61987">
        <ele>1123.0017</ele>
        <time>2021-07-19T09:34:23Z</time>
      </trkpt>
      <trkpt lat="45.40134" lon="4.61988">
        <ele>1123.2448</ele>
        <time>2021-07-19T09:34:24Z</time>
      </trkpt>
      <trkpt lat="45.40132" lon="4.6199">
        <ele>1123.5406</ele>
        <time>2021-07-19T09:34:25Z</time>
      </trkpt>
      <trkpt lat="45.4013" lon="4.61992">
        <ele>1123.8313</ele>
        <time>2021-07-19T09:34:26Z</time>
      </trkpt>
      <trkpt lat="45.40128" lon="4.61995">
        <ele>1124.1273</ele>
        <time>2021-07-19T09:34:27Z</time>
      </trkpt>
      <trkpt lat="45.40126" lon="4.61997">
        <ele>1124.3599</ele>
        <time>2021-07-19T09:34:28Z</time>
      </trkpt>
      <trkpt lat="45.40124" lon="4.61999">
        <ele>1124.7351</ele>
        <time>2021-07-19T09:34:29Z</time>
      </trkpt>
      <trkpt lat="45.40122" lon="4.62001">
        <ele>1125.0099</ele>
        <time>2021-07-19T09:34:30Z</time>
      </trkpt>
      <trkpt lat="45.4012" lon="4.62004">
        <ele>1125.2212</ele>
        <time>2021-07-19T09:34:31Z</time>
      </trkpt>
      <trkpt lat="45.40117" lon="4.62007">
        <ele>1125.3269</ele>
        <time>2021-07-19T09:34:32Z</time>
      </trkpt>
      <trkpt lat="45.40114" lon="4.62009">
        <ele>1125.6017</ele>
        <time>2021-07-19T09:34:33Z</time>
      </trkpt>
      <trkpt lat="45.40113" lon="4.62012">
        <ele>1126.035</ele>
        <time>2021-07-19T09:34:34Z</time>
      </trkpt>
      <trkpt lat="45.40113" lon="4.62013">
        <ele>1126.3257</ele>
        <time>2021-07-19T09:34:35Z</time>
      </trkpt>
      <trkpt lat="45.40112" lon="4.62014">
        <ele>1126.59</ele>
        <time>2021-07-19T09:34:36Z</time>
      </trkpt>
      <trkpt lat="45.40111" lon="4.62016">
        <ele>1126.8701</ele>
        <time>2021-07-19T09:34:37Z</time>
      </trkpt>
      <trkpt lat="45.4011" lon="4.62017">
        <ele>1127.0814</ele>
        <time>2021-07-19T09:34:38Z</time>
      </trkpt>
      <trkpt lat="45.40109" lon="4.62018">
        <ele>1127.3827</ele>
        <time>2021-07-19T09:34:39Z</time>
      </trkpt>
      <trkpt lat="45.40107" lon="4.62019">
        <ele>1127.6681</ele>
        <time>2021-07-19T09:34:40Z</time>
      </trkpt>
      <trkpt lat="45.40105" lon="4.62019">
        <ele>1127.9481</ele>
        <time>2021-07-19T09:34:41Z</time>
      </trkpt>
      <trkpt lat="45.40104" lon="4.62018">
        <ele>1128.281</ele>
        <time>2021-07-19T09:34:42Z</time>
      </trkpt>
      <trkpt lat="45.40103" lon="4.62018">
        <ele>1128.3604</ele>
        <time>2021-07-19T09:34:43Z</time>
      </trkpt>
      <trkpt lat="45.40102" lon="4.62017">
        <ele>1128.5559</ele>
        <time>2021-07-19T09:34:44Z</time>
      </trkpt>
      <trkpt lat="45.40101" lon="4.62016">
        <ele>1128.8307</ele>
        <time>2021-07-19T09:34:45Z</time>
      </trkpt>
      <trkpt lat="45.40099" lon="4.62016">
        <ele>1129.0367</ele>
        <time>2021-07-19T09:34:46Z</time>
      </trkpt>
      <trkpt lat="45.40098" lon="4.62015">
        <ele>1129.3591</ele>
        <time>2021-07-19T09:34:47Z</time>
      </trkpt>
      <trkpt lat="45.40096" lon="4.62014">
        <ele>1129.5706</ele>
        <time>2021-07-19T09:34:48Z</time>
      </trkpt>
      <trkpt lat="45.40094" lon="4.62013">
        <ele>1129.692</ele>
        <time>2021-07-19T09:34:49Z</time>
      </trkpt>
      <trkpt lat="45.40092" lon="4.62011">
        <ele>1130.062</ele>
        <time>2021-07-19T09:34:50Z</time>
      </trkpt>
      <trkpt lat="45.40091" lon="4.62009">
        <ele>1130.1782</ele>
        <time>2021-07-19T09:34:51Z</time>
      </trkpt>
      <trkpt lat="45.4009" lon="4.62008">
        <ele>1130.3315</ele>
        <time>2021-07-19T09:34:52Z</time>
      </trkpt>
      <trkpt lat="45.40088" lon="4.62006">
        <ele>1130.5482</ele>
        <time>2021-07-19T09:34:53Z</time>
      </trkpt>
      <trkpt lat="45.40086" lon="4.62004">
        <ele>1130.8124</ele>
        <time>2021-07-19T09:34:54Z</time>
      </trkpt>
      <trkpt lat="45.40084" lon="4.62001">
        <ele>1131.14</ele>
        <time>2021-07-19T09:34:55Z</time>
      </trkpt>
      <trkpt lat="45.4008" lon="4.61998">
        <ele>1131.288</ele>
        <time>2021-07-19T09:34:56Z</time>
      </trkpt>
      <trkpt lat="45.40077" lon="4.61995">
        <ele>1131.3832</ele>
        <time>2021-07-19T09:34:57Z</time>
      </trkpt>
      <trkpt lat="45.40076" lon="4.61993">
        <ele>1131.7953</ele>
        <time>2021-07-19T09:34:58Z</time>
      </trkpt>
      <trkpt lat="45.40075" lon="4.61992">
        <ele>1131.9697</ele>
        <time>2021-07-19T09:34:59Z</time>
      </trkpt>
      <trkpt lat="45.40074" lon="4.61988">
        <ele>1132.197</ele>
        <time>2021-07-19T09:35:00Z</time>
      </trkpt>
      <trkpt lat="45.40073" lon="4.61987">
        <ele>1132.3397</ele>
        <time>2021-07-19T09:35:01Z</time>
      </trkpt>
      <trkpt lat="45.40071" lon="4.61984">
        <ele>1132.7255</ele>
        <time>2021-07-19T09:35:02Z</time>
      </trkpt>
      <trkpt lat="45.40069" lon="4.61982">
        <ele>1132.9526</ele>
        <time>2021-07-19T09:35:03Z</time>
      </trkpt>
      <trkpt lat="45.40068" lon="4.61981">
        <ele>1133.1165</ele>
        <time>2021-07-19T09:35:04Z</time>
      </trkpt>
      <trkpt lat="45.40067" lon="4.61981">
        <ele>1133.3649</ele>
        <time>2021-07-19T09:35:05Z</time>
      </trkpt>
      <trkpt lat="45.40063" lon="4.61978">
        <ele>1133.6133</ele>
        <time>2021-07-19T09:35:06Z</time>
      </trkpt>
      <trkpt lat="45.40062" lon="4.61976">
        <ele>1133.8828</ele>
        <time>2021-07-19T09:35:07Z</time>
      </trkpt>
      <trkpt lat="45.40058" lon="4.61972">
        <ele>1134.0994</ele>
        <time>2021-07-19T09:35:08Z</time>
      </trkpt>
      <trkpt lat="45.40056" lon="4.61969">
        <ele>1134.3584</ele>
        <time>2021-07-19T09:35:09Z</time>
      </trkpt>
      <trkpt lat="45.40054" lon="4.61967">
        <ele>1134.5962</ele>
        <time>2021-07-19T09:35:10Z</time>
      </trkpt>
      <trkpt lat="45.40054" lon="4.61967">
        <ele>1134.5962</ele>
        <time>2021-07-19T09:35:10Z</time>
      </trkpt>
      <trkpt lat="45.40054" lon="4.61967">
        <ele>1134.5962</ele>
        <time>2021-07-19T09:35:10Z</time>
      </trkpt>
      <trkpt lat="45.4002" lon="4.61946">
        <ele>1137.0906</ele>
        <time>2021-07-19T09:35:21Z</time>
      </trkpt>
      <trkpt lat="45.40017" lon="4.61943">
        <ele>1137.3336</ele>
        <time>2021-07-19T09:35:22Z</time>
      </trkpt>
      <trkpt lat="45.40015" lon="4.6194">
        <ele>1137.6401</ele>
        <time>2021-07-19T09:35:23Z</time>
      </trkpt>
      <trkpt lat="45.40012" lon="4.61938">
        <ele>1137.7987</ele>
        <time>2021-07-19T09:35:24Z</time>
      </trkpt>
      <trkpt lat="45.4001" lon="4.61936">
        <ele>1138.1105</ele>
        <time>2021-07-19T09:35:25Z</time>
      </trkpt>
      <trkpt lat="45.40008" lon="4.61934">
        <ele>1138.3324</ele>
        <time>2021-07-19T09:35:26Z</time>
      </trkpt>
      <trkpt lat="45.40006" lon="4.61931">
        <ele>1138.6337</ele>
        <time>2021-07-19T09:35:27Z</time>
      </trkpt>
      <trkpt lat="45.40004" lon="4.61928">
        <ele>1138.8029</ele>
        <time>2021-07-19T09:35:28Z</time>
      </trkpt>
      <trkpt lat="45.40002" lon="4.61925">
        <ele>1139.215</ele>
        <time>2021-07-19T09:35:29Z</time>
      </trkpt>
      <trkpt lat="45.4" lon="4.61921">
        <ele>1139.3894</ele>
        <time>2021-07-19T09:35:30Z</time>
      </trkpt>
      <trkpt lat="45.39998" lon="4.61919">
        <ele>1139.458</ele>
        <time>2021-07-19T09:35:31Z</time>
      </trkpt>
      <trkpt lat="45.39996" lon="4.61916">
        <ele>1139.6853</ele>
        <time>2021-07-19T09:35:32Z</time>
      </trkpt>
      <trkpt lat="45.39995" lon="4.61913">
        <ele>1139.9126</ele>
        <time>2021-07-19T09:35:33Z</time>
      </trkpt>
      <trkpt lat="45.39993" lon="4.6191">
        <ele>1140.034</ele>
        <time>2021-07-19T09:35:34Z</time>
      </trkpt>
      <trkpt lat="45.39992" lon="4.61907">
        <ele>1140.3406</ele>
        <time>2021-07-19T09:35:35Z</time>
      </trkpt>
      <trkpt lat="45.3999" lon="4.61904">
        <ele>1140.5203</ele>
        <time>2021-07-19T09:35:36Z</time>
      </trkpt>
      <trkpt lat="45.39989" lon="4.619">
        <ele>1140.9008</ele>
        <time>2021-07-19T09:35:37Z</time>
      </trkpt>
      <trkpt lat="45.39987" lon="4.61897">
        <ele>1141.1174</ele>
        <time>2021-07-19T09:35:38Z</time>
      </trkpt>
      <trkpt lat="45.39986" lon="4.61893">
        <ele>1141.276</ele>
        <time>2021-07-19T09:35:39Z</time>
      </trkpt>
      <trkpt lat="45.39984" lon="4.6189">
        <ele>1141.5508</ele>
        <time>2021-07-19T09:35:40Z</time>
      </trkpt>
      <trkpt lat="45.39983" lon="4.61887">
        <ele>1141.7411</ele>
        <time>2021-07-19T09:35:41Z</time>
      </trkpt>
      <trkpt lat="45.39982" lon="4.61884">
        <ele>1142</ele>
        <time>2021-07-19T09:35:42Z</time>
      </trkpt>
      <trkpt lat="45.3998" lon="4.61881">
        <ele>1142.2695</ele>
        <time>2021-07-19T09:35:43Z</time>
      </trkpt>
      <trkpt lat="45.39979" lon="4.61878">
        <ele>1142.4069</ele>
        <time>2021-07-19T09:35:44Z</time>
      </trkpt>
      <trkpt lat="45.39978" lon="4.61875">
        <ele>1142.6183</ele>
        <time>2021-07-19T09:35:45Z</time>
      </trkpt>
      <trkpt lat="45.39977" lon="4.61872">
        <ele>1142.8931</ele>
        <time>2021-07-19T09:35:46Z</time>
      </trkpt>
      <trkpt lat="45.39976" lon="4.61869">
        <ele>1143.1204</ele>
        <time>2021-07-19T09:35:47Z</time>
      </trkpt>
      <trkpt lat="45.39974" lon="4.61867">
        <ele>1143.3317</ele>
        <time>2021-07-19T09:35:48Z</time>
      </trkpt>
      <trkpt lat="45.39973" lon="4.61865">
        <ele>1143.6436</ele>
        <time>2021-07-19T09:35:49Z</time>
      </trkpt>
      <trkpt lat="45.39971" lon="4.61861">
        <ele>1143.9764</ele>
        <time>2021-07-19T09:35:50Z</time>
      </trkpt>
      <trkpt lat="45.39969" lon="4.61859">
        <ele>1144.0187</ele>
        <time>2021-07-19T09:35:51Z</time>
      </trkpt>
      <trkpt lat="45.39968" lon="4.61857">
        <ele>1144.172</ele>
        <time>2021-07-19T09:35:52Z</time>
      </trkpt>
      <trkpt lat="45.39967" lon="4.61854">
        <ele>1144.4363</ele>
        <time>2021-07-19T09:35:53Z</time>
      </trkpt>
      <trkpt lat="45.39965" lon="4.61852">
        <ele>1144.4204</ele>
        <time>2021-07-19T09:35:54Z</time>
      </trkpt>
      <trkpt lat="45.39963" lon="4.61848">
        <ele>1144.6898</ele>
        <time>2021-07-19T09:35:55Z</time>
      </trkpt>
      <trkpt lat="45.39961" lon="4.61845">
        <ele>1144.8643</ele>
        <time>2021-07-19T09:35:56Z</time>
      </trkpt>
      <trkpt lat="45.39959" lon="4.61842">
        <ele>1145.1708</ele>
        <time>2021-07-19T09:35:57Z</time>
      </trkpt>
      <trkpt lat="45.39958" lon="4.6184">
        <ele>1145.4297</ele>
        <time>2021-07-19T09:35:58Z</time>
      </trkpt>
      <trkpt lat="45.39956" lon="4.61837">
        <ele>1145.8049</ele>
        <time>2021-07-19T09:35:59Z</time>
      </trkpt>
      <trkpt lat="45.39954" lon="4.61835">
        <ele>1146.0005</ele>
        <time>2021-07-19T09:36:00Z</time>
      </trkpt>
      <trkpt lat="45.39952" lon="4.61833">
        <ele>1146.1432</ele>
        <time>2021-07-19T09:36:01Z</time>
      </trkpt>
      <trkpt lat="45.39951" lon="4.61831">
        <ele>1146.3545</ele>
        <time>2021-07-19T09:36:02Z</time>
      </trkpt>
      <trkpt lat="45.39949" lon="4.61828">
        <ele>1146.6346</ele>
        <time>2021-07-19T09:36:03Z</time>
      </trkpt>
      <trkpt lat="45.39947" lon="4.61825">
        <ele>1146.8777</ele>
        <time>2021-07-19T09:36:04Z</time>
      </trkpt>
      <trkpt lat="45.39946" lon="4.61822">
        <ele>1147.1683</ele>
        <time>2021-07-19T09:36:05Z</time>
      </trkpt>
      <trkpt lat="45.39943" lon="4.61818">
        <ele>1147.3269</ele>
        <time>2021-07-19T09:36:06Z</time>
      </trkpt>
      <trkpt lat="45.39941" lon="4.61815">
        <ele>1147.6017</ele>
        <time>2021-07-19T09:36:07Z</time>
      </trkpt>
      <trkpt lat="45.3994" lon="4.61811">
        <ele>1147.8712</ele>
        <time>2021-07-19T09:36:08Z</time>
      </trkpt>
      <trkpt lat="45.39938" lon="4.61808">
        <ele>1148.0033</ele>
        <time>2021-07-19T09:36:09Z</time>
      </trkpt>
      <trkpt lat="45.39937" lon="4.61805">
        <ele>1148.2887</ele>
        <time>2021-07-19T09:36:10Z</time>
      </trkpt>
      <trkpt lat="45.39936" lon="4.61803">
        <ele>1148.5107</ele>
        <time>2021-07-19T09:36:11Z</time>
      </trkpt>
      <trkpt lat="45.39934" lon="4.618">
        <ele>1148.6798</ele>
        <time>2021-07-19T09:36:12Z</time>
      </trkpt>
      <trkpt lat="45.39933" lon="4.61797">
        <ele>1149.0656</ele>
        <time>2021-07-19T09:36:13Z</time>
      </trkpt>
      <trkpt lat="45.39932" lon="4.61794">
        <ele>1149.2716</ele>
        <time>2021-07-19T09:36:14Z</time>
      </trkpt>
      <trkpt lat="45.3993" lon="4.61792">
        <ele>1149.5676</ele>
        <time>2021-07-19T09:36:15Z</time>
      </trkpt>
      <trkpt lat="45.39928" lon="4.61789">
        <ele>1149.4937</ele>
        <time>2021-07-19T09:36:16Z</time>
      </trkpt>
      <trkpt lat="45.39926" lon="4.61787">
        <ele>1149.6627</ele>
        <time>2021-07-19T09:36:17Z</time>
      </trkpt>
      <trkpt lat="45.39925" lon="4.61785">
        <ele>1149.911</ele>
        <time>2021-07-19T09:36:18Z</time>
      </trkpt>
      <trkpt lat="45.39923" lon="4.61783">
        <ele>1150.0273</ele>
        <time>2021-07-19T09:36:19Z</time>
      </trkpt>
      <trkpt lat="45.39921" lon="4.61781">
        <ele>1150.1383</ele>
        <time>2021-07-19T09:36:20Z</time>
      </trkpt>
      <trkpt lat="45.39919" lon="4.61778">
        <ele>1150.3232</ele>
        <time>2021-07-19T09:36:21Z</time>
      </trkpt>
      <trkpt lat="45.39918" lon="4.61776">
        <ele>1150.6139</ele>
        <time>2021-07-19T09:36:22Z</time>
      </trkpt>
      <trkpt lat="45.39917" lon="4.61773">
        <ele>1151.0737</ele>
        <time>2021-07-19T09:36:23Z</time>
      </trkpt>
      <trkpt lat="45.39916" lon="4.6177">
        <ele>1151.0896</ele>
        <time>2021-07-19T09:36:24Z</time>
      </trkpt>
      <trkpt lat="45.39915" lon="4.61767">
        <ele>1151.2798</ele>
        <time>2021-07-19T09:36:25Z</time>
      </trkpt>
      <trkpt lat="45.39914" lon="4.61764">
        <ele>1151.5176</ele>
        <time>2021-07-19T09:36:26Z</time>
      </trkpt>
      <trkpt lat="45.39912" lon="4.6176">
        <ele>1151.7395</ele>
        <time>2021-07-19T09:36:27Z</time>
      </trkpt>
      <trkpt lat="45.3991" lon="4.61757">
        <ele>1151.9774</ele>
        <time>2021-07-19T09:36:28Z</time>
      </trkpt>
      <trkpt lat="45.39908" lon="4.61753">
        <ele>1152.3579</ele>
        <time>2021-07-19T09:36:29Z</time>
      </trkpt>
      <trkpt lat="45.39906" lon="4.61751">
        <ele>1152.4741</ele>
        <time>2021-07-19T09:36:30Z</time>
      </trkpt>
      <trkpt lat="45.39905" lon="4.61749">
        <ele>1152.7806</ele>
        <time>2021-07-19T09:36:31Z</time>
      </trkpt>
      <trkpt lat="45.39904" lon="4.61746">
        <ele>1153.0872</ele>
        <time>2021-07-19T09:36:32Z</time>
      </trkpt>
      <trkpt lat="45.39902" lon="4.61743">
        <ele>1153.3303</ele>
        <time>2021-07-19T09:36:33Z</time>
      </trkpt>
      <trkpt lat="45.39901" lon="4.6174">
        <ele>1153.7213</ele>
        <time>2021-07-19T09:36:34Z</time>
      </trkpt>
      <trkpt lat="45.39899" lon="4.61738">
        <ele>1153.9221</ele>
        <time>2021-07-19T09:36:35Z</time>
      </trkpt>
      <trkpt lat="45.39897" lon="4.61735">
        <ele>1154.1388</ele>
        <time>2021-07-19T09:36:36Z</time>
      </trkpt>
      <trkpt lat="45.39895" lon="4.61734">
        <ele>1154.3818</ele>
        <time>2021-07-19T09:36:37Z</time>
      </trkpt>
      <trkpt lat="45.39894" lon="4.61732">
        <ele>1154.5669</ele>
        <time>2021-07-19T09:36:38Z</time>
      </trkpt>
      <trkpt lat="45.39893" lon="4.61729">
        <ele>1154.773</ele>
        <time>2021-07-19T09:36:39Z</time>
      </trkpt>
      <trkpt lat="45.39891" lon="4.61726">
        <ele>1155.1376</ele>
        <time>2021-07-19T09:36:40Z</time>
      </trkpt>
      <trkpt lat="45.3989" lon="4.61724">
        <ele>1155.4547</ele>
        <time>2021-07-19T09:36:41Z</time>
      </trkpt>
      <trkpt lat="45.39888" lon="4.61722">
        <ele>1155.5498</ele>
        <time>2021-07-19T09:36:42Z</time>
      </trkpt>
      <trkpt lat="45.39886" lon="4.61721">
        <ele>1155.7823</ele>
        <time>2021-07-19T09:36:43Z</time>
      </trkpt>
      <trkpt lat="45.39883" lon="4.6172">
        <ele>1156.0413</ele>
        <time>2021-07-19T09:36:44Z</time>
      </trkpt>
      <trkpt lat="45.39882" lon="4.61719">
        <ele>1156.3689</ele>
        <time>2021-07-19T09:36:45Z</time>
      </trkpt>
      <trkpt lat="45.3988" lon="4.61717">
        <ele>1156.6384</ele>
        <time>2021-07-19T09:36:46Z</time>
      </trkpt>
      <trkpt lat="45.39878" lon="4.61715">
        <ele>1156.8499</ele>
        <time>2021-07-19T09:36:47Z</time>
      </trkpt>
      <trkpt lat="45.39877" lon="4.61713">
        <ele>1157.1986</ele>
        <time>2021-07-19T09:36:48Z</time>
      </trkpt>
      <trkpt lat="45.39875" lon="4.61711">
        <ele>1157.3202</ele>
        <time>2021-07-19T09:36:49Z</time>
      </trkpt>
      <trkpt lat="45.39872" lon="4.61707">
        <ele>1157.484</ele>
        <time>2021-07-19T09:36:50Z</time>
      </trkpt>
      <trkpt lat="45.39871" lon="4.61705">
        <ele>1157.7007</ele>
        <time>2021-07-19T09:36:51Z</time>
      </trkpt>
      <trkpt lat="45.3987" lon="4.61702">
        <ele>1157.8116</ele>
        <time>2021-07-19T09:36:52Z</time>
      </trkpt>
      <trkpt lat="45.39867" lon="4.61699">
        <ele>1158.0706</ele>
        <time>2021-07-19T09:36:53Z</time>
      </trkpt>
      <trkpt lat="45.39865" lon="4.61696">
        <ele>1158.282</ele>
        <time>2021-07-19T09:36:54Z</time>
      </trkpt>
      <trkpt lat="45.39863" lon="4.61694">
        <ele>1158.5674</ele>
        <time>2021-07-19T09:36:55Z</time>
      </trkpt>
      <trkpt lat="45.39861" lon="4.61691">
        <ele>1158.7999</ele>
        <time>2021-07-19T09:36:56Z</time>
      </trkpt>
      <trkpt lat="45.39859" lon="4.61689">
        <ele>1158.9954</ele>
        <time>2021-07-19T09:36:57Z</time>
      </trkpt>
      <trkpt lat="45.39856" lon="4.61687">
        <ele>1159.1803</ele>
        <time>2021-07-19T09:36:58Z</time>
      </trkpt>
      <trkpt lat="45.39854" lon="4.61684">
        <ele>1159.3494</ele>
        <time>2021-07-19T09:36:59Z</time>
      </trkpt>
      <trkpt lat="45.39852" lon="4.61682">
        <ele>1159.6243</ele>
        <time>2021-07-19T09:37:00Z</time>
      </trkpt>
      <trkpt lat="45.3985" lon="4.6168">
        <ele>1159.7405</ele>
        <time>2021-07-19T09:37:01Z</time>
      </trkpt>
      <trkpt lat="45.39849" lon="4.61678">
        <ele>1159.9625</ele>
        <time>2021-07-19T09:37:02Z</time>
      </trkpt>
      <trkpt lat="45.39847" lon="4.61676">
        <ele>1160.2002</ele>
        <time>2021-07-19T09:37:03Z</time>
      </trkpt>
      <trkpt lat="45.39845" lon="4.61672">
        <ele>1160.4592</ele>
        <time>2021-07-19T09:37:04Z</time>
      </trkpt>
      <trkpt lat="45.39843" lon="4.61668">
        <ele>1160.6495</ele>
        <time>2021-07-19T09:37:05Z</time>
      </trkpt>
      <trkpt lat="45.39842" lon="4.61664">
        <ele>1160.8926</ele>
        <time>2021-07-19T09:37:06Z</time>
      </trkpt>
      <trkpt lat="45.39838" lon="4.61659">
        <ele>1161.1991</ele>
        <time>2021-07-19T09:37:07Z</time>
      </trkpt>
      <trkpt lat="45.39836" lon="4.61654">
        <ele>1161.5585</ele>
        <time>2021-07-19T09:37:08Z</time>
      </trkpt>
      <trkpt lat="45.39834" lon="4.6165">
        <ele>1161.7223</ele>
        <time>2021-07-19T09:37:09Z</time>
      </trkpt>
      <trkpt lat="45.39832" lon="4.61648">
        <ele>1161.939</ele>
        <time>2021-07-19T09:37:10Z</time>
      </trkpt>
      <trkpt lat="45.3983" lon="4.61646">
        <ele>1162.1028</ele>
        <time>2021-07-19T09:37:11Z</time>
      </trkpt>
      <trkpt lat="45.39828" lon="4.61644">
        <ele>1162.2401</ele>
        <time>2021-07-19T09:37:12Z</time>
      </trkpt>
      <trkpt lat="45.39826" lon="4.61642">
        <ele>1162.4515</ele>
        <time>2021-07-19T09:37:13Z</time>
      </trkpt>
      <trkpt lat="45.39825" lon="4.6164">
        <ele>1162.6787</ele>
        <time>2021-07-19T09:37:14Z</time>
      </trkpt>
      <trkpt lat="45.39822" lon="4.61638">
        <ele>1163.0117</ele>
        <time>2021-07-19T09:37:15Z</time>
      </trkpt>
      <trkpt lat="45.39821" lon="4.61636">
        <ele>1163.2706</ele>
        <time>2021-07-19T09:37:16Z</time>
      </trkpt>
      <trkpt lat="45.39819" lon="4.61634">
        <ele>1163.4503</ele>
        <time>2021-07-19T09:37:17Z</time>
      </trkpt>
      <trkpt lat="45.39817" lon="4.61632">
        <ele>1163.7145</ele>
        <time>2021-07-19T09:37:18Z</time>
      </trkpt>
      <trkpt lat="45.39816" lon="4.61629">
        <ele>1163.9576</ele>
        <time>2021-07-19T09:37:19Z</time>
      </trkpt>
      <trkpt lat="45.39813" lon="4.61627">
        <ele>1164.1321</ele>
        <time>2021-07-19T09:37:20Z</time>
      </trkpt>
      <trkpt lat="45.39811" lon="4.61625">
        <ele>1164.428</ele>
        <time>2021-07-19T09:37:21Z</time>
      </trkpt>
      <trkpt lat="45.39809" lon="4.61623">
        <ele>1164.7292</ele>
        <time>2021-07-19T09:37:22Z</time>
      </trkpt>
      <trkpt lat="45.39807" lon="4.6162">
        <ele>1164.7821</ele>
        <time>2021-07-19T09:37:23Z</time>
      </trkpt>
      <trkpt lat="45.39804" lon="4.61619">
        <ele>1165.1626</ele>
        <time>2021-07-19T09:37:24Z</time>
      </trkpt>
      <trkpt lat="45.39802" lon="4.61617">
        <ele>1165.448</ele>
        <time>2021-07-19T09:37:25Z</time>
      </trkpt>
      <trkpt lat="45.39799" lon="4.61616">
        <ele>1165.5219</ele>
        <time>2021-07-19T09:37:26Z</time>
      </trkpt>
      <trkpt lat="45.39797" lon="4.61614">
        <ele>1165.7544</ele>
        <time>2021-07-19T09:37:27Z</time>
      </trkpt>
      <trkpt lat="45.39795" lon="4.61612">
        <ele>1166.0398</ele>
        <time>2021-07-19T09:37:28Z</time>
      </trkpt>
      <trkpt lat="45.39793" lon="4.61611">
        <ele>1166.2935</ele>
        <time>2021-07-19T09:37:29Z</time>
      </trkpt>
      <trkpt lat="45.3979" lon="4.61611">
        <ele>1166.4995</ele>
        <time>2021-07-19T09:37:30Z</time>
      </trkpt>
      <trkpt lat="45.39787" lon="4.6161">
        <ele>1166.7268</ele>
        <time>2021-07-19T09:37:31Z</time>
      </trkpt>
      <trkpt lat="45.39785" lon="4.61609">
        <ele>1167.0703</ele>
        <time>2021-07-19T09:37:32Z</time>
      </trkpt>
      <trkpt lat="45.39783" lon="4.61607">
        <ele>1167.4297</ele>
        <time>2021-07-19T09:37:33Z</time>
      </trkpt>
      <trkpt lat="45.3978" lon="4.61606">
        <ele>1167.5302</ele>
        <time>2021-07-19T09:37:34Z</time>
      </trkpt>
      <trkpt lat="45.39776" lon="4.61605">
        <ele>1167.7203</ele>
        <time>2021-07-19T09:37:35Z</time>
      </trkpt>
      <trkpt lat="45.39774" lon="4.616">
        <ele>1168.0743</ele>
        <time>2021-07-19T09:37:36Z</time>
      </trkpt>
      <trkpt lat="45.39772" lon="4.61597">
        <ele>1168.381</ele>
        <time>2021-07-19T09:37:37Z</time>
      </trkpt>
      <trkpt lat="45.39771" lon="4.61595">
        <ele>1168.4178</ele>
        <time>2021-07-19T09:37:38Z</time>
      </trkpt>
      <trkpt lat="45.39769" lon="4.61594">
        <ele>1168.661</ele>
        <time>2021-07-19T09:37:39Z</time>
      </trkpt>
      <trkpt lat="45.39769" lon="4.61593">
        <ele>1168.8988</ele>
        <time>2021-07-19T09:37:40Z</time>
      </trkpt>
      <trkpt lat="45.39768" lon="4.61591">
        <ele>1169.0731</ele>
        <time>2021-07-19T09:37:41Z</time>
      </trkpt>
      <trkpt lat="45.39766" lon="4.61589">
        <ele>1169.1895</ele>
        <time>2021-07-19T09:37:42Z</time>
      </trkpt>
      <trkpt lat="45.39766" lon="4.61587">
        <ele>1169.422</ele>
        <time>2021-07-19T09:37:43Z</time>
      </trkpt>
      <trkpt lat="45.39766" lon="4.61584">
        <ele>1169.7919</ele>
        <time>2021-07-19T09:37:44Z</time>
      </trkpt>
      <trkpt lat="45.39766" lon="4.61582">
        <ele>1169.924</ele>
        <time>2021-07-19T09:37:45Z</time>
      </trkpt>
      <trkpt lat="45.39765" lon="4.61581">
        <ele>1169.961</ele>
        <time>2021-07-19T09:37:46Z</time>
      </trkpt>
      <trkpt lat="45.39764" lon="4.61579">
        <ele>1169.8606</ele>
        <time>2021-07-19T09:37:47Z</time>
      </trkpt>
      <trkpt lat="45.39763" lon="4.61577">
        <ele>1169.998</ele>
        <time>2021-07-19T09:37:48Z</time>
      </trkpt>
      <trkpt lat="45.39761" lon="4.61574">
        <ele>1170.4102</ele>
        <time>2021-07-19T09:37:49Z</time>
      </trkpt>
      <trkpt lat="45.39758" lon="4.61573">
        <ele>1170.87</ele>
        <time>2021-07-19T09:37:50Z</time>
      </trkpt>
      <trkpt lat="45.39756" lon="4.61571">
        <ele>1171.1448</ele>
        <time>2021-07-19T09:37:51Z</time>
      </trkpt>
      <trkpt lat="45.39754" lon="4.61569">
        <ele>1171.3932</ele>
        <time>2021-07-19T09:37:52Z</time>
      </trkpt>
      <trkpt lat="45.39752" lon="4.61567">
        <ele>1171.557</ele>
        <time>2021-07-19T09:37:53Z</time>
      </trkpt>
      <trkpt lat="45.3975" lon="4.61565">
        <ele>1171.8582</ele>
        <time>2021-07-19T09:37:54Z</time>
      </trkpt>
      <trkpt lat="45.39748" lon="4.61563">
        <ele>1172.0643</ele>
        <time>2021-07-19T09:37:55Z</time>
      </trkpt>
      <trkpt lat="45.39747" lon="4.61561">
        <ele>1172.3126</ele>
        <time>2021-07-19T09:37:56Z</time>
      </trkpt>
      <trkpt lat="45.39746" lon="4.6156">
        <ele>1172.4553</ele>
        <time>2021-07-19T09:37:57Z</time>
      </trkpt>
      <trkpt lat="45.39744" lon="4.61559">
        <ele>1172.8464</ele>
        <time>2021-07-19T09:37:58Z</time>
      </trkpt>
      <trkpt lat="45.39741" lon="4.61559">
        <ele>1173.0525</ele>
        <time>2021-07-19T09:37:59Z</time>
      </trkpt>
      <trkpt lat="45.3974" lon="4.61558">
        <ele>1173.2269</ele>
        <time>2021-07-19T09:38:00Z</time>
      </trkpt>
      <trkpt lat="45.39738" lon="4.6156">
        <ele>1173.359</ele>
        <time>2021-07-19T09:38:01Z</time>
      </trkpt>
      <trkpt lat="45.39735" lon="4.61566">
        <ele>1173.6444</ele>
        <time>2021-07-19T09:38:02Z</time>
      </trkpt>
      <trkpt lat="45.3973" lon="4.61569">
        <ele>1174.0566</ele>
        <time>2021-07-19T09:38:03Z</time>
      </trkpt>
      <trkpt lat="45.39724" lon="4.61567">
        <ele>1174.2205</ele>
        <time>2021-07-19T09:38:04Z</time>
      </trkpt>
      <trkpt lat="45.39717" lon="4.61566">
        <ele>1174.3948</ele>
        <time>2021-07-19T09:38:05Z</time>
      </trkpt>
      <trkpt lat="45.39713" lon="4.61563">
        <ele>1174.6802</ele>
        <time>2021-07-19T09:38:06Z</time>
      </trkpt>
      <trkpt lat="45.39708" lon="4.61563">
        <ele>1174.5903</ele>
        <time>2021-07-19T09:38:07Z</time>
      </trkpt>
      <trkpt lat="45.39705" lon="4.61562">
        <ele>1174.7489</ele>
        <time>2021-07-19T09:38:08Z</time>
      </trkpt>
      <trkpt lat="45.39701" lon="4.6156">
        <ele>1174.844</ele>
        <time>2021-07-19T09:38:09Z</time>
      </trkpt>
      <trkpt lat="45.39697" lon="4.61559">
        <ele>1174.7172</ele>
        <time>2021-07-19T09:38:10Z</time>
      </trkpt>
      <trkpt lat="45.39694" lon="4.61559">
        <ele>1174.6062</ele>
        <time>2021-07-19T09:38:11Z</time>
      </trkpt>
      <trkpt lat="45.39691" lon="4.61557">
        <ele>1174.601</ele>
        <time>2021-07-19T09:38:12Z</time>
      </trkpt>
      <trkpt lat="45.3969" lon="4.61556">
        <ele>1174.8705</ele>
        <time>2021-07-19T09:38:13Z</time>
      </trkpt>
      <trkpt lat="45.39689" lon="4.61555">
        <ele>1175.1453</ele>
        <time>2021-07-19T09:38:14Z</time>
      </trkpt>
      <trkpt lat="45.39687" lon="4.61554">
        <ele>1175.1611</ele>
        <time>2021-07-19T09:38:15Z</time>
      </trkpt>
      <trkpt lat="45.39685" lon="4.61554">
        <ele>1175.2827</ele>
        <time>2021-07-19T09:38:16Z</time>
      </trkpt>
      <trkpt lat="45.39683" lon="4.61554">
        <ele>1175.3197</ele>
        <time>2021-07-19T09:38:17Z</time>
      </trkpt>
      <trkpt lat="45.39681" lon="4.61554">
        <ele>1175.3461</ele>
        <time>2021-07-19T09:38:18Z</time>
      </trkpt>
      <trkpt lat="45.39677" lon="4.61553">
        <ele>1175.642</ele>
        <time>2021-07-19T09:38:19Z</time>
      </trkpt>
      <trkpt lat="45.39673" lon="4.6155">
        <ele>1175.5521</ele>
        <time>2021-07-19T09:38:20Z</time>
      </trkpt>
      <trkpt lat="45.39668" lon="4.61546">
        <ele>1175.7477</ele>
        <time>2021-07-19T09:38:21Z</time>
      </trkpt>
      <trkpt lat="45.39663" lon="4.61548">
        <ele>1175.7266</ele>
        <time>2021-07-19T09:38:22Z</time>
      </trkpt>
      <trkpt lat="45.39661" lon="4.61548">
        <ele>1175.8428</ele>
        <time>2021-07-19T09:38:23Z</time>
      </trkpt>
      <trkpt lat="45.39658" lon="4.61549">
        <ele>1175.9855</ele>
        <time>2021-07-19T09:38:24Z</time>
      </trkpt>
      <trkpt lat="45.39655" lon="4.61549">
        <ele>1176.3342</ele>
        <time>2021-07-19T09:38:25Z</time>
      </trkpt>
      <trkpt lat="45.39651" lon="4.61548">
        <ele>1176.3237</ele>
        <time>2021-07-19T09:38:26Z</time>
      </trkpt>
      <trkpt lat="45.39647" lon="4.61546">
        <ele>1176.403</ele>
        <time>2021-07-19T09:38:27Z</time>
      </trkpt>
      <trkpt lat="45.39644" lon="4.61545">
        <ele>1176.6302</ele>
        <time>2021-07-19T09:38:28Z</time>
      </trkpt>
      <trkpt lat="45.3964" lon="4.61545">
        <ele>1176.7095</ele>
        <time>2021-07-19T09:38:29Z</time>
      </trkpt>
      <trkpt lat="45.39637" lon="4.61545">
        <ele>1176.9314</ele>
        <time>2021-07-19T09:38:30Z</time>
      </trkpt>
      <trkpt lat="45.39634" lon="4.61545">
        <ele>1177.185</ele>
        <time>2021-07-19T09:38:31Z</time>
      </trkpt>
      <trkpt lat="45.39629" lon="4.61544">
        <ele>1177.2592</ele>
        <time>2021-07-19T09:38:32Z</time>
      </trkpt>
      <trkpt lat="45.39624" lon="4.61541">
        <ele>1177.4493</ele>
        <time>2021-07-19T09:38:33Z</time>
      </trkpt>
      <trkpt lat="45.39619" lon="4.6154">
        <ele>1177.6925</ele>
        <time>2021-07-19T09:38:34Z</time>
      </trkpt>
      <trkpt lat="45.39613" lon="4.61537">
        <ele>1177.6606</ele>
        <time>2021-07-19T09:38:35Z</time>
      </trkpt>
      <trkpt lat="45.39608" lon="4.61535">
        <ele>1177.8405</ele>
        <time>2021-07-19T09:38:36Z</time>
      </trkpt>
      <trkpt lat="45.39604" lon="4.61534">
        <ele>1177.9937</ele>
        <time>2021-07-19T09:38:37Z</time>
      </trkpt>
      <trkpt lat="45.396" lon="4.61533">
        <ele>1178.1733</ele>
        <time>2021-07-19T09:38:38Z</time>
      </trkpt>
      <trkpt lat="45.39596" lon="4.61532">
        <ele>1178.2738</ele>
        <time>2021-07-19T09:38:39Z</time>
      </trkpt>
      <trkpt lat="45.39591" lon="4.61531">
        <ele>1178.5961</ele>
        <time>2021-07-19T09:38:40Z</time>
      </trkpt>
      <trkpt lat="45.39587" lon="4.6153">
        <ele>1178.4429</ele>
        <time>2021-07-19T09:38:41Z</time>
      </trkpt>
      <trkpt lat="45.39582" lon="4.6153">
        <ele>1178.6702</ele>
        <time>2021-07-19T09:38:42Z</time>
      </trkpt>
      <trkpt lat="45.39578" lon="4.6153">
        <ele>1178.7969</ele>
        <time>2021-07-19T09:38:43Z</time>
      </trkpt>
      <trkpt lat="45.39575" lon="4.6153">
        <ele>1179.0083</ele>
        <time>2021-07-19T09:38:44Z</time>
      </trkpt>
      <trkpt lat="45.39572" lon="4.6153">
        <ele>1178.9237</ele>
        <time>2021-07-19T09:38:45Z</time>
      </trkpt>
      <trkpt lat="45.39569" lon="4.61531">
        <ele>1178.9608</ele>
        <time>2021-07-19T09:38:46Z</time>
      </trkpt>
      <trkpt lat="45.39565" lon="4.6153">
        <ele>1179.077</ele>
        <time>2021-07-19T09:38:47Z</time>
      </trkpt>
      <trkpt lat="45.39559" lon="4.6153">
        <ele>1179.2778</ele>
        <time>2021-07-19T09:38:48Z</time>
      </trkpt>
      <trkpt lat="45.39554" lon="4.61529">
        <ele>1179.431</ele>
        <time>2021-07-19T09:38:49Z</time>
      </trkpt>
      <trkpt lat="45.39548" lon="4.61528">
        <ele>1179.4469</ele>
        <time>2021-07-19T09:38:50Z</time>
      </trkpt>
      <trkpt lat="45.39543" lon="4.61528">
        <ele>1179.6318</ele>
        <time>2021-07-19T09:38:51Z</time>
      </trkpt>
      <trkpt lat="45.3954" lon="4.61527">
        <ele>1179.801</ele>
        <time>2021-07-19T09:38:52Z</time>
      </trkpt>
      <trkpt lat="45.39536" lon="4.61527">
        <ele>1179.9066</ele>
        <time>2021-07-19T09:38:53Z</time>
      </trkpt>
      <trkpt lat="45.39532" lon="4.61526">
        <ele>1180.0282</ele>
        <time>2021-07-19T09:38:54Z</time>
      </trkpt>
      <trkpt lat="45.39528" lon="4.61526">
        <ele>1180.023</ele>
        <time>2021-07-19T09:38:55Z</time>
      </trkpt>
      <trkpt lat="45.39525" lon="4.61525">
        <ele>1179.9701</ele>
        <time>2021-07-19T09:38:56Z</time>
      </trkpt>
      <trkpt lat="45.39521" lon="4.61524">
        <ele>1180.1761</ele>
        <time>2021-07-19T09:38:57Z</time>
      </trkpt>
      <trkpt lat="45.39517" lon="4.61524">
        <ele>1180.2925</ele>
        <time>2021-07-19T09:38:58Z</time>
      </trkpt>
      <trkpt lat="45.39512" lon="4.61523">
        <ele>1180.4034</ele>
        <time>2021-07-19T09:38:59Z</time>
      </trkpt>
      <trkpt lat="45.39508" lon="4.61524">
        <ele>1180.393</ele>
        <time>2021-07-19T09:39:00Z</time>
      </trkpt>
      <trkpt lat="45.39504" lon="4.61524">
        <ele>1180.6306</ele>
        <time>2021-07-19T09:39:01Z</time>
      </trkpt>
      <trkpt lat="45.39501" lon="4.61524">
        <ele>1180.805</ele>
        <time>2021-07-19T09:39:02Z</time>
      </trkpt>
      <trkpt lat="45.39496" lon="4.61524">
        <ele>1180.842</ele>
        <time>2021-07-19T09:39:03Z</time>
      </trkpt>
      <trkpt lat="45.39492" lon="4.61524">
        <ele>1180.9001</ele>
        <time>2021-07-19T09:39:04Z</time>
      </trkpt>
      <trkpt lat="45.39489" lon="4.61524">
        <ele>1181.0957</ele>
        <time>2021-07-19T09:39:05Z</time>
      </trkpt>
      <trkpt lat="45.39484" lon="4.61524">
        <ele>1181.212</ele>
        <time>2021-07-19T09:39:06Z</time>
      </trkpt>
      <trkpt lat="45.39481" lon="4.61524">
        <ele>1181.3759</ele>
        <time>2021-07-19T09:39:07Z</time>
      </trkpt>
      <trkpt lat="45.39478" lon="4.61523">
        <ele>1181.5344</ele>
        <time>2021-07-19T09:39:08Z</time>
      </trkpt>
      <trkpt lat="45.39475" lon="4.61523">
        <ele>1181.8462</ele>
        <time>2021-07-19T09:39:09Z</time>
      </trkpt>
      <trkpt lat="45.39471" lon="4.61524">
        <ele>1182.0522</ele>
        <time>2021-07-19T09:39:10Z</time>
      </trkpt>
      <trkpt lat="45.39469" lon="4.61524">
        <ele>1182.3483</ele>
        <time>2021-07-19T09:39:11Z</time>
      </trkpt>
      <trkpt lat="45.39467" lon="4.61524">
        <ele>1182.4116</ele>
        <time>2021-07-19T09:39:12Z</time>
      </trkpt>
      <trkpt lat="45.39463" lon="4.61524">
        <ele>1182.5543</ele>
        <time>2021-07-19T09:39:13Z</time>
      </trkpt>
      <trkpt lat="45.3946" lon="4.61524">
        <ele>1182.5859</ele>
        <time>2021-07-19T09:39:14Z</time>
      </trkpt>
      <trkpt lat="45.39457" lon="4.61524">
        <ele>1182.9401</ele>
        <time>2021-07-19T09:39:15Z</time>
      </trkpt>
      <trkpt lat="45.39455" lon="4.61525">
        <ele>1183.0088</ele>
        <time>2021-07-19T09:39:16Z</time>
      </trkpt>
      <trkpt lat="45.39454" lon="4.61525">
        <ele>1183.2043</ele>
        <time>2021-07-19T09:39:17Z</time>
      </trkpt>
      <trkpt lat="45.39451" lon="4.61525">
        <ele>1183.1885</ele>
        <time>2021-07-19T09:39:18Z</time>
      </trkpt>
      <trkpt lat="45.39448" lon="4.61526">
        <ele>1183.3893</ele>
        <time>2021-07-19T09:39:19Z</time>
      </trkpt>
      <trkpt lat="45.39444" lon="4.61526">
        <ele>1183.5847</ele>
        <time>2021-07-19T09:39:20Z</time>
      </trkpt>
      <trkpt lat="45.39439" lon="4.61527">
        <ele>1183.7593</ele>
        <time>2021-07-19T09:39:21Z</time>
      </trkpt>
      <trkpt lat="45.39435" lon="4.61527">
        <ele>1183.8914</ele>
        <time>2021-07-19T09:39:22Z</time>
      </trkpt>
      <trkpt lat="45.39431" lon="4.61528">
        <ele>1183.8226</ele>
        <time>2021-07-19T09:39:23Z</time>
      </trkpt>
      <trkpt lat="45.39426" lon="4.61529">
        <ele>1184.0128</ele>
        <time>2021-07-19T09:39:24Z</time>
      </trkpt>
      <trkpt lat="45.39423" lon="4.6153">
        <ele>1184.0763</ele>
        <time>2021-07-19T09:39:25Z</time>
      </trkpt>
      <trkpt lat="45.39419" lon="4.6153">
        <ele>1184.1133</ele>
        <time>2021-07-19T09:39:26Z</time>
      </trkpt>
      <trkpt lat="45.39415" lon="4.61531">
        <ele>1184.2612</ele>
        <time>2021-07-19T09:39:27Z</time>
      </trkpt>
      <trkpt lat="45.3941" lon="4.61532">
        <ele>1184.4303</ele>
        <time>2021-07-19T09:39:28Z</time>
      </trkpt>
      <trkpt lat="45.39405" lon="4.61535">
        <ele>1184.5942</ele>
        <time>2021-07-19T09:39:29Z</time>
      </trkpt>
      <trkpt lat="45.39401" lon="4.61537">
        <ele>1184.4409</ele>
        <time>2021-07-19T09:39:30Z</time>
      </trkpt>
      <trkpt lat="45.39396" lon="4.61538">
        <ele>1184.7792</ele>
        <time>2021-07-19T09:39:31Z</time>
      </trkpt>
      <trkpt lat="45.3939" lon="4.6154">
        <ele>1184.8743</ele>
        <time>2021-07-19T09:39:32Z</time>
      </trkpt>
      <trkpt lat="45.39385" lon="4.61541">
        <ele>1184.9852</ele>
        <time>2021-07-19T09:39:33Z</time>
      </trkpt>
      <trkpt lat="45.39381" lon="4.61543">
        <ele>1185.1279</ele>
        <time>2021-07-19T09:39:34Z</time>
      </trkpt>
      <trkpt lat="45.39377" lon="4.61545">
        <ele>1185.1914</ele>
        <time>2021-07-19T09:39:35Z</time>
      </trkpt>
      <trkpt lat="45.39373" lon="4.61546">
        <ele>1185.2864</ele>
        <time>2021-07-19T09:39:36Z</time>
      </trkpt>
      <trkpt lat="45.39369" lon="4.61547">
        <ele>1185.3657</ele>
        <time>2021-07-19T09:39:37Z</time>
      </trkpt>
      <trkpt lat="45.39365" lon="4.61548">
        <ele>1185.371</ele>
        <time>2021-07-19T09:39:38Z</time>
      </trkpt>
      <trkpt lat="45.39361" lon="4.6155">
        <ele>1185.593</ele>
        <time>2021-07-19T09:39:39Z</time>
      </trkpt>
      <trkpt lat="45.39358" lon="4.61551">
        <ele>1185.5771</ele>
        <time>2021-07-19T09:39:40Z</time>
      </trkpt>
      <trkpt lat="45.39354" lon="4.61552">
        <ele>1185.7568</ele>
        <time>2021-07-19T09:39:41Z</time>
      </trkpt>
      <trkpt lat="45.39351" lon="4.61554">
        <ele>1185.9153</ele>
        <time>2021-07-19T09:39:42Z</time>
      </trkpt>
      <trkpt lat="45.39348" lon="4.61555">
        <ele>1185.9048</ele>
        <time>2021-07-19T09:39:43Z</time>
      </trkpt>
      <trkpt lat="45.39344" lon="4.61557">
        <ele>1186.0739</ele>
        <time>2021-07-19T09:39:44Z</time>
      </trkpt>
      <trkpt lat="45.39341" lon="4.61558">
        <ele>1186.2853</ele>
        <time>2021-07-19T09:39:45Z</time>
      </trkpt>
      <trkpt lat="45.39337" lon="4.61559">
        <ele>1186.3698</ele>
        <time>2021-07-19T09:39:46Z</time>
      </trkpt>
      <trkpt lat="45.39333" lon="4.61561">
        <ele>1186.4438</ele>
        <time>2021-07-19T09:39:47Z</time>
      </trkpt>
      <trkpt lat="45.3933" lon="4.61562">
        <ele>1186.597</ele>
        <time>2021-07-19T09:39:48Z</time>
      </trkpt>
      <trkpt lat="45.39325" lon="4.61562">
        <ele>1186.5812</ele>
        <time>2021-07-19T09:39:49Z</time>
      </trkpt>
      <trkpt lat="45.39322" lon="4.61562">
        <ele>1186.5812</ele>
        <time>2021-07-19T09:39:50Z</time>
      </trkpt>
      <trkpt lat="45.39318" lon="4.61562">
        <ele>1186.6815</ele>
        <time>2021-07-19T09:39:51Z</time>
      </trkpt>
      <trkpt lat="45.39314" lon="4.61562">
        <ele>1186.7556</ele>
        <time>2021-07-19T09:39:52Z</time>
      </trkpt>
      <trkpt lat="45.39311" lon="4.61562">
        <ele>1186.8772</ele>
        <time>2021-07-19T09:39:53Z</time>
      </trkpt>
      <trkpt lat="45.39308" lon="4.61563">
        <ele>1186.8455</ele>
        <time>2021-07-19T09:39:54Z</time>
      </trkpt>
      <trkpt lat="45.39306" lon="4.61564">
        <ele>1187.0093</ele>
        <time>2021-07-19T09:39:55Z</time>
      </trkpt>
      <trkpt lat="45.39303" lon="4.61566">
        <ele>1187.1361</ele>
        <time>2021-07-19T09:39:56Z</time>
      </trkpt>
      <trkpt lat="45.393" lon="4.61568">
        <ele>1187.0938</ele>
        <time>2021-07-19T09:39:57Z</time>
      </trkpt>
      <trkpt lat="45.39298" lon="4.6157">
        <ele>1187.3792</ele>
        <time>2021-07-19T09:39:58Z</time>
      </trkpt>
      <trkpt lat="45.39295" lon="4.61572">
        <ele>1187.2893</ele>
        <time>2021-07-19T09:39:59Z</time>
      </trkpt>
      <trkpt lat="45.39291" lon="4.61573">
        <ele>1187.2471</ele>
        <time>2021-07-19T09:40:00Z</time>
      </trkpt>
      <trkpt lat="45.39287" lon="4.61574">
        <ele>1187.2206</ele>
        <time>2021-07-19T09:40:01Z</time>
      </trkpt>
      <trkpt lat="45.39283" lon="4.61575">
        <ele>1187.4849</ele>
        <time>2021-07-19T09:40:02Z</time>
      </trkpt>
      <trkpt lat="45.39278" lon="4.61576">
        <ele>1187.3105</ele>
        <time>2021-07-19T09:40:03Z</time>
      </trkpt>
      <trkpt lat="45.39275" lon="4.61576">
        <ele>1187.4268</ele>
        <time>2021-07-19T09:40:04Z</time>
      </trkpt>
      <trkpt lat="45.39271" lon="4.61576">
        <ele>1187.5958</ele>
        <time>2021-07-19T09:40:05Z</time>
      </trkpt>
      <trkpt lat="45.39267" lon="4.61575">
        <ele>1187.5271</ele>
        <time>2021-07-19T09:40:06Z</time>
      </trkpt>
      <trkpt lat="45.39264" lon="4.61575">
        <ele>1187.8177</ele>
        <time>2021-07-19T09:40:07Z</time>
      </trkpt>
      <trkpt lat="45.3926" lon="4.61575">
        <ele>1187.8495</ele>
        <time>2021-07-19T09:40:08Z</time>
      </trkpt>
      <trkpt lat="45.39256" lon="4.61573">
        <ele>1187.8549</ele>
        <time>2021-07-19T09:40:09Z</time>
      </trkpt>
      <trkpt lat="45.39252" lon="4.61572">
        <ele>1187.9869</ele>
        <time>2021-07-19T09:40:10Z</time>
      </trkpt>
      <trkpt lat="45.39248" lon="4.61573">
        <ele>1188.1613</ele>
        <time>2021-07-19T09:40:11Z</time>
      </trkpt>
      <trkpt lat="45.39243" lon="4.61573">
        <ele>1188.1296</ele>
        <time>2021-07-19T09:40:12Z</time>
      </trkpt>
      <trkpt lat="45.3924" lon="4.61572">
        <ele>1187.9817</ele>
        <time>2021-07-19T09:40:13Z</time>
      </trkpt>
      <trkpt lat="45.39235" lon="4.61572">
        <ele>1188.3885</ele>
        <time>2021-07-19T09:40:14Z</time>
      </trkpt>
      <trkpt lat="45.39232" lon="4.61572">
        <ele>1188.4255</ele>
        <time>2021-07-19T09:40:15Z</time>
      </trkpt>
      <trkpt lat="45.39228" lon="4.61572">
        <ele>1188.5365</ele>
        <time>2021-07-19T09:40:16Z</time>
      </trkpt>
      <trkpt lat="45.39224" lon="4.61571">
        <ele>1188.674</ele>
        <time>2021-07-19T09:40:17Z</time>
      </trkpt>
      <trkpt lat="45.39221" lon="4.61571">
        <ele>1188.7743</ele>
        <time>2021-07-19T09:40:18Z</time>
      </trkpt>
      <trkpt lat="45.39217" lon="4.61571">
        <ele>1188.7268</ele>
        <time>2021-07-19T09:40:19Z</time>
      </trkpt>
      <trkpt lat="45.39214" lon="4.61571">
        <ele>1188.8536</ele>
        <time>2021-07-19T09:40:20Z</time>
      </trkpt>
      <trkpt lat="45.39211" lon="4.61571">
        <ele>1188.9594</ele>
        <time>2021-07-19T09:40:21Z</time>
      </trkpt>
      <trkpt lat="45.39207" lon="4.6157">
        <ele>1189.0016</ele>
        <time>2021-07-19T09:40:22Z</time>
      </trkpt>
      <trkpt lat="45.39203" lon="4.61569">
        <ele>1189.1284</ele>
        <time>2021-07-19T09:40:23Z</time>
      </trkpt>
      <trkpt lat="45.392" lon="4.61568">
        <ele>1189.2711</ele>
        <time>2021-07-19T09:40:24Z</time>
      </trkpt>
      <trkpt lat="45.39196" lon="4.61568">
        <ele>1189.197</ele>
        <time>2021-07-19T09:40:25Z</time>
      </trkpt>
      <trkpt lat="45.39193" lon="4.61567">
        <ele>1189.3397</ele>
        <time>2021-07-19T09:40:26Z</time>
      </trkpt>
      <trkpt lat="45.39189" lon="4.61567">
        <ele>1189.4666</ele>
        <time>2021-07-19T09:40:27Z</time>
      </trkpt>
      <trkpt lat="45.39185" lon="4.61567">
        <ele>1189.6727</ele>
        <time>2021-07-19T09:40:28Z</time>
      </trkpt>
      <trkpt lat="45.39182" lon="4.61566">
        <ele>1189.8629</ele>
        <time>2021-07-19T09:40:29Z</time>
      </trkpt>
      <trkpt lat="45.39178" lon="4.61566">
        <ele>1189.7678</ele>
        <time>2021-07-19T09:40:30Z</time>
      </trkpt>
      <trkpt lat="45.39174" lon="4.61566">
        <ele>1190.0267</ele>
        <time>2021-07-19T09:40:31Z</time>
      </trkpt>
      <trkpt lat="45.39169" lon="4.61567">
        <ele>1190.1008</ele>
        <time>2021-07-19T09:40:32Z</time>
      </trkpt>
      <trkpt lat="45.39165" lon="4.61566">
        <ele>1190.3809</ele>
        <time>2021-07-19T09:40:33Z</time>
      </trkpt>
      <trkpt lat="45.39162" lon="4.61566">
        <ele>1190.4442</ele>
        <time>2021-07-19T09:40:34Z</time>
      </trkpt>
      <trkpt lat="45.39158" lon="4.61566">
        <ele>1190.3704</ele>
        <time>2021-07-19T09:40:35Z</time>
      </trkpt>
      <trkpt lat="45.39154" lon="4.61565">
        <ele>1190.5658</ele>
        <time>2021-07-19T09:40:36Z</time>
      </trkpt>
      <trkpt lat="45.3915" lon="4.61565">
        <ele>1190.8882</ele>
        <time>2021-07-19T09:40:37Z</time>
      </trkpt>
      <trkpt lat="45.39146" lon="4.61565">
        <ele>1191.089</ele>
        <time>2021-07-19T09:40:38Z</time>
      </trkpt>
      <trkpt lat="45.39142" lon="4.61565">
        <ele>1191.1577</ele>
        <time>2021-07-19T09:40:39Z</time>
      </trkpt>
      <trkpt lat="45.39138" lon="4.61564">
        <ele>1191.0466</ele>
        <time>2021-07-19T09:40:40Z</time>
      </trkpt>
      <trkpt lat="45.39134" lon="4.61564">
        <ele>1191.0414</ele>
        <time>2021-07-19T09:40:41Z</time>
      </trkpt>
      <trkpt lat="45.39132" lon="4.61563">
        <ele>1191.0309</ele>
        <time>2021-07-19T09:40:42Z</time>
      </trkpt>
      <trkpt lat="45.39129" lon="4.61564">
        <ele>1190.9517</ele>
        <time>2021-07-19T09:40:43Z</time>
      </trkpt>
      <trkpt lat="45.39126" lon="4.61564">
        <ele>1191.0414</ele>
        <time>2021-07-19T09:40:44Z</time>
      </trkpt>
      <trkpt lat="45.39123" lon="4.61564">
        <ele>1191.015</ele>
        <time>2021-07-19T09:40:45Z</time>
      </trkpt>
      <trkpt lat="45.3912" lon="4.61563">
        <ele>1191.1893</ele>
        <time>2021-07-19T09:40:46Z</time>
      </trkpt>
      <trkpt lat="45.39116" lon="4.61564">
        <ele>1191.4325</ele>
        <time>2021-07-19T09:40:47Z</time>
      </trkpt>
      <trkpt lat="45.39112" lon="4.61564">
        <ele>1191.3903</ele>
        <time>2021-07-19T09:40:48Z</time>
      </trkpt>
      <trkpt lat="45.39108" lon="4.61564">
        <ele>1191.4219</ele>
        <time>2021-07-19T09:40:49Z</time>
      </trkpt>
      <trkpt lat="45.39103" lon="4.61565">
        <ele>1191.4484</ele>
        <time>2021-07-19T09:40:50Z</time>
      </trkpt>
      <trkpt lat="45.39099" lon="4.61566">
        <ele>1191.665</ele>
        <time>2021-07-19T09:40:51Z</time>
      </trkpt>
      <trkpt lat="45.39095" lon="4.61567">
        <ele>1192.0773</ele>
        <time>2021-07-19T09:40:52Z</time>
      </trkpt>
      <trkpt lat="45.39092" lon="4.61567">
        <ele>1192.1989</ele>
        <time>2021-07-19T09:40:53Z</time>
      </trkpt>
      <trkpt lat="45.39087" lon="4.61567">
        <ele>1192.1512</ele>
        <time>2021-07-19T09:40:54Z</time>
      </trkpt>
      <trkpt lat="45.39083" lon="4.61567">
        <ele>1192.3203</ele>
        <time>2021-07-19T09:40:55Z</time>
      </trkpt>
      <trkpt lat="45.39078" lon="4.61565">
        <ele>1192.5106</ele>
        <time>2021-07-19T09:40:56Z</time>
      </trkpt>
      <trkpt lat="45.39073" lon="4.61564">
        <ele>1192.6163</ele>
        <time>2021-07-19T09:40:57Z</time>
      </trkpt>
      <trkpt lat="45.3907" lon="4.61564">
        <ele>1192.9597</ele>
        <time>2021-07-19T09:40:58Z</time>
      </trkpt>
      <trkpt lat="45.39066" lon="4.61563">
        <ele>1192.9967</ele>
        <time>2021-07-19T09:40:59Z</time>
      </trkpt>
      <trkpt lat="45.39062" lon="4.61564">
        <ele>1193.076</ele>
        <time>2021-07-19T09:41:00Z</time>
      </trkpt>
      <trkpt lat="45.39058" lon="4.61564">
        <ele>1193.4089</ele>
        <time>2021-07-19T09:41:01Z</time>
      </trkpt>
      <trkpt lat="45.39055" lon="4.61564">
        <ele>1193.2821</ele>
        <time>2021-07-19T09:41:02Z</time>
      </trkpt>
      <trkpt lat="45.39051" lon="4.61565">
        <ele>1193.3403</ele>
        <time>2021-07-19T09:41:03Z</time>
      </trkpt>
      <trkpt lat="45.39048" lon="4.61565">
        <ele>1193.4618</ele>
        <time>2021-07-19T09:41:04Z</time>
      </trkpt>
      <trkpt lat="45.39044" lon="4.61565">
        <ele>1193.631</ele>
        <time>2021-07-19T09:41:05Z</time>
      </trkpt>
      <trkpt lat="45.3904" lon="4.61566">
        <ele>1193.4829</ele>
        <time>2021-07-19T09:41:06Z</time>
      </trkpt>
      <trkpt lat="45.39037" lon="4.61566">
        <ele>1193.5516</ele>
        <time>2021-07-19T09:41:07Z</time>
      </trkpt>
      <trkpt lat="45.39034" lon="4.61566">
        <ele>1193.4196</ele>
        <time>2021-07-19T09:41:08Z</time>
      </trkpt>
      <trkpt lat="45.3903" lon="4.61567">
        <ele>1193.5991</ele>
        <time>2021-07-19T09:41:09Z</time>
      </trkpt>
      <trkpt lat="45.39027" lon="4.61567">
        <ele>1193.4935</ele>
        <time>2021-07-19T09:41:10Z</time>
      </trkpt>
      <trkpt lat="45.39023" lon="4.61567">
        <ele>1193.7736</ele>
        <time>2021-07-19T09:41:11Z</time>
      </trkpt>
      <trkpt lat="45.39019" lon="4.61567">
        <ele>1193.8212</ele>
        <time>2021-07-19T09:41:12Z</time>
      </trkpt>
      <trkpt lat="45.39015" lon="4.61567">
        <ele>1193.948</ele>
        <time>2021-07-19T09:41:13Z</time>
      </trkpt>
      <trkpt lat="45.39011" lon="4.61568">
        <ele>1194.0748</ele>
        <time>2021-07-19T09:41:14Z</time>
      </trkpt>
      <trkpt lat="45.39007" lon="4.61568">
        <ele>1193.9902</ele>
        <time>2021-07-19T09:41:15Z</time>
      </trkpt>
      <trkpt lat="45.39003" lon="4.61568">
        <ele>1194.0326</ele>
        <time>2021-07-19T09:41:16Z</time>
      </trkpt>
      <trkpt lat="45.38999" lon="4.61568">
        <ele>1194.1277</ele>
        <time>2021-07-19T09:41:17Z</time>
      </trkpt>
      <trkpt lat="45.38995" lon="4.61568">
        <ele>1194.2439</ele>
        <time>2021-07-19T09:41:18Z</time>
      </trkpt>
      <trkpt lat="45.38992" lon="4.61568">
        <ele>1194.2809</ele>
        <time>2021-07-19T09:41:19Z</time>
      </trkpt>
      <trkpt lat="45.38988" lon="4.61569">
        <ele>1194.3337</ele>
        <time>2021-07-19T09:41:20Z</time>
      </trkpt>
      <trkpt lat="45.38984" lon="4.6157">
        <ele>1194.5187</ele>
        <time>2021-07-19T09:41:21Z</time>
      </trkpt>
      <trkpt lat="45.38979" lon="4.6157">
        <ele>1194.7142</ele>
        <time>2021-07-19T09:41:22Z</time>
      </trkpt>
      <trkpt lat="45.38976" lon="4.61571">
        <ele>1194.6667</ele>
        <time>2021-07-19T09:41:23Z</time>
      </trkpt>
      <trkpt lat="45.38971" lon="4.61571">
        <ele>1194.7671</ele>
        <time>2021-07-19T09:41:24Z</time>
      </trkpt>
      <trkpt lat="45.38968" lon="4.61572">
        <ele>1194.6984</ele>
        <time>2021-07-19T09:41:25Z</time>
      </trkpt>
      <trkpt lat="45.38964" lon="4.61573">
        <ele>1194.7512</ele>
        <time>2021-07-19T09:41:26Z</time>
      </trkpt>
      <trkpt lat="45.3896" lon="4.61573">
        <ele>1194.9362</ele>
        <time>2021-07-19T09:41:27Z</time>
      </trkpt>
      <trkpt lat="45.38957" lon="4.61574">
        <ele>1195.1635</ele>
        <time>2021-07-19T09:41:28Z</time>
      </trkpt>
      <trkpt lat="45.38953" lon="4.61574">
        <ele>1195.4595</ele>
        <time>2021-07-19T09:41:29Z</time>
      </trkpt>
      <trkpt lat="45.3895" lon="4.61574">
        <ele>1195.676</ele>
        <time>2021-07-19T09:41:30Z</time>
      </trkpt>
      <trkpt lat="45.38946" lon="4.61574">
        <ele>1195.8557</ele>
        <time>2021-07-19T09:41:31Z</time>
      </trkpt>
      <trkpt lat="45.38943" lon="4.61575">
        <ele>1195.787</ele>
        <time>2021-07-19T09:41:32Z</time>
      </trkpt>
      <trkpt lat="45.38939" lon="4.61574">
        <ele>1195.5757</ele>
        <time>2021-07-19T09:41:33Z</time>
      </trkpt>
      <trkpt lat="45.38936" lon="4.61574">
        <ele>1195.544</ele>
        <time>2021-07-19T09:41:34Z</time>
      </trkpt>
      <trkpt lat="45.38932" lon="4.61575">
        <ele>1195.5122</ele>
        <time>2021-07-19T09:41:35Z</time>
      </trkpt>
      <trkpt lat="45.38928" lon="4.61575">
        <ele>1195.5017</ele>
        <time>2021-07-19T09:41:36Z</time>
      </trkpt>
      <trkpt lat="45.38925" lon="4.61575">
        <ele>1195.6127</ele>
        <time>2021-07-19T09:41:37Z</time>
      </trkpt>
      <trkpt lat="45.38922" lon="4.61575">
        <ele>1195.6444</ele>
        <time>2021-07-19T09:41:38Z</time>
      </trkpt>
      <trkpt lat="45.38919" lon="4.61575">
        <ele>1195.7924</ele>
        <time>2021-07-19T09:41:39Z</time>
      </trkpt>
      <trkpt lat="45.38916" lon="4.61574">
        <ele>1195.8663</ele>
        <time>2021-07-19T09:41:40Z</time>
      </trkpt>
      <trkpt lat="45.38913" lon="4.61574">
        <ele>1195.9138</ele>
        <time>2021-07-19T09:41:41Z</time>
      </trkpt>
      <trkpt lat="45.3891" lon="4.61574">
        <ele>1195.8981</ele>
        <time>2021-07-19T09:41:42Z</time>
      </trkpt>
      <trkpt lat="45.38907" lon="4.61573">
        <ele>1195.9033</ele>
        <time>2021-07-19T09:41:43Z</time>
      </trkpt>
      <trkpt lat="45.38903" lon="4.61571">
        <ele>1196.1305</ele>
        <time>2021-07-19T09:41:44Z</time>
      </trkpt>
      <trkpt lat="45.389" lon="4.6157">
        <ele>1196.231</ele>
        <time>2021-07-19T09:41:45Z</time>
      </trkpt>
      <trkpt lat="45.38898" lon="4.61567">
        <ele>1196.2151</ele>
        <time>2021-07-19T09:41:46Z</time>
      </trkpt>
      <trkpt lat="45.38895" lon="4.61564">
        <ele>1196.6008</ele>
        <time>2021-07-19T09:41:47Z</time>
      </trkpt>
      <trkpt lat="45.38894" lon="4.61561">
        <ele>1196.9443</ele>
        <time>2021-07-19T09:41:48Z</time>
      </trkpt>
      <trkpt lat="45.38892" lon="4.61559">
        <ele>1197.1875</ele>
        <time>2021-07-19T09:41:49Z</time>
      </trkpt>
      <trkpt lat="45.38891" lon="4.61558">
        <ele>1197.5363</ele>
        <time>2021-07-19T09:41:50Z</time>
      </trkpt>
      <trkpt lat="45.38891" lon="4.61556">
        <ele>1197.7582</ele>
        <time>2021-07-19T09:41:51Z</time>
      </trkpt>
      <trkpt lat="45.3889" lon="4.61554">
        <ele>1198.1069</ele>
        <time>2021-07-19T09:41:52Z</time>
      </trkpt>
      <trkpt lat="45.3889" lon="4.61552">
        <ele>1198.3765</ele>
        <time>2021-07-19T09:41:53Z</time>
      </trkpt>
      <trkpt lat="45.3889" lon="4.6155">
        <ele>1198.6301</ele>
        <time>2021-07-19T09:41:54Z</time>
      </trkpt>
      <trkpt lat="45.38891" lon="4.61547">
        <ele>1198.8997</ele>
        <time>2021-07-19T09:41:55Z</time>
      </trkpt>
      <trkpt lat="45.38891" lon="4.61545">
        <ele>1199.1006</ele>
        <time>2021-07-19T09:41:56Z</time>
      </trkpt>
      <trkpt lat="45.38891" lon="4.61543">
        <ele>1199.2802</ele>
        <time>2021-07-19T09:41:57Z</time>
      </trkpt>
      <trkpt lat="45.38892" lon="4.61541">
        <ele>1199.666</ele>
        <time>2021-07-19T09:41:58Z</time>
      </trkpt>
      <trkpt lat="45.38892" lon="4.61538">
        <ele>1199.8403</ele>
        <time>2021-07-19T09:41:59Z</time>
      </trkpt>
      <trkpt lat="45.38893" lon="4.61534">
        <ele>1200.0887</ele>
        <time>2021-07-19T09:42:00Z</time>
      </trkpt>
      <trkpt lat="45.38894" lon="4.61531">
        <ele>1200.1838</ele>
        <time>2021-07-19T09:42:01Z</time>
      </trkpt>
      <trkpt lat="45.38895" lon="4.61529">
        <ele>1200.3635</ele>
        <time>2021-07-19T09:42:02Z</time>
      </trkpt>
      <trkpt lat="45.38896" lon="4.61526">
        <ele>1200.5327</ele>
        <time>2021-07-19T09:42:03Z</time>
      </trkpt>
      <trkpt lat="45.38897" lon="4.61524">
        <ele>1200.8445</ele>
        <time>2021-07-19T09:42:04Z</time>
      </trkpt>
      <trkpt lat="45.38898" lon="4.61522">
        <ele>1201.1932</ele>
        <time>2021-07-19T09:42:05Z</time>
      </trkpt>
      <trkpt lat="45.38899" lon="4.61519">
        <ele>1201.4363</ele>
        <time>2021-07-19T09:42:06Z</time>
      </trkpt>
      <trkpt lat="45.389" lon="4.61516">
        <ele>1201.6847</ele>
        <time>2021-07-19T09:42:07Z</time>
      </trkpt>
      <trkpt lat="45.38902" lon="4.61512">
        <ele>1201.8063</ele>
        <time>2021-07-19T09:42:08Z</time>
      </trkpt>
      <trkpt lat="45.38903" lon="4.61509">
        <ele>1202.0599</ele>
        <time>2021-07-19T09:42:09Z</time>
      </trkpt>
      <trkpt lat="45.38905" lon="4.61504">
        <ele>1202.5989</ele>
        <time>2021-07-19T09:42:10Z</time>
      </trkpt>
      <trkpt lat="45.38906" lon="4.61501">
        <ele>1202.7363</ele>
        <time>2021-07-19T09:42:11Z</time>
      </trkpt>
      <trkpt lat="45.38908" lon="4.61497">
        <ele>1203.0006</ele>
        <time>2021-07-19T09:42:12Z</time>
      </trkpt>
      <trkpt lat="45.38909" lon="4.61493">
        <ele>1203.27</ele>
        <time>2021-07-19T09:42:13Z</time>
      </trkpt>
      <trkpt lat="45.3891" lon="4.61489">
        <ele>1203.5238</ele>
        <time>2021-07-19T09:42:14Z</time>
      </trkpt>
      <trkpt lat="45.38911" lon="4.61486">
        <ele>1203.7245</ele>
        <time>2021-07-19T09:42:15Z</time>
      </trkpt>
      <trkpt lat="45.38913" lon="4.61482">
        <ele>1203.9783</ele>
        <time>2021-07-19T09:42:16Z</time>
      </trkpt>
      <trkpt lat="45.38913" lon="4.61479">
        <ele>1204.2213</ele>
        <time>2021-07-19T09:42:17Z</time>
      </trkpt>
      <trkpt lat="45.38915" lon="4.61476">
        <ele>1204.4062</ele>
        <time>2021-07-19T09:42:18Z</time>
      </trkpt>
      <trkpt lat="45.38915" lon="4.61473">
        <ele>1204.771</ele>
        <time>2021-07-19T09:42:19Z</time>
      </trkpt>
      <trkpt lat="45.38916" lon="4.6147">
        <ele>1204.9559</ele>
        <time>2021-07-19T09:42:20Z</time>
      </trkpt>
      <trkpt lat="45.38917" lon="4.61467">
        <ele>1205.1779</ele>
        <time>2021-07-19T09:42:21Z</time>
      </trkpt>
      <trkpt lat="45.38918" lon="4.61465">
        <ele>1205.5425</ele>
        <time>2021-07-19T09:42:22Z</time>
      </trkpt>
      <trkpt lat="45.38919" lon="4.61462">
        <ele>1205.8014</ele>
        <time>2021-07-19T09:42:23Z</time>
      </trkpt>
      <trkpt lat="45.38919" lon="4.61459">
        <ele>1206.0815</ele>
        <time>2021-07-19T09:42:24Z</time>
      </trkpt>
      <trkpt lat="45.38921" lon="4.61456">
        <ele>1206.3088</ele>
        <time>2021-07-19T09:42:25Z</time>
      </trkpt>
      <trkpt lat="45.38921" lon="4.61453">
        <ele>1206.4514</ele>
        <time>2021-07-19T09:42:26Z</time>
      </trkpt>
      <trkpt lat="45.38923" lon="4.6145">
        <ele>1206.7421</ele>
        <time>2021-07-19T09:42:27Z</time>
      </trkpt>
      <trkpt lat="45.38923" lon="4.61447">
        <ele>1207.0116</ele>
        <time>2021-07-19T09:42:28Z</time>
      </trkpt>
      <trkpt lat="45.38924" lon="4.61444">
        <ele>1207.2389</ele>
        <time>2021-07-19T09:42:29Z</time>
      </trkpt>
      <trkpt lat="45.38925" lon="4.61441">
        <ele>1207.4714</ele>
        <time>2021-07-19T09:42:30Z</time>
      </trkpt>
      <trkpt lat="45.38926" lon="4.61439">
        <ele>1207.7673</ele>
        <time>2021-07-19T09:42:31Z</time>
      </trkpt>
      <trkpt lat="45.38926" lon="4.61436">
        <ele>1208.0157</ele>
        <time>2021-07-19T09:42:32Z</time>
      </trkpt>
      <trkpt lat="45.38927" lon="4.61433">
        <ele>1208.2429</ele>
        <time>2021-07-19T09:42:33Z</time>
      </trkpt>
      <trkpt lat="45.38928" lon="4.61431">
        <ele>1208.5125</ele>
        <time>2021-07-19T09:42:34Z</time>
      </trkpt>
      <trkpt lat="45.38929" lon="4.61428">
        <ele>1208.8612</ele>
        <time>2021-07-19T09:42:35Z</time>
      </trkpt>
      <trkpt lat="45.3893" lon="4.61424">
        <ele>1208.9934</ele>
        <time>2021-07-19T09:42:36Z</time>
      </trkpt>
      <trkpt lat="45.38931" lon="4.61419">
        <ele>1209.21</ele>
        <time>2021-07-19T09:42:37Z</time>
      </trkpt>
      <trkpt lat="45.38932" lon="4.61415">
        <ele>1209.58</ele>
        <time>2021-07-19T09:42:38Z</time>
      </trkpt>
      <trkpt lat="45.38934" lon="4.61411">
        <ele>1209.7701</ele>
        <time>2021-07-19T09:42:39Z</time>
      </trkpt>
      <trkpt lat="45.38935" lon="4.61407">
        <ele>1209.9974</ele>
        <time>2021-07-19T09:42:40Z</time>
      </trkpt>
      <trkpt lat="45.38935" lon="4.61404">
        <ele>1210.2881</ele>
        <time>2021-07-19T09:42:41Z</time>
      </trkpt>
      <trkpt lat="45.38936" lon="4.61399">
        <ele>1210.4308</ele>
        <time>2021-07-19T09:42:42Z</time>
      </trkpt>
      <trkpt lat="45.38936" lon="4.61396">
        <ele>1210.5999</ele>
        <time>2021-07-19T09:42:43Z</time>
      </trkpt>
      <trkpt lat="45.38936" lon="4.61392">
        <ele>1210.8535</ele>
        <time>2021-07-19T09:42:44Z</time>
      </trkpt>
      <trkpt lat="45.38937" lon="4.61389">
        <ele>1211.123</ele>
        <time>2021-07-19T09:42:45Z</time>
      </trkpt>
      <trkpt lat="45.38938" lon="4.61385">
        <ele>1211.4559</ele>
        <time>2021-07-19T09:42:46Z</time>
      </trkpt>
      <trkpt lat="45.38939" lon="4.6138">
        <ele>1211.7466</ele>
        <time>2021-07-19T09:42:47Z</time>
      </trkpt>
      <trkpt lat="45.38939" lon="4.61376">
        <ele>1212.032</ele>
        <time>2021-07-19T09:42:48Z</time>
      </trkpt>
      <trkpt lat="45.3894" lon="4.61373">
        <ele>1212.1747</ele>
        <time>2021-07-19T09:42:49Z</time>
      </trkpt>
      <trkpt lat="45.3894" lon="4.61368">
        <ele>1212.4125</ele>
        <time>2021-07-19T09:42:50Z</time>
      </trkpt>
      <trkpt lat="45.38941" lon="4.61366">
        <ele>1212.6556</ele>
        <time>2021-07-19T09:42:51Z</time>
      </trkpt>
      <trkpt lat="45.38942" lon="4.61364">
        <ele>1213.0308</ele>
        <time>2021-07-19T09:42:52Z</time>
      </trkpt>
      <trkpt lat="45.38942" lon="4.61362">
        <ele>1213.2687</ele>
        <time>2021-07-19T09:42:53Z</time>
      </trkpt>
      <trkpt lat="45.38943" lon="4.61358">
        <ele>1213.5328</ele>
        <time>2021-07-19T09:42:54Z</time>
      </trkpt>
      <trkpt lat="45.38945" lon="4.61354">
        <ele>1213.8287</ele>
        <time>2021-07-19T09:42:55Z</time>
      </trkpt>
      <trkpt lat="45.38945" lon="4.61351">
        <ele>1213.9451</ele>
        <time>2021-07-19T09:42:56Z</time>
      </trkpt>
      <trkpt lat="45.38946" lon="4.61349">
        <ele>1214.1722</ele>
        <time>2021-07-19T09:42:57Z</time>
      </trkpt>
      <trkpt lat="45.38947" lon="4.61345">
        <ele>1214.5792</ele>
        <time>2021-07-19T09:42:58Z</time>
      </trkpt>
      <trkpt lat="45.38948" lon="4.61341">
        <ele>1214.9438</ele>
        <time>2021-07-19T09:42:59Z</time>
      </trkpt>
      <trkpt lat="45.38949" lon="4.61338">
        <ele>1215.2345</ele>
        <time>2021-07-19T09:43:00Z</time>
      </trkpt>
      <trkpt lat="45.38949" lon="4.61336">
        <ele>1215.4618</ele>
        <time>2021-07-19T09:43:01Z</time>
      </trkpt>
      <trkpt lat="45.3895" lon="4.61334">
        <ele>1215.6361</ele>
        <time>2021-07-19T09:43:02Z</time>
      </trkpt>
      <trkpt lat="45.3895" lon="4.61332">
        <ele>1215.7101</ele>
        <time>2021-07-19T09:43:03Z</time>
      </trkpt>
      <trkpt lat="45.38951" lon="4.6133">
        <ele>1216.0378</ele>
        <time>2021-07-19T09:43:04Z</time>
      </trkpt>
      <trkpt lat="45.38952" lon="4.61328">
        <ele>1216.2333</ele>
        <time>2021-07-19T09:43:05Z</time>
      </trkpt>
      <trkpt lat="45.38952" lon="4.61325">
        <ele>1216.4817</ele>
        <time>2021-07-19T09:43:06Z</time>
      </trkpt>
      <trkpt lat="45.38952" lon="4.61321">
        <ele>1216.6719</ele>
        <time>2021-07-19T09:43:07Z</time>
      </trkpt>
      <trkpt lat="45.38953" lon="4.61317">
        <ele>1216.8887</ele>
        <time>2021-07-19T09:43:08Z</time>
      </trkpt>
      <trkpt lat="45.38953" lon="4.61312">
        <ele>1217.1793</ele>
        <time>2021-07-19T09:43:09Z</time>
      </trkpt>
      <trkpt lat="45.38954" lon="4.61309">
        <ele>1217.5386</ele>
        <time>2021-07-19T09:43:10Z</time>
      </trkpt>
      <trkpt lat="45.38955" lon="4.61304">
        <ele>1217.7395</ele>
        <time>2021-07-19T09:43:11Z</time>
      </trkpt>
      <trkpt lat="45.38955" lon="4.61301">
        <ele>1218.0459</ele>
        <time>2021-07-19T09:43:12Z</time>
      </trkpt>
      <trkpt lat="45.38955" lon="4.61299">
        <ele>1218.2943</ele>
        <time>2021-07-19T09:43:13Z</time>
      </trkpt>
      <trkpt lat="45.38956" lon="4.61294">
        <ele>1218.6483</ele>
        <time>2021-07-19T09:43:14Z</time>
      </trkpt>
      <trkpt lat="45.38957" lon="4.6129">
        <ele>1218.9813</ele>
        <time>2021-07-19T09:43:15Z</time>
      </trkpt>
      <trkpt lat="45.38957" lon="4.61287">
        <ele>1219.1504</ele>
        <time>2021-07-19T09:43:16Z</time>
      </trkpt>
      <trkpt lat="45.38958" lon="4.61284">
        <ele>1219.478</ele>
        <time>2021-07-19T09:43:17Z</time>
      </trkpt>
      <trkpt lat="45.38958" lon="4.61281">
        <ele>1219.6736</ele>
        <time>2021-07-19T09:43:18Z</time>
      </trkpt>
      <trkpt lat="45.38959" lon="4.61278">
        <ele>1219.9749</ele>
        <time>2021-07-19T09:43:19Z</time>
      </trkpt>
      <trkpt lat="45.38959" lon="4.61275">
        <ele>1220.3184</ele>
        <time>2021-07-19T09:43:20Z</time>
      </trkpt>
      <trkpt lat="45.3896" lon="4.61271">
        <ele>1220.3658</ele>
        <time>2021-07-19T09:43:21Z</time>
      </trkpt>
      <trkpt lat="45.3896" lon="4.61269">
        <ele>1220.7041</ele>
        <time>2021-07-19T09:43:22Z</time>
      </trkpt>
      <trkpt lat="45.3896" lon="4.61265">
        <ele>1220.9208</ele>
        <time>2021-07-19T09:43:23Z</time>
      </trkpt>
      <trkpt lat="45.38961" lon="4.61262">
        <ele>1221.2432</ele>
        <time>2021-07-19T09:43:24Z</time>
      </trkpt>
      <trkpt lat="45.38961" lon="4.61258">
        <ele>1221.333</ele>
        <time>2021-07-19T09:43:25Z</time>
      </trkpt>
      <trkpt lat="45.38962" lon="4.61255">
        <ele>1221.6501</ele>
        <time>2021-07-19T09:43:26Z</time>
      </trkpt>
      <trkpt lat="45.38963" lon="4.61251">
        <ele>1221.7821</ele>
        <time>2021-07-19T09:43:27Z</time>
      </trkpt>
      <trkpt lat="45.38963" lon="4.61248">
        <ele>1222.02</ele>
        <time>2021-07-19T09:43:28Z</time>
      </trkpt>
      <trkpt lat="45.38964" lon="4.61244">
        <ele>1222.2684</ele>
        <time>2021-07-19T09:43:29Z</time>
      </trkpt>
      <trkpt lat="45.38965" lon="4.61241">
        <ele>1222.781</ele>
        <time>2021-07-19T09:43:30Z</time>
      </trkpt>
      <trkpt lat="45.38965" lon="4.61238">
        <ele>1223.0928</ele>
        <time>2021-07-19T09:43:31Z</time>
      </trkpt>
      <trkpt lat="45.38966" lon="4.61235">
        <ele>1223.3676</ele>
        <time>2021-07-19T09:43:32Z</time>
      </trkpt>
      <trkpt lat="45.38966" lon="4.61232">
        <ele>1223.8062</ele>
        <time>2021-07-19T09:43:33Z</time>
      </trkpt>
      <trkpt lat="45.38967" lon="4.61228">
        <ele>1224.0228</ele>
        <time>2021-07-19T09:43:34Z</time>
      </trkpt>
      <trkpt lat="45.38968" lon="4.61225">
        <ele>1224.377</ele>
        <time>2021-07-19T09:43:35Z</time>
      </trkpt>
      <trkpt lat="45.38968" lon="4.61221">
        <ele>1224.5513</ele>
        <time>2021-07-19T09:43:36Z</time>
      </trkpt>
      <trkpt lat="45.38969" lon="4.61218">
        <ele>1224.8473</ele>
        <time>2021-07-19T09:43:37Z</time>
      </trkpt>
      <trkpt lat="45.38969" lon="4.61214">
        <ele>1225.0903</ele>
        <time>2021-07-19T09:43:38Z</time>
      </trkpt>
      <trkpt lat="45.3897" lon="4.6121">
        <ele>1225.5078</ele>
        <time>2021-07-19T09:43:39Z</time>
      </trkpt>
      <trkpt lat="45.3897" lon="4.61206">
        <ele>1225.5396</ele>
        <time>2021-07-19T09:43:40Z</time>
      </trkpt>
      <trkpt lat="45.38971" lon="4.61203">
        <ele>1225.7351</ele>
        <time>2021-07-19T09:43:41Z</time>
      </trkpt>
      <trkpt lat="45.38971" lon="4.61199">
        <ele>1225.92</ele>
        <time>2021-07-19T09:43:42Z</time>
      </trkpt>
      <trkpt lat="45.38971" lon="4.61196">
        <ele>1226.1367</ele>
        <time>2021-07-19T09:43:43Z</time>
      </trkpt>
      <trkpt lat="45.38971" lon="4.61192">
        <ele>1226.2794</ele>
        <time>2021-07-19T09:43:44Z</time>
      </trkpt>
      <trkpt lat="45.38971" lon="4.61191">
        <ele>1226.364</ele>
        <time>2021-07-19T09:43:45Z</time>
      </trkpt>
      <trkpt lat="45.3897" lon="4.61188">
        <ele>1226.549</ele>
        <time>2021-07-19T09:43:46Z</time>
      </trkpt>
      <trkpt lat="45.3897" lon="4.61185">
        <ele>1226.961</ele>
        <time>2021-07-19T09:43:47Z</time>
      </trkpt>
      <trkpt lat="45.3897" lon="4.61182">
        <ele>1227.2095</ele>
        <time>2021-07-19T09:43:48Z</time>
      </trkpt>
      <trkpt lat="45.38969" lon="4.61179">
        <ele>1227.3892</ele>
        <time>2021-07-19T09:43:49Z</time>
      </trkpt>
      <trkpt lat="45.38969" lon="4.61176">
        <ele>1227.5266</ele>
        <time>2021-07-19T09:43:50Z</time>
      </trkpt>
      <trkpt lat="45.38968" lon="4.61173">
        <ele>1227.7433</ele>
        <time>2021-07-19T09:43:51Z</time>
      </trkpt>
      <trkpt lat="45.38968" lon="4.6117">
        <ele>1227.9757</ele>
        <time>2021-07-19T09:43:52Z</time>
      </trkpt>
      <trkpt lat="45.38967" lon="4.61166">
        <ele>1228.2611</ele>
        <time>2021-07-19T09:43:53Z</time>
      </trkpt>
      <trkpt lat="45.38967" lon="4.61163">
        <ele>1228.5306</ele>
        <time>2021-07-19T09:43:54Z</time>
      </trkpt>
      <trkpt lat="45.38966" lon="4.61161">
        <ele>1228.6311</ele>
        <time>2021-07-19T09:43:55Z</time>
      </trkpt>
      <trkpt lat="45.38966" lon="4.61159">
        <ele>1228.9218</ele>
        <time>2021-07-19T09:43:56Z</time>
      </trkpt>
      <trkpt lat="45.38967" lon="4.61156">
        <ele>1229.1332</ele>
        <time>2021-07-19T09:43:57Z</time>
      </trkpt>
      <trkpt lat="45.38968" lon="4.61153">
        <ele>1229.2864</ele>
        <time>2021-07-19T09:43:58Z</time>
      </trkpt>
      <trkpt lat="45.38969" lon="4.61151">
        <ele>1229.6827</ele>
        <time>2021-07-19T09:43:59Z</time>
      </trkpt>
      <trkpt lat="45.38971" lon="4.61149">
        <ele>1230.021</ele>
        <time>2021-07-19T09:44:00Z</time>
      </trkpt>
      <trkpt lat="45.38973" lon="4.61148">
        <ele>1230.4596</ele>
        <time>2021-07-19T09:44:01Z</time>
      </trkpt>
      <trkpt lat="45.38974" lon="4.61147">
        <ele>1230.5336</ele>
        <time>2021-07-19T09:44:02Z</time>
      </trkpt>
      <trkpt lat="45.38975" lon="4.61147">
        <ele>1231.0144</ele>
        <time>2021-07-19T09:44:03Z</time>
      </trkpt>
      <trkpt lat="45.38976" lon="4.61147">
        <ele>1231.1044</ele>
        <time>2021-07-19T09:44:04Z</time>
      </trkpt>
      <trkpt lat="45.38978" lon="4.61148">
        <ele>1231.2944</ele>
        <time>2021-07-19T09:44:05Z</time>
      </trkpt>
      <trkpt lat="45.38979" lon="4.61148">
        <ele>1231.7543</ele>
        <time>2021-07-19T09:44:06Z</time>
      </trkpt>
      <trkpt lat="45.3898" lon="4.61149">
        <ele>1231.749</ele>
        <time>2021-07-19T09:44:07Z</time>
      </trkpt>
      <trkpt lat="45.38981" lon="4.6115">
        <ele>1231.9393</ele>
        <time>2021-07-19T09:44:08Z</time>
      </trkpt>
      <trkpt lat="45.38983" lon="4.61152">
        <ele>1232.3197</ele>
        <time>2021-07-19T09:44:09Z</time>
      </trkpt>
      <trkpt lat="45.38984" lon="4.61153">
        <ele>1232.6896</ele>
        <time>2021-07-19T09:44:10Z</time>
      </trkpt>
      <trkpt lat="45.38985" lon="4.61155">
        <ele>1232.6473</ele>
        <time>2021-07-19T09:44:11Z</time>
      </trkpt>
      <trkpt lat="45.38986" lon="4.61158">
        <ele>1232.6473</ele>
        <time>2021-07-19T09:44:12Z</time>
      </trkpt>
      <trkpt lat="45.38987" lon="4.61161">
        <ele>1232.8694</ele>
        <time>2021-07-19T09:44:13Z</time>
      </trkpt>
      <trkpt lat="45.38988" lon="4.61163">
        <ele>1233.0173</ele>
        <time>2021-07-19T09:44:14Z</time>
      </trkpt>
      <trkpt lat="45.38989" lon="4.61165">
        <ele>1233.0227</ele>
        <time>2021-07-19T09:44:15Z</time>
      </trkpt>
      <trkpt lat="45.3899" lon="4.61168">
        <ele>1233.3027</ele>
        <time>2021-07-19T09:44:16Z</time>
      </trkpt>
      <trkpt lat="45.38991" lon="4.6117">
        <ele>1233.5564</ele>
        <time>2021-07-19T09:44:17Z</time>
      </trkpt>
      <trkpt lat="45.38992" lon="4.61173">
        <ele>1233.847</ele>
        <time>2021-07-19T09:44:18Z</time>
      </trkpt>
      <trkpt lat="45.38994" lon="4.61176">
        <ele>1233.995</ele>
        <time>2021-07-19T09:44:19Z</time>
      </trkpt>
      <trkpt lat="45.38995" lon="4.6118">
        <ele>1234.238</ele>
        <time>2021-07-19T09:44:20Z</time>
      </trkpt>
      <trkpt lat="45.38997" lon="4.61184">
        <ele>1234.4178</ele>
        <time>2021-07-19T09:44:21Z</time>
      </trkpt>
      <trkpt lat="45.38998" lon="4.61187">
        <ele>1234.8405</ele>
        <time>2021-07-19T09:44:22Z</time>
      </trkpt>
      <trkpt lat="45.38999" lon="4.6119">
        <ele>1235.1523</ele>
        <time>2021-07-19T09:44:23Z</time>
      </trkpt>
      <trkpt lat="45.39001" lon="4.61195">
        <ele>1235.3638</ele>
        <time>2021-07-19T09:44:24Z</time>
      </trkpt>
      <trkpt lat="45.39002" lon="4.61198">
        <ele>1235.6544</ele>
        <time>2021-07-19T09:44:25Z</time>
      </trkpt>
      <trkpt lat="45.39003" lon="4.61202">
        <ele>1236.0507</ele>
        <time>2021-07-19T09:44:26Z</time>
      </trkpt>
      <trkpt lat="45.39005" lon="4.61206">
        <ele>1236.2991</ele>
        <time>2021-07-19T09:44:27Z</time>
      </trkpt>
      <trkpt lat="45.39006" lon="4.6121">
        <ele>1236.6002</ele>
        <time>2021-07-19T09:44:28Z</time>
      </trkpt>
      <trkpt lat="45.39008" lon="4.61214">
        <ele>1236.8593</ele>
        <time>2021-07-19T09:44:29Z</time>
      </trkpt>
      <trkpt lat="45.39009" lon="4.61217">
        <ele>1237.0865</ele>
        <time>2021-07-19T09:44:30Z</time>
      </trkpt>
      <trkpt lat="45.3901" lon="4.6122">
        <ele>1237.2504</ele>
        <time>2021-07-19T09:44:31Z</time>
      </trkpt>
      <trkpt lat="45.39012" lon="4.61223">
        <ele>1237.3983</ele>
        <time>2021-07-19T09:44:32Z</time>
      </trkpt>
      <trkpt lat="45.39013" lon="4.61227">
        <ele>1237.7417</ele>
        <time>2021-07-19T09:44:33Z</time>
      </trkpt>
      <trkpt lat="45.39015" lon="4.6123">
        <ele>1238.0007</ele>
        <time>2021-07-19T09:44:34Z</time>
      </trkpt>
      <trkpt lat="45.39017" lon="4.61233">
        <ele>1238.2438</ele>
        <time>2021-07-19T09:44:35Z</time>
      </trkpt>
      <trkpt lat="45.39018" lon="4.61237">
        <ele>1238.5662</ele>
        <time>2021-07-19T09:44:36Z</time>
      </trkpt>
      <trkpt lat="45.39019" lon="4.6124">
        <ele>1238.7089</ele>
        <time>2021-07-19T09:44:37Z</time>
      </trkpt>
      <trkpt lat="45.39021" lon="4.61243">
        <ele>1238.862</ele>
        <time>2021-07-19T09:44:38Z</time>
      </trkpt>
      <trkpt lat="45.39022" lon="4.61246">
        <ele>1239.1263</ele>
        <time>2021-07-19T09:44:39Z</time>
      </trkpt>
      <trkpt lat="45.39024" lon="4.61249">
        <ele>1239.4011</ele>
        <time>2021-07-19T09:44:40Z</time>
      </trkpt>
      <trkpt lat="45.39026" lon="4.61252">
        <ele>1239.6389</ele>
        <time>2021-07-19T09:44:41Z</time>
      </trkpt>
      <trkpt lat="45.39027" lon="4.61255">
        <ele>1239.8557</ele>
        <time>2021-07-19T09:44:42Z</time>
      </trkpt>
      <trkpt lat="45.39028" lon="4.61258">
        <ele>1240.1357</ele>
        <time>2021-07-19T09:44:43Z</time>
      </trkpt>
      <trkpt lat="45.39029" lon="4.61261">
        <ele>1240.4211</ele>
        <time>2021-07-19T09:44:44Z</time>
      </trkpt>
      <trkpt lat="45.3903" lon="4.61263">
        <ele>1240.7858</ele>
        <time>2021-07-19T09:44:45Z</time>
      </trkpt>
      <trkpt lat="45.39031" lon="4.61267">
        <ele>1241.2244</ele>
        <time>2021-07-19T09:44:46Z</time>
      </trkpt>
      <trkpt lat="45.39032" lon="4.6127">
        <ele>1241.1927</ele>
        <time>2021-07-19T09:44:47Z</time>
      </trkpt>
      <trkpt lat="45.39033" lon="4.61273">
        <ele>1241.3301</ele>
        <time>2021-07-19T09:44:48Z</time>
      </trkpt>
      <trkpt lat="45.39035" lon="4.61276">
        <ele>1241.4993</ele>
        <time>2021-07-19T09:44:49Z</time>
      </trkpt>
      <trkpt lat="45.39036" lon="4.61279">
        <ele>1241.774</ele>
        <time>2021-07-19T09:44:50Z</time>
      </trkpt>
      <trkpt lat="45.39037" lon="4.61281">
        <ele>1242.0858</ele>
        <time>2021-07-19T09:44:51Z</time>
      </trkpt>
      <trkpt lat="45.39039" lon="4.61284">
        <ele>1242.2654</ele>
        <time>2021-07-19T09:44:52Z</time>
      </trkpt>
      <trkpt lat="45.3904" lon="4.61286">
        <ele>1242.5349</ele>
        <time>2021-07-19T09:44:53Z</time>
      </trkpt>
      <trkpt lat="45.39041" lon="4.61288">
        <ele>1242.8467</ele>
        <time>2021-07-19T09:44:54Z</time>
      </trkpt>
      <trkpt lat="45.39042" lon="4.6129">
        <ele>1243.1428</ele>
        <time>2021-07-19T09:44:55Z</time>
      </trkpt>
      <trkpt lat="45.39042" lon="4.61293">
        <ele>1243.4229</ele>
        <time>2021-07-19T09:44:56Z</time>
      </trkpt>
      <trkpt lat="45.39043" lon="4.61295">
        <ele>1243.6077</ele>
        <time>2021-07-19T09:44:57Z</time>
      </trkpt>
      <trkpt lat="45.39044" lon="4.61297">
        <ele>1243.7452</ele>
        <time>2021-07-19T09:44:58Z</time>
      </trkpt>
      <trkpt lat="45.39044" lon="4.613">
        <ele>1244.0094</ele>
        <time>2021-07-19T09:44:59Z</time>
      </trkpt>
      <trkpt lat="45.39045" lon="4.61304">
        <ele>1244.0992</ele>
        <time>2021-07-19T09:45:00Z</time>
      </trkpt>
      <trkpt lat="45.39047" lon="4.61306">
        <ele>1244.4058</ele>
        <time>2021-07-19T09:45:01Z</time>
      </trkpt>
      <trkpt lat="45.39047" lon="4.61309">
        <ele>1244.5854</ele>
        <time>2021-07-19T09:45:02Z</time>
      </trkpt>
      <trkpt lat="45.39048" lon="4.61312">
        <ele>1244.8339</ele>
        <time>2021-07-19T09:45:03Z</time>
      </trkpt>
      <trkpt lat="45.39048" lon="4.61316">
        <ele>1244.9976</ele>
        <time>2021-07-19T09:45:04Z</time>
      </trkpt>
      <trkpt lat="45.39049" lon="4.6132">
        <ele>1245.0979</ele>
        <time>2021-07-19T09:45:05Z</time>
      </trkpt>
      <trkpt lat="45.3905" lon="4.61323">
        <ele>1245.5103</ele>
        <time>2021-07-19T09:45:06Z</time>
      </trkpt>
      <trkpt lat="45.3905" lon="4.61326">
        <ele>1245.6581</ele>
        <time>2021-07-19T09:45:07Z</time>
      </trkpt>
      <trkpt lat="45.3905" lon="4.61328">
        <ele>1245.896</ele>
        <time>2021-07-19T09:45:08Z</time>
      </trkpt>
      <trkpt lat="45.39051" lon="4.61331">
        <ele>1245.9117</ele>
        <time>2021-07-19T09:45:09Z</time>
      </trkpt>
      <trkpt lat="45.39053" lon="4.61335">
        <ele>1246.139</ele>
        <time>2021-07-19T09:45:10Z</time>
      </trkpt>
      <trkpt lat="45.39055" lon="4.61337">
        <ele>1246.2554</ele>
        <time>2021-07-19T09:45:11Z</time>
      </trkpt>
      <trkpt lat="45.39056" lon="4.6134">
        <ele>1246.3188</ele>
        <time>2021-07-19T09:45:12Z</time>
      </trkpt>
      <trkpt lat="45.39057" lon="4.61343">
        <ele>1246.5195</ele>
        <time>2021-07-19T09:45:13Z</time>
      </trkpt>
      <trkpt lat="45.39059" lon="4.61347">
        <ele>1246.6992</ele>
        <time>2021-07-19T09:45:14Z</time>
      </trkpt>
      <trkpt lat="45.39061" lon="4.6135">
        <ele>1247.0903</ele>
        <time>2021-07-19T09:45:15Z</time>
      </trkpt>
      <trkpt lat="45.39064" lon="4.61354">
        <ele>1247.1643</ele>
        <time>2021-07-19T09:45:16Z</time>
      </trkpt>
      <trkpt lat="45.39066" lon="4.61356">
        <ele>1247.3705</ele>
        <time>2021-07-19T09:45:17Z</time>
      </trkpt>
      <trkpt lat="45.39069" lon="4.61357">
        <ele>1247.4814</ele>
        <time>2021-07-19T09:45:18Z</time>
      </trkpt>
      <trkpt lat="45.3907" lon="4.61357">
        <ele>1247.7562</ele>
        <time>2021-07-19T09:45:19Z</time>
      </trkpt>
      <trkpt lat="45.39073" lon="4.61356">
        <ele>1248.1208</ele>
        <time>2021-07-19T09:45:20Z</time>
      </trkpt>
      <trkpt lat="45.39075" lon="4.61354">
        <ele>1248.3534</ele>
        <time>2021-07-19T09:45:21Z</time>
      </trkpt>
      <trkpt lat="45.39076" lon="4.61352">
        <ele>1248.7074</ele>
        <time>2021-07-19T09:45:22Z</time>
      </trkpt>
      <trkpt lat="45.39077" lon="4.6135">
        <ele>1248.9347</ele>
        <time>2021-07-19T09:45:23Z</time>
      </trkpt>
      <trkpt lat="45.39079" lon="4.61349">
        <ele>1249.3469</ele>
        <time>2021-07-19T09:45:24Z</time>
      </trkpt>
      <trkpt lat="45.3908" lon="4.61347">
        <ele>1249.6428</ele>
        <time>2021-07-19T09:45:25Z</time>
      </trkpt>
      <trkpt lat="45.39082" lon="4.61344">
        <ele>1249.7538</ele>
        <time>2021-07-19T09:45:26Z</time>
      </trkpt>
      <trkpt lat="45.39083" lon="4.61342">
        <ele>1250.2717</ele>
        <time>2021-07-19T09:45:27Z</time>
      </trkpt>
      <trkpt lat="45.39084" lon="4.61339">
        <ele>1250.5465</ele>
        <time>2021-07-19T09:45:28Z</time>
      </trkpt>
      <trkpt lat="45.39084" lon="4.61336">
        <ele>1250.7684</ele>
        <time>2021-07-19T09:45:29Z</time>
      </trkpt>
      <trkpt lat="45.39087" lon="4.61334">
        <ele>1251.0803</ele>
        <time>2021-07-19T09:45:30Z</time>
      </trkpt>
      <trkpt lat="45.39086" lon="4.61331">
        <ele>1251.2599</ele>
        <time>2021-07-19T09:45:31Z</time>
      </trkpt>
      <trkpt lat="45.39085" lon="4.61326">
        <ele>1251.3973</ele>
        <time>2021-07-19T09:45:32Z</time>
      </trkpt>
      <trkpt lat="45.39085" lon="4.61322">
        <ele>1251.614</ele>
        <time>2021-07-19T09:45:33Z</time>
      </trkpt>
      <trkpt lat="45.39085" lon="4.61319">
        <ele>1251.9258</ele>
        <time>2021-07-19T09:45:34Z</time>
      </trkpt>
      <trkpt lat="45.39085" lon="4.61316">
        <ele>1252.0684</ele>
        <time>2021-07-19T09:45:35Z</time>
      </trkpt>
      <trkpt lat="45.39085" lon="4.61312">
        <ele>1252.2587</ele>
        <time>2021-07-19T09:45:36Z</time>
      </trkpt>
      <trkpt lat="45.39085" lon="4.61308">
        <ele>1252.5758</ele>
        <time>2021-07-19T09:45:37Z</time>
      </trkpt>
      <trkpt lat="45.39085" lon="4.61304">
        <ele>1252.8031</ele>
        <time>2021-07-19T09:45:38Z</time>
      </trkpt>
      <trkpt lat="45.39085" lon="4.61302">
        <ele>1253.1095</ele>
        <time>2021-07-19T09:45:39Z</time>
      </trkpt>
      <trkpt lat="45.39085" lon="4.613">
        <ele>1253.4478</ele>
        <time>2021-07-19T09:45:40Z</time>
      </trkpt>
      <trkpt lat="45.39085" lon="4.61298">
        <ele>1253.6486</ele>
        <time>2021-07-19T09:45:41Z</time>
      </trkpt>
      <trkpt lat="45.39085" lon="4.61296">
        <ele>1253.8335</ele>
        <time>2021-07-19T09:45:42Z</time>
      </trkpt>
      <trkpt lat="45.39085" lon="4.61294">
        <ele>1254.0184</ele>
        <time>2021-07-19T09:45:43Z</time>
      </trkpt>
      <trkpt lat="45.39085" lon="4.61291">
        <ele>1254.3302</ele>
        <time>2021-07-19T09:45:44Z</time>
      </trkpt>
      <trkpt lat="45.39085" lon="4.61289">
        <ele>1254.6104</ele>
        <time>2021-07-19T09:45:45Z</time>
      </trkpt>
      <trkpt lat="45.39085" lon="4.61285">
        <ele>1254.9115</ele>
        <time>2021-07-19T09:45:46Z</time>
      </trkpt>
      <trkpt lat="45.39085" lon="4.61283">
        <ele>1255.3132</ele>
        <time>2021-07-19T09:45:47Z</time>
      </trkpt>
      <trkpt lat="45.39084" lon="4.6128">
        <ele>1255.6937</ele>
        <time>2021-07-19T09:45:48Z</time>
      </trkpt>
      <trkpt lat="45.39084" lon="4.61278">
        <ele>1255.8046</ele>
        <time>2021-07-19T09:45:49Z</time>
      </trkpt>
      <trkpt lat="45.39084" lon="4.61276">
        <ele>1256.0477</ele>
        <time>2021-07-19T09:45:50Z</time>
      </trkpt>
      <trkpt lat="45.39084" lon="4.61274">
        <ele>1256.2855</ele>
        <time>2021-07-19T09:45:51Z</time>
      </trkpt>
      <trkpt lat="45.39084" lon="4.61271">
        <ele>1256.5181</ele>
        <time>2021-07-19T09:45:52Z</time>
      </trkpt>
      <trkpt lat="45.39084" lon="4.61269">
        <ele>1256.83</ele>
        <time>2021-07-19T09:45:53Z</time>
      </trkpt>
      <trkpt lat="45.39084" lon="4.61267">
        <ele>1257.0994</ele>
        <time>2021-07-19T09:45:54Z</time>
      </trkpt>
      <trkpt lat="45.39084" lon="4.61265">
        <ele>1257.4006</ele>
        <time>2021-07-19T09:45:55Z</time>
      </trkpt>
      <trkpt lat="45.39084" lon="4.61263">
        <ele>1257.4799</ele>
        <time>2021-07-19T09:45:56Z</time>
      </trkpt>
      <trkpt lat="45.39084" lon="4.61261">
        <ele>1257.8182</ele>
        <time>2021-07-19T09:45:57Z</time>
      </trkpt>
      <trkpt lat="45.39084" lon="4.61258">
        <ele>1258.0718</ele>
        <time>2021-07-19T09:45:58Z</time>
      </trkpt>
      <trkpt lat="45.39084" lon="4.61255">
        <ele>1258.2937</ele>
        <time>2021-07-19T09:45:59Z</time>
      </trkpt>
      <trkpt lat="45.39084" lon="4.61252">
        <ele>1258.4153</ele>
        <time>2021-07-19T09:46:00Z</time>
      </trkpt>
      <trkpt lat="45.39084" lon="4.61249">
        <ele>1258.6902</ele>
        <time>2021-07-19T09:46:01Z</time>
      </trkpt>
      <trkpt lat="45.39084" lon="4.61245">
        <ele>1259.039</ele>
        <time>2021-07-19T09:46:02Z</time>
      </trkpt>
      <trkpt lat="45.39085" lon="4.61242">
        <ele>1259.2026</ele>
        <time>2021-07-19T09:46:03Z</time>
      </trkpt>
      <trkpt lat="45.39085" lon="4.61238">
        <ele>1259.4774</ele>
        <time>2021-07-19T09:46:04Z</time>
      </trkpt>
      <trkpt lat="45.39086" lon="4.61236">
        <ele>1259.6519</ele>
        <time>2021-07-19T09:46:05Z</time>
      </trkpt>
      <trkpt lat="45.39087" lon="4.61232">
        <ele>1259.8792</ele>
        <time>2021-07-19T09:46:06Z</time>
      </trkpt>
      <trkpt lat="45.39087" lon="4.61228">
        <ele>1260.1593</ele>
        <time>2021-07-19T09:46:07Z</time>
      </trkpt>
      <trkpt lat="45.39088" lon="4.61224">
        <ele>1260.3918</ele>
        <time>2021-07-19T09:46:08Z</time>
      </trkpt>
      <trkpt lat="45.39088" lon="4.61221">
        <ele>1260.6771</ele>
        <time>2021-07-19T09:46:09Z</time>
      </trkpt>
      <trkpt lat="45.39088" lon="4.61217">
        <ele>1260.9044</ele>
        <time>2021-07-19T09:46:10Z</time>
      </trkpt>
      <trkpt lat="45.39088" lon="4.61214">
        <ele>1261.158</ele>
        <time>2021-07-19T09:46:11Z</time>
      </trkpt>
      <trkpt lat="45.39088" lon="4.61211">
        <ele>1261.3746</ele>
        <time>2021-07-19T09:46:12Z</time>
      </trkpt>
      <trkpt lat="45.39088" lon="4.61208">
        <ele>1261.5544</ele>
        <time>2021-07-19T09:46:13Z</time>
      </trkpt>
      <trkpt lat="45.39089" lon="4.61204">
        <ele>1261.8767</ele>
        <time>2021-07-19T09:46:14Z</time>
      </trkpt>
      <trkpt lat="45.3909" lon="4.61202">
        <ele>1262.014</ele>
        <time>2021-07-19T09:46:15Z</time>
      </trkpt>
      <trkpt lat="45.3909" lon="4.61197">
        <ele>1262.2307</ele>
        <time>2021-07-19T09:46:16Z</time>
      </trkpt>
      <trkpt lat="45.39091" lon="4.61193">
        <ele>1262.4158</ele>
        <time>2021-07-19T09:46:17Z</time>
      </trkpt>
      <trkpt lat="45.39091" lon="4.61189">
        <ele>1262.6748</ele>
        <time>2021-07-19T09:46:18Z</time>
      </trkpt>
      <trkpt lat="45.39092" lon="4.61184">
        <ele>1262.9178</ele>
        <time>2021-07-19T09:46:19Z</time>
      </trkpt>
      <trkpt lat="45.39092" lon="4.61181">
        <ele>1263.3141</ele>
        <time>2021-07-19T09:46:20Z</time>
      </trkpt>
      <trkpt lat="45.39093" lon="4.61177">
        <ele>1263.4886</ele>
        <time>2021-07-19T09:46:21Z</time>
      </trkpt>
      <trkpt lat="45.39093" lon="4.61174">
        <ele>1263.7739</ele>
        <time>2021-07-19T09:46:22Z</time>
      </trkpt>
      <trkpt lat="45.39093" lon="4.61171">
        <ele>1264.128</ele>
        <time>2021-07-19T09:46:23Z</time>
      </trkpt>
      <trkpt lat="45.39093" lon="4.61168">
        <ele>1264.482</ele>
        <time>2021-07-19T09:46:24Z</time>
      </trkpt>
      <trkpt lat="45.39094" lon="4.61164">
        <ele>1264.6459</ele>
        <time>2021-07-19T09:46:25Z</time>
      </trkpt>
      <trkpt lat="45.39095" lon="4.61161">
        <ele>1265.1902</ele>
        <time>2021-07-19T09:46:26Z</time>
      </trkpt>
      <trkpt lat="45.39096" lon="4.61157">
        <ele>1265.4333</ele>
        <time>2021-07-19T09:46:27Z</time>
      </trkpt>
      <trkpt lat="45.39097" lon="4.61152">
        <ele>1265.3856</ele>
        <time>2021-07-19T09:46:28Z</time>
      </trkpt>
      <trkpt lat="45.39097" lon="4.61149">
        <ele>1265.5496</ele>
        <time>2021-07-19T09:46:29Z</time>
      </trkpt>
      <trkpt lat="45.39098" lon="4.61145">
        <ele>1265.872</ele>
        <time>2021-07-19T09:46:30Z</time>
      </trkpt>
      <trkpt lat="45.39098" lon="4.61142">
        <ele>1266.1731</ele>
        <time>2021-07-19T09:46:31Z</time>
      </trkpt>
      <trkpt lat="45.39099" lon="4.61139">
        <ele>1266.4796</ele>
        <time>2021-07-19T09:46:32Z</time>
      </trkpt>
      <trkpt lat="45.39099" lon="4.61136">
        <ele>1266.7174</ele>
        <time>2021-07-19T09:46:33Z</time>
      </trkpt>
      <trkpt lat="45.391" lon="4.61133">
        <ele>1267.0503</ele>
        <time>2021-07-19T09:46:34Z</time>
      </trkpt>
      <trkpt lat="45.39101" lon="4.61129">
        <ele>1267.3622</ele>
        <time>2021-07-19T09:46:35Z</time>
      </trkpt>
      <trkpt lat="45.39102" lon="4.61125">
        <ele>1267.6</ele>
        <time>2021-07-19T09:46:36Z</time>
      </trkpt>
      <trkpt lat="45.39103" lon="4.61121">
        <ele>1268.0387</ele>
        <time>2021-07-19T09:46:37Z</time>
      </trkpt>
      <trkpt lat="45.39104" lon="4.61118">
        <ele>1268.1073</ele>
        <time>2021-07-19T09:46:38Z</time>
      </trkpt>
      <trkpt lat="45.39105" lon="4.61113">
        <ele>1268.1125</ele>
        <time>2021-07-19T09:46:39Z</time>
      </trkpt>
      <trkpt lat="45.39106" lon="4.61109">
        <ele>1268.5513</ele>
        <time>2021-07-19T09:46:40Z</time>
      </trkpt>
      <trkpt lat="45.39106" lon="4.61105">
        <ele>1268.9264</ele>
        <time>2021-07-19T09:46:41Z</time>
      </trkpt>
      <trkpt lat="45.39107" lon="4.61102">
        <ele>1269.0269</ele>
        <time>2021-07-19T09:46:42Z</time>
      </trkpt>
      <trkpt lat="45.39107" lon="4.61099">
        <ele>1269.1802</ele>
        <time>2021-07-19T09:46:43Z</time>
      </trkpt>
      <trkpt lat="45.39108" lon="4.61096">
        <ele>1269.6293</ele>
        <time>2021-07-19T09:46:44Z</time>
      </trkpt>
      <trkpt lat="45.39109" lon="4.61091">
        <ele>1269.8301</ele>
        <time>2021-07-19T09:46:45Z</time>
      </trkpt>
      <trkpt lat="45.39109" lon="4.61088">
        <ele>1269.9834</ele>
        <time>2021-07-19T09:46:46Z</time>
      </trkpt>
      <trkpt lat="45.3911" lon="4.61084">
        <ele>1270.1736</ele>
        <time>2021-07-19T09:46:47Z</time>
      </trkpt>
      <trkpt lat="45.39111" lon="4.6108">
        <ele>1270.2952</ele>
        <time>2021-07-19T09:46:48Z</time>
      </trkpt>
      <trkpt lat="45.39112" lon="4.61076">
        <ele>1270.4961</ele>
        <time>2021-07-19T09:46:49Z</time>
      </trkpt>
      <trkpt lat="45.39113" lon="4.61072">
        <ele>1270.7231</ele>
        <time>2021-07-19T09:46:50Z</time>
      </trkpt>
      <trkpt lat="45.39113" lon="4.61069">
        <ele>1270.9663</ele>
        <time>2021-07-19T09:46:51Z</time>
      </trkpt>
      <trkpt lat="45.39114" lon="4.61066">
        <ele>1271.2252</ele>
        <time>2021-07-19T09:46:52Z</time>
      </trkpt>
      <trkpt lat="45.39114" lon="4.61062">
        <ele>1271.4948</ele>
        <time>2021-07-19T09:46:53Z</time>
      </trkpt>
      <trkpt lat="45.39115" lon="4.6106">
        <ele>1271.8912</ele>
        <time>2021-07-19T09:46:54Z</time>
      </trkpt>
      <trkpt lat="45.39116" lon="4.61058">
        <ele>1272.018</ele>
        <time>2021-07-19T09:46:55Z</time>
      </trkpt>
      <trkpt lat="45.39116" lon="4.61055">
        <ele>1272.1183</ele>
        <time>2021-07-19T09:46:56Z</time>
      </trkpt>
      <trkpt lat="45.39117" lon="4.61052">
        <ele>1272.3826</ele>
        <time>2021-07-19T09:46:57Z</time>
      </trkpt>
      <trkpt lat="45.39118" lon="4.6105">
        <ele>1272.5887</ele>
        <time>2021-07-19T09:46:58Z</time>
      </trkpt>
      <trkpt lat="45.39118" lon="4.61047">
        <ele>1272.9164</ele>
        <time>2021-07-19T09:46:59Z</time>
      </trkpt>
      <trkpt lat="45.39119" lon="4.61045">
        <ele>1273.1119</ele>
        <time>2021-07-19T09:47:00Z</time>
      </trkpt>
      <trkpt lat="45.39119" lon="4.61043">
        <ele>1273.3497</ele>
        <time>2021-07-19T09:47:01Z</time>
      </trkpt>
      <trkpt lat="45.3912" lon="4.6104">
        <ele>1273.6456</ele>
        <time>2021-07-19T09:47:02Z</time>
      </trkpt>
      <trkpt lat="45.39121" lon="4.61037">
        <ele>1274.0314</ele>
        <time>2021-07-19T09:47:03Z</time>
      </trkpt>
      <trkpt lat="45.39122" lon="4.61035">
        <ele>1274.3801</ele>
        <time>2021-07-19T09:47:04Z</time>
      </trkpt>
      <trkpt lat="45.39122" lon="4.61034">
        <ele>1274.7344</ele>
        <time>2021-07-19T09:47:05Z</time>
      </trkpt>
      <trkpt lat="45.39123" lon="4.61031">
        <ele>1274.8136</ele>
        <time>2021-07-19T09:47:06Z</time>
      </trkpt>
      <trkpt lat="45.39124" lon="4.61029">
        <ele>1275.1306</ele>
        <time>2021-07-19T09:47:07Z</time>
      </trkpt>
      <trkpt lat="45.39124" lon="4.61026">
        <ele>1275.3843</ele>
        <time>2021-07-19T09:47:08Z</time>
      </trkpt>
      <trkpt lat="45.39125" lon="4.61024">
        <ele>1275.5798</ele>
        <time>2021-07-19T09:47:09Z</time>
      </trkpt>
      <trkpt lat="45.39125" lon="4.61021">
        <ele>1275.7964</ele>
        <time>2021-07-19T09:47:10Z</time>
      </trkpt>
      <trkpt lat="45.39126" lon="4.61018">
        <ele>1276.0448</ele>
        <time>2021-07-19T09:47:11Z</time>
      </trkpt>
      <trkpt lat="45.39127" lon="4.61016">
        <ele>1276.3724</ele>
        <time>2021-07-19T09:47:12Z</time>
      </trkpt>
      <trkpt lat="45.39127" lon="4.61014">
        <ele>1276.4994</ele>
        <time>2021-07-19T09:47:13Z</time>
      </trkpt>
      <trkpt lat="45.39127" lon="4.61011">
        <ele>1276.7478</ele>
        <time>2021-07-19T09:47:14Z</time>
      </trkpt>
      <trkpt lat="45.39127" lon="4.61008">
        <ele>1277.1652</ele>
        <time>2021-07-19T09:47:15Z</time>
      </trkpt>
      <trkpt lat="45.39128" lon="4.61005">
        <ele>1277.4241</ele>
        <time>2021-07-19T09:47:16Z</time>
      </trkpt>
      <trkpt lat="45.39128" lon="4.61002">
        <ele>1277.6461</ele>
        <time>2021-07-19T09:47:17Z</time>
      </trkpt>
      <trkpt lat="45.39129" lon="4.60999">
        <ele>1277.8734</ele>
        <time>2021-07-19T09:47:18Z</time>
      </trkpt>
      <trkpt lat="45.39129" lon="4.60994">
        <ele>1278.2433</ele>
        <time>2021-07-19T09:47:19Z</time>
      </trkpt>
      <trkpt lat="45.39129" lon="4.60991">
        <ele>1278.5973</ele>
        <time>2021-07-19T09:47:20Z</time>
      </trkpt>
      <trkpt lat="45.3913" lon="4.60988">
        <ele>1278.7928</ele>
        <time>2021-07-19T09:47:21Z</time>
      </trkpt>
      <trkpt lat="45.3913" lon="4.60985">
        <ele>1279.1786</ele>
        <time>2021-07-19T09:47:22Z</time>
      </trkpt>
      <trkpt lat="45.3913" lon="4.60981">
        <ele>1279.2263</ele>
        <time>2021-07-19T09:47:23Z</time>
      </trkpt>
      <trkpt lat="45.39131" lon="4.60978">
        <ele>1279.6332</ele>
        <time>2021-07-19T09:47:24Z</time>
      </trkpt>
      <trkpt lat="45.39131" lon="4.60974">
        <ele>1279.7705</ele>
        <time>2021-07-19T09:47:25Z</time>
      </trkpt>
      <trkpt lat="45.39131" lon="4.60971">
        <ele>1279.8921</ele>
        <time>2021-07-19T09:47:26Z</time>
      </trkpt>
      <trkpt lat="45.39131" lon="4.60968">
        <ele>1279.9713</ele>
        <time>2021-07-19T09:47:27Z</time>
      </trkpt>
      <trkpt lat="45.39131" lon="4.60965">
        <ele>1280.3148</ele>
        <time>2021-07-19T09:47:28Z</time>
      </trkpt>
      <trkpt lat="45.39132" lon="4.60962">
        <ele>1280.616</ele>
        <time>2021-07-19T09:47:29Z</time>
      </trkpt>
      <trkpt lat="45.39131" lon="4.60958">
        <ele>1280.8274</ele>
        <time>2021-07-19T09:47:30Z</time>
      </trkpt>
      <trkpt lat="45.39131" lon="4.60956">
        <ele>1281.0547</ele>
        <time>2021-07-19T09:47:31Z</time>
      </trkpt>
      <trkpt lat="45.39131" lon="4.60952">
        <ele>1281.2344</ele>
        <time>2021-07-19T09:47:32Z</time>
      </trkpt>
      <trkpt lat="45.39131" lon="4.6095">
        <ele>1281.3982</ele>
        <time>2021-07-19T09:47:33Z</time>
      </trkpt>
      <trkpt lat="45.39131" lon="4.60948">
        <ele>1281.8315</ele>
        <time>2021-07-19T09:47:34Z</time>
      </trkpt>
      <trkpt lat="45.39132" lon="4.60944">
        <ele>1282.0111</ele>
        <time>2021-07-19T09:47:35Z</time>
      </trkpt>
      <trkpt lat="45.39132" lon="4.6094">
        <ele>1282.0852</ele>
        <time>2021-07-19T09:47:36Z</time>
      </trkpt>
      <trkpt lat="45.39132" lon="4.60936">
        <ele>1282.3284</ele>
        <time>2021-07-19T09:47:37Z</time>
      </trkpt>
      <trkpt lat="45.39131" lon="4.60934">
        <ele>1282.5554</ele>
        <time>2021-07-19T09:47:38Z</time>
      </trkpt>
      <trkpt lat="45.39131" lon="4.6093">
        <ele>1282.7405</ele>
        <time>2021-07-19T09:47:39Z</time>
      </trkpt>
      <trkpt lat="45.39131" lon="4.60927">
        <ele>1282.9308</ele>
        <time>2021-07-19T09:47:40Z</time>
      </trkpt>
      <trkpt lat="45.39132" lon="4.60923">
        <ele>1283.2162</ele>
        <time>2021-07-19T09:47:41Z</time>
      </trkpt>
      <trkpt lat="45.39132" lon="4.60919">
        <ele>1283.438</ele>
        <time>2021-07-19T09:47:42Z</time>
      </trkpt>
      <trkpt lat="45.39132" lon="4.60914">
        <ele>1283.6388</ele>
        <time>2021-07-19T09:47:43Z</time>
      </trkpt>
      <trkpt lat="45.39131" lon="4.6091">
        <ele>1283.7816</ele>
        <time>2021-07-19T09:47:44Z</time>
      </trkpt>
      <trkpt lat="45.39131" lon="4.60905">
        <ele>1284.0829</ele>
        <time>2021-07-19T09:47:45Z</time>
      </trkpt>
      <trkpt lat="45.39131" lon="4.60902">
        <ele>1284.2413</ele>
        <time>2021-07-19T09:47:46Z</time>
      </trkpt>
      <trkpt lat="45.39131" lon="4.60899">
        <ele>1284.4421</ele>
        <time>2021-07-19T09:47:47Z</time>
      </trkpt>
      <trkpt lat="45.39131" lon="4.60896">
        <ele>1284.701</ele>
        <time>2021-07-19T09:47:48Z</time>
      </trkpt>
      <trkpt lat="45.39132" lon="4.60893">
        <ele>1284.9653</ele>
        <time>2021-07-19T09:47:49Z</time>
      </trkpt>
      <trkpt lat="45.39132" lon="4.6089">
        <ele>1285.0076</ele>
        <time>2021-07-19T09:47:50Z</time>
      </trkpt>
      <trkpt lat="45.39132" lon="4.60888">
        <ele>1285.4304</ele>
        <time>2021-07-19T09:47:51Z</time>
      </trkpt>
      <trkpt lat="45.39133" lon="4.60885">
        <ele>1285.8214</ele>
        <time>2021-07-19T09:47:52Z</time>
      </trkpt>
      <trkpt lat="45.39134" lon="4.60882">
        <ele>1286.2548</ele>
        <time>2021-07-19T09:47:53Z</time>
      </trkpt>
      <trkpt lat="45.39135" lon="4.60879">
        <ele>1286.313</ele>
        <time>2021-07-19T09:47:54Z</time>
      </trkpt>
      <trkpt lat="45.39136" lon="4.60877">
        <ele>1286.3763</ele>
        <time>2021-07-19T09:47:55Z</time>
      </trkpt>
      <trkpt lat="45.39138" lon="4.60874">
        <ele>1286.6617</ele>
        <time>2021-07-19T09:47:56Z</time>
      </trkpt>
      <trkpt lat="45.39139" lon="4.60871">
        <ele>1286.8309</ele>
        <time>2021-07-19T09:47:57Z</time>
      </trkpt>
      <trkpt lat="45.39141" lon="4.6087">
        <ele>1287.0316</ele>
        <time>2021-07-19T09:47:58Z</time>
      </trkpt>
      <trkpt lat="45.39143" lon="4.60869">
        <ele>1287.3856</ele>
        <time>2021-07-19T09:47:59Z</time>
      </trkpt>
      <trkpt lat="45.39145" lon="4.60867">
        <ele>1287.5126</ele>
        <time>2021-07-19T09:48:00Z</time>
      </trkpt>
      <trkpt lat="45.39148" lon="4.60865">
        <ele>1287.7397</ele>
        <time>2021-07-19T09:48:01Z</time>
      </trkpt>
      <trkpt lat="45.3915" lon="4.60863">
        <ele>1288.152</ele>
        <time>2021-07-19T09:48:02Z</time>
      </trkpt>
      <trkpt lat="45.39152" lon="4.60862">
        <ele>1288.2683</ele>
        <time>2021-07-19T09:48:03Z</time>
      </trkpt>
      <trkpt lat="45.39153" lon="4.60862">
        <ele>1288.4056</ele>
        <time>2021-07-19T09:48:04Z</time>
      </trkpt>
      <trkpt lat="45.39156" lon="4.60862">
        <ele>1288.5642</ele>
        <time>2021-07-19T09:48:05Z</time>
      </trkpt>
      <trkpt lat="45.39158" lon="4.60861">
        <ele>1288.5695</ele>
        <time>2021-07-19T09:48:06Z</time>
      </trkpt>
      <trkpt lat="45.39161" lon="4.60861">
        <ele>1288.7122</ele>
        <time>2021-07-19T09:48:07Z</time>
      </trkpt>
      <trkpt lat="45.39163" lon="4.6086">
        <ele>1289.0874</ele>
        <time>2021-07-19T09:48:08Z</time>
      </trkpt>
      <trkpt lat="45.39165" lon="4.6086">
        <ele>1289.267</ele>
        <time>2021-07-19T09:48:09Z</time>
      </trkpt>
      <trkpt lat="45.39167" lon="4.60859">
        <ele>1289.5576</ele>
        <time>2021-07-19T09:48:10Z</time>
      </trkpt>
      <trkpt lat="45.39169" lon="4.60859">
        <ele>1289.843</ele>
        <time>2021-07-19T09:48:11Z</time>
      </trkpt>
      <trkpt lat="45.39171" lon="4.60859">
        <ele>1290.1759</ele>
        <time>2021-07-19T09:48:12Z</time>
      </trkpt>
      <trkpt lat="45.39174" lon="4.60858">
        <ele>1290.1865</ele>
        <time>2021-07-19T09:48:13Z</time>
      </trkpt>
      <trkpt lat="45.39175" lon="4.60857">
        <ele>1290.5143</ele>
        <time>2021-07-19T09:48:14Z</time>
      </trkpt>
      <trkpt lat="45.39177" lon="4.60857">
        <ele>1290.7572</ele>
        <time>2021-07-19T09:48:15Z</time>
      </trkpt>
      <trkpt lat="45.39179" lon="4.60858">
        <ele>1290.9</ele>
        <time>2021-07-19T09:48:16Z</time>
      </trkpt>
      <trkpt lat="45.3918" lon="4.60858">
        <ele>1291.1853</ele>
        <time>2021-07-19T09:48:17Z</time>
      </trkpt>
      <trkpt lat="45.39182" lon="4.60859">
        <ele>1291.3704</ele>
        <time>2021-07-19T09:48:18Z</time>
      </trkpt>
      <trkpt lat="45.39183" lon="4.6086">
        <ele>1291.4707</ele>
        <time>2021-07-19T09:48:19Z</time>
      </trkpt>
      <trkpt lat="45.39186" lon="4.6086">
        <ele>1291.8036</ele>
        <time>2021-07-19T09:48:20Z</time>
      </trkpt>
      <trkpt lat="45.39187" lon="4.60861">
        <ele>1292.2476</ele>
        <time>2021-07-19T09:48:21Z</time>
      </trkpt>
      <trkpt lat="45.39189" lon="4.60863">
        <ele>1292.406</ele>
        <time>2021-07-19T09:48:22Z</time>
      </trkpt>
      <trkpt lat="45.39191" lon="4.60864">
        <ele>1292.5911</ele>
        <time>2021-07-19T09:48:23Z</time>
      </trkpt>
      <trkpt lat="45.39194" lon="4.60865">
        <ele>1292.7866</ele>
        <time>2021-07-19T09:48:24Z</time>
      </trkpt>
      <trkpt lat="45.39196" lon="4.60866">
        <ele>1292.9768</ele>
        <time>2021-07-19T09:48:25Z</time>
      </trkpt>
      <trkpt lat="45.39198" lon="4.60867">
        <ele>1293.3044</ele>
        <time>2021-07-19T09:48:26Z</time>
      </trkpt>
      <trkpt lat="45.392" lon="4.60868">
        <ele>1293.4525</ele>
        <time>2021-07-19T09:48:27Z</time>
      </trkpt>
      <trkpt lat="45.39202" lon="4.6087">
        <ele>1293.6533</ele>
        <time>2021-07-19T09:48:28Z</time>
      </trkpt>
      <trkpt lat="45.39204" lon="4.60871">
        <ele>1294.0073</ele>
        <time>2021-07-19T09:48:29Z</time>
      </trkpt>
      <trkpt lat="45.39206" lon="4.60872">
        <ele>1294.0865</ele>
        <time>2021-07-19T09:48:30Z</time>
      </trkpt>
      <trkpt lat="45.39208" lon="4.60874">
        <ele>1294.2664</ele>
        <time>2021-07-19T09:48:31Z</time>
      </trkpt>
      <trkpt lat="45.3921" lon="4.60876">
        <ele>1294.4353</ele>
        <time>2021-07-19T09:48:32Z</time>
      </trkpt>
      <trkpt lat="45.39212" lon="4.60877">
        <ele>1294.7948</ele>
        <time>2021-07-19T09:48:33Z</time>
      </trkpt>
      <trkpt lat="45.39214" lon="4.60879">
        <ele>1294.9585</ele>
        <time>2021-07-19T09:48:34Z</time>
      </trkpt>
      <trkpt lat="45.39216" lon="4.60881">
        <ele>1295.0273</ele>
        <time>2021-07-19T09:48:35Z</time>
      </trkpt>
      <trkpt lat="45.39219" lon="4.60883">
        <ele>1295.3391</ele>
        <time>2021-07-19T09:48:36Z</time>
      </trkpt>
      <trkpt lat="45.3922" lon="4.60885">
        <ele>1295.5769</ele>
        <time>2021-07-19T09:48:37Z</time>
      </trkpt>
      <trkpt lat="45.39223" lon="4.60886">
        <ele>1295.746</ele>
        <time>2021-07-19T09:48:38Z</time>
      </trkpt>
      <trkpt lat="45.39225" lon="4.60887">
        <ele>1296.0525</ele>
        <time>2021-07-19T09:48:39Z</time>
      </trkpt>
      <trkpt lat="45.39227" lon="4.60889">
        <ele>1296.322</ele>
        <time>2021-07-19T09:48:40Z</time>
      </trkpt>
      <trkpt lat="45.39228" lon="4.6089">
        <ele>1296.4806</ele>
        <time>2021-07-19T09:48:41Z</time>
      </trkpt>
      <trkpt lat="45.3923" lon="4.60893">
        <ele>1296.7976</ele>
        <time>2021-07-19T09:48:42Z</time>
      </trkpt>
      <trkpt lat="45.39232" lon="4.60895">
        <ele>1296.9933</ele>
        <time>2021-07-19T09:48:43Z</time>
      </trkpt>
      <trkpt lat="45.39233" lon="4.60897">
        <ele>1297.2203</ele>
        <time>2021-07-19T09:48:44Z</time>
      </trkpt>
      <trkpt lat="45.39234" lon="4.60899">
        <ele>1297.5851</ele>
        <time>2021-07-19T09:48:45Z</time>
      </trkpt>
      <trkpt lat="45.39236" lon="4.60901">
        <ele>1297.7013</ele>
        <time>2021-07-19T09:48:46Z</time>
      </trkpt>
      <trkpt lat="45.39237" lon="4.60904">
        <ele>1298.0131</ele>
        <time>2021-07-19T09:48:47Z</time>
      </trkpt>
      <trkpt lat="45.39238" lon="4.60906">
        <ele>1298.383</ele>
        <time>2021-07-19T09:48:48Z</time>
      </trkpt>
      <trkpt lat="45.3924" lon="4.60908">
        <ele>1298.6843</ele>
        <time>2021-07-19T09:48:49Z</time>
      </trkpt>
      <trkpt lat="45.39241" lon="4.6091">
        <ele>1298.8586</ele>
        <time>2021-07-19T09:48:50Z</time>
      </trkpt>
      <trkpt lat="45.39243" lon="4.60913">
        <ele>1299.049</ele>
        <time>2021-07-19T09:48:51Z</time>
      </trkpt>
      <trkpt lat="45.39244" lon="4.60915">
        <ele>1299.2498</ele>
        <time>2021-07-19T09:48:52Z</time>
      </trkpt>
      <trkpt lat="45.39245" lon="4.60917">
        <ele>1299.4927</ele>
        <time>2021-07-19T09:48:53Z</time>
      </trkpt>
      <trkpt lat="45.39246" lon="4.6092">
        <ele>1299.6936</ele>
        <time>2021-07-19T09:48:54Z</time>
      </trkpt>
      <trkpt lat="45.39248" lon="4.60923">
        <ele>1299.8099</ele>
        <time>2021-07-19T09:48:55Z</time>
      </trkpt>
      <trkpt lat="45.39249" lon="4.60925">
        <ele>1300.0741</ele>
        <time>2021-07-19T09:48:56Z</time>
      </trkpt>
      <trkpt lat="45.3925" lon="4.60927">
        <ele>1300.4652</ele>
        <time>2021-07-19T09:48:57Z</time>
      </trkpt>
      <trkpt lat="45.39251" lon="4.60929">
        <ele>1300.6342</ele>
        <time>2021-07-19T09:48:58Z</time>
      </trkpt>
      <trkpt lat="45.39253" lon="4.60931">
        <ele>1300.8984</ele>
        <time>2021-07-19T09:48:59Z</time>
      </trkpt>
      <trkpt lat="45.39254" lon="4.60933">
        <ele>1301.0413</ele>
        <time>2021-07-19T09:49:00Z</time>
      </trkpt>
      <trkpt lat="45.39255" lon="4.60935">
        <ele>1301.5063</ele>
        <time>2021-07-19T09:49:01Z</time>
      </trkpt>
      <trkpt lat="45.39256" lon="4.60938">
        <ele>1301.7759</ele>
        <time>2021-07-19T09:49:02Z</time>
      </trkpt>
      <trkpt lat="45.39256" lon="4.60941">
        <ele>1301.8656</ele>
        <time>2021-07-19T09:49:03Z</time>
      </trkpt>
      <trkpt lat="45.39257" lon="4.60943">
        <ele>1302.2302</ele>
        <time>2021-07-19T09:49:04Z</time>
      </trkpt>
      <trkpt lat="45.39259" lon="4.60946">
        <ele>1302.5209</ele>
        <time>2021-07-19T09:49:05Z</time>
      </trkpt>
      <trkpt lat="45.39259" lon="4.60947">
        <ele>1302.5631</ele>
        <time>2021-07-19T09:49:06Z</time>
      </trkpt>
      <trkpt lat="45.3926" lon="4.60948">
        <ele>1302.727</ele>
        <time>2021-07-19T09:49:07Z</time>
      </trkpt>
      <trkpt lat="45.39261" lon="4.60951">
        <ele>1303.0123</ele>
        <time>2021-07-19T09:49:08Z</time>
      </trkpt>
      <trkpt lat="45.39262" lon="4.60953">
        <ele>1303.2661</ele>
        <time>2021-07-19T09:49:09Z</time>
      </trkpt>
      <trkpt lat="45.39263" lon="4.60955">
        <ele>1303.435</ele>
        <time>2021-07-19T09:49:10Z</time>
      </trkpt>
      <trkpt lat="45.39264" lon="4.60957">
        <ele>1303.7098</ele>
        <time>2021-07-19T09:49:11Z</time>
      </trkpt>
      <trkpt lat="45.39265" lon="4.60962">
        <ele>1303.99</ele>
        <time>2021-07-19T09:49:13Z</time>
      </trkpt>
      <trkpt lat="45.39265" lon="4.60962">
        <ele>1303.99</ele>
        <time>2021-07-19T09:49:13Z</time>
      </trkpt>
      <trkpt lat="45.39267" lon="4.60965">
        <ele>1304.3282</ele>
        <time>2021-07-19T09:49:14Z</time>
      </trkpt>
      <trkpt lat="45.39269" lon="4.60968">
        <ele>1304.5873</ele>
        <time>2021-07-19T09:49:15Z</time>
      </trkpt>
      <trkpt lat="45.3927" lon="4.60971">
        <ele>1304.7246</ele>
        <time>2021-07-19T09:49:16Z</time>
      </trkpt>
      <trkpt lat="45.39272" lon="4.60973">
        <ele>1304.973</ele>
        <time>2021-07-19T09:49:17Z</time>
      </trkpt>
      <trkpt lat="45.39273" lon="4.60977">
        <ele>1305.0046</ele>
        <time>2021-07-19T09:49:18Z</time>
      </trkpt>
      <trkpt lat="45.39275" lon="4.6098">
        <ele>1305.2795</ele>
        <time>2021-07-19T09:49:19Z</time>
      </trkpt>
      <trkpt lat="45.39276" lon="4.60983">
        <ele>1305.4962</ele>
        <time>2021-07-19T09:49:20Z</time>
      </trkpt>
      <trkpt lat="45.39277" lon="4.60985">
        <ele>1305.6705</ele>
        <time>2021-07-19T09:49:21Z</time>
      </trkpt>
      <trkpt lat="45.39279" lon="4.60989">
        <ele>1306.0405</ele>
        <time>2021-07-19T09:49:23Z</time>
      </trkpt>
      <trkpt lat="45.39279" lon="4.60989">
        <ele>1306.0405</ele>
        <time>2021-07-19T09:49:23Z</time>
      </trkpt>
      <trkpt lat="45.3928" lon="4.60991">
        <ele>1306.4421</ele>
        <time>2021-07-19T09:49:24Z</time>
      </trkpt>
      <trkpt lat="45.3928" lon="4.60991">
        <ele>1306.7063</ele>
        <time>2021-07-19T09:49:25Z</time>
      </trkpt>
      <trkpt lat="45.39281" lon="4.60992">
        <ele>1306.9072</ele>
        <time>2021-07-19T09:49:26Z</time>
      </trkpt>
      <trkpt lat="45.39281" lon="4.60997">
        <ele>1307.3246</ele>
        <time>2021-07-19T09:49:27Z</time>
      </trkpt>
      <trkpt lat="45.39281" lon="4.60999">
        <ele>1307.7422</ele>
        <time>2021-07-19T09:49:28Z</time>
      </trkpt>
      <trkpt lat="45.3928" lon="4.61001">
        <ele>1307.8954</ele>
        <time>2021-07-19T09:49:29Z</time>
      </trkpt>
      <trkpt lat="45.39277" lon="4.61002">
        <ele>1308.2072</ele>
        <time>2021-07-19T09:49:30Z</time>
      </trkpt>
      <trkpt lat="45.39274" lon="4.61001">
        <ele>1308.8837</ele>
        <time>2021-07-19T09:49:32Z</time>
      </trkpt>
      <trkpt lat="45.39274" lon="4.61001">
        <ele>1308.8837</ele>
        <time>2021-07-19T09:49:32Z</time>
      </trkpt>
      <trkpt lat="45.39272" lon="4.60999">
        <ele>1309.2535</ele>
        <time>2021-07-19T09:49:33Z</time>
      </trkpt>
      <trkpt lat="45.3927" lon="4.60997">
        <ele>1309.4332</ele>
        <time>2021-07-19T09:49:34Z</time>
      </trkpt>
      <trkpt lat="45.39269" lon="4.60994">
        <ele>1309.671</ele>
        <time>2021-07-19T09:49:35Z</time>
      </trkpt>
      <trkpt lat="45.39266" lon="4.60989">
        <ele>1310.263</ele>
        <time>2021-07-19T09:49:37Z</time>
      </trkpt>
      <trkpt lat="45.39264" lon="4.60986">
        <ele>1310.432</ele>
        <time>2021-07-19T09:49:38Z</time>
      </trkpt>
      <trkpt lat="45.39264" lon="4.60986">
        <ele>1310.432</ele>
        <time>2021-07-19T09:49:38Z</time>
      </trkpt>
      <trkpt lat="45.39262" lon="4.60983">
        <ele>1310.7968</ele>
        <time>2021-07-19T09:49:39Z</time>
      </trkpt>
      <trkpt lat="45.39259" lon="4.60977">
        <ele>1311.2775</ele>
        <time>2021-07-19T09:49:41Z</time>
      </trkpt>
      <trkpt lat="45.39256" lon="4.60974">
        <ele>1311.4678</ele>
        <time>2021-07-19T09:49:42Z</time>
      </trkpt>
      <trkpt lat="45.39256" lon="4.60974">
        <ele>1311.4678</ele>
        <time>2021-07-19T09:49:42Z</time>
      </trkpt>
      <trkpt lat="45.39255" lon="4.60971">
        <ele>1311.7162</ele>
        <time>2021-07-19T09:49:43Z</time>
      </trkpt>
      <trkpt lat="45.39251" lon="4.6097">
        <ele>1311.9224</ele>
        <time>2021-07-19T09:49:45Z</time>
      </trkpt>
      <trkpt lat="45.39251" lon="4.6097">
        <ele>1311.9224</ele>
        <time>2021-07-19T09:49:45Z</time>
      </trkpt>
      <trkpt lat="45.39248" lon="4.60968">
        <ele>1312.0386</ele>
        <time>2021-07-19T09:49:46Z</time>
      </trkpt>
      <trkpt lat="45.39246" lon="4.60968">
        <ele>1312.2289</ele>
        <time>2021-07-19T09:49:47Z</time>
      </trkpt>
      <trkpt lat="45.39243" lon="4.60968">
        <ele>1312.4454</ele>
        <time>2021-07-19T09:49:48Z</time>
      </trkpt>
      <trkpt lat="45.39238" lon="4.60968">
        <ele>1312.7678</ele>
        <time>2021-07-19T09:49:50Z</time>
      </trkpt>
      <trkpt lat="45.39236" lon="4.60969">
        <ele>1313.0214</ele>
        <time>2021-07-19T09:49:51Z</time>
      </trkpt>
      <trkpt lat="45.39236" lon="4.60969">
        <ele>1313.0214</ele>
        <time>2021-07-19T09:49:51Z</time>
      </trkpt>
      <trkpt lat="45.39232" lon="4.60973">
        <ele>1313.3015</ele>
        <time>2021-07-19T09:49:53Z</time>
      </trkpt>
      <trkpt lat="45.39228" lon="4.60977">
        <ele>1313.4653</ele>
        <time>2021-07-19T09:49:54Z</time>
      </trkpt>
      <trkpt lat="45.39228" lon="4.60977">
        <ele>1313.4653</ele>
        <time>2021-07-19T09:49:54Z</time>
      </trkpt>
      <trkpt lat="45.39224" lon="4.60984">
        <ele>1313.9622</ele>
        <time>2021-07-19T09:49:56Z</time>
      </trkpt>
      <trkpt lat="45.39223" lon="4.60988">
        <ele>1314.0255</ele>
        <time>2021-07-19T09:49:57Z</time>
      </trkpt>
      <trkpt lat="45.39222" lon="4.6099">
        <ele>1314.1047</ele>
        <time>2021-07-19T09:49:58Z</time>
      </trkpt>
      <trkpt lat="45.39222" lon="4.60993">
        <ele>1314.3373</ele>
        <time>2021-07-19T09:49:59Z</time>
      </trkpt>
      <trkpt lat="45.39221" lon="4.60997">
        <ele>1314.533</ele>
        <time>2021-07-19T09:50:00Z</time>
      </trkpt>
      <trkpt lat="45.39221" lon="4.61">
        <ele>1314.7444</ele>
        <time>2021-07-19T09:50:01Z</time>
      </trkpt>
      <trkpt lat="45.39222" lon="4.61005">
        <ele>1314.9714</ele>
        <time>2021-07-19T09:50:02Z</time>
      </trkpt>
      <trkpt lat="45.39223" lon="4.61009">
        <ele>1315.1987</ele>
        <time>2021-07-19T09:50:03Z</time>
      </trkpt>
      <trkpt lat="45.39224" lon="4.61013">
        <ele>1315.4049</ele>
        <time>2021-07-19T09:50:04Z</time>
      </trkpt>
      <trkpt lat="45.39225" lon="4.61017">
        <ele>1315.5793</ele>
        <time>2021-07-19T09:50:05Z</time>
      </trkpt>
      <trkpt lat="45.39225" lon="4.6102">
        <ele>1315.8381</ele>
        <time>2021-07-19T09:50:06Z</time>
      </trkpt>
      <trkpt lat="45.39227" lon="4.61024">
        <ele>1316.1024</ele>
        <time>2021-07-19T09:50:07Z</time>
      </trkpt>
      <trkpt lat="45.39228" lon="4.61027">
        <ele>1316.261</ele>
        <time>2021-07-19T09:50:08Z</time>
      </trkpt>
      <trkpt lat="45.39228" lon="4.6103">
        <ele>1316.4565</ele>
        <time>2021-07-19T09:50:09Z</time>
      </trkpt>
      <trkpt lat="45.39228" lon="4.61032">
        <ele>1316.6467</ele>
        <time>2021-07-19T09:50:10Z</time>
      </trkpt>
      <trkpt lat="45.39228" lon="4.61035">
        <ele>1316.9585</ele>
        <time>2021-07-19T09:50:11Z</time>
      </trkpt>
      <trkpt lat="45.39228" lon="4.61037">
        <ele>1317.1171</ele>
        <time>2021-07-19T09:50:12Z</time>
      </trkpt>
      <trkpt lat="45.39228" lon="4.6104">
        <ele>1317.2015</ele>
        <time>2021-07-19T09:50:13Z</time>
      </trkpt>
      <trkpt lat="45.39228" lon="4.61043">
        <ele>1317.4183</ele>
        <time>2021-07-19T09:50:14Z</time>
      </trkpt>
      <trkpt lat="45.39228" lon="4.61045">
        <ele>1317.8993</ele>
        <time>2021-07-19T09:50:15Z</time>
      </trkpt>
      <trkpt lat="45.39228" lon="4.61045">
        <ele>1317.8993</ele>
        <time>2021-07-19T09:50:15Z</time>
      </trkpt>
      <trkpt lat="45.39228" lon="4.61049">
        <ele>1318.0154</ele>
        <time>2021-07-19T09:50:17Z</time>
      </trkpt>
      <trkpt lat="45.39228" lon="4.61049">
        <ele>1317.8939</ele>
        <time>2021-07-19T09:50:18Z</time>
      </trkpt>
      <trkpt lat="45.39228" lon="4.61049">
        <ele>1317.9362</ele>
        <time>2021-07-19T09:50:19Z</time>
      </trkpt>
      <trkpt lat="45.39228" lon="4.61049">
        <ele>1317.9574</ele>
        <time>2021-07-19T09:50:20Z</time>
      </trkpt>
      <trkpt lat="45.39228" lon="4.61049">
        <ele>1317.9362</ele>
        <time>2021-07-19T09:50:21Z</time>
      </trkpt>
      <trkpt lat="45.39228" lon="4.61049">
        <ele>1317.9362</ele>
        <time>2021-07-19T09:50:21Z</time>
      </trkpt>
      <trkpt lat="45.39228" lon="4.61049">
        <ele>1317.9362</ele>
        <time>2021-07-19T09:50:21Z</time>
      </trkpt>
      <trkpt lat="45.39224" lon="4.60993">
        <ele>1314.533</ele>
        <time>2021-07-19T10:09:45Z</time>
      </trkpt>
      <trkpt lat="45.39226" lon="4.60986">
        <ele>1314.4324</ele>
        <time>2021-07-19T10:09:46Z</time>
      </trkpt>
      <trkpt lat="45.3923" lon="4.60981">
        <ele>1314.0309</ele>
        <time>2021-07-19T10:09:47Z</time>
      </trkpt>
      <trkpt lat="45.39233" lon="4.60976">
        <ele>1313.3015</ele>
        <time>2021-07-19T10:09:48Z</time>
      </trkpt>
      <trkpt lat="45.39238" lon="4.60972">
        <ele>1313.2539</ele>
        <time>2021-07-19T10:09:49Z</time>
      </trkpt>
      <trkpt lat="45.39245" lon="4.60971">
        <ele>1312.6304</ele>
        <time>2021-07-19T10:09:50Z</time>
      </trkpt>
      <trkpt lat="45.3925" lon="4.60972">
        <ele>1311.7584</ele>
        <time>2021-07-19T10:09:51Z</time>
      </trkpt>
      <trkpt lat="45.39256" lon="4.60975">
        <ele>1311.637</ele>
        <time>2021-07-19T10:09:52Z</time>
      </trkpt>
      <trkpt lat="45.3926" lon="4.60979">
        <ele>1310.1466</ele>
        <time>2021-07-19T10:09:53Z</time>
      </trkpt>
      <trkpt lat="45.39264" lon="4.60985">
        <ele>1310.5853</ele>
        <time>2021-07-19T10:09:54Z</time>
      </trkpt>
      <trkpt lat="45.39266" lon="4.60991">
        <ele>1310.0198</ele>
        <time>2021-07-19T10:09:55Z</time>
      </trkpt>
      <trkpt lat="45.39269" lon="4.60998">
        <ele>1309.4543</ele>
        <time>2021-07-19T10:09:56Z</time>
      </trkpt>
      <trkpt lat="45.39271" lon="4.61003">
        <ele>1308.9048</ele>
        <time>2021-07-19T10:09:57Z</time>
      </trkpt>
      <trkpt lat="45.39271" lon="4.61003">
        <ele>1308.9048</ele>
        <time>2021-07-19T10:09:57Z</time>
      </trkpt>
      <trkpt lat="45.39276" lon="4.6101">
        <ele>1307.8848</ele>
        <time>2021-07-19T10:09:59Z</time>
      </trkpt>
      <trkpt lat="45.39279" lon="4.61011">
        <ele>1307.4674</ele>
        <time>2021-07-19T10:10:00Z</time>
      </trkpt>
      <trkpt lat="45.39282" lon="4.61011">
        <ele>1307.5096</ele>
        <time>2021-07-19T10:10:01Z</time>
      </trkpt>
      <trkpt lat="45.39285" lon="4.61011">
        <ele>1306.8544</ele>
        <time>2021-07-19T10:10:02Z</time>
      </trkpt>
      <trkpt lat="45.39287" lon="4.61008">
        <ele>1306.3893</ele>
        <time>2021-07-19T10:10:03Z</time>
      </trkpt>
      <trkpt lat="45.3929" lon="4.61002">
        <ele>1305.8977</ele>
        <time>2021-07-19T10:10:04Z</time>
      </trkpt>
      <trkpt lat="45.3929" lon="4.60996">
        <ele>1305.3851</ele>
        <time>2021-07-19T10:10:05Z</time>
      </trkpt>
      <trkpt lat="45.39288" lon="4.60988">
        <ele>1305.1156</ele>
        <time>2021-07-19T10:10:06Z</time>
      </trkpt>
      <trkpt lat="45.39287" lon="4.60983">
        <ele>1304.6243</ele>
        <time>2021-07-19T10:10:07Z</time>
      </trkpt>
      <trkpt lat="45.39285" lon="4.60975">
        <ele>1303.8949</ele>
        <time>2021-07-19T10:10:08Z</time>
      </trkpt>
      <trkpt lat="45.39284" lon="4.60968">
        <ele>1303.4669</ele>
        <time>2021-07-19T10:10:09Z</time>
      </trkpt>
      <trkpt lat="45.39284" lon="4.60968">
        <ele>1303.4669</ele>
        <time>2021-07-19T10:10:09Z</time>
      </trkpt>
      <trkpt lat="45.39281" lon="4.60953">
        <ele>1302.3783</ele>
        <time>2021-07-19T10:10:11Z</time>
      </trkpt>
      <trkpt lat="45.3928" lon="4.60944">
        <ele>1301.7545</ele>
        <time>2021-07-19T10:10:12Z</time>
      </trkpt>
      <trkpt lat="45.39279" lon="4.60936">
        <ele>1301.4534</ele>
        <time>2021-07-19T10:10:13Z</time>
      </trkpt>
      <trkpt lat="45.39278" lon="4.60929">
        <ele>1300.925</ele>
        <time>2021-07-19T10:10:14Z</time>
      </trkpt>
      <trkpt lat="45.39276" lon="4.60923">
        <ele>1300.5444</ele>
        <time>2021-07-19T10:10:15Z</time>
      </trkpt>
      <trkpt lat="45.39274" lon="4.60918">
        <ele>1299.8152</ele>
        <time>2021-07-19T10:10:16Z</time>
      </trkpt>
      <trkpt lat="45.3927" lon="4.60918">
        <ele>1299.3396</ele>
        <time>2021-07-19T10:10:17Z</time>
      </trkpt>
      <trkpt lat="45.39267" lon="4.60915">
        <ele>1298.4729</ele>
        <time>2021-07-19T10:10:18Z</time>
      </trkpt>
      <trkpt lat="45.39262" lon="4.6091">
        <ele>1297.7646</ele>
        <time>2021-07-19T10:10:19Z</time>
      </trkpt>
      <trkpt lat="45.39258" lon="4.60901">
        <ele>1297.2362</ele>
        <time>2021-07-19T10:10:20Z</time>
      </trkpt>
      <trkpt lat="45.39253" lon="4.60896">
        <ele>1296.7871</ele>
        <time>2021-07-19T10:10:21Z</time>
      </trkpt>
      <trkpt lat="45.39247" lon="4.60886">
        <ele>1296.1477</ele>
        <time>2021-07-19T10:10:22Z</time>
      </trkpt>
      <trkpt lat="45.39241" lon="4.60876">
        <ele>1295.4236</ele>
        <time>2021-07-19T10:10:23Z</time>
      </trkpt>
      <trkpt lat="45.39234" lon="4.60866">
        <ele>1295.1013</ele>
        <time>2021-07-19T10:10:24Z</time>
      </trkpt>
      <trkpt lat="45.39226" lon="4.60854">
        <ele>1294.8159</ele>
        <time>2021-07-19T10:10:25Z</time>
      </trkpt>
      <trkpt lat="45.39219" lon="4.60845">
        <ele>1293.463</ele>
        <time>2021-07-19T10:10:26Z</time>
      </trkpt>
      <trkpt lat="45.39211" lon="4.60838">
        <ele>1292.6492</ele>
        <time>2021-07-19T10:10:27Z</time>
      </trkpt>
      <trkpt lat="45.39205" lon="4.60832">
        <ele>1292.0256</ele>
        <time>2021-07-19T10:10:28Z</time>
      </trkpt>
      <trkpt lat="45.39198" lon="4.60829">
        <ele>1291.6821</ele>
        <time>2021-07-19T10:10:29Z</time>
      </trkpt>
      <trkpt lat="45.3919" lon="4.60827">
        <ele>1290.7943</ele>
        <time>2021-07-19T10:10:30Z</time>
      </trkpt>
      <trkpt lat="45.39184" lon="4.60825">
        <ele>1289.5365</ele>
        <time>2021-07-19T10:10:31Z</time>
      </trkpt>
      <trkpt lat="45.39178" lon="4.60823">
        <ele>1289.2828</ele>
        <time>2021-07-19T10:10:32Z</time>
      </trkpt>
      <trkpt lat="45.39172" lon="4.60823">
        <ele>1288.5906</ele>
        <time>2021-07-19T10:10:33Z</time>
      </trkpt>
      <trkpt lat="45.39167" lon="4.60824">
        <ele>1288.0358</ele>
        <time>2021-07-19T10:10:34Z</time>
      </trkpt>
      <trkpt lat="45.39161" lon="4.60825">
        <ele>1287.4861</ele>
        <time>2021-07-19T10:10:35Z</time>
      </trkpt>
      <trkpt lat="45.39155" lon="4.60827">
        <ele>1287.058</ele>
        <time>2021-07-19T10:10:36Z</time>
      </trkpt>
      <trkpt lat="45.3915" lon="4.6083">
        <ele>1286.0382</ele>
        <time>2021-07-19T10:10:37Z</time>
      </trkpt>
      <trkpt lat="45.39146" lon="4.60833">
        <ele>1285.8479</ele>
        <time>2021-07-19T10:10:38Z</time>
      </trkpt>
      <trkpt lat="45.39141" lon="4.60836">
        <ele>1285.0182</ele>
        <time>2021-07-19T10:10:39Z</time>
      </trkpt>
      <trkpt lat="45.39137" lon="4.60842">
        <ele>1284.7856</ele>
        <time>2021-07-19T10:10:40Z</time>
      </trkpt>
      <trkpt lat="45.39133" lon="4.60848">
        <ele>1284.458</ele>
        <time>2021-07-19T10:10:41Z</time>
      </trkpt>
      <trkpt lat="45.39129" lon="4.60855">
        <ele>1284.1779</ele>
        <time>2021-07-19T10:10:42Z</time>
      </trkpt>
      <trkpt lat="45.39126" lon="4.60862">
        <ele>1283.565</ele>
        <time>2021-07-19T10:10:43Z</time>
      </trkpt>
      <trkpt lat="45.39123" lon="4.60871">
        <ele>1283.2108</ele>
        <time>2021-07-19T10:10:44Z</time>
      </trkpt>
      <trkpt lat="45.39121" lon="4.6088">
        <ele>1282.7616</ele>
        <time>2021-07-19T10:10:45Z</time>
      </trkpt>
      <trkpt lat="45.39118" lon="4.60891">
        <ele>1282.529</ele>
        <time>2021-07-19T10:10:46Z</time>
      </trkpt>
      <trkpt lat="45.39115" lon="4.60903">
        <ele>1282.117</ele>
        <time>2021-07-19T10:10:47Z</time>
      </trkpt>
      <trkpt lat="45.39111" lon="4.60921">
        <ele>1281.5461</ele>
        <time>2021-07-19T10:10:48Z</time>
      </trkpt>
      <trkpt lat="45.39108" lon="4.60937">
        <ele>1280.7323</ele>
        <time>2021-07-19T10:10:49Z</time>
      </trkpt>
      <trkpt lat="45.39105" lon="4.60952">
        <ele>1279.6754</ele>
        <time>2021-07-19T10:10:50Z</time>
      </trkpt>
      <trkpt lat="45.39105" lon="4.60969">
        <ele>1278.8773</ele>
        <time>2021-07-19T10:10:51Z</time>
      </trkpt>
      <trkpt lat="45.39105" lon="4.60983">
        <ele>1277.6302</ele>
        <time>2021-07-19T10:10:52Z</time>
      </trkpt>
      <trkpt lat="45.39104" lon="4.60998">
        <ele>1275.5216</ele>
        <time>2021-07-19T10:10:53Z</time>
      </trkpt>
      <trkpt lat="45.39102" lon="4.61013">
        <ele>1275.4952</ele>
        <time>2021-07-19T10:10:54Z</time>
      </trkpt>
      <trkpt lat="45.391" lon="4.61027">
        <ele>1274.7396</ele>
        <time>2021-07-19T10:10:55Z</time>
      </trkpt>
      <trkpt lat="45.39097" lon="4.61044">
        <ele>1273.6615</ele>
        <time>2021-07-19T10:10:56Z</time>
      </trkpt>
      <trkpt lat="45.39094" lon="4.6106">
        <ele>1274.4279</ele>
        <time>2021-07-19T10:10:57Z</time>
      </trkpt>
      <trkpt lat="45.39092" lon="4.61076">
        <ele>1272.6204</ele>
        <time>2021-07-19T10:10:58Z</time>
      </trkpt>
      <trkpt lat="45.39089" lon="4.61092">
        <ele>1271.1777</ele>
        <time>2021-07-19T10:10:59Z</time>
      </trkpt>
      <trkpt lat="45.39086" lon="4.61109">
        <ele>1269.7034</ele>
        <time>2021-07-19T10:11:00Z</time>
      </trkpt>
      <trkpt lat="45.39082" lon="4.61126">
        <ele>1269.2964</ele>
        <time>2021-07-19T10:11:01Z</time>
      </trkpt>
      <trkpt lat="45.39079" lon="4.61142">
        <ele>1266.8655</ele>
        <time>2021-07-19T10:11:02Z</time>
      </trkpt>
      <trkpt lat="45.39076" lon="4.61158">
        <ele>1265.6447</ele>
        <time>2021-07-19T10:11:03Z</time>
      </trkpt>
      <trkpt lat="45.39073" lon="4.61173">
        <ele>1264.3922</ele>
        <time>2021-07-19T10:11:04Z</time>
      </trkpt>
      <trkpt lat="45.3907" lon="4.61188">
        <ele>1262.3788</ele>
        <time>2021-07-19T10:11:05Z</time>
      </trkpt>
      <trkpt lat="45.39069" lon="4.61199">
        <ele>1262.2836</ele>
        <time>2021-07-19T10:11:06Z</time>
      </trkpt>
      <trkpt lat="45.39069" lon="4.61212">
        <ele>1260.8514</ele>
        <time>2021-07-19T10:11:07Z</time>
      </trkpt>
      <trkpt lat="45.3907" lon="4.61225">
        <ele>1260.0006</ele>
        <time>2021-07-19T10:11:08Z</time>
      </trkpt>
      <trkpt lat="45.3907" lon="4.61238">
        <ele>1258.0824</ele>
        <time>2021-07-19T10:11:09Z</time>
      </trkpt>
      <trkpt lat="45.39071" lon="4.61251">
        <ele>1258.3678</ele>
        <time>2021-07-19T10:11:10Z</time>
      </trkpt>
      <trkpt lat="45.39072" lon="4.61265">
        <ele>1258.4523</ele>
        <time>2021-07-19T10:11:11Z</time>
      </trkpt>
      <trkpt lat="45.39073" lon="4.61277">
        <ele>1257.7705</ele>
        <time>2021-07-19T10:11:12Z</time>
      </trkpt>
      <trkpt lat="45.39073" lon="4.61288">
        <ele>1254.5046</ele>
        <time>2021-07-19T10:11:13Z</time>
      </trkpt>
      <trkpt lat="45.39074" lon="4.613">
        <ele>1254.0396</ele>
        <time>2021-07-19T10:11:14Z</time>
      </trkpt>
      <trkpt lat="45.39074" lon="4.61309">
        <ele>1253.7754</ele>
        <time>2021-07-19T10:11:15Z</time>
      </trkpt>
      <trkpt lat="45.39077" lon="4.61318">
        <ele>1252.4648</ele>
        <time>2021-07-19T10:11:16Z</time>
      </trkpt>
      <trkpt lat="45.39079" lon="4.61328">
        <ele>1251.688</ele>
        <time>2021-07-19T10:11:17Z</time>
      </trkpt>
      <trkpt lat="45.39081" lon="4.61337">
        <ele>1251.2863</ele>
        <time>2021-07-19T10:11:18Z</time>
      </trkpt>
      <trkpt lat="45.39084" lon="4.61346">
        <ele>1249.9811</ele>
        <time>2021-07-19T10:11:19Z</time>
      </trkpt>
      <trkpt lat="45.39084" lon="4.61353">
        <ele>1250.0127</ele>
        <time>2021-07-19T10:11:20Z</time>
      </trkpt>
      <trkpt lat="45.39082" lon="4.6136">
        <ele>1248.9558</ele>
        <time>2021-07-19T10:11:21Z</time>
      </trkpt>
      <trkpt lat="45.39078" lon="4.61363">
        <ele>1248.0099</ele>
        <time>2021-07-19T10:11:22Z</time>
      </trkpt>
      <trkpt lat="45.39072" lon="4.61361">
        <ele>1247.2224</ele>
        <time>2021-07-19T10:11:23Z</time>
      </trkpt>
      <trkpt lat="45.39067" lon="4.61355">
        <ele>1246.768</ele>
        <time>2021-07-19T10:11:24Z</time>
      </trkpt>
      <trkpt lat="45.39063" lon="4.61345">
        <ele>1246.1497</ele>
        <time>2021-07-19T10:11:25Z</time>
      </trkpt>
      <trkpt lat="45.3906" lon="4.61334">
        <ele>1245.5684</ele>
        <time>2021-07-19T10:11:26Z</time>
      </trkpt>
      <trkpt lat="45.39057" lon="4.61324">
        <ele>1245.5314</ele>
        <time>2021-07-19T10:11:27Z</time>
      </trkpt>
      <trkpt lat="45.39054" lon="4.61313">
        <ele>1245.0452</ele>
        <time>2021-07-19T10:11:28Z</time>
      </trkpt>
      <trkpt lat="45.39051" lon="4.61301">
        <ele>1244.9183</ele>
        <time>2021-07-19T10:11:29Z</time>
      </trkpt>
      <trkpt lat="45.39047" lon="4.61289">
        <ele>1243.9037</ele>
        <time>2021-07-19T10:11:30Z</time>
      </trkpt>
      <trkpt lat="45.39042" lon="4.61279">
        <ele>1243.4757</ele>
        <time>2021-07-19T10:11:31Z</time>
      </trkpt>
      <trkpt lat="45.39038" lon="4.61268">
        <ele>1242.2336</ele>
        <time>2021-07-19T10:11:32Z</time>
      </trkpt>
      <trkpt lat="45.39035" lon="4.61257">
        <ele>1240.7963</ele>
        <time>2021-07-19T10:11:33Z</time>
      </trkpt>
      <trkpt lat="45.39031" lon="4.61246">
        <ele>1240.5532</ele>
        <time>2021-07-19T10:11:34Z</time>
      </trkpt>
      <trkpt lat="45.39026" lon="4.61236">
        <ele>1239.7606</ele>
        <time>2021-07-19T10:11:35Z</time>
      </trkpt>
      <trkpt lat="45.39021" lon="4.61226">
        <ele>1239.4064</ele>
        <time>2021-07-19T10:11:36Z</time>
      </trkpt>
      <trkpt lat="45.39017" lon="4.61216">
        <ele>1237.8105</ele>
        <time>2021-07-19T10:11:37Z</time>
      </trkpt>
      <trkpt lat="45.39013" lon="4.61207">
        <ele>1237.5199</ele>
        <time>2021-07-19T10:11:38Z</time>
      </trkpt>
      <trkpt lat="45.39009" lon="4.61198">
        <ele>1237.1974</ele>
        <time>2021-07-19T10:11:39Z</time>
      </trkpt>
      <trkpt lat="45.39005" lon="4.61189">
        <ele>1235.3954</ele>
        <time>2021-07-19T10:11:40Z</time>
      </trkpt>
      <trkpt lat="45.39002" lon="4.6118">
        <ele>1234.7296</ele>
        <time>2021-07-19T10:11:41Z</time>
      </trkpt>
      <trkpt lat="45.38998" lon="4.61172">
        <ele>1234.476</ele>
        <time>2021-07-19T10:11:42Z</time>
      </trkpt>
      <trkpt lat="45.38995" lon="4.61163">
        <ele>1233.9369</ele>
        <time>2021-07-19T10:11:43Z</time>
      </trkpt>
      <trkpt lat="45.38992" lon="4.61153">
        <ele>1233.4718</ele>
        <time>2021-07-19T10:11:44Z</time>
      </trkpt>
      <trkpt lat="45.38989" lon="4.61145">
        <ele>1232.7954</ele>
        <time>2021-07-19T10:11:45Z</time>
      </trkpt>
      <trkpt lat="45.38987" lon="4.61136">
        <ele>1232.1508</ele>
        <time>2021-07-19T10:11:46Z</time>
      </trkpt>
      <trkpt lat="45.38983" lon="4.61133">
        <ele>1231.6803</ele>
        <time>2021-07-19T10:11:47Z</time>
      </trkpt>
      <trkpt lat="45.38979" lon="4.61132">
        <ele>1231.453</ele>
        <time>2021-07-19T10:11:48Z</time>
      </trkpt>
      <trkpt lat="45.38975" lon="4.61135">
        <ele>1230.8031</ele>
        <time>2021-07-19T10:11:49Z</time>
      </trkpt>
      <trkpt lat="45.38972" lon="4.61141">
        <ele>1230.1531</ele>
        <time>2021-07-19T10:11:50Z</time>
      </trkpt>
      <trkpt lat="45.3897" lon="4.61151">
        <ele>1229.5612</ele>
        <time>2021-07-19T10:11:51Z</time>
      </trkpt>
      <trkpt lat="45.3897" lon="4.61161">
        <ele>1228.7738</ele>
        <time>2021-07-19T10:11:52Z</time>
      </trkpt>
      <trkpt lat="45.38972" lon="4.61172">
        <ele>1228.3457</ele>
        <time>2021-07-19T10:11:53Z</time>
      </trkpt>
      <trkpt lat="45.38973" lon="4.61183">
        <ele>1228.2611</ele>
        <time>2021-07-19T10:11:54Z</time>
      </trkpt>
      <trkpt lat="45.38974" lon="4.61193">
        <ele>1227.6798</ele>
        <time>2021-07-19T10:11:55Z</time>
      </trkpt>
      <trkpt lat="45.38974" lon="4.61203">
        <ele>1227.236</ele>
        <time>2021-07-19T10:11:56Z</time>
      </trkpt>
      <trkpt lat="45.38972" lon="4.61215">
        <ele>1225.9359</ele>
        <time>2021-07-19T10:11:57Z</time>
      </trkpt>
      <trkpt lat="45.3897" lon="4.61228">
        <ele>1225.3705</ele>
        <time>2021-07-19T10:11:58Z</time>
      </trkpt>
      <trkpt lat="45.38968" lon="4.61241">
        <ele>1224.1708</ele>
        <time>2021-07-19T10:11:59Z</time>
      </trkpt>
      <trkpt lat="45.38965" lon="4.61254">
        <ele>1223.2672</ele>
        <time>2021-07-19T10:12:00Z</time>
      </trkpt>
      <trkpt lat="45.38962" lon="4.61267">
        <ele>1222.5167</ele>
        <time>2021-07-19T10:12:01Z</time>
      </trkpt>
      <trkpt lat="45.38958" lon="4.61283">
        <ele>1221.8932</ele>
        <time>2021-07-19T10:12:02Z</time>
      </trkpt>
      <trkpt lat="45.38954" lon="4.61299">
        <ele>1220.5614</ele>
        <time>2021-07-19T10:12:03Z</time>
      </trkpt>
      <trkpt lat="45.38951" lon="4.61314">
        <ele>1219.0394</ele>
        <time>2021-07-19T10:12:04Z</time>
      </trkpt>
      <trkpt lat="45.38948" lon="4.61329">
        <ele>1217.6495</ele>
        <time>2021-07-19T10:12:05Z</time>
      </trkpt>
      <trkpt lat="45.38945" lon="4.61345">
        <ele>1216.7089</ele>
        <time>2021-07-19T10:12:06Z</time>
      </trkpt>
      <trkpt lat="45.38942" lon="4.6136">
        <ele>1215.4406</ele>
        <time>2021-07-19T10:12:07Z</time>
      </trkpt>
      <trkpt lat="45.38937" lon="4.61374">
        <ele>1214.447</ele>
        <time>2021-07-19T10:12:08Z</time>
      </trkpt>
      <trkpt lat="45.38932" lon="4.61388">
        <ele>1213.8024</ele>
        <time>2021-07-19T10:12:09Z</time>
      </trkpt>
      <trkpt lat="45.38929" lon="4.61402">
        <ele>1212.5817</ele>
        <time>2021-07-19T10:12:10Z</time>
      </trkpt>
      <trkpt lat="45.38925" lon="4.61417">
        <ele>1211.7572</ele>
        <time>2021-07-19T10:12:11Z</time>
      </trkpt>
      <trkpt lat="45.38921" lon="4.6143">
        <ele>1210.88</ele>
        <time>2021-07-19T10:12:12Z</time>
      </trkpt>
      <trkpt lat="45.38917" lon="4.61444">
        <ele>1209.2311</ele>
        <time>2021-07-19T10:12:13Z</time>
      </trkpt>
      <trkpt lat="45.38913" lon="4.61457">
        <ele>1207.4767</ele>
        <time>2021-07-19T10:12:14Z</time>
      </trkpt>
      <trkpt lat="45.38909" lon="4.6147">
        <ele>1206.5782</ele>
        <time>2021-07-19T10:12:15Z</time>
      </trkpt>
      <trkpt lat="45.38905" lon="4.61482">
        <ele>1205.2677</ele>
        <time>2021-07-19T10:12:16Z</time>
      </trkpt>
      <trkpt lat="45.38902" lon="4.61495">
        <ele>1204.2478</ele>
        <time>2021-07-19T10:12:17Z</time>
      </trkpt>
      <trkpt lat="45.38899" lon="4.61507">
        <ele>1204.2953</ele>
        <time>2021-07-19T10:12:18Z</time>
      </trkpt>
      <trkpt lat="45.38896" lon="4.61517">
        <ele>1203.3282</ele>
        <time>2021-07-19T10:12:19Z</time>
      </trkpt>
      <trkpt lat="45.38893" lon="4.61526">
        <ele>1202.6307</ele>
        <time>2021-07-19T10:12:20Z</time>
      </trkpt>
      <trkpt lat="45.38891" lon="4.61535">
        <ele>1201.542</ele>
        <time>2021-07-19T10:12:21Z</time>
      </trkpt>
      <trkpt lat="45.38889" lon="4.61543">
        <ele>1201.0558</ele>
        <time>2021-07-19T10:12:22Z</time>
      </trkpt>
      <trkpt lat="45.38887" lon="4.6155">
        <ele>1200.0781</ele>
        <time>2021-07-19T10:12:23Z</time>
      </trkpt>
      <trkpt lat="45.38886" lon="4.61555">
        <ele>1199.3965</ele>
        <time>2021-07-19T10:12:24Z</time>
      </trkpt>
      <trkpt lat="45.38886" lon="4.6156">
        <ele>1198.6671</ele>
        <time>2021-07-19T10:12:25Z</time>
      </trkpt>
      <trkpt lat="45.38888" lon="4.61564">
        <ele>1198.2603</ele>
        <time>2021-07-19T10:12:26Z</time>
      </trkpt>
      <trkpt lat="45.3889" lon="4.61567">
        <ele>1198.0277</ele>
        <time>2021-07-19T10:12:27Z</time>
      </trkpt>
      <trkpt lat="45.38891" lon="4.61571">
        <ele>1197.8375</ele>
        <time>2021-07-19T10:12:28Z</time>
      </trkpt>
      <trkpt lat="45.38893" lon="4.61574">
        <ele>1197.679</ele>
        <time>2021-07-19T10:12:29Z</time>
      </trkpt>
      <trkpt lat="45.38894" lon="4.61576">
        <ele>1197.5521</ele>
        <time>2021-07-19T10:12:30Z</time>
      </trkpt>
      <trkpt lat="45.38895" lon="4.61578">
        <ele>1197.1875</ele>
        <time>2021-07-19T10:12:31Z</time>
      </trkpt>
      <trkpt lat="45.38896" lon="4.6158">
        <ele>1196.8228</ele>
        <time>2021-07-19T10:12:32Z</time>
      </trkpt>
      <trkpt lat="45.38897" lon="4.61583">
        <ele>1196.807</ele>
        <time>2021-07-19T10:12:33Z</time>
      </trkpt>
      <trkpt lat="45.389" lon="4.61584">
        <ele>1196.6537</ele>
        <time>2021-07-19T10:12:34Z</time>
      </trkpt>
      <trkpt lat="45.38902" lon="4.61586">
        <ele>1196.8757</ele>
        <time>2021-07-19T10:12:35Z</time>
      </trkpt>
      <trkpt lat="45.38905" lon="4.61587">
        <ele>1196.6748</ele>
        <time>2021-07-19T10:12:36Z</time>
      </trkpt>
      <trkpt lat="45.38908" lon="4.61588">
        <ele>1196.4318</ele>
        <time>2021-07-19T10:12:37Z</time>
      </trkpt>
      <trkpt lat="45.38911" lon="4.61588">
        <ele>1196.1887</ele>
        <time>2021-07-19T10:12:38Z</time>
      </trkpt>
      <trkpt lat="45.38915" lon="4.6159">
        <ele>1196.4106</ele>
        <time>2021-07-19T10:12:39Z</time>
      </trkpt>
      <trkpt lat="45.38919" lon="4.61591">
        <ele>1196.5005</ele>
        <time>2021-07-19T10:12:40Z</time>
      </trkpt>
      <trkpt lat="45.38923" lon="4.61592">
        <ele>1196.4951</ele>
        <time>2021-07-19T10:12:41Z</time>
      </trkpt>
      <trkpt lat="45.38928" lon="4.61593">
        <ele>1196.5216</ele>
        <time>2021-07-19T10:12:42Z</time>
      </trkpt>
      <trkpt lat="45.38932" lon="4.61594">
        <ele>1196.0724</ele>
        <time>2021-07-19T10:12:43Z</time>
      </trkpt>
      <trkpt lat="45.38938" lon="4.61594">
        <ele>1196.4265</ele>
        <time>2021-07-19T10:12:44Z</time>
      </trkpt>
      <trkpt lat="45.38944" lon="4.61594">
        <ele>1196.4529</ele>
        <time>2021-07-19T10:12:45Z</time>
      </trkpt>
      <trkpt lat="45.38949" lon="4.61594">
        <ele>1195.8451</ele>
        <time>2021-07-19T10:12:46Z</time>
      </trkpt>
      <trkpt lat="45.38956" lon="4.61593">
        <ele>1195.8135</ele>
        <time>2021-07-19T10:12:47Z</time>
      </trkpt>
      <trkpt lat="45.38961" lon="4.61593">
        <ele>1195.6919</ele>
        <time>2021-07-19T10:12:48Z</time>
      </trkpt>
      <trkpt lat="45.38966" lon="4.61593">
        <ele>1195.8927</ele>
        <time>2021-07-19T10:12:49Z</time>
      </trkpt>
      <trkpt lat="45.38973" lon="4.61592">
        <ele>1195.5492</ele>
        <time>2021-07-19T10:12:50Z</time>
      </trkpt>
      <trkpt lat="45.38979" lon="4.61591">
        <ele>1194.9574</ele>
        <time>2021-07-19T10:12:51Z</time>
      </trkpt>
      <trkpt lat="45.38984" lon="4.61591">
        <ele>1194.7566</ele>
        <time>2021-07-19T10:12:52Z</time>
      </trkpt>
      <trkpt lat="45.38991" lon="4.6159">
        <ele>1194.6772</ele>
        <time>2021-07-19T10:12:53Z</time>
      </trkpt>
      <trkpt lat="45.38997" lon="4.61589">
        <ele>1194.8252</ele>
        <time>2021-07-19T10:12:54Z</time>
      </trkpt>
      <trkpt lat="45.39003" lon="4.61588">
        <ele>1194.5398</ele>
        <time>2021-07-19T10:12:55Z</time>
      </trkpt>
      <trkpt lat="45.39009" lon="4.61588">
        <ele>1194.2704</ele>
        <time>2021-07-19T10:12:56Z</time>
      </trkpt>
      <trkpt lat="45.39015" lon="4.61587">
        <ele>1194.3918</ele>
        <time>2021-07-19T10:12:57Z</time>
      </trkpt>
      <trkpt lat="45.39022" lon="4.61587">
        <ele>1194.2861</ele>
        <time>2021-07-19T10:12:58Z</time>
      </trkpt>
      <trkpt lat="45.39029" lon="4.61587">
        <ele>1194.2704</ele>
        <time>2021-07-19T10:12:59Z</time>
      </trkpt>
      <trkpt lat="45.39037" lon="4.61586">
        <ele>1193.8212</ele>
        <time>2021-07-19T10:13:00Z</time>
      </trkpt>
      <trkpt lat="45.39044" lon="4.61586">
        <ele>1193.8582</ele>
        <time>2021-07-19T10:13:01Z</time>
      </trkpt>
      <trkpt lat="45.39051" lon="4.61585">
        <ele>1193.8899</ele>
        <time>2021-07-19T10:13:02Z</time>
      </trkpt>
      <trkpt lat="45.39058" lon="4.61585">
        <ele>1193.6415</ele>
        <time>2021-07-19T10:13:03Z</time>
      </trkpt>
      <trkpt lat="45.39066" lon="4.61584">
        <ele>1193.3667</ele>
        <time>2021-07-19T10:13:04Z</time>
      </trkpt>
      <trkpt lat="45.39073" lon="4.61584">
        <ele>1193.2188</ele>
        <time>2021-07-19T10:13:05Z</time>
      </trkpt>
      <trkpt lat="45.39081" lon="4.61584">
        <ele>1192.8805</ele>
        <time>2021-07-19T10:13:06Z</time>
      </trkpt>
      <trkpt lat="45.39089" lon="4.61584">
        <ele>1192.891</ele>
        <time>2021-07-19T10:13:07Z</time>
      </trkpt>
      <trkpt lat="45.39097" lon="4.61583">
        <ele>1192.4049</ele>
        <time>2021-07-19T10:13:08Z</time>
      </trkpt>
      <trkpt lat="45.39105" lon="4.61582">
        <ele>1192.5211</ele>
        <time>2021-07-19T10:13:09Z</time>
      </trkpt>
      <trkpt lat="45.39113" lon="4.61581">
        <ele>1192.2727</ele>
        <time>2021-07-19T10:13:10Z</time>
      </trkpt>
      <trkpt lat="45.39121" lon="4.61581">
        <ele>1192.13</ele>
        <time>2021-07-19T10:13:11Z</time>
      </trkpt>
      <trkpt lat="45.39129" lon="4.61581">
        <ele>1191.5435</ele>
        <time>2021-07-19T10:13:12Z</time>
      </trkpt>
      <trkpt lat="45.39137" lon="4.61582">
        <ele>1191.4589</ele>
        <time>2021-07-19T10:13:13Z</time>
      </trkpt>
      <trkpt lat="45.39145" lon="4.61581">
        <ele>1191.5752</ele>
        <time>2021-07-19T10:13:14Z</time>
      </trkpt>
      <trkpt lat="45.39153" lon="4.61579">
        <ele>1191.5646</ele>
        <time>2021-07-19T10:13:15Z</time>
      </trkpt>
      <trkpt lat="45.39161" lon="4.61579">
        <ele>1191.7443</ele>
        <time>2021-07-19T10:13:16Z</time>
      </trkpt>
      <trkpt lat="45.39169" lon="4.6158">
        <ele>1191.1788</ele>
        <time>2021-07-19T10:13:17Z</time>
      </trkpt>
      <trkpt lat="45.39177" lon="4.6158">
        <ele>1190.9305</ele>
        <time>2021-07-19T10:13:18Z</time>
      </trkpt>
      <trkpt lat="45.39185" lon="4.6158">
        <ele>1190.756</ele>
        <time>2021-07-19T10:13:19Z</time>
      </trkpt>
      <trkpt lat="45.39194" lon="4.6158">
        <ele>1191.2369</ele>
        <time>2021-07-19T10:13:20Z</time>
      </trkpt>
      <trkpt lat="45.39202" lon="4.61581">
        <ele>1190.3915</ele>
        <time>2021-07-19T10:13:21Z</time>
      </trkpt>
      <trkpt lat="45.39211" lon="4.61582">
        <ele>1190.2593</ele>
        <time>2021-07-19T10:13:22Z</time>
      </trkpt>
      <trkpt lat="45.39219" lon="4.61585">
        <ele>1189.9423</ele>
        <time>2021-07-19T10:13:23Z</time>
      </trkpt>
      <trkpt lat="45.39227" lon="4.6159">
        <ele>1189.8788</ele>
        <time>2021-07-19T10:13:24Z</time>
      </trkpt>
      <trkpt lat="45.39235" lon="4.61593">
        <ele>1189.7678</ele>
        <time>2021-07-19T10:13:25Z</time>
      </trkpt>
      <trkpt lat="45.39243" lon="4.61594">
        <ele>1189.5881</ele>
        <time>2021-07-19T10:13:26Z</time>
      </trkpt>
      <trkpt lat="45.39251" lon="4.61595">
        <ele>1189.3397</ele>
        <time>2021-07-19T10:13:27Z</time>
      </trkpt>
      <trkpt lat="45.39259" lon="4.61596">
        <ele>1189.2764</ele>
        <time>2021-07-19T10:13:28Z</time>
      </trkpt>
      <trkpt lat="45.39267" lon="4.61597">
        <ele>1189.0016</ele>
        <time>2021-07-19T10:13:29Z</time>
      </trkpt>
      <trkpt lat="45.39275" lon="4.61596">
        <ele>1188.806</ele>
        <time>2021-07-19T10:13:30Z</time>
      </trkpt>
      <trkpt lat="45.39283" lon="4.61595">
        <ele>1188.1296</ele>
        <time>2021-07-19T10:13:31Z</time>
      </trkpt>
      <trkpt lat="45.39291" lon="4.61594">
        <ele>1188.4255</ele>
        <time>2021-07-19T10:13:32Z</time>
      </trkpt>
      <trkpt lat="45.39299" lon="4.61592">
        <ele>1188.7003</ele>
        <time>2021-07-19T10:13:33Z</time>
      </trkpt>
      <trkpt lat="45.39307" lon="4.6159">
        <ele>1188.2828</ele>
        <time>2021-07-19T10:13:34Z</time>
      </trkpt>
      <trkpt lat="45.39315" lon="4.61589">
        <ele>1187.9446</ele>
        <time>2021-07-19T10:13:35Z</time>
      </trkpt>
      <trkpt lat="45.39323" lon="4.61588">
        <ele>1187.7649</ele>
        <time>2021-07-19T10:13:36Z</time>
      </trkpt>
      <trkpt lat="45.3933" lon="4.61587">
        <ele>1187.3685</ele>
        <time>2021-07-19T10:13:37Z</time>
      </trkpt>
      <trkpt lat="45.39338" lon="4.61584">
        <ele>1187.5007</ele>
        <time>2021-07-19T10:13:38Z</time>
      </trkpt>
      <trkpt lat="45.39346" lon="4.61581">
        <ele>1187.0779</ele>
        <time>2021-07-19T10:13:39Z</time>
      </trkpt>
      <trkpt lat="45.39354" lon="4.61579">
        <ele>1186.745</ele>
        <time>2021-07-19T10:13:40Z</time>
      </trkpt>
      <trkpt lat="45.39362" lon="4.61576">
        <ele>1186.1848</ele>
        <time>2021-07-19T10:13:41Z</time>
      </trkpt>
      <trkpt lat="45.3937" lon="4.61572">
        <ele>1186.7556</ele>
        <time>2021-07-19T10:13:42Z</time>
      </trkpt>
      <trkpt lat="45.39378" lon="4.61568">
        <ele>1186.7661</ele>
        <time>2021-07-19T10:13:43Z</time>
      </trkpt>
      <trkpt lat="45.39385" lon="4.61563">
        <ele>1185.9681</ele>
        <time>2021-07-19T10:13:44Z</time>
      </trkpt>
      <trkpt lat="45.39393" lon="4.6156">
        <ele>1185.3076</ele>
        <time>2021-07-19T10:13:45Z</time>
      </trkpt>
      <trkpt lat="45.39401" lon="4.61557">
        <ele>1185.2389</ele>
        <time>2021-07-19T10:13:46Z</time>
      </trkpt>
      <trkpt lat="45.39409" lon="4.61554">
        <ele>1185.0857</ele>
        <time>2021-07-19T10:13:47Z</time>
      </trkpt>
      <trkpt lat="45.39418" lon="4.6155">
        <ele>1185.0962</ele>
        <time>2021-07-19T10:13:48Z</time>
      </trkpt>
      <trkpt lat="45.39426" lon="4.61547">
        <ele>1184.9113</ele>
        <time>2021-07-19T10:13:49Z</time>
      </trkpt>
      <trkpt lat="45.39435" lon="4.61545">
        <ele>1184.9641</ele>
        <time>2021-07-19T10:13:50Z</time>
      </trkpt>
      <trkpt lat="45.39444" lon="4.61543">
        <ele>1184.6681</ele>
        <time>2021-07-19T10:13:51Z</time>
      </trkpt>
      <trkpt lat="45.39452" lon="4.6154">
        <ele>1184.3511</ele>
        <time>2021-07-19T10:13:52Z</time>
      </trkpt>
      <trkpt lat="45.3946" lon="4.61538">
        <ele>1183.9231</ele>
        <time>2021-07-19T10:13:53Z</time>
      </trkpt>
      <trkpt lat="45.39469" lon="4.61537">
        <ele>1183.4156</ele>
        <time>2021-07-19T10:13:54Z</time>
      </trkpt>
      <trkpt lat="45.39478" lon="4.61537">
        <ele>1183.495</ele>
        <time>2021-07-19T10:13:55Z</time>
      </trkpt>
      <trkpt lat="45.39488" lon="4.61537">
        <ele>1182.7234</ele>
        <time>2021-07-19T10:13:56Z</time>
      </trkpt>
      <trkpt lat="45.39497" lon="4.61538">
        <ele>1182.5543</ele>
        <time>2021-07-19T10:13:57Z</time>
      </trkpt>
      <trkpt lat="45.39506" lon="4.61538">
        <ele>1182.1897</ele>
        <time>2021-07-19T10:13:58Z</time>
      </trkpt>
      <trkpt lat="45.39516" lon="4.6154">
        <ele>1181.6136</ele>
        <time>2021-07-19T10:13:59Z</time>
      </trkpt>
      <trkpt lat="45.39525" lon="4.61542">
        <ele>1181.5027</ele>
        <time>2021-07-19T10:14:00Z</time>
      </trkpt>
      <trkpt lat="45.39534" lon="4.61544">
        <ele>1181.0905</ele>
        <time>2021-07-19T10:14:01Z</time>
      </trkpt>
      <trkpt lat="45.39544" lon="4.61546">
        <ele>1181.3387</ele>
        <time>2021-07-19T10:14:02Z</time>
      </trkpt>
      <trkpt lat="45.39553" lon="4.61547">
        <ele>1181.1381</ele>
        <time>2021-07-19T10:14:03Z</time>
      </trkpt>
      <trkpt lat="45.39562" lon="4.61549">
        <ele>1181.2754</ele>
        <time>2021-07-19T10:14:04Z</time>
      </trkpt>
      <trkpt lat="45.39571" lon="4.61551">
        <ele>1180.192</ele>
        <time>2021-07-19T10:14:05Z</time>
      </trkpt>
      <trkpt lat="45.39581" lon="4.61552">
        <ele>1180.118</ele>
        <time>2021-07-19T10:14:06Z</time>
      </trkpt>
      <trkpt lat="45.3959" lon="4.61554">
        <ele>1179.6742</ele>
        <time>2021-07-19T10:14:07Z</time>
      </trkpt>
      <trkpt lat="45.39599" lon="4.61555">
        <ele>1179.3994</ele>
        <time>2021-07-19T10:14:08Z</time>
      </trkpt>
      <trkpt lat="45.39608" lon="4.61557">
        <ele>1179.4945</ele>
        <time>2021-07-19T10:14:09Z</time>
      </trkpt>
      <trkpt lat="45.39617" lon="4.61558">
        <ele>1179.9701</ele>
        <time>2021-07-19T10:14:10Z</time>
      </trkpt>
      <trkpt lat="45.39626" lon="4.61559">
        <ele>1179.5632</ele>
        <time>2021-07-19T10:14:11Z</time>
      </trkpt>
      <trkpt lat="45.39635" lon="4.61562">
        <ele>1178.6172</ele>
        <time>2021-07-19T10:14:12Z</time>
      </trkpt>
      <trkpt lat="45.39644" lon="4.61564">
        <ele>1177.8352</ele>
        <time>2021-07-19T10:14:13Z</time>
      </trkpt>
      <trkpt lat="45.39653" lon="4.61566">
        <ele>1177.5286</ele>
        <time>2021-07-19T10:14:14Z</time>
      </trkpt>
      <trkpt lat="45.39661" lon="4.61569">
        <ele>1178.4323</ele>
        <time>2021-07-19T10:14:15Z</time>
      </trkpt>
      <trkpt lat="45.3967" lon="4.61571">
        <ele>1176.9525</ele>
        <time>2021-07-19T10:14:16Z</time>
      </trkpt>
      <trkpt lat="45.39679" lon="4.61574">
        <ele>1176.0701</ele>
        <time>2021-07-19T10:14:17Z</time>
      </trkpt>
      <trkpt lat="45.39688" lon="4.61575">
        <ele>1175.9696</ele>
        <time>2021-07-19T10:14:18Z</time>
      </trkpt>
      <trkpt lat="45.39697" lon="4.61578">
        <ele>1175.4888</ele>
        <time>2021-07-19T10:14:19Z</time>
      </trkpt>
      <trkpt lat="45.39705" lon="4.6158">
        <ele>1175.1875</ele>
        <time>2021-07-19T10:14:20Z</time>
      </trkpt>
      <trkpt lat="45.39714" lon="4.61584">
        <ele>1174.7225</ele>
        <time>2021-07-19T10:14:21Z</time>
      </trkpt>
      <trkpt lat="45.39723" lon="4.61587">
        <ele>1173.5281</ele>
        <time>2021-07-19T10:14:22Z</time>
      </trkpt>
      <trkpt lat="45.39732" lon="4.61591">
        <ele>1173.026</ele>
        <time>2021-07-19T10:14:23Z</time>
      </trkpt>
      <trkpt lat="45.39743" lon="4.61593">
        <ele>1172.5822</ele>
        <time>2021-07-19T10:14:24Z</time>
      </trkpt>
      <trkpt lat="45.39754" lon="4.61596">
        <ele>1172.598</ele>
        <time>2021-07-19T10:14:25Z</time>
      </trkpt>
      <trkpt lat="45.39766" lon="4.61602">
        <ele>1170.7749</ele>
        <time>2021-07-19T10:14:26Z</time>
      </trkpt>
      <trkpt lat="45.39777" lon="4.61609">
        <ele>1170.6268</ele>
        <time>2021-07-19T10:14:27Z</time>
      </trkpt>
      <trkpt lat="45.39788" lon="4.61618">
        <ele>1169.9874</ele>
        <time>2021-07-19T10:14:28Z</time>
      </trkpt>
      <trkpt lat="45.398" lon="4.61628">
        <ele>1167.5988</ele>
        <time>2021-07-19T10:14:29Z</time>
      </trkpt>
      <trkpt lat="45.39811" lon="4.61639">
        <ele>1167.9792</ele>
        <time>2021-07-19T10:14:30Z</time>
      </trkpt>
      <trkpt lat="45.39823" lon="4.61649">
        <ele>1168.0269</ele>
        <time>2021-07-19T10:14:31Z</time>
      </trkpt>
      <trkpt lat="45.39833" lon="4.61662">
        <ele>1166.9487</ele>
        <time>2021-07-19T10:14:32Z</time>
      </trkpt>
      <trkpt lat="45.39843" lon="4.61677">
        <ele>1165.876</ele>
        <time>2021-07-19T10:14:33Z</time>
      </trkpt>
      <trkpt lat="45.39851" lon="4.61693">
        <ele>1164.5548</ele>
        <time>2021-07-19T10:14:34Z</time>
      </trkpt>
      <trkpt lat="45.3986" lon="4.61707">
        <ele>1163.6141</ele>
        <time>2021-07-19T10:14:35Z</time>
      </trkpt>
      <trkpt lat="45.39869" lon="4.61721">
        <ele>1162.0605</ele>
        <time>2021-07-19T10:14:36Z</time>
      </trkpt>
      <trkpt lat="45.39877" lon="4.61735">
        <ele>1161.0723</ele>
        <time>2021-07-19T10:14:37Z</time>
      </trkpt>
      <trkpt lat="45.39887" lon="4.61747">
        <ele>1159.73</ele>
        <time>2021-07-19T10:14:38Z</time>
      </trkpt>
      <trkpt lat="45.39898" lon="4.61759">
        <ele>1158.3824</ele>
        <time>2021-07-19T10:14:39Z</time>
      </trkpt>
      <trkpt lat="45.39909" lon="4.61773">
        <ele>1157.5527</ele>
        <time>2021-07-19T10:14:40Z</time>
      </trkpt>
      <trkpt lat="45.39919" lon="4.61788">
        <ele>1155.8563</ele>
        <time>2021-07-19T10:14:41Z</time>
      </trkpt>
      <trkpt lat="45.39928" lon="4.61805">
        <ele>1154.7677</ele>
        <time>2021-07-19T10:14:42Z</time>
      </trkpt>
      <trkpt lat="45.39936" lon="4.61821">
        <ele>1153.2562</ele>
        <time>2021-07-19T10:14:43Z</time>
      </trkpt>
      <trkpt lat="45.39944" lon="4.61838">
        <ele>1152.7595</ele>
        <time>2021-07-19T10:14:44Z</time>
      </trkpt>
      <trkpt lat="45.39952" lon="4.61855">
        <ele>1151.84</ele>
        <time>2021-07-19T10:14:45Z</time>
      </trkpt>
      <trkpt lat="45.39961" lon="4.61872">
        <ele>1150.4448</ele>
        <time>2021-07-19T10:14:46Z</time>
      </trkpt>
      <trkpt lat="45.3997" lon="4.61889">
        <ele>1147.9769</ele>
        <time>2021-07-19T10:14:47Z</time>
      </trkpt>
      <trkpt lat="45.39979" lon="4.61906">
        <ele>1147.6492</ele>
        <time>2021-07-19T10:14:48Z</time>
      </trkpt>
      <trkpt lat="45.39986" lon="4.61924">
        <ele>1145.435</ele>
        <time>2021-07-19T10:14:49Z</time>
      </trkpt>
      <trkpt lat="45.39993" lon="4.61942">
        <ele>1144.283</ele>
        <time>2021-07-19T10:14:50Z</time>
      </trkpt>
      <trkpt lat="45.39999" lon="4.61958">
        <ele>1143.3951</ele>
        <time>2021-07-19T10:14:51Z</time>
      </trkpt>
      <trkpt lat="45.40008" lon="4.61971">
        <ele>1141.9735</ele>
        <time>2021-07-19T10:14:52Z</time>
      </trkpt>
      <trkpt lat="45.40018" lon="4.61982">
        <ele>1140.2772</ele>
        <time>2021-07-19T10:14:53Z</time>
      </trkpt>
      <trkpt lat="45.4003" lon="4.61991">
        <ele>1139.3472</ele>
        <time>2021-07-19T10:14:54Z</time>
      </trkpt>
      <trkpt lat="45.40041" lon="4.62">
        <ele>1138.2003</ele>
        <time>2021-07-19T10:14:55Z</time>
      </trkpt>
      <trkpt lat="45.40053" lon="4.62007">
        <ele>1137.2174</ele>
        <time>2021-07-19T10:14:56Z</time>
      </trkpt>
      <trkpt lat="45.40065" lon="4.62017">
        <ele>1136.2291</ele>
        <time>2021-07-19T10:14:57Z</time>
      </trkpt>
      <trkpt lat="45.40077" lon="4.62027">
        <ele>1134.6754</ele>
        <time>2021-07-19T10:14:58Z</time>
      </trkpt>
      <trkpt lat="45.40087" lon="4.62038">
        <ele>1133.7295</ele>
        <time>2021-07-19T10:14:59Z</time>
      </trkpt>
      <trkpt lat="45.40097" lon="4.62048">
        <ele>1132.2867</ele>
        <time>2021-07-19T10:15:00Z</time>
      </trkpt>
      <trkpt lat="45.40107" lon="4.62056">
        <ele>1130.5535</ele>
        <time>2021-07-19T10:15:01Z</time>
      </trkpt>
      <trkpt lat="45.40115" lon="4.6206">
        <ele>1129.9088</ele>
        <time>2021-07-19T10:15:02Z</time>
      </trkpt>
      <trkpt lat="45.40124" lon="4.62058">
        <ele>1128.8623</ele>
        <time>2021-07-19T10:15:03Z</time>
      </trkpt>
      <trkpt lat="45.40133" lon="4.62054">
        <ele>1127.9587</ele>
        <time>2021-07-19T10:15:04Z</time>
      </trkpt>
      <trkpt lat="45.40141" lon="4.62044">
        <ele>1126.685</ele>
        <time>2021-07-19T10:15:05Z</time>
      </trkpt>
      <trkpt lat="45.40149" lon="4.62033">
        <ele>1125.6969</ele>
        <time>2021-07-19T10:15:06Z</time>
      </trkpt>
      <trkpt lat="45.40157" lon="4.62023">
        <ele>1125.2054</ele>
        <time>2021-07-19T10:15:07Z</time>
      </trkpt>
      <trkpt lat="45.40166" lon="4.6201">
        <ele>1124.1432</ele>
        <time>2021-07-19T10:15:08Z</time>
      </trkpt>
      <trkpt lat="45.40174" lon="4.61997">
        <ele>1123.4086</ele>
        <time>2021-07-19T10:15:09Z</time>
      </trkpt>
      <trkpt lat="45.40183" lon="4.61983">
        <ele>1122.4521</ele>
        <time>2021-07-19T10:15:10Z</time>
      </trkpt>
      <trkpt lat="45.40192" lon="4.61971">
        <ele>1121.448</ele>
        <time>2021-07-19T10:15:11Z</time>
      </trkpt>
      <trkpt lat="45.402" lon="4.61958">
        <ele>1120.518</ele>
        <time>2021-07-19T10:15:12Z</time>
      </trkpt>
      <trkpt lat="45.4021" lon="4.61945">
        <ele>1119.8046</ele>
        <time>2021-07-19T10:15:13Z</time>
      </trkpt>
      <trkpt lat="45.40219" lon="4.61931">
        <ele>1118.0447</ele>
        <time>2021-07-19T10:15:14Z</time>
      </trkpt>
      <trkpt lat="45.40228" lon="4.61917">
        <ele>1117.4053</ele>
        <time>2021-07-19T10:15:15Z</time>
      </trkpt>
      <trkpt lat="45.40236" lon="4.61901">
        <ele>1116.6495</ele>
        <time>2021-07-19T10:15:16Z</time>
      </trkpt>
      <trkpt lat="45.40243" lon="4.61885">
        <ele>1116.5016</ele>
        <time>2021-07-19T10:15:17Z</time>
      </trkpt>
      <trkpt lat="45.40251" lon="4.6187">
        <ele>1114.8634</ele>
        <time>2021-07-19T10:15:18Z</time>
      </trkpt>
      <trkpt lat="45.40259" lon="4.61856">
        <ele>1113.1406</ele>
        <time>2021-07-19T10:15:19Z</time>
      </trkpt>
      <trkpt lat="45.40267" lon="4.61843">
        <ele>1112.6227</ele>
        <time>2021-07-19T10:15:20Z</time>
      </trkpt>
      <trkpt lat="45.40275" lon="4.61833">
        <ele>1110.9105</ele>
        <time>2021-07-19T10:15:21Z</time>
      </trkpt>
      <trkpt lat="45.40284" lon="4.61824">
        <ele>1109.5892</ele>
        <time>2021-07-19T10:15:22Z</time>
      </trkpt>
      <trkpt lat="45.40296" lon="4.61815">
        <ele>1109.2035</ele>
        <time>2021-07-19T10:15:23Z</time>
      </trkpt>
      <trkpt lat="45.40308" lon="4.61808">
        <ele>1108.4531</ele>
        <time>2021-07-19T10:15:24Z</time>
      </trkpt>
      <trkpt lat="45.40322" lon="4.61801">
        <ele>1106.9364</ele>
        <time>2021-07-19T10:15:25Z</time>
      </trkpt>
      <trkpt lat="45.40336" lon="4.61795">
        <ele>1105.9641</ele>
        <time>2021-07-19T10:15:26Z</time>
      </trkpt>
      <trkpt lat="45.40351" lon="4.61792">
        <ele>1104.4844</ele>
        <time>2021-07-19T10:15:27Z</time>
      </trkpt>
      <trkpt lat="45.40363" lon="4.61791">
        <ele>1104.5795</ele>
        <time>2021-07-19T10:15:28Z</time>
      </trkpt>
      <trkpt lat="45.40378" lon="4.61789">
        <ele>1102.9623</ele>
        <time>2021-07-19T10:15:29Z</time>
      </trkpt>
      <trkpt lat="45.40392" lon="4.61789">
        <ele>1101.0757</ele>
        <time>2021-07-19T10:15:30Z</time>
      </trkpt>
      <trkpt lat="45.40405" lon="4.61791">
        <ele>1099.5591</ele>
        <time>2021-07-19T10:15:31Z</time>
      </trkpt>
      <trkpt lat="45.40418" lon="4.61794">
        <ele>1098.2802</ele>
        <time>2021-07-19T10:15:32Z</time>
      </trkpt>
      <trkpt lat="45.40432" lon="4.61796">
        <ele>1097.4768</ele>
        <time>2021-07-19T10:15:33Z</time>
      </trkpt>
      <trkpt lat="45.40447" lon="4.61801">
        <ele>1096.9009</ele>
        <time>2021-07-19T10:15:34Z</time>
      </trkpt>
      <trkpt lat="45.40462" lon="4.61805">
        <ele>1095.5164</ele>
        <time>2021-07-19T10:15:35Z</time>
      </trkpt>
      <trkpt lat="45.40491" lon="4.61813">
        <ele>1092.7261</ele>
        <time>2021-07-19T10:15:37Z</time>
      </trkpt>
      <trkpt lat="45.40521" lon="4.61823">
        <ele>1091.2305</ele>
        <time>2021-07-19T10:15:39Z</time>
      </trkpt>
      <trkpt lat="45.4055" lon="4.6183">
        <ele>1088.028</ele>
        <time>2021-07-19T10:15:41Z</time>
      </trkpt>
      <trkpt lat="45.4058" lon="4.61838">
        <ele>1086.5219</ele>
        <time>2021-07-19T10:15:43Z</time>
      </trkpt>
      <trkpt lat="45.40595" lon="4.61839">
        <ele>1085.8296</ele>
        <time>2021-07-19T10:15:44Z</time>
      </trkpt>
      <trkpt lat="45.40607" lon="4.61838">
        <ele>1085.6075</ele>
        <time>2021-07-19T10:15:45Z</time>
      </trkpt>
      <trkpt lat="45.4062" lon="4.61834">
        <ele>1084.112</ele>
        <time>2021-07-19T10:15:46Z</time>
      </trkpt>
      <trkpt lat="45.40633" lon="4.61831">
        <ele>1082.3206</ele>
        <time>2021-07-19T10:15:47Z</time>
      </trkpt>
      <trkpt lat="45.40647" lon="4.61831">
        <ele>1081.0575</ele>
        <time>2021-07-19T10:15:48Z</time>
      </trkpt>
      <trkpt lat="45.40661" lon="4.61828">
        <ele>1079.1974</ele>
        <time>2021-07-19T10:15:49Z</time>
      </trkpt>
      <trkpt lat="45.40674" lon="4.61827">
        <ele>1078.394</ele>
        <time>2021-07-19T10:15:50Z</time>
      </trkpt>
      <trkpt lat="45.40688" lon="4.61825">
        <ele>1077.3741</ele>
        <time>2021-07-19T10:15:51Z</time>
      </trkpt>
      <trkpt lat="45.40704" lon="4.61823">
        <ele>1075.5879</ele>
        <time>2021-07-19T10:15:52Z</time>
      </trkpt>
      <trkpt lat="45.4072" lon="4.61821">
        <ele>1073.807</ele>
        <time>2021-07-19T10:15:53Z</time>
      </trkpt>
      <trkpt lat="45.40733" lon="4.61823">
        <ele>1073.3103</ele>
        <time>2021-07-19T10:15:54Z</time>
      </trkpt>
      <trkpt lat="45.40748" lon="4.61825">
        <ele>1071.82</ele>
        <time>2021-07-19T10:15:55Z</time>
      </trkpt>
      <trkpt lat="45.40764" lon="4.61827">
        <ele>1070.113</ele>
        <time>2021-07-19T10:15:56Z</time>
      </trkpt>
      <trkpt lat="45.4078" lon="4.6183">
        <ele>1068.8658</ele>
        <time>2021-07-19T10:15:57Z</time>
      </trkpt>
      <trkpt lat="45.40796" lon="4.61834">
        <ele>1068.6176</ele>
        <time>2021-07-19T10:15:58Z</time>
      </trkpt>
      <trkpt lat="45.40811" lon="4.61837">
        <ele>1066.6675</ele>
        <time>2021-07-19T10:15:59Z</time>
      </trkpt>
      <trkpt lat="45.40826" lon="4.61841">
        <ele>1064.5483</ele>
        <time>2021-07-19T10:16:00Z</time>
      </trkpt>
      <trkpt lat="45.40842" lon="4.61848">
        <ele>1064.0145</ele>
        <time>2021-07-19T10:16:01Z</time>
      </trkpt>
      <trkpt lat="45.40856" lon="4.61855">
        <ele>1063.0897</ele>
        <time>2021-07-19T10:16:02Z</time>
      </trkpt>
      <trkpt lat="45.40871" lon="4.61861">
        <ele>1061.7739</ele>
        <time>2021-07-19T10:16:03Z</time>
      </trkpt>
      <trkpt lat="45.40887" lon="4.61869">
        <ele>1060.1091</ele>
        <time>2021-07-19T10:16:04Z</time>
      </trkpt>
      <trkpt lat="45.40902" lon="4.61879">
        <ele>1059.2267</ele>
        <time>2021-07-19T10:16:05Z</time>
      </trkpt>
      <trkpt lat="45.40929" lon="4.61904">
        <ele>1056.7059</ele>
        <time>2021-07-19T10:16:07Z</time>
      </trkpt>
      <trkpt lat="45.40957" lon="4.61929">
        <ele>1053.0753</ele>
        <time>2021-07-19T10:16:09Z</time>
      </trkpt>
      <trkpt lat="45.40971" lon="4.6194">
        <ele>1052.5204</ele>
        <time>2021-07-19T10:16:10Z</time>
      </trkpt>
      <trkpt lat="45.40986" lon="4.61949">
        <ele>1050.6814</ele>
        <time>2021-07-19T10:16:11Z</time>
      </trkpt>
      <trkpt lat="45.40999" lon="4.61959">
        <ele>1050.5228</ele>
        <time>2021-07-19T10:16:12Z</time>
      </trkpt>
      <trkpt lat="45.41011" lon="4.6197">
        <ele>1049.3232</ele>
        <time>2021-07-19T10:16:13Z</time>
      </trkpt>
      <trkpt lat="45.41024" lon="4.61985">
        <ele>1048.0391</ele>
        <time>2021-07-19T10:16:14Z</time>
      </trkpt>
      <trkpt lat="45.41036" lon="4.61999">
        <ele>1047.0614</ele>
        <time>2021-07-19T10:16:15Z</time>
      </trkpt>
      <trkpt lat="45.41047" lon="4.62014">
        <ele>1045.18</ele>
        <time>2021-07-19T10:16:16Z</time>
      </trkpt>
      <trkpt lat="45.4106" lon="4.62028">
        <ele>1044.5195</ele>
        <time>2021-07-19T10:16:17Z</time>
      </trkpt>
      <trkpt lat="45.41071" lon="4.62041">
        <ele>1042.5801</ele>
        <time>2021-07-19T10:16:18Z</time>
      </trkpt>
      <trkpt lat="45.41083" lon="4.62054">
        <ele>1041.5126</ele>
        <time>2021-07-19T10:16:19Z</time>
      </trkpt>
      <trkpt lat="45.41094" lon="4.62068">
        <ele>1040.9789</ele>
        <time>2021-07-19T10:16:20Z</time>
      </trkpt>
      <trkpt lat="45.41105" lon="4.62081">
        <ele>1039.1556</ele>
        <time>2021-07-19T10:16:21Z</time>
      </trkpt>
      <trkpt lat="45.41118" lon="4.62092">
        <ele>1037.5913</ele>
        <time>2021-07-19T10:16:22Z</time>
      </trkpt>
      <trkpt lat="45.41132" lon="4.62104">
        <ele>1036.1276</ele>
        <time>2021-07-19T10:16:23Z</time>
      </trkpt>
      <trkpt lat="45.41144" lon="4.62118">
        <ele>1035.3083</ele>
        <time>2021-07-19T10:16:24Z</time>
      </trkpt>
      <trkpt lat="45.41154" lon="4.62131">
        <ele>1033.8868</ele>
        <time>2021-07-19T10:16:25Z</time>
      </trkpt>
      <trkpt lat="45.41164" lon="4.62146">
        <ele>1032.6925</ele>
        <time>2021-07-19T10:16:26Z</time>
      </trkpt>
      <trkpt lat="45.41174" lon="4.62163">
        <ele>1030.7372</ele>
        <time>2021-07-19T10:16:27Z</time>
      </trkpt>
      <trkpt lat="45.41184" lon="4.62181">
        <ele>1030.3038</ele>
        <time>2021-07-19T10:16:28Z</time>
      </trkpt>
      <trkpt lat="45.41195" lon="4.62197">
        <ele>1028.6656</ele>
        <time>2021-07-19T10:16:29Z</time>
      </trkpt>
      <trkpt lat="45.41205" lon="4.62212">
        <ele>1027.561</ele>
        <time>2021-07-19T10:16:30Z</time>
      </trkpt>
      <trkpt lat="45.41216" lon="4.62226">
        <ele>1025.6533</ele>
        <time>2021-07-19T10:16:31Z</time>
      </trkpt>
      <trkpt lat="45.41229" lon="4.6224">
        <ele>1024.2001</ele>
        <time>2021-07-19T10:16:32Z</time>
      </trkpt>
      <trkpt lat="45.41241" lon="4.62256">
        <ele>1023.7139</ele>
        <time>2021-07-19T10:16:33Z</time>
      </trkpt>
      <trkpt lat="45.41249" lon="4.62275">
        <ele>1021.92236</ele>
        <time>2021-07-19T10:16:34Z</time>
      </trkpt>
      <trkpt lat="45.41258" lon="4.62292">
        <ele>1020.1996</ele>
        <time>2021-07-19T10:16:35Z</time>
      </trkpt>
      <trkpt lat="45.41267" lon="4.62309">
        <ele>1017.94305</ele>
        <time>2021-07-19T10:16:36Z</time>
      </trkpt>
      <trkpt lat="45.41275" lon="4.62322">
        <ele>1016.45276</ele>
        <time>2021-07-19T10:16:37Z</time>
      </trkpt>
      <trkpt lat="45.41283" lon="4.62336">
        <ele>1015.3007</ele>
        <time>2021-07-19T10:16:38Z</time>
      </trkpt>
      <trkpt lat="45.4129" lon="4.62348">
        <ele>1013.96375</ele>
        <time>2021-07-19T10:16:39Z</time>
      </trkpt>
      <trkpt lat="45.41295" lon="4.62359">
        <ele>1012.52106</ele>
        <time>2021-07-19T10:16:40Z</time>
      </trkpt>
      <trkpt lat="45.41301" lon="4.62369">
        <ele>1012.70074</ele>
        <time>2021-07-19T10:16:41Z</time>
      </trkpt>
      <trkpt lat="45.41306" lon="4.62374">
        <ele>1011.4377</ele>
        <time>2021-07-19T10:16:42Z</time>
      </trkpt>
      <trkpt lat="45.41309" lon="4.62375">
        <ele>1011.08887</ele>
        <time>2021-07-19T10:16:43Z</time>
      </trkpt>
      <trkpt lat="45.41312" lon="4.62374">
        <ele>1009.81525</ele>
        <time>2021-07-19T10:16:44Z</time>
      </trkpt>
      <trkpt lat="45.41318" lon="4.62368">
        <ele>1009.02264</ele>
        <time>2021-07-19T10:16:45Z</time>
      </trkpt>
      <trkpt lat="45.41322" lon="4.62359">
        <ele>1007.91284</ele>
        <time>2021-07-19T10:16:46Z</time>
      </trkpt>
      <trkpt lat="45.41328" lon="4.62348">
        <ele>1007.3104</ele>
        <time>2021-07-19T10:16:47Z</time>
      </trkpt>
      <trkpt lat="45.41334" lon="4.62337">
        <ele>1007.321</ele>
        <time>2021-07-19T10:16:48Z</time>
      </trkpt>
      <trkpt lat="45.4134" lon="4.62325">
        <ele>1006.56525</ele>
        <time>2021-07-19T10:16:49Z</time>
      </trkpt>
      <trkpt lat="45.41346" lon="4.62313">
        <ele>1005.8148</ele>
        <time>2021-07-19T10:16:50Z</time>
      </trkpt>
      <trkpt lat="45.41352" lon="4.623">
        <ele>1005.1489</ele>
        <time>2021-07-19T10:16:51Z</time>
      </trkpt>
      <trkpt lat="45.41358" lon="4.62287">
        <ele>1003.6376</ele>
        <time>2021-07-19T10:16:52Z</time>
      </trkpt>
      <trkpt lat="45.41364" lon="4.62276">
        <ele>1003.12494</ele>
        <time>2021-07-19T10:16:53Z</time>
      </trkpt>
      <trkpt lat="45.41371" lon="4.62265">
        <ele>1002.60175</ele>
        <time>2021-07-19T10:16:54Z</time>
      </trkpt>
      <trkpt lat="45.41379" lon="4.62256">
        <ele>1002.52783</ele>
        <time>2021-07-19T10:16:55Z</time>
      </trkpt>
      <trkpt lat="45.41388" lon="4.62247">
        <ele>1001.05865</ele>
        <time>2021-07-19T10:16:56Z</time>
      </trkpt>
      <trkpt lat="45.41398" lon="4.62238">
        <ele>1000.04926</ele>
        <time>2021-07-19T10:16:57Z</time>
      </trkpt>
      <trkpt lat="45.41409" lon="4.6223">
        <ele>998.70703</ele>
        <time>2021-07-19T10:16:58Z</time>
      </trkpt>
      <trkpt lat="45.41419" lon="4.62223">
        <ele>997.9671</ele>
        <time>2021-07-19T10:16:59Z</time>
      </trkpt>
      <trkpt lat="45.4143" lon="4.62214">
        <ele>997.909</ele>
        <time>2021-07-19T10:17:00Z</time>
      </trkpt>
      <trkpt lat="45.41441" lon="4.62207">
        <ele>997.7399</ele>
        <time>2021-07-19T10:17:01Z</time>
      </trkpt>
      <trkpt lat="45.41451" lon="4.62198">
        <ele>996.27075</ele>
        <time>2021-07-19T10:17:02Z</time>
      </trkpt>
      <trkpt lat="45.4146" lon="4.62188">
        <ele>994.77527</ele>
        <time>2021-07-19T10:17:03Z</time>
      </trkpt>
      <trkpt lat="45.4147" lon="4.62177">
        <ele>994.4793</ele>
        <time>2021-07-19T10:17:04Z</time>
      </trkpt>
      <trkpt lat="45.41481" lon="4.62166">
        <ele>994.17804</ele>
        <time>2021-07-19T10:17:05Z</time>
      </trkpt>
      <trkpt lat="45.41492" lon="4.62156">
        <ele>993.211</ele>
        <time>2021-07-19T10:17:06Z</time>
      </trkpt>
      <trkpt lat="45.41504" lon="4.62144">
        <ele>991.4195</ele>
        <time>2021-07-19T10:17:07Z</time>
      </trkpt>
      <trkpt lat="45.41516" lon="4.62133">
        <ele>990.093</ele>
        <time>2021-07-19T10:17:08Z</time>
      </trkpt>
      <trkpt lat="45.41528" lon="4.62122">
        <ele>989.7601</ele>
        <time>2021-07-19T10:17:09Z</time>
      </trkpt>
      <trkpt lat="45.41537" lon="4.6211">
        <ele>989.25275</ele>
        <time>2021-07-19T10:17:10Z</time>
      </trkpt>
      <trkpt lat="45.41546" lon="4.62099">
        <ele>987.88934</ele>
        <time>2021-07-19T10:17:11Z</time>
      </trkpt>
      <trkpt lat="45.41554" lon="4.62088">
        <ele>986.2247</ele>
        <time>2021-07-19T10:17:12Z</time>
      </trkpt>
      <trkpt lat="45.41563" lon="4.62078">
        <ele>985.6117</ele>
        <time>2021-07-19T10:17:13Z</time>
      </trkpt>
      <trkpt lat="45.41575" lon="4.62067">
        <ele>984.7396</ele>
        <time>2021-07-19T10:17:14Z</time>
      </trkpt>
      <trkpt lat="45.41588" lon="4.62058">
        <ele>983.29694</ele>
        <time>2021-07-19T10:17:15Z</time>
      </trkpt>
      <trkpt lat="45.41602" lon="4.6205">
        <ele>982.84247</ele>
        <time>2021-07-19T10:17:16Z</time>
      </trkpt>
      <trkpt lat="45.41615" lon="4.62042">
        <ele>981.61646</ele>
        <time>2021-07-19T10:17:17Z</time>
      </trkpt>
      <trkpt lat="45.41629" lon="4.62033">
        <ele>981.0721</ele>
        <time>2021-07-19T10:17:18Z</time>
      </trkpt>
      <trkpt lat="45.41641" lon="4.62021">
        <ele>979.529</ele>
        <time>2021-07-19T10:17:19Z</time>
      </trkpt>
      <trkpt lat="45.41653" lon="4.62011">
        <ele>979.0745</ele>
        <time>2021-07-19T10:17:20Z</time>
      </trkpt>
      <trkpt lat="45.41666" lon="4.62003">
        <ele>977.85913</ele>
        <time>2021-07-19T10:17:21Z</time>
      </trkpt>
      <trkpt lat="45.41681" lon="4.61998">
        <ele>976.29486</ele>
        <time>2021-07-19T10:17:22Z</time>
      </trkpt>
      <trkpt lat="45.41696" lon="4.61996">
        <ele>975.0688</ele>
        <time>2021-07-19T10:17:23Z</time>
      </trkpt>
      <trkpt lat="45.41711" lon="4.61992">
        <ele>974.2074</ele>
        <time>2021-07-19T10:17:24Z</time>
      </trkpt>
      <trkpt lat="45.41726" lon="4.61989">
        <ele>972.9972</ele>
        <time>2021-07-19T10:17:25Z</time>
      </trkpt>
      <trkpt lat="45.4174" lon="4.61989">
        <ele>972.6326</ele>
        <time>2021-07-19T10:17:26Z</time>
      </trkpt>
      <trkpt lat="45.41753" lon="4.61987">
        <ele>972.16223</ele>
        <time>2021-07-19T10:17:27Z</time>
      </trkpt>
      <trkpt lat="45.41767" lon="4.61986">
        <ele>970.4289</ele>
        <time>2021-07-19T10:17:28Z</time>
      </trkpt>
      <trkpt lat="45.4178" lon="4.61986">
        <ele>970.1277</ele>
        <time>2021-07-19T10:17:29Z</time>
      </trkpt>
      <trkpt lat="45.41793" lon="4.61987">
        <ele>967.8923</ele>
        <time>2021-07-19T10:17:30Z</time>
      </trkpt>
      <trkpt lat="45.41807" lon="4.61988">
        <ele>966.9992</ele>
        <time>2021-07-19T10:17:31Z</time>
      </trkpt>
      <trkpt lat="45.41821" lon="4.6199">
        <ele>965.9211</ele>
        <time>2021-07-19T10:17:32Z</time>
      </trkpt>
      <trkpt lat="45.41834" lon="4.61992">
        <ele>965.2922</ele>
        <time>2021-07-19T10:17:33Z</time>
      </trkpt>
      <trkpt lat="45.41848" lon="4.61993">
        <ele>965.2816</ele>
        <time>2021-07-19T10:17:34Z</time>
      </trkpt>
      <trkpt lat="45.41863" lon="4.61996">
        <ele>964.46783</ele>
        <time>2021-07-19T10:17:35Z</time>
      </trkpt>
      <trkpt lat="45.41878" lon="4.62">
        <ele>963.4902</ele>
        <time>2021-07-19T10:17:36Z</time>
      </trkpt>
      <trkpt lat="45.41894" lon="4.62004">
        <ele>962.8877</ele>
        <time>2021-07-19T10:17:37Z</time>
      </trkpt>
      <trkpt lat="45.41909" lon="4.62008">
        <ele>960.62585</ele>
        <time>2021-07-19T10:17:38Z</time>
      </trkpt>
      <trkpt lat="45.41925" lon="4.62008">
        <ele>960.2243</ele>
        <time>2021-07-19T10:17:39Z</time>
      </trkpt>
      <trkpt lat="45.41938" lon="4.62012">
        <ele>958.96124</ele>
        <time>2021-07-19T10:17:40Z</time>
      </trkpt>
      <trkpt lat="45.4195" lon="4.6202">
        <ele>957.08514</ele>
        <time>2021-07-19T10:17:41Z</time>
      </trkpt>
      <trkpt lat="45.4196" lon="4.62025">
        <ele>955.95953</ele>
        <time>2021-07-19T10:17:42Z</time>
      </trkpt>
      <trkpt lat="45.41972" lon="4.62027">
        <ele>954.1892</ele>
        <time>2021-07-19T10:17:43Z</time>
      </trkpt>
      <trkpt lat="45.41983" lon="4.62024">
        <ele>953.34894</ele>
        <time>2021-07-19T10:17:44Z</time>
      </trkpt>
      <trkpt lat="45.41992" lon="4.62019">
        <ele>953.703</ele>
        <time>2021-07-19T10:17:45Z</time>
      </trkpt>
      <trkpt lat="45.42002" lon="4.62012">
        <ele>952.50867</ele>
        <time>2021-07-19T10:17:46Z</time>
      </trkpt>
      <trkpt lat="45.42012" lon="4.62003">
        <ele>950.4318</ele>
        <time>2021-07-19T10:17:47Z</time>
      </trkpt>
      <trkpt lat="45.42023" lon="4.61996">
        <ele>949.09485</ele>
        <time>2021-07-19T10:17:48Z</time>
      </trkpt>
      <trkpt lat="45.42033" lon="4.61995">
        <ele>948.3074</ele>
        <time>2021-07-19T10:17:49Z</time>
      </trkpt>
      <trkpt lat="45.42044" lon="4.61992">
        <ele>948.03784</ele>
        <time>2021-07-19T10:17:50Z</time>
      </trkpt>
      <trkpt lat="45.42053" lon="4.61992">
        <ele>946.33624</ele>
        <time>2021-07-19T10:17:51Z</time>
      </trkpt>
      <trkpt lat="45.42063" lon="4.61993">
        <ele>946.9281</ele>
        <time>2021-07-19T10:17:52Z</time>
      </trkpt>
      <trkpt lat="45.42073" lon="4.61994">
        <ele>945.16833</ele>
        <time>2021-07-19T10:17:53Z</time>
      </trkpt>
      <trkpt lat="45.42084" lon="4.61993">
        <ele>943.69385</ele>
        <time>2021-07-19T10:17:54Z</time>
      </trkpt>
      <trkpt lat="45.42094" lon="4.61989">
        <ele>942.5788</ele>
        <time>2021-07-19T10:17:55Z</time>
      </trkpt>
      <trkpt lat="45.42105" lon="4.61985">
        <ele>941.9764</ele>
        <time>2021-07-19T10:17:56Z</time>
      </trkpt>
      <trkpt lat="45.42116" lon="4.61978">
        <ele>941.20483</ele>
        <time>2021-07-19T10:17:57Z</time>
      </trkpt>
      <trkpt lat="45.42128" lon="4.61971">
        <ele>939.74097</ele>
        <time>2021-07-19T10:17:58Z</time>
      </trkpt>
      <trkpt lat="45.42139" lon="4.61963">
        <ele>939.0645</ele>
        <time>2021-07-19T10:17:59Z</time>
      </trkpt>
      <trkpt lat="45.42151" lon="4.61954">
        <ele>937.384</ele>
        <time>2021-07-19T10:18:00Z</time>
      </trkpt>
      <trkpt lat="45.42164" lon="4.61947">
        <ele>936.0206</ele>
        <time>2021-07-19T10:18:01Z</time>
      </trkpt>
      <trkpt lat="45.42176" lon="4.61939">
        <ele>935.17505</ele>
        <time>2021-07-19T10:18:02Z</time>
      </trkpt>
      <trkpt lat="45.42188" lon="4.61929">
        <ele>933.57904</ele>
        <time>2021-07-19T10:18:03Z</time>
      </trkpt>
      <trkpt lat="45.422" lon="4.61919">
        <ele>933.01886</ele>
        <time>2021-07-19T10:18:04Z</time>
      </trkpt>
      <trkpt lat="45.42212" lon="4.61907">
        <ele>932.0466</ele>
        <time>2021-07-19T10:18:05Z</time>
      </trkpt>
      <trkpt lat="45.42225" lon="4.61896">
        <ele>930.81525</ele>
        <time>2021-07-19T10:18:06Z</time>
      </trkpt>
      <trkpt lat="45.42237" lon="4.61886">
        <ele>930.20215</ele>
        <time>2021-07-19T10:18:07Z</time>
      </trkpt>
      <trkpt lat="45.42249" lon="4.61877">
        <ele>928.59564</ele>
        <time>2021-07-19T10:18:08Z</time>
      </trkpt>
      <trkpt lat="45.42262" lon="4.61868">
        <ele>928.3949</ele>
        <time>2021-07-19T10:18:09Z</time>
      </trkpt>
      <trkpt lat="45.42274" lon="4.61858">
        <ele>926.5664</ele>
        <time>2021-07-19T10:18:10Z</time>
      </trkpt>
      <trkpt lat="45.42286" lon="4.61848">
        <ele>925.86884</ele>
        <time>2021-07-19T10:18:11Z</time>
      </trkpt>
      <trkpt lat="45.42297" lon="4.61839">
        <ele>924.5529</ele>
        <time>2021-07-19T10:18:12Z</time>
      </trkpt>
      <trkpt lat="45.42309" lon="4.6183">
        <ele>922.06915</ele>
        <time>2021-07-19T10:18:13Z</time>
      </trkpt>
      <trkpt lat="45.42321" lon="4.61822">
        <ele>921.6781</ele>
        <time>2021-07-19T10:18:14Z</time>
      </trkpt>
      <trkpt lat="45.42333" lon="4.61815">
        <ele>916.2772</ele>
        <time>2021-07-19T10:18:15Z</time>
      </trkpt>
      <trkpt lat="45.42347" lon="4.61808">
        <ele>919.0569</ele>
        <time>2021-07-19T10:18:16Z</time>
      </trkpt>
      <trkpt lat="45.4236" lon="4.61802">
        <ele>918.97766</ele>
        <time>2021-07-19T10:18:17Z</time>
      </trkpt>
      <trkpt lat="45.42373" lon="4.61796">
        <ele>917.1597</ele>
        <time>2021-07-19T10:18:18Z</time>
      </trkpt>
      <trkpt lat="45.42386" lon="4.61789">
        <ele>914.6812</ele>
        <time>2021-07-19T10:18:19Z</time>
      </trkpt>
      <trkpt lat="45.42399" lon="4.6178">
        <ele>916.5573</ele>
        <time>2021-07-19T10:18:20Z</time>
      </trkpt>
      <trkpt lat="45.42409" lon="4.6177">
        <ele>914.99835</ele>
        <time>2021-07-19T10:18:21Z</time>
      </trkpt>
      <trkpt lat="45.42419" lon="4.61761">
        <ele>914.4857</ele>
        <time>2021-07-19T10:18:22Z</time>
      </trkpt>
      <trkpt lat="45.42431" lon="4.61753">
        <ele>913.693</ele>
        <time>2021-07-19T10:18:23Z</time>
      </trkpt>
      <trkpt lat="45.42441" lon="4.61747">
        <ele>912.5198</ele>
        <time>2021-07-19T10:18:24Z</time>
      </trkpt>
      <trkpt lat="45.4245" lon="4.61743">
        <ele>911.29376</ele>
        <time>2021-07-19T10:18:25Z</time>
      </trkpt>
      <trkpt lat="45.42457" lon="4.61737">
        <ele>908.234</ele>
        <time>2021-07-19T10:18:26Z</time>
      </trkpt>
      <trkpt lat="45.42463" lon="4.61733">
        <ele>907.7636</ele>
        <time>2021-07-19T10:18:27Z</time>
      </trkpt>
      <trkpt lat="45.42463" lon="4.61733">
        <ele>906.1624</ele>
        <time>2021-07-19T10:18:28Z</time>
      </trkpt>
      <trkpt lat="45.42463" lon="4.61733">
        <ele>905.95624</ele>
        <time>2021-07-19T10:18:29Z</time>
      </trkpt>
      <trkpt lat="45.42463" lon="4.61733">
        <ele>905.9986</ele>
        <time>2021-07-19T10:18:30Z</time>
      </trkpt>
      <trkpt lat="45.42463" lon="4.61733">
        <ele>905.9933</ele>
        <time>2021-07-19T10:18:31Z</time>
      </trkpt>
      <trkpt lat="45.42463" lon="4.61733">
        <ele>906.04083</ele>
        <time>2021-07-19T10:18:32Z</time>
      </trkpt>
      <trkpt lat="45.42463" lon="4.61733">
        <ele>906.04083</ele>
        <time>2021-07-19T10:18:32Z</time>
      </trkpt>
      <trkpt lat="45.42463" lon="4.61733">
        <ele>906.04083</ele>
        <time>2021-07-19T10:18:32Z</time>
      </trkpt>
      <trkpt lat="45.42477" lon="4.61744">
        <ele>905.28516</ele>
        <time>2021-07-19T10:19:46Z</time>
      </trkpt>
      <trkpt lat="45.42482" lon="4.61741">
        <ele>905.32214</ele>
        <time>2021-07-19T10:19:47Z</time>
      </trkpt>
      <trkpt lat="45.42488" lon="4.61739">
        <ele>904.7884</ele>
        <time>2021-07-19T10:19:48Z</time>
      </trkpt>
      <trkpt lat="45.42492" lon="4.61737">
        <ele>904.45544</ele>
        <time>2021-07-19T10:19:49Z</time>
      </trkpt>
      <trkpt lat="45.42497" lon="4.61736">
        <ele>904.2916</ele>
        <time>2021-07-19T10:19:50Z</time>
      </trkpt>
      <trkpt lat="45.42502" lon="4.61735">
        <ele>903.99036</ele>
        <time>2021-07-19T10:19:51Z</time>
      </trkpt>
      <trkpt lat="45.42508" lon="4.61737">
        <ele>904.0433</ele>
        <time>2021-07-19T10:19:52Z</time>
      </trkpt>
      <trkpt lat="45.42513" lon="4.61741">
        <ele>904.03796</ele>
        <time>2021-07-19T10:19:53Z</time>
      </trkpt>
      <trkpt lat="45.42518" lon="4.61746">
        <ele>903.8371</ele>
        <time>2021-07-19T10:19:54Z</time>
      </trkpt>
      <trkpt lat="45.42521" lon="4.6175">
        <ele>903.6627</ele>
        <time>2021-07-19T10:19:55Z</time>
      </trkpt>
      <trkpt lat="45.42522" lon="4.61762">
        <ele>903.74207</ele>
        <time>2021-07-19T10:19:56Z</time>
      </trkpt>
      <trkpt lat="45.4252" lon="4.61772">
        <ele>903.7632</ele>
        <time>2021-07-19T10:19:57Z</time>
      </trkpt>
      <trkpt lat="45.42518" lon="4.6178">
        <ele>903.5359</ele>
        <time>2021-07-19T10:19:58Z</time>
      </trkpt>
      <trkpt lat="45.42511" lon="4.61788">
        <ele>903.203</ele>
        <time>2021-07-19T10:19:59Z</time>
      </trkpt>
      <trkpt lat="45.42503" lon="4.61792">
        <ele>902.97046</ele>
        <time>2021-07-19T10:20:00Z</time>
      </trkpt>
      <trkpt lat="45.42496" lon="4.61795">
        <ele>902.18304</ele>
        <time>2021-07-19T10:20:01Z</time>
      </trkpt>
      <trkpt lat="45.42487" lon="4.61798">
        <ele>901.60175</ele>
        <time>2021-07-19T10:20:02Z</time>
      </trkpt>
      <trkpt lat="45.42479" lon="4.61801">
        <ele>901.3217</ele>
        <time>2021-07-19T10:20:03Z</time>
      </trkpt>
      <trkpt lat="45.4247" lon="4.61806">
        <ele>900.67694</ele>
        <time>2021-07-19T10:20:04Z</time>
      </trkpt>
      <trkpt lat="45.42462" lon="4.61814">
        <ele>900.2225</ele>
        <time>2021-07-19T10:20:05Z</time>
      </trkpt>
      <trkpt lat="45.42454" lon="4.61823">
        <ele>899.4192</ele>
        <time>2021-07-19T10:20:06Z</time>
      </trkpt>
      <trkpt lat="45.42446" lon="4.61832">
        <ele>898.4997</ele>
        <time>2021-07-19T10:20:07Z</time>
      </trkpt>
      <trkpt lat="45.42437" lon="4.61842">
        <ele>898.12976</ele>
        <time>2021-07-19T10:20:08Z</time>
      </trkpt>
      <trkpt lat="45.42429" lon="4.61851">
        <ele>897.40045</ele>
        <time>2021-07-19T10:20:09Z</time>
      </trkpt>
      <trkpt lat="45.42419" lon="4.6186">
        <ele>896.0687</ele>
        <time>2021-07-19T10:20:10Z</time>
      </trkpt>
      <trkpt lat="45.42411" lon="4.61868">
        <ele>896.6871</ele>
        <time>2021-07-19T10:20:11Z</time>
      </trkpt>
      <trkpt lat="45.42403" lon="4.61877">
        <ele>895.0382</ele>
        <time>2021-07-19T10:20:12Z</time>
      </trkpt>
      <trkpt lat="45.42395" lon="4.61887">
        <ele>893.61664</ele>
        <time>2021-07-19T10:20:13Z</time>
      </trkpt>
      <trkpt lat="45.42386" lon="4.61897">
        <ele>892.6865</ele>
        <time>2021-07-19T10:20:14Z</time>
      </trkpt>
      <trkpt lat="45.42375" lon="4.6191">
        <ele>891.5398</ele>
        <time>2021-07-19T10:20:15Z</time>
      </trkpt>
      <trkpt lat="45.42365" lon="4.61922">
        <ele>890.8739</ele>
        <time>2021-07-19T10:20:16Z</time>
      </trkpt>
      <trkpt lat="45.42355" lon="4.61935">
        <ele>890.2662</ele>
        <time>2021-07-19T10:20:17Z</time>
      </trkpt>
      <trkpt lat="45.42345" lon="4.61948">
        <ele>889.2885</ele>
        <time>2021-07-19T10:20:18Z</time>
      </trkpt>
      <trkpt lat="45.42334" lon="4.61962">
        <ele>888.3003</ele>
        <time>2021-07-19T10:20:19Z</time>
      </trkpt>
      <trkpt lat="45.42324" lon="4.61975">
        <ele>888.11005</ele>
        <time>2021-07-19T10:20:20Z</time>
      </trkpt>
      <trkpt lat="45.42314" lon="4.61987">
        <ele>885.2088</ele>
        <time>2021-07-19T10:20:21Z</time>
      </trkpt>
      <trkpt lat="45.42304" lon="4.62">
        <ele>883.44904</ele>
        <time>2021-07-19T10:20:22Z</time>
      </trkpt>
      <trkpt lat="45.42292" lon="4.62013">
        <ele>882.4766</ele>
        <time>2021-07-19T10:20:23Z</time>
      </trkpt>
      <trkpt lat="45.4228" lon="4.62026">
        <ele>881.3088</ele>
        <time>2021-07-19T10:20:24Z</time>
      </trkpt>
      <trkpt lat="45.42268" lon="4.62039">
        <ele>880.7168</ele>
        <time>2021-07-19T10:20:25Z</time>
      </trkpt>
      <trkpt lat="45.42257" lon="4.62052">
        <ele>880.2835</ele>
        <time>2021-07-19T10:20:26Z</time>
      </trkpt>
      <trkpt lat="45.42247" lon="4.62066">
        <ele>879.3904</ele>
        <time>2021-07-19T10:20:27Z</time>
      </trkpt>
      <trkpt lat="45.42239" lon="4.62081">
        <ele>878.06396</ele>
        <time>2021-07-19T10:20:28Z</time>
      </trkpt>
      <trkpt lat="45.42231" lon="4.62098">
        <ele>877.17615</ele>
        <time>2021-07-19T10:20:29Z</time>
      </trkpt>
      <trkpt lat="45.42225" lon="4.62114">
        <ele>876.44684</ele>
        <time>2021-07-19T10:20:30Z</time>
      </trkpt>
      <trkpt lat="45.42218" lon="4.62131">
        <ele>875.56964</ele>
        <time>2021-07-19T10:20:31Z</time>
      </trkpt>
      <trkpt lat="45.42212" lon="4.62149">
        <ele>874.6289</ele>
        <time>2021-07-19T10:20:32Z</time>
      </trkpt>
      <trkpt lat="45.42205" lon="4.62166">
        <ele>872.6472</ele>
        <time>2021-07-19T10:20:33Z</time>
      </trkpt>
      <trkpt lat="45.42198" lon="4.62183">
        <ele>871.9179</ele>
        <time>2021-07-19T10:20:34Z</time>
      </trkpt>
      <trkpt lat="45.42188" lon="4.62197">
        <ele>871.2151</ele>
        <time>2021-07-19T10:20:35Z</time>
      </trkpt>
      <trkpt lat="45.42179" lon="4.62213">
        <ele>870.5862</ele>
        <time>2021-07-19T10:20:36Z</time>
      </trkpt>
      <trkpt lat="45.42171" lon="4.62229">
        <ele>869.9626</ele>
        <time>2021-07-19T10:20:37Z</time>
      </trkpt>
      <trkpt lat="45.42162" lon="4.62245">
        <ele>869.2967</ele>
        <time>2021-07-19T10:20:38Z</time>
      </trkpt>
      <trkpt lat="45.42152" lon="4.62261">
        <ele>867.44183</ele>
        <time>2021-07-19T10:20:39Z</time>
      </trkpt>
      <trkpt lat="45.42144" lon="4.62277">
        <ele>866.07306</ele>
        <time>2021-07-19T10:20:40Z</time>
      </trkpt>
      <trkpt lat="45.42135" lon="4.62293">
        <ele>865.6503</ele>
        <time>2021-07-19T10:20:41Z</time>
      </trkpt>
      <trkpt lat="45.42126" lon="4.62308">
        <ele>864.8207</ele>
        <time>2021-07-19T10:20:42Z</time>
      </trkpt>
      <trkpt lat="45.42116" lon="4.62322">
        <ele>863.53644</ele>
        <time>2021-07-19T10:20:43Z</time>
      </trkpt>
      <trkpt lat="45.42105" lon="4.62337">
        <ele>861.7027</ele>
        <time>2021-07-19T10:20:44Z</time>
      </trkpt>
      <trkpt lat="45.42094" lon="4.62352">
        <ele>861.2905</ele>
        <time>2021-07-19T10:20:45Z</time>
      </trkpt>
      <trkpt lat="45.42083" lon="4.62368">
        <ele>859.61005</ele>
        <time>2021-07-19T10:20:46Z</time>
      </trkpt>
      <trkpt lat="45.42072" lon="4.62384">
        <ele>858.1514</ele>
        <time>2021-07-19T10:20:47Z</time>
      </trkpt>
      <trkpt lat="45.42062" lon="4.624">
        <ele>857.11566</ele>
        <time>2021-07-19T10:20:48Z</time>
      </trkpt>
      <trkpt lat="45.42053" lon="4.62416">
        <ele>856.2119</ele>
        <time>2021-07-19T10:20:49Z</time>
      </trkpt>
      <trkpt lat="45.42042" lon="4.62431">
        <ele>854.5103</ele>
        <time>2021-07-19T10:20:50Z</time>
      </trkpt>
      <trkpt lat="45.42031" lon="4.62446">
        <ele>853.1469</ele>
        <time>2021-07-19T10:20:51Z</time>
      </trkpt>
      <trkpt lat="45.42021" lon="4.62463">
        <ele>852.03186</ele>
        <time>2021-07-19T10:20:52Z</time>
      </trkpt>
      <trkpt lat="45.42012" lon="4.6248">
        <ele>851.0172</ele>
        <time>2021-07-19T10:20:53Z</time>
      </trkpt>
      <trkpt lat="45.42004" lon="4.62495">
        <ele>850.2086</ele>
        <time>2021-07-19T10:20:54Z</time>
      </trkpt>
      <trkpt lat="45.41998" lon="4.62507">
        <ele>848.99316</ele>
        <time>2021-07-19T10:20:55Z</time>
      </trkpt>
      <trkpt lat="45.41992" lon="4.62518">
        <ele>847.62445</ele>
        <time>2021-07-19T10:20:56Z</time>
      </trkpt>
      <trkpt lat="45.41986" lon="4.62527">
        <ele>846.27686</ele>
        <time>2021-07-19T10:20:57Z</time>
      </trkpt>
      <trkpt lat="45.4198" lon="4.62536">
        <ele>845.41016</ele>
        <time>2021-07-19T10:20:58Z</time>
      </trkpt>
      <trkpt lat="45.41971" lon="4.62541">
        <ele>844.52765</ele>
        <time>2021-07-19T10:20:59Z</time>
      </trkpt>
      <trkpt lat="45.41961" lon="4.62542">
        <ele>843.6504</ele>
        <time>2021-07-19T10:21:00Z</time>
      </trkpt>
      <trkpt lat="45.41951" lon="4.62538">
        <ele>842.79956</ele>
        <time>2021-07-19T10:21:01Z</time>
      </trkpt>
      <trkpt lat="45.41942" lon="4.62532">
        <ele>842.065</ele>
        <time>2021-07-19T10:21:02Z</time>
      </trkpt>
      <trkpt lat="45.41933" lon="4.62526">
        <ele>841.5206</ele>
        <time>2021-07-19T10:21:03Z</time>
      </trkpt>
      <trkpt lat="45.41925" lon="4.6252">
        <ele>840.6329</ele>
        <time>2021-07-19T10:21:04Z</time>
      </trkpt>
      <trkpt lat="45.41916" lon="4.62514">
        <ele>840.80194</ele>
        <time>2021-07-19T10:21:05Z</time>
      </trkpt>
      <trkpt lat="45.41907" lon="4.62509">
        <ele>840.4374</ele>
        <time>2021-07-19T10:21:06Z</time>
      </trkpt>
      <trkpt lat="45.41897" lon="4.62507">
        <ele>839.8719</ele>
        <time>2021-07-19T10:21:07Z</time>
      </trkpt>
      <trkpt lat="45.41887" lon="4.6251">
        <ele>838.667</ele>
        <time>2021-07-19T10:21:08Z</time>
      </trkpt>
      <trkpt lat="45.41877" lon="4.62516">
        <ele>837.4568</ele>
        <time>2021-07-19T10:21:09Z</time>
      </trkpt>
      <trkpt lat="45.41868" lon="4.62523">
        <ele>836.24664</ele>
        <time>2021-07-19T10:21:10Z</time>
      </trkpt>
      <trkpt lat="45.41858" lon="4.62534">
        <ele>835.4539</ele>
        <time>2021-07-19T10:21:11Z</time>
      </trkpt>
      <trkpt lat="45.41849" lon="4.62546">
        <ele>834.2807</ele>
        <time>2021-07-19T10:21:12Z</time>
      </trkpt>
      <trkpt lat="45.41842" lon="4.62557">
        <ele>833.2608</ele>
        <time>2021-07-19T10:21:13Z</time>
      </trkpt>
      <trkpt lat="45.41835" lon="4.62567">
        <ele>831.966</ele>
        <time>2021-07-19T10:21:14Z</time>
      </trkpt>
      <trkpt lat="45.41829" lon="4.62577">
        <ele>830.87744</ele>
        <time>2021-07-19T10:21:15Z</time>
      </trkpt>
      <trkpt lat="45.41828" lon="4.62588">
        <ele>829.98425</ele>
        <time>2021-07-19T10:21:16Z</time>
      </trkpt>
      <trkpt lat="45.41829" lon="4.62601">
        <ele>829.1176</ele>
        <time>2021-07-19T10:21:17Z</time>
      </trkpt>
      <trkpt lat="45.41831" lon="4.62616">
        <ele>827.7277</ele>
        <time>2021-07-19T10:21:18Z</time>
      </trkpt>
      <trkpt lat="45.41835" lon="4.62632">
        <ele>826.4753</ele>
        <time>2021-07-19T10:21:19Z</time>
      </trkpt>
      <trkpt lat="45.41838" lon="4.6265">
        <ele>825.58746</ele>
        <time>2021-07-19T10:21:20Z</time>
      </trkpt>
      <trkpt lat="45.41841" lon="4.62669">
        <ele>825.0643</ele>
        <time>2021-07-19T10:21:21Z</time>
      </trkpt>
      <trkpt lat="45.41843" lon="4.62689">
        <ele>824.56757</ele>
        <time>2021-07-19T10:21:22Z</time>
      </trkpt>
      <trkpt lat="45.41845" lon="4.6271">
        <ele>823.4525</ele>
        <time>2021-07-19T10:21:23Z</time>
      </trkpt>
      <trkpt lat="45.41847" lon="4.62729">
        <ele>823.146</ele>
        <time>2021-07-19T10:21:24Z</time>
      </trkpt>
      <trkpt lat="45.41849" lon="4.62748">
        <ele>822.1261</ele>
        <time>2021-07-19T10:21:25Z</time>
      </trkpt>
      <trkpt lat="45.41851" lon="4.62767">
        <ele>821.64514</ele>
        <time>2021-07-19T10:21:26Z</time>
      </trkpt>
      <trkpt lat="45.41853" lon="4.62786">
        <ele>820.72034</ele>
        <time>2021-07-19T10:21:27Z</time>
      </trkpt>
      <trkpt lat="45.41854" lon="4.62807">
        <ele>819.4468</ele>
        <time>2021-07-19T10:21:28Z</time>
      </trkpt>
      <trkpt lat="45.41853" lon="4.62827">
        <ele>818.4638</ele>
        <time>2021-07-19T10:21:29Z</time>
      </trkpt>
      <trkpt lat="45.41855" lon="4.62846">
        <ele>816.9788</ele>
        <time>2021-07-19T10:21:30Z</time>
      </trkpt>
      <trkpt lat="45.41855" lon="4.62866">
        <ele>815.8479</ele>
        <time>2021-07-19T10:21:31Z</time>
      </trkpt>
      <trkpt lat="45.41855" lon="4.62887">
        <ele>815.3405</ele>
        <time>2021-07-19T10:21:32Z</time>
      </trkpt>
      <trkpt lat="45.41855" lon="4.62907">
        <ele>814.2942</ele>
        <time>2021-07-19T10:21:33Z</time>
      </trkpt>
      <trkpt lat="45.41855" lon="4.62926">
        <ele>813.0312</ele>
        <time>2021-07-19T10:21:34Z</time>
      </trkpt>
      <trkpt lat="45.41856" lon="4.62946">
        <ele>812.0852</ele>
        <time>2021-07-19T10:21:35Z</time>
      </trkpt>
      <trkpt lat="45.41856" lon="4.62967">
        <ele>811.673</ele>
        <time>2021-07-19T10:21:36Z</time>
      </trkpt>
      <trkpt lat="45.41856" lon="4.62989">
        <ele>810.4998</ele>
        <time>2021-07-19T10:21:37Z</time>
      </trkpt>
      <trkpt lat="45.41857" lon="4.6301">
        <ele>809.32666</ele>
        <time>2021-07-19T10:21:38Z</time>
      </trkpt>
      <trkpt lat="45.41858" lon="4.63032">
        <ele>808.2063</ele>
        <time>2021-07-19T10:21:39Z</time>
      </trkpt>
      <trkpt lat="45.41858" lon="4.63053">
        <ele>806.71075</ele>
        <time>2021-07-19T10:21:40Z</time>
      </trkpt>
      <trkpt lat="45.41859" lon="4.63075">
        <ele>805.54816</ele>
        <time>2021-07-19T10:21:41Z</time>
      </trkpt>
      <trkpt lat="45.41859" lon="4.63097">
        <ele>803.8782</ele>
        <time>2021-07-19T10:21:42Z</time>
      </trkpt>
      <trkpt lat="45.4186" lon="4.63119">
        <ele>802.6046</ele>
        <time>2021-07-19T10:21:43Z</time>
      </trkpt>
      <trkpt lat="45.4186" lon="4.63142">
        <ele>801.5582</ele>
        <time>2021-07-19T10:21:44Z</time>
      </trkpt>
      <trkpt lat="45.41859" lon="4.63164">
        <ele>800.33746</ele>
        <time>2021-07-19T10:21:45Z</time>
      </trkpt>
      <trkpt lat="45.41858" lon="4.63185">
        <ele>799.0005</ele>
        <time>2021-07-19T10:21:46Z</time>
      </trkpt>
      <trkpt lat="45.41856" lon="4.63208">
        <ele>798.6147</ele>
        <time>2021-07-19T10:21:47Z</time>
      </trkpt>
      <trkpt lat="45.41854" lon="4.6323">
        <ele>798.0387</ele>
        <time>2021-07-19T10:21:48Z</time>
      </trkpt>
      <trkpt lat="45.41851" lon="4.63252">
        <ele>795.9354</ele>
        <time>2021-07-19T10:21:49Z</time>
      </trkpt>
      <trkpt lat="45.41849" lon="4.63274">
        <ele>793.5837</ele>
        <time>2021-07-19T10:21:50Z</time>
      </trkpt>
      <trkpt lat="45.41848" lon="4.63294">
        <ele>791.4804</ele>
        <time>2021-07-19T10:21:51Z</time>
      </trkpt>
      <trkpt lat="45.41847" lon="4.63312">
        <ele>789.43</ele>
        <time>2021-07-19T10:21:52Z</time>
      </trkpt>
      <trkpt lat="45.41846" lon="4.63327">
        <ele>788.81165</ele>
        <time>2021-07-19T10:21:53Z</time>
      </trkpt>
      <trkpt lat="45.41845" lon="4.63338">
        <ele>787.75476</ele>
        <time>2021-07-19T10:21:54Z</time>
      </trkpt>
      <trkpt lat="45.41844" lon="4.63349">
        <ele>787.1788</ele>
        <time>2021-07-19T10:21:55Z</time>
      </trkpt>
      <trkpt lat="45.41843" lon="4.63359">
        <ele>786.7295</ele>
        <time>2021-07-19T10:21:56Z</time>
      </trkpt>
      <trkpt lat="45.41845" lon="4.63368">
        <ele>786.34375</ele>
        <time>2021-07-19T10:21:57Z</time>
      </trkpt>
      <trkpt lat="45.41847" lon="4.63375">
        <ele>785.94214</ele>
        <time>2021-07-19T10:21:58Z</time>
      </trkpt>
      <trkpt lat="45.41853" lon="4.63376">
        <ele>785.41364</ele>
        <time>2021-07-19T10:21:59Z</time>
      </trkpt>
      <trkpt lat="45.41857" lon="4.63371">
        <ele>784.9063</ele>
        <time>2021-07-19T10:22:00Z</time>
      </trkpt>
      <trkpt lat="45.41859" lon="4.6336">
        <ele>784.1929</ele>
        <time>2021-07-19T10:22:01Z</time>
      </trkpt>
      <trkpt lat="45.41861" lon="4.63346">
        <ele>783.9287</ele>
        <time>2021-07-19T10:22:02Z</time>
      </trkpt>
      <trkpt lat="45.41864" lon="4.63329">
        <ele>783.2152</ele>
        <time>2021-07-19T10:22:03Z</time>
      </trkpt>
      <trkpt lat="45.41867" lon="4.63313">
        <ele>782.3327</ele>
        <time>2021-07-19T10:22:04Z</time>
      </trkpt>
      <trkpt lat="45.41872" lon="4.63294">
        <ele>781.89935</ele>
        <time>2021-07-19T10:22:05Z</time>
      </trkpt>
      <trkpt lat="45.41876" lon="4.63278">
        <ele>781.1859</ele>
        <time>2021-07-19T10:22:06Z</time>
      </trkpt>
      <trkpt lat="45.41881" lon="4.63262">
        <ele>781.001</ele>
        <time>2021-07-19T10:22:07Z</time>
      </trkpt>
      <trkpt lat="45.41886" lon="4.63247">
        <ele>780.04974</ele>
        <time>2021-07-19T10:22:08Z</time>
      </trkpt>
      <trkpt lat="45.41891" lon="4.63232">
        <ele>779.02985</ele>
        <time>2021-07-19T10:22:09Z</time>
      </trkpt>
      <trkpt lat="45.41895" lon="4.63215">
        <ele>778.2477</ele>
        <time>2021-07-19T10:22:10Z</time>
      </trkpt>
      <trkpt lat="45.41901" lon="4.63199">
        <ele>777.4603</ele>
        <time>2021-07-19T10:22:11Z</time>
      </trkpt>
      <trkpt lat="45.41908" lon="4.63185">
        <ele>777.0851</ele>
        <time>2021-07-19T10:22:12Z</time>
      </trkpt>
      <trkpt lat="45.41914" lon="4.63169">
        <ele>776.0651</ele>
        <time>2021-07-19T10:22:13Z</time>
      </trkpt>
      <trkpt lat="45.41921" lon="4.63154">
        <ele>774.98175</ele>
        <time>2021-07-19T10:22:14Z</time>
      </trkpt>
      <trkpt lat="45.41928" lon="4.63138">
        <ele>774.1679</ele>
        <time>2021-07-19T10:22:15Z</time>
      </trkpt>
      <trkpt lat="45.41935" lon="4.63123">
        <ele>773.37</ele>
        <time>2021-07-19T10:22:16Z</time>
      </trkpt>
      <trkpt lat="45.41941" lon="4.63108">
        <ele>772.79926</ele>
        <time>2021-07-19T10:22:17Z</time>
      </trkpt>
      <trkpt lat="45.41948" lon="4.63092">
        <ele>771.7634</ele>
        <time>2021-07-19T10:22:18Z</time>
      </trkpt>
      <trkpt lat="45.41954" lon="4.63076">
        <ele>770.9443</ele>
        <time>2021-07-19T10:22:19Z</time>
      </trkpt>
      <trkpt lat="45.41959" lon="4.6306">
        <ele>769.8663</ele>
        <time>2021-07-19T10:22:20Z</time>
      </trkpt>
      <trkpt lat="45.41963" lon="4.63043">
        <ele>769.4277</ele>
        <time>2021-07-19T10:22:21Z</time>
      </trkpt>
      <trkpt lat="45.41966" lon="4.63025">
        <ele>768.228</ele>
        <time>2021-07-19T10:22:22Z</time>
      </trkpt>
      <trkpt lat="45.41968" lon="4.63007">
        <ele>766.80646</ele>
        <time>2021-07-19T10:22:23Z</time>
      </trkpt>
      <trkpt lat="45.4197" lon="4.6299">
        <ele>766.14056</ele>
        <time>2021-07-19T10:22:24Z</time>
      </trkpt>
      <trkpt lat="45.41972" lon="4.62972">
        <ele>765.41656</ele>
        <time>2021-07-19T10:22:25Z</time>
      </trkpt>
      <trkpt lat="45.41972" lon="4.62953">
        <ele>764.1324</ele>
        <time>2021-07-19T10:22:26Z</time>
      </trkpt>
      <trkpt lat="45.41975" lon="4.62935">
        <ele>763.48236</ele>
        <time>2021-07-19T10:22:27Z</time>
      </trkpt>
      <trkpt lat="45.41978" lon="4.62917">
        <ele>761.9446</ele>
        <time>2021-07-19T10:22:28Z</time>
      </trkpt>
      <trkpt lat="45.41982" lon="4.62901">
        <ele>760.78723</ele>
        <time>2021-07-19T10:22:29Z</time>
      </trkpt>
      <trkpt lat="45.41986" lon="4.62887">
        <ele>759.5612</ele>
        <time>2021-07-19T10:22:30Z</time>
      </trkpt>
      <trkpt lat="45.4199" lon="4.62874">
        <ele>758.30347</ele>
        <time>2021-07-19T10:22:31Z</time>
      </trkpt>
      <trkpt lat="45.41995" lon="4.62862">
        <ele>757.5848</ele>
        <time>2021-07-19T10:22:32Z</time>
      </trkpt>
      <trkpt lat="45.41999" lon="4.62853">
        <ele>756.7604</ele>
        <time>2021-07-19T10:22:33Z</time>
      </trkpt>
      <trkpt lat="45.42006" lon="4.62845">
        <ele>756.1156</ele>
        <time>2021-07-19T10:22:34Z</time>
      </trkpt>
      <trkpt lat="45.42016" lon="4.62842">
        <ele>755.5343</ele>
        <time>2021-07-19T10:22:35Z</time>
      </trkpt>
      <trkpt lat="45.42027" lon="4.62842">
        <ele>755.0323</ele>
        <time>2021-07-19T10:22:36Z</time>
      </trkpt>
      <trkpt lat="45.42038" lon="4.62844">
        <ele>754.4034</ele>
        <time>2021-07-19T10:22:37Z</time>
      </trkpt>
      <trkpt lat="45.4205" lon="4.62848">
        <ele>753.65826</ele>
        <time>2021-07-19T10:22:38Z</time>
      </trkpt>
      <trkpt lat="45.42061" lon="4.62856">
        <ele>752.6436</ele>
        <time>2021-07-19T10:22:39Z</time>
      </trkpt>
      <trkpt lat="45.42073" lon="4.62866">
        <ele>752.09406</ele>
        <time>2021-07-19T10:22:40Z</time>
      </trkpt>
      <trkpt lat="45.42085" lon="4.62877">
        <ele>751.31714</ele>
        <time>2021-07-19T10:22:41Z</time>
      </trkpt>
      <trkpt lat="45.42097" lon="4.62885">
        <ele>750.1493</ele>
        <time>2021-07-19T10:22:42Z</time>
      </trkpt>
      <trkpt lat="45.42109" lon="4.62889">
        <ele>748.8598</ele>
        <time>2021-07-19T10:22:43Z</time>
      </trkpt>
      <trkpt lat="45.4212" lon="4.62886">
        <ele>748.10406</ele>
        <time>2021-07-19T10:22:44Z</time>
      </trkpt>
      <trkpt lat="45.4213" lon="4.6288">
        <ele>747.5175</ele>
        <time>2021-07-19T10:22:45Z</time>
      </trkpt>
      <trkpt lat="45.42141" lon="4.62872">
        <ele>746.64026</ele>
        <time>2021-07-19T10:22:46Z</time>
      </trkpt>
      <trkpt lat="45.42152" lon="4.62863">
        <ele>745.689</ele>
        <time>2021-07-19T10:22:47Z</time>
      </trkpt>
      <trkpt lat="45.42163" lon="4.62852">
        <ele>744.854</ele>
        <time>2021-07-19T10:22:48Z</time>
      </trkpt>
      <trkpt lat="45.42174" lon="4.62842">
        <ele>743.7919</ele>
        <time>2021-07-19T10:22:49Z</time>
      </trkpt>
      <trkpt lat="45.42184" lon="4.62832">
        <ele>742.83</ele>
        <time>2021-07-19T10:22:50Z</time>
      </trkpt>
      <trkpt lat="45.42195" lon="4.62823">
        <ele>741.59344</ele>
        <time>2021-07-19T10:22:51Z</time>
      </trkpt>
      <trkpt lat="45.42217" lon="4.62803">
        <ele>740.6369</ele>
        <time>2021-07-19T10:22:53Z</time>
      </trkpt>
      <trkpt lat="45.42217" lon="4.62803">
        <ele>740.6369</ele>
        <time>2021-07-19T10:22:53Z</time>
      </trkpt>
      <trkpt lat="45.42228" lon="4.62794">
        <ele>739.9816</ele>
        <time>2021-07-19T10:22:54Z</time>
      </trkpt>
      <trkpt lat="45.42239" lon="4.62784">
        <ele>738.73975</ele>
        <time>2021-07-19T10:22:55Z</time>
      </trkpt>
      <trkpt lat="45.4225" lon="4.62774">
        <ele>738.2218</ele>
        <time>2021-07-19T10:22:56Z</time>
      </trkpt>
      <trkpt lat="45.42261" lon="4.62764">
        <ele>737.08563</ele>
        <time>2021-07-19T10:22:57Z</time>
      </trkpt>
      <trkpt lat="45.42282" lon="4.62745">
        <ele>734.2478</ele>
        <time>2021-07-19T10:22:59Z</time>
      </trkpt>
      <trkpt lat="45.42282" lon="4.62745">
        <ele>734.2478</ele>
        <time>2021-07-19T10:22:59Z</time>
      </trkpt>
      <trkpt lat="45.42291" lon="4.62737">
        <ele>732.8896</ele>
        <time>2021-07-19T10:23:00Z</time>
      </trkpt>
      <trkpt lat="45.423" lon="4.62731">
        <ele>731.8063</ele>
        <time>2021-07-19T10:23:01Z</time>
      </trkpt>
      <trkpt lat="45.42312" lon="4.62729">
        <ele>730.0888</ele>
        <time>2021-07-19T10:23:02Z</time>
      </trkpt>
      <trkpt lat="45.42333" lon="4.62747">
        <ele>728.23914</ele>
        <time>2021-07-19T10:23:04Z</time>
      </trkpt>
      <trkpt lat="45.42333" lon="4.62747">
        <ele>728.23914</ele>
        <time>2021-07-19T10:23:04Z</time>
      </trkpt>
      <trkpt lat="45.42338" lon="4.62762">
        <ele>727.7318</ele>
        <time>2021-07-19T10:23:05Z</time>
      </trkpt>
      <trkpt lat="45.42342" lon="4.62779">
        <ele>726.7647</ele>
        <time>2021-07-19T10:23:06Z</time>
      </trkpt>
      <trkpt lat="45.42344" lon="4.62797">
        <ele>725.77124</ele>
        <time>2021-07-19T10:23:07Z</time>
      </trkpt>
      <trkpt lat="45.42347" lon="4.62817">
        <ele>724.40247</ele>
        <time>2021-07-19T10:23:08Z</time>
      </trkpt>
      <trkpt lat="45.42352" lon="4.62857">
        <ele>722.8805</ele>
        <time>2021-07-19T10:23:10Z</time>
      </trkpt>
      <trkpt lat="45.42352" lon="4.62857">
        <ele>722.8805</ele>
        <time>2021-07-19T10:23:10Z</time>
      </trkpt>
      <trkpt lat="45.42353" lon="4.62877">
        <ele>722.6691</ele>
        <time>2021-07-19T10:23:11Z</time>
      </trkpt>
      <trkpt lat="45.42355" lon="4.62897">
        <ele>721.5541</ele>
        <time>2021-07-19T10:23:12Z</time>
      </trkpt>
      <trkpt lat="45.42358" lon="4.62937">
        <ele>718.29877</ele>
        <time>2021-07-19T10:23:14Z</time>
      </trkpt>
      <trkpt lat="45.42358" lon="4.62937">
        <ele>718.29877</ele>
        <time>2021-07-19T10:23:14Z</time>
      </trkpt>
      <trkpt lat="45.42358" lon="4.62957">
        <ele>717.8813</ele>
        <time>2021-07-19T10:23:15Z</time>
      </trkpt>
      <trkpt lat="45.4236" lon="4.62978">
        <ele>716.5918</ele>
        <time>2021-07-19T10:23:16Z</time>
      </trkpt>
      <trkpt lat="45.4236" lon="4.62999">
        <ele>716.16376</ele>
        <time>2021-07-19T10:23:17Z</time>
      </trkpt>
      <trkpt lat="45.42361" lon="4.6302">
        <ele>715.74097</ele>
        <time>2021-07-19T10:23:18Z</time>
      </trkpt>
      <trkpt lat="45.42361" lon="4.63042">
        <ele>714.6259</ele>
        <time>2021-07-19T10:23:19Z</time>
      </trkpt>
      <trkpt lat="45.42365" lon="4.63063">
        <ele>713.7434</ele>
        <time>2021-07-19T10:23:20Z</time>
      </trkpt>
      <trkpt lat="45.42369" lon="4.63083">
        <ele>712.27423</ele>
        <time>2021-07-19T10:23:21Z</time>
      </trkpt>
      <trkpt lat="45.42372" lon="4.63104">
        <ele>711.02704</ele>
        <time>2021-07-19T10:23:22Z</time>
      </trkpt>
      <trkpt lat="45.42375" lon="4.63126">
        <ele>709.34656</ele>
        <time>2021-07-19T10:23:23Z</time>
      </trkpt>
      <trkpt lat="45.42379" lon="4.63146">
        <ele>708.3108</ele>
        <time>2021-07-19T10:23:24Z</time>
      </trkpt>
      <trkpt lat="45.42386" lon="4.63164">
        <ele>707.1957</ele>
        <time>2021-07-19T10:23:25Z</time>
      </trkpt>
      <trkpt lat="45.42395" lon="4.63181">
        <ele>705.43066</ele>
        <time>2021-07-19T10:23:26Z</time>
      </trkpt>
      <trkpt lat="45.42405" lon="4.63196">
        <ele>704.7701</ele>
        <time>2021-07-19T10:23:27Z</time>
      </trkpt>
      <trkpt lat="45.42415" lon="4.63212">
        <ele>703.5599</ele>
        <time>2021-07-19T10:23:28Z</time>
      </trkpt>
      <trkpt lat="45.42421" lon="4.6323">
        <ele>703.2745</ele>
        <time>2021-07-19T10:23:29Z</time>
      </trkpt>
      <trkpt lat="45.42424" lon="4.63249">
        <ele>702.5188</ele>
        <time>2021-07-19T10:23:30Z</time>
      </trkpt>
      <trkpt lat="45.42424" lon="4.63268">
        <ele>700.3151</ele>
        <time>2021-07-19T10:23:31Z</time>
      </trkpt>
      <trkpt lat="45.42423" lon="4.63287">
        <ele>699.3533</ele>
        <time>2021-07-19T10:23:32Z</time>
      </trkpt>
      <trkpt lat="45.4242" lon="4.63329">
        <ele>697.8472</ele>
        <time>2021-07-19T10:23:34Z</time>
      </trkpt>
      <trkpt lat="45.42418" lon="4.63351">
        <ele>696.31464</ele>
        <time>2021-07-19T10:23:35Z</time>
      </trkpt>
      <trkpt lat="45.42415" lon="4.63373">
        <ele>694.68695</ele>
        <time>2021-07-19T10:23:36Z</time>
      </trkpt>
      <trkpt lat="45.42415" lon="4.63393">
        <ele>694.14264</ele>
        <time>2021-07-19T10:23:37Z</time>
      </trkpt>
      <trkpt lat="45.42415" lon="4.63414">
        <ele>692.8426</ele>
        <time>2021-07-19T10:23:38Z</time>
      </trkpt>
      <trkpt lat="45.42415" lon="4.63434">
        <ele>692.34064</ele>
        <time>2021-07-19T10:23:39Z</time>
      </trkpt>
      <trkpt lat="45.42416" lon="4.63454">
        <ele>690.87146</ele>
        <time>2021-07-19T10:23:40Z</time>
      </trkpt>
      <trkpt lat="45.42418" lon="4.63474">
        <ele>688.9056</ele>
        <time>2021-07-19T10:23:41Z</time>
      </trkpt>
      <trkpt lat="45.42421" lon="4.63493">
        <ele>688.57263</ele>
        <time>2021-07-19T10:23:42Z</time>
      </trkpt>
      <trkpt lat="45.42423" lon="4.63513">
        <ele>687.6425</ele>
        <time>2021-07-19T10:23:43Z</time>
      </trkpt>
      <trkpt lat="45.42423" lon="4.63533">
        <ele>685.9673</ele>
        <time>2021-07-19T10:23:44Z</time>
      </trkpt>
      <trkpt lat="45.42418" lon="4.63553">
        <ele>684.773</ele>
        <time>2021-07-19T10:23:45Z</time>
      </trkpt>
      <trkpt lat="45.42411" lon="4.63572">
        <ele>683.21405</ele>
        <time>2021-07-19T10:23:46Z</time>
      </trkpt>
      <trkpt lat="45.42403" lon="4.63591">
        <ele>681.5863</ele>
        <time>2021-07-19T10:23:47Z</time>
      </trkpt>
      <trkpt lat="45.42397" lon="4.6361">
        <ele>680.3868</ele>
        <time>2021-07-19T10:23:48Z</time>
      </trkpt>
      <trkpt lat="45.42391" lon="4.63629">
        <ele>679.4408</ele>
        <time>2021-07-19T10:23:49Z</time>
      </trkpt>
      <trkpt lat="45.42386" lon="4.63649">
        <ele>678.24646</ele>
        <time>2021-07-19T10:23:50Z</time>
      </trkpt>
      <trkpt lat="45.42386" lon="4.63649">
        <ele>678.24646</ele>
        <time>2021-07-19T10:23:50Z</time>
      </trkpt>
      <trkpt lat="45.42384" lon="4.63668">
        <ele>677.8343</ele>
        <time>2021-07-19T10:23:51Z</time>
      </trkpt>
      <trkpt lat="45.42386" lon="4.63687">
        <ele>676.2806</ele>
        <time>2021-07-19T10:23:52Z</time>
      </trkpt>
      <trkpt lat="45.4239" lon="4.63706">
        <ele>674.6529</ele>
        <time>2021-07-19T10:23:53Z</time>
      </trkpt>
      <trkpt lat="45.42393" lon="4.63725">
        <ele>674.58954</ele>
        <time>2021-07-19T10:23:54Z</time>
      </trkpt>
      <trkpt lat="45.42394" lon="4.63745">
        <ele>673.44275</ele>
        <time>2021-07-19T10:23:55Z</time>
      </trkpt>
      <trkpt lat="45.42391" lon="4.63765">
        <ele>671.8256</ele>
        <time>2021-07-19T10:23:56Z</time>
      </trkpt>
      <trkpt lat="45.42381" lon="4.63802">
        <ele>668.90845</ele>
        <time>2021-07-19T10:23:58Z</time>
      </trkpt>
      <trkpt lat="45.42381" lon="4.63802">
        <ele>668.90845</ele>
        <time>2021-07-19T10:23:58Z</time>
      </trkpt>
      <trkpt lat="45.42378" lon="4.63821">
        <ele>668.306</ele>
        <time>2021-07-19T10:23:59Z</time>
      </trkpt>
      <trkpt lat="45.42379" lon="4.63858">
        <ele>667.4605</ele>
        <time>2021-07-19T10:24:01Z</time>
      </trkpt>
      <trkpt lat="45.4238" lon="4.63876">
        <ele>666.48285</ele>
        <time>2021-07-19T10:24:02Z</time>
      </trkpt>
      <trkpt lat="45.4238" lon="4.63876">
        <ele>666.48285</ele>
        <time>2021-07-19T10:24:02Z</time>
      </trkpt>
      <trkpt lat="45.42379" lon="4.63894">
        <ele>665.89624</ele>
        <time>2021-07-19T10:24:03Z</time>
      </trkpt>
      <trkpt lat="45.42377" lon="4.63912">
        <ele>664.945</ele>
        <time>2021-07-19T10:24:04Z</time>
      </trkpt>
      <trkpt lat="45.42372" lon="4.63948">
        <ele>663.7454</ele>
        <time>2021-07-19T10:24:06Z</time>
      </trkpt>
      <trkpt lat="45.42372" lon="4.63948">
        <ele>663.7454</ele>
        <time>2021-07-19T10:24:06Z</time>
      </trkpt>
      <trkpt lat="45.4237" lon="4.63965">
        <ele>662.99493</ele>
        <time>2021-07-19T10:24:07Z</time>
      </trkpt>
      <trkpt lat="45.42364" lon="4.64">
        <ele>660.823</ele>
        <time>2021-07-19T10:24:09Z</time>
      </trkpt>
      <trkpt lat="45.42364" lon="4.64">
        <ele>660.823</ele>
        <time>2021-07-19T10:24:09Z</time>
      </trkpt>
      <trkpt lat="45.42362" lon="4.64019">
        <ele>659.8612</ele>
        <time>2021-07-19T10:24:10Z</time>
      </trkpt>
      <trkpt lat="45.42354" lon="4.64056">
        <ele>658.94696</ele>
        <time>2021-07-19T10:24:12Z</time>
      </trkpt>
      <trkpt lat="45.4235" lon="4.64076">
        <ele>658.1331</ele>
        <time>2021-07-19T10:24:13Z</time>
      </trkpt>
      <trkpt lat="45.42345" lon="4.64095">
        <ele>656.5636</ele>
        <time>2021-07-19T10:24:14Z</time>
      </trkpt>
      <trkpt lat="45.42345" lon="4.64095">
        <ele>656.5636</ele>
        <time>2021-07-19T10:24:14Z</time>
      </trkpt>
      <trkpt lat="45.42341" lon="4.64114">
        <ele>655.6018</ele>
        <time>2021-07-19T10:24:15Z</time>
      </trkpt>
      <trkpt lat="45.42337" lon="4.64133">
        <ele>655.05743</ele>
        <time>2021-07-19T10:24:16Z</time>
      </trkpt>
      <trkpt lat="45.42333" lon="4.64153">
        <ele>654.6664</ele>
        <time>2021-07-19T10:24:17Z</time>
      </trkpt>
      <trkpt lat="45.42325" lon="4.64191">
        <ele>652.38873</ele>
        <time>2021-07-19T10:24:19Z</time>
      </trkpt>
      <trkpt lat="45.42321" lon="4.6421">
        <ele>651.0041</ele>
        <time>2021-07-19T10:24:20Z</time>
      </trkpt>
      <trkpt lat="45.42321" lon="4.6421">
        <ele>651.0041</ele>
        <time>2021-07-19T10:24:20Z</time>
      </trkpt>
      <trkpt lat="45.42312" lon="4.64247">
        <ele>649.17566</ele>
        <time>2021-07-19T10:24:22Z</time>
      </trkpt>
      <trkpt lat="45.42307" lon="4.64266">
        <ele>647.5427</ele>
        <time>2021-07-19T10:24:23Z</time>
      </trkpt>
      <trkpt lat="45.423" lon="4.64285">
        <ele>646.3695</ele>
        <time>2021-07-19T10:24:24Z</time>
      </trkpt>
      <trkpt lat="45.42293" lon="4.64304">
        <ele>645.4236</ele>
        <time>2021-07-19T10:24:25Z</time>
      </trkpt>
      <trkpt lat="45.42286" lon="4.64321">
        <ele>644.5886</ele>
        <time>2021-07-19T10:24:26Z</time>
      </trkpt>
      <trkpt lat="45.4228" lon="4.64339">
        <ele>643.9227</ele>
        <time>2021-07-19T10:24:27Z</time>
      </trkpt>
      <trkpt lat="45.42274" lon="4.64358">
        <ele>643.46295</ele>
        <time>2021-07-19T10:24:28Z</time>
      </trkpt>
      <trkpt lat="45.42268" lon="4.64376">
        <ele>641.65564</ele>
        <time>2021-07-19T10:24:29Z</time>
      </trkpt>
      <trkpt lat="45.42263" lon="4.64394">
        <ele>638.09906</ele>
        <time>2021-07-19T10:24:30Z</time>
      </trkpt>
      <trkpt lat="45.42258" lon="4.64409">
        <ele>638.61694</ele>
        <time>2021-07-19T10:24:31Z</time>
      </trkpt>
      <trkpt lat="45.42252" lon="4.64427">
        <ele>636.9787</ele>
        <time>2021-07-19T10:24:32Z</time>
      </trkpt>
      <trkpt lat="45.42246" lon="4.64443">
        <ele>635.8372</ele>
        <time>2021-07-19T10:24:33Z</time>
      </trkpt>
      <trkpt lat="45.42244" lon="4.64462">
        <ele>634.65875</ele>
        <time>2021-07-19T10:24:34Z</time>
      </trkpt>
      <trkpt lat="45.42244" lon="4.64481">
        <ele>634.3047</ele>
        <time>2021-07-19T10:24:35Z</time>
      </trkpt>
      <trkpt lat="45.42246" lon="4.64502">
        <ele>633.1368</ele>
        <time>2021-07-19T10:24:36Z</time>
      </trkpt>
      <trkpt lat="45.42247" lon="4.64522">
        <ele>632.48676</ele>
        <time>2021-07-19T10:24:37Z</time>
      </trkpt>
      <trkpt lat="45.42248" lon="4.64543">
        <ele>631.84204</ele>
        <time>2021-07-19T10:24:38Z</time>
      </trkpt>
      <trkpt lat="45.4225" lon="4.64564">
        <ele>631.5514</ele>
        <time>2021-07-19T10:24:39Z</time>
      </trkpt>
      <trkpt lat="45.42253" lon="4.64585">
        <ele>629.8814</ele>
        <time>2021-07-19T10:24:40Z</time>
      </trkpt>
      <trkpt lat="45.42254" lon="4.64606">
        <ele>628.9619</ele>
        <time>2021-07-19T10:24:41Z</time>
      </trkpt>
      <trkpt lat="45.42255" lon="4.64627">
        <ele>627.9526</ele>
        <time>2021-07-19T10:24:42Z</time>
      </trkpt>
      <trkpt lat="45.42258" lon="4.64648">
        <ele>626.7054</ele>
        <time>2021-07-19T10:24:43Z</time>
      </trkpt>
      <trkpt lat="45.4226" lon="4.64667">
        <ele>625.9338</ele>
        <time>2021-07-19T10:24:44Z</time>
      </trkpt>
      <trkpt lat="45.42262" lon="4.64688">
        <ele>623.2968</ele>
        <time>2021-07-19T10:24:45Z</time>
      </trkpt>
      <trkpt lat="45.42263" lon="4.64709">
        <ele>621.3837</ele>
        <time>2021-07-19T10:24:46Z</time>
      </trkpt>
      <trkpt lat="45.42264" lon="4.6473">
        <ele>620.1101</ele>
        <time>2021-07-19T10:24:47Z</time>
      </trkpt>
      <trkpt lat="45.42265" lon="4.64751">
        <ele>619.55524</ele>
        <time>2021-07-19T10:24:48Z</time>
      </trkpt>
      <trkpt lat="45.42267" lon="4.64772">
        <ele>617.8219</ele>
        <time>2021-07-19T10:24:49Z</time>
      </trkpt>
      <trkpt lat="45.42268" lon="4.64793">
        <ele>617.08734</ele>
        <time>2021-07-19T10:24:50Z</time>
      </trkpt>
      <trkpt lat="45.4227" lon="4.64814">
        <ele>616.543</ele>
        <time>2021-07-19T10:24:51Z</time>
      </trkpt>
      <trkpt lat="45.42271" lon="4.64835">
        <ele>615.5548</ele>
        <time>2021-07-19T10:24:52Z</time>
      </trkpt>
      <trkpt lat="45.42273" lon="4.64857">
        <ele>614.9629</ele>
        <time>2021-07-19T10:24:53Z</time>
      </trkpt>
      <trkpt lat="45.42275" lon="4.64877">
        <ele>614.0804</ele>
        <time>2021-07-19T10:24:54Z</time>
      </trkpt>
      <trkpt lat="45.42276" lon="4.64897">
        <ele>612.98645</ele>
        <time>2021-07-19T10:24:55Z</time>
      </trkpt>
      <trkpt lat="45.42279" lon="4.64917">
        <ele>611.3059</ele>
        <time>2021-07-19T10:24:56Z</time>
      </trkpt>
      <trkpt lat="45.42279" lon="4.64937">
        <ele>609.20264</ele>
        <time>2021-07-19T10:24:57Z</time>
      </trkpt>
      <trkpt lat="45.4228" lon="4.64958">
        <ele>607.83923</ele>
        <time>2021-07-19T10:24:58Z</time>
      </trkpt>
      <trkpt lat="45.42282" lon="4.64977">
        <ele>606.5233</ele>
        <time>2021-07-19T10:24:59Z</time>
      </trkpt>
      <trkpt lat="45.42284" lon="4.64997">
        <ele>606.5815</ele>
        <time>2021-07-19T10:25:00Z</time>
      </trkpt>
      <trkpt lat="45.42286" lon="4.65016">
        <ele>604.6473</ele>
        <time>2021-07-19T10:25:01Z</time>
      </trkpt>
      <trkpt lat="45.42289" lon="4.65036">
        <ele>603.6326</ele>
        <time>2021-07-19T10:25:02Z</time>
      </trkpt>
      <trkpt lat="45.42292" lon="4.65056">
        <ele>602.97736</ele>
        <time>2021-07-19T10:25:03Z</time>
      </trkpt>
      <trkpt lat="45.42295" lon="4.65077">
        <ele>601.96796</ele>
        <time>2021-07-19T10:25:04Z</time>
      </trkpt>
      <trkpt lat="45.42298" lon="4.65098">
        <ele>601.06433</ele>
        <time>2021-07-19T10:25:05Z</time>
      </trkpt>
      <trkpt lat="45.42302" lon="4.65119">
        <ele>600.1131</ele>
        <time>2021-07-19T10:25:06Z</time>
      </trkpt>
      <trkpt lat="45.42305" lon="4.6514">
        <ele>599.25165</ele>
        <time>2021-07-19T10:25:07Z</time>
      </trkpt>
      <trkpt lat="45.42309" lon="4.6516">
        <ele>597.70856</ele>
        <time>2021-07-19T10:25:08Z</time>
      </trkpt>
      <trkpt lat="45.42313" lon="4.6518">
        <ele>596.29224</ele>
        <time>2021-07-19T10:25:09Z</time>
      </trkpt>
      <trkpt lat="45.42313" lon="4.6518">
        <ele>596.29224</ele>
        <time>2021-07-19T10:25:09Z</time>
      </trkpt>
      <trkpt lat="45.42321" lon="4.6522">
        <ele>593.6922</ele>
        <time>2021-07-19T10:25:11Z</time>
      </trkpt>
      <trkpt lat="45.42326" lon="4.6524">
        <ele>590.3735</ele>
        <time>2021-07-19T10:25:12Z</time>
      </trkpt>
      <trkpt lat="45.42331" lon="4.6526">
        <ele>590.00354</ele>
        <time>2021-07-19T10:25:13Z</time>
      </trkpt>
      <trkpt lat="45.42335" lon="4.65281">
        <ele>588.4499</ele>
        <time>2021-07-19T10:25:14Z</time>
      </trkpt>
      <trkpt lat="45.42339" lon="4.65302">
        <ele>588.4446</ele>
        <time>2021-07-19T10:25:15Z</time>
      </trkpt>
      <trkpt lat="45.42344" lon="4.65323">
        <ele>586.8856</ele>
        <time>2021-07-19T10:25:16Z</time>
      </trkpt>
      <trkpt lat="45.42349" lon="4.65343">
        <ele>586.02954</ele>
        <time>2021-07-19T10:25:17Z</time>
      </trkpt>
      <trkpt lat="45.42356" lon="4.65364">
        <ele>585.9555</ele>
        <time>2021-07-19T10:25:18Z</time>
      </trkpt>
      <trkpt lat="45.42363" lon="4.65383">
        <ele>584.12177</ele>
        <time>2021-07-19T10:25:19Z</time>
      </trkpt>
      <trkpt lat="45.42371" lon="4.65401">
        <ele>582.3197</ele>
        <time>2021-07-19T10:25:20Z</time>
      </trkpt>
      <trkpt lat="45.42376" lon="4.65421">
        <ele>580.9932</ele>
        <time>2021-07-19T10:25:21Z</time>
      </trkpt>
      <trkpt lat="45.42382" lon="4.6544">
        <ele>580.05786</ele>
        <time>2021-07-19T10:25:22Z</time>
      </trkpt>
      <trkpt lat="45.42385" lon="4.65461">
        <ele>579.24927</ele>
        <time>2021-07-19T10:25:23Z</time>
      </trkpt>
      <trkpt lat="45.42389" lon="4.6548">
        <ele>579.80945</ele>
        <time>2021-07-19T10:25:24Z</time>
      </trkpt>
      <trkpt lat="45.4239" lon="4.65501">
        <ele>577.86475</ele>
        <time>2021-07-19T10:25:25Z</time>
      </trkpt>
      <trkpt lat="45.42392" lon="4.65522">
        <ele>576.55945</ele>
        <time>2021-07-19T10:25:26Z</time>
      </trkpt>
      <trkpt lat="45.42393" lon="4.65543">
        <ele>575.1009</ele>
        <time>2021-07-19T10:25:27Z</time>
      </trkpt>
      <trkpt lat="45.42396" lon="4.65563">
        <ele>573.01874</ele>
        <time>2021-07-19T10:25:28Z</time>
      </trkpt>
      <trkpt lat="45.42398" lon="4.65583">
        <ele>571.724</ele>
        <time>2021-07-19T10:25:29Z</time>
      </trkpt>
      <trkpt lat="45.42401" lon="4.65601">
        <ele>569.84796</ele>
        <time>2021-07-19T10:25:30Z</time>
      </trkpt>
      <trkpt lat="45.42406" lon="4.65619">
        <ele>569.74225</ele>
        <time>2021-07-19T10:25:31Z</time>
      </trkpt>
      <trkpt lat="45.42411" lon="4.65636">
        <ele>567.9032</ele>
        <time>2021-07-19T10:25:32Z</time>
      </trkpt>
      <trkpt lat="45.42418" lon="4.65651">
        <ele>566.8304</ele>
        <time>2021-07-19T10:25:33Z</time>
      </trkpt>
      <trkpt lat="45.42424" lon="4.65667">
        <ele>566.5926</ele>
        <time>2021-07-19T10:25:34Z</time>
      </trkpt>
      <trkpt lat="45.42431" lon="4.65683">
        <ele>565.8527</ele>
        <time>2021-07-19T10:25:35Z</time>
      </trkpt>
      <trkpt lat="45.42437" lon="4.65699">
        <ele>564.8117</ele>
        <time>2021-07-19T10:25:36Z</time>
      </trkpt>
      <trkpt lat="45.42442" lon="4.65715">
        <ele>563.30554</ele>
        <time>2021-07-19T10:25:37Z</time>
      </trkpt>
      <trkpt lat="45.42447" lon="4.65731">
        <ele>563.00964</ele>
        <time>2021-07-19T10:25:38Z</time>
      </trkpt>
      <trkpt lat="45.42447" lon="4.65749">
        <ele>561.69904</ele>
        <time>2021-07-19T10:25:39Z</time>
      </trkpt>
      <trkpt lat="45.42449" lon="4.65764">
        <ele>560.85876</ele>
        <time>2021-07-19T10:25:40Z</time>
      </trkpt>
      <trkpt lat="45.42453" lon="4.65778">
        <ele>560.03436</ele>
        <time>2021-07-19T10:25:41Z</time>
      </trkpt>
      <trkpt lat="45.42459" lon="4.6579">
        <ele>559.2311</ele>
        <time>2021-07-19T10:25:42Z</time>
      </trkpt>
      <trkpt lat="45.42466" lon="4.65801">
        <ele>558.60223</ele>
        <time>2021-07-19T10:25:43Z</time>
      </trkpt>
      <trkpt lat="45.42474" lon="4.65812">
        <ele>558.03674</ele>
        <time>2021-07-19T10:25:44Z</time>
      </trkpt>
      <trkpt lat="45.42482" lon="4.65823">
        <ele>557.0433</ele>
        <time>2021-07-19T10:25:45Z</time>
      </trkpt>
      <trkpt lat="45.42491" lon="4.65835">
        <ele>555.981</ele>
        <time>2021-07-19T10:25:46Z</time>
      </trkpt>
      <trkpt lat="45.425" lon="4.65847">
        <ele>555.23065</ele>
        <time>2021-07-19T10:25:47Z</time>
      </trkpt>
      <trkpt lat="45.42509" lon="4.65858">
        <ele>554.9188</ele>
        <time>2021-07-19T10:25:48Z</time>
      </trkpt>
      <trkpt lat="45.42518" lon="4.65869">
        <ele>553.97815</ele>
        <time>2021-07-19T10:25:49Z</time>
      </trkpt>
      <trkpt lat="45.42526" lon="4.65879">
        <ele>552.49316</ele>
        <time>2021-07-19T10:25:50Z</time>
      </trkpt>
      <trkpt lat="45.42536" lon="4.65889">
        <ele>552.8261</ele>
        <time>2021-07-19T10:25:51Z</time>
      </trkpt>
      <trkpt lat="45.42546" lon="4.65898">
        <ele>551.30945</ele>
        <time>2021-07-19T10:25:52Z</time>
      </trkpt>
      <trkpt lat="45.42556" lon="4.65908">
        <ele>551.0135</ele>
        <time>2021-07-19T10:25:53Z</time>
      </trkpt>
      <trkpt lat="45.42566" lon="4.65917">
        <ele>549.909</ele>
        <time>2021-07-19T10:25:54Z</time>
      </trkpt>
      <trkpt lat="45.42575" lon="4.65928">
        <ele>548.20734</ele>
        <time>2021-07-19T10:25:55Z</time>
      </trkpt>
      <trkpt lat="45.42584" lon="4.65937">
        <ele>546.8703</ele>
        <time>2021-07-19T10:25:56Z</time>
      </trkpt>
      <trkpt lat="45.42595" lon="4.65945">
        <ele>545.7817</ele>
        <time>2021-07-19T10:25:57Z</time>
      </trkpt>
      <trkpt lat="45.42606" lon="4.65951">
        <ele>545.13696</ele>
        <time>2021-07-19T10:25:58Z</time>
      </trkpt>
      <trkpt lat="45.42618" lon="4.65954">
        <ele>544.2756</ele>
        <time>2021-07-19T10:25:59Z</time>
      </trkpt>
      <trkpt lat="45.4263" lon="4.65954">
        <ele>543.72595</ele>
        <time>2021-07-19T10:26:00Z</time>
      </trkpt>
      <trkpt lat="45.42642" lon="4.65959">
        <ele>541.97144</ele>
        <time>2021-07-19T10:26:01Z</time>
      </trkpt>
      <trkpt lat="45.42654" lon="4.65965">
        <ele>540.73486</ele>
        <time>2021-07-19T10:26:02Z</time>
      </trkpt>
      <trkpt lat="45.42666" lon="4.65971">
        <ele>541.3479</ele>
        <time>2021-07-19T10:26:03Z</time>
      </trkpt>
      <trkpt lat="45.42678" lon="4.65977">
        <ele>540.3385</ele>
        <time>2021-07-19T10:26:04Z</time>
      </trkpt>
      <trkpt lat="45.4269" lon="4.65982">
        <ele>539.9739</ele>
        <time>2021-07-19T10:26:05Z</time>
      </trkpt>
      <trkpt lat="45.42702" lon="4.65987">
        <ele>537.49536</ele>
        <time>2021-07-19T10:26:06Z</time>
      </trkpt>
      <trkpt lat="45.42713" lon="4.65993">
        <ele>537.358</ele>
        <time>2021-07-19T10:26:07Z</time>
      </trkpt>
      <trkpt lat="45.42724" lon="4.66">
        <ele>535.78314</ele>
        <time>2021-07-19T10:26:08Z</time>
      </trkpt>
      <trkpt lat="45.42734" lon="4.66006">
        <ele>534.58887</ele>
        <time>2021-07-19T10:26:09Z</time>
      </trkpt>
      <trkpt lat="45.42745" lon="4.6601">
        <ele>533.75385</ele>
        <time>2021-07-19T10:26:10Z</time>
      </trkpt>
      <trkpt lat="45.42756" lon="4.66012">
        <ele>533.0985</ele>
        <time>2021-07-19T10:26:11Z</time>
      </trkpt>
      <trkpt lat="45.42767" lon="4.66008">
        <ele>532.7973</ele>
        <time>2021-07-19T10:26:12Z</time>
      </trkpt>
      <trkpt lat="45.42778" lon="4.66005">
        <ele>531.4075</ele>
        <time>2021-07-19T10:26:13Z</time>
      </trkpt>
      <trkpt lat="45.42788" lon="4.66002">
        <ele>530.6253</ele>
        <time>2021-07-19T10:26:14Z</time>
      </trkpt>
      <trkpt lat="45.428" lon="4.66">
        <ele>530.6888</ele>
        <time>2021-07-19T10:26:15Z</time>
      </trkpt>
      <trkpt lat="45.42809" lon="4.65994">
        <ele>529.2408</ele>
        <time>2021-07-19T10:26:16Z</time>
      </trkpt>
      <trkpt lat="45.42817" lon="4.65986">
        <ele>527.6501</ele>
        <time>2021-07-19T10:26:17Z</time>
      </trkpt>
      <trkpt lat="45.42822" lon="4.65977">
        <ele>527.0159</ele>
        <time>2021-07-19T10:26:18Z</time>
      </trkpt>
      <trkpt lat="45.42825" lon="4.65967">
        <ele>526.79926</ele>
        <time>2021-07-19T10:26:19Z</time>
      </trkpt>
      <trkpt lat="45.42828" lon="4.65956">
        <ele>526.21796</ele>
        <time>2021-07-19T10:26:20Z</time>
      </trkpt>
      <trkpt lat="45.42833" lon="4.65947">
        <ele>525.83746</ele>
        <time>2021-07-19T10:26:21Z</time>
      </trkpt>
      <trkpt lat="45.42839" lon="4.6594">
        <ele>525.19275</ele>
        <time>2021-07-19T10:26:22Z</time>
      </trkpt>
      <trkpt lat="45.42844" lon="4.65935">
        <ele>524.60614</ele>
        <time>2021-07-19T10:26:23Z</time>
      </trkpt>
      <trkpt lat="45.42849" lon="4.65934">
        <ele>524.51105</ele>
        <time>2021-07-19T10:26:24Z</time>
      </trkpt>
      <trkpt lat="45.42852" lon="4.65937">
        <ele>523.7712</ele>
        <time>2021-07-19T10:26:25Z</time>
      </trkpt>
      <trkpt lat="45.42853" lon="4.65943">
        <ele>523.9561</ele>
        <time>2021-07-19T10:26:26Z</time>
      </trkpt>
      <trkpt lat="45.42851" lon="4.6595">
        <ele>523.0049</ele>
        <time>2021-07-19T10:26:27Z</time>
      </trkpt>
      <trkpt lat="45.42849" lon="4.65958">
        <ele>522.1805</ele>
        <time>2021-07-19T10:26:28Z</time>
      </trkpt>
      <trkpt lat="45.42845" lon="4.65964">
        <ele>521.67316</ele>
        <time>2021-07-19T10:26:29Z</time>
      </trkpt>
      <trkpt lat="45.42841" lon="4.65971">
        <ele>521.4618</ele>
        <time>2021-07-19T10:26:30Z</time>
      </trkpt>
      <trkpt lat="45.42837" lon="4.65979">
        <ele>520.98083</ele>
        <time>2021-07-19T10:26:31Z</time>
      </trkpt>
      <trkpt lat="45.42833" lon="4.65988">
        <ele>520.7801</ele>
        <time>2021-07-19T10:26:32Z</time>
      </trkpt>
      <trkpt lat="45.42828" lon="4.65996">
        <ele>520.00854</ele>
        <time>2021-07-19T10:26:33Z</time>
      </trkpt>
      <trkpt lat="45.42823" lon="4.66006">
        <ele>519.81824</ele>
        <time>2021-07-19T10:26:34Z</time>
      </trkpt>
      <trkpt lat="45.42818" lon="4.66016">
        <ele>519.8341</ele>
        <time>2021-07-19T10:26:35Z</time>
      </trkpt>
      <trkpt lat="45.42813" lon="4.66026">
        <ele>519.9081</ele>
        <time>2021-07-19T10:26:36Z</time>
      </trkpt>
      <trkpt lat="45.42809" lon="4.66037">
        <ele>519.2898</ele>
        <time>2021-07-19T10:26:37Z</time>
      </trkpt>
      <trkpt lat="45.42805" lon="4.66049">
        <ele>518.7402</ele>
        <time>2021-07-19T10:26:38Z</time>
      </trkpt>
      <trkpt lat="45.42802" lon="4.66062">
        <ele>518.05316</ele>
        <time>2021-07-19T10:26:39Z</time>
      </trkpt>
      <trkpt lat="45.428" lon="4.66075">
        <ele>518.2064</ele>
        <time>2021-07-19T10:26:40Z</time>
      </trkpt>
      <trkpt lat="45.42799" lon="4.66088">
        <ele>517.1019</ele>
        <time>2021-07-19T10:26:41Z</time>
      </trkpt>
      <trkpt lat="45.42797" lon="4.66101">
        <ele>516.5999</ele>
        <time>2021-07-19T10:26:42Z</time>
      </trkpt>
      <trkpt lat="45.42794" lon="4.66114">
        <ele>516.1719</ele>
        <time>2021-07-19T10:26:43Z</time>
      </trkpt>
      <trkpt lat="45.42788" lon="4.66124">
        <ele>516.20886</ele>
        <time>2021-07-19T10:26:44Z</time>
      </trkpt>
      <trkpt lat="45.42781" lon="4.66131">
        <ele>516.24585</ele>
        <time>2021-07-19T10:26:45Z</time>
      </trkpt>
      <trkpt lat="45.42771" lon="4.66136">
        <ele>516.341</ele>
        <time>2021-07-19T10:26:46Z</time>
      </trkpt>
      <trkpt lat="45.42761" lon="4.66131">
        <ele>515.6698</ele>
        <time>2021-07-19T10:26:47Z</time>
      </trkpt>
      <trkpt lat="45.42752" lon="4.66123">
        <ele>515.05676</ele>
        <time>2021-07-19T10:26:48Z</time>
      </trkpt>
      <trkpt lat="45.42744" lon="4.66113">
        <ele>514.76086</ele>
        <time>2021-07-19T10:26:49Z</time>
      </trkpt>
      <trkpt lat="45.42736" lon="4.66103">
        <ele>514.63934</ele>
        <time>2021-07-19T10:26:50Z</time>
      </trkpt>
      <trkpt lat="45.42728" lon="4.66093">
        <ele>514.31696</ele>
        <time>2021-07-19T10:26:51Z</time>
      </trkpt>
      <trkpt lat="45.42718" lon="4.66085">
        <ele>514.22186</ele>
        <time>2021-07-19T10:26:52Z</time>
      </trkpt>
      <trkpt lat="45.42708" lon="4.66078">
        <ele>514.13196</ele>
        <time>2021-07-19T10:26:53Z</time>
      </trkpt>
      <trkpt lat="45.42698" lon="4.66072">
        <ele>513.5401</ele>
        <time>2021-07-19T10:26:54Z</time>
      </trkpt>
      <trkpt lat="45.42687" lon="4.66067">
        <ele>512.92706</ele>
        <time>2021-07-19T10:26:55Z</time>
      </trkpt>
      <trkpt lat="45.42677" lon="4.66062">
        <ele>512.46204</ele>
        <time>2021-07-19T10:26:56Z</time>
      </trkpt>
      <trkpt lat="45.42667" lon="4.66056">
        <ele>511.94943</ele>
        <time>2021-07-19T10:26:57Z</time>
      </trkpt>
      <trkpt lat="45.42656" lon="4.66051">
        <ele>511.7539</ele>
        <time>2021-07-19T10:26:58Z</time>
      </trkpt>
      <trkpt lat="45.42645" lon="4.66046">
        <ele>511.273</ele>
        <time>2021-07-19T10:26:59Z</time>
      </trkpt>
      <trkpt lat="45.42635" lon="4.66042">
        <ele>511.09332</ele>
        <time>2021-07-19T10:27:00Z</time>
      </trkpt>
      <trkpt lat="45.42624" lon="4.66039">
        <ele>510.6758</ele>
        <time>2021-07-19T10:27:01Z</time>
      </trkpt>
      <trkpt lat="45.42613" lon="4.66035">
        <ele>510.05222</ele>
        <time>2021-07-19T10:27:02Z</time>
      </trkpt>
      <trkpt lat="45.42602" lon="4.66032">
        <ele>509.97296</ele>
        <time>2021-07-19T10:27:03Z</time>
      </trkpt>
      <trkpt lat="45.42591" lon="4.66031">
        <ele>509.2067</ele>
        <time>2021-07-19T10:27:04Z</time>
      </trkpt>
      <trkpt lat="45.4258" lon="4.66031">
        <ele>508.08636</ele>
        <time>2021-07-19T10:27:05Z</time>
      </trkpt>
      <trkpt lat="45.4257" lon="4.66031">
        <ele>507.1087</ele>
        <time>2021-07-19T10:27:06Z</time>
      </trkpt>
      <trkpt lat="45.42561" lon="4.66031">
        <ele>506.16275</ele>
        <time>2021-07-19T10:27:07Z</time>
      </trkpt>
      <trkpt lat="45.42552" lon="4.66031">
        <ele>505.703</ele>
        <time>2021-07-19T10:27:08Z</time>
      </trkpt>
      <trkpt lat="45.42543" lon="4.66028">
        <ele>505.30664</ele>
        <time>2021-07-19T10:27:09Z</time>
      </trkpt>
      <trkpt lat="45.42534" lon="4.66027">
        <ele>505.29608</ele>
        <time>2021-07-19T10:27:10Z</time>
      </trkpt>
      <trkpt lat="45.42525" lon="4.66027">
        <ele>504.7359</ele>
        <time>2021-07-19T10:27:11Z</time>
      </trkpt>
      <trkpt lat="45.42515" lon="4.66027">
        <ele>504.19684</ele>
        <time>2021-07-19T10:27:12Z</time>
      </trkpt>
      <trkpt lat="45.42506" lon="4.66031">
        <ele>503.86395</ele>
        <time>2021-07-19T10:27:13Z</time>
      </trkpt>
      <trkpt lat="45.42497" lon="4.66035">
        <ele>503.5099</ele>
        <time>2021-07-19T10:27:14Z</time>
      </trkpt>
      <trkpt lat="45.42487" lon="4.6604">
        <ele>503.9432</ele>
        <time>2021-07-19T10:27:15Z</time>
      </trkpt>
      <trkpt lat="45.42478" lon="4.66046">
        <ele>503.9802</ele>
        <time>2021-07-19T10:27:16Z</time>
      </trkpt>
      <trkpt lat="45.42469" lon="4.66052">
        <ele>504.54565</ele>
        <time>2021-07-19T10:27:17Z</time>
      </trkpt>
      <trkpt lat="45.4246" lon="4.66058">
        <ele>504.5615</ele>
        <time>2021-07-19T10:27:18Z</time>
      </trkpt>
      <trkpt lat="45.42452" lon="4.66064">
        <ele>504.34482</ele>
        <time>2021-07-19T10:27:19Z</time>
      </trkpt>
      <trkpt lat="45.42444" lon="4.6607">
        <ele>504.14404</ele>
        <time>2021-07-19T10:27:20Z</time>
      </trkpt>
      <trkpt lat="45.42437" lon="4.66075">
        <ele>503.71066</ele>
        <time>2021-07-19T10:27:21Z</time>
      </trkpt>
      <trkpt lat="45.42431" lon="4.66084">
        <ele>503.64197</ele>
        <time>2021-07-19T10:27:22Z</time>
      </trkpt>
      <trkpt lat="45.42426" lon="4.66094">
        <ele>503.47815</ele>
        <time>2021-07-19T10:27:23Z</time>
      </trkpt>
      <trkpt lat="45.42421" lon="4.66103">
        <ele>503.44116</ele>
        <time>2021-07-19T10:27:24Z</time>
      </trkpt>
      <trkpt lat="45.42418" lon="4.66114">
        <ele>503.15048</ele>
        <time>2021-07-19T10:27:25Z</time>
      </trkpt>
      <trkpt lat="45.42415" lon="4.66125">
        <ele>503.0501</ele>
        <time>2021-07-19T10:27:26Z</time>
      </trkpt>
      <trkpt lat="45.42412" lon="4.66135">
        <ele>502.89685</ele>
        <time>2021-07-19T10:27:27Z</time>
      </trkpt>
      <trkpt lat="45.42409" lon="4.66145">
        <ele>502.92325</ele>
        <time>2021-07-19T10:27:28Z</time>
      </trkpt>
      <trkpt lat="45.42407" lon="4.66156">
        <ele>502.62732</ele>
        <time>2021-07-19T10:27:29Z</time>
      </trkpt>
      <trkpt lat="45.42403" lon="4.66166">
        <ele>502.55862</ele>
        <time>2021-07-19T10:27:30Z</time>
      </trkpt>
      <trkpt lat="45.42399" lon="4.66176">
        <ele>502.4741</ele>
        <time>2021-07-19T10:27:31Z</time>
      </trkpt>
      <trkpt lat="45.42394" lon="4.66184">
        <ele>502.37366</ele>
        <time>2021-07-19T10:27:32Z</time>
      </trkpt>
      <trkpt lat="45.42389" lon="4.66191">
        <ele>502.52695</ele>
        <time>2021-07-19T10:27:33Z</time>
      </trkpt>
      <trkpt lat="45.42382" lon="4.66197">
        <ele>502.57446</ele>
        <time>2021-07-19T10:27:34Z</time>
      </trkpt>
      <trkpt lat="45.42375" lon="4.66202">
        <ele>502.71716</ele>
        <time>2021-07-19T10:27:35Z</time>
      </trkpt>
      <trkpt lat="45.42367" lon="4.66205">
        <ele>502.71716</ele>
        <time>2021-07-19T10:27:36Z</time>
      </trkpt>
      <trkpt lat="45.4236" lon="4.66208">
        <ele>502.56918</ele>
        <time>2021-07-19T10:27:37Z</time>
      </trkpt>
      <trkpt lat="45.42352" lon="4.66212">
        <ele>502.66434</ele>
        <time>2021-07-19T10:27:38Z</time>
      </trkpt>
      <trkpt lat="45.42345" lon="4.66213">
        <ele>502.82288</ele>
        <time>2021-07-19T10:27:39Z</time>
      </trkpt>
      <trkpt lat="45.42337" lon="4.66212">
        <ele>502.51105</ele>
        <time>2021-07-19T10:27:40Z</time>
      </trkpt>
      <trkpt lat="45.42329" lon="4.66209">
        <ele>502.194</ele>
        <time>2021-07-19T10:27:41Z</time>
      </trkpt>
      <trkpt lat="45.42321" lon="4.66207">
        <ele>501.7712</ele>
        <time>2021-07-19T10:27:42Z</time>
      </trkpt>
      <trkpt lat="45.42313" lon="4.66207">
        <ele>501.60208</ele>
        <time>2021-07-19T10:27:43Z</time>
      </trkpt>
      <trkpt lat="45.42305" lon="4.66207">
        <ele>501.23746</ele>
        <time>2021-07-19T10:27:44Z</time>
      </trkpt>
      <trkpt lat="45.42297" lon="4.66208">
        <ele>500.94153</ele>
        <time>2021-07-19T10:27:45Z</time>
      </trkpt>
      <trkpt lat="45.42289" lon="4.66208">
        <ele>501.04724</ele>
        <time>2021-07-19T10:27:46Z</time>
      </trkpt>
      <trkpt lat="45.4228" lon="4.6621">
        <ele>500.46588</ele>
        <time>2021-07-19T10:27:47Z</time>
      </trkpt>
      <trkpt lat="45.42272" lon="4.66214">
        <ele>500.1911</ele>
        <time>2021-07-19T10:27:48Z</time>
      </trkpt>
      <trkpt lat="45.42263" lon="4.66218">
        <ele>500.08542</ele>
        <time>2021-07-19T10:27:49Z</time>
      </trkpt>
      <trkpt lat="45.42255" lon="4.66223">
        <ele>499.9533</ele>
        <time>2021-07-19T10:27:50Z</time>
      </trkpt>
      <trkpt lat="45.42246" lon="4.66227">
        <ele>499.87402</ele>
        <time>2021-07-19T10:27:51Z</time>
      </trkpt>
      <trkpt lat="45.42238" lon="4.66233">
        <ele>499.79477</ele>
        <time>2021-07-19T10:27:52Z</time>
      </trkpt>
      <trkpt lat="45.42228" lon="4.66239">
        <ele>499.4407</ele>
        <time>2021-07-19T10:27:53Z</time>
      </trkpt>
      <trkpt lat="45.42219" lon="4.66244">
        <ele>498.9228</ele>
        <time>2021-07-19T10:27:54Z</time>
      </trkpt>
      <trkpt lat="45.4221" lon="4.66249">
        <ele>498.35205</ele>
        <time>2021-07-19T10:27:55Z</time>
      </trkpt>
      <trkpt lat="45.42202" lon="4.66258">
        <ele>498.08255</ele>
        <time>2021-07-19T10:27:56Z</time>
      </trkpt>
      <trkpt lat="45.42193" lon="4.66266">
        <ele>497.6175</ele>
        <time>2021-07-19T10:27:57Z</time>
      </trkpt>
      <trkpt lat="45.42183" lon="4.66274">
        <ele>496.81424</ele>
        <time>2021-07-19T10:27:58Z</time>
      </trkpt>
      <trkpt lat="45.42173" lon="4.66281">
        <ele>496.24347</ele>
        <time>2021-07-19T10:27:59Z</time>
      </trkpt>
      <trkpt lat="45.42164" lon="4.66288">
        <ele>495.40323</ele>
        <time>2021-07-19T10:28:00Z</time>
      </trkpt>
      <trkpt lat="45.42154" lon="4.66297">
        <ele>494.57883</ele>
        <time>2021-07-19T10:28:01Z</time>
      </trkpt>
      <trkpt lat="45.42143" lon="4.66303">
        <ele>493.73328</ele>
        <time>2021-07-19T10:28:02Z</time>
      </trkpt>
      <trkpt lat="45.42132" lon="4.66307">
        <ele>493.17313</ele>
        <time>2021-07-19T10:28:03Z</time>
      </trkpt>
      <trkpt lat="45.42121" lon="4.6631">
        <ele>492.8666</ele>
        <time>2021-07-19T10:28:04Z</time>
      </trkpt>
      <trkpt lat="45.4211" lon="4.66311">
        <ele>492.61823</ele>
        <time>2021-07-19T10:28:05Z</time>
      </trkpt>
      <trkpt lat="45.42098" lon="4.66311">
        <ele>491.91537</ele>
        <time>2021-07-19T10:28:06Z</time>
      </trkpt>
      <trkpt lat="45.42086" lon="4.66311">
        <ele>491.67758</ele>
        <time>2021-07-19T10:28:07Z</time>
      </trkpt>
      <trkpt lat="45.42075" lon="4.66311">
        <ele>491.34464</ele>
        <time>2021-07-19T10:28:08Z</time>
      </trkpt>
      <trkpt lat="45.42064" lon="4.6631">
        <ele>490.67874</ele>
        <time>2021-07-19T10:28:09Z</time>
      </trkpt>
      <trkpt lat="45.42054" lon="4.66312">
        <ele>490.4304</ele>
        <time>2021-07-19T10:28:10Z</time>
      </trkpt>
      <trkpt lat="45.42043" lon="4.66317">
        <ele>490.37225</ele>
        <time>2021-07-19T10:28:11Z</time>
      </trkpt>
      <trkpt lat="45.42034" lon="4.66324">
        <ele>489.8438</ele>
        <time>2021-07-19T10:28:12Z</time>
      </trkpt>
      <trkpt lat="45.42026" lon="4.66334">
        <ele>488.61246</ele>
        <time>2021-07-19T10:28:13Z</time>
      </trkpt>
      <trkpt lat="45.42018" lon="4.66345">
        <ele>488.13684</ele>
        <time>2021-07-19T10:28:14Z</time>
      </trkpt>
      <trkpt lat="45.42011" lon="4.66358">
        <ele>487.20676</ele>
        <time>2021-07-19T10:28:15Z</time>
      </trkpt>
      <trkpt lat="45.42004" lon="4.66371">
        <ele>486.48276</ele>
        <time>2021-07-19T10:28:16Z</time>
      </trkpt>
      <trkpt lat="45.41998" lon="4.66384">
        <ele>485.93314</ele>
        <time>2021-07-19T10:28:17Z</time>
      </trkpt>
      <trkpt lat="45.41992" lon="4.66398">
        <ele>485.06647</ele>
        <time>2021-07-19T10:28:18Z</time>
      </trkpt>
      <trkpt lat="45.41985" lon="4.66411">
        <ele>484.04123</ele>
        <time>2021-07-19T10:28:19Z</time>
      </trkpt>
      <trkpt lat="45.41979" lon="4.66424">
        <ele>483.82986</ele>
        <time>2021-07-19T10:28:20Z</time>
      </trkpt>
      <trkpt lat="45.41973" lon="4.66438">
        <ele>483.4388</ele>
        <time>2021-07-19T10:28:21Z</time>
      </trkpt>
      <trkpt lat="45.41967" lon="4.66452">
        <ele>482.79938</ele>
        <time>2021-07-19T10:28:22Z</time>
      </trkpt>
      <trkpt lat="45.4196" lon="4.66465">
        <ele>481.827</ele>
        <time>2021-07-19T10:28:23Z</time>
      </trkpt>
      <trkpt lat="45.41954" lon="4.66479">
        <ele>481.2034</ele>
        <time>2021-07-19T10:28:24Z</time>
      </trkpt>
      <trkpt lat="45.41947" lon="4.66493">
        <ele>480.59564</ele>
        <time>2021-07-19T10:28:25Z</time>
      </trkpt>
      <trkpt lat="45.4194" lon="4.66506">
        <ele>480.4847</ele>
        <time>2021-07-19T10:28:26Z</time>
      </trkpt>
      <trkpt lat="45.41932" lon="4.66519">
        <ele>480.3473</ele>
        <time>2021-07-19T10:28:27Z</time>
      </trkpt>
      <trkpt lat="45.41924" lon="4.66531">
        <ele>480.1359</ele>
        <time>2021-07-19T10:28:28Z</time>
      </trkpt>
      <trkpt lat="45.41915" lon="4.66542">
        <ele>479.7554</ele>
        <time>2021-07-19T10:28:29Z</time>
      </trkpt>
      <trkpt lat="45.41906" lon="4.66552">
        <ele>479.01556</ele>
        <time>2021-07-19T10:28:30Z</time>
      </trkpt>
      <trkpt lat="45.41897" lon="4.66563">
        <ele>479.06314</ele>
        <time>2021-07-19T10:28:31Z</time>
      </trkpt>
      <trkpt lat="45.41887" lon="4.66572">
        <ele>478.94687</ele>
        <time>2021-07-19T10:28:32Z</time>
      </trkpt>
      <trkpt lat="45.41877" lon="4.66581">
        <ele>478.4501</ele>
        <time>2021-07-19T10:28:33Z</time>
      </trkpt>
      <trkpt lat="45.41867" lon="4.66589">
        <ele>477.29807</ele>
        <time>2021-07-19T10:28:34Z</time>
      </trkpt>
      <trkpt lat="45.41857" lon="4.66598">
        <ele>476.13016</ele>
        <time>2021-07-19T10:28:35Z</time>
      </trkpt>
      <trkpt lat="45.41848" lon="4.66608">
        <ele>476.89642</ele>
        <time>2021-07-19T10:28:36Z</time>
      </trkpt>
      <trkpt lat="45.41841" lon="4.66619">
        <ele>476.19357</ele>
        <time>2021-07-19T10:28:37Z</time>
      </trkpt>
      <trkpt lat="45.41834" lon="4.66631">
        <ele>475.56998</ele>
        <time>2021-07-19T10:28:38Z</time>
      </trkpt>
      <trkpt lat="45.41827" lon="4.66643">
        <ele>475.33746</ele>
        <time>2021-07-19T10:28:39Z</time>
      </trkpt>
      <trkpt lat="45.41821" lon="4.66657">
        <ele>475.12607</ele>
        <time>2021-07-19T10:28:40Z</time>
      </trkpt>
      <trkpt lat="45.41817" lon="4.66671">
        <ele>474.81955</ele>
        <time>2021-07-19T10:28:41Z</time>
      </trkpt>
      <trkpt lat="45.41813" lon="4.66685">
        <ele>474.24353</ele>
        <time>2021-07-19T10:28:42Z</time>
      </trkpt>
      <trkpt lat="45.41811" lon="4.667">
        <ele>474.0533</ele>
        <time>2021-07-19T10:28:43Z</time>
      </trkpt>
      <trkpt lat="45.41808" lon="4.66715">
        <ele>474.0374</ele>
        <time>2021-07-19T10:28:44Z</time>
      </trkpt>
      <trkpt lat="45.41806" lon="4.6673">
        <ele>473.86304</ele>
        <time>2021-07-19T10:28:45Z</time>
      </trkpt>
      <trkpt lat="45.41805" lon="4.66745">
        <ele>473.65695</ele>
        <time>2021-07-19T10:28:46Z</time>
      </trkpt>
      <trkpt lat="45.41804" lon="4.6676">
        <ele>473.0439</ele>
        <time>2021-07-19T10:28:47Z</time>
      </trkpt>
      <trkpt lat="45.41802" lon="4.66775">
        <ele>473.23944</ele>
        <time>2021-07-19T10:28:48Z</time>
      </trkpt>
      <trkpt lat="45.41802" lon="4.6679">
        <ele>472.5049</ele>
        <time>2021-07-19T10:28:49Z</time>
      </trkpt>
      <trkpt lat="45.41801" lon="4.66804">
        <ele>471.9817</ele>
        <time>2021-07-19T10:28:50Z</time>
      </trkpt>
      <trkpt lat="45.418" lon="4.66819">
        <ele>472.17197</ele>
        <time>2021-07-19T10:28:51Z</time>
      </trkpt>
      <trkpt lat="45.41799" lon="4.66833">
        <ele>471.96585</ele>
        <time>2021-07-19T10:28:52Z</time>
      </trkpt>
      <trkpt lat="45.41798" lon="4.66847">
        <ele>471.42154</ele>
        <time>2021-07-19T10:28:53Z</time>
      </trkpt>
      <trkpt lat="45.41798" lon="4.66861">
        <ele>470.8508</ele>
        <time>2021-07-19T10:28:54Z</time>
      </trkpt>
      <trkpt lat="45.418" lon="4.66875">
        <ele>470.41217</ele>
        <time>2021-07-19T10:28:55Z</time>
      </trkpt>
      <trkpt lat="45.418" lon="4.66889">
        <ele>470.30646</ele>
        <time>2021-07-19T10:28:56Z</time>
      </trkpt>
      <trkpt lat="45.418" lon="4.66903">
        <ele>470.21664</ele>
        <time>2021-07-19T10:28:57Z</time>
      </trkpt>
      <trkpt lat="45.418" lon="4.66917">
        <ele>470.2959</ele>
        <time>2021-07-19T10:28:58Z</time>
      </trkpt>
      <trkpt lat="45.41799" lon="4.6693">
        <ele>470.16907</ele>
        <time>2021-07-19T10:28:59Z</time>
      </trkpt>
      <trkpt lat="45.41798" lon="4.66942">
        <ele>469.4662</ele>
        <time>2021-07-19T10:29:00Z</time>
      </trkpt>
      <trkpt lat="45.41798" lon="4.66954">
        <ele>468.91135</ele>
        <time>2021-07-19T10:29:01Z</time>
      </trkpt>
      <trkpt lat="45.41798" lon="4.66965">
        <ele>468.62598</ele>
        <time>2021-07-19T10:29:02Z</time>
      </trkpt>
      <trkpt lat="45.41798" lon="4.66975">
        <ele>467.87555</ele>
        <time>2021-07-19T10:29:03Z</time>
      </trkpt>
      <trkpt lat="45.41797" lon="4.66984">
        <ele>466.8979</ele>
        <time>2021-07-19T10:29:04Z</time>
      </trkpt>
      <trkpt lat="45.41798" lon="4.66993">
        <ele>466.20032</ele>
        <time>2021-07-19T10:29:05Z</time>
      </trkpt>
      <trkpt lat="45.41797" lon="4.67003">
        <ele>466.09464</ele>
        <time>2021-07-19T10:29:06Z</time>
      </trkpt>
      <trkpt lat="45.41795" lon="4.67011">
        <ele>465.9942</ele>
        <time>2021-07-19T10:29:07Z</time>
      </trkpt>
      <trkpt lat="45.41792" lon="4.67021">
        <ele>465.4816</ele>
        <time>2021-07-19T10:29:08Z</time>
      </trkpt>
      <trkpt lat="45.4179" lon="4.6703">
        <ele>464.99014</ele>
        <time>2021-07-19T10:29:09Z</time>
      </trkpt>
      <trkpt lat="45.41789" lon="4.67039">
        <ele>464.7629</ele>
        <time>2021-07-19T10:29:10Z</time>
      </trkpt>
      <trkpt lat="45.41787" lon="4.6705">
        <ele>464.54095</ele>
        <time>2021-07-19T10:29:11Z</time>
      </trkpt>
      <trkpt lat="45.41788" lon="4.6706">
        <ele>464.20273</ele>
        <time>2021-07-19T10:29:12Z</time>
      </trkpt>
      <trkpt lat="45.41788" lon="4.6707">
        <ele>463.36774</ele>
        <time>2021-07-19T10:29:13Z</time>
      </trkpt>
      <trkpt lat="45.41788" lon="4.6708">
        <ele>462.84454</ele>
        <time>2021-07-19T10:29:14Z</time>
      </trkpt>
      <trkpt lat="45.41789" lon="4.6709">
        <ele>462.75473</ele>
        <time>2021-07-19T10:29:15Z</time>
      </trkpt>
      <trkpt lat="45.4179" lon="4.67098">
        <ele>462.29498</ele>
        <time>2021-07-19T10:29:16Z</time>
      </trkpt>
      <trkpt lat="45.41791" lon="4.67106">
        <ele>461.349</ele>
        <time>2021-07-19T10:29:17Z</time>
      </trkpt>
      <trkpt lat="45.41789" lon="4.67114">
        <ele>460.5352</ele>
        <time>2021-07-19T10:29:18Z</time>
      </trkpt>
      <trkpt lat="45.41787" lon="4.67121">
        <ele>460.19168</ele>
        <time>2021-07-19T10:29:19Z</time>
      </trkpt>
      <trkpt lat="45.41782" lon="4.67126">
        <ele>459.3514</ele>
        <time>2021-07-19T10:29:20Z</time>
      </trkpt>
      <trkpt lat="45.41775" lon="4.67131">
        <ele>458.94977</ele>
        <time>2021-07-19T10:29:21Z</time>
      </trkpt>
      <trkpt lat="45.41768" lon="4.67137">
        <ele>458.3843</ele>
        <time>2021-07-19T10:29:22Z</time>
      </trkpt>
      <trkpt lat="45.41761" lon="4.67142">
        <ele>458.44775</ele>
        <time>2021-07-19T10:29:23Z</time>
      </trkpt>
      <trkpt lat="45.41752" lon="4.67144">
        <ele>457.95627</ele>
        <time>2021-07-19T10:29:24Z</time>
      </trkpt>
      <trkpt lat="45.41744" lon="4.67144">
        <ele>457.54407</ele>
        <time>2021-07-19T10:29:25Z</time>
      </trkpt>
      <trkpt lat="45.41735" lon="4.67142">
        <ele>457.49652</ele>
        <time>2021-07-19T10:29:26Z</time>
      </trkpt>
      <trkpt lat="45.41726" lon="4.67137">
        <ele>457.35913</ele>
        <time>2021-07-19T10:29:27Z</time>
      </trkpt>
      <trkpt lat="45.41719" lon="4.67129">
        <ele>457.03146</ele>
        <time>2021-07-19T10:29:28Z</time>
      </trkpt>
      <trkpt lat="45.41714" lon="4.67119">
        <ele>456.8148</ele>
        <time>2021-07-19T10:29:29Z</time>
      </trkpt>
      <trkpt lat="45.41708" lon="4.6711">
        <ele>456.53998</ele>
        <time>2021-07-19T10:29:30Z</time>
      </trkpt>
      <trkpt lat="45.41702" lon="4.671">
        <ele>456.14362</ele>
        <time>2021-07-19T10:29:31Z</time>
      </trkpt>
      <trkpt lat="45.41696" lon="4.6709">
        <ele>456.31802</ele>
        <time>2021-07-19T10:29:32Z</time>
      </trkpt>
      <trkpt lat="45.41691" lon="4.67079">
        <ele>455.8424</ele>
        <time>2021-07-19T10:29:33Z</time>
      </trkpt>
      <trkpt lat="45.41688" lon="4.67066">
        <ele>455.5782</ele>
        <time>2021-07-19T10:29:34Z</time>
      </trkpt>
      <trkpt lat="45.41684" lon="4.67053">
        <ele>455.04443</ele>
        <time>2021-07-19T10:29:35Z</time>
      </trkpt>
      <trkpt lat="45.41681" lon="4.67041">
        <ele>454.8542</ele>
        <time>2021-07-19T10:29:36Z</time>
      </trkpt>
      <trkpt lat="45.41678" lon="4.67028">
        <ele>454.96518</ele>
        <time>2021-07-19T10:29:37Z</time>
      </trkpt>
      <trkpt lat="45.41675" lon="4.67015">
        <ele>454.17773</ele>
        <time>2021-07-19T10:29:38Z</time>
      </trkpt>
      <trkpt lat="45.41673" lon="4.67001">
        <ele>454.09848</ele>
        <time>2021-07-19T10:29:39Z</time>
      </trkpt>
      <trkpt lat="45.41671" lon="4.66988">
        <ele>453.3956</ele>
        <time>2021-07-19T10:29:40Z</time>
      </trkpt>
      <trkpt lat="45.41671" lon="4.66974">
        <ele>453.2794</ele>
        <time>2021-07-19T10:29:41Z</time>
      </trkpt>
      <trkpt lat="45.4167" lon="4.66961">
        <ele>452.35986</ele>
        <time>2021-07-19T10:29:42Z</time>
      </trkpt>
      <trkpt lat="45.4167" lon="4.66947">
        <ele>451.43503</ele>
        <time>2021-07-19T10:29:43Z</time>
      </trkpt>
      <trkpt lat="45.4167" lon="4.66934">
        <ele>451.15497</ele>
        <time>2021-07-19T10:29:44Z</time>
      </trkpt>
      <trkpt lat="45.41671" lon="4.6692">
        <ele>450.58417</ele>
        <time>2021-07-19T10:29:45Z</time>
      </trkpt>
      <trkpt lat="45.41673" lon="4.66907">
        <ele>450.81674</ele>
        <time>2021-07-19T10:29:46Z</time>
      </trkpt>
      <trkpt lat="45.41674" lon="4.66894">
        <ele>450.79028</ele>
        <time>2021-07-19T10:29:47Z</time>
      </trkpt>
      <trkpt lat="45.41676" lon="4.66881">
        <ele>450.2724</ele>
        <time>2021-07-19T10:29:48Z</time>
      </trkpt>
      <trkpt lat="45.41677" lon="4.66869">
        <ele>449.448</ele>
        <time>2021-07-19T10:29:49Z</time>
      </trkpt>
      <trkpt lat="45.41674" lon="4.6686">
        <ele>449.16263</ele>
        <time>2021-07-19T10:29:50Z</time>
      </trkpt>
      <trkpt lat="45.41672" lon="4.66851">
        <ele>448.74512</ele>
        <time>2021-07-19T10:29:51Z</time>
      </trkpt>
      <trkpt lat="45.41667" lon="4.66846">
        <ele>448.19556</ele>
        <time>2021-07-19T10:29:52Z</time>
      </trkpt>
      <trkpt lat="45.41661" lon="4.66845">
        <ele>447.46097</ele>
        <time>2021-07-19T10:29:53Z</time>
      </trkpt>
      <trkpt lat="45.41655" lon="4.66847">
        <ele>447.19144</ele>
        <time>2021-07-19T10:29:54Z</time>
      </trkpt>
      <trkpt lat="45.4165" lon="4.66853">
        <ele>446.17682</ele>
        <time>2021-07-19T10:29:55Z</time>
      </trkpt>
      <trkpt lat="45.41647" lon="4.66862">
        <ele>446.2931</ele>
        <time>2021-07-19T10:29:56Z</time>
      </trkpt>
      <trkpt lat="45.41644" lon="4.66872">
        <ele>446.21912</ele>
        <time>2021-07-19T10:29:57Z</time>
      </trkpt>
      <trkpt lat="45.41642" lon="4.66883">
        <ele>445.54794</ele>
        <time>2021-07-19T10:29:58Z</time>
      </trkpt>
      <trkpt lat="45.4164" lon="4.66893">
        <ele>445.215</ele>
        <time>2021-07-19T10:29:59Z</time>
      </trkpt>
      <trkpt lat="45.41639" lon="4.66903">
        <ele>444.77637</ele>
        <time>2021-07-19T10:30:00Z</time>
      </trkpt>
      <trkpt lat="45.41637" lon="4.66915">
        <ele>444.38528</ele>
        <time>2021-07-19T10:30:01Z</time>
      </trkpt>
      <trkpt lat="45.41636" lon="4.66927">
        <ele>444.0788</ele>
        <time>2021-07-19T10:30:02Z</time>
      </trkpt>
      <trkpt lat="45.41635" lon="4.66939">
        <ele>443.83572</ele>
        <time>2021-07-19T10:30:03Z</time>
      </trkpt>
      <trkpt lat="45.41632" lon="4.66952">
        <ele>443.68777</ele>
        <time>2021-07-19T10:30:04Z</time>
      </trkpt>
      <trkpt lat="45.41631" lon="4.66965">
        <ele>443.33896</ele>
        <time>2021-07-19T10:30:05Z</time>
      </trkpt>
      <trkpt lat="45.41629" lon="4.66978">
        <ele>442.88446</ele>
        <time>2021-07-19T10:30:06Z</time>
      </trkpt>
      <trkpt lat="45.41629" lon="4.66992">
        <ele>442.3243</ele>
        <time>2021-07-19T10:30:07Z</time>
      </trkpt>
      <trkpt lat="45.41628" lon="4.67005">
        <ele>442.06006</ele>
        <time>2021-07-19T10:30:08Z</time>
      </trkpt>
      <trkpt lat="45.41627" lon="4.67019">
        <ele>441.4946</ele>
        <time>2021-07-19T10:30:09Z</time>
      </trkpt>
      <trkpt lat="45.41626" lon="4.67034">
        <ele>441.00314</ele>
        <time>2021-07-19T10:30:10Z</time>
      </trkpt>
      <trkpt lat="45.41625" lon="4.67048">
        <ele>440.0942</ele>
        <time>2021-07-19T10:30:11Z</time>
      </trkpt>
      <trkpt lat="45.41623" lon="4.67063">
        <ele>439.54987</ele>
        <time>2021-07-19T10:30:12Z</time>
      </trkpt>
      <trkpt lat="45.41622" lon="4.67077">
        <ele>438.87872</ele>
        <time>2021-07-19T10:30:13Z</time>
      </trkpt>
      <trkpt lat="45.41621" lon="4.67091">
        <ele>438.53522</ele>
        <time>2021-07-19T10:30:14Z</time>
      </trkpt>
      <trkpt lat="45.41621" lon="4.67105">
        <ele>438.31854</ele>
        <time>2021-07-19T10:30:15Z</time>
      </trkpt>
      <trkpt lat="45.41622" lon="4.67118">
        <ele>437.5576</ele>
        <time>2021-07-19T10:30:16Z</time>
      </trkpt>
      <trkpt lat="45.41623" lon="4.67131">
        <ele>436.3051</ele>
        <time>2021-07-19T10:30:17Z</time>
      </trkpt>
      <trkpt lat="45.41625" lon="4.67144">
        <ele>436.0092</ele>
        <time>2021-07-19T10:30:18Z</time>
      </trkpt>
      <trkpt lat="45.41626" lon="4.67157">
        <ele>435.47012</ele>
        <time>2021-07-19T10:30:19Z</time>
      </trkpt>
      <trkpt lat="45.41625" lon="4.67171">
        <ele>434.57175</ele>
        <time>2021-07-19T10:30:20Z</time>
      </trkpt>
      <trkpt lat="45.41625" lon="4.67184">
        <ele>434.22293</ele>
        <time>2021-07-19T10:30:21Z</time>
      </trkpt>
      <trkpt lat="45.41625" lon="4.67197">
        <ele>433.90588</ele>
        <time>2021-07-19T10:30:22Z</time>
      </trkpt>
      <trkpt lat="45.41625" lon="4.6721">
        <ele>433.3774</ele>
        <time>2021-07-19T10:30:23Z</time>
      </trkpt>
      <trkpt lat="45.41626" lon="4.67224">
        <ele>433.10788</ele>
        <time>2021-07-19T10:30:24Z</time>
      </trkpt>
      <trkpt lat="45.41627" lon="4.67238">
        <ele>432.85953</ele>
        <time>2021-07-19T10:30:25Z</time>
      </trkpt>
      <trkpt lat="45.41628" lon="4.67252">
        <ele>432.1408</ele>
        <time>2021-07-19T10:30:26Z</time>
      </trkpt>
      <trkpt lat="45.41628" lon="4.67266">
        <ele>431.50137</ele>
        <time>2021-07-19T10:30:27Z</time>
      </trkpt>
      <trkpt lat="45.41629" lon="4.67281">
        <ele>430.78265</ele>
        <time>2021-07-19T10:30:28Z</time>
      </trkpt>
      <trkpt lat="45.41629" lon="4.67295">
        <ele>429.85782</ele>
        <time>2021-07-19T10:30:29Z</time>
      </trkpt>
      <trkpt lat="45.4163" lon="4.67309">
        <ele>429.84198</ele>
        <time>2021-07-19T10:30:30Z</time>
      </trkpt>
      <trkpt lat="45.41629" lon="4.67324">
        <ele>429.08627</ele>
        <time>2021-07-19T10:30:31Z</time>
      </trkpt>
      <trkpt lat="45.41631" lon="4.67339">
        <ele>428.5684</ele>
        <time>2021-07-19T10:30:32Z</time>
      </trkpt>
      <trkpt lat="45.41632" lon="4.67354">
        <ele>428.79034</ele>
        <time>2021-07-19T10:30:33Z</time>
      </trkpt>
      <trkpt lat="45.41632" lon="4.67369">
        <ele>429.2131</ele>
        <time>2021-07-19T10:30:34Z</time>
      </trkpt>
      <trkpt lat="45.41633" lon="4.67384">
        <ele>428.468</ele>
        <time>2021-07-19T10:30:35Z</time>
      </trkpt>
      <trkpt lat="45.41632" lon="4.67399">
        <ele>426.4387</ele>
        <time>2021-07-19T10:30:36Z</time>
      </trkpt>
      <trkpt lat="45.41633" lon="4.67413">
        <ele>425.94193</ele>
        <time>2021-07-19T10:30:37Z</time>
      </trkpt>
      <trkpt lat="45.41633" lon="4.67428">
        <ele>424.93787</ele>
        <time>2021-07-19T10:30:38Z</time>
      </trkpt>
      <trkpt lat="45.41634" lon="4.67442">
        <ele>424.54678</ele>
        <time>2021-07-19T10:30:39Z</time>
      </trkpt>
      <trkpt lat="45.41636" lon="4.67455">
        <ele>423.73822</ele>
        <time>2021-07-19T10:30:40Z</time>
      </trkpt>
      <trkpt lat="45.41636" lon="4.67469">
        <ele>422.94025</ele>
        <time>2021-07-19T10:30:41Z</time>
      </trkpt>
      <trkpt lat="45.41636" lon="4.67482">
        <ele>421.9573</ele>
        <time>2021-07-19T10:30:42Z</time>
      </trkpt>
      <trkpt lat="45.41636" lon="4.67495">
        <ele>421.93088</ele>
        <time>2021-07-19T10:30:43Z</time>
      </trkpt>
      <trkpt lat="45.41636" lon="4.67509">
        <ele>421.08536</ele>
        <time>2021-07-19T10:30:44Z</time>
      </trkpt>
      <trkpt lat="45.41636" lon="4.67523">
        <ele>421.35486</ele>
        <time>2021-07-19T10:30:45Z</time>
      </trkpt>
      <trkpt lat="45.41636" lon="4.67537">
        <ele>421.339</ele>
        <time>2021-07-19T10:30:46Z</time>
      </trkpt>
      <trkpt lat="45.41636" lon="4.6755">
        <ele>420.4089</ele>
        <time>2021-07-19T10:30:47Z</time>
      </trkpt>
      <trkpt lat="45.41637" lon="4.67563">
        <ele>419.86462</ele>
        <time>2021-07-19T10:30:48Z</time>
      </trkpt>
      <trkpt lat="45.41643" lon="4.67575">
        <ele>419.33612</ele>
        <time>2021-07-19T10:30:49Z</time>
      </trkpt>
      <trkpt lat="45.41647" lon="4.67587">
        <ele>418.95566</ele>
        <time>2021-07-19T10:30:50Z</time>
      </trkpt>
      <trkpt lat="45.41648" lon="4.67601">
        <ele>417.90927</ele>
        <time>2021-07-19T10:30:51Z</time>
      </trkpt>
      <trkpt lat="45.4165" lon="4.67613">
        <ele>416.8629</ele>
        <time>2021-07-19T10:30:52Z</time>
      </trkpt>
      <trkpt lat="45.41654" lon="4.67624">
        <ele>416.4771</ele>
        <time>2021-07-19T10:30:53Z</time>
      </trkpt>
      <trkpt lat="45.41657" lon="4.67636">
        <ele>416.4507</ele>
        <time>2021-07-19T10:30:54Z</time>
      </trkpt>
      <trkpt lat="45.41663" lon="4.67647">
        <ele>416.493</ele>
        <time>2021-07-19T10:30:55Z</time>
      </trkpt>
      <trkpt lat="45.41666" lon="4.6766">
        <ele>415.95395</ele>
        <time>2021-07-19T10:30:56Z</time>
      </trkpt>
      <trkpt lat="45.4167" lon="4.67672">
        <ele>415.37793</ele>
        <time>2021-07-19T10:30:57Z</time>
      </trkpt>
      <trkpt lat="45.41674" lon="4.67685">
        <ele>414.91287</ele>
        <time>2021-07-19T10:30:58Z</time>
      </trkpt>
      <trkpt lat="45.41676" lon="4.67699">
        <ele>414.21002</ele>
        <time>2021-07-19T10:30:59Z</time>
      </trkpt>
      <trkpt lat="45.41678" lon="4.67713">
        <ele>413.44904</ele>
        <time>2021-07-19T10:31:00Z</time>
      </trkpt>
      <trkpt lat="45.41682" lon="4.67727">
        <ele>413.39093</ele>
        <time>2021-07-19T10:31:01Z</time>
      </trkpt>
      <trkpt lat="45.41686" lon="4.6774">
        <ele>412.95755</ele>
        <time>2021-07-19T10:31:02Z</time>
      </trkpt>
      <trkpt lat="45.4169" lon="4.67753">
        <ele>412.48196</ele>
        <time>2021-07-19T10:31:03Z</time>
      </trkpt>
      <trkpt lat="45.41695" lon="4.67767">
        <ele>412.4291</ele>
        <time>2021-07-19T10:31:04Z</time>
      </trkpt>
      <trkpt lat="45.417" lon="4.6778">
        <ele>411.91122</ele>
        <time>2021-07-19T10:31:05Z</time>
      </trkpt>
      <trkpt lat="45.41705" lon="4.67793">
        <ele>411.0181</ele>
        <time>2021-07-19T10:31:06Z</time>
      </trkpt>
      <trkpt lat="45.41711" lon="4.67806">
        <ele>410.55832</ele>
        <time>2021-07-19T10:31:07Z</time>
      </trkpt>
      <trkpt lat="45.41716" lon="4.67819">
        <ele>409.49612</ele>
        <time>2021-07-19T10:31:08Z</time>
      </trkpt>
      <trkpt lat="45.4172" lon="4.67831">
        <ele>408.66644</ele>
        <time>2021-07-19T10:31:09Z</time>
      </trkpt>
      <trkpt lat="45.41726" lon="4.6784">
        <ele>408.90955</ele>
        <time>2021-07-19T10:31:10Z</time>
      </trkpt>
      <trkpt lat="45.41733" lon="4.67847">
        <ele>408.94122</ele>
        <time>2021-07-19T10:31:11Z</time>
      </trkpt>
      <trkpt lat="45.41738" lon="4.67854">
        <ele>407.45096</ele>
        <time>2021-07-19T10:31:12Z</time>
      </trkpt>
      <trkpt lat="45.41743" lon="4.67862">
        <ele>407.19205</ele>
        <time>2021-07-19T10:31:13Z</time>
      </trkpt>
      <trkpt lat="45.41749" lon="4.67868">
        <ele>406.8591</ele>
        <time>2021-07-19T10:31:14Z</time>
      </trkpt>
      <trkpt lat="45.41755" lon="4.67873">
        <ele>406.77454</ele>
        <time>2021-07-19T10:31:15Z</time>
      </trkpt>
      <trkpt lat="45.41763" lon="4.67875">
        <ele>406.49976</ele>
        <time>2021-07-19T10:31:16Z</time>
      </trkpt>
      <trkpt lat="45.41771" lon="4.6788">
        <ele>406.42575</ele>
        <time>2021-07-19T10:31:17Z</time>
      </trkpt>
      <trkpt lat="45.41779" lon="4.67881">
        <ele>406.19852</ele>
        <time>2021-07-19T10:31:18Z</time>
      </trkpt>
      <trkpt lat="45.41786" lon="4.6788">
        <ele>406.29364</ele>
        <time>2021-07-19T10:31:19Z</time>
      </trkpt>
      <trkpt lat="45.41793" lon="4.6788">
        <ele>406.45218</ele>
        <time>2021-07-19T10:31:20Z</time>
      </trkpt>
      <trkpt lat="45.41801" lon="4.6788">
        <ele>405.4904</ele>
        <time>2021-07-19T10:31:21Z</time>
      </trkpt>
      <trkpt lat="45.41808" lon="4.67878">
        <ele>405.168</ele>
        <time>2021-07-19T10:31:22Z</time>
      </trkpt>
      <trkpt lat="45.41814" lon="4.67873">
        <ele>405.0782</ele>
        <time>2021-07-19T10:31:23Z</time>
      </trkpt>
      <trkpt lat="45.41819" lon="4.67867">
        <ele>404.407</ele>
        <time>2021-07-19T10:31:24Z</time>
      </trkpt>
      <trkpt lat="45.41824" lon="4.67862">
        <ele>403.42407</ele>
        <time>2021-07-19T10:31:25Z</time>
      </trkpt>
      <trkpt lat="45.41829" lon="4.67857">
        <ele>403.24442</ele>
        <time>2021-07-19T10:31:26Z</time>
      </trkpt>
      <trkpt lat="45.41834" lon="4.67851">
        <ele>402.71594</ele>
        <time>2021-07-19T10:31:27Z</time>
      </trkpt>
      <trkpt lat="45.41839" lon="4.67846">
        <ele>402.47815</ele>
        <time>2021-07-19T10:31:28Z</time>
      </trkpt>
      <trkpt lat="45.41844" lon="4.6784">
        <ele>402.19278</ele>
        <time>2021-07-19T10:31:29Z</time>
      </trkpt>
      <trkpt lat="45.4185" lon="4.67834">
        <ele>402.4464</ele>
        <time>2021-07-19T10:31:30Z</time>
      </trkpt>
      <trkpt lat="45.41855" lon="4.67828">
        <ele>402.1135</ele>
        <time>2021-07-19T10:31:31Z</time>
      </trkpt>
      <trkpt lat="45.41859" lon="4.67823">
        <ele>401.60614</ele>
        <time>2021-07-19T10:31:32Z</time>
      </trkpt>
      <trkpt lat="45.41864" lon="4.67819">
        <ele>401.0777</ele>
        <time>2021-07-19T10:31:33Z</time>
      </trkpt>
      <trkpt lat="45.4187" lon="4.67819">
        <ele>400.60208</ele>
        <time>2021-07-19T10:31:34Z</time>
      </trkpt>
      <trkpt lat="45.41875" lon="4.6782">
        <ele>400.34845</ele>
        <time>2021-07-19T10:31:35Z</time>
      </trkpt>
      <trkpt lat="45.41882" lon="4.67823">
        <ele>400.26913</ele>
        <time>2021-07-19T10:31:36Z</time>
      </trkpt>
      <trkpt lat="45.41888" lon="4.67825">
        <ele>399.79355</ele>
        <time>2021-07-19T10:31:37Z</time>
      </trkpt>
      <trkpt lat="45.41892" lon="4.67831">
        <ele>399.33905</ele>
        <time>2021-07-19T10:31:38Z</time>
      </trkpt>
      <trkpt lat="45.41895" lon="4.67839">
        <ele>398.837</ele>
        <time>2021-07-19T10:31:39Z</time>
      </trkpt>
      <trkpt lat="45.41894" lon="4.67852">
        <ele>398.41425</ele>
        <time>2021-07-19T10:31:40Z</time>
      </trkpt>
      <trkpt lat="45.41891" lon="4.67863">
        <ele>398.03375</ele>
        <time>2021-07-19T10:31:41Z</time>
      </trkpt>
      <trkpt lat="45.41887" lon="4.67874">
        <ele>397.6797</ele>
        <time>2021-07-19T10:31:42Z</time>
      </trkpt>
      <trkpt lat="45.41882" lon="4.67884">
        <ele>396.75488</ele>
        <time>2021-07-19T10:31:43Z</time>
      </trkpt>
      <trkpt lat="45.41878" lon="4.67894">
        <ele>396.11014</ele>
        <time>2021-07-19T10:31:44Z</time>
      </trkpt>
      <trkpt lat="45.41873" lon="4.67904">
        <ele>395.66623</ele>
        <time>2021-07-19T10:31:45Z</time>
      </trkpt>
      <trkpt lat="45.41868" lon="4.67915">
        <ele>395.3069</ele>
        <time>2021-07-19T10:31:46Z</time>
      </trkpt>
      <trkpt lat="45.41863" lon="4.67926">
        <ele>394.89993</ele>
        <time>2021-07-19T10:31:47Z</time>
      </trkpt>
      <trkpt lat="45.41857" lon="4.67937">
        <ele>394.4666</ele>
        <time>2021-07-19T10:31:48Z</time>
      </trkpt>
      <trkpt lat="45.41851" lon="4.67949">
        <ele>393.9117</ele>
        <time>2021-07-19T10:31:49Z</time>
      </trkpt>
      <trkpt lat="45.41845" lon="4.67962">
        <ele>393.48895</ele>
        <time>2021-07-19T10:31:50Z</time>
      </trkpt>
      <trkpt lat="45.41839" lon="4.67975">
        <ele>392.86536</ele>
        <time>2021-07-19T10:31:51Z</time>
      </trkpt>
      <trkpt lat="45.41832" lon="4.67986">
        <ele>392.56415</ele>
        <time>2021-07-19T10:31:52Z</time>
      </trkpt>
      <trkpt lat="45.41826" lon="4.67997">
        <ele>391.94583</ele>
        <time>2021-07-19T10:31:53Z</time>
      </trkpt>
      <trkpt lat="45.41819" lon="4.68008">
        <ele>391.16898</ele>
        <time>2021-07-19T10:31:54Z</time>
      </trkpt>
      <trkpt lat="45.41814" lon="4.68019">
        <ele>390.69867</ele>
        <time>2021-07-19T10:31:55Z</time>
      </trkpt>
      <trkpt lat="45.41809" lon="4.6803">
        <ele>390.11206</ele>
        <time>2021-07-19T10:31:56Z</time>
      </trkpt>
      <trkpt lat="45.41805" lon="4.68041">
        <ele>389.94296</ele>
        <time>2021-07-19T10:31:57Z</time>
      </trkpt>
      <trkpt lat="45.418" lon="4.68051">
        <ele>389.38278</ele>
        <time>2021-07-19T10:31:58Z</time>
      </trkpt>
      <trkpt lat="45.41795" lon="4.68061">
        <ele>388.81204</ele>
        <time>2021-07-19T10:31:59Z</time>
      </trkpt>
      <trkpt lat="45.4179" lon="4.68071">
        <ele>388.63235</ele>
        <time>2021-07-19T10:32:00Z</time>
      </trkpt>
      <trkpt lat="45.41787" lon="4.6808">
        <ele>388.5161</ele>
        <time>2021-07-19T10:32:01Z</time>
      </trkpt>
      <trkpt lat="45.41784" lon="4.68088">
        <ele>387.9295</ele>
        <time>2021-07-19T10:32:02Z</time>
      </trkpt>
      <trkpt lat="45.41782" lon="4.68097">
        <ele>387.77625</ele>
        <time>2021-07-19T10:32:03Z</time>
      </trkpt>
      <trkpt lat="45.41779" lon="4.68105">
        <ele>387.53317</ele>
        <time>2021-07-19T10:32:04Z</time>
      </trkpt>
      <trkpt lat="45.41777" lon="4.68112">
        <ele>387.2055</ele>
        <time>2021-07-19T10:32:05Z</time>
      </trkpt>
      <trkpt lat="45.41774" lon="4.68119">
        <ele>386.98358</ele>
        <time>2021-07-19T10:32:06Z</time>
      </trkpt>
      <trkpt lat="45.41774" lon="4.68127">
        <ele>386.61365</ele>
        <time>2021-07-19T10:32:07Z</time>
      </trkpt>
      <trkpt lat="45.41775" lon="4.68134">
        <ele>386.57135</ele>
        <time>2021-07-19T10:32:08Z</time>
      </trkpt>
      <trkpt lat="45.41779" lon="4.6814">
        <ele>386.30185</ele>
        <time>2021-07-19T10:32:09Z</time>
      </trkpt>
      <trkpt lat="45.41783" lon="4.68147">
        <ele>385.98477</ele>
        <time>2021-07-19T10:32:10Z</time>
      </trkpt>
      <trkpt lat="45.41785" lon="4.68155">
        <ele>385.81036</ele>
        <time>2021-07-19T10:32:11Z</time>
      </trkpt>
      <trkpt lat="45.41787" lon="4.68163">
        <ele>385.0071</ele>
        <time>2021-07-19T10:32:12Z</time>
      </trkpt>
      <trkpt lat="45.41789" lon="4.6817">
        <ele>384.95953</ele>
        <time>2021-07-19T10:32:13Z</time>
      </trkpt>
      <trkpt lat="45.4179" lon="4.68175">
        <ele>384.92258</ele>
        <time>2021-07-19T10:32:14Z</time>
      </trkpt>
      <trkpt lat="45.41792" lon="4.6818">
        <ele>384.875</ele>
        <time>2021-07-19T10:32:15Z</time>
      </trkpt>
      <trkpt lat="45.41794" lon="4.68186">
        <ele>385.01767</ele>
        <time>2021-07-19T10:32:16Z</time>
      </trkpt>
      <trkpt lat="45.41797" lon="4.68192">
        <ele>384.67944</ele>
        <time>2021-07-19T10:32:17Z</time>
      </trkpt>
      <trkpt lat="45.41797" lon="4.68197">
        <ele>384.32538</ele>
        <time>2021-07-19T10:32:18Z</time>
      </trkpt>
      <trkpt lat="45.41798" lon="4.68204">
        <ele>384.37296</ele>
        <time>2021-07-19T10:32:19Z</time>
      </trkpt>
      <trkpt lat="45.41801" lon="4.68211">
        <ele>384.28842</ele>
        <time>2021-07-19T10:32:20Z</time>
      </trkpt>
      <trkpt lat="45.41804" lon="4.68221">
        <ele>384.17215</ele>
        <time>2021-07-19T10:32:21Z</time>
      </trkpt>
      <trkpt lat="45.41808" lon="4.68229">
        <ele>384.114</ele>
        <time>2021-07-19T10:32:22Z</time>
      </trkpt>
      <trkpt lat="45.41811" lon="4.68236">
        <ele>383.5591</ele>
        <time>2021-07-19T10:32:23Z</time>
      </trkpt>
      <trkpt lat="45.41814" lon="4.68244">
        <ele>383.4217</ele>
        <time>2021-07-19T10:32:24Z</time>
      </trkpt>
      <trkpt lat="45.41817" lon="4.68253">
        <ele>382.84567</ele>
        <time>2021-07-19T10:32:25Z</time>
      </trkpt>
      <trkpt lat="45.41821" lon="4.68262">
        <ele>382.814</ele>
        <time>2021-07-19T10:32:26Z</time>
      </trkpt>
      <trkpt lat="45.41824" lon="4.6827">
        <ele>382.1217</ele>
        <time>2021-07-19T10:32:27Z</time>
      </trkpt>
      <trkpt lat="45.41826" lon="4.68277">
        <ele>381.73062</ele>
        <time>2021-07-19T10:32:28Z</time>
      </trkpt>
      <trkpt lat="45.41829" lon="4.68284">
        <ele>381.51923</ele>
        <time>2021-07-19T10:32:29Z</time>
      </trkpt>
      <trkpt lat="45.41832" lon="4.6829">
        <ele>381.1176</ele>
        <time>2021-07-19T10:32:30Z</time>
      </trkpt>
      <trkpt lat="45.41835" lon="4.68294">
        <ele>380.86923</ele>
        <time>2021-07-19T10:32:31Z</time>
      </trkpt>
      <trkpt lat="45.41838" lon="4.68299">
        <ele>380.5522</ele>
        <time>2021-07-19T10:32:32Z</time>
      </trkpt>
      <trkpt lat="45.4184" lon="4.68303">
        <ele>380.73712</ele>
        <time>2021-07-19T10:32:33Z</time>
      </trkpt>
      <trkpt lat="45.41843" lon="4.68305">
        <ele>380.5469</ele>
        <time>2021-07-19T10:32:34Z</time>
      </trkpt>
      <trkpt lat="45.41846" lon="4.68305">
        <ele>380.5046</ele>
        <time>2021-07-19T10:32:35Z</time>
      </trkpt>
      <trkpt lat="45.41847" lon="4.68303">
        <ele>380.4306</ele>
        <time>2021-07-19T10:32:36Z</time>
      </trkpt>
      <trkpt lat="45.41847" lon="4.68303">
        <ele>380.07126</ele>
        <time>2021-07-19T10:32:37Z</time>
      </trkpt>
      <trkpt lat="45.41847" lon="4.68303">
        <ele>380.02896</ele>
        <time>2021-07-19T10:32:38Z</time>
      </trkpt>
      <trkpt lat="45.41847" lon="4.68303">
        <ele>379.9233</ele>
        <time>2021-07-19T10:32:39Z</time>
      </trkpt>
      <trkpt lat="45.41847" lon="4.68303">
        <ele>379.9497</ele>
        <time>2021-07-19T10:32:40Z</time>
      </trkpt>
      <trkpt lat="45.41847" lon="4.68303">
        <ele>379.89685</ele>
        <time>2021-07-19T10:32:41Z</time>
      </trkpt>
      <trkpt lat="45.41847" lon="4.68303">
        <ele>379.89685</ele>
        <time>2021-07-19T10:32:41Z</time>
      </trkpt>
      <trkpt lat="45.41847" lon="4.68303">
        <ele>379.89685</ele>
        <time>2021-07-19T10:32:41Z</time>
      </trkpt>
      <trkpt lat="45.41863" lon="4.68367">
        <ele>378.2322</ele>
        <time>2021-07-19T10:34:39Z</time>
      </trkpt>
      <trkpt lat="45.41867" lon="4.68378">
        <ele>377.82</ele>
        <time>2021-07-19T10:34:40Z</time>
      </trkpt>
      <trkpt lat="45.41873" lon="4.68389">
        <ele>377.53992</ele>
        <time>2021-07-19T10:34:41Z</time>
      </trkpt>
      <trkpt lat="45.41878" lon="4.68399">
        <ele>377.39725</ele>
        <time>2021-07-19T10:34:42Z</time>
      </trkpt>
      <trkpt lat="45.41884" lon="4.68408">
        <ele>376.72607</ele>
        <time>2021-07-19T10:34:43Z</time>
      </trkpt>
      <trkpt lat="45.41888" lon="4.68417">
        <ele>376.58337</ele>
        <time>2021-07-19T10:34:44Z</time>
      </trkpt>
      <trkpt lat="45.41893" lon="4.68427">
        <ele>376.04437</ele>
        <time>2021-07-19T10:34:45Z</time>
      </trkpt>
      <trkpt lat="45.41898" lon="4.68436">
        <ele>376.0655</ele>
        <time>2021-07-19T10:34:46Z</time>
      </trkpt>
      <trkpt lat="45.41903" lon="4.68446">
        <ele>375.99152</ele>
        <time>2021-07-19T10:34:47Z</time>
      </trkpt>
      <trkpt lat="45.41908" lon="4.68456">
        <ele>375.01913</ele>
        <time>2021-07-19T10:34:48Z</time>
      </trkpt>
      <trkpt lat="45.41913" lon="4.68466">
        <ele>374.97684</ele>
        <time>2021-07-19T10:34:49Z</time>
      </trkpt>
      <trkpt lat="45.41918" lon="4.68477">
        <ele>375.03497</ele>
        <time>2021-07-19T10:34:50Z</time>
      </trkpt>
      <trkpt lat="45.41924" lon="4.68487">
        <ele>373.87238</ele>
        <time>2021-07-19T10:34:51Z</time>
      </trkpt>
      <trkpt lat="45.41929" lon="4.68496">
        <ele>373.34918</ele>
        <time>2021-07-19T10:34:52Z</time>
      </trkpt>
      <trkpt lat="45.41933" lon="4.68506">
        <ele>372.974</ele>
        <time>2021-07-19T10:34:53Z</time>
      </trkpt>
      <trkpt lat="45.41938" lon="4.68516">
        <ele>372.56705</ele>
        <time>2021-07-19T10:34:54Z</time>
      </trkpt>
      <trkpt lat="45.41943" lon="4.68526">
        <ele>372.2764</ele>
        <time>2021-07-19T10:34:55Z</time>
      </trkpt>
      <trkpt lat="45.41947" lon="4.68537">
        <ele>371.5841</ele>
        <time>2021-07-19T10:34:56Z</time>
      </trkpt>
      <trkpt lat="45.4195" lon="4.68549">
        <ele>370.73328</ele>
        <time>2021-07-19T10:34:57Z</time>
      </trkpt>
      <trkpt lat="45.41954" lon="4.68559">
        <ele>369.9036</ele>
        <time>2021-07-19T10:34:58Z</time>
      </trkpt>
      <trkpt lat="45.41957" lon="4.6857">
        <ele>369.31702</ele>
        <time>2021-07-19T10:34:59Z</time>
      </trkpt>
      <trkpt lat="45.41959" lon="4.68581">
        <ele>368.72516</ele>
        <time>2021-07-19T10:35:00Z</time>
      </trkpt>
      <trkpt lat="45.41961" lon="4.68592">
        <ele>367.72635</ele>
        <time>2021-07-19T10:35:01Z</time>
      </trkpt>
      <trkpt lat="45.41963" lon="4.68604">
        <ele>367.30887</ele>
        <time>2021-07-19T10:35:02Z</time>
      </trkpt>
      <trkpt lat="45.41965" lon="4.68616">
        <ele>366.7804</ele>
        <time>2021-07-19T10:35:03Z</time>
      </trkpt>
      <trkpt lat="45.41967" lon="4.68628">
        <ele>366.5426</ele>
        <time>2021-07-19T10:35:04Z</time>
      </trkpt>
      <trkpt lat="45.4197" lon="4.68642">
        <ele>366.1251</ele>
        <time>2021-07-19T10:35:05Z</time>
      </trkpt>
      <trkpt lat="45.41972" lon="4.68657">
        <ele>365.72873</ele>
        <time>2021-07-19T10:35:06Z</time>
      </trkpt>
      <trkpt lat="45.41975" lon="4.68671">
        <ele>365.11575</ele>
        <time>2021-07-19T10:35:07Z</time>
      </trkpt>
      <trkpt lat="45.41978" lon="4.68686">
        <ele>365.158</ele>
        <time>2021-07-19T10:35:08Z</time>
      </trkpt>
      <trkpt lat="45.41981" lon="4.68701">
        <ele>364.73523</ele>
        <time>2021-07-19T10:35:09Z</time>
      </trkpt>
      <trkpt lat="45.41984" lon="4.68717">
        <ele>363.6783</ele>
        <time>2021-07-19T10:35:10Z</time>
      </trkpt>
      <trkpt lat="45.41987" lon="4.68733">
        <ele>362.52097</ele>
        <time>2021-07-19T10:35:11Z</time>
      </trkpt>
      <trkpt lat="45.4199" lon="4.68748">
        <ele>362.0348</ele>
        <time>2021-07-19T10:35:12Z</time>
      </trkpt>
      <trkpt lat="45.41993" lon="4.68764">
        <ele>361.21567</ele>
        <time>2021-07-19T10:35:13Z</time>
      </trkpt>
      <trkpt lat="45.41996" lon="4.68779">
        <ele>360.4864</ele>
        <time>2021-07-19T10:35:14Z</time>
      </trkpt>
      <trkpt lat="45.41999" lon="4.68793">
        <ele>359.4717</ele>
        <time>2021-07-19T10:35:15Z</time>
      </trkpt>
      <trkpt lat="45.42003" lon="4.68807">
        <ele>358.61032</ele>
        <time>2021-07-19T10:35:16Z</time>
      </trkpt>
      <trkpt lat="45.42005" lon="4.6882">
        <ele>357.30505</ele>
        <time>2021-07-19T10:35:17Z</time>
      </trkpt>
      <trkpt lat="45.42008" lon="4.68831">
        <ele>357.03024</ele>
        <time>2021-07-19T10:35:18Z</time>
      </trkpt>
      <trkpt lat="45.42011" lon="4.68842">
        <ele>357.03552</ele>
        <time>2021-07-19T10:35:19Z</time>
      </trkpt>
      <trkpt lat="45.42014" lon="4.68854">
        <ele>356.3485</ele>
        <time>2021-07-19T10:35:20Z</time>
      </trkpt>
      <trkpt lat="45.42016" lon="4.68867">
        <ele>355.73547</ele>
        <time>2021-07-19T10:35:21Z</time>
      </trkpt>
      <trkpt lat="45.42017" lon="4.6888">
        <ele>355.27573</ele>
        <time>2021-07-19T10:35:22Z</time>
      </trkpt>
      <trkpt lat="45.42019" lon="4.68893">
        <ele>354.88992</ele>
        <time>2021-07-19T10:35:23Z</time>
      </trkpt>
      <trkpt lat="45.4202" lon="4.68907">
        <ele>354.2875</ele>
        <time>2021-07-19T10:35:24Z</time>
      </trkpt>
      <trkpt lat="45.42021" lon="4.68922">
        <ele>354.01797</ele>
        <time>2021-07-19T10:35:25Z</time>
      </trkpt>
      <trkpt lat="45.42023" lon="4.68936">
        <ele>353.6005</ele>
        <time>2021-07-19T10:35:26Z</time>
      </trkpt>
      <trkpt lat="45.42024" lon="4.6895">
        <ele>352.6493</ele>
        <time>2021-07-19T10:35:27Z</time>
      </trkpt>
      <trkpt lat="45.42024" lon="4.68964">
        <ele>351.88828</ele>
        <time>2021-07-19T10:35:28Z</time>
      </trkpt>
      <trkpt lat="45.42024" lon="4.68976">
        <ele>351.00046</ele>
        <time>2021-07-19T10:35:29Z</time>
      </trkpt>
      <trkpt lat="45.42023" lon="4.68988">
        <ele>349.76913</ele>
        <time>2021-07-19T10:35:30Z</time>
      </trkpt>
      <trkpt lat="45.42022" lon="4.68999">
        <ele>349.11914</ele>
        <time>2021-07-19T10:35:31Z</time>
      </trkpt>
      <trkpt lat="45.4202" lon="4.69008">
        <ele>348.4374</ele>
        <time>2021-07-19T10:35:32Z</time>
      </trkpt>
      <trkpt lat="45.42019" lon="4.69015">
        <ele>348.01465</ele>
        <time>2021-07-19T10:35:33Z</time>
      </trkpt>
      <trkpt lat="45.42017" lon="4.69021">
        <ele>347.7715</ele>
        <time>2021-07-19T10:35:34Z</time>
      </trkpt>
      <trkpt lat="45.42014" lon="4.69025">
        <ele>347.53372</ele>
        <time>2021-07-19T10:35:35Z</time>
      </trkpt>
      <trkpt lat="45.42011" lon="4.69033">
        <ele>347.08456</ele>
        <time>2021-07-19T10:35:36Z</time>
      </trkpt>
      <trkpt lat="45.42009" lon="4.69043">
        <ele>346.65118</ele>
        <time>2021-07-19T10:35:37Z</time>
      </trkpt>
      <trkpt lat="45.42009" lon="4.69053">
        <ele>346.49265</ele>
        <time>2021-07-19T10:35:38Z</time>
      </trkpt>
      <trkpt lat="45.42009" lon="4.69062">
        <ele>346.3341</ele>
        <time>2021-07-19T10:35:39Z</time>
      </trkpt>
      <trkpt lat="45.42009" lon="4.69074">
        <ele>346.08044</ele>
        <time>2021-07-19T10:35:40Z</time>
      </trkpt>
      <trkpt lat="45.42008" lon="4.69087">
        <ele>345.63126</ele>
        <time>2021-07-19T10:35:41Z</time>
      </trkpt>
      <trkpt lat="45.42007" lon="4.691">
        <ele>345.00766</ele>
        <time>2021-07-19T10:35:42Z</time>
      </trkpt>
      <trkpt lat="45.42006" lon="4.69114">
        <ele>344.18857</ele>
        <time>2021-07-19T10:35:43Z</time>
      </trkpt>
      <trkpt lat="45.42004" lon="4.69128">
        <ele>343.61252</ele>
        <time>2021-07-19T10:35:44Z</time>
      </trkpt>
      <trkpt lat="45.42003" lon="4.69142">
        <ele>343.12103</ele>
        <time>2021-07-19T10:35:45Z</time>
      </trkpt>
      <trkpt lat="45.42001" lon="4.69157">
        <ele>342.97836</ele>
        <time>2021-07-19T10:35:46Z</time>
      </trkpt>
      <trkpt lat="45.42" lon="4.69172">
        <ele>342.6666</ele>
        <time>2021-07-19T10:35:47Z</time>
      </trkpt>
      <trkpt lat="45.41999" lon="4.69187">
        <ele>342.1487</ele>
        <time>2021-07-19T10:35:48Z</time>
      </trkpt>
      <trkpt lat="45.41997" lon="4.69201">
        <ele>342.03772</ele>
        <time>2021-07-19T10:35:49Z</time>
      </trkpt>
      <trkpt lat="45.41995" lon="4.69216">
        <ele>341.65195</ele>
        <time>2021-07-19T10:35:50Z</time>
      </trkpt>
      <trkpt lat="45.41993" lon="4.69231">
        <ele>341.1182</ele>
        <time>2021-07-19T10:35:51Z</time>
      </trkpt>
      <trkpt lat="45.41992" lon="4.69246">
        <ele>340.9491</ele>
        <time>2021-07-19T10:35:52Z</time>
      </trkpt>
      <trkpt lat="45.41991" lon="4.6926">
        <ele>340.99133</ele>
        <time>2021-07-19T10:35:54Z</time>
      </trkpt>
      <trkpt lat="45.41991" lon="4.69275">
        <ele>341.06006</ele>
        <time>2021-07-19T10:35:55Z</time>
      </trkpt>
      <trkpt lat="45.41991" lon="4.6929">
        <ele>340.51044</ele>
        <time>2021-07-19T10:35:56Z</time>
      </trkpt>
      <trkpt lat="45.41991" lon="4.69305">
        <ele>340.93848</ele>
        <time>2021-07-19T10:35:57Z</time>
      </trkpt>
      <trkpt lat="45.41989" lon="4.6932">
        <ele>340.8381</ele>
        <time>2021-07-19T10:35:58Z</time>
      </trkpt>
      <trkpt lat="45.41987" lon="4.69334">
        <ele>340.62143</ele>
        <time>2021-07-19T10:35:59Z</time>
      </trkpt>
      <trkpt lat="45.41985" lon="4.69349">
        <ele>340.27792</ele>
        <time>2021-07-19T10:36:00Z</time>
      </trkpt>
      <trkpt lat="45.41984" lon="4.69363">
        <ele>339.96088</ele>
        <time>2021-07-19T10:36:01Z</time>
      </trkpt>
      <trkpt lat="45.41984" lon="4.69378">
        <ele>339.65433</ele>
        <time>2021-07-19T10:36:02Z</time>
      </trkpt>
      <trkpt lat="45.41985" lon="4.69392">
        <ele>339.4588</ele>
        <time>2021-07-19T10:36:03Z</time>
      </trkpt>
      <trkpt lat="45.41986" lon="4.69407">
        <ele>339.45352</ele>
        <time>2021-07-19T10:36:04Z</time>
      </trkpt>
      <trkpt lat="45.41987" lon="4.69421">
        <ele>338.92505</ele>
        <time>2021-07-19T10:36:05Z</time>
      </trkpt>
      <trkpt lat="45.41988" lon="4.69435">
        <ele>338.60797</ele>
        <time>2021-07-19T10:36:06Z</time>
      </trkpt>
      <trkpt lat="45.41989" lon="4.6945">
        <ele>338.55515</ele>
        <time>2021-07-19T10:36:07Z</time>
      </trkpt>
      <trkpt lat="45.41991" lon="4.69464">
        <ele>337.9421</ele>
        <time>2021-07-19T10:36:08Z</time>
      </trkpt>
      <trkpt lat="45.41992" lon="4.69478">
        <ele>337.4876</ele>
        <time>2021-07-19T10:36:09Z</time>
      </trkpt>
      <trkpt lat="45.41993" lon="4.69493">
        <ele>337.1864</ele>
        <time>2021-07-19T10:36:10Z</time>
      </trkpt>
      <trkpt lat="45.41995" lon="4.69508">
        <ele>336.8799</ele>
        <time>2021-07-19T10:36:11Z</time>
      </trkpt>
      <trkpt lat="45.41997" lon="4.69523">
        <ele>336.72665</ele>
        <time>2021-07-19T10:36:12Z</time>
      </trkpt>
      <trkpt lat="45.41999" lon="4.69538">
        <ele>335.84412</ele>
        <time>2021-07-19T10:36:13Z</time>
      </trkpt>
      <trkpt lat="45.42002" lon="4.69553">
        <ele>334.97217</ele>
        <time>2021-07-19T10:36:14Z</time>
      </trkpt>
      <trkpt lat="45.42004" lon="4.69568">
        <ele>334.6868</ele>
        <time>2021-07-19T10:36:15Z</time>
      </trkpt>
      <trkpt lat="45.42007" lon="4.69583">
        <ele>333.23877</ele>
        <time>2021-07-19T10:36:16Z</time>
      </trkpt>
      <trkpt lat="45.42009" lon="4.69598">
        <ele>332.4725</ele>
        <time>2021-07-19T10:36:17Z</time>
      </trkpt>
      <trkpt lat="45.42012" lon="4.69612">
        <ele>332.74203</ele>
        <time>2021-07-19T10:36:18Z</time>
      </trkpt>
      <trkpt lat="45.42014" lon="4.69627">
        <ele>332.01276</ele>
        <time>2021-07-19T10:36:19Z</time>
      </trkpt>
      <trkpt lat="45.42016" lon="4.69642">
        <ele>331.76965</ele>
        <time>2021-07-19T10:36:20Z</time>
      </trkpt>
      <trkpt lat="45.42018" lon="4.69657">
        <ele>331.04037</ele>
        <time>2021-07-19T10:36:21Z</time>
      </trkpt>
      <trkpt lat="45.42021" lon="4.69671">
        <ele>330.4115</ele>
        <time>2021-07-19T10:36:22Z</time>
      </trkpt>
      <trkpt lat="45.42024" lon="4.69685">
        <ele>329.8302</ele>
        <time>2021-07-19T10:36:23Z</time>
      </trkpt>
      <trkpt lat="45.42027" lon="4.69698">
        <ele>329.54483</ele>
        <time>2021-07-19T10:36:24Z</time>
      </trkpt>
      <trkpt lat="45.42031" lon="4.69711">
        <ele>329.36514</ele>
        <time>2021-07-19T10:36:25Z</time>
      </trkpt>
      <trkpt lat="45.42034" lon="4.69724">
        <ele>329.30173</ele>
        <time>2021-07-19T10:36:26Z</time>
      </trkpt>
      <trkpt lat="45.42037" lon="4.69737">
        <ele>329.0375</ele>
        <time>2021-07-19T10:36:27Z</time>
      </trkpt>
      <trkpt lat="45.42041" lon="4.6975">
        <ele>328.63586</ele>
        <time>2021-07-19T10:36:28Z</time>
      </trkpt>
      <trkpt lat="45.42044" lon="4.69762">
        <ele>328.68344</ele>
        <time>2021-07-19T10:36:29Z</time>
      </trkpt>
      <trkpt lat="45.42047" lon="4.69775">
        <ele>328.4932</ele>
        <time>2021-07-19T10:36:30Z</time>
      </trkpt>
      <trkpt lat="45.42049" lon="4.69787">
        <ele>328.62003</ele>
        <time>2021-07-19T10:36:31Z</time>
      </trkpt>
      <trkpt lat="45.42052" lon="4.698">
        <ele>328.68344</ele>
        <time>2021-07-19T10:36:32Z</time>
      </trkpt>
      <trkpt lat="45.42055" lon="4.69812">
        <ele>327.92245</ele>
        <time>2021-07-19T10:36:33Z</time>
      </trkpt>
      <trkpt lat="45.42056" lon="4.69824">
        <ele>327.5578</ele>
        <time>2021-07-19T10:36:34Z</time>
      </trkpt>
      <trkpt lat="45.42057" lon="4.69836">
        <ele>326.95007</ele>
        <time>2021-07-19T10:36:35Z</time>
      </trkpt>
      <trkpt lat="45.42057" lon="4.69849">
        <ele>326.15738</ele>
        <time>2021-07-19T10:36:36Z</time>
      </trkpt>
      <trkpt lat="45.42057" lon="4.69862">
        <ele>325.909</ele>
        <time>2021-07-19T10:36:37Z</time>
      </trkpt>
      <trkpt lat="45.42056" lon="4.69875">
        <ele>325.34882</ele>
        <time>2021-07-19T10:36:38Z</time>
      </trkpt>
      <trkpt lat="45.42055" lon="4.69888">
        <ele>324.5931</ele>
        <time>2021-07-19T10:36:39Z</time>
      </trkpt>
      <trkpt lat="45.42053" lon="4.69901">
        <ele>324.05408</ele>
        <time>2021-07-19T10:36:40Z</time>
      </trkpt>
      <trkpt lat="45.42051" lon="4.69914">
        <ele>323.4358</ele>
        <time>2021-07-19T10:36:41Z</time>
      </trkpt>
      <trkpt lat="45.42048" lon="4.69928">
        <ele>322.98132</ele>
        <time>2021-07-19T10:36:42Z</time>
      </trkpt>
      <trkpt lat="45.42044" lon="4.69942">
        <ele>322.65894</ele>
        <time>2021-07-19T10:36:43Z</time>
      </trkpt>
      <trkpt lat="45.42042" lon="4.69956">
        <ele>322.6431</ele>
        <time>2021-07-19T10:36:44Z</time>
      </trkpt>
      <trkpt lat="45.4204" lon="4.69971">
        <ele>322.35245</ele>
        <time>2021-07-19T10:36:45Z</time>
      </trkpt>
      <trkpt lat="45.42037" lon="4.69986">
        <ele>321.92438</ele>
        <time>2021-07-19T10:36:46Z</time>
      </trkpt>
      <trkpt lat="45.42034" lon="4.70001">
        <ele>321.60202</ele>
        <time>2021-07-19T10:36:47Z</time>
      </trkpt>
      <trkpt lat="45.42031" lon="4.70016">
        <ele>320.83572</ele>
        <time>2021-07-19T10:36:48Z</time>
      </trkpt>
      <trkpt lat="45.42027" lon="4.70031">
        <ele>320.63492</ele>
        <time>2021-07-19T10:36:49Z</time>
      </trkpt>
      <trkpt lat="45.42024" lon="4.70046">
        <ele>320.1276</ele>
        <time>2021-07-19T10:36:50Z</time>
      </trkpt>
      <trkpt lat="45.42021" lon="4.70062">
        <ele>319.65198</ele>
        <time>2021-07-19T10:36:51Z</time>
      </trkpt>
      <trkpt lat="45.42018" lon="4.70077">
        <ele>319.0231</ele>
        <time>2021-07-19T10:36:52Z</time>
      </trkpt>
      <trkpt lat="45.42014" lon="4.70092">
        <ele>318.6426</ele>
        <time>2021-07-19T10:36:53Z</time>
      </trkpt>
      <trkpt lat="45.42009" lon="4.70107">
        <ele>317.80762</ele>
        <time>2021-07-19T10:36:54Z</time>
      </trkpt>
      <trkpt lat="45.42004" lon="4.70121">
        <ele>316.80884</ele>
        <time>2021-07-19T10:36:55Z</time>
      </trkpt>
      <trkpt lat="45.41997" lon="4.70134">
        <ele>316.2751</ele>
        <time>2021-07-19T10:36:56Z</time>
      </trkpt>
      <trkpt lat="45.4199" lon="4.70146">
        <ele>315.87347</ele>
        <time>2021-07-19T10:36:57Z</time>
      </trkpt>
      <trkpt lat="45.41982" lon="4.70158">
        <ele>315.81006</ele>
        <time>2021-07-19T10:36:58Z</time>
      </trkpt>
      <trkpt lat="45.41975" lon="4.70171">
        <ele>314.3885</ele>
        <time>2021-07-19T10:36:59Z</time>
      </trkpt>
      <trkpt lat="45.41967" lon="4.70184">
        <ele>313.74374</ele>
        <time>2021-07-19T10:37:00Z</time>
      </trkpt>
      <trkpt lat="45.41959" lon="4.70197">
        <ele>313.60635</ele>
        <time>2021-07-19T10:37:01Z</time>
      </trkpt>
      <trkpt lat="45.4195" lon="4.70209">
        <ele>312.65512</ele>
        <time>2021-07-19T10:37:02Z</time>
      </trkpt>
      <trkpt lat="45.41943" lon="4.70221">
        <ele>311.77258</ele>
        <time>2021-07-19T10:37:03Z</time>
      </trkpt>
      <trkpt lat="45.41934" lon="4.70233">
        <ele>311.32867</ele>
        <time>2021-07-19T10:37:04Z</time>
      </trkpt>
      <trkpt lat="45.41926" lon="4.70244">
        <ele>310.7368</ele>
        <time>2021-07-19T10:37:05Z</time>
      </trkpt>
      <trkpt lat="45.41918" lon="4.70257">
        <ele>310.2982</ele>
        <time>2021-07-19T10:37:06Z</time>
      </trkpt>
      <trkpt lat="45.4191" lon="4.7027">
        <ele>309.98108</ele>
        <time>2021-07-19T10:37:07Z</time>
      </trkpt>
      <trkpt lat="45.41902" lon="4.70283">
        <ele>308.96115</ele>
        <time>2021-07-19T10:37:08Z</time>
      </trkpt>
      <trkpt lat="45.41894" lon="4.70296">
        <ele>309.04572</ele>
        <time>2021-07-19T10:37:09Z</time>
      </trkpt>
      <trkpt lat="45.41886" lon="4.70308">
        <ele>307.89365</ele>
        <time>2021-07-19T10:37:10Z</time>
      </trkpt>
      <trkpt lat="45.41878" lon="4.70321">
        <ele>307.23306</ele>
        <time>2021-07-19T10:37:11Z</time>
      </trkpt>
      <trkpt lat="45.41871" lon="4.70334">
        <ele>306.55664</ele>
        <time>2021-07-19T10:37:12Z</time>
      </trkpt>
      <trkpt lat="45.41862" lon="4.70346">
        <ele>306.0176</ele>
        <time>2021-07-19T10:37:13Z</time>
      </trkpt>
      <trkpt lat="45.41853" lon="4.70358">
        <ele>305.95947</ele>
        <time>2021-07-19T10:37:14Z</time>
      </trkpt>
      <trkpt lat="45.41844" lon="4.70369">
        <ele>305.53143</ele>
        <time>2021-07-19T10:37:15Z</time>
      </trkpt>
      <trkpt lat="45.41834" lon="4.70379">
        <ele>304.68588</ele>
        <time>2021-07-19T10:37:16Z</time>
      </trkpt>
      <trkpt lat="45.41823" lon="4.70388">
        <ele>303.6871</ele>
        <time>2021-07-19T10:37:17Z</time>
      </trkpt>
      <trkpt lat="45.41812" lon="4.70398">
        <ele>303.17975</ele>
        <time>2021-07-19T10:37:18Z</time>
      </trkpt>
      <trkpt lat="45.41802" lon="4.70406">
        <ele>302.3342</ele>
        <time>2021-07-19T10:37:19Z</time>
      </trkpt>
      <trkpt lat="45.4179" lon="4.70415">
        <ele>302.2444</ele>
        <time>2021-07-19T10:37:20Z</time>
      </trkpt>
      <trkpt lat="45.41779" lon="4.70423">
        <ele>301.53625</ele>
        <time>2021-07-19T10:37:21Z</time>
      </trkpt>
      <trkpt lat="45.41769" lon="4.70431">
        <ele>300.97076</ele>
        <time>2021-07-19T10:37:22Z</time>
      </trkpt>
      <trkpt lat="45.41757" lon="4.70439">
        <ele>300.39474</ele>
        <time>2021-07-19T10:37:23Z</time>
      </trkpt>
      <trkpt lat="45.41745" lon="4.70448">
        <ele>299.56506</ele>
        <time>2021-07-19T10:37:24Z</time>
      </trkpt>
      <trkpt lat="45.41734" lon="4.70456">
        <ele>298.7301</ele>
        <time>2021-07-19T10:37:25Z</time>
      </trkpt>
      <trkpt lat="45.41722" lon="4.70465">
        <ele>297.88455</ele>
        <time>2021-07-19T10:37:26Z</time>
      </trkpt>
      <trkpt lat="45.4171" lon="4.70474">
        <ele>297.72073</ele>
        <time>2021-07-19T10:37:27Z</time>
      </trkpt>
      <trkpt lat="45.41698" lon="4.70482">
        <ele>296.43127</ele>
        <time>2021-07-19T10:37:28Z</time>
      </trkpt>
      <trkpt lat="45.41685" lon="4.70488">
        <ele>295.69672</ele>
        <time>2021-07-19T10:37:29Z</time>
      </trkpt>
      <trkpt lat="45.41673" lon="4.70495">
        <ele>294.70322</ele>
        <time>2021-07-19T10:37:30Z</time>
      </trkpt>
      <trkpt lat="45.41661" lon="4.70506">
        <ele>293.60928</ele>
        <time>2021-07-19T10:37:31Z</time>
      </trkpt>
      <trkpt lat="45.41649" lon="4.70516">
        <ele>292.33038</ele>
        <time>2021-07-19T10:37:32Z</time>
      </trkpt>
      <trkpt lat="45.41636" lon="4.70525">
        <ele>292.09787</ele>
        <time>2021-07-19T10:37:33Z</time>
      </trkpt>
      <trkpt lat="45.41624" lon="4.70537">
        <ele>291.55356</ele>
        <time>2021-07-19T10:37:34Z</time>
      </trkpt>
      <trkpt lat="45.41612" lon="4.70548">
        <ele>290.26938</ele>
        <time>2021-07-19T10:37:35Z</time>
      </trkpt>
      <trkpt lat="45.41601" lon="4.70562">
        <ele>289.48196</ele>
        <time>2021-07-19T10:37:36Z</time>
      </trkpt>
      <trkpt lat="45.41592" lon="4.70578">
        <ele>288.6153</ele>
        <time>2021-07-19T10:37:37Z</time>
      </trkpt>
      <trkpt lat="45.41584" lon="4.70595">
        <ele>287.24658</ele>
        <time>2021-07-19T10:37:38Z</time>
      </trkpt>
      <trkpt lat="45.41578" lon="4.70615">
        <ele>286.33762</ele>
        <time>2021-07-19T10:37:39Z</time>
      </trkpt>
      <trkpt lat="45.41573" lon="4.70634">
        <ele>285.25424</ele>
        <time>2021-07-19T10:37:40Z</time>
      </trkpt>
      <trkpt lat="45.41569" lon="4.70655">
        <ele>284.11807</ele>
        <time>2021-07-19T10:37:41Z</time>
      </trkpt>
      <trkpt lat="45.41567" lon="4.70676">
        <ele>282.74933</ele>
        <time>2021-07-19T10:37:42Z</time>
      </trkpt>
      <trkpt lat="45.41565" lon="4.70698">
        <ele>281.91965</ele>
        <time>2021-07-19T10:37:43Z</time>
      </trkpt>
      <trkpt lat="45.41563" lon="4.7072">
        <ele>281.21152</ele>
        <time>2021-07-19T10:37:44Z</time>
      </trkpt>
      <trkpt lat="45.41561" lon="4.70741">
        <ele>280.71475</ele>
        <time>2021-07-19T10:37:45Z</time>
      </trkpt>
      <trkpt lat="45.4156" lon="4.70762">
        <ele>278.98666</ele>
        <time>2021-07-19T10:37:46Z</time>
      </trkpt>
      <trkpt lat="45.41559" lon="4.70783">
        <ele>278.44763</ele>
        <time>2021-07-19T10:37:47Z</time>
      </trkpt>
      <trkpt lat="45.41557" lon="4.70804">
        <ele>277.18988</ele>
        <time>2021-07-19T10:37:48Z</time>
      </trkpt>
      <trkpt lat="45.41556" lon="4.70825">
        <ele>276.21753</ele>
        <time>2021-07-19T10:37:49Z</time>
      </trkpt>
      <trkpt lat="45.41553" lon="4.70845">
        <ele>275.28214</ele>
        <time>2021-07-19T10:37:50Z</time>
      </trkpt>
      <trkpt lat="45.41549" lon="4.70865">
        <ele>274.42075</ele>
        <time>2021-07-19T10:37:51Z</time>
      </trkpt>
      <trkpt lat="45.41543" lon="4.70885">
        <ele>274.21994</ele>
        <time>2021-07-19T10:37:52Z</time>
      </trkpt>
      <trkpt lat="45.41538" lon="4.70904">
        <ele>272.19064</ele>
        <time>2021-07-19T10:37:53Z</time>
      </trkpt>
      <trkpt lat="45.41533" lon="4.70923">
        <ele>270.88004</ele>
        <time>2021-07-19T10:37:54Z</time>
      </trkpt>
      <trkpt lat="45.41529" lon="4.7094">
        <ele>271.01215</ele>
        <time>2021-07-19T10:37:55Z</time>
      </trkpt>
      <trkpt lat="45.41527" lon="4.70958">
        <ele>270.84305</ele>
        <time>2021-07-19T10:37:56Z</time>
      </trkpt>
      <trkpt lat="45.41528" lon="4.70976">
        <ele>270.42557</ele>
        <time>2021-07-19T10:37:57Z</time>
      </trkpt>
      <trkpt lat="45.41533" lon="4.70992">
        <ele>269.53244</ele>
        <time>2021-07-19T10:37:58Z</time>
      </trkpt>
      <trkpt lat="45.41541" lon="4.71004">
        <ele>268.73447</ele>
        <time>2021-07-19T10:37:59Z</time>
      </trkpt>
      <trkpt lat="45.41551" lon="4.71013">
        <ele>268.32758</ele>
        <time>2021-07-19T10:38:00Z</time>
      </trkpt>
      <trkpt lat="45.41562" lon="4.71018">
        <ele>266.906</ele>
        <time>2021-07-19T10:38:01Z</time>
      </trkpt>
      <trkpt lat="45.41575" lon="4.71018">
        <ele>265.51083</ele>
        <time>2021-07-19T10:38:02Z</time>
      </trkpt>
      <trkpt lat="45.41587" lon="4.71016">
        <ele>264.71286</ele>
        <time>2021-07-19T10:38:03Z</time>
      </trkpt>
      <trkpt lat="45.416" lon="4.71011">
        <ele>263.8726</ele>
        <time>2021-07-19T10:38:04Z</time>
      </trkpt>
      <trkpt lat="45.41611" lon="4.71002">
        <ele>262.84738</ele>
        <time>2021-07-19T10:38:05Z</time>
      </trkpt>
      <trkpt lat="45.4162" lon="4.70988">
        <ele>262.92667</ele>
        <time>2021-07-19T10:38:06Z</time>
      </trkpt>
      <trkpt lat="45.41626" lon="4.70972">
        <ele>261.86444</ele>
        <time>2021-07-19T10:38:07Z</time>
      </trkpt>
      <trkpt lat="45.41632" lon="4.70956">
        <ele>260.4323</ele>
        <time>2021-07-19T10:38:08Z</time>
      </trkpt>
      <trkpt lat="45.41637" lon="4.7094">
        <ele>259.44937</ele>
        <time>2021-07-19T10:38:09Z</time>
      </trkpt>
      <trkpt lat="45.41643" lon="4.70925">
        <ele>258.5404</ele>
        <time>2021-07-19T10:38:10Z</time>
      </trkpt>
      <trkpt lat="45.4165" lon="4.7091">
        <ele>257.8164</ele>
        <time>2021-07-19T10:38:11Z</time>
      </trkpt>
      <trkpt lat="45.41658" lon="4.70897">
        <ele>258.29202</ele>
        <time>2021-07-19T10:38:12Z</time>
      </trkpt>
      <trkpt lat="45.41668" lon="4.70888">
        <ele>258.1969</ele>
        <time>2021-07-19T10:38:13Z</time>
      </trkpt>
      <trkpt lat="45.41678" lon="4.70879">
        <ele>256.74362</ele>
        <time>2021-07-19T10:38:14Z</time>
      </trkpt>
      <trkpt lat="45.41689" lon="4.7087">
        <ele>255.88223</ele>
        <time>2021-07-19T10:38:15Z</time>
      </trkpt>
      <trkpt lat="45.417" lon="4.70861">
        <ele>255.08426</ele>
        <time>2021-07-19T10:38:16Z</time>
      </trkpt>
      <trkpt lat="45.4171" lon="4.70852">
        <ele>254.63506</ele>
        <time>2021-07-19T10:38:17Z</time>
      </trkpt>
      <trkpt lat="45.41721" lon="4.70843">
        <ele>254.12773</ele>
        <time>2021-07-19T10:38:18Z</time>
      </trkpt>
      <trkpt lat="45.41731" lon="4.70835">
        <ele>252.833</ele>
        <time>2021-07-19T10:38:19Z</time>
      </trkpt>
      <trkpt lat="45.41742" lon="4.70827">
        <ele>253.25049</ele>
        <time>2021-07-19T10:38:20Z</time>
      </trkpt>
      <trkpt lat="45.41753" lon="4.70817">
        <ele>252.26225</ele>
        <time>2021-07-19T10:38:21Z</time>
      </trkpt>
      <trkpt lat="45.41763" lon="4.70807">
        <ele>251.24232</ele>
        <time>2021-07-19T10:38:22Z</time>
      </trkpt>
      <trkpt lat="45.41773" lon="4.70794">
        <ele>249.94759</ele>
        <time>2021-07-19T10:38:23Z</time>
      </trkpt>
      <trkpt lat="45.41781" lon="4.70781">
        <ele>249.16545</ele>
        <time>2021-07-19T10:38:24Z</time>
      </trkpt>
      <trkpt lat="45.41788" lon="4.70765">
        <ele>248.0451</ele>
        <time>2021-07-19T10:38:25Z</time>
      </trkpt>
      <trkpt lat="45.41795" lon="4.7075">
        <ele>246.63939</ele>
        <time>2021-07-19T10:38:26Z</time>
      </trkpt>
      <trkpt lat="45.41803" lon="4.70736">
        <ele>245.93126</ele>
        <time>2021-07-19T10:38:27Z</time>
      </trkpt>
      <trkpt lat="45.4181" lon="4.7072">
        <ele>245.10158</ele>
        <time>2021-07-19T10:38:28Z</time>
      </trkpt>
      <trkpt lat="45.41822" lon="4.70705">
        <ele>244.84792</ele>
        <time>2021-07-19T10:38:29Z</time>
      </trkpt>
      <trkpt lat="45.41831" lon="4.70689">
        <ele>244.10806</ele>
        <time>2021-07-19T10:38:30Z</time>
      </trkpt>
      <trkpt lat="45.41839" lon="4.70674">
        <ele>243.22551</ele>
        <time>2021-07-19T10:38:31Z</time>
      </trkpt>
      <trkpt lat="45.41845" lon="4.70657">
        <ele>242.0999</ele>
        <time>2021-07-19T10:38:32Z</time>
      </trkpt>
      <trkpt lat="45.4185" lon="4.70644">
        <ele>241.24377</ele>
        <time>2021-07-19T10:38:33Z</time>
      </trkpt>
      <trkpt lat="45.41855" lon="4.70632">
        <ele>240.90027</ele>
        <time>2021-07-19T10:38:34Z</time>
      </trkpt>
      <trkpt lat="45.41858" lon="4.70621">
        <ele>239.86977</ele>
        <time>2021-07-19T10:38:35Z</time>
      </trkpt>
      <trkpt lat="45.41862" lon="4.70612">
        <ele>239.15106</ele>
        <time>2021-07-19T10:38:36Z</time>
      </trkpt>
      <trkpt lat="45.41866" lon="4.70606">
        <ele>238.65959</ele>
        <time>2021-07-19T10:38:37Z</time>
      </trkpt>
      <trkpt lat="45.41872" lon="4.70606">
        <ele>238.44293</ele>
        <time>2021-07-19T10:38:38Z</time>
      </trkpt>
      <trkpt lat="45.4188" lon="4.7061">
        <ele>238.28966</ele>
        <time>2021-07-19T10:38:39Z</time>
      </trkpt>
      <trkpt lat="45.41888" lon="4.70619">
        <ele>237.6555</ele>
        <time>2021-07-19T10:38:40Z</time>
      </trkpt>
      <trkpt lat="45.4189" lon="4.7063">
        <ele>237.15875</ele>
        <time>2021-07-19T10:38:41Z</time>
      </trkpt>
      <trkpt lat="45.41885" lon="4.70642">
        <ele>236.67256</ele>
        <time>2021-07-19T10:38:42Z</time>
      </trkpt>
      <trkpt lat="45.41882" lon="4.70654">
        <ele>236.53517</ele>
        <time>2021-07-19T10:38:43Z</time>
      </trkpt>
      <trkpt lat="45.41879" lon="4.70668">
        <ele>236.36606</ele>
        <time>2021-07-19T10:38:44Z</time>
      </trkpt>
      <trkpt lat="45.41879" lon="4.70681">
        <ele>235.8376</ele>
        <time>2021-07-19T10:38:45Z</time>
      </trkpt>
      <trkpt lat="45.41874" lon="4.707">
        <ele>236.24979</ele>
        <time>2021-07-19T10:38:46Z</time>
      </trkpt>
      <trkpt lat="45.41869" lon="4.70717">
        <ele>235.64734</ele>
        <time>2021-07-19T10:38:47Z</time>
      </trkpt>
      <trkpt lat="45.41869" lon="4.7073">
        <ele>235.84816</ele>
        <time>2021-07-19T10:38:48Z</time>
      </trkpt>
      <trkpt lat="45.4187" lon="4.70742">
        <ele>235.68434</ele>
        <time>2021-07-19T10:38:49Z</time>
      </trkpt>
      <trkpt lat="45.41873" lon="4.70752">
        <ele>235.22458</ele>
        <time>2021-07-19T10:38:50Z</time>
      </trkpt>
      <trkpt lat="45.41876" lon="4.70763">
        <ele>234.10953</ele>
        <time>2021-07-19T10:38:51Z</time>
      </trkpt>
      <trkpt lat="45.41876" lon="4.70773">
        <ele>232.43958</ele>
        <time>2021-07-19T10:38:52Z</time>
      </trkpt>
      <trkpt lat="45.41875" lon="4.70786">
        <ele>231.8107</ele>
        <time>2021-07-19T10:38:53Z</time>
      </trkpt>
      <trkpt lat="45.41871" lon="4.70803">
        <ele>231.11313</ele>
        <time>2021-07-19T10:38:54Z</time>
      </trkpt>
      <trkpt lat="45.4186" lon="4.70821">
        <ele>229.99808</ele>
        <time>2021-07-19T10:38:55Z</time>
      </trkpt>
      <trkpt lat="45.41843" lon="4.70839">
        <ele>229.3639</ele>
        <time>2021-07-19T10:38:56Z</time>
      </trkpt>
      <trkpt lat="45.41837" lon="4.70855">
        <ele>228.60292</ele>
        <time>2021-07-19T10:38:57Z</time>
      </trkpt>
      <trkpt lat="45.41834" lon="4.70869">
        <ele>227.56186</ele>
        <time>2021-07-19T10:38:58Z</time>
      </trkpt>
      <trkpt lat="45.41827" lon="4.70881">
        <ele>226.98053</ele>
        <time>2021-07-19T10:38:59Z</time>
      </trkpt>
      <trkpt lat="45.4182" lon="4.70891">
        <ele>226.02402</ele>
        <time>2021-07-19T10:39:00Z</time>
      </trkpt>
      <trkpt lat="45.41805" lon="4.70896">
        <ele>225.84962</ele>
        <time>2021-07-19T10:39:01Z</time>
      </trkpt>
      <trkpt lat="45.41791" lon="4.70907">
        <ele>225.58012</ele>
        <time>2021-07-19T10:39:02Z</time>
      </trkpt>
      <trkpt lat="45.41783" lon="4.70922">
        <ele>224.87198</ele>
        <time>2021-07-19T10:39:03Z</time>
      </trkpt>
      <trkpt lat="45.41772" lon="4.70935">
        <ele>225.08865</ele>
        <time>2021-07-19T10:39:04Z</time>
      </trkpt>
      <trkpt lat="45.41758" lon="4.70949">
        <ele>224.45978</ele>
        <time>2021-07-19T10:39:05Z</time>
      </trkpt>
      <trkpt lat="45.41749" lon="4.70965">
        <ele>223.77277</ele>
        <time>2021-07-19T10:39:06Z</time>
      </trkpt>
      <trkpt lat="45.41742" lon="4.70984">
        <ele>222.50444</ele>
        <time>2021-07-19T10:39:07Z</time>
      </trkpt>
      <trkpt lat="45.41734" lon="4.71002">
        <ele>221.5268</ele>
        <time>2021-07-19T10:39:08Z</time>
      </trkpt>
      <trkpt lat="45.41727" lon="4.71021">
        <ele>221.19386</ele>
        <time>2021-07-19T10:39:09Z</time>
      </trkpt>
      <trkpt lat="45.41725" lon="4.7104">
        <ele>220.13693</ele>
        <time>2021-07-19T10:39:10Z</time>
      </trkpt>
      <trkpt lat="45.41717" lon="4.71058">
        <ele>219.23325</ele>
        <time>2021-07-19T10:39:11Z</time>
      </trkpt>
      <trkpt lat="45.4171" lon="4.71076">
        <ele>219.05357</ele>
        <time>2021-07-19T10:39:12Z</time>
      </trkpt>
      <trkpt lat="45.41703" lon="4.71094">
        <ele>217.4312</ele>
        <time>2021-07-19T10:39:13Z</time>
      </trkpt>
      <trkpt lat="45.41696" lon="4.71111">
        <ele>216.9503</ele>
        <time>2021-07-19T10:39:14Z</time>
      </trkpt>
      <trkpt lat="45.41687" lon="4.71126">
        <ele>216.3637</ele>
        <time>2021-07-19T10:39:15Z</time>
      </trkpt>
      <trkpt lat="45.41678" lon="4.7114">
        <ele>215.69783</ele>
        <time>2021-07-19T10:39:16Z</time>
      </trkpt>
      <trkpt lat="45.41668" lon="4.71155">
        <ele>214.51408</ele>
        <time>2021-07-19T10:39:17Z</time>
      </trkpt>
      <trkpt lat="45.41657" lon="4.71167">
        <ele>213.74252</ele>
        <time>2021-07-19T10:39:18Z</time>
      </trkpt>
      <trkpt lat="45.41645" lon="4.71178">
        <ele>212.62746</ele>
        <time>2021-07-19T10:39:19Z</time>
      </trkpt>
      <trkpt lat="45.41634" lon="4.71186">
        <ele>211.4437</ele>
        <time>2021-07-19T10:39:20Z</time>
      </trkpt>
      <trkpt lat="45.41621" lon="4.71191">
        <ele>210.27579</ele>
        <time>2021-07-19T10:39:21Z</time>
      </trkpt>
      <trkpt lat="45.41606" lon="4.71194">
        <ele>210.32336</ele>
        <time>2021-07-19T10:39:22Z</time>
      </trkpt>
      <trkpt lat="45.41589" lon="4.71197">
        <ele>210.19653</ele>
        <time>2021-07-19T10:39:23Z</time>
      </trkpt>
      <trkpt lat="45.41575" lon="4.71206">
        <ele>209.22415</ele>
        <time>2021-07-19T10:39:24Z</time>
      </trkpt>
      <trkpt lat="45.41563" lon="4.71219">
        <ele>208.69568</ele>
        <time>2021-07-19T10:39:25Z</time>
      </trkpt>
      <trkpt lat="45.41554" lon="4.71233">
        <ele>207.24242</ele>
        <time>2021-07-19T10:39:26Z</time>
      </trkpt>
      <trkpt lat="45.41547" lon="4.71249">
        <ele>206.2489</ele>
        <time>2021-07-19T10:39:27Z</time>
      </trkpt>
      <trkpt lat="45.4154" lon="4.71267">
        <ele>206.23306</ele>
        <time>2021-07-19T10:39:28Z</time>
      </trkpt>
      <trkpt lat="45.41535" lon="4.71284">
        <ele>205.29767</ele>
        <time>2021-07-19T10:39:29Z</time>
      </trkpt>
      <trkpt lat="45.41528" lon="4.713">
        <ele>203.17853</ele>
        <time>2021-07-19T10:39:30Z</time>
      </trkpt>
      <trkpt lat="45.4152" lon="4.71316">
        <ele>201.84152</ele>
        <time>2021-07-19T10:39:31Z</time>
      </trkpt>
      <trkpt lat="45.41513" lon="4.71331">
        <ele>201.31305</ele>
        <time>2021-07-19T10:39:32Z</time>
      </trkpt>
      <trkpt lat="45.41505" lon="4.71344">
        <ele>200.46223</ele>
        <time>2021-07-19T10:39:33Z</time>
      </trkpt>
      <trkpt lat="45.41496" lon="4.71355">
        <ele>199.7435</ele>
        <time>2021-07-19T10:39:34Z</time>
      </trkpt>
      <trkpt lat="45.41485" lon="4.71362">
        <ele>198.32722</ele>
        <time>2021-07-19T10:39:35Z</time>
      </trkpt>
      <trkpt lat="45.41473" lon="4.71367">
        <ele>197.6138</ele>
        <time>2021-07-19T10:39:36Z</time>
      </trkpt>
      <trkpt lat="45.41459" lon="4.71366">
        <ele>195.02432</ele>
        <time>2021-07-19T10:39:37Z</time>
      </trkpt>
      <trkpt lat="45.41449" lon="4.71361">
        <ele>194.71782</ele>
        <time>2021-07-19T10:39:38Z</time>
      </trkpt>
      <trkpt lat="45.41439" lon="4.71351">
        <ele>193.75601</ele>
        <time>2021-07-19T10:39:39Z</time>
      </trkpt>
      <trkpt lat="45.41427" lon="4.7134">
        <ele>192.22346</ele>
        <time>2021-07-19T10:39:40Z</time>
      </trkpt>
      <trkpt lat="45.41414" lon="4.71328">
        <ele>192.26047</ele>
        <time>2021-07-19T10:39:41Z</time>
      </trkpt>
      <trkpt lat="45.41401" lon="4.71317">
        <ele>191.7637</ele>
        <time>2021-07-19T10:39:42Z</time>
      </trkpt>
      <trkpt lat="45.41386" lon="4.71304">
        <ele>191.07141</ele>
        <time>2021-07-19T10:39:43Z</time>
      </trkpt>
      <trkpt lat="45.41375" lon="4.71292">
        <ele>190.96573</ele>
        <time>2021-07-19T10:39:44Z</time>
      </trkpt>
      <trkpt lat="45.41367" lon="4.71283">
        <ele>190.81247</ele>
        <time>2021-07-19T10:39:45Z</time>
      </trkpt>
      <trkpt lat="45.4136" lon="4.71281">
        <ele>189.86124</ele>
        <time>2021-07-19T10:39:46Z</time>
      </trkpt>
      <trkpt lat="45.41352" lon="4.71284">
        <ele>189.2852</ele>
        <time>2021-07-19T10:39:47Z</time>
      </trkpt>
      <trkpt lat="45.41348" lon="4.71287">
        <ele>188.47667</ele>
        <time>2021-07-19T10:39:48Z</time>
      </trkpt>
      <trkpt lat="45.4135" lon="4.71296">
        <ele>187.90063</ele>
        <time>2021-07-19T10:39:49Z</time>
      </trkpt>
      <trkpt lat="45.41354" lon="4.71302">
        <ele>187.27704</ele>
        <time>2021-07-19T10:39:50Z</time>
      </trkpt>
      <trkpt lat="45.4136" lon="4.71307">
        <ele>186.90712</ele>
        <time>2021-07-19T10:39:51Z</time>
      </trkpt>
      <trkpt lat="45.41367" lon="4.71313">
        <ele>186.38394</ele>
        <time>2021-07-19T10:39:52Z</time>
      </trkpt>
      <trkpt lat="45.41375" lon="4.7132">
        <ele>185.62297</ele>
        <time>2021-07-19T10:39:53Z</time>
      </trkpt>
      <trkpt lat="45.41384" lon="4.71327">
        <ele>185.25832</ele>
        <time>2021-07-19T10:39:54Z</time>
      </trkpt>
      <trkpt lat="45.41393" lon="4.71334">
        <ele>184.62416</ele>
        <time>2021-07-19T10:39:55Z</time>
      </trkpt>
      <trkpt lat="45.41402" lon="4.71342">
        <ele>184.32294</ele>
        <time>2021-07-19T10:39:56Z</time>
      </trkpt>
      <trkpt lat="45.41411" lon="4.71351">
        <ele>184.28595</ele>
        <time>2021-07-19T10:39:57Z</time>
      </trkpt>
      <trkpt lat="45.4142" lon="4.71362">
        <ele>183.19731</ele>
        <time>2021-07-19T10:39:58Z</time>
      </trkpt>
      <trkpt lat="45.41427" lon="4.71374">
        <ele>181.73346</ele>
        <time>2021-07-19T10:39:59Z</time>
      </trkpt>
      <trkpt lat="45.41431" lon="4.7139">
        <ele>181.48508</ele>
        <time>2021-07-19T10:40:00Z</time>
      </trkpt>
      <trkpt lat="45.41435" lon="4.71406">
        <ele>180.92491</ele>
        <time>2021-07-19T10:40:01Z</time>
      </trkpt>
      <trkpt lat="45.41439" lon="4.71422">
        <ele>180.18506</ele>
        <time>2021-07-19T10:40:02Z</time>
      </trkpt>
      <trkpt lat="45.41444" lon="4.71437">
        <ele>179.04358</ele>
        <time>2021-07-19T10:40:03Z</time>
      </trkpt>
      <trkpt lat="45.41451" lon="4.71451">
        <ele>178.5204</ele>
        <time>2021-07-19T10:40:04Z</time>
      </trkpt>
      <trkpt lat="45.41461" lon="4.71463">
        <ele>177.82811</ele>
        <time>2021-07-19T10:40:05Z</time>
      </trkpt>
      <trkpt lat="45.41473" lon="4.71473">
        <ele>177.08298</ele>
        <time>2021-07-19T10:40:06Z</time>
      </trkpt>
      <trkpt lat="45.41487" lon="4.71482">
        <ele>176.39598</ele>
        <time>2021-07-19T10:40:07Z</time>
      </trkpt>
      <trkpt lat="45.41501" lon="4.71491">
        <ele>175.90979</ele>
        <time>2021-07-19T10:40:08Z</time>
      </trkpt>
      <trkpt lat="45.41513" lon="4.71502">
        <ele>175.22806</ele>
        <time>2021-07-19T10:40:09Z</time>
      </trkpt>
      <trkpt lat="45.41524" lon="4.71513">
        <ele>174.81587</ele>
        <time>2021-07-19T10:40:10Z</time>
      </trkpt>
      <trkpt lat="45.41534" lon="4.71525">
        <ele>174.43008</ele>
        <time>2021-07-19T10:40:11Z</time>
      </trkpt>
      <trkpt lat="45.41543" lon="4.7154">
        <ele>173.97032</ele>
        <time>2021-07-19T10:40:12Z</time>
      </trkpt>
      <trkpt lat="45.41549" lon="4.71558">
        <ele>173.8065</ele>
        <time>2021-07-19T10:40:13Z</time>
      </trkpt>
      <trkpt lat="45.41552" lon="4.71577">
        <ele>172.81827</ele>
        <time>2021-07-19T10:40:14Z</time>
      </trkpt>
      <trkpt lat="45.41549" lon="4.71597">
        <ele>171.89874</ele>
        <time>2021-07-19T10:40:15Z</time>
      </trkpt>
      <trkpt lat="45.41547" lon="4.71617">
        <ele>171.30687</ele>
        <time>2021-07-19T10:40:16Z</time>
      </trkpt>
      <trkpt lat="45.41544" lon="4.71636">
        <ele>170.64629</ele>
        <time>2021-07-19T10:40:17Z</time>
      </trkpt>
      <trkpt lat="45.41542" lon="4.71654">
        <ele>170.15483</ele>
        <time>2021-07-19T10:40:18Z</time>
      </trkpt>
      <trkpt lat="45.41538" lon="4.7167">
        <ele>169.83775</ele>
        <time>2021-07-19T10:40:19Z</time>
      </trkpt>
      <trkpt lat="45.41533" lon="4.71687">
        <ele>169.40439</ele>
        <time>2021-07-19T10:40:20Z</time>
      </trkpt>
      <trkpt lat="45.41527" lon="4.71703">
        <ele>168.66983</ele>
        <time>2021-07-19T10:40:21Z</time>
      </trkpt>
      <trkpt lat="45.4152" lon="4.71718">
        <ele>168.27348</ele>
        <time>2021-07-19T10:40:22Z</time>
      </trkpt>
      <trkpt lat="45.41512" lon="4.71734">
        <ele>167.52835</ele>
        <time>2021-07-19T10:40:23Z</time>
      </trkpt>
      <trkpt lat="45.41502" lon="4.7175">
        <ele>167.53363</ele>
        <time>2021-07-19T10:40:24Z</time>
      </trkpt>
      <trkpt lat="45.41492" lon="4.71765">
        <ele>167.25883</ele>
        <time>2021-07-19T10:40:25Z</time>
      </trkpt>
      <trkpt lat="45.41481" lon="4.71777">
        <ele>166.63525</ele>
        <time>2021-07-19T10:40:26Z</time>
      </trkpt>
      <trkpt lat="45.41469" lon="4.71787">
        <ele>166.01166</ele>
        <time>2021-07-19T10:40:27Z</time>
      </trkpt>
      <trkpt lat="45.41457" lon="4.71796">
        <ele>165.795</ele>
        <time>2021-07-19T10:40:28Z</time>
      </trkpt>
      <trkpt lat="45.41446" lon="4.71804">
        <ele>165.19783</ele>
        <time>2021-07-19T10:40:29Z</time>
      </trkpt>
      <trkpt lat="45.41435" lon="4.71812">
        <ele>165.37222</ele>
        <time>2021-07-19T10:40:30Z</time>
      </trkpt>
      <trkpt lat="45.41423" lon="4.71819">
        <ele>165.16612</ele>
        <time>2021-07-19T10:40:31Z</time>
      </trkpt>
      <trkpt lat="45.41413" lon="4.71828">
        <ele>164.50024</ele>
        <time>2021-07-19T10:40:32Z</time>
      </trkpt>
      <trkpt lat="45.41403" lon="4.71837">
        <ele>163.66527</ele>
        <time>2021-07-19T10:40:33Z</time>
      </trkpt>
      <trkpt lat="45.41394" lon="4.71846">
        <ele>163.0417</ele>
        <time>2021-07-19T10:40:34Z</time>
      </trkpt>
      <trkpt lat="45.41384" lon="4.71854">
        <ele>162.70876</ele>
        <time>2021-07-19T10:40:35Z</time>
      </trkpt>
      <trkpt lat="45.41375" lon="4.71863">
        <ele>162.64006</ele>
        <time>2021-07-19T10:40:36Z</time>
      </trkpt>
      <trkpt lat="45.41366" lon="4.71873">
        <ele>162.35469</ele>
        <time>2021-07-19T10:40:37Z</time>
      </trkpt>
      <trkpt lat="45.41359" lon="4.71884">
        <ele>162.21729</ele>
        <time>2021-07-19T10:40:38Z</time>
      </trkpt>
      <trkpt lat="45.41352" lon="4.71894">
        <ele>162.175</ele>
        <time>2021-07-19T10:40:39Z</time>
      </trkpt>
      <trkpt lat="45.41346" lon="4.71903">
        <ele>161.81566</ele>
        <time>2021-07-19T10:40:40Z</time>
      </trkpt>
      <trkpt lat="45.41344" lon="4.71914">
        <ele>161.29776</ele>
        <time>2021-07-19T10:40:41Z</time>
      </trkpt>
      <trkpt lat="45.41341" lon="4.71927">
        <ele>160.91727</ele>
        <time>2021-07-19T10:40:42Z</time>
      </trkpt>
      <trkpt lat="45.41338" lon="4.7194">
        <ele>160.2197</ele>
        <time>2021-07-19T10:40:43Z</time>
      </trkpt>
      <trkpt lat="45.41335" lon="4.71955">
        <ele>159.7018</ele>
        <time>2021-07-19T10:40:44Z</time>
      </trkpt>
      <trkpt lat="45.4133" lon="4.71968">
        <ele>159.36357</ele>
        <time>2021-07-19T10:40:45Z</time>
      </trkpt>
      <trkpt lat="45.41324" lon="4.71982">
        <ele>159.40057</ele>
        <time>2021-07-19T10:40:46Z</time>
      </trkpt>
      <trkpt lat="45.41317" lon="4.71995">
        <ele>159.32658</ele>
        <time>2021-07-19T10:40:47Z</time>
      </trkpt>
      <trkpt lat="45.41309" lon="4.72008">
        <ele>159.29488</ele>
        <time>2021-07-19T10:40:48Z</time>
      </trkpt>
      <trkpt lat="45.41301" lon="4.7202">
        <ele>159.43756</ele>
        <time>2021-07-19T10:40:49Z</time>
      </trkpt>
      <trkpt lat="45.41294" lon="4.72032">
        <ele>158.86682</ele>
        <time>2021-07-19T10:40:50Z</time>
      </trkpt>
      <trkpt lat="45.41287" lon="4.72044">
        <ele>158.48633</ele>
        <time>2021-07-19T10:40:51Z</time>
      </trkpt>
      <trkpt lat="45.4128" lon="4.72056">
        <ele>158.14812</ele>
        <time>2021-07-19T10:40:52Z</time>
      </trkpt>
      <trkpt lat="45.41275" lon="4.72069">
        <ele>157.37656</ele>
        <time>2021-07-19T10:40:53Z</time>
      </trkpt>
      <trkpt lat="45.4127" lon="4.72084">
        <ele>156.92207</ele>
        <time>2021-07-19T10:40:54Z</time>
      </trkpt>
      <trkpt lat="45.41267" lon="4.72099">
        <ele>156.63672</ele>
        <time>2021-07-19T10:40:55Z</time>
      </trkpt>
      <trkpt lat="45.41265" lon="4.72114">
        <ele>155.94441</ele>
        <time>2021-07-19T10:40:56Z</time>
      </trkpt>
      <trkpt lat="45.41265" lon="4.7213">
        <ele>156.2245</ele>
        <time>2021-07-19T10:40:57Z</time>
      </trkpt>
      <trkpt lat="45.41266" lon="4.72145">
        <ele>156.06598</ele>
        <time>2021-07-19T10:40:58Z</time>
      </trkpt>
      <trkpt lat="45.41269" lon="4.72159">
        <ele>155.7489</ele>
        <time>2021-07-19T10:40:59Z</time>
      </trkpt>
      <trkpt lat="45.41274" lon="4.72172">
        <ele>155.47937</ele>
        <time>2021-07-19T10:41:00Z</time>
      </trkpt>
      <trkpt lat="45.4128" lon="4.72182">
        <ele>155.10416</ele>
        <time>2021-07-19T10:41:01Z</time>
      </trkpt>
      <trkpt lat="45.41287" lon="4.72191">
        <ele>154.46472</ele>
        <time>2021-07-19T10:41:02Z</time>
      </trkpt>
      <trkpt lat="45.41295" lon="4.72199">
        <ele>154.10536</ele>
        <time>2021-07-19T10:41:03Z</time>
      </trkpt>
      <trkpt lat="45.41305" lon="4.72205">
        <ele>154.02611</ele>
        <time>2021-07-19T10:41:04Z</time>
      </trkpt>
      <trkpt lat="45.41315" lon="4.72212">
        <ele>153.68788</ele>
        <time>2021-07-19T10:41:05Z</time>
      </trkpt>
      <trkpt lat="45.41325" lon="4.7222">
        <ele>153.65617</ele>
        <time>2021-07-19T10:41:06Z</time>
      </trkpt>
      <trkpt lat="45.41334" lon="4.72229">
        <ele>153.45007</ele>
        <time>2021-07-19T10:41:07Z</time>
      </trkpt>
      <trkpt lat="45.41341" lon="4.7224">
        <ele>153.14355</ele>
        <time>2021-07-19T10:41:08Z</time>
      </trkpt>
      <trkpt lat="45.41346" lon="4.72252">
        <ele>152.84763</ele>
        <time>2021-07-19T10:41:09Z</time>
      </trkpt>
      <trkpt lat="45.41348" lon="4.72265">
        <ele>152.31387</ele>
        <time>2021-07-19T10:41:10Z</time>
      </trkpt>
      <trkpt lat="45.41347" lon="4.72278">
        <ele>151.76955</ele>
        <time>2021-07-19T10:41:11Z</time>
      </trkpt>
      <trkpt lat="45.41346" lon="4.72291">
        <ele>151.25166</ele>
        <time>2021-07-19T10:41:12Z</time>
      </trkpt>
      <trkpt lat="45.41345" lon="4.72303">
        <ele>151.00328</ele>
        <time>2021-07-19T10:41:13Z</time>
      </trkpt>
      <trkpt lat="45.41343" lon="4.72316">
        <ele>150.76547</ele>
        <time>2021-07-19T10:41:14Z</time>
      </trkpt>
      <trkpt lat="45.41341" lon="4.72329">
        <ele>150.46954</ele>
        <time>2021-07-19T10:41:15Z</time>
      </trkpt>
      <trkpt lat="45.41336" lon="4.72341">
        <ele>150.26872</ele>
        <time>2021-07-19T10:41:16Z</time>
      </trkpt>
      <trkpt lat="45.41332" lon="4.72352">
        <ele>150.2793</ele>
        <time>2021-07-19T10:41:17Z</time>
      </trkpt>
      <trkpt lat="45.41327" lon="4.72362">
        <ele>150.60165</ele>
        <time>2021-07-19T10:41:18Z</time>
      </trkpt>
      <trkpt lat="45.41322" lon="4.72371">
        <ele>149.78253</ele>
        <time>2021-07-19T10:41:19Z</time>
      </trkpt>
      <trkpt lat="45.41318" lon="4.72383">
        <ele>149.77196</ele>
        <time>2021-07-19T10:41:20Z</time>
      </trkpt>
      <trkpt lat="45.41316" lon="4.72396">
        <ele>149.54472</ele>
        <time>2021-07-19T10:41:21Z</time>
      </trkpt>
      <trkpt lat="45.41315" lon="4.72409">
        <ele>148.47722</ele>
        <time>2021-07-19T10:41:22Z</time>
      </trkpt>
      <trkpt lat="45.41316" lon="4.72425">
        <ele>147.99632</ele>
        <time>2021-07-19T10:41:23Z</time>
      </trkpt>
      <trkpt lat="45.41318" lon="4.72438">
        <ele>147.33046</ele>
        <time>2021-07-19T10:41:24Z</time>
      </trkpt>
      <trkpt lat="45.4132" lon="4.72453">
        <ele>146.90768</ele>
        <time>2021-07-19T10:41:25Z</time>
      </trkpt>
      <trkpt lat="45.41322" lon="4.72467">
        <ele>146.79143</ele>
        <time>2021-07-19T10:41:26Z</time>
      </trkpt>
      <trkpt lat="45.41324" lon="4.72481">
        <ele>146.8337</ele>
        <time>2021-07-19T10:41:27Z</time>
      </trkpt>
      <trkpt lat="45.41327" lon="4.72494">
        <ele>146.5642</ele>
        <time>2021-07-19T10:41:28Z</time>
      </trkpt>
      <trkpt lat="45.4133" lon="4.72506">
        <ele>145.93532</ele>
        <time>2021-07-19T10:41:29Z</time>
      </trkpt>
      <trkpt lat="45.41332" lon="4.72519">
        <ele>145.54425</ele>
        <time>2021-07-19T10:41:30Z</time>
      </trkpt>
      <trkpt lat="45.41333" lon="4.72532">
        <ele>144.89952</ele>
        <time>2021-07-19T10:41:31Z</time>
      </trkpt>
      <trkpt lat="45.41335" lon="4.72544">
        <ele>144.71457</ele>
        <time>2021-07-19T10:41:32Z</time>
      </trkpt>
      <trkpt lat="45.41336" lon="4.72557">
        <ele>144.51375</ele>
        <time>2021-07-19T10:41:33Z</time>
      </trkpt>
      <trkpt lat="45.41337" lon="4.7257">
        <ele>144.45033</ele>
        <time>2021-07-19T10:41:34Z</time>
      </trkpt>
      <trkpt lat="45.41339" lon="4.72584">
        <ele>144.05927</ele>
        <time>2021-07-19T10:41:35Z</time>
      </trkpt>
      <trkpt lat="45.41341" lon="4.72598">
        <ele>143.55194</ele>
        <time>2021-07-19T10:41:36Z</time>
      </trkpt>
      <trkpt lat="45.41342" lon="4.72612">
        <ele>143.21901</ele>
        <time>2021-07-19T10:41:37Z</time>
      </trkpt>
      <trkpt lat="45.41344" lon="4.72626">
        <ele>142.54787</ele>
        <time>2021-07-19T10:41:38Z</time>
      </trkpt>
      <trkpt lat="45.41345" lon="4.7264">
        <ele>142.24135</ele>
        <time>2021-07-19T10:41:39Z</time>
      </trkpt>
      <trkpt lat="45.41344" lon="4.72654">
        <ele>141.97183</ele>
        <time>2021-07-19T10:41:40Z</time>
      </trkpt>
      <trkpt lat="45.41342" lon="4.72668">
        <ele>141.49622</ele>
        <time>2021-07-19T10:41:41Z</time>
      </trkpt>
      <trkpt lat="45.4134" lon="4.72681">
        <ele>141.0523</ele>
        <time>2021-07-19T10:41:42Z</time>
      </trkpt>
      <trkpt lat="45.41338" lon="4.72695">
        <ele>140.39172</ele>
        <time>2021-07-19T10:41:43Z</time>
      </trkpt>
      <trkpt lat="45.41337" lon="4.7271">
        <ele>140.25433</ele>
        <time>2021-07-19T10:41:44Z</time>
      </trkpt>
      <trkpt lat="45.41338" lon="4.72724">
        <ele>140.06937</ele>
        <time>2021-07-19T10:41:45Z</time>
      </trkpt>
      <trkpt lat="45.41338" lon="4.72739">
        <ele>139.97424</ele>
        <time>2021-07-19T10:41:46Z</time>
      </trkpt>
      <trkpt lat="45.41339" lon="4.72753">
        <ele>139.31895</ele>
        <time>2021-07-19T10:41:47Z</time>
      </trkpt>
      <trkpt lat="45.41341" lon="4.72767">
        <ele>139.83684</ele>
        <time>2021-07-19T10:41:48Z</time>
      </trkpt>
      <trkpt lat="45.41342" lon="4.7278">
        <ele>140.55556</ele>
        <time>2021-07-19T10:41:49Z</time>
      </trkpt>
      <trkpt lat="45.41343" lon="4.72793">
        <ele>140.44456</ele>
        <time>2021-07-19T10:41:50Z</time>
      </trkpt>
      <trkpt lat="45.41345" lon="4.72806">
        <ele>140.66124</ele>
        <time>2021-07-19T10:41:51Z</time>
      </trkpt>
      <trkpt lat="45.41345" lon="4.72818">
        <ele>139.84212</ele>
        <time>2021-07-19T10:41:52Z</time>
      </trkpt>
      <trkpt lat="45.41346" lon="4.7283">
        <ele>139.64131</ele>
        <time>2021-07-19T10:41:53Z</time>
      </trkpt>
      <trkpt lat="45.41348" lon="4.72842">
        <ele>139.4035</ele>
        <time>2021-07-19T10:41:54Z</time>
      </trkpt>
      <trkpt lat="45.41349" lon="4.72853">
        <ele>138.70593</ele>
        <time>2021-07-19T10:41:55Z</time>
      </trkpt>
      <trkpt lat="45.4135" lon="4.72863">
        <ele>138.04007</ele>
        <time>2021-07-19T10:41:56Z</time>
      </trkpt>
      <trkpt lat="45.41351" lon="4.72874">
        <ele>137.66486</ele>
        <time>2021-07-19T10:41:57Z</time>
      </trkpt>
      <trkpt lat="45.41352" lon="4.72883">
        <ele>137.69656</ele>
        <time>2021-07-19T10:41:58Z</time>
      </trkpt>
      <trkpt lat="45.41353" lon="4.72893">
        <ele>137.65428</ele>
        <time>2021-07-19T10:41:59Z</time>
      </trkpt>
      <trkpt lat="45.41354" lon="4.72903">
        <ele>137.72827</ele>
        <time>2021-07-19T10:42:00Z</time>
      </trkpt>
      <trkpt lat="45.41356" lon="4.72913">
        <ele>137.4059</ele>
        <time>2021-07-19T10:42:01Z</time>
      </trkpt>
      <trkpt lat="45.41357" lon="4.72924">
        <ele>137.49574</ele>
        <time>2021-07-19T10:42:02Z</time>
      </trkpt>
      <trkpt lat="45.41357" lon="4.72933">
        <ele>138.13518</ele>
        <time>2021-07-19T10:42:03Z</time>
      </trkpt>
      <trkpt lat="45.41357" lon="4.72941">
        <ele>136.28555</ele>
        <time>2021-07-19T10:42:04Z</time>
      </trkpt>
      <trkpt lat="45.41356" lon="4.72949">
        <ele>136.00548</ele>
        <time>2021-07-19T10:42:05Z</time>
      </trkpt>
      <trkpt lat="45.41354" lon="4.72958">
        <ele>135.90508</ele>
        <time>2021-07-19T10:42:06Z</time>
      </trkpt>
      <trkpt lat="45.41353" lon="4.72968">
        <ele>135.6514</ele>
        <time>2021-07-19T10:42:07Z</time>
      </trkpt>
      <trkpt lat="45.41351" lon="4.72978">
        <ele>135.14409</ele>
        <time>2021-07-19T10:42:08Z</time>
      </trkpt>
      <trkpt lat="45.41352" lon="4.72989">
        <ele>135.11238</ele>
        <time>2021-07-19T10:42:09Z</time>
      </trkpt>
      <trkpt lat="45.41356" lon="4.73002">
        <ele>134.51521</ele>
        <time>2021-07-19T10:42:10Z</time>
      </trkpt>
      <trkpt lat="45.4136" lon="4.73014">
        <ele>134.12943</ele>
        <time>2021-07-19T10:42:11Z</time>
      </trkpt>
      <trkpt lat="45.41364" lon="4.73025">
        <ele>134.2457</ele>
        <time>2021-07-19T10:42:12Z</time>
      </trkpt>
      <trkpt lat="45.41368" lon="4.73035">
        <ele>133.84406</ele>
        <time>2021-07-19T10:42:13Z</time>
      </trkpt>
      <trkpt lat="45.41372" lon="4.73046">
        <ele>133.55869</ele>
        <time>2021-07-19T10:42:14Z</time>
      </trkpt>
      <trkpt lat="45.41375" lon="4.73057">
        <ele>133.23633</ele>
        <time>2021-07-19T10:42:15Z</time>
      </trkpt>
      <trkpt lat="45.41381" lon="4.7308">
        <ele>132.63388</ele>
        <time>2021-07-19T10:42:16Z</time>
      </trkpt>
      <trkpt lat="45.41381" lon="4.7308">
        <ele>132.63388</ele>
        <time>2021-07-19T10:42:16Z</time>
      </trkpt>
      <trkpt lat="45.41384" lon="4.73091">
        <ele>133.08836</ele>
        <time>2021-07-19T10:42:18Z</time>
      </trkpt>
      <trkpt lat="45.41389" lon="4.7311">
        <ele>131.32329</ele>
        <time>2021-07-19T10:42:19Z</time>
      </trkpt>
      <trkpt lat="45.41389" lon="4.7311">
        <ele>131.32329</ele>
        <time>2021-07-19T10:42:19Z</time>
      </trkpt>
      <trkpt lat="45.41393" lon="4.73117">
        <ele>132.39607</ele>
        <time>2021-07-19T10:42:21Z</time>
      </trkpt>
      <trkpt lat="45.41399" lon="4.73132">
        <ele>132.005</ele>
        <time>2021-07-19T10:42:22Z</time>
      </trkpt>
      <trkpt lat="45.41399" lon="4.73132">
        <ele>132.005</ele>
        <time>2021-07-19T10:42:22Z</time>
      </trkpt>
      <trkpt lat="45.41402" lon="4.73139">
        <ele>131.79361</ele>
        <time>2021-07-19T10:42:24Z</time>
      </trkpt>
      <trkpt lat="45.41405" lon="4.73147">
        <ele>131.49239</ele>
        <time>2021-07-19T10:42:25Z</time>
      </trkpt>
      <trkpt lat="45.41409" lon="4.73165">
        <ele>131.61922</ele>
        <time>2021-07-19T10:42:26Z</time>
      </trkpt>
      <trkpt lat="45.41409" lon="4.73165">
        <ele>131.61922</ele>
        <time>2021-07-19T10:42:26Z</time>
      </trkpt>
      <trkpt lat="45.41413" lon="4.73182">
        <ele>132.29037</ele>
        <time>2021-07-19T10:42:28Z</time>
      </trkpt>
      <trkpt lat="45.41416" lon="4.73191">
        <ele>131.92046</ele>
        <time>2021-07-19T10:42:29Z</time>
      </trkpt>
      <trkpt lat="45.41416" lon="4.73191">
        <ele>131.92046</ele>
        <time>2021-07-19T10:42:29Z</time>
      </trkpt>
      <trkpt lat="45.41422" lon="4.73207">
        <ele>132.09483</ele>
        <time>2021-07-19T10:42:31Z</time>
      </trkpt>
      <trkpt lat="45.41425" lon="4.73215">
        <ele>132.1847</ele>
        <time>2021-07-19T10:42:32Z</time>
      </trkpt>
      <trkpt lat="45.41425" lon="4.73215">
        <ele>132.1847</ele>
        <time>2021-07-19T10:42:32Z</time>
      </trkpt>
      <trkpt lat="45.41431" lon="4.73232">
        <ele>132.43306</ele>
        <time>2021-07-19T10:42:34Z</time>
      </trkpt>
      <trkpt lat="45.41434" lon="4.73239">
        <ele>132.29565</ele>
        <time>2021-07-19T10:42:35Z</time>
      </trkpt>
      <trkpt lat="45.41437" lon="4.73247">
        <ele>132.08427</ele>
        <time>2021-07-19T10:42:36Z</time>
      </trkpt>
      <trkpt lat="45.4144" lon="4.73255">
        <ele>131.68793</ele>
        <time>2021-07-19T10:42:37Z</time>
      </trkpt>
      <trkpt lat="45.41443" lon="4.73262">
        <ele>132.67615</ele>
        <time>2021-07-19T10:42:38Z</time>
      </trkpt>
      <trkpt lat="45.41445" lon="4.73269">
        <ele>132.29037</ele>
        <time>2021-07-19T10:42:39Z</time>
      </trkpt>
      <trkpt lat="45.41448" lon="4.73276">
        <ele>131.95215</ele>
        <time>2021-07-19T10:42:40Z</time>
      </trkpt>
      <trkpt lat="45.41452" lon="4.73284">
        <ele>131.76192</ele>
        <time>2021-07-19T10:42:41Z</time>
      </trkpt>
      <trkpt lat="45.41455" lon="4.73291">
        <ele>132.16354</ele>
        <time>2021-07-19T10:42:42Z</time>
      </trkpt>
      <trkpt lat="45.41458" lon="4.73298">
        <ele>132.64973</ele>
        <time>2021-07-19T10:42:43Z</time>
      </trkpt>
      <trkpt lat="45.4146" lon="4.73305">
        <ele>132.03143</ele>
        <time>2021-07-19T10:42:44Z</time>
      </trkpt>
      <trkpt lat="45.41463" lon="4.73313">
        <ele>132.08955</ele>
        <time>2021-07-19T10:42:45Z</time>
      </trkpt>
      <trkpt lat="45.41465" lon="4.7332">
        <ele>131.74606</ele>
        <time>2021-07-19T10:42:46Z</time>
      </trkpt>
      <trkpt lat="45.41468" lon="4.73328">
        <ele>132.19525</ele>
        <time>2021-07-19T10:42:47Z</time>
      </trkpt>
      <trkpt lat="45.41471" lon="4.73336">
        <ele>132.11069</ele>
        <time>2021-07-19T10:42:48Z</time>
      </trkpt>
      <trkpt lat="45.41474" lon="4.73343">
        <ele>132.15297</ele>
        <time>2021-07-19T10:42:49Z</time>
      </trkpt>
      <trkpt lat="45.41476" lon="4.73351">
        <ele>132.14241</ele>
        <time>2021-07-19T10:42:50Z</time>
      </trkpt>
      <trkpt lat="45.41479" lon="4.73358">
        <ele>132.04199</ele>
        <time>2021-07-19T10:42:51Z</time>
      </trkpt>
      <trkpt lat="45.41482" lon="4.73365">
        <ele>132.20053</ele>
        <time>2021-07-19T10:42:52Z</time>
      </trkpt>
      <trkpt lat="45.41485" lon="4.73372">
        <ele>132.43834</ele>
        <time>2021-07-19T10:42:53Z</time>
      </trkpt>
      <trkpt lat="45.41487" lon="4.7338">
        <ele>132.24281</ele>
        <time>2021-07-19T10:42:54Z</time>
      </trkpt>
      <trkpt lat="45.41489" lon="4.73388">
        <ele>132.21638</ele>
        <time>2021-07-19T10:42:55Z</time>
      </trkpt>
      <trkpt lat="45.41491" lon="4.73396">
        <ele>132.35907</ele>
        <time>2021-07-19T10:42:56Z</time>
      </trkpt>
      <trkpt lat="45.41494" lon="4.73404">
        <ele>132.34323</ele>
        <time>2021-07-19T10:42:57Z</time>
      </trkpt>
      <trkpt lat="45.41496" lon="4.73412">
        <ele>132.10013</ele>
        <time>2021-07-19T10:42:58Z</time>
      </trkpt>
      <trkpt lat="45.41499" lon="4.73419">
        <ele>132.36436</ele>
        <time>2021-07-19T10:42:59Z</time>
      </trkpt>
      <trkpt lat="45.41501" lon="4.73426">
        <ele>132.53346</ele>
        <time>2021-07-19T10:43:00Z</time>
      </trkpt>
      <trkpt lat="45.41503" lon="4.73433">
        <ele>132.52818</ele>
        <time>2021-07-19T10:43:01Z</time>
      </trkpt>
      <trkpt lat="45.41505" lon="4.73442">
        <ele>132.81885</ele>
        <time>2021-07-19T10:43:02Z</time>
      </trkpt>
      <trkpt lat="45.41507" lon="4.73448">
        <ele>132.16884</ele>
        <time>2021-07-19T10:43:03Z</time>
      </trkpt>
      <trkpt lat="45.41509" lon="4.73457">
        <ele>131.8993</ele>
        <time>2021-07-19T10:43:04Z</time>
      </trkpt>
      <trkpt lat="45.41511" lon="4.73464">
        <ele>132.08427</ele>
        <time>2021-07-19T10:43:05Z</time>
      </trkpt>
      <trkpt lat="45.41513" lon="4.73472">
        <ele>132.10541</ele>
        <time>2021-07-19T10:43:06Z</time>
      </trkpt>
      <trkpt lat="45.41514" lon="4.73481">
        <ele>131.355</ele>
        <time>2021-07-19T10:43:07Z</time>
      </trkpt>
      <trkpt lat="45.41516" lon="4.73489">
        <ele>131.281</ele>
        <time>2021-07-19T10:43:08Z</time>
      </trkpt>
      <trkpt lat="45.41518" lon="4.73499">
        <ele>131.09076</ele>
        <time>2021-07-19T10:43:09Z</time>
      </trkpt>
      <trkpt lat="45.4152" lon="4.73508">
        <ele>130.9745</ele>
        <time>2021-07-19T10:43:10Z</time>
      </trkpt>
      <trkpt lat="45.41522" lon="4.73517">
        <ele>131.12247</ele>
        <time>2021-07-19T10:43:11Z</time>
      </trkpt>
      <trkpt lat="45.41525" lon="4.73527">
        <ele>130.29279</ele>
        <time>2021-07-19T10:43:12Z</time>
      </trkpt>
      <trkpt lat="45.41525" lon="4.73536">
        <ele>130.17123</ele>
        <time>2021-07-19T10:43:13Z</time>
      </trkpt>
      <trkpt lat="45.41524" lon="4.73544">
        <ele>130.16068</ele>
        <time>2021-07-19T10:43:14Z</time>
      </trkpt>
      <trkpt lat="45.41522" lon="4.73552">
        <ele>129.84888</ele>
        <time>2021-07-19T10:43:15Z</time>
      </trkpt>
      <trkpt lat="45.41521" lon="4.7356">
        <ele>129.25171</ele>
        <time>2021-07-19T10:43:16Z</time>
      </trkpt>
      <trkpt lat="45.41518" lon="4.73567">
        <ele>128.57527</ele>
        <time>2021-07-19T10:43:17Z</time>
      </trkpt>
      <trkpt lat="45.41513" lon="4.73575">
        <ele>127.71916</ele>
        <time>2021-07-19T10:43:18Z</time>
      </trkpt>
      <trkpt lat="45.41509" lon="4.73581">
        <ele>126.70451</ele>
        <time>2021-07-19T10:43:19Z</time>
      </trkpt>
      <trkpt lat="45.41504" lon="4.73586">
        <ele>125.65815</ele>
        <time>2021-07-19T10:43:20Z</time>
      </trkpt>
      <trkpt lat="45.41498" lon="4.73589">
        <ele>124.85489</ele>
        <time>2021-07-19T10:43:21Z</time>
      </trkpt>
      <trkpt lat="45.41492" lon="4.73591">
        <ele>124.23658</ele>
        <time>2021-07-19T10:43:22Z</time>
      </trkpt>
      <trkpt lat="45.41485" lon="4.73591">
        <ele>123.44917</ele>
        <time>2021-07-19T10:43:23Z</time>
      </trkpt>
      <trkpt lat="45.4148" lon="4.7359">
        <ele>123.32235</ele>
        <time>2021-07-19T10:43:24Z</time>
      </trkpt>
      <trkpt lat="45.41475" lon="4.7359">
        <ele>122.85201</ele>
        <time>2021-07-19T10:43:25Z</time>
      </trkpt>
      <trkpt lat="45.4147" lon="4.7359">
        <ele>122.6142</ele>
        <time>2021-07-19T10:43:26Z</time>
      </trkpt>
      <trkpt lat="45.41464" lon="4.73591">
        <ele>121.8215</ele>
        <time>2021-07-19T10:43:27Z</time>
      </trkpt>
      <trkpt lat="45.4146" lon="4.73592">
        <ele>121.684105</ele>
        <time>2021-07-19T10:43:28Z</time>
      </trkpt>
      <trkpt lat="45.41456" lon="4.73596">
        <ele>121.33532</ele>
        <time>2021-07-19T10:43:29Z</time>
      </trkpt>
      <trkpt lat="45.41454" lon="4.73598">
        <ele>120.96539</ele>
        <time>2021-07-19T10:43:30Z</time>
      </trkpt>
      <trkpt lat="45.41453" lon="4.736">
        <ele>120.727585</ele>
        <time>2021-07-19T10:43:31Z</time>
      </trkpt>
      <trkpt lat="45.41452" lon="4.73601">
        <ele>120.4792</ele>
        <time>2021-07-19T10:43:32Z</time>
      </trkpt>
      <trkpt lat="45.41452" lon="4.73601">
        <ele>120.48978</ele>
        <time>2021-07-19T10:43:33Z</time>
      </trkpt>
      <trkpt lat="45.41452" lon="4.73601">
        <ele>120.51092</ele>
        <time>2021-07-19T10:43:34Z</time>
      </trkpt>
      <trkpt lat="45.41452" lon="4.73601">
        <ele>120.421074</ele>
        <time>2021-07-19T10:43:35Z</time>
      </trkpt>
      <trkpt lat="45.41452" lon="4.73601">
        <ele>120.341805</ele>
        <time>2021-07-19T10:43:36Z</time>
      </trkpt>
      <trkpt lat="45.41452" lon="4.73601">
        <ele>120.394646</ele>
        <time>2021-07-19T10:43:37Z</time>
      </trkpt>
      <trkpt lat="45.41452" lon="4.73601">
        <ele>120.394646</ele>
        <time>2021-07-19T10:43:37Z</time>
      </trkpt>
      <trkpt lat="45.41452" lon="4.73601">
        <ele>120.394646</ele>
        <time>2021-07-19T10:43:37Z</time>
      </trkpt>
      <trkpt lat="45.41443" lon="4.73604">
        <ele>120.310104</ele>
        <time>2021-07-19T10:43:50Z</time>
      </trkpt>
      <trkpt lat="45.41439" lon="4.73605">
        <ele>120.37351</ele>
        <time>2021-07-19T10:43:51Z</time>
      </trkpt>
      <trkpt lat="45.41434" lon="4.73607">
        <ele>121.05524</ele>
        <time>2021-07-19T10:43:52Z</time>
      </trkpt>
      <trkpt lat="45.41428" lon="4.73608">
        <ele>120.43164</ele>
        <time>2021-07-19T10:43:53Z</time>
      </trkpt>
      <trkpt lat="45.41423" lon="4.7361">
        <ele>120.1727</ele>
        <time>2021-07-19T10:43:54Z</time>
      </trkpt>
      <trkpt lat="45.41419" lon="4.73612">
        <ele>120.310104</ele>
        <time>2021-07-19T10:43:55Z</time>
      </trkpt>
      <trkpt lat="45.41413" lon="4.73614">
        <ele>120.21497</ele>
        <time>2021-07-19T10:43:56Z</time>
      </trkpt>
      <trkpt lat="45.41407" lon="4.73616">
        <ele>120.12514</ele>
        <time>2021-07-19T10:43:57Z</time>
      </trkpt>
      <trkpt lat="45.414" lon="4.73618">
        <ele>120.21497</ele>
        <time>2021-07-19T10:43:58Z</time>
      </trkpt>
      <trkpt lat="45.41394" lon="4.7362">
        <ele>120.030014</ele>
        <time>2021-07-19T10:43:59Z</time>
      </trkpt>
      <trkpt lat="45.41389" lon="4.73621">
        <ele>119.83977</ele>
        <time>2021-07-19T10:44:00Z</time>
      </trkpt>
      <trkpt lat="45.41383" lon="4.73623">
        <ele>119.91375</ele>
        <time>2021-07-19T10:44:01Z</time>
      </trkpt>
      <trkpt lat="45.41377" lon="4.73625">
        <ele>119.74464</ele>
        <time>2021-07-19T10:44:02Z</time>
      </trkpt>
      <trkpt lat="45.4137" lon="4.73627">
        <ele>119.7235</ele>
        <time>2021-07-19T10:44:03Z</time>
      </trkpt>
      <trkpt lat="45.41363" lon="4.73629">
        <ele>119.83977</ele>
        <time>2021-07-19T10:44:04Z</time>
      </trkpt>
      <trkpt lat="45.41355" lon="4.7363">
        <ele>119.55968</ele>
        <time>2021-07-19T10:44:05Z</time>
      </trkpt>
      <trkpt lat="45.41347" lon="4.73631">
        <ele>119.390564</ele>
        <time>2021-07-19T10:44:06Z</time>
      </trkpt>
      <trkpt lat="45.41339" lon="4.73631">
        <ele>119.2426</ele>
        <time>2021-07-19T10:44:07Z</time>
      </trkpt>
      <trkpt lat="45.41331" lon="4.73632">
        <ele>119.50155</ele>
        <time>2021-07-19T10:44:08Z</time>
      </trkpt>
      <trkpt lat="45.41324" lon="4.73632">
        <ele>119.04179</ele>
        <time>2021-07-19T10:44:09Z</time>
      </trkpt>
      <trkpt lat="45.41316" lon="4.73632">
        <ele>119.13163</ele>
        <time>2021-07-19T10:44:10Z</time>
      </trkpt>
      <trkpt lat="45.41309" lon="4.73633">
        <ele>118.66657</ele>
        <time>2021-07-19T10:44:11Z</time>
      </trkpt>
      <trkpt lat="45.41303" lon="4.73632">
        <ele>118.37063</ele>
        <time>2021-07-19T10:44:12Z</time>
      </trkpt>
      <trkpt lat="45.41296" lon="4.73632">
        <ele>118.74585</ele>
        <time>2021-07-19T10:44:13Z</time>
      </trkpt>
      <trkpt lat="45.4129" lon="4.73632">
        <ele>118.714134</ele>
        <time>2021-07-19T10:44:14Z</time>
      </trkpt>
      <trkpt lat="45.41283" lon="4.73634">
        <ele>118.72471</ele>
        <time>2021-07-19T10:44:15Z</time>
      </trkpt>
      <trkpt lat="45.41276" lon="4.73633">
        <ele>118.64544</ele>
        <time>2021-07-19T10:44:16Z</time>
      </trkpt>
      <trkpt lat="45.41269" lon="4.73634">
        <ele>118.476326</ele>
        <time>2021-07-19T10:44:17Z</time>
      </trkpt>
      <trkpt lat="45.41262" lon="4.73635">
        <ele>118.603165</ele>
        <time>2021-07-19T10:44:18Z</time>
      </trkpt>
      <trkpt lat="45.41255" lon="4.73636">
        <ele>118.476326</ele>
        <time>2021-07-19T10:44:19Z</time>
      </trkpt>
      <trkpt lat="45.41249" lon="4.73637">
        <ele>118.07998</ele>
        <time>2021-07-19T10:44:20Z</time>
      </trkpt>
      <trkpt lat="45.41244" lon="4.73638">
        <ele>118.03242</ele>
        <time>2021-07-19T10:44:21Z</time>
      </trkpt>
      <trkpt lat="45.41239" lon="4.73639">
        <ele>117.81047</ele>
        <time>2021-07-19T10:44:22Z</time>
      </trkpt>
      <trkpt lat="45.41235" lon="4.7364">
        <ele>117.46696</ele>
        <time>2021-07-19T10:44:23Z</time>
      </trkpt>
      <trkpt lat="45.4123" lon="4.73641">
        <ele>117.678345</ele>
        <time>2021-07-19T10:44:24Z</time>
      </trkpt>
      <trkpt lat="45.41226" lon="4.73642">
        <ele>117.63078</ele>
        <time>2021-07-19T10:44:25Z</time>
      </trkpt>
      <trkpt lat="45.41222" lon="4.73644">
        <ele>117.73119</ele>
        <time>2021-07-19T10:44:26Z</time>
      </trkpt>
      <trkpt lat="45.41218" lon="4.73648">
        <ele>117.61494</ele>
        <time>2021-07-19T10:44:27Z</time>
      </trkpt>
      <trkpt lat="45.41216" lon="4.73653">
        <ele>117.47753</ele>
        <time>2021-07-19T10:44:28Z</time>
      </trkpt>
      <trkpt lat="45.41213" lon="4.7366">
        <ele>117.05476</ele>
        <time>2021-07-19T10:44:29Z</time>
      </trkpt>
      <trkpt lat="45.41212" lon="4.73668">
        <ele>117.06532</ele>
        <time>2021-07-19T10:44:30Z</time>
      </trkpt>
      <trkpt lat="45.41211" lon="4.73678">
        <ele>117.186874</ele>
        <time>2021-07-19T10:44:31Z</time>
      </trkpt>
      <trkpt lat="45.41211" lon="4.73687">
        <ele>117.028336</ele>
        <time>2021-07-19T10:44:32Z</time>
      </trkpt>
      <trkpt lat="45.41213" lon="4.73698">
        <ele>116.19865</ele>
        <time>2021-07-19T10:44:33Z</time>
      </trkpt>
      <trkpt lat="45.41214" lon="4.73707">
        <ele>116.351906</ele>
        <time>2021-07-19T10:44:34Z</time>
      </trkpt>
      <trkpt lat="45.41215" lon="4.73718">
        <ele>115.184006</ele>
        <time>2021-07-19T10:44:35Z</time>
      </trkpt>
      <trkpt lat="45.41216" lon="4.73729">
        <ele>114.76123</ele>
        <time>2021-07-19T10:44:36Z</time>
      </trkpt>
      <trkpt lat="45.41217" lon="4.73738">
        <ele>114.34374</ele>
        <time>2021-07-19T10:44:37Z</time>
      </trkpt>
      <trkpt lat="45.41218" lon="4.73748">
        <ele>114.50228</ele>
        <time>2021-07-19T10:44:38Z</time>
      </trkpt>
      <trkpt lat="45.41219" lon="4.73755">
        <ele>114.08479</ele>
        <time>2021-07-19T10:44:39Z</time>
      </trkpt>
      <trkpt lat="45.41219" lon="4.73762">
        <ele>114.06894</ele>
        <time>2021-07-19T10:44:40Z</time>
      </trkpt>
      <trkpt lat="45.41221" lon="4.73768">
        <ele>114.30146</ele>
        <time>2021-07-19T10:44:41Z</time>
      </trkpt>
      <trkpt lat="45.41224" lon="4.73772">
        <ele>114.68195</ele>
        <time>2021-07-19T10:44:42Z</time>
      </trkpt>
      <trkpt lat="45.41227" lon="4.73774">
        <ele>114.697815</ele>
        <time>2021-07-19T10:44:43Z</time>
      </trkpt>
      <trkpt lat="45.41229" lon="4.73774">
        <ele>114.650246</ele>
        <time>2021-07-19T10:44:44Z</time>
      </trkpt>
      <trkpt lat="45.41232" lon="4.73772">
        <ele>114.98318</ele>
        <time>2021-07-19T10:44:45Z</time>
      </trkpt>
      <trkpt lat="45.41235" lon="4.73767">
        <ele>115.09945</ele>
        <time>2021-07-19T10:44:46Z</time>
      </trkpt>
      <trkpt lat="45.41237" lon="4.73764">
        <ele>115.26855</ele>
        <time>2021-07-19T10:44:47Z</time>
      </trkpt>
      <trkpt lat="45.4124" lon="4.7376">
        <ele>115.25269</ele>
        <time>2021-07-19T10:44:48Z</time>
      </trkpt>
      <trkpt lat="45.41243" lon="4.73757">
        <ele>114.87749</ele>
        <time>2021-07-19T10:44:49Z</time>
      </trkpt>
      <trkpt lat="45.41246" lon="4.73754">
        <ele>115.686035</ele>
        <time>2021-07-19T10:44:50Z</time>
      </trkpt>
      <trkpt lat="45.41251" lon="4.7375">
        <ele>115.79173</ele>
        <time>2021-07-19T10:44:51Z</time>
      </trkpt>
      <trkpt lat="45.41256" lon="4.73747">
        <ele>115.92913</ele>
        <time>2021-07-19T10:44:52Z</time>
      </trkpt>
      <trkpt lat="45.4126" lon="4.73745">
        <ele>115.971405</ele>
        <time>2021-07-19T10:44:53Z</time>
      </trkpt>
      <trkpt lat="45.41265" lon="4.73743">
        <ele>116.17751</ele>
        <time>2021-07-19T10:44:54Z</time>
      </trkpt>
      <trkpt lat="45.41272" lon="4.73742">
        <ele>116.26735</ele>
        <time>2021-07-19T10:44:55Z</time>
      </trkpt>
      <trkpt lat="45.41277" lon="4.73741">
        <ele>116.31491</ele>
        <time>2021-07-19T10:44:56Z</time>
      </trkpt>
      <trkpt lat="45.41283" lon="4.73741">
        <ele>116.31491</ele>
        <time>2021-07-19T10:44:57Z</time>
      </trkpt>
      <trkpt lat="45.41287" lon="4.7374">
        <ele>116.34133</ele>
        <time>2021-07-19T10:44:58Z</time>
      </trkpt>
      <trkpt lat="45.41292" lon="4.7374">
        <ele>116.62142</ele>
        <time>2021-07-19T10:44:59Z</time>
      </trkpt>
      <trkpt lat="45.41298" lon="4.73741">
        <ele>116.410034</ele>
        <time>2021-07-19T10:45:00Z</time>
      </trkpt>
      <trkpt lat="45.41304" lon="4.73742">
        <ele>116.351906</ele>
        <time>2021-07-19T10:45:01Z</time>
      </trkpt>
      <trkpt lat="45.4131" lon="4.73743">
        <ele>116.44702</ele>
        <time>2021-07-19T10:45:02Z</time>
      </trkpt>
      <trkpt lat="45.41317" lon="4.73743">
        <ele>116.62142</ele>
        <time>2021-07-19T10:45:03Z</time>
      </trkpt>
      <trkpt lat="45.41323" lon="4.73743">
        <ele>116.515724</ele>
        <time>2021-07-19T10:45:04Z</time>
      </trkpt>
      <trkpt lat="45.41329" lon="4.73743">
        <ele>116.83809</ele>
        <time>2021-07-19T10:45:05Z</time>
      </trkpt>
      <trkpt lat="45.41335" lon="4.73743">
        <ele>116.88565</ele>
        <time>2021-07-19T10:45:06Z</time>
      </trkpt>
      <trkpt lat="45.4134" lon="4.73743">
        <ele>116.86452</ele>
        <time>2021-07-19T10:45:07Z</time>
      </trkpt>
      <trkpt lat="45.41346" lon="4.73743">
        <ele>117.313705</ele>
        <time>2021-07-19T10:45:08Z</time>
      </trkpt>
      <trkpt lat="45.41351" lon="4.73742">
        <ele>117.48282</ele>
        <time>2021-07-19T10:45:09Z</time>
      </trkpt>
      <trkpt lat="45.41356" lon="4.73742">
        <ele>117.572655</ele>
        <time>2021-07-19T10:45:10Z</time>
      </trkpt>
      <trkpt lat="45.41361" lon="4.73741">
        <ele>117.778755</ele>
        <time>2021-07-19T10:45:11Z</time>
      </trkpt>
      <trkpt lat="45.41365" lon="4.73741">
        <ele>118.006</ele>
        <time>2021-07-19T10:45:12Z</time>
      </trkpt>
      <trkpt lat="45.41371" lon="4.73741">
        <ele>118.05355</ele>
        <time>2021-07-19T10:45:13Z</time>
      </trkpt>
      <trkpt lat="45.41377" lon="4.7374">
        <ele>118.27023</ele>
        <time>2021-07-19T10:45:14Z</time>
      </trkpt>
      <trkpt lat="45.41382" lon="4.7374">
        <ele>118.57674</ele>
        <time>2021-07-19T10:45:15Z</time>
      </trkpt>
      <trkpt lat="45.41387" lon="4.7374">
        <ele>118.84625</ele>
        <time>2021-07-19T10:45:16Z</time>
      </trkpt>
      <trkpt lat="45.41391" lon="4.7374">
        <ele>118.994225</ele>
        <time>2021-07-19T10:45:17Z</time>
      </trkpt>
      <trkpt lat="45.41396" lon="4.7374">
        <ele>119.06821</ele>
        <time>2021-07-19T10:45:18Z</time>
      </trkpt>
      <trkpt lat="45.41401" lon="4.73741">
        <ele>119.20561</ele>
        <time>2021-07-19T10:45:19Z</time>
      </trkpt>
      <trkpt lat="45.41405" lon="4.73742">
        <ele>119.15804</ele>
        <time>2021-07-19T10:45:20Z</time>
      </trkpt>
      <trkpt lat="45.41409" lon="4.73744">
        <ele>119.33772</ele>
        <time>2021-07-19T10:45:21Z</time>
      </trkpt>
      <trkpt lat="45.41411" lon="4.73746">
        <ele>119.11048</ele>
        <time>2021-07-19T10:45:22Z</time>
      </trkpt>
      <trkpt lat="45.41413" lon="4.73748">
        <ele>118.77226</ele>
        <time>2021-07-19T10:45:23Z</time>
      </trkpt>
      <trkpt lat="45.41414" lon="4.73749">
        <ele>119.04179</ele>
        <time>2021-07-19T10:45:24Z</time>
      </trkpt>
      <trkpt lat="45.41416" lon="4.73749">
        <ele>118.56088</ele>
        <time>2021-07-19T10:45:25Z</time>
      </trkpt>
      <trkpt lat="45.41417" lon="4.7375">
        <ele>118.68243</ele>
        <time>2021-07-19T10:45:26Z</time>
      </trkpt>
      <trkpt lat="45.4142" lon="4.7375">
        <ele>118.455185</ele>
        <time>2021-07-19T10:45:27Z</time>
      </trkpt>
      <trkpt lat="45.41422" lon="4.73751">
        <ele>118.740555</ele>
        <time>2021-07-19T10:45:28Z</time>
      </trkpt>
      <trkpt lat="45.41425" lon="4.73752">
        <ele>118.78284</ele>
        <time>2021-07-19T10:45:29Z</time>
      </trkpt>
      <trkpt lat="45.41428" lon="4.73752">
        <ele>119.06293</ele>
        <time>2021-07-19T10:45:30Z</time>
      </trkpt>
      <trkpt lat="45.41431" lon="4.73753">
        <ele>119.14219</ele>
        <time>2021-07-19T10:45:31Z</time>
      </trkpt>
      <trkpt lat="45.41435" lon="4.73756">
        <ele>118.893814</ele>
        <time>2021-07-19T10:45:32Z</time>
      </trkpt>
      <trkpt lat="45.41437" lon="4.7376">
        <ele>118.97309</ele>
        <time>2021-07-19T10:45:33Z</time>
      </trkpt>
      <trkpt lat="45.41438" lon="4.73769">
        <ele>118.82511</ele>
        <time>2021-07-19T10:45:34Z</time>
      </trkpt>
      <trkpt lat="45.41439" lon="4.73777">
        <ele>118.77756</ele>
        <time>2021-07-19T10:45:35Z</time>
      </trkpt>
      <trkpt lat="45.41441" lon="4.73785">
        <ele>118.87267</ele>
        <time>2021-07-19T10:45:36Z</time>
      </trkpt>
      <trkpt lat="45.41442" lon="4.73793">
        <ele>118.91495</ele>
        <time>2021-07-19T10:45:37Z</time>
      </trkpt>
      <trkpt lat="45.41444" lon="4.73801">
        <ele>119.279594</ele>
        <time>2021-07-19T10:45:38Z</time>
      </trkpt>
      <trkpt lat="45.41446" lon="4.73809">
        <ele>119.01008</ele>
        <time>2021-07-19T10:45:39Z</time>
      </trkpt>
      <trkpt lat="45.41448" lon="4.73816">
        <ele>118.85682</ele>
        <time>2021-07-19T10:45:40Z</time>
      </trkpt>
      <trkpt lat="45.4145" lon="4.73824">
        <ele>118.85682</ele>
        <time>2021-07-19T10:45:41Z</time>
      </trkpt>
      <trkpt lat="45.41451" lon="4.73831">
        <ele>118.7617</ele>
        <time>2021-07-19T10:45:42Z</time>
      </trkpt>
      <trkpt lat="45.41453" lon="4.73839">
        <ele>118.67187</ele>
        <time>2021-07-19T10:45:43Z</time>
      </trkpt>
      <trkpt lat="45.41454" lon="4.73848">
        <ele>118.66129</ele>
        <time>2021-07-19T10:45:44Z</time>
      </trkpt>
      <trkpt lat="45.41456" lon="4.73856">
        <ele>118.53974</ele>
        <time>2021-07-19T10:45:45Z</time>
      </trkpt>
      <trkpt lat="45.41457" lon="4.73865">
        <ele>118.603165</ele>
        <time>2021-07-19T10:45:46Z</time>
      </trkpt>
      <trkpt lat="45.41459" lon="4.73873">
        <ele>118.53974</ele>
        <time>2021-07-19T10:45:47Z</time>
      </trkpt>
      <trkpt lat="45.4146" lon="4.73882">
        <ele>118.57674</ele>
        <time>2021-07-19T10:45:48Z</time>
      </trkpt>
      <trkpt lat="45.41462" lon="4.7389">
        <ele>118.50803</ele>
        <time>2021-07-19T10:45:49Z</time>
      </trkpt>
      <trkpt lat="45.41463" lon="4.73899">
        <ele>118.455185</ele>
        <time>2021-07-19T10:45:50Z</time>
      </trkpt>
      <trkpt lat="45.41464" lon="4.73908">
        <ele>118.40763</ele>
        <time>2021-07-19T10:45:51Z</time>
      </trkpt>
      <trkpt lat="45.41464" lon="4.73917">
        <ele>118.49218</ele>
        <time>2021-07-19T10:45:52Z</time>
      </trkpt>
      <trkpt lat="45.41465" lon="4.73926">
        <ele>118.550316</ele>
        <time>2021-07-19T10:45:53Z</time>
      </trkpt>
      <trkpt lat="45.41465" lon="4.73935">
        <ele>118.3812</ele>
        <time>2021-07-19T10:45:54Z</time>
      </trkpt>
      <trkpt lat="45.41465" lon="4.73944">
        <ele>118.50803</ele>
        <time>2021-07-19T10:45:55Z</time>
      </trkpt>
      <trkpt lat="45.41465" lon="4.73952">
        <ele>118.323074</ele>
        <time>2021-07-19T10:45:56Z</time>
      </trkpt>
      <trkpt lat="45.41465" lon="4.73961">
        <ele>118.33893</ele>
        <time>2021-07-19T10:45:57Z</time>
      </trkpt>
      <trkpt lat="45.41465" lon="4.7397">
        <ele>118.29137</ele>
        <time>2021-07-19T10:45:58Z</time>
      </trkpt>
      <trkpt lat="45.41465" lon="4.73978">
        <ele>118.222664</ele>
        <time>2021-07-19T10:45:59Z</time>
      </trkpt>
      <trkpt lat="45.41465" lon="4.73987">
        <ele>118.28609</ele>
        <time>2021-07-19T10:46:00Z</time>
      </trkpt>
      <trkpt lat="45.41465" lon="4.73995">
        <ele>118.349495</ele>
        <time>2021-07-19T10:46:01Z</time>
      </trkpt>
      <trkpt lat="45.41466" lon="4.74003">
        <ele>118.323074</ele>
        <time>2021-07-19T10:46:02Z</time>
      </trkpt>
      <trkpt lat="45.41468" lon="4.74011">
        <ele>118.42877</ele>
        <time>2021-07-19T10:46:03Z</time>
      </trkpt>
      <trkpt lat="45.41472" lon="4.74018">
        <ele>118.46576</ele>
        <time>2021-07-19T10:46:04Z</time>
      </trkpt>
      <trkpt lat="45.41477" lon="4.74023">
        <ele>118.41291</ele>
        <time>2021-07-19T10:46:05Z</time>
      </trkpt>
      <trkpt lat="45.41483" lon="4.74025">
        <ele>118.449905</ele>
        <time>2021-07-19T10:46:06Z</time>
      </trkpt>
      <trkpt lat="45.41489" lon="4.74026">
        <ele>118.56617</ele>
        <time>2021-07-19T10:46:07Z</time>
      </trkpt>
      <trkpt lat="45.41495" lon="4.74025">
        <ele>118.67715</ele>
        <time>2021-07-19T10:46:08Z</time>
      </trkpt>
      <trkpt lat="45.41501" lon="4.74024">
        <ele>118.40763</ele>
        <time>2021-07-19T10:46:09Z</time>
      </trkpt>
      <trkpt lat="45.41507" lon="4.74022">
        <ele>118.344215</ele>
        <time>2021-07-19T10:46:10Z</time>
      </trkpt>
      <trkpt lat="45.41513" lon="4.74022">
        <ele>118.56617</ele>
        <time>2021-07-19T10:46:11Z</time>
      </trkpt>
      <trkpt lat="45.4152" lon="4.74021">
        <ele>118.243805</ele>
        <time>2021-07-19T10:46:12Z</time>
      </trkpt>
      <trkpt lat="45.41526" lon="4.74021">
        <ele>118.33893</ele>
        <time>2021-07-19T10:46:13Z</time>
      </trkpt>
      <trkpt lat="45.41532" lon="4.7402">
        <ele>118.42348</ele>
        <time>2021-07-19T10:46:14Z</time>
      </trkpt>
      <trkpt lat="45.41538" lon="4.7402">
        <ele>118.46576</ele>
        <time>2021-07-19T10:46:15Z</time>
      </trkpt>
      <trkpt lat="45.41544" lon="4.74019">
        <ele>118.43405</ele>
        <time>2021-07-19T10:46:16Z</time>
      </trkpt>
      <trkpt lat="45.4155" lon="4.74019">
        <ele>118.29137</ele>
        <time>2021-07-19T10:46:17Z</time>
      </trkpt>
      <trkpt lat="45.41556" lon="4.74019">
        <ele>118.169815</ele>
        <time>2021-07-19T10:46:18Z</time>
      </trkpt>
      <trkpt lat="45.41562" lon="4.74019">
        <ele>118.6243</ele>
        <time>2021-07-19T10:46:19Z</time>
      </trkpt>
      <trkpt lat="45.41568" lon="4.74018">
        <ele>118.79869</ele>
        <time>2021-07-19T10:46:20Z</time>
      </trkpt>
      <trkpt lat="45.41575" lon="4.74017">
        <ele>118.550316</ele>
        <time>2021-07-19T10:46:21Z</time>
      </trkpt>
      <trkpt lat="45.4158" lon="4.74017">
        <ele>118.47104</ele>
        <time>2021-07-19T10:46:22Z</time>
      </trkpt>
      <trkpt lat="45.41587" lon="4.74016">
        <ele>118.634865</ele>
        <time>2021-07-19T10:46:23Z</time>
      </trkpt>
      <trkpt lat="45.41592" lon="4.74015">
        <ele>118.40763</ele>
        <time>2021-07-19T10:46:24Z</time>
      </trkpt>
      <trkpt lat="45.41598" lon="4.74014">
        <ele>118.43405</ele>
        <time>2021-07-19T10:46:25Z</time>
      </trkpt>
      <trkpt lat="45.41603" lon="4.74013">
        <ele>118.54503</ele>
        <time>2021-07-19T10:46:26Z</time>
      </trkpt>
      <trkpt lat="45.41608" lon="4.74012">
        <ele>118.455185</ele>
        <time>2021-07-19T10:46:27Z</time>
      </trkpt>
      <trkpt lat="45.41614" lon="4.74012">
        <ele>118.48161</ele>
        <time>2021-07-19T10:46:28Z</time>
      </trkpt>
      <trkpt lat="45.4162" lon="4.74012">
        <ele>118.83041</ele>
        <time>2021-07-19T10:46:29Z</time>
      </trkpt>
      <trkpt lat="45.41626" lon="4.74013">
        <ele>118.708855</ele>
        <time>2021-07-19T10:46:30Z</time>
      </trkpt>
      <trkpt lat="45.41632" lon="4.74014">
        <ele>118.95194</ele>
        <time>2021-07-19T10:46:31Z</time>
      </trkpt>
      <trkpt lat="45.41637" lon="4.74016">
        <ele>118.39178</ele>
        <time>2021-07-19T10:46:32Z</time>
      </trkpt>
      <trkpt lat="45.41643" lon="4.74017">
        <ele>118.582016</ele>
        <time>2021-07-19T10:46:33Z</time>
      </trkpt>
      <trkpt lat="45.41649" lon="4.74018">
        <ele>118.53446</ele>
        <time>2021-07-19T10:46:34Z</time>
      </trkpt>
      <trkpt lat="45.41655" lon="4.74018">
        <ele>118.555595</ele>
        <time>2021-07-19T10:46:35Z</time>
      </trkpt>
      <trkpt lat="45.41661" lon="4.74018">
        <ele>118.22794</ele>
        <time>2021-07-19T10:46:36Z</time>
      </trkpt>
      <trkpt lat="45.41666" lon="4.74019">
        <ele>118.13811</ele>
        <time>2021-07-19T10:46:37Z</time>
      </trkpt>
      <trkpt lat="45.41672" lon="4.74019">
        <ele>118.243805</ele>
        <time>2021-07-19T10:46:38Z</time>
      </trkpt>
      <trkpt lat="45.41678" lon="4.7402">
        <ele>118.190956</ele>
        <time>2021-07-19T10:46:39Z</time>
      </trkpt>
      <trkpt lat="45.41684" lon="4.7402">
        <ele>118.23852</ele>
        <time>2021-07-19T10:46:40Z</time>
      </trkpt>
      <trkpt lat="45.4169" lon="4.7402">
        <ele>118.21209</ele>
        <time>2021-07-19T10:46:41Z</time>
      </trkpt>
      <trkpt lat="45.41697" lon="4.7402">
        <ele>118.344215</ele>
        <time>2021-07-19T10:46:42Z</time>
      </trkpt>
      <trkpt lat="45.41703" lon="4.7402">
        <ele>118.66657</ele>
        <time>2021-07-19T10:46:43Z</time>
      </trkpt>
      <trkpt lat="45.41709" lon="4.7402">
        <ele>118.15396</ele>
        <time>2021-07-19T10:46:44Z</time>
      </trkpt>
      <trkpt lat="45.41715" lon="4.74021">
        <ele>118.64015</ele>
        <time>2021-07-19T10:46:45Z</time>
      </trkpt>
      <trkpt lat="45.41721" lon="4.74021">
        <ele>119.1052</ele>
        <time>2021-07-19T10:46:46Z</time>
      </trkpt>
      <trkpt lat="45.41726" lon="4.74022">
        <ele>119.72879</ele>
        <time>2021-07-19T10:46:47Z</time>
      </trkpt>
      <trkpt lat="45.41732" lon="4.74022">
        <ele>119.46984</ele>
        <time>2021-07-19T10:46:48Z</time>
      </trkpt>
      <trkpt lat="45.41738" lon="4.74023">
        <ele>119.69708</ele>
        <time>2021-07-19T10:46:49Z</time>
      </trkpt>
      <trkpt lat="45.41743" lon="4.74025">
        <ele>119.512115</ele>
        <time>2021-07-19T10:46:50Z</time>
      </trkpt>
      <trkpt lat="45.41749" lon="4.74026">
        <ele>119.0365</ele>
        <time>2021-07-19T10:46:51Z</time>
      </trkpt>
      <trkpt lat="45.41754" lon="4.74027">
        <ele>118.693</ele>
        <time>2021-07-19T10:46:52Z</time>
      </trkpt>
      <trkpt lat="45.4176" lon="4.74028">
        <ele>118.449905</ele>
        <time>2021-07-19T10:46:53Z</time>
      </trkpt>
      <trkpt lat="45.41765" lon="4.74028">
        <ele>118.735275</ele>
        <time>2021-07-19T10:46:54Z</time>
      </trkpt>
      <trkpt lat="45.41771" lon="4.74029">
        <ele>119.18976</ele>
        <time>2021-07-19T10:46:55Z</time>
      </trkpt>
      <trkpt lat="45.41777" lon="4.74029">
        <ele>118.51861</ele>
        <time>2021-07-19T10:46:56Z</time>
      </trkpt>
      <trkpt lat="45.41782" lon="4.74029">
        <ele>118.687706</ele>
        <time>2021-07-19T10:46:57Z</time>
      </trkpt>
      <trkpt lat="45.41789" lon="4.7403">
        <ele>118.656006</ele>
        <time>2021-07-19T10:46:58Z</time>
      </trkpt>
      <trkpt lat="45.41795" lon="4.74033">
        <ele>118.4869</ele>
        <time>2021-07-19T10:46:59Z</time>
      </trkpt>
      <trkpt lat="45.41802" lon="4.74035">
        <ele>118.90439</ele>
        <time>2021-07-19T10:47:00Z</time>
      </trkpt>
      <trkpt lat="45.41809" lon="4.74037">
        <ele>118.64015</ele>
        <time>2021-07-19T10:47:01Z</time>
      </trkpt>
      <trkpt lat="45.41816" lon="4.74039">
        <ele>118.40234</ele>
        <time>2021-07-19T10:47:02Z</time>
      </trkpt>
      <trkpt lat="45.41822" lon="4.7404">
        <ele>118.608444</ele>
        <time>2021-07-19T10:47:03Z</time>
      </trkpt>
      <trkpt lat="45.41828" lon="4.74041">
        <ele>118.57146</ele>
        <time>2021-07-19T10:47:04Z</time>
      </trkpt>
      <trkpt lat="45.41835" lon="4.74043">
        <ele>118.80926</ele>
        <time>2021-07-19T10:47:05Z</time>
      </trkpt>
      <trkpt lat="45.41841" lon="4.74045">
        <ele>118.57674</ele>
        <time>2021-07-19T10:47:06Z</time>
      </trkpt>
      <trkpt lat="45.41847" lon="4.74047">
        <ele>118.47104</ele>
        <time>2021-07-19T10:47:07Z</time>
      </trkpt>
      <trkpt lat="45.41853" lon="4.74048">
        <ele>118.20153</ele>
        <time>2021-07-19T10:47:08Z</time>
      </trkpt>
      <trkpt lat="45.4186" lon="4.74051">
        <ele>118.4869</ele>
        <time>2021-07-19T10:47:09Z</time>
      </trkpt>
      <trkpt lat="45.41866" lon="4.74053">
        <ele>118.56088</ele>
        <time>2021-07-19T10:47:10Z</time>
      </trkpt>
      <trkpt lat="45.41872" lon="4.74055">
        <ele>118.56088</ele>
        <time>2021-07-19T10:47:11Z</time>
      </trkpt>
      <trkpt lat="45.41879" lon="4.74057">
        <ele>118.49747</ele>
        <time>2021-07-19T10:47:12Z</time>
      </trkpt>
      <trkpt lat="45.41884" lon="4.74059">
        <ele>118.51333</ele>
        <time>2021-07-19T10:47:13Z</time>
      </trkpt>
      <trkpt lat="45.4189" lon="4.74061">
        <ele>118.48161</ele>
        <time>2021-07-19T10:47:14Z</time>
      </trkpt>
      <trkpt lat="45.41896" lon="4.74063">
        <ele>118.49747</ele>
        <time>2021-07-19T10:47:15Z</time>
      </trkpt>
      <trkpt lat="45.41902" lon="4.74065">
        <ele>118.35478</ele>
        <time>2021-07-19T10:47:16Z</time>
      </trkpt>
      <trkpt lat="45.41908" lon="4.74067">
        <ele>118.37063</ele>
        <time>2021-07-19T10:47:17Z</time>
      </trkpt>
      <trkpt lat="45.41915" lon="4.74069">
        <ele>118.550316</ele>
        <time>2021-07-19T10:47:18Z</time>
      </trkpt>
      <trkpt lat="45.41922" lon="4.74071">
        <ele>118.39706</ele>
        <time>2021-07-19T10:47:19Z</time>
      </trkpt>
      <trkpt lat="45.41928" lon="4.74074">
        <ele>118.349495</ele>
        <time>2021-07-19T10:47:20Z</time>
      </trkpt>
      <trkpt lat="45.41934" lon="4.74076">
        <ele>118.48161</ele>
        <time>2021-07-19T10:47:21Z</time>
      </trkpt>
      <trkpt lat="45.41941" lon="4.74079">
        <ele>118.46576</ele>
        <time>2021-07-19T10:47:22Z</time>
      </trkpt>
      <trkpt lat="45.41947" lon="4.74081">
        <ele>118.39706</ele>
        <time>2021-07-19T10:47:23Z</time>
      </trkpt>
      <trkpt lat="45.41953" lon="4.74084">
        <ele>118.42877</ele>
        <time>2021-07-19T10:47:24Z</time>
      </trkpt>
      <trkpt lat="45.41959" lon="4.74086">
        <ele>118.4869</ele>
        <time>2021-07-19T10:47:25Z</time>
      </trkpt>
      <trkpt lat="45.41966" lon="4.74089">
        <ele>118.42348</ele>
        <time>2021-07-19T10:47:26Z</time>
      </trkpt>
      <trkpt lat="45.41972" lon="4.74092">
        <ele>118.18568</ele>
        <time>2021-07-19T10:47:27Z</time>
      </trkpt>
      <trkpt lat="45.41978" lon="4.74095">
        <ele>118.31779</ele>
        <time>2021-07-19T10:47:28Z</time>
      </trkpt>
      <trkpt lat="45.41984" lon="4.74097">
        <ele>118.344215</ele>
        <time>2021-07-19T10:47:29Z</time>
      </trkpt>
      <trkpt lat="45.4199" lon="4.74099">
        <ele>118.37592</ele>
        <time>2021-07-19T10:47:30Z</time>
      </trkpt>
      <trkpt lat="45.41996" lon="4.74102">
        <ele>118.36535</ele>
        <time>2021-07-19T10:47:31Z</time>
      </trkpt>
      <trkpt lat="45.42002" lon="4.74105">
        <ele>118.25437</ele>
        <time>2021-07-19T10:47:32Z</time>
      </trkpt>
      <trkpt lat="45.42008" lon="4.74108">
        <ele>118.444626</ele>
        <time>2021-07-19T10:47:33Z</time>
      </trkpt>
      <trkpt lat="45.42014" lon="4.74111">
        <ele>118.52389</ele>
        <time>2021-07-19T10:47:34Z</time>
      </trkpt>
      <trkpt lat="45.4202" lon="4.74114">
        <ele>118.222664</ele>
        <time>2021-07-19T10:47:35Z</time>
      </trkpt>
      <trkpt lat="45.42027" lon="4.74116">
        <ele>118.22794</ele>
        <time>2021-07-19T10:47:36Z</time>
      </trkpt>
      <trkpt lat="45.42033" lon="4.74118">
        <ele>118.30722</ele>
        <time>2021-07-19T10:47:37Z</time>
      </trkpt>
      <trkpt lat="45.42038" lon="4.74121">
        <ele>118.349495</ele>
        <time>2021-07-19T10:47:38Z</time>
      </trkpt>
      <trkpt lat="45.42044" lon="4.74124">
        <ele>118.26494</ele>
        <time>2021-07-19T10:47:39Z</time>
      </trkpt>
      <trkpt lat="45.42051" lon="4.74127">
        <ele>118.35478</ele>
        <time>2021-07-19T10:47:40Z</time>
      </trkpt>
      <trkpt lat="45.42057" lon="4.74129">
        <ele>118.48161</ele>
        <time>2021-07-19T10:47:41Z</time>
      </trkpt>
      <trkpt lat="45.42063" lon="4.74132">
        <ele>118.455185</ele>
        <time>2021-07-19T10:47:42Z</time>
      </trkpt>
      <trkpt lat="45.42069" lon="4.74135">
        <ele>118.72471</ele>
        <time>2021-07-19T10:47:43Z</time>
      </trkpt>
      <trkpt lat="45.42075" lon="4.74137">
        <ele>118.59259</ele>
        <time>2021-07-19T10:47:44Z</time>
      </trkpt>
      <trkpt lat="45.42081" lon="4.7414">
        <ele>118.59259</ele>
        <time>2021-07-19T10:47:45Z</time>
      </trkpt>
      <trkpt lat="45.42087" lon="4.74143">
        <ele>118.48161</ele>
        <time>2021-07-19T10:47:46Z</time>
      </trkpt>
      <trkpt lat="45.42093" lon="4.74145">
        <ele>118.28079</ele>
        <time>2021-07-19T10:47:47Z</time>
      </trkpt>
      <trkpt lat="45.42099" lon="4.74149">
        <ele>118.37063</ele>
        <time>2021-07-19T10:47:48Z</time>
      </trkpt>
      <trkpt lat="45.42104" lon="4.74152">
        <ele>118.51861</ele>
        <time>2021-07-19T10:47:49Z</time>
      </trkpt>
      <trkpt lat="45.4211" lon="4.74156">
        <ele>118.40234</ele>
        <time>2021-07-19T10:47:50Z</time>
      </trkpt>
      <trkpt lat="45.42115" lon="4.74159">
        <ele>118.37592</ele>
        <time>2021-07-19T10:47:51Z</time>
      </trkpt>
      <trkpt lat="45.42121" lon="4.74164">
        <ele>118.444626</ele>
        <time>2021-07-19T10:47:52Z</time>
      </trkpt>
      <trkpt lat="45.42127" lon="4.74167">
        <ele>118.52389</ele>
        <time>2021-07-19T10:47:53Z</time>
      </trkpt>
      <trkpt lat="45.42132" lon="4.74171">
        <ele>118.72471</ele>
        <time>2021-07-19T10:47:54Z</time>
      </trkpt>
      <trkpt lat="45.42137" lon="4.74175">
        <ele>118.71942</ele>
        <time>2021-07-19T10:47:55Z</time>
      </trkpt>
      <trkpt lat="45.42143" lon="4.7418">
        <ele>118.65072</ele>
        <time>2021-07-19T10:47:56Z</time>
      </trkpt>
      <trkpt lat="45.42149" lon="4.74183">
        <ele>118.43405</ele>
        <time>2021-07-19T10:47:57Z</time>
      </trkpt>
      <trkpt lat="45.42154" lon="4.74187">
        <ele>118.39706</ele>
        <time>2021-07-19T10:47:58Z</time>
      </trkpt>
      <trkpt lat="45.42159" lon="4.74191">
        <ele>118.77756</ele>
        <time>2021-07-19T10:47:59Z</time>
      </trkpt>
      <trkpt lat="45.42165" lon="4.74195">
        <ele>119.126335</ele>
        <time>2021-07-19T10:48:00Z</time>
      </trkpt>
      <trkpt lat="45.4217" lon="4.742">
        <ele>119.15276</ele>
        <time>2021-07-19T10:48:01Z</time>
      </trkpt>
      <trkpt lat="45.42176" lon="4.74204">
        <ele>118.7934</ele>
        <time>2021-07-19T10:48:02Z</time>
      </trkpt>
      <trkpt lat="45.42181" lon="4.74208">
        <ele>118.66129</ele>
        <time>2021-07-19T10:48:03Z</time>
      </trkpt>
      <trkpt lat="45.42186" lon="4.74212">
        <ele>118.66657</ele>
        <time>2021-07-19T10:48:04Z</time>
      </trkpt>
      <trkpt lat="45.42191" lon="4.74216">
        <ele>118.70357</ele>
        <time>2021-07-19T10:48:05Z</time>
      </trkpt>
      <trkpt lat="45.42196" lon="4.7422">
        <ele>118.77226</ele>
        <time>2021-07-19T10:48:06Z</time>
      </trkpt>
      <trkpt lat="45.42201" lon="4.74224">
        <ele>118.656006</ele>
        <time>2021-07-19T10:48:07Z</time>
      </trkpt>
      <trkpt lat="45.42206" lon="4.74229">
        <ele>118.603165</ele>
        <time>2021-07-19T10:48:08Z</time>
      </trkpt>
      <trkpt lat="45.42211" lon="4.74234">
        <ele>118.608444</ele>
        <time>2021-07-19T10:48:09Z</time>
      </trkpt>
      <trkpt lat="45.42217" lon="4.74238">
        <ele>118.46048</ele>
        <time>2021-07-19T10:48:10Z</time>
      </trkpt>
      <trkpt lat="45.42222" lon="4.74243">
        <ele>118.54503</ele>
        <time>2021-07-19T10:48:11Z</time>
      </trkpt>
      <trkpt lat="45.42227" lon="4.74248">
        <ele>118.4869</ele>
        <time>2021-07-19T10:48:12Z</time>
      </trkpt>
      <trkpt lat="45.42232" lon="4.74253">
        <ele>118.43933</ele>
        <time>2021-07-19T10:48:13Z</time>
      </trkpt>
      <trkpt lat="45.42236" lon="4.74258">
        <ele>118.59787</ele>
        <time>2021-07-19T10:48:14Z</time>
      </trkpt>
      <trkpt lat="45.42241" lon="4.74262">
        <ele>118.6243</ele>
        <time>2021-07-19T10:48:15Z</time>
      </trkpt>
      <trkpt lat="45.42246" lon="4.74267">
        <ele>118.56617</ele>
        <time>2021-07-19T10:48:16Z</time>
      </trkpt>
      <trkpt lat="45.42251" lon="4.74271">
        <ele>118.476326</ele>
        <time>2021-07-19T10:48:17Z</time>
      </trkpt>
      <trkpt lat="45.42255" lon="4.74276">
        <ele>118.729996</ele>
        <time>2021-07-19T10:48:18Z</time>
      </trkpt>
      <trkpt lat="45.4226" lon="4.74281">
        <ele>118.87796</ele>
        <time>2021-07-19T10:48:19Z</time>
      </trkpt>
      <trkpt lat="45.42265" lon="4.74286">
        <ele>118.91495</ele>
        <time>2021-07-19T10:48:20Z</time>
      </trkpt>
      <trkpt lat="45.4227" lon="4.7429">
        <ele>118.77756</ele>
        <time>2021-07-19T10:48:21Z</time>
      </trkpt>
      <trkpt lat="45.42275" lon="4.74295">
        <ele>118.64015</ele>
        <time>2021-07-19T10:48:22Z</time>
      </trkpt>
      <trkpt lat="45.4228" lon="4.743">
        <ele>118.98365</ele>
        <time>2021-07-19T10:48:23Z</time>
      </trkpt>
      <trkpt lat="45.42284" lon="4.74305">
        <ele>118.90439</ele>
        <time>2021-07-19T10:48:24Z</time>
      </trkpt>
      <trkpt lat="45.42289" lon="4.74311">
        <ele>118.582016</ele>
        <time>2021-07-19T10:48:25Z</time>
      </trkpt>
      <trkpt lat="45.42293" lon="4.74316">
        <ele>118.4869</ele>
        <time>2021-07-19T10:48:26Z</time>
      </trkpt>
      <trkpt lat="45.42297" lon="4.74322">
        <ele>118.22794</ele>
        <time>2021-07-19T10:48:27Z</time>
      </trkpt>
      <trkpt lat="45.42302" lon="4.74328">
        <ele>118.190956</ele>
        <time>2021-07-19T10:48:28Z</time>
      </trkpt>
      <trkpt lat="45.42307" lon="4.74334">
        <ele>118.24909</ele>
        <time>2021-07-19T10:48:29Z</time>
      </trkpt>
      <trkpt lat="45.42311" lon="4.74339">
        <ele>118.68243</ele>
        <time>2021-07-19T10:48:30Z</time>
      </trkpt>
      <trkpt lat="45.42315" lon="4.74345">
        <ele>118.66657</ele>
        <time>2021-07-19T10:48:31Z</time>
      </trkpt>
      <trkpt lat="45.4232" lon="4.74351">
        <ele>118.66657</ele>
        <time>2021-07-19T10:48:32Z</time>
      </trkpt>
      <trkpt lat="45.42325" lon="4.74357">
        <ele>118.51861</ele>
        <time>2021-07-19T10:48:33Z</time>
      </trkpt>
      <trkpt lat="45.42329" lon="4.74363">
        <ele>118.449905</ele>
        <time>2021-07-19T10:48:34Z</time>
      </trkpt>
      <trkpt lat="45.42334" lon="4.74369">
        <ele>118.296646</ele>
        <time>2021-07-19T10:48:35Z</time>
      </trkpt>
      <trkpt lat="45.42338" lon="4.74375">
        <ele>118.296646</ele>
        <time>2021-07-19T10:48:36Z</time>
      </trkpt>
      <trkpt lat="45.42343" lon="4.74381">
        <ele>118.57674</ele>
        <time>2021-07-19T10:48:37Z</time>
      </trkpt>
      <trkpt lat="45.42347" lon="4.74387">
        <ele>118.54503</ele>
        <time>2021-07-19T10:48:38Z</time>
      </trkpt>
      <trkpt lat="45.42352" lon="4.74393">
        <ele>118.51861</ele>
        <time>2021-07-19T10:48:39Z</time>
      </trkpt>
      <trkpt lat="45.42357" lon="4.74399">
        <ele>118.79869</ele>
        <time>2021-07-19T10:48:40Z</time>
      </trkpt>
      <trkpt lat="45.42362" lon="4.74404">
        <ele>118.91495</ele>
        <time>2021-07-19T10:48:41Z</time>
      </trkpt>
      <trkpt lat="45.42366" lon="4.7441">
        <ele>118.86211</ele>
        <time>2021-07-19T10:48:42Z</time>
      </trkpt>
      <trkpt lat="45.42371" lon="4.74415">
        <ele>118.687706</ele>
        <time>2021-07-19T10:48:43Z</time>
      </trkpt>
      <trkpt lat="45.42376" lon="4.74421">
        <ele>118.64015</ele>
        <time>2021-07-19T10:48:44Z</time>
      </trkpt>
      <trkpt lat="45.42381" lon="4.74427">
        <ele>118.740555</ele>
        <time>2021-07-19T10:48:45Z</time>
      </trkpt>
      <trkpt lat="45.42386" lon="4.74433">
        <ele>118.97837</ele>
        <time>2021-07-19T10:48:46Z</time>
      </trkpt>
      <trkpt lat="45.4239" lon="4.74439">
        <ele>119.19504</ele>
        <time>2021-07-19T10:48:47Z</time>
      </trkpt>
      <trkpt lat="45.42395" lon="4.74444">
        <ele>119.099915</ele>
        <time>2021-07-19T10:48:48Z</time>
      </trkpt>
      <trkpt lat="45.424" lon="4.74449">
        <ele>119.07878</ele>
        <time>2021-07-19T10:48:49Z</time>
      </trkpt>
      <trkpt lat="45.42404" lon="4.74454">
        <ele>118.88325</ele>
        <time>2021-07-19T10:48:50Z</time>
      </trkpt>
      <trkpt lat="45.42409" lon="4.74459">
        <ele>118.788124</ele>
        <time>2021-07-19T10:48:51Z</time>
      </trkpt>
      <trkpt lat="45.42413" lon="4.74464">
        <ele>118.92024</ele>
        <time>2021-07-19T10:48:52Z</time>
      </trkpt>
      <trkpt lat="45.42418" lon="4.74469">
        <ele>118.994225</ele>
        <time>2021-07-19T10:48:53Z</time>
      </trkpt>
      <trkpt lat="45.42422" lon="4.74475">
        <ele>118.70357</ele>
        <time>2021-07-19T10:48:54Z</time>
      </trkpt>
      <trkpt lat="45.42426" lon="4.7448">
        <ele>118.83041</ele>
        <time>2021-07-19T10:48:55Z</time>
      </trkpt>
      <trkpt lat="45.42431" lon="4.74485">
        <ele>118.9678</ele>
        <time>2021-07-19T10:48:56Z</time>
      </trkpt>
      <trkpt lat="45.42436" lon="4.7449">
        <ele>118.994225</ele>
        <time>2021-07-19T10:48:57Z</time>
      </trkpt>
      <trkpt lat="45.4244" lon="4.74496">
        <ele>119.07349</ele>
        <time>2021-07-19T10:48:58Z</time>
      </trkpt>
      <trkpt lat="45.42444" lon="4.74501">
        <ele>118.89909</ele>
        <time>2021-07-19T10:48:59Z</time>
      </trkpt>
      <trkpt lat="45.42449" lon="4.74507">
        <ele>118.76698</ele>
        <time>2021-07-19T10:49:00Z</time>
      </trkpt>
      <trkpt lat="45.42454" lon="4.74512">
        <ele>118.49747</ele>
        <time>2021-07-19T10:49:01Z</time>
      </trkpt>
      <trkpt lat="45.42459" lon="4.74517">
        <ele>118.449905</ele>
        <time>2021-07-19T10:49:02Z</time>
      </trkpt>
      <trkpt lat="45.42464" lon="4.74522">
        <ele>118.48161</ele>
        <time>2021-07-19T10:49:03Z</time>
      </trkpt>
      <trkpt lat="45.42469" lon="4.74528">
        <ele>118.634865</ele>
        <time>2021-07-19T10:49:04Z</time>
      </trkpt>
      <trkpt lat="45.42473" lon="4.74534">
        <ele>118.91495</ele>
        <time>2021-07-19T10:49:05Z</time>
      </trkpt>
      <trkpt lat="45.42477" lon="4.74539">
        <ele>118.78284</ele>
        <time>2021-07-19T10:49:06Z</time>
      </trkpt>
      <trkpt lat="45.42481" lon="4.74545">
        <ele>118.77756</ele>
        <time>2021-07-19T10:49:07Z</time>
      </trkpt>
      <trkpt lat="45.42486" lon="4.74551">
        <ele>118.656006</ele>
        <time>2021-07-19T10:49:08Z</time>
      </trkpt>
      <trkpt lat="45.4249" lon="4.74556">
        <ele>118.555595</ele>
        <time>2021-07-19T10:49:09Z</time>
      </trkpt>
      <trkpt lat="45.42495" lon="4.74562">
        <ele>118.740555</ele>
        <time>2021-07-19T10:49:10Z</time>
      </trkpt>
      <trkpt lat="45.42499" lon="4.74567">
        <ele>118.88325</ele>
        <time>2021-07-19T10:49:11Z</time>
      </trkpt>
      <trkpt lat="45.42503" lon="4.74572">
        <ele>118.67715</ele>
        <time>2021-07-19T10:49:12Z</time>
      </trkpt>
      <trkpt lat="45.42508" lon="4.74578">
        <ele>118.788124</ele>
        <time>2021-07-19T10:49:13Z</time>
      </trkpt>
      <trkpt lat="45.42512" lon="4.74583">
        <ele>118.476326</ele>
        <time>2021-07-19T10:49:14Z</time>
      </trkpt>
      <trkpt lat="45.42516" lon="4.74589">
        <ele>118.455185</ele>
        <time>2021-07-19T10:49:15Z</time>
      </trkpt>
      <trkpt lat="45.42521" lon="4.74595">
        <ele>118.296646</ele>
        <time>2021-07-19T10:49:16Z</time>
      </trkpt>
      <trkpt lat="45.42526" lon="4.74601">
        <ele>118.550316</ele>
        <time>2021-07-19T10:49:17Z</time>
      </trkpt>
      <trkpt lat="45.4253" lon="4.74607">
        <ele>118.449905</ele>
        <time>2021-07-19T10:49:18Z</time>
      </trkpt>
      <trkpt lat="45.42535" lon="4.74612">
        <ele>118.502754</ele>
        <time>2021-07-19T10:49:19Z</time>
      </trkpt>
      <trkpt lat="45.42539" lon="4.74618">
        <ele>118.550316</ele>
        <time>2021-07-19T10:49:20Z</time>
      </trkpt>
      <trkpt lat="45.42544" lon="4.74624">
        <ele>118.608444</ele>
        <time>2021-07-19T10:49:21Z</time>
      </trkpt>
      <trkpt lat="45.42548" lon="4.7463">
        <ele>118.82511</ele>
        <time>2021-07-19T10:49:22Z</time>
      </trkpt>
      <trkpt lat="45.42553" lon="4.74635">
        <ele>118.75113</ele>
        <time>2021-07-19T10:49:23Z</time>
      </trkpt>
      <trkpt lat="45.42557" lon="4.7464">
        <ele>118.988945</ele>
        <time>2021-07-19T10:49:24Z</time>
      </trkpt>
      <trkpt lat="45.42561" lon="4.74646">
        <ele>119.20561</ele>
        <time>2021-07-19T10:49:25Z</time>
      </trkpt>
      <trkpt lat="45.42566" lon="4.74651">
        <ele>119.04707</ele>
        <time>2021-07-19T10:49:26Z</time>
      </trkpt>
      <trkpt lat="45.4257" lon="4.74657">
        <ele>118.550316</ele>
        <time>2021-07-19T10:49:27Z</time>
      </trkpt>
      <trkpt lat="45.42575" lon="4.74662">
        <ele>118.58731</ele>
        <time>2021-07-19T10:49:28Z</time>
      </trkpt>
      <trkpt lat="45.42579" lon="4.74668">
        <ele>118.50803</ele>
        <time>2021-07-19T10:49:29Z</time>
      </trkpt>
      <trkpt lat="45.42584" lon="4.74674">
        <ele>118.39706</ele>
        <time>2021-07-19T10:49:30Z</time>
      </trkpt>
      <trkpt lat="45.42588" lon="4.7468">
        <ele>118.51861</ele>
        <time>2021-07-19T10:49:31Z</time>
      </trkpt>
      <trkpt lat="45.42593" lon="4.74686">
        <ele>118.42348</ele>
        <time>2021-07-19T10:49:32Z</time>
      </trkpt>
      <trkpt lat="45.42598" lon="4.74691">
        <ele>118.3125</ele>
        <time>2021-07-19T10:49:33Z</time>
      </trkpt>
      <trkpt lat="45.42603" lon="4.74696">
        <ele>118.46576</ele>
        <time>2021-07-19T10:49:34Z</time>
      </trkpt>
      <trkpt lat="45.42608" lon="4.74702">
        <ele>118.40763</ele>
        <time>2021-07-19T10:49:35Z</time>
      </trkpt>
      <trkpt lat="45.42612" lon="4.74708">
        <ele>118.344215</ele>
        <time>2021-07-19T10:49:36Z</time>
      </trkpt>
      <trkpt lat="45.42617" lon="4.74714">
        <ele>118.49747</ele>
        <time>2021-07-19T10:49:37Z</time>
      </trkpt>
      <trkpt lat="45.42622" lon="4.74719">
        <ele>118.78284</ele>
        <time>2021-07-19T10:49:38Z</time>
      </trkpt>
      <trkpt lat="45.42627" lon="4.74725">
        <ele>118.656006</ele>
        <time>2021-07-19T10:49:39Z</time>
      </trkpt>
      <trkpt lat="45.42632" lon="4.74731">
        <ele>118.740555</ele>
        <time>2021-07-19T10:49:40Z</time>
      </trkpt>
      <trkpt lat="45.42636" lon="4.74736">
        <ele>118.66129</ele>
        <time>2021-07-19T10:49:41Z</time>
      </trkpt>
      <trkpt lat="45.42641" lon="4.74742">
        <ele>118.4182</ele>
        <time>2021-07-19T10:49:42Z</time>
      </trkpt>
      <trkpt lat="45.42645" lon="4.74748">
        <ele>118.449905</ele>
        <time>2021-07-19T10:49:43Z</time>
      </trkpt>
      <trkpt lat="45.4265" lon="4.74754">
        <ele>118.46576</ele>
        <time>2021-07-19T10:49:44Z</time>
      </trkpt>
      <trkpt lat="45.42655" lon="4.7476">
        <ele>118.46576</ele>
        <time>2021-07-19T10:49:45Z</time>
      </trkpt>
      <trkpt lat="45.4266" lon="4.74765">
        <ele>118.52389</ele>
        <time>2021-07-19T10:49:46Z</time>
      </trkpt>
      <trkpt lat="45.42665" lon="4.74771">
        <ele>118.52917</ele>
        <time>2021-07-19T10:49:47Z</time>
      </trkpt>
      <trkpt lat="45.42669" lon="4.74777">
        <ele>118.449905</ele>
        <time>2021-07-19T10:49:48Z</time>
      </trkpt>
      <trkpt lat="45.42674" lon="4.74782">
        <ele>118.56088</ele>
        <time>2021-07-19T10:49:49Z</time>
      </trkpt>
      <trkpt lat="45.42679" lon="4.74788">
        <ele>118.735275</ele>
        <time>2021-07-19T10:49:50Z</time>
      </trkpt>
      <trkpt lat="45.42684" lon="4.74794">
        <ele>118.64544</ele>
        <time>2021-07-19T10:49:51Z</time>
      </trkpt>
      <trkpt lat="45.42689" lon="4.74799">
        <ele>118.50803</ele>
        <time>2021-07-19T10:49:52Z</time>
      </trkpt>
      <trkpt lat="45.42693" lon="4.74805">
        <ele>118.51861</ele>
        <time>2021-07-19T10:49:53Z</time>
      </trkpt>
      <trkpt lat="45.42698" lon="4.74811">
        <ele>118.629585</ele>
        <time>2021-07-19T10:49:54Z</time>
      </trkpt>
      <trkpt lat="45.42703" lon="4.74817">
        <ele>118.656006</ele>
        <time>2021-07-19T10:49:55Z</time>
      </trkpt>
      <trkpt lat="45.42707" lon="4.74822">
        <ele>118.52917</ele>
        <time>2021-07-19T10:49:56Z</time>
      </trkpt>
      <trkpt lat="45.42711" lon="4.74828">
        <ele>118.70357</ele>
        <time>2021-07-19T10:49:57Z</time>
      </trkpt>
      <trkpt lat="45.42716" lon="4.74834">
        <ele>118.449905</ele>
        <time>2021-07-19T10:49:58Z</time>
      </trkpt>
      <trkpt lat="45.4272" lon="4.7484">
        <ele>118.444626</ele>
        <time>2021-07-19T10:49:59Z</time>
      </trkpt>
      <trkpt lat="45.42725" lon="4.74846">
        <ele>118.323074</ele>
        <time>2021-07-19T10:50:00Z</time>
      </trkpt>
      <trkpt lat="45.4273" lon="4.74851">
        <ele>118.28079</ele>
        <time>2021-07-19T10:50:01Z</time>
      </trkpt>
      <trkpt lat="45.42734" lon="4.74857">
        <ele>118.54503</ele>
        <time>2021-07-19T10:50:02Z</time>
      </trkpt>
      <trkpt lat="45.42739" lon="4.74863">
        <ele>118.476326</ele>
        <time>2021-07-19T10:50:03Z</time>
      </trkpt>
      <trkpt lat="45.42743" lon="4.74869">
        <ele>118.51333</ele>
        <time>2021-07-19T10:50:04Z</time>
      </trkpt>
      <trkpt lat="45.42748" lon="4.74874">
        <ele>118.53974</ele>
        <time>2021-07-19T10:50:05Z</time>
      </trkpt>
      <trkpt lat="45.42753" lon="4.7488">
        <ele>118.455185</ele>
        <time>2021-07-19T10:50:06Z</time>
      </trkpt>
      <trkpt lat="45.42757" lon="4.74886">
        <ele>118.29137</ele>
        <time>2021-07-19T10:50:07Z</time>
      </trkpt>
      <trkpt lat="45.42762" lon="4.74891">
        <ele>118.555595</ele>
        <time>2021-07-19T10:50:08Z</time>
      </trkpt>
      <trkpt lat="45.42767" lon="4.74897">
        <ele>118.48161</ele>
        <time>2021-07-19T10:50:09Z</time>
      </trkpt>
      <trkpt lat="45.42772" lon="4.74902">
        <ele>118.550316</ele>
        <time>2021-07-19T10:50:10Z</time>
      </trkpt>
      <trkpt lat="45.42777" lon="4.74908">
        <ele>120.23611</ele>
        <time>2021-07-19T10:50:11Z</time>
      </trkpt>
      <trkpt lat="45.42781" lon="4.74913">
        <ele>119.54382</ele>
        <time>2021-07-19T10:50:12Z</time>
      </trkpt>
      <trkpt lat="45.42786" lon="4.74917">
        <ele>118.603165</ele>
        <time>2021-07-19T10:50:13Z</time>
      </trkpt>
      <trkpt lat="45.4279" lon="4.74922">
        <ele>118.40763</ele>
        <time>2021-07-19T10:50:14Z</time>
      </trkpt>
      <trkpt lat="45.42795" lon="4.74927">
        <ele>118.23324</ele>
        <time>2021-07-19T10:50:15Z</time>
      </trkpt>
      <trkpt lat="45.42799" lon="4.74933">
        <ele>118.21209</ele>
        <time>2021-07-19T10:50:16Z</time>
      </trkpt>
      <trkpt lat="45.42804" lon="4.74938">
        <ele>118.296646</ele>
        <time>2021-07-19T10:50:17Z</time>
      </trkpt>
      <trkpt lat="45.42809" lon="4.74944">
        <ele>118.20681</ele>
        <time>2021-07-19T10:50:18Z</time>
      </trkpt>
      <trkpt lat="45.42813" lon="4.7495">
        <ele>118.26494</ele>
        <time>2021-07-19T10:50:19Z</time>
      </trkpt>
      <trkpt lat="45.42818" lon="4.74955">
        <ele>118.116974</ele>
        <time>2021-07-19T10:50:20Z</time>
      </trkpt>
      <trkpt lat="45.42822" lon="4.74961">
        <ele>118.20681</ele>
        <time>2021-07-19T10:50:21Z</time>
      </trkpt>
      <trkpt lat="45.42827" lon="4.74967">
        <ele>118.46048</ele>
        <time>2021-07-19T10:50:22Z</time>
      </trkpt>
      <trkpt lat="45.42831" lon="4.74973">
        <ele>118.4182</ele>
        <time>2021-07-19T10:50:23Z</time>
      </trkpt>
      <trkpt lat="45.42836" lon="4.74979">
        <ele>118.50803</ele>
        <time>2021-07-19T10:50:24Z</time>
      </trkpt>
      <trkpt lat="45.4284" lon="4.74985">
        <ele>118.455185</ele>
        <time>2021-07-19T10:50:25Z</time>
      </trkpt>
      <trkpt lat="45.42844" lon="4.74991">
        <ele>118.43933</ele>
        <time>2021-07-19T10:50:26Z</time>
      </trkpt>
      <trkpt lat="45.42849" lon="4.74997">
        <ele>118.687706</ele>
        <time>2021-07-19T10:50:27Z</time>
      </trkpt>
      <trkpt lat="45.42854" lon="4.75003">
        <ele>118.814545</ele>
        <time>2021-07-19T10:50:28Z</time>
      </trkpt>
      <trkpt lat="45.42858" lon="4.75008">
        <ele>118.77756</ele>
        <time>2021-07-19T10:50:29Z</time>
      </trkpt>
      <trkpt lat="45.42863" lon="4.75014">
        <ele>118.83041</ele>
        <time>2021-07-19T10:50:30Z</time>
      </trkpt>
      <trkpt lat="45.42867" lon="4.7502">
        <ele>119.08935</ele>
        <time>2021-07-19T10:50:31Z</time>
      </trkpt>
      <trkpt lat="45.42872" lon="4.75025">
        <ele>118.814545</ele>
        <time>2021-07-19T10:50:32Z</time>
      </trkpt>
      <trkpt lat="45.42876" lon="4.75031">
        <ele>118.78284</ele>
        <time>2021-07-19T10:50:33Z</time>
      </trkpt>
      <trkpt lat="45.4288" lon="4.75037">
        <ele>118.77756</ele>
        <time>2021-07-19T10:50:34Z</time>
      </trkpt>
      <trkpt lat="45.42884" lon="4.75042">
        <ele>118.71942</ele>
        <time>2021-07-19T10:50:35Z</time>
      </trkpt>
      <trkpt lat="45.42889" lon="4.75048">
        <ele>118.49218</ele>
        <time>2021-07-19T10:50:36Z</time>
      </trkpt>
      <trkpt lat="45.42893" lon="4.75053">
        <ele>118.835686</ele>
        <time>2021-07-19T10:50:37Z</time>
      </trkpt>
      <trkpt lat="45.42898" lon="4.75059">
        <ele>118.634865</ele>
        <time>2021-07-19T10:50:38Z</time>
      </trkpt>
      <trkpt lat="45.42904" lon="4.75064">
        <ele>118.4869</ele>
        <time>2021-07-19T10:50:39Z</time>
      </trkpt>
      <trkpt lat="45.42909" lon="4.75069">
        <ele>118.18039</ele>
        <time>2021-07-19T10:50:40Z</time>
      </trkpt>
      <trkpt lat="45.42913" lon="4.75074">
        <ele>118.25437</ele>
        <time>2021-07-19T10:50:41Z</time>
      </trkpt>
      <trkpt lat="45.42918" lon="4.7508">
        <ele>118.22794</ele>
        <time>2021-07-19T10:50:42Z</time>
      </trkpt>
      <trkpt lat="45.42923" lon="4.75085">
        <ele>118.1751</ele>
        <time>2021-07-19T10:50:43Z</time>
      </trkpt>
      <trkpt lat="45.42928" lon="4.75091">
        <ele>118.323074</ele>
        <time>2021-07-19T10:50:44Z</time>
      </trkpt>
      <trkpt lat="45.42933" lon="4.75097">
        <ele>117.90559</ele>
        <time>2021-07-19T10:50:45Z</time>
      </trkpt>
      <trkpt lat="45.42938" lon="4.75103">
        <ele>118.24909</ele>
        <time>2021-07-19T10:50:46Z</time>
      </trkpt>
      <trkpt lat="45.42942" lon="4.75109">
        <ele>118.51333</ele>
        <time>2021-07-19T10:50:47Z</time>
      </trkpt>
      <trkpt lat="45.42947" lon="4.75115">
        <ele>118.82511</ele>
        <time>2021-07-19T10:50:48Z</time>
      </trkpt>
      <trkpt lat="45.42951" lon="4.75121">
        <ele>119.01008</ele>
        <time>2021-07-19T10:50:49Z</time>
      </trkpt>
      <trkpt lat="45.42955" lon="4.75127">
        <ele>119.05763</ele>
        <time>2021-07-19T10:50:50Z</time>
      </trkpt>
      <trkpt lat="45.4296" lon="4.75133">
        <ele>119.07349</ele>
        <time>2021-07-19T10:50:51Z</time>
      </trkpt>
      <trkpt lat="45.42964" lon="4.75139">
        <ele>119.1739</ele>
        <time>2021-07-19T10:50:52Z</time>
      </trkpt>
      <trkpt lat="45.42969" lon="4.75146">
        <ele>119.1739</ele>
        <time>2021-07-19T10:50:53Z</time>
      </trkpt>
      <trkpt lat="45.42973" lon="4.75151">
        <ele>118.77756</ele>
        <time>2021-07-19T10:50:54Z</time>
      </trkpt>
      <trkpt lat="45.42978" lon="4.75157">
        <ele>118.72471</ele>
        <time>2021-07-19T10:50:55Z</time>
      </trkpt>
      <trkpt lat="45.42982" lon="4.75163">
        <ele>118.87267</ele>
        <time>2021-07-19T10:50:56Z</time>
      </trkpt>
      <trkpt lat="45.42986" lon="4.75169">
        <ele>118.840965</ele>
        <time>2021-07-19T10:50:57Z</time>
      </trkpt>
      <trkpt lat="45.42991" lon="4.75176">
        <ele>119.327156</ele>
        <time>2021-07-19T10:50:58Z</time>
      </trkpt>
      <trkpt lat="45.42994" lon="4.75182">
        <ele>118.28079</ele>
        <time>2021-07-19T10:50:59Z</time>
      </trkpt>
      <trkpt lat="45.42999" lon="4.75188">
        <ele>118.4182</ele>
        <time>2021-07-19T10:51:00Z</time>
      </trkpt>
      <trkpt lat="45.43003" lon="4.75194">
        <ele>118.64015</ele>
        <time>2021-07-19T10:51:01Z</time>
      </trkpt>
      <trkpt lat="45.43007" lon="4.752">
        <ele>118.40763</ele>
        <time>2021-07-19T10:51:02Z</time>
      </trkpt>
      <trkpt lat="45.43012" lon="4.75206">
        <ele>118.582016</ele>
        <time>2021-07-19T10:51:03Z</time>
      </trkpt>
      <trkpt lat="45.43015" lon="4.75212">
        <ele>118.502754</ele>
        <time>2021-07-19T10:51:04Z</time>
      </trkpt>
      <trkpt lat="45.4302" lon="4.75218">
        <ele>118.29137</ele>
        <time>2021-07-19T10:51:05Z</time>
      </trkpt>
      <trkpt lat="45.43024" lon="4.75225">
        <ele>118.26494</ele>
        <time>2021-07-19T10:51:06Z</time>
      </trkpt>
      <trkpt lat="45.43028" lon="4.7523">
        <ele>118.50803</ele>
        <time>2021-07-19T10:51:07Z</time>
      </trkpt>
      <trkpt lat="45.43031" lon="4.75237">
        <ele>118.52917</ele>
        <time>2021-07-19T10:51:08Z</time>
      </trkpt>
      <trkpt lat="45.43035" lon="4.75243">
        <ele>118.222664</ele>
        <time>2021-07-19T10:51:09Z</time>
      </trkpt>
      <trkpt lat="45.43039" lon="4.75249">
        <ele>118.23852</ele>
        <time>2021-07-19T10:51:10Z</time>
      </trkpt>
      <trkpt lat="45.43043" lon="4.75256">
        <ele>118.28079</ele>
        <time>2021-07-19T10:51:11Z</time>
      </trkpt>
      <trkpt lat="45.43047" lon="4.75262">
        <ele>118.116974</ele>
        <time>2021-07-19T10:51:12Z</time>
      </trkpt>
      <trkpt lat="45.43051" lon="4.75268">
        <ele>118.27023</ele>
        <time>2021-07-19T10:51:13Z</time>
      </trkpt>
      <trkpt lat="45.43055" lon="4.75274">
        <ele>118.18039</ele>
        <time>2021-07-19T10:51:14Z</time>
      </trkpt>
      <trkpt lat="45.43058" lon="4.75281">
        <ele>117.90031</ele>
        <time>2021-07-19T10:51:15Z</time>
      </trkpt>
      <trkpt lat="45.43062" lon="4.75287">
        <ele>118.04299</ele>
        <time>2021-07-19T10:51:16Z</time>
      </trkpt>
      <trkpt lat="45.43066" lon="4.75295">
        <ele>118.20153</ele>
        <time>2021-07-19T10:51:17Z</time>
      </trkpt>
      <trkpt lat="45.4307" lon="4.75302">
        <ele>118.13811</ele>
        <time>2021-07-19T10:51:18Z</time>
      </trkpt>
      <trkpt lat="45.43074" lon="4.75308">
        <ele>118.3125</ele>
        <time>2021-07-19T10:51:19Z</time>
      </trkpt>
      <trkpt lat="45.43078" lon="4.75315">
        <ele>118.37592</ele>
        <time>2021-07-19T10:51:20Z</time>
      </trkpt>
      <trkpt lat="45.43081" lon="4.75322">
        <ele>118.502754</ele>
        <time>2021-07-19T10:51:21Z</time>
      </trkpt>
      <trkpt lat="45.43084" lon="4.75328">
        <ele>118.37063</ele>
        <time>2021-07-19T10:51:22Z</time>
      </trkpt>
      <trkpt lat="45.43087" lon="4.75335">
        <ele>118.04299</ele>
        <time>2021-07-19T10:51:23Z</time>
      </trkpt>
      <trkpt lat="45.4309" lon="4.75341">
        <ele>118.20681</ele>
        <time>2021-07-19T10:51:24Z</time>
      </trkpt>
      <trkpt lat="45.43093" lon="4.75347">
        <ele>118.14868</ele>
        <time>2021-07-19T10:51:25Z</time>
      </trkpt>
      <trkpt lat="45.43096" lon="4.75353">
        <ele>118.21209</ele>
        <time>2021-07-19T10:51:26Z</time>
      </trkpt>
      <trkpt lat="45.431" lon="4.7536">
        <ele>118.069405</ele>
        <time>2021-07-19T10:51:27Z</time>
      </trkpt>
      <trkpt lat="45.43103" lon="4.75366">
        <ele>118.28609</ele>
        <time>2021-07-19T10:51:28Z</time>
      </trkpt>
      <trkpt lat="45.43107" lon="4.75372">
        <ele>118.24909</ele>
        <time>2021-07-19T10:51:29Z</time>
      </trkpt>
      <trkpt lat="45.4311" lon="4.75379">
        <ele>118.1751</ele>
        <time>2021-07-19T10:51:30Z</time>
      </trkpt>
      <trkpt lat="45.43114" lon="4.75385">
        <ele>118.15396</ele>
        <time>2021-07-19T10:51:31Z</time>
      </trkpt>
      <trkpt lat="45.43118" lon="4.75392">
        <ele>118.26494</ele>
        <time>2021-07-19T10:51:32Z</time>
      </trkpt>
      <trkpt lat="45.43122" lon="4.75399">
        <ele>118.23852</ele>
        <time>2021-07-19T10:51:33Z</time>
      </trkpt>
      <trkpt lat="45.43126" lon="4.75405">
        <ele>118.169815</ele>
        <time>2021-07-19T10:51:34Z</time>
      </trkpt>
      <trkpt lat="45.4313" lon="4.75411">
        <ele>118.11169</ele>
        <time>2021-07-19T10:51:35Z</time>
      </trkpt>
      <trkpt lat="45.43134" lon="4.75416">
        <ele>117.99542</ele>
        <time>2021-07-19T10:51:36Z</time>
      </trkpt>
      <trkpt lat="45.43138" lon="4.75423">
        <ele>118.006</ele>
        <time>2021-07-19T10:51:37Z</time>
      </trkpt>
      <trkpt lat="45.43143" lon="4.75428">
        <ele>118.0747</ele>
        <time>2021-07-19T10:51:38Z</time>
      </trkpt>
      <trkpt lat="45.43147" lon="4.75434">
        <ele>118.07998</ele>
        <time>2021-07-19T10:51:39Z</time>
      </trkpt>
      <trkpt lat="45.43152" lon="4.7544">
        <ele>118.085266</ele>
        <time>2021-07-19T10:51:40Z</time>
      </trkpt>
      <trkpt lat="45.43157" lon="4.75445">
        <ele>118.01128</ele>
        <time>2021-07-19T10:51:41Z</time>
      </trkpt>
      <trkpt lat="45.43162" lon="4.7545">
        <ele>118.42877</ele>
        <time>2021-07-19T10:51:42Z</time>
      </trkpt>
      <trkpt lat="45.43167" lon="4.75455">
        <ele>118.40763</ele>
        <time>2021-07-19T10:51:43Z</time>
      </trkpt>
      <trkpt lat="45.43172" lon="4.75461">
        <ele>118.77226</ele>
        <time>2021-07-19T10:51:44Z</time>
      </trkpt>
      <trkpt lat="45.43177" lon="4.75466">
        <ele>118.39178</ele>
        <time>2021-07-19T10:51:45Z</time>
      </trkpt>
      <trkpt lat="45.43181" lon="4.75471">
        <ele>118.28079</ele>
        <time>2021-07-19T10:51:46Z</time>
      </trkpt>
      <trkpt lat="45.43186" lon="4.75476">
        <ele>118.4182</ele>
        <time>2021-07-19T10:51:47Z</time>
      </trkpt>
      <trkpt lat="45.4319" lon="4.75481">
        <ele>119.11577</ele>
        <time>2021-07-19T10:51:48Z</time>
      </trkpt>
      <trkpt lat="45.43194" lon="4.75487">
        <ele>120.78572</ele>
        <time>2021-07-19T10:51:49Z</time>
      </trkpt>
      <trkpt lat="45.43198" lon="4.75491">
        <ele>119.75521</ele>
        <time>2021-07-19T10:51:50Z</time>
      </trkpt>
      <trkpt lat="45.43201" lon="4.75495">
        <ele>118.18568</ele>
        <time>2021-07-19T10:51:51Z</time>
      </trkpt>
      <trkpt lat="45.43204" lon="4.75498">
        <ele>118.217384</ele>
        <time>2021-07-19T10:51:52Z</time>
      </trkpt>
      <trkpt lat="45.43207" lon="4.75501">
        <ele>117.392975</ele>
        <time>2021-07-19T10:51:53Z</time>
      </trkpt>
      <trkpt lat="45.4321" lon="4.75504">
        <ele>117.725914</ele>
        <time>2021-07-19T10:51:54Z</time>
      </trkpt>
      <trkpt lat="45.43213" lon="4.75508">
        <ele>119.226746</ele>
        <time>2021-07-19T10:51:55Z</time>
      </trkpt>
      <trkpt lat="45.43216" lon="4.75512">
        <ele>116.896225</ele>
        <time>2021-07-19T10:51:56Z</time>
      </trkpt>
      <trkpt lat="45.4322" lon="4.75515">
        <ele>116.55801</ele>
        <time>2021-07-19T10:51:57Z</time>
      </trkpt>
      <trkpt lat="45.43225" lon="4.75518">
        <ele>114.81408</ele>
        <time>2021-07-19T10:51:58Z</time>
      </trkpt>
      <trkpt lat="45.43229" lon="4.75522">
        <ele>118.78284</ele>
        <time>2021-07-19T10:51:59Z</time>
      </trkpt>
      <trkpt lat="45.43234" lon="4.75526">
        <ele>116.04011</ele>
        <time>2021-07-19T10:52:00Z</time>
      </trkpt>
      <trkpt lat="45.43238" lon="4.7553">
        <ele>117.778755</ele>
        <time>2021-07-19T10:52:01Z</time>
      </trkpt>
      <trkpt lat="45.43243" lon="4.75534">
        <ele>118.43933</ele>
        <time>2021-07-19T10:52:02Z</time>
      </trkpt>
      <trkpt lat="45.43248" lon="4.75538">
        <ele>118.740555</ele>
        <time>2021-07-19T10:52:03Z</time>
      </trkpt>
      <trkpt lat="45.43253" lon="4.75542">
        <ele>118.349495</ele>
        <time>2021-07-19T10:52:04Z</time>
      </trkpt>
      <trkpt lat="45.43258" lon="4.75546">
        <ele>118.037704</ele>
        <time>2021-07-19T10:52:05Z</time>
      </trkpt>
      <trkpt lat="45.43264" lon="4.7555">
        <ele>117.74177</ele>
        <time>2021-07-19T10:52:06Z</time>
      </trkpt>
      <trkpt lat="45.43269" lon="4.75555">
        <ele>118.36007</ele>
        <time>2021-07-19T10:52:07Z</time>
      </trkpt>
      <trkpt lat="45.43274" lon="4.75559">
        <ele>118.476326</ele>
        <time>2021-07-19T10:52:08Z</time>
      </trkpt>
      <trkpt lat="45.4328" lon="4.75563">
        <ele>118.48161</ele>
        <time>2021-07-19T10:52:09Z</time>
      </trkpt>
      <trkpt lat="45.43285" lon="4.75567">
        <ele>118.01128</ele>
        <time>2021-07-19T10:52:10Z</time>
      </trkpt>
      <trkpt lat="45.43291" lon="4.75571">
        <ele>118.15925</ele>
        <time>2021-07-19T10:52:11Z</time>
      </trkpt>
      <trkpt lat="45.43297" lon="4.75575">
        <ele>118.53446</ele>
        <time>2021-07-19T10:52:12Z</time>
      </trkpt>
      <trkpt lat="45.43303" lon="4.75579">
        <ele>118.169815</ele>
        <time>2021-07-19T10:52:13Z</time>
      </trkpt>
      <trkpt lat="45.43309" lon="4.75583">
        <ele>118.46576</ele>
        <time>2021-07-19T10:52:14Z</time>
      </trkpt>
      <trkpt lat="45.43314" lon="4.75587">
        <ele>118.47104</ele>
        <time>2021-07-19T10:52:15Z</time>
      </trkpt>
      <trkpt lat="45.4332" lon="4.75591">
        <ele>118.6243</ele>
        <time>2021-07-19T10:52:16Z</time>
      </trkpt>
      <trkpt lat="45.43327" lon="4.75594">
        <ele>118.61902</ele>
        <time>2021-07-19T10:52:17Z</time>
      </trkpt>
      <trkpt lat="45.43333" lon="4.75597">
        <ele>117.40883</ele>
        <time>2021-07-19T10:52:18Z</time>
      </trkpt>
      <trkpt lat="45.43338" lon="4.756">
        <ele>118.01128</ele>
        <time>2021-07-19T10:52:19Z</time>
      </trkpt>
      <trkpt lat="45.43344" lon="4.75603">
        <ele>118.27551</ele>
        <time>2021-07-19T10:52:20Z</time>
      </trkpt>
      <trkpt lat="45.43349" lon="4.75606">
        <ele>117.932014</ele>
        <time>2021-07-19T10:52:21Z</time>
      </trkpt>
      <trkpt lat="45.43355" lon="4.75609">
        <ele>118.1434</ele>
        <time>2021-07-19T10:52:22Z</time>
      </trkpt>
      <trkpt lat="45.43361" lon="4.75612">
        <ele>118.33364</ele>
        <time>2021-07-19T10:52:23Z</time>
      </trkpt>
      <trkpt lat="45.43366" lon="4.75615">
        <ele>118.169815</ele>
        <time>2021-07-19T10:52:24Z</time>
      </trkpt>
      <trkpt lat="45.43372" lon="4.75618">
        <ele>118.28079</ele>
        <time>2021-07-19T10:52:25Z</time>
      </trkpt>
      <trkpt lat="45.43377" lon="4.75622">
        <ele>118.43933</ele>
        <time>2021-07-19T10:52:26Z</time>
      </trkpt>
      <trkpt lat="45.43383" lon="4.75626">
        <ele>118.29137</ele>
        <time>2021-07-19T10:52:27Z</time>
      </trkpt>
      <trkpt lat="45.43389" lon="4.7563">
        <ele>118.27023</ele>
        <time>2021-07-19T10:52:28Z</time>
      </trkpt>
      <trkpt lat="45.43394" lon="4.75634">
        <ele>118.31779</ele>
        <time>2021-07-19T10:52:29Z</time>
      </trkpt>
      <trkpt lat="45.43399" lon="4.75638">
        <ele>118.50803</ele>
        <time>2021-07-19T10:52:30Z</time>
      </trkpt>
      <trkpt lat="45.43404" lon="4.75644">
        <ele>118.444626</ele>
        <time>2021-07-19T10:52:31Z</time>
      </trkpt>
      <trkpt lat="45.43408" lon="4.75649">
        <ele>118.39178</ele>
        <time>2021-07-19T10:52:32Z</time>
      </trkpt>
      <trkpt lat="45.43412" lon="4.75654">
        <ele>118.40763</ele>
        <time>2021-07-19T10:52:33Z</time>
      </trkpt>
      <trkpt lat="45.43417" lon="4.7566">
        <ele>118.28079</ele>
        <time>2021-07-19T10:52:34Z</time>
      </trkpt>
      <trkpt lat="45.4342" lon="4.75666">
        <ele>118.36007</ele>
        <time>2021-07-19T10:52:35Z</time>
      </trkpt>
      <trkpt lat="45.43425" lon="4.75673">
        <ele>118.40234</ele>
        <time>2021-07-19T10:52:36Z</time>
      </trkpt>
      <trkpt lat="45.43429" lon="4.75679">
        <ele>117.937294</ele>
        <time>2021-07-19T10:52:37Z</time>
      </trkpt>
      <trkpt lat="45.43433" lon="4.75685">
        <ele>117.937294</ele>
        <time>2021-07-19T10:52:38Z</time>
      </trkpt>
      <trkpt lat="45.43438" lon="4.75691">
        <ele>117.97429</ele>
        <time>2021-07-19T10:52:39Z</time>
      </trkpt>
      <trkpt lat="45.43442" lon="4.75696">
        <ele>118.09055</ele>
        <time>2021-07-19T10:52:40Z</time>
      </trkpt>
      <trkpt lat="45.43447" lon="4.75702">
        <ele>118.037704</ele>
        <time>2021-07-19T10:52:41Z</time>
      </trkpt>
      <trkpt lat="45.43452" lon="4.75707">
        <ele>118.169815</ele>
        <time>2021-07-19T10:52:42Z</time>
      </trkpt>
      <trkpt lat="45.43457" lon="4.75712">
        <ele>118.064125</ele>
        <time>2021-07-19T10:52:43Z</time>
      </trkpt>
      <trkpt lat="45.43462" lon="4.75715">
        <ele>118.58731</ele>
        <time>2021-07-19T10:52:44Z</time>
      </trkpt>
      <trkpt lat="45.43467" lon="4.75719">
        <ele>118.23852</ele>
        <time>2021-07-19T10:52:45Z</time>
      </trkpt>
      <trkpt lat="45.43473" lon="4.75722">
        <ele>118.13283</ele>
        <time>2021-07-19T10:52:46Z</time>
      </trkpt>
      <trkpt lat="45.43478" lon="4.75725">
        <ele>118.222664</ele>
        <time>2021-07-19T10:52:47Z</time>
      </trkpt>
      <trkpt lat="45.43484" lon="4.75728">
        <ele>118.37063</ele>
        <time>2021-07-19T10:52:48Z</time>
      </trkpt>
      <trkpt lat="45.4349" lon="4.7573">
        <ele>118.20153</ele>
        <time>2021-07-19T10:52:49Z</time>
      </trkpt>
      <trkpt lat="45.43495" lon="4.75733">
        <ele>118.30722</ele>
        <time>2021-07-19T10:52:50Z</time>
      </trkpt>
      <trkpt lat="45.43501" lon="4.75735">
        <ele>117.32428</ele>
        <time>2021-07-19T10:52:51Z</time>
      </trkpt>
      <trkpt lat="45.43506" lon="4.75737">
        <ele>118.20153</ele>
        <time>2021-07-19T10:52:52Z</time>
      </trkpt>
      <trkpt lat="45.43511" lon="4.7574">
        <ele>118.21209</ele>
        <time>2021-07-19T10:52:53Z</time>
      </trkpt>
      <trkpt lat="45.43516" lon="4.75742">
        <ele>118.39178</ele>
        <time>2021-07-19T10:52:54Z</time>
      </trkpt>
      <trkpt lat="45.43521" lon="4.75744">
        <ele>118.65072</ele>
        <time>2021-07-19T10:52:55Z</time>
      </trkpt>
      <trkpt lat="45.43526" lon="4.75746">
        <ele>118.656006</ele>
        <time>2021-07-19T10:52:56Z</time>
      </trkpt>
      <trkpt lat="45.43531" lon="4.75748">
        <ele>118.656006</ele>
        <time>2021-07-19T10:52:57Z</time>
      </trkpt>
      <trkpt lat="45.43536" lon="4.7575">
        <ele>118.4869</ele>
        <time>2021-07-19T10:52:58Z</time>
      </trkpt>
      <trkpt lat="45.43542" lon="4.75752">
        <ele>118.49218</ele>
        <time>2021-07-19T10:52:59Z</time>
      </trkpt>
      <trkpt lat="45.43547" lon="4.75754">
        <ele>118.87796</ele>
        <time>2021-07-19T10:53:00Z</time>
      </trkpt>
      <trkpt lat="45.43553" lon="4.75756">
        <ele>118.6243</ele>
        <time>2021-07-19T10:53:01Z</time>
      </trkpt>
      <trkpt lat="45.43559" lon="4.75757">
        <ele>118.57674</ele>
        <time>2021-07-19T10:53:02Z</time>
      </trkpt>
      <trkpt lat="45.43564" lon="4.75757">
        <ele>118.87267</ele>
        <time>2021-07-19T10:53:03Z</time>
      </trkpt>
      <trkpt lat="45.4357" lon="4.75758">
        <ele>118.87267</ele>
        <time>2021-07-19T10:53:04Z</time>
      </trkpt>
      <trkpt lat="45.43576" lon="4.7576">
        <ele>118.97309</ele>
        <time>2021-07-19T10:53:05Z</time>
      </trkpt>
      <trkpt lat="45.43581" lon="4.75761">
        <ele>118.78284</ele>
        <time>2021-07-19T10:53:06Z</time>
      </trkpt>
      <trkpt lat="45.43587" lon="4.75762">
        <ele>118.1751</ele>
        <time>2021-07-19T10:53:07Z</time>
      </trkpt>
      <trkpt lat="45.43593" lon="4.75763">
        <ele>118.86739</ele>
        <time>2021-07-19T10:53:08Z</time>
      </trkpt>
      <trkpt lat="45.43598" lon="4.75764">
        <ele>116.37304</ele>
        <time>2021-07-19T10:53:09Z</time>
      </trkpt>
      <trkpt lat="45.43604" lon="4.75765">
        <ele>118.10112</ele>
        <time>2021-07-19T10:53:10Z</time>
      </trkpt>
      <trkpt lat="45.4361" lon="4.75765">
        <ele>118.9678</ele>
        <time>2021-07-19T10:53:11Z</time>
      </trkpt>
      <trkpt lat="45.43616" lon="4.75766">
        <ele>118.92024</ele>
        <time>2021-07-19T10:53:12Z</time>
      </trkpt>
      <trkpt lat="45.43621" lon="4.75767">
        <ele>118.788124</ele>
        <time>2021-07-19T10:53:13Z</time>
      </trkpt>
      <trkpt lat="45.43627" lon="4.75767">
        <ele>118.43405</ele>
        <time>2021-07-19T10:53:14Z</time>
      </trkpt>
      <trkpt lat="45.43633" lon="4.75768">
        <ele>118.31779</ele>
        <time>2021-07-19T10:53:15Z</time>
      </trkpt>
      <trkpt lat="45.43638" lon="4.75768">
        <ele>119.05763</ele>
        <time>2021-07-19T10:53:16Z</time>
      </trkpt>
      <trkpt lat="45.43643" lon="4.75768">
        <ele>118.85682</ele>
        <time>2021-07-19T10:53:17Z</time>
      </trkpt>
      <trkpt lat="45.43649" lon="4.75767">
        <ele>118.603165</ele>
        <time>2021-07-19T10:53:18Z</time>
      </trkpt>
      <trkpt lat="45.43655" lon="4.75766">
        <ele>118.80926</ele>
        <time>2021-07-19T10:53:19Z</time>
      </trkpt>
      <trkpt lat="45.43661" lon="4.75764">
        <ele>118.71942</ele>
        <time>2021-07-19T10:53:20Z</time>
      </trkpt>
      <trkpt lat="45.43667" lon="4.75763">
        <ele>118.57146</ele>
        <time>2021-07-19T10:53:21Z</time>
      </trkpt>
      <trkpt lat="45.43672" lon="4.75759">
        <ele>118.608444</ele>
        <time>2021-07-19T10:53:22Z</time>
      </trkpt>
      <trkpt lat="45.43677" lon="4.75758">
        <ele>118.31779</ele>
        <time>2021-07-19T10:53:23Z</time>
      </trkpt>
      <trkpt lat="45.43682" lon="4.75756">
        <ele>118.25437</ele>
        <time>2021-07-19T10:53:24Z</time>
      </trkpt>
      <trkpt lat="45.43687" lon="4.75753">
        <ele>118.4182</ele>
        <time>2021-07-19T10:53:25Z</time>
      </trkpt>
      <trkpt lat="45.43692" lon="4.75751">
        <ele>118.18039</ele>
        <time>2021-07-19T10:53:26Z</time>
      </trkpt>
      <trkpt lat="45.43697" lon="4.75747">
        <ele>116.8698</ele>
        <time>2021-07-19T10:53:27Z</time>
      </trkpt>
      <trkpt lat="45.43703" lon="4.75745">
        <ele>117.73647</ele>
        <time>2021-07-19T10:53:28Z</time>
      </trkpt>
      <trkpt lat="45.43708" lon="4.75742">
        <ele>117.73119</ele>
        <time>2021-07-19T10:53:29Z</time>
      </trkpt>
      <trkpt lat="45.43713" lon="4.75738">
        <ele>117.65721</ele>
        <time>2021-07-19T10:53:30Z</time>
      </trkpt>
      <trkpt lat="45.43718" lon="4.75734">
        <ele>117.97429</ele>
        <time>2021-07-19T10:53:31Z</time>
      </trkpt>
      <trkpt lat="45.43722" lon="4.7573">
        <ele>117.94786</ele>
        <time>2021-07-19T10:53:32Z</time>
      </trkpt>
      <trkpt lat="45.43724" lon="4.75726">
        <ele>117.16574</ele>
        <time>2021-07-19T10:53:33Z</time>
      </trkpt>
      <trkpt lat="45.43728" lon="4.7572">
        <ele>117.472244</ele>
        <time>2021-07-19T10:53:34Z</time>
      </trkpt>
      <trkpt lat="45.43731" lon="4.75715">
        <ele>117.826324</ele>
        <time>2021-07-19T10:53:35Z</time>
      </trkpt>
      <trkpt lat="45.43734" lon="4.75711">
        <ele>117.88973</ele>
        <time>2021-07-19T10:53:36Z</time>
      </trkpt>
      <trkpt lat="45.43736" lon="4.75707">
        <ele>117.725914</ele>
        <time>2021-07-19T10:53:37Z</time>
      </trkpt>
      <trkpt lat="45.43739" lon="4.75703">
        <ele>117.958435</ele>
        <time>2021-07-19T10:53:38Z</time>
      </trkpt>
      <trkpt lat="45.43744" lon="4.75698">
        <ele>117.7999</ele>
        <time>2021-07-19T10:53:39Z</time>
      </trkpt>
      <trkpt lat="45.43748" lon="4.75693">
        <ele>117.84746</ele>
        <time>2021-07-19T10:53:40Z</time>
      </trkpt>
      <trkpt lat="45.43753" lon="4.75686">
        <ele>117.910866</ele>
        <time>2021-07-19T10:53:41Z</time>
      </trkpt>
      <trkpt lat="45.43758" lon="4.75683">
        <ele>117.90031</ele>
        <time>2021-07-19T10:53:42Z</time>
      </trkpt>
      <trkpt lat="45.43763" lon="4.75678">
        <ele>117.831604</ele>
        <time>2021-07-19T10:53:43Z</time>
      </trkpt>
      <trkpt lat="45.43767" lon="4.75674">
        <ele>117.773476</ele>
        <time>2021-07-19T10:53:44Z</time>
      </trkpt>
      <trkpt lat="45.43772" lon="4.7567">
        <ele>117.82103</ele>
        <time>2021-07-19T10:53:45Z</time>
      </trkpt>
      <trkpt lat="45.43778" lon="4.75668">
        <ele>117.73119</ele>
        <time>2021-07-19T10:53:46Z</time>
      </trkpt>
      <trkpt lat="45.43783" lon="4.75664">
        <ele>117.699486</ele>
        <time>2021-07-19T10:53:47Z</time>
      </trkpt>
      <trkpt lat="45.43789" lon="4.75661">
        <ele>117.71005</ele>
        <time>2021-07-19T10:53:48Z</time>
      </trkpt>
      <trkpt lat="45.43794" lon="4.75657">
        <ele>117.773476</ele>
        <time>2021-07-19T10:53:49Z</time>
      </trkpt>
      <trkpt lat="45.43799" lon="4.75655">
        <ele>117.81575</ele>
        <time>2021-07-19T10:53:50Z</time>
      </trkpt>
      <trkpt lat="45.43805" lon="4.75651">
        <ele>117.73119</ele>
        <time>2021-07-19T10:53:51Z</time>
      </trkpt>
      <trkpt lat="45.43811" lon="4.75648">
        <ele>117.75233</ele>
        <time>2021-07-19T10:53:52Z</time>
      </trkpt>
      <trkpt lat="45.43817" lon="4.75645">
        <ele>118.037704</ele>
        <time>2021-07-19T10:53:53Z</time>
      </trkpt>
      <trkpt lat="45.43824" lon="4.75642">
        <ele>117.94258</ele>
        <time>2021-07-19T10:53:54Z</time>
      </trkpt>
      <trkpt lat="45.4383" lon="4.75638">
        <ele>117.8686</ele>
        <time>2021-07-19T10:53:55Z</time>
      </trkpt>
      <trkpt lat="45.43837" lon="4.75639">
        <ele>117.87388</ele>
        <time>2021-07-19T10:53:56Z</time>
      </trkpt>
      <trkpt lat="45.43843" lon="4.75637">
        <ele>117.82103</ele>
        <time>2021-07-19T10:53:57Z</time>
      </trkpt>
      <trkpt lat="45.43849" lon="4.75636">
        <ele>117.74177</ele>
        <time>2021-07-19T10:53:58Z</time>
      </trkpt>
      <trkpt lat="45.43855" lon="4.75636">
        <ele>117.90559</ele>
        <time>2021-07-19T10:53:59Z</time>
      </trkpt>
      <trkpt lat="45.43861" lon="4.75636">
        <ele>118.42877</ele>
        <time>2021-07-19T10:54:00Z</time>
      </trkpt>
      <trkpt lat="45.43866" lon="4.75638">
        <ele>118.058846</ele>
        <time>2021-07-19T10:54:01Z</time>
      </trkpt>
      <trkpt lat="45.43872" lon="4.75641">
        <ele>118.006</ele>
        <time>2021-07-19T10:54:02Z</time>
      </trkpt>
      <trkpt lat="45.43877" lon="4.75642">
        <ele>117.98486</ele>
        <time>2021-07-19T10:54:03Z</time>
      </trkpt>
      <trkpt lat="45.43884" lon="4.75641">
        <ele>118.37063</ele>
        <time>2021-07-19T10:54:04Z</time>
      </trkpt>
      <trkpt lat="45.4389" lon="4.75642">
        <ele>118.47104</ele>
        <time>2021-07-19T10:54:05Z</time>
      </trkpt>
      <trkpt lat="45.43895" lon="4.7564">
        <ele>117.71534</ele>
        <time>2021-07-19T10:54:06Z</time>
      </trkpt>
      <trkpt lat="45.43902" lon="4.7564">
        <ele>117.778755</ele>
        <time>2021-07-19T10:54:07Z</time>
      </trkpt>
      <trkpt lat="45.43908" lon="4.75641">
        <ele>117.572655</ele>
        <time>2021-07-19T10:54:08Z</time>
      </trkpt>
      <trkpt lat="45.43913" lon="4.75643">
        <ele>117.35599</ele>
        <time>2021-07-19T10:54:09Z</time>
      </trkpt>
      <trkpt lat="45.43918" lon="4.75644">
        <ele>117.46696</ele>
        <time>2021-07-19T10:54:10Z</time>
      </trkpt>
      <trkpt lat="45.43923" lon="4.75647">
        <ele>117.49867</ele>
        <time>2021-07-19T10:54:11Z</time>
      </trkpt>
      <trkpt lat="45.43929" lon="4.75651">
        <ele>117.51453</ele>
        <time>2021-07-19T10:54:12Z</time>
      </trkpt>
      <trkpt lat="45.43936" lon="4.75653">
        <ele>117.60964</ele>
        <time>2021-07-19T10:54:13Z</time>
      </trkpt>
      <trkpt lat="45.43942" lon="4.75655">
        <ele>117.68892</ele>
        <time>2021-07-19T10:54:14Z</time>
      </trkpt>
      <trkpt lat="45.43949" lon="4.75655">
        <ele>117.48282</ele>
        <time>2021-07-19T10:54:15Z</time>
      </trkpt>
      <trkpt lat="45.43955" lon="4.75658">
        <ele>117.53038</ele>
        <time>2021-07-19T10:54:16Z</time>
      </trkpt>
      <trkpt lat="45.43961" lon="4.7566">
        <ele>117.805176</ele>
        <time>2021-07-19T10:54:17Z</time>
      </trkpt>
      <trkpt lat="45.43967" lon="4.75662">
        <ele>117.910866</ele>
        <time>2021-07-19T10:54:18Z</time>
      </trkpt>
      <trkpt lat="45.43974" lon="4.75665">
        <ele>117.963715</ele>
        <time>2021-07-19T10:54:19Z</time>
      </trkpt>
      <trkpt lat="45.4398" lon="4.75666">
        <ele>118.00071</ele>
        <time>2021-07-19T10:54:20Z</time>
      </trkpt>
      <trkpt lat="45.43986" lon="4.75667">
        <ele>118.349495</ele>
        <time>2021-07-19T10:54:21Z</time>
      </trkpt>
      <trkpt lat="45.43992" lon="4.75668">
        <ele>118.26494</ele>
        <time>2021-07-19T10:54:22Z</time>
      </trkpt>
      <trkpt lat="45.43998" lon="4.7567">
        <ele>117.42997</ele>
        <time>2021-07-19T10:54:23Z</time>
      </trkpt>
      <trkpt lat="45.44005" lon="4.75672">
        <ele>117.27143</ele>
        <time>2021-07-19T10:54:24Z</time>
      </trkpt>
      <trkpt lat="45.44012" lon="4.75674">
        <ele>118.037704</ele>
        <time>2021-07-19T10:54:25Z</time>
      </trkpt>
      <trkpt lat="45.44018" lon="4.75675">
        <ele>117.963715</ele>
        <time>2021-07-19T10:54:26Z</time>
      </trkpt>
      <trkpt lat="45.44023" lon="4.75676">
        <ele>118.656006</ele>
        <time>2021-07-19T10:54:27Z</time>
      </trkpt>
      <trkpt lat="45.44029" lon="4.75676">
        <ele>118.35478</ele>
        <time>2021-07-19T10:54:28Z</time>
      </trkpt>
      <trkpt lat="45.44034" lon="4.75675">
        <ele>117.81575</ele>
        <time>2021-07-19T10:54:29Z</time>
      </trkpt>
      <trkpt lat="45.4404" lon="4.75675">
        <ele>117.90031</ele>
        <time>2021-07-19T10:54:30Z</time>
      </trkpt>
      <trkpt lat="45.44045" lon="4.75673">
        <ele>118.12225</ele>
        <time>2021-07-19T10:54:31Z</time>
      </trkpt>
      <trkpt lat="45.44051" lon="4.75672">
        <ele>118.09583</ele>
        <time>2021-07-19T10:54:32Z</time>
      </trkpt>
      <trkpt lat="45.44057" lon="4.75671">
        <ele>118.169815</ele>
        <time>2021-07-19T10:54:33Z</time>
      </trkpt>
      <trkpt lat="45.44062" lon="4.75668">
        <ele>118.02714</ele>
        <time>2021-07-19T10:54:34Z</time>
      </trkpt>
      <trkpt lat="45.44068" lon="4.75665">
        <ele>117.79461</ele>
        <time>2021-07-19T10:54:35Z</time>
      </trkpt>
      <trkpt lat="45.44073" lon="4.7566">
        <ele>117.858025</ele>
        <time>2021-07-19T10:54:36Z</time>
      </trkpt>
      <trkpt lat="45.44078" lon="4.75655">
        <ele>117.82103</ele>
        <time>2021-07-19T10:54:37Z</time>
      </trkpt>
      <trkpt lat="45.44083" lon="4.75648">
        <ele>118.02185</ele>
        <time>2021-07-19T10:54:38Z</time>
      </trkpt>
      <trkpt lat="45.44088" lon="4.75642">
        <ele>118.217384</ele>
        <time>2021-07-19T10:54:39Z</time>
      </trkpt>
      <trkpt lat="45.4409" lon="4.75635">
        <ele>118.11169</ele>
        <time>2021-07-19T10:54:40Z</time>
      </trkpt>
      <trkpt lat="45.44094" lon="4.75626">
        <ele>118.27551</ele>
        <time>2021-07-19T10:54:41Z</time>
      </trkpt>
      <trkpt lat="45.44097" lon="4.7562">
        <ele>117.99542</ele>
        <time>2021-07-19T10:54:42Z</time>
      </trkpt>
      <trkpt lat="45.44101" lon="4.75613">
        <ele>118.449905</ele>
        <time>2021-07-19T10:54:43Z</time>
      </trkpt>
      <trkpt lat="45.44105" lon="4.75604">
        <ele>118.35478</ele>
        <time>2021-07-19T10:54:44Z</time>
      </trkpt>
      <trkpt lat="45.44109" lon="4.75596">
        <ele>119.15804</ele>
        <time>2021-07-19T10:54:45Z</time>
      </trkpt>
      <trkpt lat="45.44111" lon="4.7559">
        <ele>117.963715</ele>
        <time>2021-07-19T10:54:46Z</time>
      </trkpt>
      <trkpt lat="45.44114" lon="4.75581">
        <ele>117.92144</ele>
        <time>2021-07-19T10:54:47Z</time>
      </trkpt>
      <trkpt lat="45.44116" lon="4.75571">
        <ele>117.88445</ele>
        <time>2021-07-19T10:54:48Z</time>
      </trkpt>
      <trkpt lat="45.44118" lon="4.75563">
        <ele>117.858025</ele>
        <time>2021-07-19T10:54:49Z</time>
      </trkpt>
      <trkpt lat="45.44121" lon="4.75556">
        <ele>118.01128</ele>
        <time>2021-07-19T10:54:50Z</time>
      </trkpt>
      <trkpt lat="45.44124" lon="4.75549">
        <ele>117.778755</ele>
        <time>2021-07-19T10:54:51Z</time>
      </trkpt>
      <trkpt lat="45.44128" lon="4.75543">
        <ele>117.84217</ele>
        <time>2021-07-19T10:54:52Z</time>
      </trkpt>
      <trkpt lat="45.44132" lon="4.75538">
        <ele>114.232765</ele>
        <time>2021-07-19T10:54:53Z</time>
      </trkpt>
      <trkpt lat="45.44137" lon="4.75535">
        <ele>117.74705</ele>
        <time>2021-07-19T10:54:54Z</time>
      </trkpt>
      <trkpt lat="45.44143" lon="4.75532">
        <ele>118.24909</ele>
        <time>2021-07-19T10:54:55Z</time>
      </trkpt>
      <trkpt lat="45.44149" lon="4.7553">
        <ele>118.13811</ele>
        <time>2021-07-19T10:54:56Z</time>
      </trkpt>
      <trkpt lat="45.44156" lon="4.75529">
        <ele>118.064125</ele>
        <time>2021-07-19T10:54:57Z</time>
      </trkpt>
      <trkpt lat="45.44162" lon="4.7553">
        <ele>118.13811</ele>
        <time>2021-07-19T10:54:58Z</time>
      </trkpt>
      <trkpt lat="45.44168" lon="4.75531">
        <ele>118.51861</ele>
        <time>2021-07-19T10:54:59Z</time>
      </trkpt>
      <trkpt lat="45.44174" lon="4.75532">
        <ele>118.50803</ele>
        <time>2021-07-19T10:55:00Z</time>
      </trkpt>
      <trkpt lat="45.4418" lon="4.75533">
        <ele>118.49218</ele>
        <time>2021-07-19T10:55:01Z</time>
      </trkpt>
      <trkpt lat="45.44186" lon="4.75534">
        <ele>118.21209</ele>
        <time>2021-07-19T10:55:02Z</time>
      </trkpt>
      <trkpt lat="45.44192" lon="4.75534">
        <ele>118.46576</ele>
        <time>2021-07-19T10:55:03Z</time>
      </trkpt>
      <trkpt lat="45.44198" lon="4.75535">
        <ele>118.28079</ele>
        <time>2021-07-19T10:55:04Z</time>
      </trkpt>
      <trkpt lat="45.44204" lon="4.75537">
        <ele>118.37592</ele>
        <time>2021-07-19T10:55:05Z</time>
      </trkpt>
      <trkpt lat="45.44209" lon="4.7554">
        <ele>118.32836</ele>
        <time>2021-07-19T10:55:06Z</time>
      </trkpt>
      <trkpt lat="45.44215" lon="4.75545">
        <ele>118.28609</ele>
        <time>2021-07-19T10:55:07Z</time>
      </trkpt>
      <trkpt lat="45.4422" lon="4.75549">
        <ele>118.40763</ele>
        <time>2021-07-19T10:55:08Z</time>
      </trkpt>
      <trkpt lat="45.44225" lon="4.75553">
        <ele>118.4869</ele>
        <time>2021-07-19T10:55:09Z</time>
      </trkpt>
      <trkpt lat="45.4423" lon="4.75557">
        <ele>118.20681</ele>
        <time>2021-07-19T10:55:10Z</time>
      </trkpt>
      <trkpt lat="45.44235" lon="4.75562">
        <ele>118.23852</ele>
        <time>2021-07-19T10:55:11Z</time>
      </trkpt>
      <trkpt lat="45.44239" lon="4.75566">
        <ele>118.11169</ele>
        <time>2021-07-19T10:55:12Z</time>
      </trkpt>
      <trkpt lat="45.44245" lon="4.75569">
        <ele>118.02714</ele>
        <time>2021-07-19T10:55:13Z</time>
      </trkpt>
      <trkpt lat="45.4425" lon="4.75572">
        <ele>118.10112</ele>
        <time>2021-07-19T10:55:14Z</time>
      </trkpt>
      <trkpt lat="45.44255" lon="4.75574">
        <ele>118.35478</ele>
        <time>2021-07-19T10:55:15Z</time>
      </trkpt>
      <trkpt lat="45.44261" lon="4.75576">
        <ele>118.217384</ele>
        <time>2021-07-19T10:55:16Z</time>
      </trkpt>
      <trkpt lat="45.44266" lon="4.75578">
        <ele>118.037704</ele>
        <time>2021-07-19T10:55:17Z</time>
      </trkpt>
      <trkpt lat="45.44272" lon="4.75578">
        <ele>117.86331</ele>
        <time>2021-07-19T10:55:18Z</time>
      </trkpt>
      <trkpt lat="45.44277" lon="4.75576">
        <ele>118.064125</ele>
        <time>2021-07-19T10:55:19Z</time>
      </trkpt>
      <trkpt lat="45.44283" lon="4.75575">
        <ele>118.085266</ele>
        <time>2021-07-19T10:55:20Z</time>
      </trkpt>
      <trkpt lat="45.44289" lon="4.75572">
        <ele>117.86331</ele>
        <time>2021-07-19T10:55:21Z</time>
      </trkpt>
      <trkpt lat="45.44294" lon="4.7557">
        <ele>118.15925</ele>
        <time>2021-07-19T10:55:22Z</time>
      </trkpt>
      <trkpt lat="45.443" lon="4.75568">
        <ele>118.43933</ele>
        <time>2021-07-19T10:55:23Z</time>
      </trkpt>
      <trkpt lat="45.44305" lon="4.75566">
        <ele>117.94786</ele>
        <time>2021-07-19T10:55:24Z</time>
      </trkpt>
      <trkpt lat="45.44311" lon="4.75564">
        <ele>118.25437</ele>
        <time>2021-07-19T10:55:25Z</time>
      </trkpt>
      <trkpt lat="45.44316" lon="4.75562">
        <ele>118.25966</ele>
        <time>2021-07-19T10:55:26Z</time>
      </trkpt>
      <trkpt lat="45.44321" lon="4.7556">
        <ele>118.04827</ele>
        <time>2021-07-19T10:55:27Z</time>
      </trkpt>
      <trkpt lat="45.44327" lon="4.75556">
        <ele>117.90031</ele>
        <time>2021-07-19T10:55:28Z</time>
      </trkpt>
      <trkpt lat="45.44332" lon="4.75551">
        <ele>118.53974</ele>
        <time>2021-07-19T10:55:29Z</time>
      </trkpt>
      <trkpt lat="45.44337" lon="4.75547">
        <ele>119.21089</ele>
        <time>2021-07-19T10:55:30Z</time>
      </trkpt>
      <trkpt lat="45.44341" lon="4.75543">
        <ele>118.48161</ele>
        <time>2021-07-19T10:55:31Z</time>
      </trkpt>
      <trkpt lat="45.44346" lon="4.75539">
        <ele>118.116974</ele>
        <time>2021-07-19T10:55:32Z</time>
      </trkpt>
      <trkpt lat="45.4435" lon="4.75536">
        <ele>117.805176</ele>
        <time>2021-07-19T10:55:33Z</time>
      </trkpt>
      <trkpt lat="45.44355" lon="4.75532">
        <ele>117.667786</ele>
        <time>2021-07-19T10:55:34Z</time>
      </trkpt>
      <trkpt lat="45.4436" lon="4.75526">
        <ele>118.349495</ele>
        <time>2021-07-19T10:55:35Z</time>
      </trkpt>
      <trkpt lat="45.44364" lon="4.75523">
        <ele>118.037704</ele>
        <time>2021-07-19T10:55:36Z</time>
      </trkpt>
      <trkpt lat="45.44368" lon="4.75518">
        <ele>117.99014</ele>
        <time>2021-07-19T10:55:37Z</time>
      </trkpt>
      <trkpt lat="45.44373" lon="4.75514">
        <ele>118.064125</ele>
        <time>2021-07-19T10:55:38Z</time>
      </trkpt>
      <trkpt lat="45.44377" lon="4.75509">
        <ele>118.36535</ele>
        <time>2021-07-19T10:55:39Z</time>
      </trkpt>
      <trkpt lat="45.4438" lon="4.75505">
        <ele>117.70477</ele>
        <time>2021-07-19T10:55:40Z</time>
      </trkpt>
      <trkpt lat="45.44384" lon="4.75502">
        <ele>117.577934</ele>
        <time>2021-07-19T10:55:41Z</time>
      </trkpt>
      <trkpt lat="45.44389" lon="4.755">
        <ele>117.63607</ele>
        <time>2021-07-19T10:55:42Z</time>
      </trkpt>
      <trkpt lat="45.44395" lon="4.75499">
        <ele>117.82103</ele>
        <time>2021-07-19T10:55:43Z</time>
      </trkpt>
      <trkpt lat="45.44401" lon="4.75498">
        <ele>117.71005</ele>
        <time>2021-07-19T10:55:44Z</time>
      </trkpt>
      <trkpt lat="45.44407" lon="4.75496">
        <ele>117.88973</ele>
        <time>2021-07-19T10:55:45Z</time>
      </trkpt>
      <trkpt lat="45.44412" lon="4.75495">
        <ele>118.20153</ele>
        <time>2021-07-19T10:55:46Z</time>
      </trkpt>
      <trkpt lat="45.44418" lon="4.75495">
        <ele>118.23324</ele>
        <time>2021-07-19T10:55:47Z</time>
      </trkpt>
      <trkpt lat="45.44424" lon="4.75494">
        <ele>118.18039</ele>
        <time>2021-07-19T10:55:48Z</time>
      </trkpt>
      <trkpt lat="45.44429" lon="4.75494">
        <ele>117.97429</ele>
        <time>2021-07-19T10:55:49Z</time>
      </trkpt>
      <trkpt lat="45.44435" lon="4.75494">
        <ele>118.02714</ele>
        <time>2021-07-19T10:55:50Z</time>
      </trkpt>
      <trkpt lat="45.44441" lon="4.75494">
        <ele>117.879166</ele>
        <time>2021-07-19T10:55:51Z</time>
      </trkpt>
      <trkpt lat="45.44447" lon="4.75495">
        <ele>118.15396</ele>
        <time>2021-07-19T10:55:52Z</time>
      </trkpt>
      <trkpt lat="45.44453" lon="4.75497">
        <ele>118.323074</ele>
        <time>2021-07-19T10:55:53Z</time>
      </trkpt>
      <trkpt lat="45.44458" lon="4.75498">
        <ele>118.006</ele>
        <time>2021-07-19T10:55:54Z</time>
      </trkpt>
      <trkpt lat="45.44464" lon="4.75499">
        <ele>117.86331</ele>
        <time>2021-07-19T10:55:55Z</time>
      </trkpt>
      <trkpt lat="45.4447" lon="4.75499">
        <ele>118.085266</ele>
        <time>2021-07-19T10:55:56Z</time>
      </trkpt>
      <trkpt lat="45.44476" lon="4.75499">
        <ele>118.42877</ele>
        <time>2021-07-19T10:55:57Z</time>
      </trkpt>
      <trkpt lat="45.44481" lon="4.75498">
        <ele>117.99014</ele>
        <time>2021-07-19T10:55:58Z</time>
      </trkpt>
      <trkpt lat="45.44488" lon="4.75497">
        <ele>118.13811</ele>
        <time>2021-07-19T10:55:59Z</time>
      </trkpt>
      <trkpt lat="45.44494" lon="4.75494">
        <ele>118.25437</ele>
        <time>2021-07-19T10:56:00Z</time>
      </trkpt>
      <trkpt lat="45.445" lon="4.75492">
        <ele>118.1434</ele>
        <time>2021-07-19T10:56:01Z</time>
      </trkpt>
      <trkpt lat="45.44506" lon="4.75489">
        <ele>118.02714</ele>
        <time>2021-07-19T10:56:02Z</time>
      </trkpt>
      <trkpt lat="45.44511" lon="4.75487">
        <ele>118.09583</ele>
        <time>2021-07-19T10:56:03Z</time>
      </trkpt>
      <trkpt lat="45.44517" lon="4.75485">
        <ele>118.11169</ele>
        <time>2021-07-19T10:56:04Z</time>
      </trkpt>
      <trkpt lat="45.44523" lon="4.75483">
        <ele>118.15396</ele>
        <time>2021-07-19T10:56:05Z</time>
      </trkpt>
      <trkpt lat="45.44528" lon="4.7548">
        <ele>118.00071</ele>
        <time>2021-07-19T10:56:06Z</time>
      </trkpt>
      <trkpt lat="45.44534" lon="4.75478">
        <ele>117.96901</ele>
        <time>2021-07-19T10:56:07Z</time>
      </trkpt>
      <trkpt lat="45.44539" lon="4.75476">
        <ele>118.085266</ele>
        <time>2021-07-19T10:56:08Z</time>
      </trkpt>
      <trkpt lat="45.44545" lon="4.75473">
        <ele>118.26494</ele>
        <time>2021-07-19T10:56:09Z</time>
      </trkpt>
      <trkpt lat="45.44551" lon="4.75471">
        <ele>118.29137</ele>
        <time>2021-07-19T10:56:10Z</time>
      </trkpt>
      <trkpt lat="45.44557" lon="4.75468">
        <ele>118.222664</ele>
        <time>2021-07-19T10:56:11Z</time>
      </trkpt>
      <trkpt lat="45.44563" lon="4.75466">
        <ele>118.46048</ele>
        <time>2021-07-19T10:56:12Z</time>
      </trkpt>
      <trkpt lat="45.4457" lon="4.75462">
        <ele>118.36535</ele>
        <time>2021-07-19T10:56:13Z</time>
      </trkpt>
      <trkpt lat="45.44575" lon="4.7546">
        <ele>118.058846</ele>
        <time>2021-07-19T10:56:14Z</time>
      </trkpt>
      <trkpt lat="45.44581" lon="4.75458">
        <ele>117.99542</ele>
        <time>2021-07-19T10:56:15Z</time>
      </trkpt>
      <trkpt lat="45.44587" lon="4.75456">
        <ele>118.23324</ele>
        <time>2021-07-19T10:56:16Z</time>
      </trkpt>
      <trkpt lat="45.44593" lon="4.75454">
        <ele>118.02714</ele>
        <time>2021-07-19T10:56:17Z</time>
      </trkpt>
      <trkpt lat="45.44599" lon="4.75452">
        <ele>117.91616</ele>
        <time>2021-07-19T10:56:18Z</time>
      </trkpt>
      <trkpt lat="45.44604" lon="4.7545">
        <ele>116.922646</ele>
        <time>2021-07-19T10:56:19Z</time>
      </trkpt>
      <trkpt lat="45.44609" lon="4.75448">
        <ele>118.15925</ele>
        <time>2021-07-19T10:56:20Z</time>
      </trkpt>
      <trkpt lat="45.44614" lon="4.75445">
        <ele>118.058846</ele>
        <time>2021-07-19T10:56:21Z</time>
      </trkpt>
      <trkpt lat="45.44619" lon="4.75443">
        <ele>118.04299</ele>
        <time>2021-07-19T10:56:22Z</time>
      </trkpt>
      <trkpt lat="45.44624" lon="4.75441">
        <ele>117.97429</ele>
        <time>2021-07-19T10:56:23Z</time>
      </trkpt>
      <trkpt lat="45.44629" lon="4.75439">
        <ele>118.02185</ele>
        <time>2021-07-19T10:56:24Z</time>
      </trkpt>
      <trkpt lat="45.44633" lon="4.75436">
        <ele>118.00071</ele>
        <time>2021-07-19T10:56:25Z</time>
      </trkpt>
      <trkpt lat="45.44638" lon="4.75435">
        <ele>118.0747</ele>
        <time>2021-07-19T10:56:26Z</time>
      </trkpt>
      <trkpt lat="45.44642" lon="4.75433">
        <ele>117.958435</ele>
        <time>2021-07-19T10:56:27Z</time>
      </trkpt>
      <trkpt lat="45.44647" lon="4.75433">
        <ele>118.085266</ele>
        <time>2021-07-19T10:56:28Z</time>
      </trkpt>
      <trkpt lat="45.44652" lon="4.75431">
        <ele>118.190956</ele>
        <time>2021-07-19T10:56:29Z</time>
      </trkpt>
      <trkpt lat="45.44657" lon="4.75429">
        <ele>118.11169</ele>
        <time>2021-07-19T10:56:30Z</time>
      </trkpt>
      <trkpt lat="45.44662" lon="4.75427">
        <ele>118.04827</ele>
        <time>2021-07-19T10:56:31Z</time>
      </trkpt>
      <trkpt lat="45.44667" lon="4.75425">
        <ele>118.13811</ele>
        <time>2021-07-19T10:56:32Z</time>
      </trkpt>
      <trkpt lat="45.44673" lon="4.75423">
        <ele>118.1751</ele>
        <time>2021-07-19T10:56:33Z</time>
      </trkpt>
      <trkpt lat="45.44679" lon="4.7542">
        <ele>118.27023</ele>
        <time>2021-07-19T10:56:34Z</time>
      </trkpt>
      <trkpt lat="45.44684" lon="4.75418">
        <ele>118.20153</ele>
        <time>2021-07-19T10:56:35Z</time>
      </trkpt>
      <trkpt lat="45.4469" lon="4.75416">
        <ele>118.20153</ele>
        <time>2021-07-19T10:56:36Z</time>
      </trkpt>
      <trkpt lat="45.44695" lon="4.75415">
        <ele>118.27023</ele>
        <time>2021-07-19T10:56:37Z</time>
      </trkpt>
      <trkpt lat="45.44701" lon="4.75413">
        <ele>118.30194</ele>
        <time>2021-07-19T10:56:38Z</time>
      </trkpt>
      <trkpt lat="45.44707" lon="4.75411">
        <ele>118.1434</ele>
        <time>2021-07-19T10:56:39Z</time>
      </trkpt>
      <trkpt lat="45.44712" lon="4.75409">
        <ele>118.27551</ele>
        <time>2021-07-19T10:56:40Z</time>
      </trkpt>
      <trkpt lat="45.44719" lon="4.75408">
        <ele>118.296646</ele>
        <time>2021-07-19T10:56:41Z</time>
      </trkpt>
      <trkpt lat="45.44725" lon="4.75406">
        <ele>117.7999</ele>
        <time>2021-07-19T10:56:42Z</time>
      </trkpt>
      <trkpt lat="45.44731" lon="4.75404">
        <ele>117.88445</ele>
        <time>2021-07-19T10:56:43Z</time>
      </trkpt>
      <trkpt lat="45.44737" lon="4.75402">
        <ele>117.97957</ele>
        <time>2021-07-19T10:56:44Z</time>
      </trkpt>
      <trkpt lat="45.44743" lon="4.75401">
        <ele>118.037704</ele>
        <time>2021-07-19T10:56:45Z</time>
      </trkpt>
      <trkpt lat="45.44749" lon="4.75399">
        <ele>117.94258</ele>
        <time>2021-07-19T10:56:46Z</time>
      </trkpt>
      <trkpt lat="45.44754" lon="4.75397">
        <ele>118.13811</ele>
        <time>2021-07-19T10:56:47Z</time>
      </trkpt>
      <trkpt lat="45.4476" lon="4.75395">
        <ele>118.10112</ele>
        <time>2021-07-19T10:56:48Z</time>
      </trkpt>
      <trkpt lat="45.44766" lon="4.75393">
        <ele>118.058846</ele>
        <time>2021-07-19T10:56:49Z</time>
      </trkpt>
      <trkpt lat="45.44772" lon="4.75391">
        <ele>118.15396</ele>
        <time>2021-07-19T10:56:50Z</time>
      </trkpt>
      <trkpt lat="45.44778" lon="4.75389">
        <ele>118.24909</ele>
        <time>2021-07-19T10:56:51Z</time>
      </trkpt>
      <trkpt lat="45.44784" lon="4.75387">
        <ele>118.085266</ele>
        <time>2021-07-19T10:56:52Z</time>
      </trkpt>
      <trkpt lat="45.4479" lon="4.75385">
        <ele>118.18568</ele>
        <time>2021-07-19T10:56:53Z</time>
      </trkpt>
      <trkpt lat="45.44795" lon="4.75384">
        <ele>118.14868</ele>
        <time>2021-07-19T10:56:54Z</time>
      </trkpt>
      <trkpt lat="45.44801" lon="4.75383">
        <ele>118.36007</ele>
        <time>2021-07-19T10:56:55Z</time>
      </trkpt>
      <trkpt lat="45.44807" lon="4.75382">
        <ele>118.39706</ele>
        <time>2021-07-19T10:56:56Z</time>
      </trkpt>
      <trkpt lat="45.44813" lon="4.75381">
        <ele>118.502754</ele>
        <time>2021-07-19T10:56:57Z</time>
      </trkpt>
      <trkpt lat="45.44819" lon="4.7538">
        <ele>118.33893</ele>
        <time>2021-07-19T10:56:58Z</time>
      </trkpt>
      <trkpt lat="45.44825" lon="4.75379">
        <ele>118.28079</ele>
        <time>2021-07-19T10:56:59Z</time>
      </trkpt>
      <trkpt lat="45.44831" lon="4.75378">
        <ele>118.40234</ele>
        <time>2021-07-19T10:57:00Z</time>
      </trkpt>
      <trkpt lat="45.44837" lon="4.75377">
        <ele>118.64015</ele>
        <time>2021-07-19T10:57:01Z</time>
      </trkpt>
      <trkpt lat="45.44843" lon="4.75376">
        <ele>118.729996</ele>
        <time>2021-07-19T10:57:02Z</time>
      </trkpt>
      <trkpt lat="45.44849" lon="4.75375">
        <ele>118.77226</ele>
        <time>2021-07-19T10:57:03Z</time>
      </trkpt>
      <trkpt lat="45.44855" lon="4.75374">
        <ele>118.83041</ele>
        <time>2021-07-19T10:57:04Z</time>
      </trkpt>
      <trkpt lat="45.44861" lon="4.75374">
        <ele>118.65072</ele>
        <time>2021-07-19T10:57:05Z</time>
      </trkpt>
      <trkpt lat="45.44868" lon="4.75373">
        <ele>118.47104</ele>
        <time>2021-07-19T10:57:06Z</time>
      </trkpt>
      <trkpt lat="45.44875" lon="4.75373">
        <ele>118.46048</ele>
        <time>2021-07-19T10:57:07Z</time>
      </trkpt>
      <trkpt lat="45.44881" lon="4.75373">
        <ele>118.52917</ele>
        <time>2021-07-19T10:57:08Z</time>
      </trkpt>
      <trkpt lat="45.44887" lon="4.75373">
        <ele>118.296646</ele>
        <time>2021-07-19T10:57:09Z</time>
      </trkpt>
      <trkpt lat="45.44893" lon="4.75372">
        <ele>118.24909</ele>
        <time>2021-07-19T10:57:10Z</time>
      </trkpt>
      <trkpt lat="45.449" lon="4.75371">
        <ele>118.243805</ele>
        <time>2021-07-19T10:57:11Z</time>
      </trkpt>
      <trkpt lat="45.44906" lon="4.75371">
        <ele>118.323074</ele>
        <time>2021-07-19T10:57:12Z</time>
      </trkpt>
      <trkpt lat="45.44912" lon="4.75371">
        <ele>118.30722</ele>
        <time>2021-07-19T10:57:13Z</time>
      </trkpt>
      <trkpt lat="45.44918" lon="4.75371">
        <ele>118.344215</ele>
        <time>2021-07-19T10:57:14Z</time>
      </trkpt>
      <trkpt lat="45.44925" lon="4.75371">
        <ele>118.32836</ele>
        <time>2021-07-19T10:57:15Z</time>
      </trkpt>
      <trkpt lat="45.44931" lon="4.75372">
        <ele>118.222664</ele>
        <time>2021-07-19T10:57:16Z</time>
      </trkpt>
      <trkpt lat="45.44937" lon="4.75372">
        <ele>118.27551</ele>
        <time>2021-07-19T10:57:17Z</time>
      </trkpt>
      <trkpt lat="45.44943" lon="4.75373">
        <ele>118.39178</ele>
        <time>2021-07-19T10:57:18Z</time>
      </trkpt>
      <trkpt lat="45.44949" lon="4.75373">
        <ele>118.38649</ele>
        <time>2021-07-19T10:57:19Z</time>
      </trkpt>
      <trkpt lat="45.44954" lon="4.75373">
        <ele>118.39178</ele>
        <time>2021-07-19T10:57:20Z</time>
      </trkpt>
      <trkpt lat="45.4496" lon="4.75373">
        <ele>118.54503</ele>
        <time>2021-07-19T10:57:21Z</time>
      </trkpt>
      <trkpt lat="45.44965" lon="4.75373">
        <ele>118.43933</ele>
        <time>2021-07-19T10:57:22Z</time>
      </trkpt>
      <trkpt lat="45.44971" lon="4.75373">
        <ele>118.550316</ele>
        <time>2021-07-19T10:57:23Z</time>
      </trkpt>
      <trkpt lat="45.44977" lon="4.75373">
        <ele>118.56617</ele>
        <time>2021-07-19T10:57:24Z</time>
      </trkpt>
      <trkpt lat="45.44983" lon="4.75374">
        <ele>118.708855</ele>
        <time>2021-07-19T10:57:25Z</time>
      </trkpt>
      <trkpt lat="45.44989" lon="4.75375">
        <ele>118.42877</ele>
        <time>2021-07-19T10:57:26Z</time>
      </trkpt>
      <trkpt lat="45.44995" lon="4.75376">
        <ele>118.51861</ele>
        <time>2021-07-19T10:57:27Z</time>
      </trkpt>
      <trkpt lat="45.45001" lon="4.75377">
        <ele>118.582016</ele>
        <time>2021-07-19T10:57:28Z</time>
      </trkpt>
      <trkpt lat="45.45007" lon="4.75377">
        <ele>119.04707</ele>
        <time>2021-07-19T10:57:29Z</time>
      </trkpt>
      <trkpt lat="45.45013" lon="4.75378">
        <ele>119.11577</ele>
        <time>2021-07-19T10:57:30Z</time>
      </trkpt>
      <trkpt lat="45.45019" lon="4.75379">
        <ele>117.83688</ele>
        <time>2021-07-19T10:57:31Z</time>
      </trkpt>
      <trkpt lat="45.45025" lon="4.75379">
        <ele>118.51861</ele>
        <time>2021-07-19T10:57:32Z</time>
      </trkpt>
      <trkpt lat="45.45031" lon="4.75378">
        <ele>118.25437</ele>
        <time>2021-07-19T10:57:33Z</time>
      </trkpt>
      <trkpt lat="45.45037" lon="4.75378">
        <ele>118.40234</ele>
        <time>2021-07-19T10:57:34Z</time>
      </trkpt>
      <trkpt lat="45.45043" lon="4.75378">
        <ele>118.476326</ele>
        <time>2021-07-19T10:57:35Z</time>
      </trkpt>
      <trkpt lat="45.45049" lon="4.75379">
        <ele>118.43405</ele>
        <time>2021-07-19T10:57:36Z</time>
      </trkpt>
      <trkpt lat="45.45056" lon="4.75379">
        <ele>118.582016</ele>
        <time>2021-07-19T10:57:37Z</time>
      </trkpt>
      <trkpt lat="45.45062" lon="4.7538">
        <ele>118.67187</ele>
        <time>2021-07-19T10:57:38Z</time>
      </trkpt>
      <trkpt lat="45.45068" lon="4.75382">
        <ele>118.61372</ele>
        <time>2021-07-19T10:57:39Z</time>
      </trkpt>
      <trkpt lat="45.45074" lon="4.75383">
        <ele>118.89909</ele>
        <time>2021-07-19T10:57:40Z</time>
      </trkpt>
      <trkpt lat="45.4508" lon="4.75383">
        <ele>119.07349</ele>
        <time>2021-07-19T10:57:41Z</time>
      </trkpt>
      <trkpt lat="45.45086" lon="4.75384">
        <ele>118.9678</ele>
        <time>2021-07-19T10:57:42Z</time>
      </trkpt>
      <trkpt lat="45.45092" lon="4.75385">
        <ele>119.2426</ele>
        <time>2021-07-19T10:57:43Z</time>
      </trkpt>
      <trkpt lat="45.45098" lon="4.75386">
        <ele>119.36415</ele>
        <time>2021-07-19T10:57:44Z</time>
      </trkpt>
      <trkpt lat="45.45104" lon="4.75388">
        <ele>119.3113</ele>
        <time>2021-07-19T10:57:45Z</time>
      </trkpt>
      <trkpt lat="45.4511" lon="4.75389">
        <ele>119.45927</ele>
        <time>2021-07-19T10:57:46Z</time>
      </trkpt>
      <trkpt lat="45.45116" lon="4.7539">
        <ele>119.385284</ele>
        <time>2021-07-19T10:57:47Z</time>
      </trkpt>
      <trkpt lat="45.45123" lon="4.75391">
        <ele>119.34301</ele>
        <time>2021-07-19T10:57:48Z</time>
      </trkpt>
      <trkpt lat="45.45129" lon="4.75392">
        <ele>119.485695</ele>
        <time>2021-07-19T10:57:49Z</time>
      </trkpt>
      <trkpt lat="45.45134" lon="4.75392">
        <ele>119.74464</ele>
        <time>2021-07-19T10:57:50Z</time>
      </trkpt>
      <trkpt lat="45.4514" lon="4.75393">
        <ele>119.60725</ele>
        <time>2021-07-19T10:57:51Z</time>
      </trkpt>
      <trkpt lat="45.45146" lon="4.75394">
        <ele>120.60075</ele>
        <time>2021-07-19T10:57:52Z</time>
      </trkpt>
      <trkpt lat="45.45151" lon="4.75395">
        <ele>119.94546</ele>
        <time>2021-07-19T10:57:53Z</time>
      </trkpt>
      <trkpt lat="45.45156" lon="4.75395">
        <ele>118.74585</ele>
        <time>2021-07-19T10:57:54Z</time>
      </trkpt>
      <trkpt lat="45.45162" lon="4.75396">
        <ele>119.200325</ele>
        <time>2021-07-19T10:57:55Z</time>
      </trkpt>
      <trkpt lat="45.45168" lon="4.75397">
        <ele>119.15276</ele>
        <time>2021-07-19T10:57:56Z</time>
      </trkpt>
      <trkpt lat="45.45173" lon="4.75399">
        <ele>118.70357</ele>
        <time>2021-07-19T10:57:57Z</time>
      </trkpt>
      <trkpt lat="45.45179" lon="4.754">
        <ele>118.57674</ele>
        <time>2021-07-19T10:57:58Z</time>
      </trkpt>
      <trkpt lat="45.45184" lon="4.754">
        <ele>118.61902</ele>
        <time>2021-07-19T10:57:59Z</time>
      </trkpt>
      <trkpt lat="45.4519" lon="4.75401">
        <ele>118.444626</ele>
        <time>2021-07-19T10:58:00Z</time>
      </trkpt>
      <trkpt lat="45.45196" lon="4.75401">
        <ele>118.43405</ele>
        <time>2021-07-19T10:58:01Z</time>
      </trkpt>
      <trkpt lat="45.45202" lon="4.75402">
        <ele>118.42348</ele>
        <time>2021-07-19T10:58:02Z</time>
      </trkpt>
      <trkpt lat="45.45208" lon="4.75403">
        <ele>118.64015</ele>
        <time>2021-07-19T10:58:03Z</time>
      </trkpt>
      <trkpt lat="45.45214" lon="4.75403">
        <ele>118.169815</ele>
        <time>2021-07-19T10:58:04Z</time>
      </trkpt>
      <trkpt lat="45.45219" lon="4.75404">
        <ele>118.28079</ele>
        <time>2021-07-19T10:58:05Z</time>
      </trkpt>
      <trkpt lat="45.45226" lon="4.75405">
        <ele>118.29137</ele>
        <time>2021-07-19T10:58:06Z</time>
      </trkpt>
      <trkpt lat="45.45232" lon="4.75405">
        <ele>118.15396</ele>
        <time>2021-07-19T10:58:07Z</time>
      </trkpt>
      <trkpt lat="45.45237" lon="4.75406">
        <ele>118.32836</ele>
        <time>2021-07-19T10:58:08Z</time>
      </trkpt>
      <trkpt lat="45.45243" lon="4.75407">
        <ele>118.19624</ele>
        <time>2021-07-19T10:58:09Z</time>
      </trkpt>
      <trkpt lat="45.45249" lon="4.75407">
        <ele>117.96901</ele>
        <time>2021-07-19T10:58:10Z</time>
      </trkpt>
      <trkpt lat="45.45255" lon="4.75408">
        <ele>118.24909</ele>
        <time>2021-07-19T10:58:11Z</time>
      </trkpt>
      <trkpt lat="45.4526" lon="4.75408">
        <ele>118.21209</ele>
        <time>2021-07-19T10:58:12Z</time>
      </trkpt>
      <trkpt lat="45.45266" lon="4.75409">
        <ele>118.20153</ele>
        <time>2021-07-19T10:58:13Z</time>
      </trkpt>
      <trkpt lat="45.45271" lon="4.7541">
        <ele>117.910866</ele>
        <time>2021-07-19T10:58:14Z</time>
      </trkpt>
      <trkpt lat="45.45277" lon="4.7541">
        <ele>117.68892</ele>
        <time>2021-07-19T10:58:15Z</time>
      </trkpt>
      <trkpt lat="45.45281" lon="4.7541">
        <ele>117.58323</ele>
        <time>2021-07-19T10:58:16Z</time>
      </trkpt>
      <trkpt lat="45.45286" lon="4.75411">
        <ele>117.4564</ele>
        <time>2021-07-19T10:58:17Z</time>
      </trkpt>
      <trkpt lat="45.45291" lon="4.75411">
        <ele>117.4511</ele>
        <time>2021-07-19T10:58:18Z</time>
      </trkpt>
      <trkpt lat="45.45295" lon="4.75412">
        <ele>117.414116</ele>
        <time>2021-07-19T10:58:19Z</time>
      </trkpt>
      <trkpt lat="45.453" lon="4.75412">
        <ele>117.17631</ele>
        <time>2021-07-19T10:58:20Z</time>
      </trkpt>
      <trkpt lat="45.45306" lon="4.75412">
        <ele>117.128746</ele>
        <time>2021-07-19T10:58:21Z</time>
      </trkpt>
      <trkpt lat="45.45311" lon="4.75413">
        <ele>117.55151</ele>
        <time>2021-07-19T10:58:22Z</time>
      </trkpt>
      <trkpt lat="45.45316" lon="4.75414">
        <ele>117.17102</ele>
        <time>2021-07-19T10:58:23Z</time>
      </trkpt>
      <trkpt lat="45.45322" lon="4.75415">
        <ele>117.4881</ele>
        <time>2021-07-19T10:58:24Z</time>
      </trkpt>
      <trkpt lat="45.45327" lon="4.75415">
        <ele>117.572655</ele>
        <time>2021-07-19T10:58:25Z</time>
      </trkpt>
      <trkpt lat="45.45332" lon="4.75416">
        <ele>117.493385</ele>
        <time>2021-07-19T10:58:26Z</time>
      </trkpt>
      <trkpt lat="45.45337" lon="4.75416">
        <ele>117.36655</ele>
        <time>2021-07-19T10:58:27Z</time>
      </trkpt>
      <trkpt lat="45.45343" lon="4.75416">
        <ele>117.25029</ele>
        <time>2021-07-19T10:58:28Z</time>
      </trkpt>
      <trkpt lat="45.45348" lon="4.75415">
        <ele>117.06004</ele>
        <time>2021-07-19T10:58:29Z</time>
      </trkpt>
      <trkpt lat="45.45354" lon="4.75415">
        <ele>117.38241</ele>
        <time>2021-07-19T10:58:30Z</time>
      </trkpt>
      <trkpt lat="45.4536" lon="4.75416">
        <ele>117.34541</ele>
        <time>2021-07-19T10:58:31Z</time>
      </trkpt>
      <trkpt lat="45.45366" lon="4.75416">
        <ele>117.46168</ele>
        <time>2021-07-19T10:58:32Z</time>
      </trkpt>
      <trkpt lat="45.45371" lon="4.75416">
        <ele>117.6255</ele>
        <time>2021-07-19T10:58:33Z</time>
      </trkpt>
      <trkpt lat="45.45376" lon="4.75417">
        <ele>117.61494</ele>
        <time>2021-07-19T10:58:34Z</time>
      </trkpt>
      <trkpt lat="45.45381" lon="4.75418">
        <ele>117.440544</ele>
        <time>2021-07-19T10:58:35Z</time>
      </trkpt>
      <trkpt lat="45.45386" lon="4.75418">
        <ele>117.31899</ele>
        <time>2021-07-19T10:58:36Z</time>
      </trkpt>
      <trkpt lat="45.4539" lon="4.75419">
        <ele>117.572655</ele>
        <time>2021-07-19T10:58:37Z</time>
      </trkpt>
      <trkpt lat="45.45395" lon="4.75419">
        <ele>117.74705</ele>
        <time>2021-07-19T10:58:38Z</time>
      </trkpt>
      <trkpt lat="45.45399" lon="4.7542">
        <ele>118.05355</ele>
        <time>2021-07-19T10:58:39Z</time>
      </trkpt>
      <trkpt lat="45.45404" lon="4.7542">
        <ele>117.725914</ele>
        <time>2021-07-19T10:58:40Z</time>
      </trkpt>
      <trkpt lat="45.45409" lon="4.75419">
        <ele>117.42469</ele>
        <time>2021-07-19T10:58:41Z</time>
      </trkpt>
      <trkpt lat="45.45416" lon="4.75419">
        <ele>117.313705</ele>
        <time>2021-07-19T10:58:42Z</time>
      </trkpt>
      <trkpt lat="45.45422" lon="4.7542">
        <ele>117.22916</ele>
        <time>2021-07-19T10:58:43Z</time>
      </trkpt>
      <trkpt lat="45.45428" lon="4.7542">
        <ele>117.0759</ele>
        <time>2021-07-19T10:58:44Z</time>
      </trkpt>
      <trkpt lat="45.45434" lon="4.75422">
        <ele>117.22916</ele>
        <time>2021-07-19T10:58:45Z</time>
      </trkpt>
      <trkpt lat="45.45441" lon="4.75423">
        <ele>117.27671</ele>
        <time>2021-07-19T10:58:46Z</time>
      </trkpt>
      <trkpt lat="45.45448" lon="4.75424">
        <ele>117.12347</ele>
        <time>2021-07-19T10:58:47Z</time>
      </trkpt>
      <trkpt lat="45.45454" lon="4.75425">
        <ele>117.023056</ele>
        <time>2021-07-19T10:58:48Z</time>
      </trkpt>
      <trkpt lat="45.45461" lon="4.75426">
        <ele>116.83809</ele>
        <time>2021-07-19T10:58:49Z</time>
      </trkpt>
      <trkpt lat="45.45468" lon="4.75427">
        <ele>116.92793</ele>
        <time>2021-07-19T10:58:50Z</time>
      </trkpt>
      <trkpt lat="45.45475" lon="4.75429">
        <ele>116.85394</ele>
        <time>2021-07-19T10:58:51Z</time>
      </trkpt>
      <trkpt lat="45.45481" lon="4.7543">
        <ele>116.77996</ele>
        <time>2021-07-19T10:58:52Z</time>
      </trkpt>
      <trkpt lat="45.45487" lon="4.75432">
        <ele>116.7641</ele>
        <time>2021-07-19T10:58:53Z</time>
      </trkpt>
      <trkpt lat="45.45493" lon="4.75434">
        <ele>116.79053</ele>
        <time>2021-07-19T10:58:54Z</time>
      </trkpt>
      <trkpt lat="45.45499" lon="4.75436">
        <ele>116.95963</ele>
        <time>2021-07-19T10:58:55Z</time>
      </trkpt>
      <trkpt lat="45.45505" lon="4.75439">
        <ele>116.92793</ele>
        <time>2021-07-19T10:58:56Z</time>
      </trkpt>
      <trkpt lat="45.45511" lon="4.75442">
        <ele>116.81695</ele>
        <time>2021-07-19T10:58:57Z</time>
      </trkpt>
      <trkpt lat="45.45517" lon="4.75447">
        <ele>116.89093</ele>
        <time>2021-07-19T10:58:58Z</time>
      </trkpt>
      <trkpt lat="45.45522" lon="4.75451">
        <ele>116.795815</ele>
        <time>2021-07-19T10:58:59Z</time>
      </trkpt>
      <trkpt lat="45.45527" lon="4.75456">
        <ele>116.43117</ele>
        <time>2021-07-19T10:59:00Z</time>
      </trkpt>
      <trkpt lat="45.45532" lon="4.7546">
        <ele>116.28848</ele>
        <time>2021-07-19T10:59:01Z</time>
      </trkpt>
      <trkpt lat="45.45538" lon="4.75464">
        <ele>116.54743</ele>
        <time>2021-07-19T10:59:02Z</time>
      </trkpt>
      <trkpt lat="45.45543" lon="4.75468">
        <ele>116.42061</ele>
        <time>2021-07-19T10:59:03Z</time>
      </trkpt>
      <trkpt lat="45.45548" lon="4.75473">
        <ele>116.44702</ele>
        <time>2021-07-19T10:59:04Z</time>
      </trkpt>
      <trkpt lat="45.45554" lon="4.75478">
        <ele>116.60028</ele>
        <time>2021-07-19T10:59:05Z</time>
      </trkpt>
      <trkpt lat="45.45559" lon="4.75483">
        <ele>116.42061</ele>
        <time>2021-07-19T10:59:06Z</time>
      </trkpt>
      <trkpt lat="45.45563" lon="4.75489">
        <ele>116.56329</ele>
        <time>2021-07-19T10:59:07Z</time>
      </trkpt>
      <trkpt lat="45.45568" lon="4.75495">
        <ele>116.6267</ele>
        <time>2021-07-19T10:59:08Z</time>
      </trkpt>
      <trkpt lat="45.45572" lon="4.75501">
        <ele>116.610855</ele>
        <time>2021-07-19T10:59:09Z</time>
      </trkpt>
      <trkpt lat="45.45577" lon="4.75507">
        <ele>116.73239</ele>
        <time>2021-07-19T10:59:10Z</time>
      </trkpt>
      <trkpt lat="45.45581" lon="4.75513">
        <ele>116.536865</ele>
        <time>2021-07-19T10:59:11Z</time>
      </trkpt>
      <trkpt lat="45.45585" lon="4.75519">
        <ele>116.56329</ele>
        <time>2021-07-19T10:59:12Z</time>
      </trkpt>
      <trkpt lat="45.4559" lon="4.75525">
        <ele>117.64136</ele>
        <time>2021-07-19T10:59:13Z</time>
      </trkpt>
      <trkpt lat="45.45594" lon="4.75531">
        <ele>116.795815</ele>
        <time>2021-07-19T10:59:14Z</time>
      </trkpt>
      <trkpt lat="45.45598" lon="4.75538">
        <ele>116.72183</ele>
        <time>2021-07-19T10:59:15Z</time>
      </trkpt>
      <trkpt lat="45.45602" lon="4.75545">
        <ele>116.848656</ele>
        <time>2021-07-19T10:59:16Z</time>
      </trkpt>
      <trkpt lat="45.45605" lon="4.75552">
        <ele>116.95963</ele>
        <time>2021-07-19T10:59:17Z</time>
      </trkpt>
      <trkpt lat="45.45608" lon="4.75559">
        <ele>116.737686</ele>
        <time>2021-07-19T10:59:18Z</time>
      </trkpt>
      <trkpt lat="45.45611" lon="4.75567">
        <ele>116.769394</ele>
        <time>2021-07-19T10:59:19Z</time>
      </trkpt>
      <trkpt lat="45.45614" lon="4.75574">
        <ele>116.89093</ele>
        <time>2021-07-19T10:59:20Z</time>
      </trkpt>
      <trkpt lat="45.45618" lon="4.75581">
        <ele>116.748245</ele>
        <time>2021-07-19T10:59:21Z</time>
      </trkpt>
      <trkpt lat="45.4562" lon="4.75588">
        <ele>116.63199</ele>
        <time>2021-07-19T10:59:22Z</time>
      </trkpt>
      <trkpt lat="45.45623" lon="4.75595">
        <ele>116.56329</ele>
        <time>2021-07-19T10:59:23Z</time>
      </trkpt>
      <trkpt lat="45.45626" lon="4.75602">
        <ele>116.55801</ele>
        <time>2021-07-19T10:59:24Z</time>
      </trkpt>
      <trkpt lat="45.45629" lon="4.75609">
        <ele>116.64785</ele>
        <time>2021-07-19T10:59:25Z</time>
      </trkpt>
      <trkpt lat="45.45631" lon="4.75616">
        <ele>116.610855</ele>
        <time>2021-07-19T10:59:26Z</time>
      </trkpt>
      <trkpt lat="45.45632" lon="4.75622">
        <ele>117.06004</ele>
        <time>2021-07-19T10:59:27Z</time>
      </trkpt>
      <trkpt lat="45.45634" lon="4.75628">
        <ele>116.72711</ele>
        <time>2021-07-19T10:59:28Z</time>
      </trkpt>
      <trkpt lat="45.45636" lon="4.75633">
        <ele>116.57915</ele>
        <time>2021-07-19T10:59:29Z</time>
      </trkpt>
      <trkpt lat="45.45638" lon="4.75638">
        <ele>116.85394</ele>
        <time>2021-07-19T10:59:30Z</time>
      </trkpt>
      <trkpt lat="45.45641" lon="4.75644">
        <ele>116.642555</ele>
        <time>2021-07-19T10:59:31Z</time>
      </trkpt>
      <trkpt lat="45.45644" lon="4.7565">
        <ele>116.58443</ele>
        <time>2021-07-19T10:59:32Z</time>
      </trkpt>
      <trkpt lat="45.45647" lon="4.75657">
        <ele>117.10232</ele>
        <time>2021-07-19T10:59:33Z</time>
      </trkpt>
      <trkpt lat="45.4565" lon="4.75665">
        <ele>117.11817</ele>
        <time>2021-07-19T10:59:34Z</time>
      </trkpt>
      <trkpt lat="45.45653" lon="4.75673">
        <ele>116.70069</ele>
        <time>2021-07-19T10:59:35Z</time>
      </trkpt>
      <trkpt lat="45.45655" lon="4.75681">
        <ele>116.31491</ele>
        <time>2021-07-19T10:59:36Z</time>
      </trkpt>
      <trkpt lat="45.45658" lon="4.7569">
        <ele>116.04011</ele>
        <time>2021-07-19T10:59:37Z</time>
      </trkpt>
      <trkpt lat="45.45661" lon="4.75698">
        <ele>115.69661</ele>
        <time>2021-07-19T10:59:38Z</time>
      </trkpt>
      <trkpt lat="45.45664" lon="4.75707">
        <ele>115.342545</ele>
        <time>2021-07-19T10:59:39Z</time>
      </trkpt>
      <trkpt lat="45.45667" lon="4.75715">
        <ele>115.184006</ele>
        <time>2021-07-19T10:59:40Z</time>
      </trkpt>
      <trkpt lat="45.4567" lon="4.75723">
        <ele>115.27912</ele>
        <time>2021-07-19T10:59:41Z</time>
      </trkpt>
      <trkpt lat="45.45673" lon="4.75732">
        <ele>115.16286</ele>
        <time>2021-07-19T10:59:42Z</time>
      </trkpt>
      <trkpt lat="45.45675" lon="4.7574">
        <ele>114.935616</ele>
        <time>2021-07-19T10:59:43Z</time>
      </trkpt>
      <trkpt lat="45.45677" lon="4.75749">
        <ele>114.94619</ele>
        <time>2021-07-19T10:59:44Z</time>
      </trkpt>
      <trkpt lat="45.4568" lon="4.75758">
        <ele>115.12058</ele>
        <time>2021-07-19T10:59:45Z</time>
      </trkpt>
      <trkpt lat="45.45682" lon="4.75766">
        <ele>115.26327</ele>
        <time>2021-07-19T10:59:46Z</time>
      </trkpt>
      <trkpt lat="45.45684" lon="4.75774">
        <ele>115.31612</ele>
        <time>2021-07-19T10:59:47Z</time>
      </trkpt>
      <trkpt lat="45.45685" lon="4.75783">
        <ele>115.20514</ele>
        <time>2021-07-19T10:59:48Z</time>
      </trkpt>
      <trkpt lat="45.45687" lon="4.75792">
        <ele>115.41123</ele>
        <time>2021-07-19T10:59:49Z</time>
      </trkpt>
      <trkpt lat="45.45688" lon="4.758">
        <ele>115.53278</ele>
        <time>2021-07-19T10:59:50Z</time>
      </trkpt>
      <trkpt lat="45.45689" lon="4.75808">
        <ele>116.098236</ele>
        <time>2021-07-19T10:59:51Z</time>
      </trkpt>
      <trkpt lat="45.45691" lon="4.75816">
        <ele>116.26207</ele>
        <time>2021-07-19T10:59:52Z</time>
      </trkpt>
      <trkpt lat="45.45692" lon="4.75825">
        <ele>116.251495</ele>
        <time>2021-07-19T10:59:53Z</time>
      </trkpt>
      <trkpt lat="45.45694" lon="4.75833">
        <ele>116.05068</ele>
        <time>2021-07-19T10:59:54Z</time>
      </trkpt>
      <trkpt lat="45.45695" lon="4.7584">
        <ele>115.81287</ele>
        <time>2021-07-19T10:59:55Z</time>
      </trkpt>
      <trkpt lat="45.45697" lon="4.75848">
        <ele>115.76531</ele>
        <time>2021-07-19T10:59:56Z</time>
      </trkpt>
      <trkpt lat="45.45699" lon="4.75856">
        <ele>115.98726</ele>
        <time>2021-07-19T10:59:57Z</time>
      </trkpt>
      <trkpt lat="45.457" lon="4.75864">
        <ele>115.75474</ele>
        <time>2021-07-19T10:59:58Z</time>
      </trkpt>
      <trkpt lat="45.45702" lon="4.75872">
        <ele>115.89742</ele>
        <time>2021-07-19T10:59:59Z</time>
      </trkpt>
      <trkpt lat="45.45703" lon="4.75879">
        <ele>115.56449</ele>
        <time>2021-07-19T11:00:00Z</time>
      </trkpt>
      <trkpt lat="45.45704" lon="4.75885">
        <ele>115.25269</ele>
        <time>2021-07-19T11:00:01Z</time>
      </trkpt>
      <trkpt lat="45.45705" lon="4.75891">
        <ele>115.13644</ele>
        <time>2021-07-19T11:00:02Z</time>
      </trkpt>
      <trkpt lat="45.45707" lon="4.75897">
        <ele>115.09945</ele>
        <time>2021-07-19T11:00:03Z</time>
      </trkpt>
      <trkpt lat="45.45708" lon="4.75904">
        <ele>115.56449</ele>
        <time>2021-07-19T11:00:04Z</time>
      </trkpt>
      <trkpt lat="45.45709" lon="4.75911">
        <ele>115.33197</ele>
        <time>2021-07-19T11:00:05Z</time>
      </trkpt>
      <trkpt lat="45.45711" lon="4.75917">
        <ele>114.96732</ele>
        <time>2021-07-19T11:00:06Z</time>
      </trkpt>
      <trkpt lat="45.45712" lon="4.75923">
        <ele>114.94091</ele>
        <time>2021-07-19T11:00:07Z</time>
      </trkpt>
      <trkpt lat="45.45713" lon="4.75928">
        <ele>115.30554</ele>
        <time>2021-07-19T11:00:08Z</time>
      </trkpt>
      <trkpt lat="45.45714" lon="4.75934">
        <ele>115.479935</ele>
        <time>2021-07-19T11:00:09Z</time>
      </trkpt>
      <trkpt lat="45.45715" lon="4.75939">
        <ele>115.733604</ele>
        <time>2021-07-19T11:00:10Z</time>
      </trkpt>
      <trkpt lat="45.45716" lon="4.75943">
        <ele>115.67018</ele>
        <time>2021-07-19T11:00:11Z</time>
      </trkpt>
      <trkpt lat="45.45717" lon="4.75945">
        <ele>115.686035</ele>
        <time>2021-07-19T11:00:12Z</time>
      </trkpt>
      <trkpt lat="45.4572" lon="4.75947">
        <ele>115.479935</ele>
        <time>2021-07-19T11:00:13Z</time>
      </trkpt>
      <trkpt lat="45.45723" lon="4.75947">
        <ele>115.46408</ele>
        <time>2021-07-19T11:00:14Z</time>
      </trkpt>
      <trkpt lat="45.45726" lon="4.75948">
        <ele>115.141716</ele>
        <time>2021-07-19T11:00:15Z</time>
      </trkpt>
      <trkpt lat="45.45729" lon="4.75948">
        <ele>115.062454</ele>
        <time>2021-07-19T11:00:16Z</time>
      </trkpt>
      <trkpt lat="45.45732" lon="4.75949">
        <ele>115.42181</ele>
        <time>2021-07-19T11:00:17Z</time>
      </trkpt>
      <trkpt lat="45.45734" lon="4.75953">
        <ele>115.374245</ele>
        <time>2021-07-19T11:00:18Z</time>
      </trkpt>
      <trkpt lat="45.45735" lon="4.75958">
        <ele>115.55921</ele>
        <time>2021-07-19T11:00:19Z</time>
      </trkpt>
      <trkpt lat="45.45738" lon="4.75961">
        <ele>115.32668</ele>
        <time>2021-07-19T11:00:20Z</time>
      </trkpt>
      <trkpt lat="45.45742" lon="4.75965">
        <ele>115.215706</ele>
        <time>2021-07-19T11:00:21Z</time>
      </trkpt>
      <trkpt lat="45.45745" lon="4.7597">
        <ele>115.448235</ele>
        <time>2021-07-19T11:00:22Z</time>
      </trkpt>
      <trkpt lat="45.45748" lon="4.75974">
        <ele>115.2844</ele>
        <time>2021-07-19T11:00:23Z</time>
      </trkpt>
      <trkpt lat="45.4575" lon="4.75976">
        <ele>115.289696</ele>
        <time>2021-07-19T11:00:24Z</time>
      </trkpt>
      <trkpt lat="45.45754" lon="4.75978">
        <ele>115.41653</ele>
        <time>2021-07-19T11:00:25Z</time>
      </trkpt>
      <trkpt lat="45.45757" lon="4.75979">
        <ele>115.69132</ele>
        <time>2021-07-19T11:00:26Z</time>
      </trkpt>
      <trkpt lat="45.45761" lon="4.7598">
        <ele>115.85515</ele>
        <time>2021-07-19T11:00:27Z</time>
      </trkpt>
      <trkpt lat="45.45765" lon="4.75978">
        <ele>116.14052</ele>
        <time>2021-07-19T11:00:28Z</time>
      </trkpt>
      <trkpt lat="45.4577" lon="4.75975">
        <ele>116.18279</ele>
        <time>2021-07-19T11:00:29Z</time>
      </trkpt>
      <trkpt lat="45.45775" lon="4.75973">
        <ele>116.11409</ele>
        <time>2021-07-19T11:00:30Z</time>
      </trkpt>
      <trkpt lat="45.45779" lon="4.75972">
        <ele>116.33605</ele>
        <time>2021-07-19T11:00:31Z</time>
      </trkpt>
      <trkpt lat="45.45784" lon="4.7597">
        <ele>116.848656</ele>
        <time>2021-07-19T11:00:32Z</time>
      </trkpt>
      <trkpt lat="45.45788" lon="4.75969">
        <ele>116.80639</ele>
        <time>2021-07-19T11:00:33Z</time>
      </trkpt>
      <trkpt lat="45.45792" lon="4.75969">
        <ele>116.95963</ele>
        <time>2021-07-19T11:00:34Z</time>
      </trkpt>
      <trkpt lat="45.45797" lon="4.75968">
        <ele>116.848656</ele>
        <time>2021-07-19T11:00:35Z</time>
      </trkpt>
      <trkpt lat="45.45801" lon="4.75967">
        <ele>116.58443</ele>
        <time>2021-07-19T11:00:36Z</time>
      </trkpt>
      <trkpt lat="45.45805" lon="4.75967">
        <ele>116.58443</ele>
        <time>2021-07-19T11:00:37Z</time>
      </trkpt>
      <trkpt lat="45.4581" lon="4.75968">
        <ele>116.75354</ele>
        <time>2021-07-19T11:00:38Z</time>
      </trkpt>
      <trkpt lat="45.45814" lon="4.75968">
        <ele>116.96493</ele>
        <time>2021-07-19T11:00:39Z</time>
      </trkpt>
      <trkpt lat="45.45819" lon="4.75968">
        <ele>117.0759</ele>
        <time>2021-07-19T11:00:40Z</time>
      </trkpt>
      <trkpt lat="45.45823" lon="4.75969">
        <ele>116.769394</ele>
        <time>2021-07-19T11:00:41Z</time>
      </trkpt>
      <trkpt lat="45.45828" lon="4.75971">
        <ele>116.58971</ele>
        <time>2021-07-19T11:00:42Z</time>
      </trkpt>
      <trkpt lat="45.4583" lon="4.75973">
        <ele>116.637276</ele>
        <time>2021-07-19T11:00:43Z</time>
      </trkpt>
      <trkpt lat="45.45832" lon="4.75977">
        <ele>116.85394</ele>
        <time>2021-07-19T11:00:44Z</time>
      </trkpt>
      <trkpt lat="45.45833" lon="4.75981">
        <ele>116.82224</ele>
        <time>2021-07-19T11:00:45Z</time>
      </trkpt>
      <trkpt lat="45.45836" lon="4.75987">
        <ele>117.05476</ele>
        <time>2021-07-19T11:00:46Z</time>
      </trkpt>
      <trkpt lat="45.45838" lon="4.75993">
        <ele>117.12347</ele>
        <time>2021-07-19T11:00:47Z</time>
      </trkpt>
      <trkpt lat="45.45841" lon="4.75999">
        <ele>117.40355</ele>
        <time>2021-07-19T11:00:48Z</time>
      </trkpt>
      <trkpt lat="45.45844" lon="4.76005">
        <ele>116.8698</ele>
        <time>2021-07-19T11:00:49Z</time>
      </trkpt>
      <trkpt lat="45.45846" lon="4.76011">
        <ele>116.642555</ele>
        <time>2021-07-19T11:00:50Z</time>
      </trkpt>
      <trkpt lat="45.45848" lon="4.76016">
        <ele>116.60556</ele>
        <time>2021-07-19T11:00:51Z</time>
      </trkpt>
      <trkpt lat="45.4585" lon="4.76021">
        <ele>116.72183</ele>
        <time>2021-07-19T11:00:52Z</time>
      </trkpt>
      <trkpt lat="45.45852" lon="4.76026">
        <ele>116.901505</ele>
        <time>2021-07-19T11:00:53Z</time>
      </trkpt>
      <trkpt lat="45.45853" lon="4.76031">
        <ele>116.66898</ele>
        <time>2021-07-19T11:00:54Z</time>
      </trkpt>
      <trkpt lat="45.45855" lon="4.76036">
        <ele>116.595</ele>
        <time>2021-07-19T11:00:55Z</time>
      </trkpt>
      <trkpt lat="45.45858" lon="4.76041">
        <ele>116.88565</ele>
        <time>2021-07-19T11:00:56Z</time>
      </trkpt>
      <trkpt lat="45.4586" lon="4.76046">
        <ele>116.78524</ele>
        <time>2021-07-19T11:00:57Z</time>
      </trkpt>
      <trkpt lat="45.45862" lon="4.76051">
        <ele>116.98078</ele>
        <time>2021-07-19T11:00:58Z</time>
      </trkpt>
      <trkpt lat="45.45864" lon="4.76057">
        <ele>116.89093</ele>
        <time>2021-07-19T11:00:59Z</time>
      </trkpt>
      <trkpt lat="45.45866" lon="4.76061">
        <ele>116.89093</ele>
        <time>2021-07-19T11:01:00Z</time>
      </trkpt>
      <trkpt lat="45.45868" lon="4.76066">
        <ele>116.89093</ele>
        <time>2021-07-19T11:01:01Z</time>
      </trkpt>
      <trkpt lat="45.4587" lon="4.7607">
        <ele>117.04419</ele>
        <time>2021-07-19T11:01:02Z</time>
      </trkpt>
      <trkpt lat="45.45872" lon="4.76074">
        <ele>117.22387</ele>
        <time>2021-07-19T11:01:03Z</time>
      </trkpt>
      <trkpt lat="45.45874" lon="4.76079">
        <ele>116.95435</ele>
        <time>2021-07-19T11:01:04Z</time>
      </trkpt>
      <trkpt lat="45.45873" lon="4.76085">
        <ele>115.786446</ele>
        <time>2021-07-19T11:01:05Z</time>
      </trkpt>
      <trkpt lat="45.45873" lon="4.76091">
        <ele>116.9385</ele>
        <time>2021-07-19T11:01:06Z</time>
      </trkpt>
      <trkpt lat="45.45871" lon="4.76097">
        <ele>117.007195</ele>
        <time>2021-07-19T11:01:07Z</time>
      </trkpt>
      <trkpt lat="45.45868" lon="4.76103">
        <ele>116.901505</ele>
        <time>2021-07-19T11:01:08Z</time>
      </trkpt>
      <trkpt lat="45.45863" lon="4.76109">
        <ele>116.610855</ele>
        <time>2021-07-19T11:01:09Z</time>
      </trkpt>
      <trkpt lat="45.45859" lon="4.76114">
        <ele>116.4893</ele>
        <time>2021-07-19T11:01:10Z</time>
      </trkpt>
      <trkpt lat="45.45856" lon="4.76121">
        <ele>116.30434</ele>
        <time>2021-07-19T11:01:11Z</time>
      </trkpt>
      <trkpt lat="45.45852" lon="4.76126">
        <ele>116.18279</ele>
        <time>2021-07-19T11:01:12Z</time>
      </trkpt>
      <trkpt lat="45.45849" lon="4.76131">
        <ele>116.515724</ele>
        <time>2021-07-19T11:01:13Z</time>
      </trkpt>
      <trkpt lat="45.45844" lon="4.76136">
        <ele>116.34133</ele>
        <time>2021-07-19T11:01:14Z</time>
      </trkpt>
      <trkpt lat="45.4584" lon="4.76142">
        <ele>116.3202</ele>
        <time>2021-07-19T11:01:15Z</time>
      </trkpt>
      <trkpt lat="45.45836" lon="4.76147">
        <ele>116.124664</ele>
        <time>2021-07-19T11:01:16Z</time>
      </trkpt>
      <trkpt lat="45.45831" lon="4.76153">
        <ele>116.2145</ele>
        <time>2021-07-19T11:01:17Z</time>
      </trkpt>
      <trkpt lat="45.45827" lon="4.76158">
        <ele>116.08239</ele>
        <time>2021-07-19T11:01:18Z</time>
      </trkpt>
      <trkpt lat="45.45823" lon="4.76163">
        <ele>115.860435</ele>
        <time>2021-07-19T11:01:19Z</time>
      </trkpt>
      <trkpt lat="45.4582" lon="4.76169">
        <ele>115.7019</ele>
        <time>2021-07-19T11:01:20Z</time>
      </trkpt>
      <trkpt lat="45.45817" lon="4.76175">
        <ele>115.81816</ele>
        <time>2021-07-19T11:01:21Z</time>
      </trkpt>
      <trkpt lat="45.45815" lon="4.76183">
        <ele>115.918564</ele>
        <time>2021-07-19T11:01:22Z</time>
      </trkpt>
      <trkpt lat="45.45814" lon="4.7619">
        <ele>116.124664</ele>
        <time>2021-07-19T11:01:23Z</time>
      </trkpt>
      <trkpt lat="45.45813" lon="4.76198">
        <ele>116.119385</ele>
        <time>2021-07-19T11:01:24Z</time>
      </trkpt>
      <trkpt lat="45.45813" lon="4.76205">
        <ele>115.9767</ele>
        <time>2021-07-19T11:01:25Z</time>
      </trkpt>
      <trkpt lat="45.45814" lon="4.76212">
        <ele>115.860435</ele>
        <time>2021-07-19T11:01:26Z</time>
      </trkpt>
      <trkpt lat="45.45814" lon="4.76219">
        <ele>115.992546</ele>
        <time>2021-07-19T11:01:27Z</time>
      </trkpt>
      <trkpt lat="45.45814" lon="4.76227">
        <ele>116.0084</ele>
        <time>2021-07-19T11:01:28Z</time>
      </trkpt>
      <trkpt lat="45.45815" lon="4.76235">
        <ele>116.04011</ele>
        <time>2021-07-19T11:01:29Z</time>
      </trkpt>
      <trkpt lat="45.45815" lon="4.76242">
        <ele>115.9397</ele>
        <time>2021-07-19T11:01:30Z</time>
      </trkpt>
      <trkpt lat="45.45816" lon="4.76249">
        <ele>115.92913</ele>
        <time>2021-07-19T11:01:31Z</time>
      </trkpt>
      <trkpt lat="45.45817" lon="4.76256">
        <ele>116.58443</ele>
        <time>2021-07-19T11:01:32Z</time>
      </trkpt>
      <trkpt lat="45.45817" lon="4.76262">
        <ele>116.17751</ele>
        <time>2021-07-19T11:01:33Z</time>
      </trkpt>
      <trkpt lat="45.45817" lon="4.76269">
        <ele>116.63199</ele>
        <time>2021-07-19T11:01:34Z</time>
      </trkpt>
      <trkpt lat="45.45817" lon="4.76276">
        <ele>116.33605</ele>
        <time>2021-07-19T11:01:35Z</time>
      </trkpt>
      <trkpt lat="45.45817" lon="4.76283">
        <ele>115.760025</ele>
        <time>2021-07-19T11:01:36Z</time>
      </trkpt>
      <trkpt lat="45.45818" lon="4.76292">
        <ele>116.15637</ele>
        <time>2021-07-19T11:01:37Z</time>
      </trkpt>
      <trkpt lat="45.45818" lon="4.76299">
        <ele>115.9027</ele>
        <time>2021-07-19T11:01:38Z</time>
      </trkpt>
      <trkpt lat="45.4582" lon="4.76305">
        <ele>116.00312</ele>
        <time>2021-07-19T11:01:39Z</time>
      </trkpt>
      <trkpt lat="45.45821" lon="4.76312">
        <ele>116.21979</ele>
        <time>2021-07-19T11:01:40Z</time>
      </trkpt>
      <trkpt lat="45.45821" lon="4.76319">
        <ele>116.256775</ele>
        <time>2021-07-19T11:01:41Z</time>
      </trkpt>
      <trkpt lat="45.45822" lon="4.76326">
        <ele>116.330765</ele>
        <time>2021-07-19T11:01:42Z</time>
      </trkpt>
      <trkpt lat="45.45822" lon="4.76334">
        <ele>116.24093</ele>
        <time>2021-07-19T11:01:43Z</time>
      </trkpt>
      <trkpt lat="45.45822" lon="4.76342">
        <ele>116.505165</ele>
        <time>2021-07-19T11:01:44Z</time>
      </trkpt>
      <trkpt lat="45.45823" lon="4.7635">
        <ele>116.29906</ele>
        <time>2021-07-19T11:01:45Z</time>
      </trkpt>
      <trkpt lat="45.45823" lon="4.76358">
        <ele>116.27792</ele>
        <time>2021-07-19T11:01:46Z</time>
      </trkpt>
      <trkpt lat="45.45824" lon="4.76365">
        <ele>116.19865</ele>
        <time>2021-07-19T11:01:47Z</time>
      </trkpt>
      <trkpt lat="45.45824" lon="4.76373">
        <ele>116.018974</ele>
        <time>2021-07-19T11:01:48Z</time>
      </trkpt>
      <trkpt lat="45.45824" lon="4.7638">
        <ele>116.16694</ele>
        <time>2021-07-19T11:01:49Z</time>
      </trkpt>
      <trkpt lat="45.45825" lon="4.76389">
        <ele>116.362465</ele>
        <time>2021-07-19T11:01:50Z</time>
      </trkpt>
      <trkpt lat="45.45826" lon="4.76396">
        <ele>115.960846</ele>
        <time>2021-07-19T11:01:51Z</time>
      </trkpt>
      <trkpt lat="45.45828" lon="4.76404">
        <ele>115.62262</ele>
        <time>2021-07-19T11:01:52Z</time>
      </trkpt>
      <trkpt lat="45.45828" lon="4.76412">
        <ele>115.88685</ele>
        <time>2021-07-19T11:01:53Z</time>
      </trkpt>
      <trkpt lat="45.45829" lon="4.76421">
        <ele>116.52101</ele>
        <time>2021-07-19T11:01:54Z</time>
      </trkpt>
      <trkpt lat="45.4583" lon="4.76428">
        <ele>116.04539</ele>
        <time>2021-07-19T11:01:55Z</time>
      </trkpt>
      <trkpt lat="45.45831" lon="4.76435">
        <ele>115.79701</ele>
        <time>2021-07-19T11:01:56Z</time>
      </trkpt>
      <trkpt lat="45.45832" lon="4.76442">
        <ele>115.62262</ele>
        <time>2021-07-19T11:01:57Z</time>
      </trkpt>
      <trkpt lat="45.45832" lon="4.76449">
        <ele>115.77059</ele>
        <time>2021-07-19T11:01:58Z</time>
      </trkpt>
      <trkpt lat="45.45832" lon="4.76455">
        <ele>115.839294</ele>
        <time>2021-07-19T11:01:59Z</time>
      </trkpt>
      <trkpt lat="45.45833" lon="4.76462">
        <ele>115.865715</ele>
        <time>2021-07-19T11:02:00Z</time>
      </trkpt>
      <trkpt lat="45.45835" lon="4.76467">
        <ele>115.871</ele>
        <time>2021-07-19T11:02:01Z</time>
      </trkpt>
      <trkpt lat="45.45836" lon="4.76472">
        <ele>115.966125</ele>
        <time>2021-07-19T11:02:02Z</time>
      </trkpt>
      <trkpt lat="45.45837" lon="4.76478">
        <ele>115.82872</ele>
        <time>2021-07-19T11:02:03Z</time>
      </trkpt>
      <trkpt lat="45.45838" lon="4.76483">
        <ele>115.63847</ele>
        <time>2021-07-19T11:02:04Z</time>
      </trkpt>
      <trkpt lat="45.45838" lon="4.76487">
        <ele>115.575066</ele>
        <time>2021-07-19T11:02:05Z</time>
      </trkpt>
      <trkpt lat="45.45838" lon="4.7649">
        <ele>115.585625</ele>
        <time>2021-07-19T11:02:06Z</time>
      </trkpt>
      <trkpt lat="45.45838" lon="4.76493">
        <ele>115.580345</ele>
        <time>2021-07-19T11:02:07Z</time>
      </trkpt>
      <trkpt lat="45.45837" lon="4.76494">
        <ele>115.61205</ele>
        <time>2021-07-19T11:02:08Z</time>
      </trkpt>
      <trkpt lat="45.45835" lon="4.76492">
        <ele>115.6649</ele>
        <time>2021-07-19T11:02:09Z</time>
      </trkpt>
      <trkpt lat="45.45834" lon="4.76491">
        <ele>115.56449</ele>
        <time>2021-07-19T11:02:10Z</time>
      </trkpt>
      <trkpt lat="45.45832" lon="4.7649">
        <ele>115.71246</ele>
        <time>2021-07-19T11:02:11Z</time>
      </trkpt>
      <trkpt lat="45.45831" lon="4.76491">
        <ele>115.89742</ele>
        <time>2021-07-19T11:02:12Z</time>
      </trkpt>
      <trkpt lat="45.4583" lon="4.76493">
        <ele>115.760025</ele>
        <time>2021-07-19T11:02:13Z</time>
      </trkpt>
      <trkpt lat="45.45829" lon="4.76495">
        <ele>115.77059</ele>
        <time>2021-07-19T11:02:14Z</time>
      </trkpt>
      <trkpt lat="45.4583" lon="4.765">
        <ele>115.87629</ele>
        <time>2021-07-19T11:02:15Z</time>
      </trkpt>
      <trkpt lat="45.4583" lon="4.76505">
        <ele>116.30962</ele>
        <time>2021-07-19T11:02:16Z</time>
      </trkpt>
      <trkpt lat="45.45831" lon="4.7651">
        <ele>116.47874</ele>
        <time>2021-07-19T11:02:17Z</time>
      </trkpt>
      <trkpt lat="45.45831" lon="4.76517">
        <ele>116.15637</ele>
        <time>2021-07-19T11:02:18Z</time>
      </trkpt>
      <trkpt lat="45.45831" lon="4.76524">
        <ele>115.844574</ele>
        <time>2021-07-19T11:02:19Z</time>
      </trkpt>
      <trkpt lat="45.45831" lon="4.76531">
        <ele>116.08767</ele>
        <time>2021-07-19T11:02:20Z</time>
      </trkpt>
      <trkpt lat="45.4583" lon="4.76539">
        <ele>115.88157</ele>
        <time>2021-07-19T11:02:21Z</time>
      </trkpt>
      <trkpt lat="45.45829" lon="4.76547">
        <ele>116.18279</ele>
        <time>2021-07-19T11:02:22Z</time>
      </trkpt>
      <trkpt lat="45.45829" lon="4.76555">
        <ele>116.066536</ele>
        <time>2021-07-19T11:02:23Z</time>
      </trkpt>
      <trkpt lat="45.45828" lon="4.76564">
        <ele>115.93442</ele>
        <time>2021-07-19T11:02:24Z</time>
      </trkpt>
      <trkpt lat="45.45826" lon="4.76572">
        <ele>115.865715</ele>
        <time>2021-07-19T11:02:25Z</time>
      </trkpt>
      <trkpt lat="45.45824" lon="4.7658">
        <ele>115.82872</ele>
        <time>2021-07-19T11:02:26Z</time>
      </trkpt>
      <trkpt lat="45.45823" lon="4.76587">
        <ele>115.966125</ele>
        <time>2021-07-19T11:02:27Z</time>
      </trkpt>
      <trkpt lat="45.45822" lon="4.76595">
        <ele>115.55921</ele>
        <time>2021-07-19T11:02:28Z</time>
      </trkpt>
      <trkpt lat="45.45821" lon="4.76603">
        <ele>115.918564</ele>
        <time>2021-07-19T11:02:29Z</time>
      </trkpt>
      <trkpt lat="45.4582" lon="4.76612">
        <ele>115.865715</ele>
        <time>2021-07-19T11:02:30Z</time>
      </trkpt>
      <trkpt lat="45.45818" lon="4.7662">
        <ele>115.98198</ele>
        <time>2021-07-19T11:02:31Z</time>
      </trkpt>
      <trkpt lat="45.45817" lon="4.76628">
        <ele>116.34133</ele>
        <time>2021-07-19T11:02:32Z</time>
      </trkpt>
      <trkpt lat="45.45816" lon="4.76635">
        <ele>115.81287</ele>
        <time>2021-07-19T11:02:33Z</time>
      </trkpt>
      <trkpt lat="45.45815" lon="4.76643">
        <ele>115.38481</ele>
        <time>2021-07-19T11:02:34Z</time>
      </trkpt>
      <trkpt lat="45.45815" lon="4.76651">
        <ele>115.23156</ele>
        <time>2021-07-19T11:02:35Z</time>
      </trkpt>
      <trkpt lat="45.45814" lon="4.7666">
        <ele>115.84986</ele>
        <time>2021-07-19T11:02:36Z</time>
      </trkpt>
      <trkpt lat="45.45812" lon="4.76668">
        <ele>115.860435</ele>
        <time>2021-07-19T11:02:37Z</time>
      </trkpt>
      <trkpt lat="45.4581" lon="4.76676">
        <ele>116.17751</ele>
        <time>2021-07-19T11:02:38Z</time>
      </trkpt>
      <trkpt lat="45.45808" lon="4.76684">
        <ele>115.9027</ele>
        <time>2021-07-19T11:02:39Z</time>
      </trkpt>
      <trkpt lat="45.45807" lon="4.76693">
        <ele>115.865715</ele>
        <time>2021-07-19T11:02:40Z</time>
      </trkpt>
      <trkpt lat="45.45806" lon="4.76701">
        <ele>115.70718</ele>
        <time>2021-07-19T11:02:41Z</time>
      </trkpt>
      <trkpt lat="45.45804" lon="4.76709">
        <ele>116.0084</ele>
        <time>2021-07-19T11:02:42Z</time>
      </trkpt>
      <trkpt lat="45.45803" lon="4.76717">
        <ele>116.018974</ele>
        <time>2021-07-19T11:02:43Z</time>
      </trkpt>
      <trkpt lat="45.45802" lon="4.76725">
        <ele>116.19865</ele>
        <time>2021-07-19T11:02:44Z</time>
      </trkpt>
      <trkpt lat="45.458" lon="4.76733">
        <ele>115.77059</ele>
        <time>2021-07-19T11:02:45Z</time>
      </trkpt>
      <trkpt lat="45.45799" lon="4.76741">
        <ele>115.82872</ele>
        <time>2021-07-19T11:02:46Z</time>
      </trkpt>
      <trkpt lat="45.45798" lon="4.76749">
        <ele>115.44294</ele>
        <time>2021-07-19T11:02:47Z</time>
      </trkpt>
      <trkpt lat="45.45796" lon="4.76756">
        <ele>115.168144</ele>
        <time>2021-07-19T11:02:48Z</time>
      </trkpt>
      <trkpt lat="45.45795" lon="4.76764">
        <ele>115.74416</ele>
        <time>2021-07-19T11:02:49Z</time>
      </trkpt>
      <trkpt lat="45.45794" lon="4.76772">
        <ele>115.81816</ele>
        <time>2021-07-19T11:02:50Z</time>
      </trkpt>
      <trkpt lat="45.45792" lon="4.7678">
        <ele>116.41531</ele>
        <time>2021-07-19T11:02:51Z</time>
      </trkpt>
      <trkpt lat="45.45791" lon="4.76787">
        <ele>116.351906</ele>
        <time>2021-07-19T11:02:52Z</time>
      </trkpt>
      <trkpt lat="45.4579" lon="4.76795">
        <ele>116.28848</ele>
        <time>2021-07-19T11:02:53Z</time>
      </trkpt>
      <trkpt lat="45.45788" lon="4.76802">
        <ele>115.95555</ele>
        <time>2021-07-19T11:02:54Z</time>
      </trkpt>
      <trkpt lat="45.45787" lon="4.7681">
        <ele>115.75474</ele>
        <time>2021-07-19T11:02:55Z</time>
      </trkpt>
      <trkpt lat="45.45786" lon="4.76817">
        <ele>115.50108</ele>
        <time>2021-07-19T11:02:56Z</time>
      </trkpt>
      <trkpt lat="45.45784" lon="4.76824">
        <ele>115.48522</ele>
        <time>2021-07-19T11:02:57Z</time>
      </trkpt>
      <trkpt lat="45.45784" lon="4.7683">
        <ele>115.20514</ele>
        <time>2021-07-19T11:02:58Z</time>
      </trkpt>
      <trkpt lat="45.45784" lon="4.76835">
        <ele>115.427086</ele>
        <time>2021-07-19T11:02:59Z</time>
      </trkpt>
      <trkpt lat="45.45785" lon="4.76841">
        <ele>115.26327</ele>
        <time>2021-07-19T11:03:00Z</time>
      </trkpt>
      <trkpt lat="45.45786" lon="4.76844">
        <ele>115.41123</ele>
        <time>2021-07-19T11:03:01Z</time>
      </trkpt>
      <trkpt lat="45.45786" lon="4.76848">
        <ele>115.54864</ele>
        <time>2021-07-19T11:03:02Z</time>
      </trkpt>
      <trkpt lat="45.45786" lon="4.76852">
        <ele>115.60148</ele>
        <time>2021-07-19T11:03:03Z</time>
      </trkpt>
      <trkpt lat="45.45786" lon="4.76857">
        <ele>115.62791</ele>
        <time>2021-07-19T11:03:04Z</time>
      </trkpt>
      <trkpt lat="45.45787" lon="4.76864">
        <ele>115.92913</ele>
        <time>2021-07-19T11:03:05Z</time>
      </trkpt>
      <trkpt lat="45.45788" lon="4.7687">
        <ele>115.56449</ele>
        <time>2021-07-19T11:03:06Z</time>
      </trkpt>
      <trkpt lat="45.45789" lon="4.76876">
        <ele>115.33197</ele>
        <time>2021-07-19T11:03:07Z</time>
      </trkpt>
      <trkpt lat="45.45789" lon="4.76882">
        <ele>115.38481</ele>
        <time>2021-07-19T11:03:08Z</time>
      </trkpt>
      <trkpt lat="45.45789" lon="4.76887">
        <ele>115.24741</ele>
        <time>2021-07-19T11:03:09Z</time>
      </trkpt>
      <trkpt lat="45.45789" lon="4.76892">
        <ele>115.37953</ele>
        <time>2021-07-19T11:03:10Z</time>
      </trkpt>
      <trkpt lat="45.45789" lon="4.76899">
        <ele>115.289696</ele>
        <time>2021-07-19T11:03:11Z</time>
      </trkpt>
      <trkpt lat="45.45789" lon="4.76905">
        <ele>115.25799</ele>
        <time>2021-07-19T11:03:12Z</time>
      </trkpt>
      <trkpt lat="45.45789" lon="4.76911">
        <ele>115.30026</ele>
        <time>2021-07-19T11:03:13Z</time>
      </trkpt>
      <trkpt lat="45.45788" lon="4.76916">
        <ele>115.194565</ele>
        <time>2021-07-19T11:03:14Z</time>
      </trkpt>
      <trkpt lat="45.45788" lon="4.76923">
        <ele>114.76123</ele>
        <time>2021-07-19T11:03:15Z</time>
      </trkpt>
      <trkpt lat="45.4579" lon="4.76928">
        <ele>114.83521</ele>
        <time>2021-07-19T11:03:16Z</time>
      </trkpt>
      <trkpt lat="45.45791" lon="4.76931">
        <ele>114.988464</ele>
        <time>2021-07-19T11:03:17Z</time>
      </trkpt>
      <trkpt lat="45.45792" lon="4.76934">
        <ele>114.903915</ele>
        <time>2021-07-19T11:03:18Z</time>
      </trkpt>
      <trkpt lat="45.45793" lon="4.76936">
        <ele>114.66082</ele>
        <time>2021-07-19T11:03:19Z</time>
      </trkpt>
      <trkpt lat="45.45795" lon="4.76938">
        <ele>114.68195</ele>
        <time>2021-07-19T11:03:20Z</time>
      </trkpt>
      <trkpt lat="45.45796" lon="4.76939">
        <ele>114.68724</ele>
        <time>2021-07-19T11:03:21Z</time>
      </trkpt>
      <trkpt lat="45.45796" lon="4.76942">
        <ele>114.78765</ele>
        <time>2021-07-19T11:03:22Z</time>
      </trkpt>
      <trkpt lat="45.45796" lon="4.76945">
        <ele>114.9779</ele>
        <time>2021-07-19T11:03:23Z</time>
      </trkpt>
      <trkpt lat="45.45794" lon="4.76948">
        <ele>115.12058</ele>
        <time>2021-07-19T11:03:24Z</time>
      </trkpt>
      <trkpt lat="45.45791" lon="4.76949">
        <ele>115.22627</ele>
        <time>2021-07-19T11:03:25Z</time>
      </trkpt>
      <trkpt lat="45.45789" lon="4.76951">
        <ele>115.20514</ele>
        <time>2021-07-19T11:03:26Z</time>
      </trkpt>
      <trkpt lat="45.45788" lon="4.76952">
        <ele>115.3901</ele>
        <time>2021-07-19T11:03:27Z</time>
      </trkpt>
      <trkpt lat="45.45787" lon="4.76953">
        <ele>115.83401</ele>
        <time>2021-07-19T11:03:28Z</time>
      </trkpt>
      <trkpt lat="45.45787" lon="4.76953">
        <ele>115.908</ele>
        <time>2021-07-19T11:03:29Z</time>
      </trkpt>
      <trkpt lat="45.45787" lon="4.76954">
        <ele>116.066536</ele>
        <time>2021-07-19T11:03:30Z</time>
      </trkpt>
      <trkpt lat="45.45786" lon="4.76956">
        <ele>116.24621</ele>
        <time>2021-07-19T11:03:31Z</time>
      </trkpt>
      <trkpt lat="45.45786" lon="4.76959">
        <ele>116.37833</ele>
        <time>2021-07-19T11:03:32Z</time>
      </trkpt>
      <trkpt lat="45.45785" lon="4.76964">
        <ele>116.27792</ele>
        <time>2021-07-19T11:03:33Z</time>
      </trkpt>
      <trkpt lat="45.45785" lon="4.7697">
        <ele>116.05596</ele>
        <time>2021-07-19T11:03:34Z</time>
      </trkpt>
      <trkpt lat="45.45785" lon="4.76975">
        <ele>115.95555</ele>
        <time>2021-07-19T11:03:35Z</time>
      </trkpt>
      <trkpt lat="45.45785" lon="4.7698">
        <ele>115.77059</ele>
        <time>2021-07-19T11:03:36Z</time>
      </trkpt>
      <trkpt lat="45.45785" lon="4.76986">
        <ele>115.63847</ele>
        <time>2021-07-19T11:03:37Z</time>
      </trkpt>
      <trkpt lat="45.45784" lon="4.76992">
        <ele>115.680756</ele>
        <time>2021-07-19T11:03:38Z</time>
      </trkpt>
      <trkpt lat="45.45784" lon="4.76998">
        <ele>115.71246</ele>
        <time>2021-07-19T11:03:39Z</time>
      </trkpt>
      <trkpt lat="45.45784" lon="4.77005">
        <ele>115.83401</ele>
        <time>2021-07-19T11:03:40Z</time>
      </trkpt>
      <trkpt lat="45.45785" lon="4.77012">
        <ele>115.71246</ele>
        <time>2021-07-19T11:03:41Z</time>
      </trkpt>
      <trkpt lat="45.45785" lon="4.77018">
        <ele>115.63847</ele>
        <time>2021-07-19T11:03:42Z</time>
      </trkpt>
      <trkpt lat="45.45785" lon="4.77023">
        <ele>115.35838</ele>
        <time>2021-07-19T11:03:43Z</time>
      </trkpt>
      <trkpt lat="45.45784" lon="4.77028">
        <ele>115.24741</ele>
        <time>2021-07-19T11:03:44Z</time>
      </trkpt>
      <trkpt lat="45.45783" lon="4.77033">
        <ele>115.427086</ele>
        <time>2021-07-19T11:03:45Z</time>
      </trkpt>
      <trkpt lat="45.45782" lon="4.77038">
        <ele>115.585625</ele>
        <time>2021-07-19T11:03:46Z</time>
      </trkpt>
      <trkpt lat="45.45782" lon="4.77044">
        <ele>115.77588</ele>
        <time>2021-07-19T11:03:47Z</time>
      </trkpt>
      <trkpt lat="45.45781" lon="4.7705">
        <ele>115.971405</ele>
        <time>2021-07-19T11:03:48Z</time>
      </trkpt>
      <trkpt lat="45.45781" lon="4.77056">
        <ele>116.251495</ele>
        <time>2021-07-19T11:03:49Z</time>
      </trkpt>
      <trkpt lat="45.4578" lon="4.77063">
        <ele>116.58971</ele>
        <time>2021-07-19T11:03:50Z</time>
      </trkpt>
      <trkpt lat="45.4578" lon="4.7707">
        <ele>116.510445</ele>
        <time>2021-07-19T11:03:51Z</time>
      </trkpt>
      <trkpt lat="45.45779" lon="4.77076">
        <ele>116.55801</ele>
        <time>2021-07-19T11:03:52Z</time>
      </trkpt>
      <trkpt lat="45.45779" lon="4.77083">
        <ele>116.8328</ele>
        <time>2021-07-19T11:03:53Z</time>
      </trkpt>
      <trkpt lat="45.45781" lon="4.77089">
        <ele>116.75882</ele>
        <time>2021-07-19T11:03:54Z</time>
      </trkpt>
      <trkpt lat="45.45783" lon="4.77095">
        <ele>117.007195</ele>
        <time>2021-07-19T11:03:55Z</time>
      </trkpt>
      <trkpt lat="45.45786" lon="4.77102">
        <ele>116.737686</ele>
        <time>2021-07-19T11:03:56Z</time>
      </trkpt>
      <trkpt lat="45.45789" lon="4.77108">
        <ele>116.97021</ele>
        <time>2021-07-19T11:03:57Z</time>
      </trkpt>
      <trkpt lat="45.45792" lon="4.77115">
        <ele>117.03891</ele>
        <time>2021-07-19T11:03:58Z</time>
      </trkpt>
      <trkpt lat="45.45796" lon="4.7712">
        <ele>117.04419</ele>
        <time>2021-07-19T11:03:59Z</time>
      </trkpt>
      <trkpt lat="45.45799" lon="4.77126">
        <ele>116.748245</ele>
        <time>2021-07-19T11:04:00Z</time>
      </trkpt>
      <trkpt lat="45.45803" lon="4.77131">
        <ele>116.88037</ele>
        <time>2021-07-19T11:04:01Z</time>
      </trkpt>
      <trkpt lat="45.45807" lon="4.77135">
        <ele>116.616135</ele>
        <time>2021-07-19T11:04:02Z</time>
      </trkpt>
      <trkpt lat="45.45812" lon="4.7714">
        <ele>116.49987</ele>
        <time>2021-07-19T11:04:03Z</time>
      </trkpt>
      <trkpt lat="45.45816" lon="4.77144">
        <ele>116.41531</ele>
        <time>2021-07-19T11:04:04Z</time>
      </trkpt>
      <trkpt lat="45.45821" lon="4.77148">
        <ele>116.34133</ele>
        <time>2021-07-19T11:04:05Z</time>
      </trkpt>
      <trkpt lat="45.45827" lon="4.77151">
        <ele>116.44702</ele>
        <time>2021-07-19T11:04:06Z</time>
      </trkpt>
      <trkpt lat="45.45832" lon="4.77154">
        <ele>116.34133</ele>
        <time>2021-07-19T11:04:07Z</time>
      </trkpt>
      <trkpt lat="45.45837" lon="4.77157">
        <ele>116.31491</ele>
        <time>2021-07-19T11:04:08Z</time>
      </trkpt>
      <trkpt lat="45.45842" lon="4.77159">
        <ele>116.32548</ele>
        <time>2021-07-19T11:04:09Z</time>
      </trkpt>
      <trkpt lat="45.45847" lon="4.77163">
        <ele>116.81167</ele>
        <time>2021-07-19T11:04:10Z</time>
      </trkpt>
      <trkpt lat="45.45853" lon="4.77167">
        <ele>116.8328</ele>
        <time>2021-07-19T11:04:11Z</time>
      </trkpt>
      <trkpt lat="45.45858" lon="4.77171">
        <ele>116.49987</ele>
        <time>2021-07-19T11:04:12Z</time>
      </trkpt>
      <trkpt lat="45.45863" lon="4.77174">
        <ele>116.33605</ele>
        <time>2021-07-19T11:04:13Z</time>
      </trkpt>
      <trkpt lat="45.45869" lon="4.77178">
        <ele>116.119385</ele>
        <time>2021-07-19T11:04:14Z</time>
      </trkpt>
      <trkpt lat="45.45874" lon="4.77182">
        <ele>115.98726</ele>
        <time>2021-07-19T11:04:15Z</time>
      </trkpt>
      <trkpt lat="45.4588" lon="4.77186">
        <ele>116.16166</ele>
        <time>2021-07-19T11:04:16Z</time>
      </trkpt>
      <trkpt lat="45.45885" lon="4.7719">
        <ele>116.14052</ele>
        <time>2021-07-19T11:04:17Z</time>
      </trkpt>
      <trkpt lat="45.4589" lon="4.77193">
        <ele>116.2145</ele>
        <time>2021-07-19T11:04:18Z</time>
      </trkpt>
      <trkpt lat="45.45896" lon="4.77197">
        <ele>116.08239</ele>
        <time>2021-07-19T11:04:19Z</time>
      </trkpt>
      <trkpt lat="45.45901" lon="4.772">
        <ele>116.42061</ele>
        <time>2021-07-19T11:04:20Z</time>
      </trkpt>
      <trkpt lat="45.45906" lon="4.77204">
        <ele>116.5263</ele>
        <time>2021-07-19T11:04:21Z</time>
      </trkpt>
      <trkpt lat="45.45912" lon="4.77208">
        <ele>116.56857</ele>
        <time>2021-07-19T11:04:22Z</time>
      </trkpt>
      <trkpt lat="45.45917" lon="4.77211">
        <ele>116.230354</ele>
        <time>2021-07-19T11:04:23Z</time>
      </trkpt>
      <trkpt lat="45.45922" lon="4.77214">
        <ele>115.6649</ele>
        <time>2021-07-19T11:04:24Z</time>
      </trkpt>
      <trkpt lat="45.45925" lon="4.77217">
        <ele>115.67547</ele>
        <time>2021-07-19T11:04:25Z</time>
      </trkpt>
      <trkpt lat="45.45929" lon="4.77221">
        <ele>115.80231</ele>
        <time>2021-07-19T11:04:26Z</time>
      </trkpt>
      <trkpt lat="45.45931" lon="4.77224">
        <ele>115.7019</ele>
        <time>2021-07-19T11:04:27Z</time>
      </trkpt>
      <trkpt lat="45.45933" lon="4.7723">
        <ele>115.88685</ele>
        <time>2021-07-19T11:04:28Z</time>
      </trkpt>
      <trkpt lat="45.45935" lon="4.77236">
        <ele>115.760025</ele>
        <time>2021-07-19T11:04:29Z</time>
      </trkpt>
      <trkpt lat="45.45938" lon="4.77243">
        <ele>116.071815</ele>
        <time>2021-07-19T11:04:30Z</time>
      </trkpt>
      <trkpt lat="45.4594" lon="4.7725">
        <ele>115.992546</ele>
        <time>2021-07-19T11:04:31Z</time>
      </trkpt>
      <trkpt lat="45.45943" lon="4.77257">
        <ele>115.93442</ele>
        <time>2021-07-19T11:04:32Z</time>
      </trkpt>
      <trkpt lat="45.45945" lon="4.77264">
        <ele>115.98198</ele>
        <time>2021-07-19T11:04:33Z</time>
      </trkpt>
      <trkpt lat="45.45947" lon="4.77272">
        <ele>115.92913</ele>
        <time>2021-07-19T11:04:34Z</time>
      </trkpt>
      <trkpt lat="45.45949" lon="4.7728">
        <ele>116.09296</ele>
        <time>2021-07-19T11:04:35Z</time>
      </trkpt>
      <trkpt lat="45.45951" lon="4.77288">
        <ele>116.11409</ele>
        <time>2021-07-19T11:04:36Z</time>
      </trkpt>
      <trkpt lat="45.45953" lon="4.77295">
        <ele>116.01369</ele>
        <time>2021-07-19T11:04:37Z</time>
      </trkpt>
      <trkpt lat="45.45956" lon="4.77302">
        <ele>115.74416</ele>
        <time>2021-07-19T11:04:38Z</time>
      </trkpt>
      <trkpt lat="45.4596" lon="4.77307">
        <ele>115.51693</ele>
        <time>2021-07-19T11:04:39Z</time>
      </trkpt>
      <trkpt lat="45.45964" lon="4.77313">
        <ele>115.62791</ele>
        <time>2021-07-19T11:04:40Z</time>
      </trkpt>
      <trkpt lat="45.45967" lon="4.7732">
        <ele>115.61734</ele>
        <time>2021-07-19T11:04:41Z</time>
      </trkpt>
      <trkpt lat="45.45969" lon="4.77328">
        <ele>115.63847</ele>
        <time>2021-07-19T11:04:42Z</time>
      </trkpt>
      <trkpt lat="45.45971" lon="4.77336">
        <ele>115.77059</ele>
        <time>2021-07-19T11:04:43Z</time>
      </trkpt>
      <trkpt lat="45.45974" lon="4.77344">
        <ele>115.77059</ele>
        <time>2021-07-19T11:04:44Z</time>
      </trkpt>
      <trkpt lat="45.45976" lon="4.77351">
        <ele>116.01369</ele>
        <time>2021-07-19T11:04:45Z</time>
      </trkpt>
      <trkpt lat="45.45978" lon="4.77358">
        <ele>115.81816</ele>
        <time>2021-07-19T11:04:46Z</time>
      </trkpt>
      <trkpt lat="45.45981" lon="4.77365">
        <ele>115.99783</ele>
        <time>2021-07-19T11:04:47Z</time>
      </trkpt>
      <trkpt lat="45.45984" lon="4.77372">
        <ele>116.19337</ele>
        <time>2021-07-19T11:04:48Z</time>
      </trkpt>
      <trkpt lat="45.45989" lon="4.77378">
        <ele>116.024254</ele>
        <time>2021-07-19T11:04:49Z</time>
      </trkpt>
      <trkpt lat="45.45992" lon="4.77384">
        <ele>115.680756</ele>
        <time>2021-07-19T11:04:50Z</time>
      </trkpt>
      <trkpt lat="45.45995" lon="4.7739">
        <ele>115.65962</ele>
        <time>2021-07-19T11:04:51Z</time>
      </trkpt>
      <trkpt lat="45.45998" lon="4.77397">
        <ele>115.71246</ele>
        <time>2021-07-19T11:04:52Z</time>
      </trkpt>
      <trkpt lat="45.46001" lon="4.77404">
        <ele>115.70718</ele>
        <time>2021-07-19T11:04:53Z</time>
      </trkpt>
      <trkpt lat="45.46005" lon="4.7741">
        <ele>115.786446</ele>
        <time>2021-07-19T11:04:54Z</time>
      </trkpt>
      <trkpt lat="45.46008" lon="4.77418">
        <ele>115.82344</ele>
        <time>2021-07-19T11:04:55Z</time>
      </trkpt>
      <trkpt lat="45.46011" lon="4.77424">
        <ele>116.01369</ele>
        <time>2021-07-19T11:04:56Z</time>
      </trkpt>
      <trkpt lat="45.46014" lon="4.77432">
        <ele>116.04539</ele>
        <time>2021-07-19T11:04:57Z</time>
      </trkpt>
      <trkpt lat="45.46017" lon="4.7744">
        <ele>115.98198</ele>
        <time>2021-07-19T11:04:58Z</time>
      </trkpt>
      <trkpt lat="45.4602" lon="4.77447">
        <ele>116.071815</ele>
        <time>2021-07-19T11:04:59Z</time>
      </trkpt>
      <trkpt lat="45.46022" lon="4.77455">
        <ele>115.960846</ele>
        <time>2021-07-19T11:05:00Z</time>
      </trkpt>
      <trkpt lat="45.46024" lon="4.77464">
        <ele>115.95027</ele>
        <time>2021-07-19T11:05:01Z</time>
      </trkpt>
      <trkpt lat="45.46026" lon="4.77472">
        <ele>115.94499</ele>
        <time>2021-07-19T11:05:02Z</time>
      </trkpt>
      <trkpt lat="45.46028" lon="4.7748">
        <ele>115.98726</ele>
        <time>2021-07-19T11:05:03Z</time>
      </trkpt>
      <trkpt lat="45.4603" lon="4.77488">
        <ele>116.04011</ele>
        <time>2021-07-19T11:05:04Z</time>
      </trkpt>
      <trkpt lat="45.46031" lon="4.77496">
        <ele>116.03483</ele>
        <time>2021-07-19T11:05:05Z</time>
      </trkpt>
      <trkpt lat="45.46033" lon="4.77504">
        <ele>115.960846</ele>
        <time>2021-07-19T11:05:06Z</time>
      </trkpt>
      <trkpt lat="45.46035" lon="4.77513">
        <ele>116.10881</ele>
        <time>2021-07-19T11:05:07Z</time>
      </trkpt>
      <trkpt lat="45.46037" lon="4.77521">
        <ele>116.36776</ele>
        <time>2021-07-19T11:05:08Z</time>
      </trkpt>
      <trkpt lat="45.46038" lon="4.77529">
        <ele>116.43646</ele>
        <time>2021-07-19T11:05:09Z</time>
      </trkpt>
      <trkpt lat="45.46039" lon="4.77537">
        <ele>116.44702</ele>
        <time>2021-07-19T11:05:10Z</time>
      </trkpt>
      <trkpt lat="45.4604" lon="4.77545">
        <ele>116.28848</ele>
        <time>2021-07-19T11:05:11Z</time>
      </trkpt>
      <trkpt lat="45.46039" lon="4.77553">
        <ele>116.47345</ele>
        <time>2021-07-19T11:05:12Z</time>
      </trkpt>
      <trkpt lat="45.46039" lon="4.77562">
        <ele>116.31491</ele>
        <time>2021-07-19T11:05:13Z</time>
      </trkpt>
      <trkpt lat="45.4604" lon="4.7757">
        <ele>116.23564</ele>
        <time>2021-07-19T11:05:14Z</time>
      </trkpt>
      <trkpt lat="45.4604" lon="4.77578">
        <ele>116.129944</ele>
        <time>2021-07-19T11:05:15Z</time>
      </trkpt>
      <trkpt lat="45.4604" lon="4.77587">
        <ele>116.08767</ele>
        <time>2021-07-19T11:05:16Z</time>
      </trkpt>
      <trkpt lat="45.46041" lon="4.77596">
        <ele>116.18279</ele>
        <time>2021-07-19T11:05:17Z</time>
      </trkpt>
      <trkpt lat="45.46042" lon="4.77605">
        <ele>116.08767</ele>
        <time>2021-07-19T11:05:18Z</time>
      </trkpt>
      <trkpt lat="45.46043" lon="4.77613">
        <ele>115.960846</ele>
        <time>2021-07-19T11:05:19Z</time>
      </trkpt>
      <trkpt lat="45.46043" lon="4.77621">
        <ele>116.119385</ele>
        <time>2021-07-19T11:05:20Z</time>
      </trkpt>
      <trkpt lat="45.46044" lon="4.7763">
        <ele>115.98198</ele>
        <time>2021-07-19T11:05:21Z</time>
      </trkpt>
      <trkpt lat="45.46045" lon="4.77639">
        <ele>116.18808</ele>
        <time>2021-07-19T11:05:22Z</time>
      </trkpt>
      <trkpt lat="45.46046" lon="4.77648">
        <ele>116.10881</ele>
        <time>2021-07-19T11:05:23Z</time>
      </trkpt>
      <trkpt lat="45.46048" lon="4.77656">
        <ele>116.30962</ele>
        <time>2021-07-19T11:05:24Z</time>
      </trkpt>
      <trkpt lat="45.4605" lon="4.77663">
        <ele>116.45232</ele>
        <time>2021-07-19T11:05:25Z</time>
      </trkpt>
      <trkpt lat="45.46053" lon="4.77669">
        <ele>116.251495</ele>
        <time>2021-07-19T11:05:26Z</time>
      </trkpt>
      <trkpt lat="45.46056" lon="4.77673">
        <ele>116.06124</ele>
        <time>2021-07-19T11:05:27Z</time>
      </trkpt>
      <trkpt lat="45.46059" lon="4.77677">
        <ele>116.06124</ele>
        <time>2021-07-19T11:05:28Z</time>
      </trkpt>
      <trkpt lat="45.46063" lon="4.7768">
        <ele>116.21979</ele>
        <time>2021-07-19T11:05:29Z</time>
      </trkpt>
      <trkpt lat="45.46067" lon="4.77684">
        <ele>116.742966</ele>
        <time>2021-07-19T11:05:30Z</time>
      </trkpt>
      <trkpt lat="45.46071" lon="4.77687">
        <ele>116.98078</ele>
        <time>2021-07-19T11:05:31Z</time>
      </trkpt>
      <trkpt lat="45.46076" lon="4.7769">
        <ele>116.906784</ele>
        <time>2021-07-19T11:05:32Z</time>
      </trkpt>
      <trkpt lat="45.46081" lon="4.77693">
        <ele>116.62142</ele>
        <time>2021-07-19T11:05:33Z</time>
      </trkpt>
      <trkpt lat="45.46086" lon="4.77696">
        <ele>116.47874</ele>
        <time>2021-07-19T11:05:34Z</time>
      </trkpt>
      <trkpt lat="45.46091" lon="4.77699">
        <ele>116.32548</ele>
        <time>2021-07-19T11:05:35Z</time>
      </trkpt>
      <trkpt lat="45.46096" lon="4.77702">
        <ele>116.536865</ele>
        <time>2021-07-19T11:05:36Z</time>
      </trkpt>
      <trkpt lat="45.46101" lon="4.77705">
        <ele>116.36776</ele>
        <time>2021-07-19T11:05:37Z</time>
      </trkpt>
      <trkpt lat="45.46106" lon="4.77709">
        <ele>116.37833</ele>
        <time>2021-07-19T11:05:38Z</time>
      </trkpt>
      <trkpt lat="45.46111" lon="4.77713">
        <ele>116.595</ele>
        <time>2021-07-19T11:05:39Z</time>
      </trkpt>
      <trkpt lat="45.46116" lon="4.77717">
        <ele>116.801094</ele>
        <time>2021-07-19T11:05:40Z</time>
      </trkpt>
      <trkpt lat="45.46121" lon="4.77721">
        <ele>116.663704</ele>
        <time>2021-07-19T11:05:41Z</time>
      </trkpt>
      <trkpt lat="45.46127" lon="4.77724">
        <ele>116.642555</ele>
        <time>2021-07-19T11:05:42Z</time>
      </trkpt>
      <trkpt lat="45.46132" lon="4.77728">
        <ele>116.8698</ele>
        <time>2021-07-19T11:05:43Z</time>
      </trkpt>
      <trkpt lat="45.46137" lon="4.77733">
        <ele>116.96493</ele>
        <time>2021-07-19T11:05:44Z</time>
      </trkpt>
      <trkpt lat="45.46142" lon="4.77737">
        <ele>116.98606</ele>
        <time>2021-07-19T11:05:45Z</time>
      </trkpt>
      <trkpt lat="45.46148" lon="4.77741">
        <ele>117.03362</ele>
        <time>2021-07-19T11:05:46Z</time>
      </trkpt>
      <trkpt lat="45.46153" lon="4.77745">
        <ele>117.04419</ele>
        <time>2021-07-19T11:05:47Z</time>
      </trkpt>
      <trkpt lat="45.46158" lon="4.77749">
        <ele>117.05476</ele>
        <time>2021-07-19T11:05:48Z</time>
      </trkpt>
      <trkpt lat="45.46163" lon="4.77754">
        <ele>116.9385</ele>
        <time>2021-07-19T11:05:49Z</time>
      </trkpt>
      <trkpt lat="45.46168" lon="4.77759">
        <ele>117.16045</ele>
        <time>2021-07-19T11:05:50Z</time>
      </trkpt>
      <trkpt lat="45.46173" lon="4.77763">
        <ele>117.128746</ele>
        <time>2021-07-19T11:05:51Z</time>
      </trkpt>
      <trkpt lat="45.46178" lon="4.77768">
        <ele>117.22387</ele>
        <time>2021-07-19T11:05:52Z</time>
      </trkpt>
      <trkpt lat="45.46183" lon="4.77773">
        <ele>117.081184</ele>
        <time>2021-07-19T11:05:53Z</time>
      </trkpt>
      <trkpt lat="45.46187" lon="4.77778">
        <ele>117.09704</ele>
        <time>2021-07-19T11:05:54Z</time>
      </trkpt>
      <trkpt lat="45.46192" lon="4.77783">
        <ele>117.11817</ele>
        <time>2021-07-19T11:05:55Z</time>
      </trkpt>
      <trkpt lat="45.46196" lon="4.77789">
        <ele>117.20801</ele>
        <time>2021-07-19T11:05:56Z</time>
      </trkpt>
      <trkpt lat="45.46201" lon="4.77794">
        <ele>116.97021</ele>
        <time>2021-07-19T11:05:57Z</time>
      </trkpt>
      <trkpt lat="45.46206" lon="4.77799">
        <ele>117.007195</ele>
        <time>2021-07-19T11:05:58Z</time>
      </trkpt>
      <trkpt lat="45.46211" lon="4.77804">
        <ele>117.17102</ele>
        <time>2021-07-19T11:05:59Z</time>
      </trkpt>
      <trkpt lat="45.46215" lon="4.77808">
        <ele>117.23972</ele>
        <time>2021-07-19T11:06:00Z</time>
      </trkpt>
      <trkpt lat="45.4622" lon="4.77813">
        <ele>117.23972</ele>
        <time>2021-07-19T11:06:01Z</time>
      </trkpt>
      <trkpt lat="45.46225" lon="4.77818">
        <ele>117.14988</ele>
        <time>2021-07-19T11:06:02Z</time>
      </trkpt>
      <trkpt lat="45.4623" lon="4.77822">
        <ele>117.186874</ele>
        <time>2021-07-19T11:06:03Z</time>
      </trkpt>
      <trkpt lat="45.46235" lon="4.77827">
        <ele>117.06532</ele>
        <time>2021-07-19T11:06:04Z</time>
      </trkpt>
      <trkpt lat="45.4624" lon="4.77831">
        <ele>117.17631</ele>
        <time>2021-07-19T11:06:05Z</time>
      </trkpt>
      <trkpt lat="45.46246" lon="4.77837">
        <ele>117.27671</ele>
        <time>2021-07-19T11:06:06Z</time>
      </trkpt>
      <trkpt lat="45.46251" lon="4.77842">
        <ele>117.16574</ele>
        <time>2021-07-19T11:06:07Z</time>
      </trkpt>
      <trkpt lat="45.46256" lon="4.77847">
        <ele>117.21858</ele>
        <time>2021-07-19T11:06:08Z</time>
      </trkpt>
      <trkpt lat="45.46261" lon="4.77852">
        <ele>117.11817</ele>
        <time>2021-07-19T11:06:09Z</time>
      </trkpt>
      <trkpt lat="45.46265" lon="4.77856">
        <ele>117.37712</ele>
        <time>2021-07-19T11:06:10Z</time>
      </trkpt>
      <trkpt lat="45.46272" lon="4.77861">
        <ele>117.56209</ele>
        <time>2021-07-19T11:06:11Z</time>
      </trkpt>
      <trkpt lat="45.46277" lon="4.77866">
        <ele>117.287285</ele>
        <time>2021-07-19T11:06:12Z</time>
      </trkpt>
      <trkpt lat="45.46283" lon="4.7787">
        <ele>117.29786</ele>
        <time>2021-07-19T11:06:13Z</time>
      </trkpt>
      <trkpt lat="45.46289" lon="4.77873">
        <ele>117.493385</ele>
        <time>2021-07-19T11:06:14Z</time>
      </trkpt>
      <trkpt lat="45.46295" lon="4.77876">
        <ele>117.577934</ele>
        <time>2021-07-19T11:06:15Z</time>
      </trkpt>
      <trkpt lat="45.46301" lon="4.77878">
        <ele>117.440544</ele>
        <time>2021-07-19T11:06:16Z</time>
      </trkpt>
      <trkpt lat="45.46306" lon="4.77881">
        <ele>117.48282</ele>
        <time>2021-07-19T11:06:17Z</time>
      </trkpt>
      <trkpt lat="45.46312" lon="4.77884">
        <ele>117.42469</ele>
        <time>2021-07-19T11:06:18Z</time>
      </trkpt>
      <trkpt lat="45.46317" lon="4.77887">
        <ele>117.43525</ele>
        <time>2021-07-19T11:06:19Z</time>
      </trkpt>
      <trkpt lat="45.46323" lon="4.7789">
        <ele>117.75233</ele>
        <time>2021-07-19T11:06:20Z</time>
      </trkpt>
      <trkpt lat="45.46329" lon="4.77893">
        <ele>117.5568</ele>
        <time>2021-07-19T11:06:21Z</time>
      </trkpt>
      <trkpt lat="45.46335" lon="4.77895">
        <ele>117.21858</ele>
        <time>2021-07-19T11:06:22Z</time>
      </trkpt>
      <trkpt lat="45.46339" lon="4.77898">
        <ele>117.36655</ele>
        <time>2021-07-19T11:06:23Z</time>
      </trkpt>
      <trkpt lat="45.46345" lon="4.77901">
        <ele>117.25558</ele>
        <time>2021-07-19T11:06:24Z</time>
      </trkpt>
      <trkpt lat="45.46351" lon="4.77904">
        <ele>117.30314</ele>
        <time>2021-07-19T11:06:25Z</time>
      </trkpt>
      <trkpt lat="45.46356" lon="4.77907">
        <ele>117.37712</ele>
        <time>2021-07-19T11:06:26Z</time>
      </trkpt>
      <trkpt lat="45.46361" lon="4.7791">
        <ele>117.14988</ele>
        <time>2021-07-19T11:06:27Z</time>
      </trkpt>
      <trkpt lat="45.46366" lon="4.77913">
        <ele>117.22916</ele>
        <time>2021-07-19T11:06:28Z</time>
      </trkpt>
      <trkpt lat="45.46372" lon="4.77916">
        <ele>117.26086</ele>
        <time>2021-07-19T11:06:29Z</time>
      </trkpt>
      <trkpt lat="45.46377" lon="4.77919">
        <ele>117.4564</ele>
        <time>2021-07-19T11:06:30Z</time>
      </trkpt>
      <trkpt lat="45.46383" lon="4.77923">
        <ele>117.78404</ele>
        <time>2021-07-19T11:06:31Z</time>
      </trkpt>
      <trkpt lat="45.46388" lon="4.77926">
        <ele>117.73647</ele>
        <time>2021-07-19T11:06:32Z</time>
      </trkpt>
      <trkpt lat="45.46394" lon="4.77928">
        <ele>117.519806</ele>
        <time>2021-07-19T11:06:33Z</time>
      </trkpt>
      <trkpt lat="45.46399" lon="4.77929">
        <ele>117.35071</ele>
        <time>2021-07-19T11:06:34Z</time>
      </trkpt>
      <trkpt lat="45.46405" lon="4.77931">
        <ele>117.22387</ele>
        <time>2021-07-19T11:06:35Z</time>
      </trkpt>
      <trkpt lat="45.46411" lon="4.77932">
        <ele>117.20801</ele>
        <time>2021-07-19T11:06:36Z</time>
      </trkpt>
      <trkpt lat="45.46417" lon="4.77932">
        <ele>117.134026</ele>
        <time>2021-07-19T11:06:37Z</time>
      </trkpt>
      <trkpt lat="45.46423" lon="4.77932">
        <ele>116.9385</ele>
        <time>2021-07-19T11:06:38Z</time>
      </trkpt>
      <trkpt lat="45.46428" lon="4.77933">
        <ele>116.906784</ele>
        <time>2021-07-19T11:06:39Z</time>
      </trkpt>
      <trkpt lat="45.46434" lon="4.77935">
        <ele>116.949066</ele>
        <time>2021-07-19T11:06:40Z</time>
      </trkpt>
      <trkpt lat="45.46439" lon="4.77939">
        <ele>116.99134</ele>
        <time>2021-07-19T11:06:41Z</time>
      </trkpt>
      <trkpt lat="45.46444" lon="4.77942">
        <ele>117.4564</ele>
        <time>2021-07-19T11:06:42Z</time>
      </trkpt>
      <trkpt lat="45.46449" lon="4.77944">
        <ele>117.29786</ele>
        <time>2021-07-19T11:06:43Z</time>
      </trkpt>
      <trkpt lat="45.46454" lon="4.77947">
        <ele>117.12347</ele>
        <time>2021-07-19T11:06:44Z</time>
      </trkpt>
      <trkpt lat="45.46459" lon="4.7795">
        <ele>117.11817</ele>
        <time>2021-07-19T11:06:45Z</time>
      </trkpt>
      <trkpt lat="45.46464" lon="4.77951">
        <ele>117.66249</ele>
        <time>2021-07-19T11:06:46Z</time>
      </trkpt>
      <trkpt lat="45.46468" lon="4.77948">
        <ele>117.651924</ele>
        <time>2021-07-19T11:06:47Z</time>
      </trkpt>
      <trkpt lat="45.46473" lon="4.77948">
        <ele>118.23324</ele>
        <time>2021-07-19T11:06:48Z</time>
      </trkpt>
      <trkpt lat="45.46477" lon="4.77947">
        <ele>117.773476</ele>
        <time>2021-07-19T11:06:49Z</time>
      </trkpt>
      <trkpt lat="45.46481" lon="4.77947">
        <ele>116.60556</ele>
        <time>2021-07-19T11:06:50Z</time>
      </trkpt>
      <trkpt lat="45.46484" lon="4.77945">
        <ele>116.410034</ele>
        <time>2021-07-19T11:06:51Z</time>
      </trkpt>
      <trkpt lat="45.46487" lon="4.77941">
        <ele>116.70069</ele>
        <time>2021-07-19T11:06:52Z</time>
      </trkpt>
      <trkpt lat="45.46489" lon="4.77934">
        <ele>117.22916</ele>
        <time>2021-07-19T11:06:53Z</time>
      </trkpt>
      <trkpt lat="45.46491" lon="4.77925">
        <ele>117.30314</ele>
        <time>2021-07-19T11:06:54Z</time>
      </trkpt>
      <trkpt lat="45.46489" lon="4.77915">
        <ele>117.34013</ele>
        <time>2021-07-19T11:06:55Z</time>
      </trkpt>
      <trkpt lat="45.46489" lon="4.77906">
        <ele>117.32428</ele>
        <time>2021-07-19T11:06:56Z</time>
      </trkpt>
      <trkpt lat="45.46489" lon="4.77898">
        <ele>117.35071</ele>
        <time>2021-07-19T11:06:57Z</time>
      </trkpt>
      <trkpt lat="45.46491" lon="4.77891">
        <ele>117.31899</ele>
        <time>2021-07-19T11:06:58Z</time>
      </trkpt>
      <trkpt lat="45.46492" lon="4.77884">
        <ele>117.31899</ele>
        <time>2021-07-19T11:06:59Z</time>
      </trkpt>
      <trkpt lat="45.46493" lon="4.77878">
        <ele>117.419395</ele>
        <time>2021-07-19T11:07:00Z</time>
      </trkpt>
      <trkpt lat="45.46493" lon="4.77872">
        <ele>117.24501</ele>
        <time>2021-07-19T11:07:01Z</time>
      </trkpt>
      <trkpt lat="45.46493" lon="4.77866">
        <ele>117.30842</ele>
        <time>2021-07-19T11:07:02Z</time>
      </trkpt>
      <trkpt lat="45.46494" lon="4.7786">
        <ele>117.58851</ele>
        <time>2021-07-19T11:07:03Z</time>
      </trkpt>
      <trkpt lat="45.46496" lon="4.77856">
        <ele>117.699486</ele>
        <time>2021-07-19T11:07:04Z</time>
      </trkpt>
      <trkpt lat="45.465" lon="4.77851">
        <ele>117.472244</ele>
        <time>2021-07-19T11:07:05Z</time>
      </trkpt>
      <trkpt lat="45.46503" lon="4.77845">
        <ele>117.34013</ele>
        <time>2021-07-19T11:07:06Z</time>
      </trkpt>
      <trkpt lat="45.46507" lon="4.7784">
        <ele>117.6255</ele>
        <time>2021-07-19T11:07:07Z</time>
      </trkpt>
      <trkpt lat="45.4651" lon="4.77835">
        <ele>117.54095</ele>
        <time>2021-07-19T11:07:08Z</time>
      </trkpt>
      <trkpt lat="45.46515" lon="4.77829">
        <ele>117.525085</ele>
        <time>2021-07-19T11:07:09Z</time>
      </trkpt>
      <trkpt lat="45.46518" lon="4.77824">
        <ele>117.46168</ele>
        <time>2021-07-19T11:07:10Z</time>
      </trkpt>
      <trkpt lat="45.46523" lon="4.77818">
        <ele>117.10232</ele>
        <time>2021-07-19T11:07:11Z</time>
      </trkpt>
      <trkpt lat="45.46528" lon="4.77813">
        <ele>117.09704</ele>
        <time>2021-07-19T11:07:12Z</time>
      </trkpt>
      <trkpt lat="45.46532" lon="4.77807">
        <ele>117.16045</ele>
        <time>2021-07-19T11:07:13Z</time>
      </trkpt>
      <trkpt lat="45.46536" lon="4.77801">
        <ele>117.387695</ele>
        <time>2021-07-19T11:07:14Z</time>
      </trkpt>
      <trkpt lat="45.46541" lon="4.77795">
        <ele>117.29786</ele>
        <time>2021-07-19T11:07:15Z</time>
      </trkpt>
      <trkpt lat="45.46545" lon="4.77789">
        <ele>117.09175</ele>
        <time>2021-07-19T11:07:16Z</time>
      </trkpt>
      <trkpt lat="45.46549" lon="4.77783">
        <ele>117.29786</ele>
        <time>2021-07-19T11:07:17Z</time>
      </trkpt>
      <trkpt lat="45.46553" lon="4.77777">
        <ele>117.37712</ele>
        <time>2021-07-19T11:07:18Z</time>
      </trkpt>
      <trkpt lat="45.46558" lon="4.77771">
        <ele>117.292564</ele>
        <time>2021-07-19T11:07:19Z</time>
      </trkpt>
      <trkpt lat="45.46562" lon="4.77766">
        <ele>117.34013</ele>
        <time>2021-07-19T11:07:20Z</time>
      </trkpt>
      <trkpt lat="45.46566" lon="4.7776">
        <ele>117.826324</ele>
        <time>2021-07-19T11:07:21Z</time>
      </trkpt>
      <trkpt lat="45.46569" lon="4.77755">
        <ele>117.725914</ele>
        <time>2021-07-19T11:07:23Z</time>
      </trkpt>
      <trkpt lat="45.46573" lon="4.7775">
        <ele>117.37184</ele>
        <time>2021-07-19T11:07:24Z</time>
      </trkpt>
      <trkpt lat="45.46577" lon="4.77745">
        <ele>117.33485</ele>
        <time>2021-07-19T11:07:24Z</time>
      </trkpt>
      <trkpt lat="45.46581" lon="4.7774">
        <ele>116.616135</ele>
        <time>2021-07-19T11:07:26Z</time>
      </trkpt>
      <trkpt lat="45.46584" lon="4.77736">
        <ele>116.56857</ele>
        <time>2021-07-19T11:07:27Z</time>
      </trkpt>
      <trkpt lat="45.46587" lon="4.77731">
        <ele>116.34663</ele>
        <time>2021-07-19T11:07:28Z</time>
      </trkpt>
      <trkpt lat="45.4659" lon="4.77727">
        <ele>116.30434</ele>
        <time>2021-07-19T11:07:29Z</time>
      </trkpt>
      <trkpt lat="45.46593" lon="4.77723">
        <ele>116.505165</ele>
        <time>2021-07-19T11:07:30Z</time>
      </trkpt>
      <trkpt lat="45.46596" lon="4.77719">
        <ele>116.410034</ele>
        <time>2021-07-19T11:07:31Z</time>
      </trkpt>
      <trkpt lat="45.46599" lon="4.77718">
        <ele>116.330765</ele>
        <time>2021-07-19T11:07:32Z</time>
      </trkpt>
      <trkpt lat="45.46603" lon="4.7772">
        <ele>116.43646</ele>
        <time>2021-07-19T11:07:33Z</time>
      </trkpt>
      <trkpt lat="45.46608" lon="4.77723">
        <ele>116.46288</ele>
        <time>2021-07-19T11:07:34Z</time>
      </trkpt>
      <trkpt lat="45.46612" lon="4.77727">
        <ele>116.72183</ele>
        <time>2021-07-19T11:07:35Z</time>
      </trkpt>
      <trkpt lat="45.46616" lon="4.77733">
        <ele>116.906784</ele>
        <time>2021-07-19T11:07:36Z</time>
      </trkpt>
      <trkpt lat="45.46621" lon="4.77738">
        <ele>116.95435</ele>
        <time>2021-07-19T11:07:37Z</time>
      </trkpt>
      <trkpt lat="45.46625" lon="4.77744">
        <ele>116.82224</ele>
        <time>2021-07-19T11:07:38Z</time>
      </trkpt>
      <trkpt lat="45.4663" lon="4.77751">
        <ele>116.65313</ele>
        <time>2021-07-19T11:07:39Z</time>
      </trkpt>
      <trkpt lat="45.46634" lon="4.77757">
        <ele>116.536865</ele>
        <time>2021-07-19T11:07:40Z</time>
      </trkpt>
      <trkpt lat="45.46639" lon="4.77762">
        <ele>116.53158</ele>
        <time>2021-07-19T11:07:41Z</time>
      </trkpt>
      <trkpt lat="45.46643" lon="4.77768">
        <ele>116.44702</ele>
        <time>2021-07-19T11:07:42Z</time>
      </trkpt>
      <trkpt lat="45.46647" lon="4.77773">
        <ele>116.357185</ele>
        <time>2021-07-19T11:07:43Z</time>
      </trkpt>
      <trkpt lat="45.46652" lon="4.77779">
        <ele>116.27792</ele>
        <time>2021-07-19T11:07:44Z</time>
      </trkpt>
      <trkpt lat="45.46656" lon="4.77784">
        <ele>116.24621</ele>
        <time>2021-07-19T11:07:45Z</time>
      </trkpt>
      <trkpt lat="45.46661" lon="4.7779">
        <ele>116.225075</ele>
        <time>2021-07-19T11:07:46Z</time>
      </trkpt>
      <trkpt lat="45.46665" lon="4.77796">
        <ele>116.330765</ele>
        <time>2021-07-19T11:07:47Z</time>
      </trkpt>
      <trkpt lat="45.46669" lon="4.77803">
        <ele>116.42061</ele>
        <time>2021-07-19T11:07:48Z</time>
      </trkpt>
      <trkpt lat="45.46673" lon="4.77809">
        <ele>116.24093</ele>
        <time>2021-07-19T11:07:49Z</time>
      </trkpt>
      <trkpt lat="45.46677" lon="4.77817">
        <ele>116.26207</ele>
        <time>2021-07-19T11:07:50Z</time>
      </trkpt>
      <trkpt lat="45.46682" lon="4.77824">
        <ele>116.43117</ele>
        <time>2021-07-19T11:07:51Z</time>
      </trkpt>
      <trkpt lat="45.46686" lon="4.77831">
        <ele>116.36776</ele>
        <time>2021-07-19T11:07:52Z</time>
      </trkpt>
      <trkpt lat="45.4669" lon="4.77838">
        <ele>116.510445</ele>
        <time>2021-07-19T11:07:53Z</time>
      </trkpt>
      <trkpt lat="45.46694" lon="4.77845">
        <ele>116.70069</ele>
        <time>2021-07-19T11:07:54Z</time>
      </trkpt>
      <trkpt lat="45.46698" lon="4.77851">
        <ele>116.695404</ele>
        <time>2021-07-19T11:07:55Z</time>
      </trkpt>
      <trkpt lat="45.46702" lon="4.77858">
        <ele>116.55801</ele>
        <time>2021-07-19T11:07:56Z</time>
      </trkpt>
      <trkpt lat="45.46706" lon="4.77863">
        <ele>113.63031</ele>
        <time>2021-07-19T11:07:57Z</time>
      </trkpt>
      <trkpt lat="45.46711" lon="4.77868">
        <ele>115.75474</ele>
        <time>2021-07-19T11:07:58Z</time>
      </trkpt>
      <trkpt lat="45.46715" lon="4.77872">
        <ele>115.98198</ele>
        <time>2021-07-19T11:07:59Z</time>
      </trkpt>
      <trkpt lat="45.46719" lon="4.77876">
        <ele>116.03483</ele>
        <time>2021-07-19T11:08:00Z</time>
      </trkpt>
      <trkpt lat="45.46723" lon="4.77879">
        <ele>116.066536</ele>
        <time>2021-07-19T11:08:01Z</time>
      </trkpt>
      <trkpt lat="45.46728" lon="4.77883">
        <ele>115.85515</ele>
        <time>2021-07-19T11:08:02Z</time>
      </trkpt>
      <trkpt lat="45.46732" lon="4.77887">
        <ele>115.733604</ele>
        <time>2021-07-19T11:08:03Z</time>
      </trkpt>
      <trkpt lat="45.46736" lon="4.77889">
        <ele>115.81287</ele>
        <time>2021-07-19T11:08:04Z</time>
      </trkpt>
      <trkpt lat="45.4674" lon="4.77891">
        <ele>115.633194</ele>
        <time>2021-07-19T11:08:05Z</time>
      </trkpt>
      <trkpt lat="45.46743" lon="4.77893">
        <ele>115.786446</ele>
        <time>2021-07-19T11:08:06Z</time>
      </trkpt>
      <trkpt lat="45.46746" lon="4.77896">
        <ele>116.0771</ele>
        <time>2021-07-19T11:08:07Z</time>
      </trkpt>
      <trkpt lat="45.46747" lon="4.77898">
        <ele>116.2145</ele>
        <time>2021-07-19T11:08:08Z</time>
      </trkpt>
      <trkpt lat="45.46748" lon="4.779">
        <ele>116.43646</ele>
        <time>2021-07-19T11:08:09Z</time>
      </trkpt>
      <trkpt lat="45.46751" lon="4.779">
        <ele>116.60028</ele>
        <time>2021-07-19T11:08:10Z</time>
      </trkpt>
      <trkpt lat="45.46754" lon="4.779">
        <ele>116.91736</ele>
        <time>2021-07-19T11:08:11Z</time>
      </trkpt>
      <trkpt lat="45.46759" lon="4.77899">
        <ele>116.92793</ele>
        <time>2021-07-19T11:08:12Z</time>
      </trkpt>
      <trkpt lat="45.46764" lon="4.77899">
        <ele>116.89093</ele>
        <time>2021-07-19T11:08:13Z</time>
      </trkpt>
      <trkpt lat="45.46768" lon="4.77898">
        <ele>116.89093</ele>
        <time>2021-07-19T11:08:14Z</time>
      </trkpt>
      <trkpt lat="45.46773" lon="4.77897">
        <ele>117.007195</ele>
        <time>2021-07-19T11:08:15Z</time>
      </trkpt>
      <trkpt lat="45.46778" lon="4.77896">
        <ele>117.13932</ele>
        <time>2021-07-19T11:08:16Z</time>
      </trkpt>
      <trkpt lat="45.46782" lon="4.77894">
        <ele>117.13932</ele>
        <time>2021-07-19T11:08:17Z</time>
      </trkpt>
      <trkpt lat="45.46787" lon="4.77892">
        <ele>117.30314</ele>
        <time>2021-07-19T11:08:18Z</time>
      </trkpt>
      <trkpt lat="45.46792" lon="4.77891">
        <ele>117.49867</ele>
        <time>2021-07-19T11:08:19Z</time>
      </trkpt>
      <trkpt lat="45.46797" lon="4.77891">
        <ele>117.61494</ele>
        <time>2021-07-19T11:08:20Z</time>
      </trkpt>
      <trkpt lat="45.46804" lon="4.77889">
        <ele>117.25029</ele>
        <time>2021-07-19T11:08:21Z</time>
      </trkpt>
      <trkpt lat="45.46811" lon="4.77888">
        <ele>117.234436</ele>
        <time>2021-07-19T11:08:22Z</time>
      </trkpt>
      <trkpt lat="45.46817" lon="4.77887">
        <ele>117.493385</ele>
        <time>2021-07-19T11:08:23Z</time>
      </trkpt>
      <trkpt lat="45.46822" lon="4.77886">
        <ele>117.29786</ele>
        <time>2021-07-19T11:08:24Z</time>
      </trkpt>
      <trkpt lat="45.46828" lon="4.77885">
        <ele>117.22916</ele>
        <time>2021-07-19T11:08:25Z</time>
      </trkpt>
      <trkpt lat="45.46834" lon="4.77884">
        <ele>117.64136</ele>
        <time>2021-07-19T11:08:26Z</time>
      </trkpt>
      <trkpt lat="45.4684" lon="4.77884">
        <ele>117.94258</ele>
        <time>2021-07-19T11:08:27Z</time>
      </trkpt>
      <trkpt lat="45.46845" lon="4.77883">
        <ele>117.83688</ele>
        <time>2021-07-19T11:08:28Z</time>
      </trkpt>
      <trkpt lat="45.46851" lon="4.77882">
        <ele>117.43525</ele>
        <time>2021-07-19T11:08:29Z</time>
      </trkpt>
      <trkpt lat="45.46856" lon="4.77881">
        <ele>117.16045</ele>
        <time>2021-07-19T11:08:30Z</time>
      </trkpt>
      <trkpt lat="45.46862" lon="4.7788">
        <ele>117.14988</ele>
        <time>2021-07-19T11:08:31Z</time>
      </trkpt>
      <trkpt lat="45.46867" lon="4.77878">
        <ele>117.30842</ele>
        <time>2021-07-19T11:08:32Z</time>
      </trkpt>
      <trkpt lat="45.46873" lon="4.77877">
        <ele>117.17631</ele>
        <time>2021-07-19T11:08:33Z</time>
      </trkpt>
      <trkpt lat="45.46878" lon="4.77876">
        <ele>117.06004</ele>
        <time>2021-07-19T11:08:34Z</time>
      </trkpt>
      <trkpt lat="45.46884" lon="4.77875">
        <ele>117.234436</ele>
        <time>2021-07-19T11:08:35Z</time>
      </trkpt>
      <trkpt lat="45.4689" lon="4.77874">
        <ele>117.25558</ele>
        <time>2021-07-19T11:08:36Z</time>
      </trkpt>
      <trkpt lat="45.46897" lon="4.77873">
        <ele>117.14988</ele>
        <time>2021-07-19T11:08:37Z</time>
      </trkpt>
      <trkpt lat="45.46903" lon="4.77872">
        <ele>116.95435</ele>
        <time>2021-07-19T11:08:38Z</time>
      </trkpt>
      <trkpt lat="45.46909" lon="4.77871">
        <ele>116.89093</ele>
        <time>2021-07-19T11:08:39Z</time>
      </trkpt>
      <trkpt lat="45.46914" lon="4.77869">
        <ele>117.03891</ele>
        <time>2021-07-19T11:08:40Z</time>
      </trkpt>
      <trkpt lat="45.4692" lon="4.77867">
        <ele>117.33485</ele>
        <time>2021-07-19T11:08:41Z</time>
      </trkpt>
      <trkpt lat="45.46925" lon="4.77867">
        <ele>117.01777</ele>
        <time>2021-07-19T11:08:42Z</time>
      </trkpt>
      <trkpt lat="45.46931" lon="4.77866">
        <ele>117.08647</ele>
        <time>2021-07-19T11:08:43Z</time>
      </trkpt>
      <trkpt lat="45.46936" lon="4.77865">
        <ele>117.07062</ele>
        <time>2021-07-19T11:08:44Z</time>
      </trkpt>
      <trkpt lat="45.46941" lon="4.77865">
        <ele>116.901505</ele>
        <time>2021-07-19T11:08:45Z</time>
      </trkpt>
      <trkpt lat="45.46947" lon="4.77864">
        <ele>116.81695</ele>
        <time>2021-07-19T11:08:46Z</time>
      </trkpt>
      <trkpt lat="45.46952" lon="4.77863">
        <ele>116.91208</ele>
        <time>2021-07-19T11:08:47Z</time>
      </trkpt>
      <trkpt lat="45.46958" lon="4.77862">
        <ele>117.16574</ele>
        <time>2021-07-19T11:08:48Z</time>
      </trkpt>
      <trkpt lat="45.46964" lon="4.77861">
        <ele>117.22387</ele>
        <time>2021-07-19T11:08:49Z</time>
      </trkpt>
      <trkpt lat="45.46969" lon="4.7786">
        <ele>117.27671</ele>
        <time>2021-07-19T11:08:50Z</time>
      </trkpt>
      <trkpt lat="45.46973" lon="4.77859">
        <ele>116.91736</ele>
        <time>2021-07-19T11:08:51Z</time>
      </trkpt>
      <trkpt lat="45.46978" lon="4.77857">
        <ele>116.79053</ele>
        <time>2021-07-19T11:08:52Z</time>
      </trkpt>
      <trkpt lat="45.46982" lon="4.77853">
        <ele>116.71126</ele>
        <time>2021-07-19T11:08:53Z</time>
      </trkpt>
      <trkpt lat="45.46986" lon="4.77849">
        <ele>116.737686</ele>
        <time>2021-07-19T11:08:54Z</time>
      </trkpt>
      <trkpt lat="45.46988" lon="4.77844">
        <ele>116.95435</ele>
        <time>2021-07-19T11:08:55Z</time>
      </trkpt>
      <trkpt lat="45.46992" lon="4.77839">
        <ele>117.38241</ele>
        <time>2021-07-19T11:08:56Z</time>
      </trkpt>
      <trkpt lat="45.46997" lon="4.77835">
        <ele>117.572655</ele>
        <time>2021-07-19T11:08:57Z</time>
      </trkpt>
      <trkpt lat="45.47001" lon="4.77831">
        <ele>117.55151</ele>
        <time>2021-07-19T11:08:58Z</time>
      </trkpt>
      <trkpt lat="45.47005" lon="4.77826">
        <ele>117.4564</ele>
        <time>2021-07-19T11:08:59Z</time>
      </trkpt>
      <trkpt lat="45.47009" lon="4.77821">
        <ele>117.525085</ele>
        <time>2021-07-19T11:09:00Z</time>
      </trkpt>
      <trkpt lat="45.47013" lon="4.77816">
        <ele>117.60964</ele>
        <time>2021-07-19T11:09:01Z</time>
      </trkpt>
      <trkpt lat="45.47017" lon="4.7781">
        <ele>117.78404</ele>
        <time>2021-07-19T11:09:02Z</time>
      </trkpt>
      <trkpt lat="45.47021" lon="4.77804">
        <ele>117.75762</ele>
        <time>2021-07-19T11:09:03Z</time>
      </trkpt>
      <trkpt lat="45.47026" lon="4.77798">
        <ele>118.1064</ele>
        <time>2021-07-19T11:09:04Z</time>
      </trkpt>
      <trkpt lat="45.47029" lon="4.77793">
        <ele>117.78404</ele>
        <time>2021-07-19T11:09:05Z</time>
      </trkpt>
      <trkpt lat="45.47033" lon="4.77788">
        <ele>117.73119</ele>
        <time>2021-07-19T11:09:06Z</time>
      </trkpt>
      <trkpt lat="45.47037" lon="4.77783">
        <ele>117.826324</ele>
        <time>2021-07-19T11:09:07Z</time>
      </trkpt>
      <trkpt lat="45.47041" lon="4.77779">
        <ele>117.678345</ele>
        <time>2021-07-19T11:09:08Z</time>
      </trkpt>
      <trkpt lat="45.47044" lon="4.77775">
        <ele>117.64664</ele>
        <time>2021-07-19T11:09:09Z</time>
      </trkpt>
      <trkpt lat="45.47047" lon="4.7777">
        <ele>117.805176</ele>
        <time>2021-07-19T11:09:10Z</time>
      </trkpt>
      <trkpt lat="45.47051" lon="4.77765">
        <ele>117.71534</ele>
        <time>2021-07-19T11:09:11Z</time>
      </trkpt>
      <trkpt lat="45.47054" lon="4.7776">
        <ele>117.773476</ele>
        <time>2021-07-19T11:09:12Z</time>
      </trkpt>
      <trkpt lat="45.47056" lon="4.77756">
        <ele>117.89501</ele>
        <time>2021-07-19T11:09:13Z</time>
      </trkpt>
      <trkpt lat="45.47059" lon="4.77752">
        <ele>118.0747</ele>
        <time>2021-07-19T11:09:14Z</time>
      </trkpt>
      <trkpt lat="45.47062" lon="4.77748">
        <ele>117.963715</ele>
        <time>2021-07-19T11:09:15Z</time>
      </trkpt>
      <trkpt lat="45.47065" lon="4.77746">
        <ele>118.12225</ele>
        <time>2021-07-19T11:09:16Z</time>
      </trkpt>
      <trkpt lat="45.47069" lon="4.77744">
        <ele>118.13283</ele>
        <time>2021-07-19T11:09:17Z</time>
      </trkpt>
      <trkpt lat="45.47071" lon="4.77744">
        <ele>118.04827</ele>
        <time>2021-07-19T11:09:18Z</time>
      </trkpt>
      <trkpt lat="45.47074" lon="4.77744">
        <ele>118.190956</ele>
        <time>2021-07-19T11:09:19Z</time>
      </trkpt>
      <trkpt lat="45.47076" lon="4.77746">
        <ele>118.43933</ele>
        <time>2021-07-19T11:09:20Z</time>
      </trkpt>
      <trkpt lat="45.47078" lon="4.7775">
        <ele>118.222664</ele>
        <time>2021-07-19T11:09:21Z</time>
      </trkpt>
      <trkpt lat="45.4708" lon="4.77754">
        <ele>118.39706</ele>
        <time>2021-07-19T11:09:22Z</time>
      </trkpt>
      <trkpt lat="45.47081" lon="4.77757">
        <ele>118.444626</ele>
        <time>2021-07-19T11:09:23Z</time>
      </trkpt>
      <trkpt lat="45.47083" lon="4.77761">
        <ele>118.14868</ele>
        <time>2021-07-19T11:09:24Z</time>
      </trkpt>
      <trkpt lat="45.47085" lon="4.77764">
        <ele>118.20681</ele>
        <time>2021-07-19T11:09:25Z</time>
      </trkpt>
      <trkpt lat="45.47086" lon="4.77767">
        <ele>118.50803</ele>
        <time>2021-07-19T11:09:26Z</time>
      </trkpt>
      <trkpt lat="45.47088" lon="4.7777">
        <ele>118.46048</ele>
        <time>2021-07-19T11:09:27Z</time>
      </trkpt>
      <trkpt lat="45.47088" lon="4.77771">
        <ele>118.37592</ele>
        <time>2021-07-19T11:09:28Z</time>
      </trkpt>
      <trkpt lat="45.47089" lon="4.77772">
        <ele>118.28079</ele>
        <time>2021-07-19T11:09:29Z</time>
      </trkpt>
      <trkpt lat="45.47087" lon="4.77771">
        <ele>118.26494</ele>
        <time>2021-07-19T11:09:30Z</time>
      </trkpt>
      <trkpt lat="45.47088" lon="4.77771">
        <ele>118.323074</ele>
        <time>2021-07-19T11:09:31Z</time>
      </trkpt>
      <trkpt lat="45.47088" lon="4.77772">
        <ele>118.28609</ele>
        <time>2021-07-19T11:09:32Z</time>
      </trkpt>
      <trkpt lat="45.47088" lon="4.77774">
        <ele>118.25437</ele>
        <time>2021-07-19T11:09:33Z</time>
      </trkpt>
      <trkpt lat="45.47089" lon="4.77773">
        <ele>118.064125</ele>
        <time>2021-07-19T11:09:34Z</time>
      </trkpt>
      <trkpt lat="45.47091" lon="4.77772">
        <ele>118.19624</ele>
        <time>2021-07-19T11:09:35Z</time>
      </trkpt>
      <trkpt lat="45.47092" lon="4.77771">
        <ele>118.28609</ele>
        <time>2021-07-19T11:09:36Z</time>
      </trkpt>
      <trkpt lat="45.47094" lon="4.7777">
        <ele>118.28609</ele>
        <time>2021-07-19T11:09:37Z</time>
      </trkpt>
      <trkpt lat="45.47099" lon="4.77768">
        <ele>118.217384</ele>
        <time>2021-07-19T11:09:38Z</time>
      </trkpt>
      <trkpt lat="45.47102" lon="4.77766">
        <ele>118.502754</ele>
        <time>2021-07-19T11:09:39Z</time>
      </trkpt>
      <trkpt lat="45.47107" lon="4.77764">
        <ele>118.51861</ele>
        <time>2021-07-19T11:09:40Z</time>
      </trkpt>
      <trkpt lat="45.47111" lon="4.77762">
        <ele>118.54503</ele>
        <time>2021-07-19T11:09:41Z</time>
      </trkpt>
      <trkpt lat="45.47114" lon="4.7776">
        <ele>118.740555</ele>
        <time>2021-07-19T11:09:42Z</time>
      </trkpt>
      <trkpt lat="45.47117" lon="4.77758">
        <ele>119.05763</ele>
        <time>2021-07-19T11:09:43Z</time>
      </trkpt>
      <trkpt lat="45.4712" lon="4.77755">
        <ele>119.1739</ele>
        <time>2021-07-19T11:09:44Z</time>
      </trkpt>
      <trkpt lat="45.47123" lon="4.77754">
        <ele>119.3483</ele>
        <time>2021-07-19T11:09:45Z</time>
      </trkpt>
      <trkpt lat="45.47125" lon="4.77752">
        <ele>119.5544</ele>
        <time>2021-07-19T11:09:46Z</time>
      </trkpt>
      <trkpt lat="45.47129" lon="4.77749">
        <ele>119.871475</ele>
        <time>2021-07-19T11:09:47Z</time>
      </trkpt>
      <trkpt lat="45.47132" lon="4.77747">
        <ele>119.89262</ele>
        <time>2021-07-19T11:09:48Z</time>
      </trkpt>
      <trkpt lat="45.47136" lon="4.77747">
        <ele>120.02473</ele>
        <time>2021-07-19T11:09:49Z</time>
      </trkpt>
      <trkpt lat="45.47139" lon="4.77751">
        <ele>119.98245</ele>
        <time>2021-07-19T11:09:50Z</time>
      </trkpt>
      <trkpt lat="45.47142" lon="4.77755">
        <ele>119.93488</ele>
        <time>2021-07-19T11:09:51Z</time>
      </trkpt>
      <trkpt lat="45.47146" lon="4.77758">
        <ele>119.956024</ele>
        <time>2021-07-19T11:09:52Z</time>
      </trkpt>
      <trkpt lat="45.47149" lon="4.7776">
        <ele>119.897896</ele>
        <time>2021-07-19T11:09:53Z</time>
      </trkpt>
      <trkpt lat="45.47154" lon="4.77764">
        <ele>119.612526</ele>
        <time>2021-07-19T11:09:54Z</time>
      </trkpt>
      <trkpt lat="45.47157" lon="4.77768">
        <ele>119.45399</ele>
        <time>2021-07-19T11:09:55Z</time>
      </trkpt>
      <trkpt lat="45.47161" lon="4.77771">
        <ele>119.49626</ele>
        <time>2021-07-19T11:09:56Z</time>
      </trkpt>
      <trkpt lat="45.47165" lon="4.77773">
        <ele>119.37471</ele>
        <time>2021-07-19T11:09:57Z</time>
      </trkpt>
      <trkpt lat="45.47167" lon="4.77775">
        <ele>119.390564</ele>
        <time>2021-07-19T11:09:58Z</time>
      </trkpt>
      <trkpt lat="45.47169" lon="4.77776">
        <ele>119.232025</ele>
        <time>2021-07-19T11:09:59Z</time>
      </trkpt>
      <trkpt lat="45.47172" lon="4.77777">
        <ele>119.25845</ele>
        <time>2021-07-19T11:10:00Z</time>
      </trkpt>
      <trkpt lat="45.47173" lon="4.77777">
        <ele>119.21617</ele>
        <time>2021-07-19T11:10:01Z</time>
      </trkpt>
      <trkpt lat="45.47175" lon="4.77778">
        <ele>119.43813</ele>
        <time>2021-07-19T11:10:02Z</time>
      </trkpt>
      <trkpt lat="45.47178" lon="4.77779">
        <ele>119.485695</ele>
        <time>2021-07-19T11:10:03Z</time>
      </trkpt>
      <trkpt lat="45.47182" lon="4.77782">
        <ele>119.48041</ele>
        <time>2021-07-19T11:10:04Z</time>
      </trkpt>
      <trkpt lat="45.47185" lon="4.77785">
        <ele>119.54382</ele>
        <time>2021-07-19T11:10:05Z</time>
      </trkpt>
      <trkpt lat="45.47187" lon="4.77788">
        <ele>119.53325</ele>
        <time>2021-07-19T11:10:06Z</time>
      </trkpt>
      <trkpt lat="45.4719" lon="4.77789">
        <ele>119.52269</ele>
        <time>2021-07-19T11:10:07Z</time>
      </trkpt>
      <trkpt lat="45.47192" lon="4.77791">
        <ele>119.43285</ele>
        <time>2021-07-19T11:10:08Z</time>
      </trkpt>
      <trkpt lat="45.47194" lon="4.77794">
        <ele>119.0365</ele>
        <time>2021-07-19T11:10:09Z</time>
      </trkpt>
      <trkpt lat="45.47196" lon="4.77798">
        <ele>118.9678</ele>
        <time>2021-07-19T11:10:10Z</time>
      </trkpt>
      <trkpt lat="45.47201" lon="4.77802">
        <ele>118.76698</ele>
        <time>2021-07-19T11:10:11Z</time>
      </trkpt>
      <trkpt lat="45.47206" lon="4.77805">
        <ele>118.634865</ele>
        <time>2021-07-19T11:10:12Z</time>
      </trkpt>
      <trkpt lat="45.47212" lon="4.77809">
        <ele>118.4182</ele>
        <time>2021-07-19T11:10:13Z</time>
      </trkpt>
      <trkpt lat="45.47219" lon="4.77813">
        <ele>118.10112</ele>
        <time>2021-07-19T11:10:14Z</time>
      </trkpt>
      <trkpt lat="45.47225" lon="4.77818">
        <ele>117.958435</ele>
        <time>2021-07-19T11:10:15Z</time>
      </trkpt>
      <trkpt lat="45.47231" lon="4.77823">
        <ele>117.63607</ele>
        <time>2021-07-19T11:10:16Z</time>
      </trkpt>
      <trkpt lat="45.47236" lon="4.77827">
        <ele>116.93321</ele>
        <time>2021-07-19T11:10:17Z</time>
      </trkpt>
      <trkpt lat="45.47241" lon="4.77831">
        <ele>116.64785</ele>
        <time>2021-07-19T11:10:18Z</time>
      </trkpt>
      <trkpt lat="45.47245" lon="4.77834">
        <ele>116.11409</ele>
        <time>2021-07-19T11:10:19Z</time>
      </trkpt>
      <trkpt lat="45.47248" lon="4.77837">
        <ele>115.72303</ele>
        <time>2021-07-19T11:10:20Z</time>
      </trkpt>
      <trkpt lat="45.4725" lon="4.77839">
        <ele>115.61205</ele>
        <time>2021-07-19T11:10:21Z</time>
      </trkpt>
      <trkpt lat="45.47252" lon="4.77839">
        <ele>115.67547</ele>
        <time>2021-07-19T11:10:22Z</time>
      </trkpt>
      <trkpt lat="45.47253" lon="4.7784">
        <ele>115.81816</ele>
        <time>2021-07-19T11:10:23Z</time>
      </trkpt>
      <trkpt lat="45.47254" lon="4.7784">
        <ele>115.95027</ele>
        <time>2021-07-19T11:10:24Z</time>
      </trkpt>
      <trkpt lat="45.47255" lon="4.7784">
        <ele>115.99783</ele>
        <time>2021-07-19T11:10:25Z</time>
      </trkpt>
      <trkpt lat="45.47257" lon="4.77842">
        <ele>115.92385</ele>
        <time>2021-07-19T11:10:26Z</time>
      </trkpt>
      <trkpt lat="45.4726" lon="4.77843">
        <ele>116.151085</ele>
        <time>2021-07-19T11:10:27Z</time>
      </trkpt>
      <trkpt lat="45.47263" lon="4.77845">
        <ele>116.2832</ele>
        <time>2021-07-19T11:10:28Z</time>
      </trkpt>
      <trkpt lat="45.47266" lon="4.77848">
        <ele>116.18279</ele>
        <time>2021-07-19T11:10:29Z</time>
      </trkpt>
      <trkpt lat="45.47268" lon="4.7785">
        <ele>116.02954</ele>
        <time>2021-07-19T11:10:30Z</time>
      </trkpt>
      <trkpt lat="45.47271" lon="4.77852">
        <ele>116.09296</ele>
        <time>2021-07-19T11:10:31Z</time>
      </trkpt>
      <trkpt lat="45.47276" lon="4.77854">
        <ele>116.08767</ele>
        <time>2021-07-19T11:10:32Z</time>
      </trkpt>
      <trkpt lat="45.47281" lon="4.77856">
        <ele>116.29378</ele>
        <time>2021-07-19T11:10:33Z</time>
      </trkpt>
      <trkpt lat="45.47287" lon="4.77859">
        <ele>116.27263</ele>
        <time>2021-07-19T11:10:34Z</time>
      </trkpt>
      <trkpt lat="45.47292" lon="4.77862">
        <ele>116.119385</ele>
        <time>2021-07-19T11:10:35Z</time>
      </trkpt>
      <trkpt lat="45.47297" lon="4.77865">
        <ele>116.098236</ele>
        <time>2021-07-19T11:10:36Z</time>
      </trkpt>
      <trkpt lat="45.47301" lon="4.77868">
        <ele>116.14052</ele>
        <time>2021-07-19T11:10:37Z</time>
      </trkpt>
      <trkpt lat="45.47308" lon="4.77871">
        <ele>116.1458</ele>
        <time>2021-07-19T11:10:38Z</time>
      </trkpt>
      <trkpt lat="45.47313" lon="4.77874">
        <ele>116.18279</ele>
        <time>2021-07-19T11:10:39Z</time>
      </trkpt>
      <trkpt lat="45.4732" lon="4.77876">
        <ele>116.26735</ele>
        <time>2021-07-19T11:10:40Z</time>
      </trkpt>
      <trkpt lat="45.47325" lon="4.77878">
        <ele>116.34133</ele>
        <time>2021-07-19T11:10:41Z</time>
      </trkpt>
      <trkpt lat="45.47329" lon="4.7788">
        <ele>116.28848</ele>
        <time>2021-07-19T11:10:42Z</time>
      </trkpt>
      <trkpt lat="45.47331" lon="4.77881">
        <ele>116.19865</ele>
        <time>2021-07-19T11:10:43Z</time>
      </trkpt>
      <trkpt lat="45.47333" lon="4.77882">
        <ele>116.2145</ele>
        <time>2021-07-19T11:10:44Z</time>
      </trkpt>
      <trkpt lat="45.47335" lon="4.77884">
        <ele>116.19337</ele>
        <time>2021-07-19T11:10:45Z</time>
      </trkpt>
      <trkpt lat="45.47336" lon="4.77886">
        <ele>116.21979</ele>
        <time>2021-07-19T11:10:46Z</time>
      </trkpt>
      <trkpt lat="45.47336" lon="4.77887">
        <ele>116.30434</ele>
        <time>2021-07-19T11:10:47Z</time>
      </trkpt>
      <trkpt lat="45.47337" lon="4.77887">
        <ele>116.48402</ele>
        <time>2021-07-19T11:10:48Z</time>
      </trkpt>
      <trkpt lat="45.47338" lon="4.77887">
        <ele>116.58443</ele>
        <time>2021-07-19T11:10:49Z</time>
      </trkpt>
      <trkpt lat="45.4734" lon="4.77885">
        <ele>116.716545</ele>
        <time>2021-07-19T11:10:50Z</time>
      </trkpt>
      <trkpt lat="45.47342" lon="4.77885">
        <ele>116.769394</ele>
        <time>2021-07-19T11:10:51Z</time>
      </trkpt>
      <trkpt lat="45.47347" lon="4.77887">
        <ele>116.8328</ele>
        <time>2021-07-19T11:10:52Z</time>
      </trkpt>
      <trkpt lat="45.47351" lon="4.77888">
        <ele>116.737686</ele>
        <time>2021-07-19T11:10:53Z</time>
      </trkpt>
      <trkpt lat="45.47355" lon="4.77889">
        <ele>116.88037</ele>
        <time>2021-07-19T11:10:54Z</time>
      </trkpt>
      <trkpt lat="45.47359" lon="4.7789">
        <ele>116.85394</ele>
        <time>2021-07-19T11:10:55Z</time>
      </trkpt>
      <trkpt lat="45.47363" lon="4.77894">
        <ele>116.83809</ele>
        <time>2021-07-19T11:10:56Z</time>
      </trkpt>
      <trkpt lat="45.47368" lon="4.77899">
        <ele>116.843376</ele>
        <time>2021-07-19T11:10:57Z</time>
      </trkpt>
      <trkpt lat="45.47372" lon="4.77901">
        <ele>116.742966</ele>
        <time>2021-07-19T11:10:58Z</time>
      </trkpt>
      <trkpt lat="45.47375" lon="4.77903">
        <ele>116.81167</ele>
        <time>2021-07-19T11:10:59Z</time>
      </trkpt>
      <trkpt lat="45.47379" lon="4.77905">
        <ele>116.98078</ele>
        <time>2021-07-19T11:11:00Z</time>
      </trkpt>
      <trkpt lat="45.47384" lon="4.77908">
        <ele>116.748245</ele>
        <time>2021-07-19T11:11:01Z</time>
      </trkpt>
      <trkpt lat="45.47388" lon="4.7791">
        <ele>116.69012</ele>
        <time>2021-07-19T11:11:02Z</time>
      </trkpt>
      <trkpt lat="45.47392" lon="4.77912">
        <ele>116.6267</ele>
        <time>2021-07-19T11:11:03Z</time>
      </trkpt>
      <trkpt lat="45.47398" lon="4.77914">
        <ele>116.79053</ele>
        <time>2021-07-19T11:11:04Z</time>
      </trkpt>
      <trkpt lat="45.47402" lon="4.77916">
        <ele>116.457596</ele>
        <time>2021-07-19T11:11:05Z</time>
      </trkpt>
      <trkpt lat="45.47406" lon="4.77918">
        <ele>116.38889</ele>
        <time>2021-07-19T11:11:06Z</time>
      </trkpt>
      <trkpt lat="45.47409" lon="4.77919">
        <ele>116.30434</ele>
        <time>2021-07-19T11:11:07Z</time>
      </trkpt>
      <trkpt lat="45.47412" lon="4.77921">
        <ele>116.119385</ele>
        <time>2021-07-19T11:11:08Z</time>
      </trkpt>
      <trkpt lat="45.47414" lon="4.77923">
        <ele>115.95027</ele>
        <time>2021-07-19T11:11:09Z</time>
      </trkpt>
      <trkpt lat="45.47418" lon="4.77926">
        <ele>115.84986</ele>
        <time>2021-07-19T11:11:10Z</time>
      </trkpt>
      <trkpt lat="45.47422" lon="4.7793">
        <ele>115.56977</ele>
        <time>2021-07-19T11:11:11Z</time>
      </trkpt>
      <trkpt lat="45.47424" lon="4.77934">
        <ele>115.48522</ele>
        <time>2021-07-19T11:11:12Z</time>
      </trkpt>
      <trkpt lat="45.47425" lon="4.77937">
        <ele>115.49579</ele>
        <time>2021-07-19T11:11:13Z</time>
      </trkpt>
      <trkpt lat="45.47427" lon="4.77939">
        <ele>115.50636</ele>
        <time>2021-07-19T11:11:14Z</time>
      </trkpt>
      <trkpt lat="45.47427" lon="4.7794">
        <ele>115.54864</ele>
        <time>2021-07-19T11:11:15Z</time>
      </trkpt>
      <trkpt lat="45.47429" lon="4.77941">
        <ele>115.347824</ele>
        <time>2021-07-19T11:11:16Z</time>
      </trkpt>
      <trkpt lat="45.47431" lon="4.77943">
        <ele>115.49051</ele>
        <time>2021-07-19T11:11:17Z</time>
      </trkpt>
      <trkpt lat="45.47435" lon="4.77946">
        <ele>115.41653</ele>
        <time>2021-07-19T11:11:18Z</time>
      </trkpt>
      <trkpt lat="45.47438" lon="4.77949">
        <ele>115.633194</ele>
        <time>2021-07-19T11:11:19Z</time>
      </trkpt>
      <trkpt lat="45.47444" lon="4.7795">
        <ele>115.50108</ele>
        <time>2021-07-19T11:11:20Z</time>
      </trkpt>
      <trkpt lat="45.47448" lon="4.77952">
        <ele>115.395386</ele>
        <time>2021-07-19T11:11:21Z</time>
      </trkpt>
      <trkpt lat="45.4745" lon="4.77954">
        <ele>115.41123</ele>
        <time>2021-07-19T11:11:22Z</time>
      </trkpt>
      <trkpt lat="45.47454" lon="4.77957">
        <ele>115.48522</ele>
        <time>2021-07-19T11:11:23Z</time>
      </trkpt>
      <trkpt lat="45.47458" lon="4.7796">
        <ele>115.51164</ele>
        <time>2021-07-19T11:11:24Z</time>
      </trkpt>
      <trkpt lat="45.47464" lon="4.77964">
        <ele>115.61734</ele>
        <time>2021-07-19T11:11:25Z</time>
      </trkpt>
      <trkpt lat="45.47467" lon="4.77968">
        <ele>115.633194</ele>
        <time>2021-07-19T11:11:26Z</time>
      </trkpt>
      <trkpt lat="45.47471" lon="4.77971">
        <ele>115.67547</ele>
        <time>2021-07-19T11:11:27Z</time>
      </trkpt>
      <trkpt lat="45.47474" lon="4.77974">
        <ele>115.733604</ele>
        <time>2021-07-19T11:11:28Z</time>
      </trkpt>
      <trkpt lat="45.47479" lon="4.77977">
        <ele>115.760025</ele>
        <time>2021-07-19T11:11:29Z</time>
      </trkpt>
      <trkpt lat="45.47483" lon="4.7798">
        <ele>115.71246</ele>
        <time>2021-07-19T11:11:30Z</time>
      </trkpt>
      <trkpt lat="45.47488" lon="4.77982">
        <ele>115.760025</ele>
        <time>2021-07-19T11:11:31Z</time>
      </trkpt>
      <trkpt lat="45.47493" lon="4.77985">
        <ele>115.680756</ele>
        <time>2021-07-19T11:11:32Z</time>
      </trkpt>
      <trkpt lat="45.47497" lon="4.77988">
        <ele>115.79701</ele>
        <time>2021-07-19T11:11:33Z</time>
      </trkpt>
      <trkpt lat="45.47501" lon="4.7799">
        <ele>115.88685</ele>
        <time>2021-07-19T11:11:34Z</time>
      </trkpt>
      <trkpt lat="45.47506" lon="4.77994">
        <ele>115.91328</ele>
        <time>2021-07-19T11:11:35Z</time>
      </trkpt>
      <trkpt lat="45.47511" lon="4.77998">
        <ele>115.95027</ele>
        <time>2021-07-19T11:11:36Z</time>
      </trkpt>
      <trkpt lat="45.47516" lon="4.78002">
        <ele>116.02954</ele>
        <time>2021-07-19T11:11:37Z</time>
      </trkpt>
      <trkpt lat="45.47521" lon="4.78005">
        <ele>115.966125</ele>
        <time>2021-07-19T11:11:38Z</time>
      </trkpt>
      <trkpt lat="45.47525" lon="4.78009">
        <ele>115.89742</ele>
        <time>2021-07-19T11:11:39Z</time>
      </trkpt>
      <trkpt lat="45.47528" lon="4.78012">
        <ele>115.871</ele>
        <time>2021-07-19T11:11:40Z</time>
      </trkpt>
      <trkpt lat="45.47532" lon="4.78017">
        <ele>115.9397</ele>
        <time>2021-07-19T11:11:41Z</time>
      </trkpt>
      <trkpt lat="45.47536" lon="4.7802">
        <ele>116.024254</ele>
        <time>2021-07-19T11:11:42Z</time>
      </trkpt>
      <trkpt lat="45.47539" lon="4.78023">
        <ele>116.18808</ele>
        <time>2021-07-19T11:11:43Z</time>
      </trkpt>
      <trkpt lat="45.47542" lon="4.78024">
        <ele>116.2145</ele>
        <time>2021-07-19T11:11:44Z</time>
      </trkpt>
      <trkpt lat="45.47545" lon="4.78024">
        <ele>116.18279</ele>
        <time>2021-07-19T11:11:45Z</time>
      </trkpt>
      <trkpt lat="45.47548" lon="4.78024">
        <ele>116.3202</ele>
        <time>2021-07-19T11:11:46Z</time>
      </trkpt>
      <trkpt lat="45.4755" lon="4.78024">
        <ele>116.30434</ele>
        <time>2021-07-19T11:11:47Z</time>
      </trkpt>
      <trkpt lat="45.47552" lon="4.78024">
        <ele>116.2832</ele>
        <time>2021-07-19T11:11:48Z</time>
      </trkpt>
      <trkpt lat="45.47551" lon="4.78025">
        <ele>116.23564</ele>
        <time>2021-07-19T11:11:49Z</time>
      </trkpt>
      <trkpt lat="45.47552" lon="4.78024">
        <ele>116.27263</ele>
        <time>2021-07-19T11:11:50Z</time>
      </trkpt>
      <trkpt lat="45.47553" lon="4.78025">
        <ele>116.251495</ele>
        <time>2021-07-19T11:11:51Z</time>
      </trkpt>
      <trkpt lat="45.47554" lon="4.78026">
        <ele>116.1458</ele>
        <time>2021-07-19T11:11:52Z</time>
      </trkpt>
      <trkpt lat="45.47556" lon="4.78027">
        <ele>116.151085</ele>
        <time>2021-07-19T11:11:53Z</time>
      </trkpt>
      <trkpt lat="45.47557" lon="4.78027">
        <ele>116.02954</ele>
        <time>2021-07-19T11:11:54Z</time>
      </trkpt>
      <trkpt lat="45.47558" lon="4.78029">
        <ele>115.9397</ele>
        <time>2021-07-19T11:11:55Z</time>
      </trkpt>
      <trkpt lat="45.47559" lon="4.7803">
        <ele>115.72831</ele>
        <time>2021-07-19T11:11:56Z</time>
      </trkpt>
      <trkpt lat="45.4756" lon="4.78032">
        <ele>115.59092</ele>
        <time>2021-07-19T11:11:57Z</time>
      </trkpt>
      <trkpt lat="45.47561" lon="4.78035">
        <ele>115.51693</ele>
        <time>2021-07-19T11:11:58Z</time>
      </trkpt>
      <trkpt lat="45.47562" lon="4.78038">
        <ele>115.49051</ele>
        <time>2021-07-19T11:11:59Z</time>
      </trkpt>
      <trkpt lat="45.47563" lon="4.7804">
        <ele>115.36368</ele>
        <time>2021-07-19T11:12:00Z</time>
      </trkpt>
      <trkpt lat="45.47564" lon="4.78042">
        <ele>115.321396</ele>
        <time>2021-07-19T11:12:01Z</time>
      </trkpt>
      <trkpt lat="45.47564" lon="4.78044">
        <ele>115.22627</ele>
        <time>2021-07-19T11:12:02Z</time>
      </trkpt>
      <trkpt lat="45.47564" lon="4.78044">
        <ele>115.12586</ele>
        <time>2021-07-19T11:12:03Z</time>
      </trkpt>
      <trkpt lat="45.47564" lon="4.78045">
        <ele>115.07831</ele>
        <time>2021-07-19T11:12:04Z</time>
      </trkpt>
      <trkpt lat="45.47564" lon="4.78046">
        <ele>115.036026</ele>
        <time>2021-07-19T11:12:05Z</time>
      </trkpt>
      <trkpt lat="45.47566" lon="4.78047">
        <ele>115.05188</ele>
        <time>2021-07-19T11:12:06Z</time>
      </trkpt>
      <trkpt lat="45.47566" lon="4.78047">
        <ele>114.91448</ele>
        <time>2021-07-19T11:12:07Z</time>
      </trkpt>
      <trkpt lat="45.47567" lon="4.78049">
        <ele>114.96732</ele>
        <time>2021-07-19T11:12:08Z</time>
      </trkpt>
      <trkpt lat="45.47567" lon="4.78049">
        <ele>115.00432</ele>
        <time>2021-07-19T11:12:09Z</time>
      </trkpt>
      <trkpt lat="45.47568" lon="4.78051">
        <ele>114.96204</ele>
        <time>2021-07-19T11:12:10Z</time>
      </trkpt>
      <trkpt lat="45.47569" lon="4.78053">
        <ele>115.02017</ele>
        <time>2021-07-19T11:12:11Z</time>
      </trkpt>
      <trkpt lat="45.47569" lon="4.78053">
        <ele>115.02017</ele>
        <time>2021-07-19T11:12:11Z</time>
      </trkpt>
      <trkpt lat="45.47569" lon="4.78053">
        <ele>115.02017</ele>
        <time>2021-07-19T11:12:11Z</time>
      </trkpt>
      <trkpt lat="45.47655" lon="4.78102">
        <ele>116.256775</ele>
        <time>2021-07-19T11:12:58Z</time>
      </trkpt>
      <trkpt lat="45.47656" lon="4.7811">
        <ele>116.457596</ele>
        <time>2021-07-19T11:12:59Z</time>
      </trkpt>
      <trkpt lat="45.47656" lon="4.78117">
        <ele>116.20922</ele>
        <time>2021-07-19T11:13:00Z</time>
      </trkpt>
      <trkpt lat="45.47655" lon="4.78125">
        <ele>116.330765</ele>
        <time>2021-07-19T11:13:01Z</time>
      </trkpt>
      <trkpt lat="45.47654" lon="4.78131">
        <ele>116.30434</ele>
        <time>2021-07-19T11:13:02Z</time>
      </trkpt>
      <trkpt lat="45.47654" lon="4.78137">
        <ele>116.19865</ele>
        <time>2021-07-19T11:13:03Z</time>
      </trkpt>
      <trkpt lat="45.47655" lon="4.78143">
        <ele>116.18279</ele>
        <time>2021-07-19T11:13:04Z</time>
      </trkpt>
      <trkpt lat="45.47655" lon="4.78149">
        <ele>116.04539</ele>
        <time>2021-07-19T11:13:05Z</time>
      </trkpt>
      <trkpt lat="45.47654" lon="4.78154">
        <ele>116.23564</ele>
        <time>2021-07-19T11:13:06Z</time>
      </trkpt>
      <trkpt lat="45.47654" lon="4.78159">
        <ele>116.16166</ele>
        <time>2021-07-19T11:13:07Z</time>
      </trkpt>
      <trkpt lat="45.47654" lon="4.78165">
        <ele>116.0084</ele>
        <time>2021-07-19T11:13:08Z</time>
      </trkpt>
      <trkpt lat="45.47654" lon="4.7817">
        <ele>115.88685</ele>
        <time>2021-07-19T11:13:09Z</time>
      </trkpt>
      <trkpt lat="45.47654" lon="4.78175">
        <ele>115.760025</ele>
        <time>2021-07-19T11:13:10Z</time>
      </trkpt>
      <trkpt lat="45.47655" lon="4.7818">
        <ele>115.69132</ele>
        <time>2021-07-19T11:13:11Z</time>
      </trkpt>
      <trkpt lat="45.47657" lon="4.78186">
        <ele>115.89742</ele>
        <time>2021-07-19T11:13:12Z</time>
      </trkpt>
      <trkpt lat="45.47661" lon="4.78188">
        <ele>115.966125</ele>
        <time>2021-07-19T11:13:13Z</time>
      </trkpt>
      <trkpt lat="45.47664" lon="4.78191">
        <ele>116.119385</ele>
        <time>2021-07-19T11:13:14Z</time>
      </trkpt>
      <trkpt lat="45.47669" lon="4.78193">
        <ele>116.29378</ele>
        <time>2021-07-19T11:13:15Z</time>
      </trkpt>
      <trkpt lat="45.47675" lon="4.78195">
        <ele>116.29378</ele>
        <time>2021-07-19T11:13:16Z</time>
      </trkpt>
      <trkpt lat="45.47679" lon="4.78197">
        <ele>116.330765</ele>
        <time>2021-07-19T11:13:17Z</time>
      </trkpt>
      <trkpt lat="45.47686" lon="4.78199">
        <ele>116.33605</ele>
        <time>2021-07-19T11:13:18Z</time>
      </trkpt>
      <trkpt lat="45.47691" lon="4.782">
        <ele>116.34133</ele>
        <time>2021-07-19T11:13:19Z</time>
      </trkpt>
      <trkpt lat="45.47698" lon="4.78201">
        <ele>116.20922</ele>
        <time>2021-07-19T11:13:20Z</time>
      </trkpt>
      <trkpt lat="45.47703" lon="4.782">
        <ele>116.225075</ele>
        <time>2021-07-19T11:13:21Z</time>
      </trkpt>
      <trkpt lat="45.4771" lon="4.782">
        <ele>116.251495</ele>
        <time>2021-07-19T11:13:22Z</time>
      </trkpt>
      <trkpt lat="45.47716" lon="4.78201">
        <ele>116.18279</ele>
        <time>2021-07-19T11:13:23Z</time>
      </trkpt>
      <trkpt lat="45.47722" lon="4.78203">
        <ele>116.129944</ele>
        <time>2021-07-19T11:13:24Z</time>
      </trkpt>
      <trkpt lat="45.47727" lon="4.78203">
        <ele>116.28848</ele>
        <time>2021-07-19T11:13:25Z</time>
      </trkpt>
      <trkpt lat="45.47733" lon="4.78206">
        <ele>116.362465</ele>
        <time>2021-07-19T11:13:26Z</time>
      </trkpt>
      <trkpt lat="45.47737" lon="4.78209">
        <ele>116.510445</ele>
        <time>2021-07-19T11:13:27Z</time>
      </trkpt>
      <trkpt lat="45.47742" lon="4.78211">
        <ele>116.57385</ele>
        <time>2021-07-19T11:13:28Z</time>
      </trkpt>
      <trkpt lat="45.47747" lon="4.78215">
        <ele>116.457596</ele>
        <time>2021-07-19T11:13:29Z</time>
      </trkpt>
      <trkpt lat="45.47752" lon="4.78218">
        <ele>116.46288</ele>
        <time>2021-07-19T11:13:30Z</time>
      </trkpt>
      <trkpt lat="45.47758" lon="4.7822">
        <ele>116.49987</ele>
        <time>2021-07-19T11:13:31Z</time>
      </trkpt>
      <trkpt lat="45.47763" lon="4.78223">
        <ele>116.54215</ele>
        <time>2021-07-19T11:13:32Z</time>
      </trkpt>
      <trkpt lat="45.47768" lon="4.78225">
        <ele>116.46816</ele>
        <time>2021-07-19T11:13:33Z</time>
      </trkpt>
      <trkpt lat="45.47773" lon="4.78226">
        <ele>116.43117</ele>
        <time>2021-07-19T11:13:34Z</time>
      </trkpt>
      <trkpt lat="45.4778" lon="4.78227">
        <ele>116.457596</ele>
        <time>2021-07-19T11:13:35Z</time>
      </trkpt>
      <trkpt lat="45.47784" lon="4.78229">
        <ele>116.536865</ele>
        <time>2021-07-19T11:13:36Z</time>
      </trkpt>
      <trkpt lat="45.47789" lon="4.7823">
        <ele>116.457596</ele>
        <time>2021-07-19T11:13:37Z</time>
      </trkpt>
      <trkpt lat="45.47795" lon="4.78231">
        <ele>116.49987</ele>
        <time>2021-07-19T11:13:38Z</time>
      </trkpt>
      <trkpt lat="45.478" lon="4.78233">
        <ele>116.42589</ele>
        <time>2021-07-19T11:13:39Z</time>
      </trkpt>
      <trkpt lat="45.47805" lon="4.78235">
        <ele>116.43646</ele>
        <time>2021-07-19T11:13:40Z</time>
      </trkpt>
      <trkpt lat="45.47809" lon="4.78237">
        <ele>116.42589</ele>
        <time>2021-07-19T11:13:41Z</time>
      </trkpt>
      <trkpt lat="45.47813" lon="4.78238">
        <ele>116.44702</ele>
        <time>2021-07-19T11:13:42Z</time>
      </trkpt>
      <trkpt lat="45.47817" lon="4.78238">
        <ele>116.49459</ele>
        <time>2021-07-19T11:13:43Z</time>
      </trkpt>
      <trkpt lat="45.4782" lon="4.78238">
        <ele>116.49987</ele>
        <time>2021-07-19T11:13:44Z</time>
      </trkpt>
      <trkpt lat="45.47823" lon="4.78239">
        <ele>116.663704</ele>
        <time>2021-07-19T11:13:45Z</time>
      </trkpt>
      <trkpt lat="45.47826" lon="4.78238">
        <ele>116.82752</ele>
        <time>2021-07-19T11:13:46Z</time>
      </trkpt>
      <trkpt lat="45.47828" lon="4.78237">
        <ele>116.95963</ele>
        <time>2021-07-19T11:13:47Z</time>
      </trkpt>
      <trkpt lat="45.47833" lon="4.78237">
        <ele>117.001915</ele>
        <time>2021-07-19T11:13:48Z</time>
      </trkpt>
      <trkpt lat="45.47838" lon="4.78238">
        <ele>117.20273</ele>
        <time>2021-07-19T11:13:49Z</time>
      </trkpt>
      <trkpt lat="45.47844" lon="4.7824">
        <ele>117.128746</ele>
        <time>2021-07-19T11:13:50Z</time>
      </trkpt>
      <trkpt lat="45.47847" lon="4.78241">
        <ele>117.181595</ele>
        <time>2021-07-19T11:13:51Z</time>
      </trkpt>
      <trkpt lat="45.47853" lon="4.78246">
        <ele>117.23972</ele>
        <time>2021-07-19T11:13:52Z</time>
      </trkpt>
      <trkpt lat="45.47858" lon="4.78249">
        <ele>117.07062</ele>
        <time>2021-07-19T11:13:53Z</time>
      </trkpt>
      <trkpt lat="45.47862" lon="4.78253">
        <ele>116.79053</ele>
        <time>2021-07-19T11:13:54Z</time>
      </trkpt>
      <trkpt lat="45.47866" lon="4.78257">
        <ele>116.49459</ele>
        <time>2021-07-19T11:13:55Z</time>
      </trkpt>
      <trkpt lat="45.4787" lon="4.78261">
        <ele>116.34133</ele>
        <time>2021-07-19T11:13:56Z</time>
      </trkpt>
      <trkpt lat="45.47875" lon="4.78267">
        <ele>116.351906</ele>
        <time>2021-07-19T11:13:57Z</time>
      </trkpt>
      <trkpt lat="45.47878" lon="4.78272">
        <ele>116.203926</ele>
        <time>2021-07-19T11:13:58Z</time>
      </trkpt>
      <trkpt lat="45.47883" lon="4.78277">
        <ele>116.0084</ele>
        <time>2021-07-19T11:13:59Z</time>
      </trkpt>
      <trkpt lat="45.47887" lon="4.78282">
        <ele>116.02954</ele>
        <time>2021-07-19T11:14:00Z</time>
      </trkpt>
      <trkpt lat="45.47891" lon="4.78286">
        <ele>115.971405</ele>
        <time>2021-07-19T11:14:01Z</time>
      </trkpt>
      <trkpt lat="45.47897" lon="4.78288">
        <ele>115.918564</ele>
        <time>2021-07-19T11:14:02Z</time>
      </trkpt>
      <trkpt lat="45.47901" lon="4.78291">
        <ele>116.19337</ele>
        <time>2021-07-19T11:14:03Z</time>
      </trkpt>
      <trkpt lat="45.47906" lon="4.78293">
        <ele>116.071815</ele>
        <time>2021-07-19T11:14:04Z</time>
      </trkpt>
      <trkpt lat="45.47912" lon="4.78294">
        <ele>115.98726</ele>
        <time>2021-07-19T11:14:05Z</time>
      </trkpt>
      <trkpt lat="45.47917" lon="4.78295">
        <ele>115.95027</ele>
        <time>2021-07-19T11:14:06Z</time>
      </trkpt>
      <trkpt lat="45.47921" lon="4.78298">
        <ele>116.098236</ele>
        <time>2021-07-19T11:14:07Z</time>
      </trkpt>
      <trkpt lat="45.47924" lon="4.783">
        <ele>116.018974</ele>
        <time>2021-07-19T11:14:08Z</time>
      </trkpt>
      <trkpt lat="45.47927" lon="4.78303">
        <ele>116.08767</ele>
        <time>2021-07-19T11:14:09Z</time>
      </trkpt>
      <trkpt lat="45.47932" lon="4.78307">
        <ele>116.2145</ele>
        <time>2021-07-19T11:14:10Z</time>
      </trkpt>
      <trkpt lat="45.47937" lon="4.78314">
        <ele>116.31491</ele>
        <time>2021-07-19T11:14:11Z</time>
      </trkpt>
      <trkpt lat="45.47944" lon="4.7832">
        <ele>116.41531</ele>
        <time>2021-07-19T11:14:12Z</time>
      </trkpt>
      <trkpt lat="45.47949" lon="4.78326">
        <ele>116.404755</ele>
        <time>2021-07-19T11:14:13Z</time>
      </trkpt>
      <trkpt lat="45.47953" lon="4.78332">
        <ele>116.72711</ele>
        <time>2021-07-19T11:14:14Z</time>
      </trkpt>
      <trkpt lat="45.47957" lon="4.78338">
        <ele>116.72711</ele>
        <time>2021-07-19T11:14:15Z</time>
      </trkpt>
      <trkpt lat="45.47959" lon="4.78346">
        <ele>116.896225</ele>
        <time>2021-07-19T11:14:16Z</time>
      </trkpt>
      <trkpt lat="45.4796" lon="4.78353">
        <ele>116.92793</ele>
        <time>2021-07-19T11:14:17Z</time>
      </trkpt>
      <trkpt lat="45.47963" lon="4.78361">
        <ele>117.11289</ele>
        <time>2021-07-19T11:14:18Z</time>
      </trkpt>
      <trkpt lat="45.47964" lon="4.78367">
        <ele>117.16045</ele>
        <time>2021-07-19T11:14:19Z</time>
      </trkpt>
      <trkpt lat="45.47964" lon="4.78371">
        <ele>117.20801</ele>
        <time>2021-07-19T11:14:20Z</time>
      </trkpt>
      <trkpt lat="45.47965" lon="4.78382">
        <ele>117.26086</ele>
        <time>2021-07-19T11:14:21Z</time>
      </trkpt>
      <trkpt lat="45.47965" lon="4.78382">
        <ele>117.26086</ele>
        <time>2021-07-19T11:14:21Z</time>
      </trkpt>
      <trkpt lat="45.47965" lon="4.78389">
        <ele>117.37184</ele>
        <time>2021-07-19T11:14:23Z</time>
      </trkpt>
      <trkpt lat="45.47964" lon="4.78391">
        <ele>117.519806</ele>
        <time>2021-07-19T11:14:24Z</time>
      </trkpt>
      <trkpt lat="45.47963" lon="4.78393">
        <ele>117.42997</ele>
        <time>2021-07-19T11:14:25Z</time>
      </trkpt>
      <trkpt lat="45.47962" lon="4.78394">
        <ele>117.53566</ele>
        <time>2021-07-19T11:14:26Z</time>
      </trkpt>
      <trkpt lat="45.47961" lon="4.78395">
        <ele>117.50395</ele>
        <time>2021-07-19T11:14:27Z</time>
      </trkpt>
      <trkpt lat="45.4796" lon="4.78396">
        <ele>117.65721</ele>
        <time>2021-07-19T11:14:28Z</time>
      </trkpt>
      <trkpt lat="45.47959" lon="4.78398">
        <ele>117.64136</ele>
        <time>2021-07-19T11:14:29Z</time>
      </trkpt>
      <trkpt lat="45.47958" lon="4.784">
        <ele>117.79461</ele>
        <time>2021-07-19T11:14:30Z</time>
      </trkpt>
      <trkpt lat="45.47957" lon="4.78401">
        <ele>117.879166</ele>
        <time>2021-07-19T11:14:31Z</time>
      </trkpt>
      <trkpt lat="45.47955" lon="4.78403">
        <ele>117.7999</ele>
        <time>2021-07-19T11:14:32Z</time>
      </trkpt>
      <trkpt lat="45.47953" lon="4.78406">
        <ele>116.896225</ele>
        <time>2021-07-19T11:14:33Z</time>
      </trkpt>
      <trkpt lat="45.47952" lon="4.7841">
        <ele>117.43525</ele>
        <time>2021-07-19T11:14:34Z</time>
      </trkpt>
      <trkpt lat="45.47953" lon="4.78416">
        <ele>117.5568</ele>
        <time>2021-07-19T11:14:35Z</time>
      </trkpt>
      <trkpt lat="45.47953" lon="4.78423">
        <ele>117.53566</ele>
        <time>2021-07-19T11:14:36Z</time>
      </trkpt>
      <trkpt lat="45.47953" lon="4.78429">
        <ele>117.36655</ele>
        <time>2021-07-19T11:14:37Z</time>
      </trkpt>
      <trkpt lat="45.47957" lon="4.78434">
        <ele>117.25558</ele>
        <time>2021-07-19T11:14:38Z</time>
      </trkpt>
      <trkpt lat="45.47961" lon="4.7844">
        <ele>117.27143</ele>
        <time>2021-07-19T11:14:39Z</time>
      </trkpt>
      <trkpt lat="45.47965" lon="4.78447">
        <ele>116.8698</ele>
        <time>2021-07-19T11:14:40Z</time>
      </trkpt>
      <trkpt lat="45.47968" lon="4.78454">
        <ele>116.88037</ele>
        <time>2021-07-19T11:14:41Z</time>
      </trkpt>
      <trkpt lat="45.47971" lon="4.78462">
        <ele>116.99663</ele>
        <time>2021-07-19T11:14:42Z</time>
      </trkpt>
      <trkpt lat="45.47975" lon="4.78471">
        <ele>116.97021</ele>
        <time>2021-07-19T11:14:43Z</time>
      </trkpt>
      <trkpt lat="45.47979" lon="4.78477">
        <ele>117.06004</ele>
        <time>2021-07-19T11:14:44Z</time>
      </trkpt>
      <trkpt lat="45.47982" lon="4.78484">
        <ele>116.901505</ele>
        <time>2021-07-19T11:14:45Z</time>
      </trkpt>
      <trkpt lat="45.47987" lon="4.7849">
        <ele>117.01777</ele>
        <time>2021-07-19T11:14:46Z</time>
      </trkpt>
      <trkpt lat="45.4799" lon="4.78495">
        <ele>117.11289</ele>
        <time>2021-07-19T11:14:47Z</time>
      </trkpt>
      <trkpt lat="45.47995" lon="4.78501">
        <ele>116.97549</ele>
        <time>2021-07-19T11:14:48Z</time>
      </trkpt>
      <trkpt lat="45.47999" lon="4.78507">
        <ele>117.11817</ele>
        <time>2021-07-19T11:14:49Z</time>
      </trkpt>
      <trkpt lat="45.48003" lon="4.78513">
        <ele>117.17631</ele>
        <time>2021-07-19T11:14:50Z</time>
      </trkpt>
      <trkpt lat="45.48006" lon="4.78519">
        <ele>117.134026</ele>
        <time>2021-07-19T11:14:51Z</time>
      </trkpt>
      <trkpt lat="45.4801" lon="4.78524">
        <ele>117.081184</ele>
        <time>2021-07-19T11:14:52Z</time>
      </trkpt>
      <trkpt lat="45.4801" lon="4.78524">
        <ele>117.081184</ele>
        <time>2021-07-19T11:14:52Z</time>
      </trkpt>
      <trkpt lat="45.48018" lon="4.78535">
        <ele>116.896225</ele>
        <time>2021-07-19T11:14:54Z</time>
      </trkpt>
      <trkpt lat="45.48022" lon="4.78541">
        <ele>116.906784</ele>
        <time>2021-07-19T11:14:55Z</time>
      </trkpt>
      <trkpt lat="45.48026" lon="4.78547">
        <ele>116.848656</ele>
        <time>2021-07-19T11:14:56Z</time>
      </trkpt>
      <trkpt lat="45.48029" lon="4.78553">
        <ele>116.8328</ele>
        <time>2021-07-19T11:14:57Z</time>
      </trkpt>
      <trkpt lat="45.48033" lon="4.78559">
        <ele>116.81695</ele>
        <time>2021-07-19T11:14:58Z</time>
      </trkpt>
      <trkpt lat="45.48037" lon="4.78565">
        <ele>117.17631</ele>
        <time>2021-07-19T11:14:59Z</time>
      </trkpt>
      <trkpt lat="45.48042" lon="4.78571">
        <ele>117.19216</ele>
        <time>2021-07-19T11:15:00Z</time>
      </trkpt>
      <trkpt lat="45.48045" lon="4.78577">
        <ele>116.98078</ele>
        <time>2021-07-19T11:15:01Z</time>
      </trkpt>
      <trkpt lat="45.48049" lon="4.78585">
        <ele>117.01248</ele>
        <time>2021-07-19T11:15:02Z</time>
      </trkpt>
      <trkpt lat="45.48052" lon="4.78592">
        <ele>117.13932</ele>
        <time>2021-07-19T11:15:03Z</time>
      </trkpt>
      <trkpt lat="45.48054" lon="4.786">
        <ele>116.99134</ele>
        <time>2021-07-19T11:15:04Z</time>
      </trkpt>
      <trkpt lat="45.48056" lon="4.78608">
        <ele>117.11289</ele>
        <time>2021-07-19T11:15:05Z</time>
      </trkpt>
      <trkpt lat="45.48058" lon="4.78616">
        <ele>117.03362</ele>
        <time>2021-07-19T11:15:06Z</time>
      </trkpt>
      <trkpt lat="45.48061" lon="4.78624">
        <ele>117.001915</ele>
        <time>2021-07-19T11:15:07Z</time>
      </trkpt>
      <trkpt lat="45.48063" lon="4.78632">
        <ele>117.09175</ele>
        <time>2021-07-19T11:15:08Z</time>
      </trkpt>
      <trkpt lat="45.48066" lon="4.7864">
        <ele>116.99663</ele>
        <time>2021-07-19T11:15:09Z</time>
      </trkpt>
      <trkpt lat="45.48068" lon="4.78648">
        <ele>117.04947</ele>
        <time>2021-07-19T11:15:10Z</time>
      </trkpt>
      <trkpt lat="45.4807" lon="4.78656">
        <ele>117.08647</ele>
        <time>2021-07-19T11:15:11Z</time>
      </trkpt>
      <trkpt lat="45.48073" lon="4.78663">
        <ele>117.26615</ele>
        <time>2021-07-19T11:15:12Z</time>
      </trkpt>
      <trkpt lat="45.48075" lon="4.78671">
        <ele>117.32428</ele>
        <time>2021-07-19T11:15:13Z</time>
      </trkpt>
      <trkpt lat="45.48076" lon="4.7868">
        <ele>117.12347</ele>
        <time>2021-07-19T11:15:14Z</time>
      </trkpt>
      <trkpt lat="45.48077" lon="4.78689">
        <ele>117.24501</ele>
        <time>2021-07-19T11:15:15Z</time>
      </trkpt>
      <trkpt lat="45.4808" lon="4.78697">
        <ele>117.31899</ele>
        <time>2021-07-19T11:15:16Z</time>
      </trkpt>
      <trkpt lat="45.48081" lon="4.78705">
        <ele>117.33485</ele>
        <time>2021-07-19T11:15:17Z</time>
      </trkpt>
      <trkpt lat="45.48082" lon="4.78713">
        <ele>117.36655</ele>
        <time>2021-07-19T11:15:18Z</time>
      </trkpt>
      <trkpt lat="45.48082" lon="4.78721">
        <ele>117.4881</ele>
        <time>2021-07-19T11:15:19Z</time>
      </trkpt>
      <trkpt lat="45.48083" lon="4.78729">
        <ele>117.40355</ele>
        <time>2021-07-19T11:15:20Z</time>
      </trkpt>
      <trkpt lat="45.48083" lon="4.78737">
        <ele>117.30314</ele>
        <time>2021-07-19T11:15:21Z</time>
      </trkpt>
      <trkpt lat="45.48082" lon="4.78745">
        <ele>117.25558</ele>
        <time>2021-07-19T11:15:22Z</time>
      </trkpt>
      <trkpt lat="45.48081" lon="4.78754">
        <ele>117.35071</ele>
        <time>2021-07-19T11:15:23Z</time>
      </trkpt>
      <trkpt lat="45.48079" lon="4.78763">
        <ele>117.26086</ele>
        <time>2021-07-19T11:15:24Z</time>
      </trkpt>
      <trkpt lat="45.48078" lon="4.78772">
        <ele>117.20801</ele>
        <time>2021-07-19T11:15:25Z</time>
      </trkpt>
      <trkpt lat="45.48076" lon="4.7878">
        <ele>117.31899</ele>
        <time>2021-07-19T11:15:26Z</time>
      </trkpt>
      <trkpt lat="45.48074" lon="4.78788">
        <ele>117.525085</ele>
        <time>2021-07-19T11:15:27Z</time>
      </trkpt>
      <trkpt lat="45.48071" lon="4.78795">
        <ele>117.419395</ele>
        <time>2021-07-19T11:15:28Z</time>
      </trkpt>
      <trkpt lat="45.48068" lon="4.78802">
        <ele>117.62022</ele>
        <time>2021-07-19T11:15:29Z</time>
      </trkpt>
      <trkpt lat="45.48066" lon="4.7881">
        <ele>117.63607</ele>
        <time>2021-07-19T11:15:30Z</time>
      </trkpt>
      <trkpt lat="45.48064" lon="4.78816">
        <ele>117.65721</ele>
        <time>2021-07-19T11:15:31Z</time>
      </trkpt>
      <trkpt lat="45.48062" lon="4.78824">
        <ele>117.60964</ele>
        <time>2021-07-19T11:15:32Z</time>
      </trkpt>
      <trkpt lat="45.48061" lon="4.78831">
        <ele>116.93321</ele>
        <time>2021-07-19T11:15:33Z</time>
      </trkpt>
      <trkpt lat="45.48061" lon="4.78836">
        <ele>116.83809</ele>
        <time>2021-07-19T11:15:34Z</time>
      </trkpt>
      <trkpt lat="45.48063" lon="4.7884">
        <ele>117.028336</ele>
        <time>2021-07-19T11:15:35Z</time>
      </trkpt>
      <trkpt lat="45.48067" lon="4.78841">
        <ele>117.09704</ele>
        <time>2021-07-19T11:15:36Z</time>
      </trkpt>
      <trkpt lat="45.48072" lon="4.78841">
        <ele>117.15517</ele>
        <time>2021-07-19T11:15:37Z</time>
      </trkpt>
      <trkpt lat="45.48077" lon="4.78842">
        <ele>116.95435</ele>
        <time>2021-07-19T11:15:38Z</time>
      </trkpt>
      <trkpt lat="45.48083" lon="4.78843">
        <ele>117.14988</ele>
        <time>2021-07-19T11:15:39Z</time>
      </trkpt>
      <trkpt lat="45.48089" lon="4.78845">
        <ele>117.287285</ele>
        <time>2021-07-19T11:15:40Z</time>
      </trkpt>
      <trkpt lat="45.48095" lon="4.78846">
        <ele>117.282005</ele>
        <time>2021-07-19T11:15:41Z</time>
      </trkpt>
      <trkpt lat="45.481" lon="4.78848">
        <ele>117.25029</ele>
        <time>2021-07-19T11:15:42Z</time>
      </trkpt>
      <trkpt lat="45.48106" lon="4.78849">
        <ele>117.23972</ele>
        <time>2021-07-19T11:15:43Z</time>
      </trkpt>
      <trkpt lat="45.48112" lon="4.78851">
        <ele>117.387695</ele>
        <time>2021-07-19T11:15:44Z</time>
      </trkpt>
      <trkpt lat="45.48117" lon="4.78852">
        <ele>117.49867</ele>
        <time>2021-07-19T11:15:45Z</time>
      </trkpt>
      <trkpt lat="45.48122" lon="4.78853">
        <ele>117.519806</ele>
        <time>2021-07-19T11:15:46Z</time>
      </trkpt>
      <trkpt lat="45.48128" lon="4.78854">
        <ele>117.651924</ele>
        <time>2021-07-19T11:15:47Z</time>
      </trkpt>
      <trkpt lat="45.48133" lon="4.78855">
        <ele>117.61494</ele>
        <time>2021-07-19T11:15:48Z</time>
      </trkpt>
      <trkpt lat="45.48139" lon="4.78857">
        <ele>117.7629</ele>
        <time>2021-07-19T11:15:49Z</time>
      </trkpt>
      <trkpt lat="45.48144" lon="4.78858">
        <ele>117.79461</ele>
        <time>2021-07-19T11:15:50Z</time>
      </trkpt>
      <trkpt lat="45.4815" lon="4.78859">
        <ele>117.76818</ele>
        <time>2021-07-19T11:15:51Z</time>
      </trkpt>
      <trkpt lat="45.48155" lon="4.7886">
        <ele>117.78404</ele>
        <time>2021-07-19T11:15:52Z</time>
      </trkpt>
      <trkpt lat="45.4816" lon="4.78861">
        <ele>117.76818</ele>
        <time>2021-07-19T11:15:53Z</time>
      </trkpt>
      <trkpt lat="45.48166" lon="4.7886">
        <ele>118.006</ele>
        <time>2021-07-19T11:15:54Z</time>
      </trkpt>
      <trkpt lat="45.48172" lon="4.78861">
        <ele>117.99014</ele>
        <time>2021-07-19T11:15:55Z</time>
      </trkpt>
      <trkpt lat="45.48177" lon="4.78861">
        <ele>117.88973</ele>
        <time>2021-07-19T11:15:56Z</time>
      </trkpt>
      <trkpt lat="45.48182" lon="4.78862">
        <ele>117.81047</ele>
        <time>2021-07-19T11:15:57Z</time>
      </trkpt>
      <trkpt lat="45.48186" lon="4.78863">
        <ele>118.00071</ele>
        <time>2021-07-19T11:15:58Z</time>
      </trkpt>
      <trkpt lat="45.48191" lon="4.78863">
        <ele>118.10112</ele>
        <time>2021-07-19T11:15:59Z</time>
      </trkpt>
      <trkpt lat="45.48195" lon="4.78863">
        <ele>118.27023</ele>
        <time>2021-07-19T11:16:00Z</time>
      </trkpt>
      <trkpt lat="45.482" lon="4.78864">
        <ele>118.455185</ele>
        <time>2021-07-19T11:16:01Z</time>
      </trkpt>
      <trkpt lat="45.48204" lon="4.78865">
        <ele>118.582016</ele>
        <time>2021-07-19T11:16:02Z</time>
      </trkpt>
      <trkpt lat="45.48209" lon="4.78865">
        <ele>118.840965</ele>
        <time>2021-07-19T11:16:03Z</time>
      </trkpt>
      <trkpt lat="45.48214" lon="4.78866">
        <ele>119.179184</ele>
        <time>2021-07-19T11:16:04Z</time>
      </trkpt>
      <trkpt lat="45.48218" lon="4.78867">
        <ele>119.26374</ele>
        <time>2021-07-19T11:16:05Z</time>
      </trkpt>
      <trkpt lat="45.48222" lon="4.78866">
        <ele>119.670654</ele>
        <time>2021-07-19T11:16:06Z</time>
      </trkpt>
      <trkpt lat="45.48226" lon="4.78866">
        <ele>120.18855</ele>
        <time>2021-07-19T11:16:07Z</time>
      </trkpt>
      <trkpt lat="45.48229" lon="4.78866">
        <ele>120.23611</ele>
        <time>2021-07-19T11:16:08Z</time>
      </trkpt>
      <trkpt lat="45.48232" lon="4.78865">
        <ele>120.727585</ele>
        <time>2021-07-19T11:16:09Z</time>
      </trkpt>
      <trkpt lat="45.48236" lon="4.78865">
        <ele>121.16621</ele>
        <time>2021-07-19T11:16:10Z</time>
      </trkpt>
      <trkpt lat="45.4824" lon="4.78866">
        <ele>121.425156</ele>
        <time>2021-07-19T11:16:11Z</time>
      </trkpt>
      <trkpt lat="45.48243" lon="4.78866">
        <ele>121.6524</ele>
        <time>2021-07-19T11:16:12Z</time>
      </trkpt>
      <trkpt lat="45.48246" lon="4.78866">
        <ele>121.58898</ele>
        <time>2021-07-19T11:16:13Z</time>
      </trkpt>
      <trkpt lat="45.4825" lon="4.78866">
        <ele>121.71581</ele>
        <time>2021-07-19T11:16:14Z</time>
      </trkpt>
      <trkpt lat="45.48254" lon="4.78867">
        <ele>122.07517</ele>
        <time>2021-07-19T11:16:15Z</time>
      </trkpt>
      <trkpt lat="45.48258" lon="4.78868">
        <ele>122.101585</ele>
        <time>2021-07-19T11:16:16Z</time>
      </trkpt>
      <trkpt lat="45.48262" lon="4.78869">
        <ele>121.969475</ele>
        <time>2021-07-19T11:16:17Z</time>
      </trkpt>
      <trkpt lat="45.48267" lon="4.78869">
        <ele>121.98533</ele>
        <time>2021-07-19T11:16:18Z</time>
      </trkpt>
      <trkpt lat="45.48271" lon="4.7887">
        <ele>121.77395</ele>
        <time>2021-07-19T11:16:19Z</time>
      </trkpt>
      <trkpt lat="45.48275" lon="4.78871">
        <ele>121.84265</ele>
        <time>2021-07-19T11:16:20Z</time>
      </trkpt>
      <trkpt lat="45.4828" lon="4.78873">
        <ele>121.73167</ele>
        <time>2021-07-19T11:16:21Z</time>
      </trkpt>
      <trkpt lat="45.48283" lon="4.78877">
        <ele>121.85321</ele>
        <time>2021-07-19T11:16:22Z</time>
      </trkpt>
      <trkpt lat="45.48286" lon="4.78882">
        <ele>121.94305</ele>
        <time>2021-07-19T11:16:23Z</time>
      </trkpt>
      <trkpt lat="45.48288" lon="4.78888">
        <ele>122.00647</ele>
        <time>2021-07-19T11:16:24Z</time>
      </trkpt>
      <trkpt lat="45.48289" lon="4.78895">
        <ele>122.0276</ele>
        <time>2021-07-19T11:16:25Z</time>
      </trkpt>
      <trkpt lat="45.4829" lon="4.78902">
        <ele>121.768654</ele>
        <time>2021-07-19T11:16:26Z</time>
      </trkpt>
      <trkpt lat="45.48293" lon="4.78909">
        <ele>121.85321</ele>
        <time>2021-07-19T11:16:27Z</time>
      </trkpt>
      <trkpt lat="45.48295" lon="4.78916">
        <ele>121.85321</ele>
        <time>2021-07-19T11:16:28Z</time>
      </trkpt>
      <trkpt lat="45.48297" lon="4.78924">
        <ele>122.0276</ele>
        <time>2021-07-19T11:16:29Z</time>
      </trkpt>
      <trkpt lat="45.48299" lon="4.78932">
        <ele>122.05932</ele>
        <time>2021-07-19T11:16:30Z</time>
      </trkpt>
      <trkpt lat="45.48301" lon="4.78941">
        <ele>122.18614</ele>
        <time>2021-07-19T11:16:31Z</time>
      </trkpt>
      <trkpt lat="45.48303" lon="4.7895">
        <ele>122.355255</ele>
        <time>2021-07-19T11:16:32Z</time>
      </trkpt>
      <trkpt lat="45.48306" lon="4.78958">
        <ele>122.45566</ele>
        <time>2021-07-19T11:16:33Z</time>
      </trkpt>
      <trkpt lat="45.48308" lon="4.78968">
        <ele>122.57721</ele>
        <time>2021-07-19T11:16:34Z</time>
      </trkpt>
      <trkpt lat="45.48309" lon="4.78977">
        <ele>122.741035</ele>
        <time>2021-07-19T11:16:35Z</time>
      </trkpt>
      <trkpt lat="45.4831" lon="4.78986">
        <ele>122.70933</ele>
        <time>2021-07-19T11:16:36Z</time>
      </trkpt>
      <trkpt lat="45.48311" lon="4.78995">
        <ele>122.52436</ele>
        <time>2021-07-19T11:16:37Z</time>
      </trkpt>
      <trkpt lat="45.48312" lon="4.79004">
        <ele>122.62477</ele>
        <time>2021-07-19T11:16:38Z</time>
      </trkpt>
      <trkpt lat="45.48312" lon="4.79012">
        <ele>122.50851</ele>
        <time>2021-07-19T11:16:39Z</time>
      </trkpt>
      <trkpt lat="45.48313" lon="4.79022">
        <ele>122.59306</ele>
        <time>2021-07-19T11:16:40Z</time>
      </trkpt>
      <trkpt lat="45.48314" lon="4.79031">
        <ele>122.55079</ele>
        <time>2021-07-19T11:16:41Z</time>
      </trkpt>
      <trkpt lat="45.48315" lon="4.7904">
        <ele>122.39225</ele>
        <time>2021-07-19T11:16:42Z</time>
      </trkpt>
      <trkpt lat="45.48315" lon="4.7905">
        <ele>122.545494</ele>
        <time>2021-07-19T11:16:43Z</time>
      </trkpt>
      <trkpt lat="45.48316" lon="4.79059">
        <ele>122.59306</ele>
        <time>2021-07-19T11:16:44Z</time>
      </trkpt>
      <trkpt lat="45.48317" lon="4.79067">
        <ele>122.49794</ele>
        <time>2021-07-19T11:16:45Z</time>
      </trkpt>
      <trkpt lat="45.48318" lon="4.79075">
        <ele>121.810936</ele>
        <time>2021-07-19T11:16:46Z</time>
      </trkpt>
      <trkpt lat="45.48319" lon="4.79084">
        <ele>121.69467</ele>
        <time>2021-07-19T11:16:47Z</time>
      </trkpt>
      <trkpt lat="45.4832" lon="4.79092">
        <ele>121.54141</ele>
        <time>2021-07-19T11:16:48Z</time>
      </trkpt>
      <trkpt lat="45.48321" lon="4.79101">
        <ele>121.33003</ele>
        <time>2021-07-19T11:16:49Z</time>
      </trkpt>
      <trkpt lat="45.48322" lon="4.7911">
        <ele>121.30361</ele>
        <time>2021-07-19T11:16:50Z</time>
      </trkpt>
      <trkpt lat="45.48322" lon="4.79119">
        <ele>121.3406</ele>
        <time>2021-07-19T11:16:51Z</time>
      </trkpt>
      <trkpt lat="45.48323" lon="4.79128">
        <ele>121.46743</ele>
        <time>2021-07-19T11:16:52Z</time>
      </trkpt>
      <trkpt lat="45.48324" lon="4.79136">
        <ele>121.59426</ele>
        <time>2021-07-19T11:16:53Z</time>
      </trkpt>
      <trkpt lat="45.48325" lon="4.79145">
        <ele>121.36174</ele>
        <time>2021-07-19T11:16:54Z</time>
      </trkpt>
      <trkpt lat="45.48325" lon="4.79154">
        <ele>121.53613</ele>
        <time>2021-07-19T11:16:55Z</time>
      </trkpt>
      <trkpt lat="45.48326" lon="4.79162">
        <ele>121.84265</ele>
        <time>2021-07-19T11:16:56Z</time>
      </trkpt>
      <trkpt lat="45.48327" lon="4.7917">
        <ele>121.81622</ele>
        <time>2021-07-19T11:16:57Z</time>
      </trkpt>
      <trkpt lat="45.48327" lon="4.79179">
        <ele>121.758095</ele>
        <time>2021-07-19T11:16:58Z</time>
      </trkpt>
      <trkpt lat="45.48328" lon="4.79187">
        <ele>121.7211</ele>
        <time>2021-07-19T11:16:59Z</time>
      </trkpt>
      <trkpt lat="45.48329" lon="4.79196">
        <ele>121.69467</ele>
        <time>2021-07-19T11:17:00Z</time>
      </trkpt>
      <trkpt lat="45.4833" lon="4.79204">
        <ele>121.768654</ele>
        <time>2021-07-19T11:17:01Z</time>
      </trkpt>
      <trkpt lat="45.4833" lon="4.79212">
        <ele>122.096306</ele>
        <time>2021-07-19T11:17:02Z</time>
      </trkpt>
      <trkpt lat="45.48331" lon="4.7922">
        <ele>122.820305</ele>
        <time>2021-07-19T11:17:03Z</time>
      </trkpt>
      <trkpt lat="45.48332" lon="4.79228">
        <ele>122.89429</ele>
        <time>2021-07-19T11:17:04Z</time>
      </trkpt>
      <trkpt lat="45.48332" lon="4.79236">
        <ele>122.56135</ele>
        <time>2021-07-19T11:17:05Z</time>
      </trkpt>
      <trkpt lat="45.48333" lon="4.79244">
        <ele>122.37111</ele>
        <time>2021-07-19T11:17:06Z</time>
      </trkpt>
      <trkpt lat="45.48334" lon="4.79252">
        <ele>122.29184</ele>
        <time>2021-07-19T11:17:07Z</time>
      </trkpt>
      <trkpt lat="45.48335" lon="4.7926">
        <ele>122.63005</ele>
        <time>2021-07-19T11:17:08Z</time>
      </trkpt>
      <trkpt lat="45.48336" lon="4.79268">
        <ele>122.19672</ele>
        <time>2021-07-19T11:17:09Z</time>
      </trkpt>
      <trkpt lat="45.48338" lon="4.79276">
        <ele>122.096306</ele>
        <time>2021-07-19T11:17:10Z</time>
      </trkpt>
      <trkpt lat="45.48339" lon="4.79284">
        <ele>122.01175</ele>
        <time>2021-07-19T11:17:11Z</time>
      </trkpt>
      <trkpt lat="45.4834" lon="4.79292">
        <ele>121.7898</ele>
        <time>2021-07-19T11:17:12Z</time>
      </trkpt>
      <trkpt lat="45.48341" lon="4.793">
        <ele>121.83208</ele>
        <time>2021-07-19T11:17:13Z</time>
      </trkpt>
      <trkpt lat="45.48343" lon="4.79309">
        <ele>121.93249</ele>
        <time>2021-07-19T11:17:14Z</time>
      </trkpt>
      <trkpt lat="45.48345" lon="4.79318">
        <ele>121.64182</ele>
        <time>2021-07-19T11:17:15Z</time>
      </trkpt>
      <trkpt lat="45.48347" lon="4.79327">
        <ele>121.7211</ele>
        <time>2021-07-19T11:17:16Z</time>
      </trkpt>
      <trkpt lat="45.48349" lon="4.79335">
        <ele>121.525566</ele>
        <time>2021-07-19T11:17:17Z</time>
      </trkpt>
      <trkpt lat="45.48351" lon="4.79344">
        <ele>121.43044</ele>
        <time>2021-07-19T11:17:18Z</time>
      </trkpt>
      <trkpt lat="45.48353" lon="4.79353">
        <ele>121.24548</ele>
        <time>2021-07-19T11:17:19Z</time>
      </trkpt>
      <trkpt lat="45.48355" lon="4.79361">
        <ele>121.319466</ele>
        <time>2021-07-19T11:17:20Z</time>
      </trkpt>
      <trkpt lat="45.48356" lon="4.79369">
        <ele>121.2032</ele>
        <time>2021-07-19T11:17:21Z</time>
      </trkpt>
      <trkpt lat="45.48358" lon="4.79378">
        <ele>121.08165</ele>
        <time>2021-07-19T11:17:22Z</time>
      </trkpt>
      <trkpt lat="45.4836" lon="4.79386">
        <ele>120.94426</ele>
        <time>2021-07-19T11:17:23Z</time>
      </trkpt>
      <trkpt lat="45.48363" lon="4.79395">
        <ele>121.17149</ele>
        <time>2021-07-19T11:17:24Z</time>
      </trkpt>
      <trkpt lat="45.48365" lon="4.79403">
        <ele>120.99181</ele>
        <time>2021-07-19T11:17:25Z</time>
      </trkpt>
      <trkpt lat="45.48367" lon="4.79412">
        <ele>121.14507</ele>
        <time>2021-07-19T11:17:26Z</time>
      </trkpt>
      <trkpt lat="45.48369" lon="4.7942">
        <ele>120.88084</ele>
        <time>2021-07-19T11:17:27Z</time>
      </trkpt>
      <trkpt lat="45.48371" lon="4.79428">
        <ele>120.68531</ele>
        <time>2021-07-19T11:17:28Z</time>
      </trkpt>
      <trkpt lat="45.48373" lon="4.79436">
        <ele>120.648315</ele>
        <time>2021-07-19T11:17:29Z</time>
      </trkpt>
      <trkpt lat="45.48374" lon="4.79442">
        <ele>120.95483</ele>
        <time>2021-07-19T11:17:30Z</time>
      </trkpt>
      <trkpt lat="45.48376" lon="4.79448">
        <ele>120.75929</ele>
        <time>2021-07-19T11:17:31Z</time>
      </trkpt>
      <trkpt lat="45.48378" lon="4.79455">
        <ele>120.55848</ele>
        <time>2021-07-19T11:17:32Z</time>
      </trkpt>
      <trkpt lat="45.48379" lon="4.79461">
        <ele>120.33652</ele>
        <time>2021-07-19T11:17:33Z</time>
      </trkpt>
      <trkpt lat="45.48381" lon="4.79468">
        <ele>120.37879</ele>
        <time>2021-07-19T11:17:34Z</time>
      </trkpt>
      <trkpt lat="45.48383" lon="4.79475">
        <ele>120.36823</ele>
        <time>2021-07-19T11:17:35Z</time>
      </trkpt>
      <trkpt lat="45.48384" lon="4.79482">
        <ele>120.23083</ele>
        <time>2021-07-19T11:17:36Z</time>
      </trkpt>
      <trkpt lat="45.48384" lon="4.79489">
        <ele>120.22025</ele>
        <time>2021-07-19T11:17:37Z</time>
      </trkpt>
      <trkpt lat="45.48384" lon="4.79497">
        <ele>120.183266</ele>
        <time>2021-07-19T11:17:38Z</time>
      </trkpt>
      <trkpt lat="45.48383" lon="4.79506">
        <ele>119.956024</ele>
        <time>2021-07-19T11:17:39Z</time>
      </trkpt>
      <trkpt lat="45.48382" lon="4.79516">
        <ele>120.01944</ele>
        <time>2021-07-19T11:17:40Z</time>
      </trkpt>
      <trkpt lat="45.4838" lon="4.79525">
        <ele>119.897896</ele>
        <time>2021-07-19T11:17:41Z</time>
      </trkpt>
      <trkpt lat="45.48378" lon="4.79534">
        <ele>119.98245</ele>
        <time>2021-07-19T11:17:42Z</time>
      </trkpt>
      <trkpt lat="45.48376" lon="4.79543">
        <ele>120.051155</ele>
        <time>2021-07-19T11:17:43Z</time>
      </trkpt>
      <trkpt lat="45.48374" lon="4.79552">
        <ele>119.83449</ele>
        <time>2021-07-19T11:17:44Z</time>
      </trkpt>
      <trkpt lat="45.48372" lon="4.7956">
        <ele>120.16741</ele>
        <time>2021-07-19T11:17:45Z</time>
      </trkpt>
      <trkpt lat="45.48369" lon="4.79568">
        <ele>120.2731</ele>
        <time>2021-07-19T11:17:46Z</time>
      </trkpt>
      <trkpt lat="45.48367" lon="4.79577">
        <ele>120.68003</ele>
        <time>2021-07-19T11:17:47Z</time>
      </trkpt>
      <trkpt lat="45.48365" lon="4.79586">
        <ele>120.24668</ele>
        <time>2021-07-19T11:17:48Z</time>
      </trkpt>
      <trkpt lat="45.48363" lon="4.79594">
        <ele>119.52269</ele>
        <time>2021-07-19T11:17:49Z</time>
      </trkpt>
      <trkpt lat="45.4836" lon="4.79601">
        <ele>119.21089</ele>
        <time>2021-07-19T11:17:50Z</time>
      </trkpt>
      <trkpt lat="45.48357" lon="4.79609">
        <ele>119.36943</ele>
        <time>2021-07-19T11:17:51Z</time>
      </trkpt>
      <trkpt lat="45.48355" lon="4.79617">
        <ele>119.15276</ele>
        <time>2021-07-19T11:17:52Z</time>
      </trkpt>
      <trkpt lat="45.48353" lon="4.79625">
        <ele>119.33772</ele>
        <time>2021-07-19T11:17:53Z</time>
      </trkpt>
      <trkpt lat="45.48352" lon="4.79634">
        <ele>119.020645</ele>
        <time>2021-07-19T11:17:54Z</time>
      </trkpt>
      <trkpt lat="45.48351" lon="4.79643">
        <ele>118.9308</ele>
        <time>2021-07-19T11:17:55Z</time>
      </trkpt>
      <trkpt lat="45.4835" lon="4.79651">
        <ele>118.78284</ele>
        <time>2021-07-19T11:17:56Z</time>
      </trkpt>
      <trkpt lat="45.48349" lon="4.7966">
        <ele>118.66129</ele>
        <time>2021-07-19T11:17:57Z</time>
      </trkpt>
      <trkpt lat="45.48348" lon="4.79668">
        <ele>119.121056</ele>
        <time>2021-07-19T11:17:58Z</time>
      </trkpt>
      <trkpt lat="45.48347" lon="4.79677">
        <ele>118.88325</ele>
        <time>2021-07-19T11:17:59Z</time>
      </trkpt>
      <trkpt lat="45.48346" lon="4.79686">
        <ele>119.284874</ele>
        <time>2021-07-19T11:18:00Z</time>
      </trkpt>
      <trkpt lat="45.48345" lon="4.79695">
        <ele>118.86739</ele>
        <time>2021-07-19T11:18:01Z</time>
      </trkpt>
      <trkpt lat="45.48344" lon="4.79703">
        <ele>118.68243</ele>
        <time>2021-07-19T11:18:02Z</time>
      </trkpt>
      <trkpt lat="45.48343" lon="4.79711">
        <ele>118.57674</ele>
        <time>2021-07-19T11:18:03Z</time>
      </trkpt>
      <trkpt lat="45.48342" lon="4.79719">
        <ele>118.49218</ele>
        <time>2021-07-19T11:18:04Z</time>
      </trkpt>
      <trkpt lat="45.48341" lon="4.79727">
        <ele>118.217384</ele>
        <time>2021-07-19T11:18:05Z</time>
      </trkpt>
      <trkpt lat="45.4834" lon="4.79737">
        <ele>118.13283</ele>
        <time>2021-07-19T11:18:06Z</time>
      </trkpt>
      <trkpt lat="45.48339" lon="4.79745">
        <ele>118.28609</ele>
        <time>2021-07-19T11:18:07Z</time>
      </trkpt>
      <trkpt lat="45.48338" lon="4.79754">
        <ele>118.1434</ele>
        <time>2021-07-19T11:18:08Z</time>
      </trkpt>
      <trkpt lat="45.48338" lon="4.79762">
        <ele>118.037704</ele>
        <time>2021-07-19T11:18:09Z</time>
      </trkpt>
      <trkpt lat="45.48337" lon="4.79771">
        <ele>118.13283</ele>
        <time>2021-07-19T11:18:10Z</time>
      </trkpt>
      <trkpt lat="45.48336" lon="4.7978">
        <ele>118.19624</ele>
        <time>2021-07-19T11:18:11Z</time>
      </trkpt>
      <trkpt lat="45.48336" lon="4.79789">
        <ele>118.27023</ele>
        <time>2021-07-19T11:18:12Z</time>
      </trkpt>
      <trkpt lat="45.48335" lon="4.79798">
        <ele>118.33893</ele>
        <time>2021-07-19T11:18:13Z</time>
      </trkpt>
      <trkpt lat="45.48335" lon="4.79806">
        <ele>118.243805</ele>
        <time>2021-07-19T11:18:14Z</time>
      </trkpt>
      <trkpt lat="45.48334" lon="4.79815">
        <ele>118.243805</ele>
        <time>2021-07-19T11:18:15Z</time>
      </trkpt>
      <trkpt lat="45.48333" lon="4.79824">
        <ele>118.18039</ele>
        <time>2021-07-19T11:18:16Z</time>
      </trkpt>
      <trkpt lat="45.48332" lon="4.79832">
        <ele>117.84746</ele>
        <time>2021-07-19T11:18:17Z</time>
      </trkpt>
      <trkpt lat="45.48331" lon="4.79841">
        <ele>117.82103</ele>
        <time>2021-07-19T11:18:18Z</time>
      </trkpt>
      <trkpt lat="45.4833" lon="4.79849">
        <ele>117.86331</ele>
        <time>2021-07-19T11:18:19Z</time>
      </trkpt>
      <trkpt lat="45.48329" lon="4.79858">
        <ele>117.94258</ele>
        <time>2021-07-19T11:18:20Z</time>
      </trkpt>
      <trkpt lat="45.48329" lon="4.79865">
        <ele>117.84746</ele>
        <time>2021-07-19T11:18:21Z</time>
      </trkpt>
      <trkpt lat="45.4833" lon="4.79873">
        <ele>117.963715</ele>
        <time>2021-07-19T11:18:22Z</time>
      </trkpt>
      <trkpt lat="45.48332" lon="4.79881">
        <ele>117.87388</ele>
        <time>2021-07-19T11:18:23Z</time>
      </trkpt>
      <trkpt lat="45.48335" lon="4.79888">
        <ele>118.164536</ele>
        <time>2021-07-19T11:18:24Z</time>
      </trkpt>
      <trkpt lat="45.48338" lon="4.79894">
        <ele>118.349495</ele>
        <time>2021-07-19T11:18:25Z</time>
      </trkpt>
      <trkpt lat="45.48342" lon="4.799">
        <ele>118.52917</ele>
        <time>2021-07-19T11:18:26Z</time>
      </trkpt>
      <trkpt lat="45.48345" lon="4.79907">
        <ele>118.656006</ele>
        <time>2021-07-19T11:18:27Z</time>
      </trkpt>
      <trkpt lat="45.48349" lon="4.79913">
        <ele>118.54503</ele>
        <time>2021-07-19T11:18:28Z</time>
      </trkpt>
      <trkpt lat="45.48352" lon="4.7992">
        <ele>118.788124</ele>
        <time>2021-07-19T11:18:29Z</time>
      </trkpt>
      <trkpt lat="45.48356" lon="4.79926">
        <ele>118.72471</ele>
        <time>2021-07-19T11:18:30Z</time>
      </trkpt>
      <trkpt lat="45.4836" lon="4.79933">
        <ele>118.582016</ele>
        <time>2021-07-19T11:18:31Z</time>
      </trkpt>
      <trkpt lat="45.48365" lon="4.79939">
        <ele>119.147484</ele>
        <time>2021-07-19T11:18:32Z</time>
      </trkpt>
      <trkpt lat="45.48369" lon="4.79946">
        <ele>118.87796</ele>
        <time>2021-07-19T11:18:33Z</time>
      </trkpt>
      <trkpt lat="45.48372" lon="4.79953">
        <ele>118.85682</ele>
        <time>2021-07-19T11:18:34Z</time>
      </trkpt>
      <trkpt lat="45.48376" lon="4.7996">
        <ele>119.05235</ele>
        <time>2021-07-19T11:18:35Z</time>
      </trkpt>
      <trkpt lat="45.4838" lon="4.79966">
        <ele>118.92552</ele>
        <time>2021-07-19T11:18:36Z</time>
      </trkpt>
      <trkpt lat="45.48384" lon="4.79973">
        <ele>118.888535</ele>
        <time>2021-07-19T11:18:37Z</time>
      </trkpt>
      <trkpt lat="45.48388" lon="4.79979">
        <ele>118.90967</ele>
        <time>2021-07-19T11:18:38Z</time>
      </trkpt>
      <trkpt lat="45.48392" lon="4.79986">
        <ele>119.08935</ele>
        <time>2021-07-19T11:18:39Z</time>
      </trkpt>
      <trkpt lat="45.48396" lon="4.79993">
        <ele>118.64015</ele>
        <time>2021-07-19T11:18:40Z</time>
      </trkpt>
      <trkpt lat="45.48401" lon="4.8">
        <ele>118.56088</ele>
        <time>2021-07-19T11:18:41Z</time>
      </trkpt>
      <trkpt lat="45.48405" lon="4.80007">
        <ele>118.608444</ele>
        <time>2021-07-19T11:18:42Z</time>
      </trkpt>
      <trkpt lat="45.48408" lon="4.80013">
        <ele>118.26494</ele>
        <time>2021-07-19T11:18:43Z</time>
      </trkpt>
      <trkpt lat="45.48412" lon="4.8002">
        <ele>118.30722</ele>
        <time>2021-07-19T11:18:44Z</time>
      </trkpt>
      <trkpt lat="45.48415" lon="4.80027">
        <ele>118.57146</ele>
        <time>2021-07-19T11:18:45Z</time>
      </trkpt>
      <trkpt lat="45.48419" lon="4.80034">
        <ele>118.75113</ele>
        <time>2021-07-19T11:18:46Z</time>
      </trkpt>
      <trkpt lat="45.48423" lon="4.80042">
        <ele>118.708855</ele>
        <time>2021-07-19T11:18:47Z</time>
      </trkpt>
      <trkpt lat="45.48426" lon="4.80049">
        <ele>118.49747</ele>
        <time>2021-07-19T11:18:48Z</time>
      </trkpt>
      <trkpt lat="45.4843" lon="4.80055">
        <ele>118.729996</ele>
        <time>2021-07-19T11:18:49Z</time>
      </trkpt>
      <trkpt lat="45.48433" lon="4.80062">
        <ele>118.42348</ele>
        <time>2021-07-19T11:18:50Z</time>
      </trkpt>
      <trkpt lat="45.48437" lon="4.8007">
        <ele>118.36007</ele>
        <time>2021-07-19T11:18:51Z</time>
      </trkpt>
      <trkpt lat="45.4844" lon="4.80077">
        <ele>118.33893</ele>
        <time>2021-07-19T11:18:52Z</time>
      </trkpt>
      <trkpt lat="45.48443" lon="4.80085">
        <ele>118.222664</ele>
        <time>2021-07-19T11:18:53Z</time>
      </trkpt>
      <trkpt lat="45.48446" lon="4.80092">
        <ele>118.24909</ele>
        <time>2021-07-19T11:18:54Z</time>
      </trkpt>
      <trkpt lat="45.48448" lon="4.80099">
        <ele>118.20153</ele>
        <time>2021-07-19T11:18:55Z</time>
      </trkpt>
      <trkpt lat="45.48451" lon="4.80106">
        <ele>118.12755</ele>
        <time>2021-07-19T11:18:56Z</time>
      </trkpt>
      <trkpt lat="45.48453" lon="4.80114">
        <ele>118.058846</ele>
        <time>2021-07-19T11:18:57Z</time>
      </trkpt>
      <trkpt lat="45.48456" lon="4.80121">
        <ele>117.97429</ele>
        <time>2021-07-19T11:18:58Z</time>
      </trkpt>
      <trkpt lat="45.48459" lon="4.80129">
        <ele>118.19624</ele>
        <time>2021-07-19T11:18:59Z</time>
      </trkpt>
      <trkpt lat="45.48461" lon="4.80137">
        <ele>117.90559</ele>
        <time>2021-07-19T11:19:00Z</time>
      </trkpt>
      <trkpt lat="45.48464" lon="4.80144">
        <ele>117.99014</ele>
        <time>2021-07-19T11:19:01Z</time>
      </trkpt>
      <trkpt lat="45.48467" lon="4.80152">
        <ele>118.02185</ele>
        <time>2021-07-19T11:19:02Z</time>
      </trkpt>
      <trkpt lat="45.48469" lon="4.8016">
        <ele>118.164536</ele>
        <time>2021-07-19T11:19:03Z</time>
      </trkpt>
      <trkpt lat="45.48472" lon="4.80168">
        <ele>118.18039</ele>
        <time>2021-07-19T11:19:04Z</time>
      </trkpt>
      <trkpt lat="45.48475" lon="4.80176">
        <ele>118.323074</ele>
        <time>2021-07-19T11:19:05Z</time>
      </trkpt>
      <trkpt lat="45.48477" lon="4.80184">
        <ele>118.26494</ele>
        <time>2021-07-19T11:19:06Z</time>
      </trkpt>
      <trkpt lat="45.4848" lon="4.80191">
        <ele>118.296646</ele>
        <time>2021-07-19T11:19:07Z</time>
      </trkpt>
      <trkpt lat="45.48481" lon="4.80199">
        <ele>118.53974</ele>
        <time>2021-07-19T11:19:08Z</time>
      </trkpt>
      <trkpt lat="45.48484" lon="4.80207">
        <ele>118.28609</ele>
        <time>2021-07-19T11:19:09Z</time>
      </trkpt>
      <trkpt lat="45.48486" lon="4.80216">
        <ele>118.069405</ele>
        <time>2021-07-19T11:19:10Z</time>
      </trkpt>
      <trkpt lat="45.48488" lon="4.80223">
        <ele>118.09055</ele>
        <time>2021-07-19T11:19:11Z</time>
      </trkpt>
      <trkpt lat="45.48491" lon="4.80232">
        <ele>118.02714</ele>
        <time>2021-07-19T11:19:12Z</time>
      </trkpt>
      <trkpt lat="45.48493" lon="4.8024">
        <ele>117.97957</ele>
        <time>2021-07-19T11:19:13Z</time>
      </trkpt>
      <trkpt lat="45.48496" lon="4.80248">
        <ele>117.97957</ele>
        <time>2021-07-19T11:19:14Z</time>
      </trkpt>
      <trkpt lat="45.48498" lon="4.80256">
        <ele>117.90031</ele>
        <time>2021-07-19T11:19:15Z</time>
      </trkpt>
      <trkpt lat="45.485" lon="4.80264">
        <ele>117.85274</ele>
        <time>2021-07-19T11:19:16Z</time>
      </trkpt>
      <trkpt lat="45.48502" lon="4.80272">
        <ele>118.21209</ele>
        <time>2021-07-19T11:19:17Z</time>
      </trkpt>
      <trkpt lat="45.48505" lon="4.8028">
        <ele>118.36535</ele>
        <time>2021-07-19T11:19:18Z</time>
      </trkpt>
      <trkpt lat="45.48507" lon="4.80288">
        <ele>118.28079</ele>
        <time>2021-07-19T11:19:19Z</time>
      </trkpt>
      <trkpt lat="45.4851" lon="4.80296">
        <ele>118.04827</ele>
        <time>2021-07-19T11:19:20Z</time>
      </trkpt>
      <trkpt lat="45.48512" lon="4.80304">
        <ele>117.963715</ele>
        <time>2021-07-19T11:19:21Z</time>
      </trkpt>
      <trkpt lat="45.48515" lon="4.80312">
        <ele>118.085266</ele>
        <time>2021-07-19T11:19:22Z</time>
      </trkpt>
      <trkpt lat="45.48517" lon="4.80319">
        <ele>118.058846</ele>
        <time>2021-07-19T11:19:23Z</time>
      </trkpt>
      <trkpt lat="45.4852" lon="4.80327">
        <ele>118.13283</ele>
        <time>2021-07-19T11:19:24Z</time>
      </trkpt>
      <trkpt lat="45.48523" lon="4.80335">
        <ele>118.12225</ele>
        <time>2021-07-19T11:19:25Z</time>
      </trkpt>
      <trkpt lat="45.48525" lon="4.80342">
        <ele>118.058846</ele>
        <time>2021-07-19T11:19:26Z</time>
      </trkpt>
      <trkpt lat="45.48528" lon="4.8035">
        <ele>118.36007</ele>
        <time>2021-07-19T11:19:27Z</time>
      </trkpt>
      <trkpt lat="45.48531" lon="4.80357">
        <ele>118.67715</ele>
        <time>2021-07-19T11:19:28Z</time>
      </trkpt>
      <trkpt lat="45.48533" lon="4.80365">
        <ele>118.51333</ele>
        <time>2021-07-19T11:19:29Z</time>
      </trkpt>
      <trkpt lat="45.48536" lon="4.80372">
        <ele>118.25966</ele>
        <time>2021-07-19T11:19:30Z</time>
      </trkpt>
      <trkpt lat="45.48539" lon="4.8038">
        <ele>118.29137</ele>
        <time>2021-07-19T11:19:31Z</time>
      </trkpt>
      <trkpt lat="45.48541" lon="4.80387">
        <ele>118.32836</ele>
        <time>2021-07-19T11:19:32Z</time>
      </trkpt>
      <trkpt lat="45.48544" lon="4.80394">
        <ele>118.32836</ele>
        <time>2021-07-19T11:19:33Z</time>
      </trkpt>
      <trkpt lat="45.48547" lon="4.80402">
        <ele>118.41291</ele>
        <time>2021-07-19T11:19:34Z</time>
      </trkpt>
      <trkpt lat="45.4855" lon="4.80409">
        <ele>118.40763</ele>
        <time>2021-07-19T11:19:35Z</time>
      </trkpt>
      <trkpt lat="45.48552" lon="4.80415">
        <ele>118.33893</ele>
        <time>2021-07-19T11:19:36Z</time>
      </trkpt>
      <trkpt lat="45.48554" lon="4.80422">
        <ele>118.11169</ele>
        <time>2021-07-19T11:19:37Z</time>
      </trkpt>
      <trkpt lat="45.48557" lon="4.80429">
        <ele>118.20681</ele>
        <time>2021-07-19T11:19:38Z</time>
      </trkpt>
      <trkpt lat="45.48559" lon="4.80435">
        <ele>118.12755</ele>
        <time>2021-07-19T11:19:39Z</time>
      </trkpt>
      <trkpt lat="45.48562" lon="4.80442">
        <ele>118.190956</ele>
        <time>2021-07-19T11:19:40Z</time>
      </trkpt>
      <trkpt lat="45.48565" lon="4.80449">
        <ele>118.20681</ele>
        <time>2021-07-19T11:19:41Z</time>
      </trkpt>
      <trkpt lat="45.48568" lon="4.80456">
        <ele>118.502754</ele>
        <time>2021-07-19T11:19:42Z</time>
      </trkpt>
      <trkpt lat="45.48571" lon="4.80463">
        <ele>118.56088</ele>
        <time>2021-07-19T11:19:43Z</time>
      </trkpt>
      <trkpt lat="45.48575" lon="4.80471">
        <ele>118.57674</ele>
        <time>2021-07-19T11:19:44Z</time>
      </trkpt>
      <trkpt lat="45.48578" lon="4.80478">
        <ele>118.15396</ele>
        <time>2021-07-19T11:19:45Z</time>
      </trkpt>
      <trkpt lat="45.4858" lon="4.80484">
        <ele>117.98486</ele>
        <time>2021-07-19T11:19:46Z</time>
      </trkpt>
      <trkpt lat="45.48583" lon="4.80491">
        <ele>118.04299</ele>
        <time>2021-07-19T11:19:47Z</time>
      </trkpt>
      <trkpt lat="45.48586" lon="4.80498">
        <ele>118.1434</ele>
        <time>2021-07-19T11:19:48Z</time>
      </trkpt>
      <trkpt lat="45.48589" lon="4.80504">
        <ele>118.36007</ele>
        <time>2021-07-19T11:19:49Z</time>
      </trkpt>
      <trkpt lat="45.48592" lon="4.80511">
        <ele>118.296646</ele>
        <time>2021-07-19T11:19:50Z</time>
      </trkpt>
      <trkpt lat="45.48594" lon="4.80518">
        <ele>118.1064</ele>
        <time>2021-07-19T11:19:51Z</time>
      </trkpt>
      <trkpt lat="45.48597" lon="4.80525">
        <ele>118.1751</ele>
        <time>2021-07-19T11:19:52Z</time>
      </trkpt>
      <trkpt lat="45.486" lon="4.80531">
        <ele>118.18568</ele>
        <time>2021-07-19T11:19:53Z</time>
      </trkpt>
      <trkpt lat="45.48603" lon="4.80538">
        <ele>117.963715</ele>
        <time>2021-07-19T11:19:54Z</time>
      </trkpt>
      <trkpt lat="45.48605" lon="4.80545">
        <ele>118.164536</ele>
        <time>2021-07-19T11:19:55Z</time>
      </trkpt>
      <trkpt lat="45.48608" lon="4.80552">
        <ele>118.87267</ele>
        <time>2021-07-19T11:19:56Z</time>
      </trkpt>
      <trkpt lat="45.4861" lon="4.80559">
        <ele>118.54503</ele>
        <time>2021-07-19T11:19:57Z</time>
      </trkpt>
      <trkpt lat="45.48612" lon="4.80566">
        <ele>118.51861</ele>
        <time>2021-07-19T11:19:58Z</time>
      </trkpt>
      <trkpt lat="45.48615" lon="4.80573">
        <ele>118.550316</ele>
        <time>2021-07-19T11:19:59Z</time>
      </trkpt>
      <trkpt lat="45.48616" lon="4.8058">
        <ele>118.835686</ele>
        <time>2021-07-19T11:20:00Z</time>
      </trkpt>
      <trkpt lat="45.48619" lon="4.80587">
        <ele>119.1052</ele>
        <time>2021-07-19T11:20:01Z</time>
      </trkpt>
      <trkpt lat="45.48621" lon="4.80595">
        <ele>118.740555</ele>
        <time>2021-07-19T11:20:02Z</time>
      </trkpt>
      <trkpt lat="45.48624" lon="4.80602">
        <ele>118.76698</ele>
        <time>2021-07-19T11:20:03Z</time>
      </trkpt>
      <trkpt lat="45.48627" lon="4.8061">
        <ele>118.76698</ele>
        <time>2021-07-19T11:20:04Z</time>
      </trkpt>
      <trkpt lat="45.48629" lon="4.80618">
        <ele>119.099915</ele>
        <time>2021-07-19T11:20:05Z</time>
      </trkpt>
      <trkpt lat="45.48632" lon="4.80626">
        <ele>118.888535</ele>
        <time>2021-07-19T11:20:06Z</time>
      </trkpt>
      <trkpt lat="45.48634" lon="4.80633">
        <ele>119.099915</ele>
        <time>2021-07-19T11:20:07Z</time>
      </trkpt>
      <trkpt lat="45.48637" lon="4.80641">
        <ele>119.05763</ele>
        <time>2021-07-19T11:20:08Z</time>
      </trkpt>
      <trkpt lat="45.48639" lon="4.80648">
        <ele>119.200325</ele>
        <time>2021-07-19T11:20:09Z</time>
      </trkpt>
      <trkpt lat="45.4864" lon="4.80653">
        <ele>119.50155</ele>
        <time>2021-07-19T11:20:10Z</time>
      </trkpt>
      <trkpt lat="45.48643" lon="4.80661">
        <ele>119.7235</ele>
        <time>2021-07-19T11:20:11Z</time>
      </trkpt>
      <trkpt lat="45.48645" lon="4.80669">
        <ele>120.01944</ele>
        <time>2021-07-19T11:20:12Z</time>
      </trkpt>
      <trkpt lat="45.48647" lon="4.80677">
        <ele>119.84505</ele>
        <time>2021-07-19T11:20:13Z</time>
      </trkpt>
      <trkpt lat="45.48649" lon="4.80685">
        <ele>119.91903</ele>
        <time>2021-07-19T11:20:14Z</time>
      </trkpt>
      <trkpt lat="45.4865" lon="4.80692">
        <ele>119.44871</ele>
        <time>2021-07-19T11:20:15Z</time>
      </trkpt>
      <trkpt lat="45.48652" lon="4.80699">
        <ele>119.63366</ele>
        <time>2021-07-19T11:20:16Z</time>
      </trkpt>
      <trkpt lat="45.48653" lon="4.80707">
        <ele>119.78164</ele>
        <time>2021-07-19T11:20:17Z</time>
      </trkpt>
      <trkpt lat="45.48655" lon="4.80714">
        <ele>119.83977</ele>
        <time>2021-07-19T11:20:18Z</time>
      </trkpt>
      <trkpt lat="45.48657" lon="4.80721">
        <ele>120.183266</ele>
        <time>2021-07-19T11:20:19Z</time>
      </trkpt>
      <trkpt lat="45.48658" lon="4.80728">
        <ele>119.924324</ele>
        <time>2021-07-19T11:20:20Z</time>
      </trkpt>
      <trkpt lat="45.48659" lon="4.80734">
        <ele>119.91903</ele>
        <time>2021-07-19T11:20:21Z</time>
      </trkpt>
      <trkpt lat="45.4866" lon="4.80741">
        <ele>119.89262</ele>
        <time>2021-07-19T11:20:22Z</time>
      </trkpt>
      <trkpt lat="45.48661" lon="4.80748">
        <ele>119.00479</ele>
        <time>2021-07-19T11:20:23Z</time>
      </trkpt>
      <trkpt lat="45.48662" lon="4.80754">
        <ele>118.840965</ele>
        <time>2021-07-19T11:20:24Z</time>
      </trkpt>
      <trkpt lat="45.48663" lon="4.80761">
        <ele>118.693</ele>
        <time>2021-07-19T11:20:25Z</time>
      </trkpt>
      <trkpt lat="45.48664" lon="4.80768">
        <ele>118.893814</ele>
        <time>2021-07-19T11:20:26Z</time>
      </trkpt>
      <trkpt lat="45.48665" lon="4.80775">
        <ele>118.51861</ele>
        <time>2021-07-19T11:20:27Z</time>
      </trkpt>
      <trkpt lat="45.48664" lon="4.80781">
        <ele>118.708855</ele>
        <time>2021-07-19T11:20:28Z</time>
      </trkpt>
      <trkpt lat="45.48662" lon="4.80788">
        <ele>118.81983</ele>
        <time>2021-07-19T11:20:29Z</time>
      </trkpt>
      <trkpt lat="45.48661" lon="4.80795">
        <ele>118.999504</ele>
        <time>2021-07-19T11:20:30Z</time>
      </trkpt>
      <trkpt lat="45.4866" lon="4.80802">
        <ele>119.253174</ele>
        <time>2021-07-19T11:20:31Z</time>
      </trkpt>
      <trkpt lat="45.4866" lon="4.80809">
        <ele>119.41699</ele>
        <time>2021-07-19T11:20:32Z</time>
      </trkpt>
      <trkpt lat="45.48659" lon="4.80816">
        <ele>119.5174</ele>
        <time>2021-07-19T11:20:33Z</time>
      </trkpt>
      <trkpt lat="45.48659" lon="4.80823">
        <ele>119.08406</ele>
        <time>2021-07-19T11:20:34Z</time>
      </trkpt>
      <trkpt lat="45.48658" lon="4.80831">
        <ele>119.31658</ele>
        <time>2021-07-19T11:20:35Z</time>
      </trkpt>
      <trkpt lat="45.48657" lon="4.80839">
        <ele>119.11048</ele>
        <time>2021-07-19T11:20:36Z</time>
      </trkpt>
      <trkpt lat="45.48656" lon="4.80847">
        <ele>119.15804</ele>
        <time>2021-07-19T11:20:37Z</time>
      </trkpt>
      <trkpt lat="45.48656" lon="4.80855">
        <ele>118.87267</ele>
        <time>2021-07-19T11:20:38Z</time>
      </trkpt>
      <trkpt lat="45.48655" lon="4.80862">
        <ele>118.92024</ele>
        <time>2021-07-19T11:20:39Z</time>
      </trkpt>
      <trkpt lat="45.48654" lon="4.8087">
        <ele>119.49626</ele>
        <time>2021-07-19T11:20:40Z</time>
      </trkpt>
      <trkpt lat="45.48653" lon="4.80877">
        <ele>118.7617</ele>
        <time>2021-07-19T11:20:41Z</time>
      </trkpt>
      <trkpt lat="45.48652" lon="4.80885">
        <ele>119.13163</ele>
        <time>2021-07-19T11:20:42Z</time>
      </trkpt>
      <trkpt lat="45.48651" lon="4.80891">
        <ele>119.406425</ele>
        <time>2021-07-19T11:20:43Z</time>
      </trkpt>
      <trkpt lat="45.4865" lon="4.80897">
        <ele>118.835686</ele>
        <time>2021-07-19T11:20:44Z</time>
      </trkpt>
      <trkpt lat="45.4865" lon="4.80904">
        <ele>117.47753</ele>
        <time>2021-07-19T11:20:45Z</time>
      </trkpt>
      <trkpt lat="45.48649" lon="4.80908">
        <ele>118.37592</ele>
        <time>2021-07-19T11:20:46Z</time>
      </trkpt>
      <trkpt lat="45.48648" lon="4.80911">
        <ele>118.43405</ele>
        <time>2021-07-19T11:20:47Z</time>
      </trkpt>
      <trkpt lat="45.48647" lon="4.80916">
        <ele>118.629585</ele>
        <time>2021-07-19T11:20:48Z</time>
      </trkpt>
      <trkpt lat="45.48647" lon="4.80922">
        <ele>118.693</ele>
        <time>2021-07-19T11:20:49Z</time>
      </trkpt>
      <trkpt lat="45.48647" lon="4.80928">
        <ele>118.85682</ele>
        <time>2021-07-19T11:20:50Z</time>
      </trkpt>
      <trkpt lat="45.48645" lon="4.80934">
        <ele>119.40114</ele>
        <time>2021-07-19T11:20:51Z</time>
      </trkpt>
      <trkpt lat="45.48645" lon="4.8094">
        <ele>119.05763</ele>
        <time>2021-07-19T11:20:52Z</time>
      </trkpt>
      <trkpt lat="45.48645" lon="4.80947">
        <ele>119.06293</ele>
        <time>2021-07-19T11:20:53Z</time>
      </trkpt>
      <trkpt lat="45.48645" lon="4.80955">
        <ele>119.358864</ele>
        <time>2021-07-19T11:20:54Z</time>
      </trkpt>
      <trkpt lat="45.48644" lon="4.80963">
        <ele>119.37471</ele>
        <time>2021-07-19T11:20:55Z</time>
      </trkpt>
      <trkpt lat="45.48644" lon="4.8097">
        <ele>119.46984</ele>
        <time>2021-07-19T11:20:56Z</time>
      </trkpt>
      <trkpt lat="45.48644" lon="4.80977">
        <ele>119.31658</ele>
        <time>2021-07-19T11:20:57Z</time>
      </trkpt>
      <trkpt lat="45.48643" lon="4.80985">
        <ele>119.44341</ele>
        <time>2021-07-19T11:20:58Z</time>
      </trkpt>
      <trkpt lat="45.48643" lon="4.80991">
        <ele>119.21089</ele>
        <time>2021-07-19T11:20:59Z</time>
      </trkpt>
      <trkpt lat="45.48643" lon="4.80996">
        <ele>119.29017</ele>
        <time>2021-07-19T11:21:00Z</time>
      </trkpt>
      <trkpt lat="45.48642" lon="4.81002">
        <ele>118.555595</ele>
        <time>2021-07-19T11:21:01Z</time>
      </trkpt>
      <trkpt lat="45.48641" lon="4.81007">
        <ele>119.11577</ele>
        <time>2021-07-19T11:21:02Z</time>
      </trkpt>
      <trkpt lat="45.48642" lon="4.81014">
        <ele>118.603165</ele>
        <time>2021-07-19T11:21:03Z</time>
      </trkpt>
      <trkpt lat="45.48642" lon="4.81021">
        <ele>119.1052</ele>
        <time>2021-07-19T11:21:04Z</time>
      </trkpt>
      <trkpt lat="45.48642" lon="4.81027">
        <ele>118.97309</ele>
        <time>2021-07-19T11:21:05Z</time>
      </trkpt>
      <trkpt lat="45.48641" lon="4.81032">
        <ele>118.47104</ele>
        <time>2021-07-19T11:21:06Z</time>
      </trkpt>
      <trkpt lat="45.4864" lon="4.81038">
        <ele>118.006</ele>
        <time>2021-07-19T11:21:07Z</time>
      </trkpt>
      <trkpt lat="45.48641" lon="4.81044">
        <ele>118.52389</ele>
        <time>2021-07-19T11:21:08Z</time>
      </trkpt>
      <trkpt lat="45.48642" lon="4.8105">
        <ele>118.23852</ele>
        <time>2021-07-19T11:21:09Z</time>
      </trkpt>
      <trkpt lat="45.48643" lon="4.81057">
        <ele>118.86739</ele>
        <time>2021-07-19T11:21:10Z</time>
      </trkpt>
      <trkpt lat="45.48645" lon="4.81064">
        <ele>118.835686</ele>
        <time>2021-07-19T11:21:11Z</time>
      </trkpt>
      <trkpt lat="45.48647" lon="4.81071">
        <ele>118.714134</ele>
        <time>2021-07-19T11:21:12Z</time>
      </trkpt>
      <trkpt lat="45.4865" lon="4.81078">
        <ele>119.34301</ele>
        <time>2021-07-19T11:21:13Z</time>
      </trkpt>
      <trkpt lat="45.48653" lon="4.81084">
        <ele>119.390564</ele>
        <time>2021-07-19T11:21:14Z</time>
      </trkpt>
      <trkpt lat="45.48656" lon="4.8109">
        <ele>119.47512</ele>
        <time>2021-07-19T11:21:15Z</time>
      </trkpt>
      <trkpt lat="45.48659" lon="4.81096">
        <ele>119.52269</ele>
        <time>2021-07-19T11:21:16Z</time>
      </trkpt>
      <trkpt lat="45.48662" lon="4.81102">
        <ele>119.54911</ele>
        <time>2021-07-19T11:21:17Z</time>
      </trkpt>
      <trkpt lat="45.48665" lon="4.81108">
        <ele>119.53854</ele>
        <time>2021-07-19T11:21:18Z</time>
      </trkpt>
      <trkpt lat="45.48668" lon="4.81114">
        <ele>119.385284</ele>
        <time>2021-07-19T11:21:19Z</time>
      </trkpt>
      <trkpt lat="45.4867" lon="4.8112">
        <ele>119.36943</ele>
        <time>2021-07-19T11:21:20Z</time>
      </trkpt>
      <trkpt lat="45.48673" lon="4.81125">
        <ele>119.30073</ele>
        <time>2021-07-19T11:21:21Z</time>
      </trkpt>
      <trkpt lat="45.48676" lon="4.81131">
        <ele>119.0365</ele>
        <time>2021-07-19T11:21:22Z</time>
      </trkpt>
      <trkpt lat="45.48678" lon="4.81137">
        <ele>119.33244</ele>
        <time>2021-07-19T11:21:23Z</time>
      </trkpt>
      <trkpt lat="45.4868" lon="4.81142">
        <ele>119.617805</ele>
        <time>2021-07-19T11:21:24Z</time>
      </trkpt>
      <trkpt lat="45.48682" lon="4.81147">
        <ele>119.37471</ele>
        <time>2021-07-19T11:21:25Z</time>
      </trkpt>
      <trkpt lat="45.48684" lon="4.81152">
        <ele>118.814545</ele>
        <time>2021-07-19T11:21:26Z</time>
      </trkpt>
      <trkpt lat="45.48684" lon="4.81157">
        <ele>119.63366</ele>
        <time>2021-07-19T11:21:27Z</time>
      </trkpt>
      <trkpt lat="45.48682" lon="4.81162">
        <ele>118.999504</ele>
        <time>2021-07-19T11:21:28Z</time>
      </trkpt>
      <trkpt lat="45.48679" lon="4.81167">
        <ele>118.64015</ele>
        <time>2021-07-19T11:21:29Z</time>
      </trkpt>
      <trkpt lat="45.48675" lon="4.8117">
        <ele>118.92552</ele>
        <time>2021-07-19T11:21:30Z</time>
      </trkpt>
      <trkpt lat="45.4867" lon="4.81173">
        <ele>119.08935</ele>
        <time>2021-07-19T11:21:31Z</time>
      </trkpt>
      <trkpt lat="45.48666" lon="4.81178">
        <ele>118.65072</ele>
        <time>2021-07-19T11:21:32Z</time>
      </trkpt>
      <trkpt lat="45.48661" lon="4.81182">
        <ele>118.708855</ele>
        <time>2021-07-19T11:21:33Z</time>
      </trkpt>
      <trkpt lat="45.48656" lon="4.81186">
        <ele>118.68243</ele>
        <time>2021-07-19T11:21:34Z</time>
      </trkpt>
      <trkpt lat="45.4865" lon="4.81191">
        <ele>119.05235</ele>
        <time>2021-07-19T11:21:35Z</time>
      </trkpt>
      <trkpt lat="45.48646" lon="4.81194">
        <ele>119.147484</ele>
        <time>2021-07-19T11:21:36Z</time>
      </trkpt>
      <trkpt lat="45.48641" lon="4.81199">
        <ele>118.7617</ele>
        <time>2021-07-19T11:21:37Z</time>
      </trkpt>
      <trkpt lat="45.48636" lon="4.81205">
        <ele>118.51333</ele>
        <time>2021-07-19T11:21:38Z</time>
      </trkpt>
      <trkpt lat="45.48632" lon="4.81209">
        <ele>118.42348</ele>
        <time>2021-07-19T11:21:39Z</time>
      </trkpt>
      <trkpt lat="45.48628" lon="4.81213">
        <ele>118.18568</ele>
        <time>2021-07-19T11:21:40Z</time>
      </trkpt>
      <trkpt lat="45.48623" lon="4.81218">
        <ele>117.79461</ele>
        <time>2021-07-19T11:21:41Z</time>
      </trkpt>
      <trkpt lat="45.48619" lon="4.81222">
        <ele>117.75762</ele>
        <time>2021-07-19T11:21:42Z</time>
      </trkpt>
      <trkpt lat="45.48615" lon="4.81226">
        <ele>117.773476</ele>
        <time>2021-07-19T11:21:43Z</time>
      </trkpt>
      <trkpt lat="45.48612" lon="4.81231">
        <ele>117.64136</ele>
        <time>2021-07-19T11:21:44Z</time>
      </trkpt>
      <trkpt lat="45.48607" lon="4.81234">
        <ele>117.92673</ele>
        <time>2021-07-19T11:21:45Z</time>
      </trkpt>
      <trkpt lat="45.48603" lon="4.81238">
        <ele>118.04827</ele>
        <time>2021-07-19T11:21:46Z</time>
      </trkpt>
      <trkpt lat="45.486" lon="4.81241">
        <ele>118.25437</ele>
        <time>2021-07-19T11:21:47Z</time>
      </trkpt>
      <trkpt lat="45.48598" lon="4.81245">
        <ele>117.97429</ele>
        <time>2021-07-19T11:21:48Z</time>
      </trkpt>
      <trkpt lat="45.48597" lon="4.81249">
        <ele>118.28609</ele>
        <time>2021-07-19T11:21:49Z</time>
      </trkpt>
      <trkpt lat="45.48598" lon="4.81255">
        <ele>118.37592</ele>
        <time>2021-07-19T11:21:50Z</time>
      </trkpt>
      <trkpt lat="45.48599" lon="4.8126">
        <ele>118.74585</ele>
        <time>2021-07-19T11:21:51Z</time>
      </trkpt>
      <trkpt lat="45.48601" lon="4.81266">
        <ele>118.80398</ele>
        <time>2021-07-19T11:21:52Z</time>
      </trkpt>
      <trkpt lat="45.48603" lon="4.81272">
        <ele>118.86211</ele>
        <time>2021-07-19T11:21:53Z</time>
      </trkpt>
      <trkpt lat="45.48607" lon="4.81278">
        <ele>118.68243</ele>
        <time>2021-07-19T11:21:54Z</time>
      </trkpt>
      <trkpt lat="45.4861" lon="4.81284">
        <ele>118.86211</ele>
        <time>2021-07-19T11:21:55Z</time>
      </trkpt>
      <trkpt lat="45.48613" lon="4.81291">
        <ele>118.68243</ele>
        <time>2021-07-19T11:21:56Z</time>
      </trkpt>
      <trkpt lat="45.48616" lon="4.81297">
        <ele>118.67187</ele>
        <time>2021-07-19T11:21:57Z</time>
      </trkpt>
      <trkpt lat="45.4862" lon="4.81304">
        <ele>118.61902</ele>
        <time>2021-07-19T11:21:58Z</time>
      </trkpt>
      <trkpt lat="45.48623" lon="4.8131">
        <ele>118.84625</ele>
        <time>2021-07-19T11:21:59Z</time>
      </trkpt>
      <trkpt lat="45.48626" lon="4.81317">
        <ele>118.94666</ele>
        <time>2021-07-19T11:22:00Z</time>
      </trkpt>
      <trkpt lat="45.48629" lon="4.81324">
        <ele>118.67715</ele>
        <time>2021-07-19T11:22:01Z</time>
      </trkpt>
      <trkpt lat="45.48632" lon="4.81331">
        <ele>118.33364</ele>
        <time>2021-07-19T11:22:02Z</time>
      </trkpt>
      <trkpt lat="45.48636" lon="4.81337">
        <ele>118.3125</ele>
        <time>2021-07-19T11:22:03Z</time>
      </trkpt>
      <trkpt lat="45.48639" lon="4.81344">
        <ele>118.59259</ele>
        <time>2021-07-19T11:22:04Z</time>
      </trkpt>
      <trkpt lat="45.48642" lon="4.81351">
        <ele>118.49218</ele>
        <time>2021-07-19T11:22:05Z</time>
      </trkpt>
      <trkpt lat="45.48645" lon="4.81357">
        <ele>118.54503</ele>
        <time>2021-07-19T11:22:06Z</time>
      </trkpt>
      <trkpt lat="45.48648" lon="4.81364">
        <ele>118.61902</ele>
        <time>2021-07-19T11:22:07Z</time>
      </trkpt>
      <trkpt lat="45.4865" lon="4.81371">
        <ele>118.608444</ele>
        <time>2021-07-19T11:22:08Z</time>
      </trkpt>
      <trkpt lat="45.48653" lon="4.81378">
        <ele>118.30194</ele>
        <time>2021-07-19T11:22:09Z</time>
      </trkpt>
      <trkpt lat="45.48656" lon="4.81385">
        <ele>118.164536</ele>
        <time>2021-07-19T11:22:10Z</time>
      </trkpt>
      <trkpt lat="45.48659" lon="4.81392">
        <ele>118.40234</ele>
        <time>2021-07-19T11:22:11Z</time>
      </trkpt>
      <trkpt lat="45.48662" lon="4.81399">
        <ele>118.78284</ele>
        <time>2021-07-19T11:22:12Z</time>
      </trkpt>
      <trkpt lat="45.48665" lon="4.81405">
        <ele>118.48161</ele>
        <time>2021-07-19T11:22:13Z</time>
      </trkpt>
      <trkpt lat="45.48668" lon="4.81412">
        <ele>118.23852</ele>
        <time>2021-07-19T11:22:14Z</time>
      </trkpt>
      <trkpt lat="45.48671" lon="4.81419">
        <ele>118.1434</ele>
        <time>2021-07-19T11:22:15Z</time>
      </trkpt>
      <trkpt lat="45.48674" lon="4.81427">
        <ele>118.00071</ele>
        <time>2021-07-19T11:22:16Z</time>
      </trkpt>
      <trkpt lat="45.48677" lon="4.81434">
        <ele>117.94258</ele>
        <time>2021-07-19T11:22:17Z</time>
      </trkpt>
      <trkpt lat="45.4868" lon="4.81441">
        <ele>117.78932</ele>
        <time>2021-07-19T11:22:18Z</time>
      </trkpt>
      <trkpt lat="45.48684" lon="4.81449">
        <ele>118.01128</ele>
        <time>2021-07-19T11:22:19Z</time>
      </trkpt>
      <trkpt lat="45.48688" lon="4.81457">
        <ele>118.05355</ele>
        <time>2021-07-19T11:22:20Z</time>
      </trkpt>
      <trkpt lat="45.48691" lon="4.81464">
        <ele>117.94258</ele>
        <time>2021-07-19T11:22:21Z</time>
      </trkpt>
      <trkpt lat="45.48694" lon="4.81471">
        <ele>117.92144</ele>
        <time>2021-07-19T11:22:22Z</time>
      </trkpt>
      <trkpt lat="45.48698" lon="4.81478">
        <ele>117.831604</ele>
        <time>2021-07-19T11:22:23Z</time>
      </trkpt>
      <trkpt lat="45.48701" lon="4.81485">
        <ele>118.169815</ele>
        <time>2021-07-19T11:22:24Z</time>
      </trkpt>
      <trkpt lat="45.48706" lon="4.81492">
        <ele>118.455185</ele>
        <time>2021-07-19T11:22:25Z</time>
      </trkpt>
      <trkpt lat="45.4871" lon="4.81498">
        <ele>118.81983</ele>
        <time>2021-07-19T11:22:26Z</time>
      </trkpt>
      <trkpt lat="45.48714" lon="4.81503">
        <ele>118.33893</ele>
        <time>2021-07-19T11:22:27Z</time>
      </trkpt>
      <trkpt lat="45.48718" lon="4.81507">
        <ele>118.37592</ele>
        <time>2021-07-19T11:22:28Z</time>
      </trkpt>
      <trkpt lat="45.48724" lon="4.8151">
        <ele>118.4869</ele>
        <time>2021-07-19T11:22:29Z</time>
      </trkpt>
      <trkpt lat="45.48729" lon="4.81513">
        <ele>118.37592</ele>
        <time>2021-07-19T11:22:30Z</time>
      </trkpt>
      <trkpt lat="45.48735" lon="4.81515">
        <ele>118.54503</ele>
        <time>2021-07-19T11:22:31Z</time>
      </trkpt>
      <trkpt lat="45.4874" lon="4.81516">
        <ele>118.92024</ele>
        <time>2021-07-19T11:22:32Z</time>
      </trkpt>
      <trkpt lat="45.48745" lon="4.81518">
        <ele>119.03122</ele>
        <time>2021-07-19T11:22:33Z</time>
      </trkpt>
      <trkpt lat="45.4875" lon="4.81519">
        <ele>118.941376</ele>
        <time>2021-07-19T11:22:34Z</time>
      </trkpt>
      <trkpt lat="45.48756" lon="4.81521">
        <ele>118.74585</ele>
        <time>2021-07-19T11:22:35Z</time>
      </trkpt>
      <trkpt lat="45.48761" lon="4.81523">
        <ele>118.81983</ele>
        <time>2021-07-19T11:22:36Z</time>
      </trkpt>
      <trkpt lat="45.48766" lon="4.81525">
        <ele>118.86739</ele>
        <time>2021-07-19T11:22:37Z</time>
      </trkpt>
      <trkpt lat="45.48771" lon="4.81528">
        <ele>118.840965</ele>
        <time>2021-07-19T11:22:38Z</time>
      </trkpt>
      <trkpt lat="45.48776" lon="4.81531">
        <ele>118.687706</ele>
        <time>2021-07-19T11:22:39Z</time>
      </trkpt>
      <trkpt lat="45.4878" lon="4.81535">
        <ele>118.9678</ele>
        <time>2021-07-19T11:22:40Z</time>
      </trkpt>
      <trkpt lat="45.48784" lon="4.8154">
        <ele>118.90967</ele>
        <time>2021-07-19T11:22:41Z</time>
      </trkpt>
      <trkpt lat="45.48789" lon="4.81545">
        <ele>118.95194</ele>
        <time>2021-07-19T11:22:42Z</time>
      </trkpt>
      <trkpt lat="45.48794" lon="4.8155">
        <ele>118.80926</ele>
        <time>2021-07-19T11:22:43Z</time>
      </trkpt>
      <trkpt lat="45.48799" lon="4.81555">
        <ele>118.76698</ele>
        <time>2021-07-19T11:22:44Z</time>
      </trkpt>
      <trkpt lat="45.48804" lon="4.8156">
        <ele>118.87267</ele>
        <time>2021-07-19T11:22:45Z</time>
      </trkpt>
      <trkpt lat="45.48809" lon="4.81565">
        <ele>118.9308</ele>
        <time>2021-07-19T11:22:46Z</time>
      </trkpt>
      <trkpt lat="45.48814" lon="4.8157">
        <ele>119.226746</ele>
        <time>2021-07-19T11:22:47Z</time>
      </trkpt>
      <trkpt lat="45.48819" lon="4.81575">
        <ele>119.30073</ele>
        <time>2021-07-19T11:22:48Z</time>
      </trkpt>
      <trkpt lat="45.48824" lon="4.8158">
        <ele>119.20561</ele>
        <time>2021-07-19T11:22:49Z</time>
      </trkpt>
      <trkpt lat="45.48829" lon="4.81584">
        <ele>119.07349</ele>
        <time>2021-07-19T11:22:50Z</time>
      </trkpt>
      <trkpt lat="45.48834" lon="4.81588">
        <ele>118.9308</ele>
        <time>2021-07-19T11:22:51Z</time>
      </trkpt>
      <trkpt lat="45.48839" lon="4.81593">
        <ele>119.020645</ele>
        <time>2021-07-19T11:22:52Z</time>
      </trkpt>
      <trkpt lat="45.48844" lon="4.81597">
        <ele>119.099915</ele>
        <time>2021-07-19T11:22:53Z</time>
      </trkpt>
      <trkpt lat="45.48849" lon="4.81602">
        <ele>119.23732</ele>
        <time>2021-07-19T11:22:54Z</time>
      </trkpt>
      <trkpt lat="45.48854" lon="4.81606">
        <ele>119.21617</ele>
        <time>2021-07-19T11:22:55Z</time>
      </trkpt>
      <trkpt lat="45.48859" lon="4.81612">
        <ele>119.15804</ele>
        <time>2021-07-19T11:22:56Z</time>
      </trkpt>
      <trkpt lat="45.48864" lon="4.81616">
        <ele>119.121056</ele>
        <time>2021-07-19T11:22:57Z</time>
      </trkpt>
      <trkpt lat="45.48869" lon="4.81621">
        <ele>119.1739</ele>
        <time>2021-07-19T11:22:58Z</time>
      </trkpt>
      <trkpt lat="45.48874" lon="4.81625">
        <ele>118.88325</ele>
        <time>2021-07-19T11:22:59Z</time>
      </trkpt>
      <trkpt lat="45.4888" lon="4.8163">
        <ele>118.77226</ele>
        <time>2021-07-19T11:23:00Z</time>
      </trkpt>
      <trkpt lat="45.48885" lon="4.81635">
        <ele>119.121056</ele>
        <time>2021-07-19T11:23:01Z</time>
      </trkpt>
      <trkpt lat="45.4889" lon="4.8164">
        <ele>118.7617</ele>
        <time>2021-07-19T11:23:02Z</time>
      </trkpt>
      <trkpt lat="45.48895" lon="4.81645">
        <ele>118.86739</ele>
        <time>2021-07-19T11:23:03Z</time>
      </trkpt>
      <trkpt lat="45.489" lon="4.81649">
        <ele>119.01008</ele>
        <time>2021-07-19T11:23:04Z</time>
      </trkpt>
      <trkpt lat="45.48905" lon="4.81654">
        <ele>118.87796</ele>
        <time>2021-07-19T11:23:05Z</time>
      </trkpt>
      <trkpt lat="45.48911" lon="4.81659">
        <ele>119.05763</ele>
        <time>2021-07-19T11:23:06Z</time>
      </trkpt>
      <trkpt lat="45.48916" lon="4.81664">
        <ele>118.999504</ele>
        <time>2021-07-19T11:23:07Z</time>
      </trkpt>
      <trkpt lat="45.48922" lon="4.81669">
        <ele>119.06821</ele>
        <time>2021-07-19T11:23:08Z</time>
      </trkpt>
      <trkpt lat="45.48927" lon="4.81674">
        <ele>119.2426</ele>
        <time>2021-07-19T11:23:09Z</time>
      </trkpt>
      <trkpt lat="45.48933" lon="4.81679">
        <ele>119.18976</ele>
        <time>2021-07-19T11:23:10Z</time>
      </trkpt>
      <trkpt lat="45.48938" lon="4.81685">
        <ele>119.13163</ele>
        <time>2021-07-19T11:23:11Z</time>
      </trkpt>
      <trkpt lat="45.48943" lon="4.8169">
        <ele>119.08935</ele>
        <time>2021-07-19T11:23:12Z</time>
      </trkpt>
      <trkpt lat="45.48948" lon="4.81695">
        <ele>119.094635</ele>
        <time>2021-07-19T11:23:13Z</time>
      </trkpt>
      <trkpt lat="45.48954" lon="4.81701">
        <ele>119.16862</ele>
        <time>2021-07-19T11:23:14Z</time>
      </trkpt>
      <trkpt lat="45.48959" lon="4.81706">
        <ele>119.11048</ele>
        <time>2021-07-19T11:23:15Z</time>
      </trkpt>
      <trkpt lat="45.48963" lon="4.81711">
        <ele>119.226746</ele>
        <time>2021-07-19T11:23:16Z</time>
      </trkpt>
      <trkpt lat="45.48968" lon="4.81716">
        <ele>119.221466</ele>
        <time>2021-07-19T11:23:17Z</time>
      </trkpt>
      <trkpt lat="45.48972" lon="4.81721">
        <ele>119.179184</ele>
        <time>2021-07-19T11:23:18Z</time>
      </trkpt>
      <trkpt lat="45.48976" lon="4.81725">
        <ele>119.36415</ele>
        <time>2021-07-19T11:23:19Z</time>
      </trkpt>
      <trkpt lat="45.4898" lon="4.81729">
        <ele>119.06821</ele>
        <time>2021-07-19T11:23:20Z</time>
      </trkpt>
      <trkpt lat="45.48985" lon="4.81734">
        <ele>118.79869</ele>
        <time>2021-07-19T11:23:21Z</time>
      </trkpt>
      <trkpt lat="45.4899" lon="4.81738">
        <ele>118.78284</ele>
        <time>2021-07-19T11:23:22Z</time>
      </trkpt>
      <trkpt lat="45.48995" lon="4.81742">
        <ele>118.75113</ele>
        <time>2021-07-19T11:23:23Z</time>
      </trkpt>
      <trkpt lat="45.49" lon="4.81745">
        <ele>118.18568</ele>
        <time>2021-07-19T11:23:24Z</time>
      </trkpt>
      <trkpt lat="45.49006" lon="4.81748">
        <ele>118.43933</ele>
        <time>2021-07-19T11:23:25Z</time>
      </trkpt>
      <trkpt lat="45.49011" lon="4.81751">
        <ele>118.344215</ele>
        <time>2021-07-19T11:23:26Z</time>
      </trkpt>
      <trkpt lat="45.49017" lon="4.81755">
        <ele>118.37063</ele>
        <time>2021-07-19T11:23:27Z</time>
      </trkpt>
      <trkpt lat="45.49022" lon="4.81758">
        <ele>118.09583</ele>
        <time>2021-07-19T11:23:28Z</time>
      </trkpt>
      <trkpt lat="45.49028" lon="4.81762">
        <ele>118.058846</ele>
        <time>2021-07-19T11:23:29Z</time>
      </trkpt>
      <trkpt lat="45.49034" lon="4.81766">
        <ele>117.61494</ele>
        <time>2021-07-19T11:23:30Z</time>
      </trkpt>
      <trkpt lat="45.49039" lon="4.81769">
        <ele>117.79461</ele>
        <time>2021-07-19T11:23:31Z</time>
      </trkpt>
      <trkpt lat="45.49044" lon="4.81773">
        <ele>117.68892</ele>
        <time>2021-07-19T11:23:32Z</time>
      </trkpt>
      <trkpt lat="45.49049" lon="4.81778">
        <ele>117.72063</ele>
        <time>2021-07-19T11:23:33Z</time>
      </trkpt>
      <trkpt lat="45.49054" lon="4.81783">
        <ele>117.82103</ele>
        <time>2021-07-19T11:23:34Z</time>
      </trkpt>
      <trkpt lat="45.49059" lon="4.81787">
        <ele>117.65721</ele>
        <time>2021-07-19T11:23:35Z</time>
      </trkpt>
      <trkpt lat="45.49064" lon="4.81792">
        <ele>117.78932</ele>
        <time>2021-07-19T11:23:36Z</time>
      </trkpt>
      <trkpt lat="45.4907" lon="4.81797">
        <ele>117.831604</ele>
        <time>2021-07-19T11:23:37Z</time>
      </trkpt>
      <trkpt lat="45.49075" lon="4.81801">
        <ele>118.0747</ele>
        <time>2021-07-19T11:23:38Z</time>
      </trkpt>
      <trkpt lat="45.4908" lon="4.81805">
        <ele>118.164536</ele>
        <time>2021-07-19T11:23:39Z</time>
      </trkpt>
      <trkpt lat="45.49085" lon="4.81809">
        <ele>118.02714</ele>
        <time>2021-07-19T11:23:40Z</time>
      </trkpt>
      <trkpt lat="45.4909" lon="4.81813">
        <ele>117.92673</ele>
        <time>2021-07-19T11:23:41Z</time>
      </trkpt>
      <trkpt lat="45.49095" lon="4.81816">
        <ele>118.04827</ele>
        <time>2021-07-19T11:23:42Z</time>
      </trkpt>
      <trkpt lat="45.49101" lon="4.8182">
        <ele>118.09055</ele>
        <time>2021-07-19T11:23:43Z</time>
      </trkpt>
      <trkpt lat="45.49106" lon="4.81824">
        <ele>118.30194</ele>
        <time>2021-07-19T11:23:44Z</time>
      </trkpt>
      <trkpt lat="45.49112" lon="4.81828">
        <ele>118.18568</ele>
        <time>2021-07-19T11:23:45Z</time>
      </trkpt>
      <trkpt lat="45.49118" lon="4.81832">
        <ele>118.29137</ele>
        <time>2021-07-19T11:23:46Z</time>
      </trkpt>
      <trkpt lat="45.49123" lon="4.81835">
        <ele>118.33893</ele>
        <time>2021-07-19T11:23:47Z</time>
      </trkpt>
      <trkpt lat="45.4913" lon="4.81838">
        <ele>118.28609</ele>
        <time>2021-07-19T11:23:48Z</time>
      </trkpt>
      <trkpt lat="45.49135" lon="4.81841">
        <ele>118.50803</ele>
        <time>2021-07-19T11:23:49Z</time>
      </trkpt>
      <trkpt lat="45.49141" lon="4.81843">
        <ele>118.64544</ele>
        <time>2021-07-19T11:23:50Z</time>
      </trkpt>
      <trkpt lat="45.49146" lon="4.81846">
        <ele>118.38649</ele>
        <time>2021-07-19T11:23:51Z</time>
      </trkpt>
      <trkpt lat="45.49151" lon="4.81848">
        <ele>118.455185</ele>
        <time>2021-07-19T11:23:52Z</time>
      </trkpt>
      <trkpt lat="45.49156" lon="4.8185">
        <ele>118.52917</ele>
        <time>2021-07-19T11:23:53Z</time>
      </trkpt>
      <trkpt lat="45.49161" lon="4.81852">
        <ele>118.42877</ele>
        <time>2021-07-19T11:23:54Z</time>
      </trkpt>
      <trkpt lat="45.49166" lon="4.81854">
        <ele>118.243805</ele>
        <time>2021-07-19T11:23:55Z</time>
      </trkpt>
      <trkpt lat="45.49171" lon="4.81856">
        <ele>118.32836</ele>
        <time>2021-07-19T11:23:56Z</time>
      </trkpt>
      <trkpt lat="45.49176" lon="4.81859">
        <ele>118.555595</ele>
        <time>2021-07-19T11:23:57Z</time>
      </trkpt>
      <trkpt lat="45.49181" lon="4.81862">
        <ele>118.455185</ele>
        <time>2021-07-19T11:23:58Z</time>
      </trkpt>
      <trkpt lat="45.49187" lon="4.81866">
        <ele>118.29137</ele>
        <time>2021-07-19T11:23:59Z</time>
      </trkpt>
      <trkpt lat="45.49191" lon="4.81869">
        <ele>118.28079</ele>
        <time>2021-07-19T11:24:00Z</time>
      </trkpt>
      <trkpt lat="45.49197" lon="4.81874">
        <ele>118.52917</ele>
        <time>2021-07-19T11:24:01Z</time>
      </trkpt>
      <trkpt lat="45.49202" lon="4.81879">
        <ele>118.57674</ele>
        <time>2021-07-19T11:24:02Z</time>
      </trkpt>
      <trkpt lat="45.49208" lon="4.81883">
        <ele>118.22794</ele>
        <time>2021-07-19T11:24:03Z</time>
      </trkpt>
      <trkpt lat="45.49213" lon="4.81888">
        <ele>118.11169</ele>
        <time>2021-07-19T11:24:04Z</time>
      </trkpt>
      <trkpt lat="45.49218" lon="4.81892">
        <ele>118.23852</ele>
        <time>2021-07-19T11:24:05Z</time>
      </trkpt>
      <trkpt lat="45.49223" lon="4.81896">
        <ele>118.03242</ele>
        <time>2021-07-19T11:24:06Z</time>
      </trkpt>
      <trkpt lat="45.49228" lon="4.819">
        <ele>118.1064</ele>
        <time>2021-07-19T11:24:07Z</time>
      </trkpt>
      <trkpt lat="45.49233" lon="4.81904">
        <ele>118.1434</ele>
        <time>2021-07-19T11:24:08Z</time>
      </trkpt>
      <trkpt lat="45.49237" lon="4.81909">
        <ele>118.058846</ele>
        <time>2021-07-19T11:24:09Z</time>
      </trkpt>
      <trkpt lat="45.49242" lon="4.81913">
        <ele>117.94258</ele>
        <time>2021-07-19T11:24:10Z</time>
      </trkpt>
      <trkpt lat="45.49246" lon="4.81916">
        <ele>117.84217</ele>
        <time>2021-07-19T11:24:11Z</time>
      </trkpt>
      <trkpt lat="45.4925" lon="4.8192">
        <ele>117.910866</ele>
        <time>2021-07-19T11:24:12Z</time>
      </trkpt>
      <trkpt lat="45.49254" lon="4.81924">
        <ele>117.90559</ele>
        <time>2021-07-19T11:24:13Z</time>
      </trkpt>
      <trkpt lat="45.49258" lon="4.81927">
        <ele>117.8686</ele>
        <time>2021-07-19T11:24:14Z</time>
      </trkpt>
      <trkpt lat="45.49263" lon="4.81931">
        <ele>117.88445</ele>
        <time>2021-07-19T11:24:15Z</time>
      </trkpt>
      <trkpt lat="45.49267" lon="4.81934">
        <ele>117.773476</ele>
        <time>2021-07-19T11:24:16Z</time>
      </trkpt>
      <trkpt lat="45.49271" lon="4.81938">
        <ele>117.71005</ele>
        <time>2021-07-19T11:24:17Z</time>
      </trkpt>
      <trkpt lat="45.49274" lon="4.81943">
        <ele>117.725914</ele>
        <time>2021-07-19T11:24:18Z</time>
      </trkpt>
      <trkpt lat="45.49278" lon="4.81946">
        <ele>117.83688</ele>
        <time>2021-07-19T11:24:19Z</time>
      </trkpt>
      <trkpt lat="45.4928" lon="4.81947">
        <ele>117.493385</ele>
        <time>2021-07-19T11:24:20Z</time>
      </trkpt>
      <trkpt lat="45.4928" lon="4.81948">
        <ele>117.4564</ele>
        <time>2021-07-19T11:24:21Z</time>
      </trkpt>
      <trkpt lat="45.4928" lon="4.81948">
        <ele>117.32956</ele>
        <time>2021-07-19T11:24:22Z</time>
      </trkpt>
      <trkpt lat="45.4928" lon="4.81948">
        <ele>117.12347</ele>
        <time>2021-07-19T11:24:23Z</time>
      </trkpt>
      <trkpt lat="45.4928" lon="4.81948">
        <ele>117.11817</ele>
        <time>2021-07-19T11:24:24Z</time>
      </trkpt>
      <trkpt lat="45.4928" lon="4.81948">
        <ele>116.95435</ele>
        <time>2021-07-19T11:24:25Z</time>
      </trkpt>
      <trkpt lat="45.4928" lon="4.81948">
        <ele>116.737686</ele>
        <time>2021-07-19T11:24:26Z</time>
      </trkpt>
      <trkpt lat="45.4928" lon="4.81948">
        <ele>116.737686</ele>
        <time>2021-07-19T11:24:26Z</time>
      </trkpt>
      <trkpt lat="45.4928" lon="4.81948">
        <ele>116.737686</ele>
        <time>2021-07-19T11:24:26Z</time>
      </trkpt>
      <trkpt lat="45.49298" lon="4.81984">
        <ele>116.67426</ele>
        <time>2021-07-19T11:27:50Z</time>
      </trkpt>
      <trkpt lat="45.49299" lon="4.81987">
        <ele>116.69012</ele>
        <time>2021-07-19T11:27:51Z</time>
      </trkpt>
      <trkpt lat="45.49301" lon="4.8199">
        <ele>116.69012</ele>
        <time>2021-07-19T11:27:52Z</time>
      </trkpt>
      <trkpt lat="45.49303" lon="4.81993">
        <ele>116.72711</ele>
        <time>2021-07-19T11:27:53Z</time>
      </trkpt>
      <trkpt lat="45.49305" lon="4.81995">
        <ele>116.67426</ele>
        <time>2021-07-19T11:27:54Z</time>
      </trkpt>
      <trkpt lat="45.49307" lon="4.81997">
        <ele>116.769394</ele>
        <time>2021-07-19T11:27:55Z</time>
      </trkpt>
      <trkpt lat="45.49309" lon="4.81998">
        <ele>116.7641</ele>
        <time>2021-07-19T11:27:56Z</time>
      </trkpt>
      <trkpt lat="45.49311" lon="4.82">
        <ele>116.843376</ele>
        <time>2021-07-19T11:27:57Z</time>
      </trkpt>
      <trkpt lat="45.49313" lon="4.82001">
        <ele>116.82752</ele>
        <time>2021-07-19T11:27:58Z</time>
      </trkpt>
      <trkpt lat="45.49315" lon="4.82002">
        <ele>116.663704</ele>
        <time>2021-07-19T11:27:59Z</time>
      </trkpt>
      <trkpt lat="45.49317" lon="4.82003">
        <ele>116.73239</ele>
        <time>2021-07-19T11:28:00Z</time>
      </trkpt>
      <trkpt lat="45.49318" lon="4.82004">
        <ele>116.848656</ele>
        <time>2021-07-19T11:28:01Z</time>
      </trkpt>
      <trkpt lat="45.4932" lon="4.82005">
        <ele>116.949066</ele>
        <time>2021-07-19T11:28:02Z</time>
      </trkpt>
      <trkpt lat="45.49321" lon="4.82006">
        <ele>117.24501</ele>
        <time>2021-07-19T11:28:03Z</time>
      </trkpt>
      <trkpt lat="45.49323" lon="4.82009">
        <ele>117.26615</ele>
        <time>2021-07-19T11:28:04Z</time>
      </trkpt>
      <trkpt lat="45.49328" lon="4.82017">
        <ele>117.17631</ele>
        <time>2021-07-19T11:28:05Z</time>
      </trkpt>
      <trkpt lat="45.49333" lon="4.82023">
        <ele>117.11817</ele>
        <time>2021-07-19T11:28:06Z</time>
      </trkpt>
      <trkpt lat="45.49338" lon="4.82029">
        <ele>117.64664</ele>
        <time>2021-07-19T11:28:07Z</time>
      </trkpt>
      <trkpt lat="45.49342" lon="4.82033">
        <ele>117.44582</ele>
        <time>2021-07-19T11:28:08Z</time>
      </trkpt>
      <trkpt lat="45.49347" lon="4.82038">
        <ele>117.4564</ele>
        <time>2021-07-19T11:28:09Z</time>
      </trkpt>
      <trkpt lat="45.49351" lon="4.82042">
        <ele>117.97429</ele>
        <time>2021-07-19T11:28:10Z</time>
      </trkpt>
      <trkpt lat="45.49356" lon="4.82045">
        <ele>118.085266</ele>
        <time>2021-07-19T11:28:11Z</time>
      </trkpt>
      <trkpt lat="45.4936" lon="4.82049">
        <ele>118.058846</ele>
        <time>2021-07-19T11:28:12Z</time>
      </trkpt>
      <trkpt lat="45.49363" lon="4.82054">
        <ele>117.90559</ele>
        <time>2021-07-19T11:28:13Z</time>
      </trkpt>
      <trkpt lat="45.49367" lon="4.82058">
        <ele>116.75354</ele>
        <time>2021-07-19T11:28:14Z</time>
      </trkpt>
      <trkpt lat="45.49371" lon="4.82061">
        <ele>117.72063</ele>
        <time>2021-07-19T11:28:15Z</time>
      </trkpt>
      <trkpt lat="45.49375" lon="4.82064">
        <ele>117.6255</ele>
        <time>2021-07-19T11:28:16Z</time>
      </trkpt>
      <trkpt lat="45.49378" lon="4.82066">
        <ele>117.472244</ele>
        <time>2021-07-19T11:28:17Z</time>
      </trkpt>
      <trkpt lat="45.49381" lon="4.8207">
        <ele>117.699486</ele>
        <time>2021-07-19T11:28:18Z</time>
      </trkpt>
      <trkpt lat="45.49384" lon="4.82072">
        <ele>117.82103</ele>
        <time>2021-07-19T11:28:19Z</time>
      </trkpt>
      <trkpt lat="45.49388" lon="4.82075">
        <ele>117.74705</ele>
        <time>2021-07-19T11:28:20Z</time>
      </trkpt>
      <trkpt lat="45.49392" lon="4.82078">
        <ele>117.90559</ele>
        <time>2021-07-19T11:28:21Z</time>
      </trkpt>
      <trkpt lat="45.49396" lon="4.82084">
        <ele>118.069405</ele>
        <time>2021-07-19T11:28:22Z</time>
      </trkpt>
      <trkpt lat="45.494" lon="4.82085">
        <ele>118.03242</ele>
        <time>2021-07-19T11:28:23Z</time>
      </trkpt>
      <trkpt lat="45.49405" lon="4.82085">
        <ele>118.42877</ele>
        <time>2021-07-19T11:28:24Z</time>
      </trkpt>
      <trkpt lat="45.4941" lon="4.82088">
        <ele>118.116974</ele>
        <time>2021-07-19T11:28:25Z</time>
      </trkpt>
      <trkpt lat="45.49415" lon="4.82091">
        <ele>118.33893</ele>
        <time>2021-07-19T11:28:26Z</time>
      </trkpt>
      <trkpt lat="45.49419" lon="4.82099">
        <ele>118.15396</ele>
        <time>2021-07-19T11:28:27Z</time>
      </trkpt>
      <trkpt lat="45.49424" lon="4.82104">
        <ele>118.13283</ele>
        <time>2021-07-19T11:28:28Z</time>
      </trkpt>
      <trkpt lat="45.49429" lon="4.82109">
        <ele>118.349495</ele>
        <time>2021-07-19T11:28:29Z</time>
      </trkpt>
      <trkpt lat="45.49434" lon="4.82114">
        <ele>118.42348</ele>
        <time>2021-07-19T11:28:30Z</time>
      </trkpt>
      <trkpt lat="45.49439" lon="4.82117">
        <ele>118.48161</ele>
        <time>2021-07-19T11:28:31Z</time>
      </trkpt>
      <trkpt lat="45.49444" lon="4.82119">
        <ele>118.25437</ele>
        <time>2021-07-19T11:28:32Z</time>
      </trkpt>
      <trkpt lat="45.4945" lon="4.82124">
        <ele>118.38649</ele>
        <time>2021-07-19T11:28:33Z</time>
      </trkpt>
      <trkpt lat="45.49455" lon="4.82128">
        <ele>118.77226</ele>
        <time>2021-07-19T11:28:34Z</time>
      </trkpt>
      <trkpt lat="45.4946" lon="4.82132">
        <ele>118.656006</ele>
        <time>2021-07-19T11:28:35Z</time>
      </trkpt>
      <trkpt lat="45.49464" lon="4.82133">
        <ele>118.888535</ele>
        <time>2021-07-19T11:28:36Z</time>
      </trkpt>
      <trkpt lat="45.4947" lon="4.82136">
        <ele>118.85154</ele>
        <time>2021-07-19T11:28:37Z</time>
      </trkpt>
      <trkpt lat="45.49474" lon="4.82141">
        <ele>119.00479</ele>
        <time>2021-07-19T11:28:38Z</time>
      </trkpt>
      <trkpt lat="45.4948" lon="4.82145">
        <ele>118.835686</ele>
        <time>2021-07-19T11:28:39Z</time>
      </trkpt>
      <trkpt lat="45.49485" lon="4.82149">
        <ele>119.099915</ele>
        <time>2021-07-19T11:28:40Z</time>
      </trkpt>
      <trkpt lat="45.4949" lon="4.82151">
        <ele>119.06821</ele>
        <time>2021-07-19T11:28:41Z</time>
      </trkpt>
      <trkpt lat="45.49495" lon="4.82153">
        <ele>118.999504</ele>
        <time>2021-07-19T11:28:42Z</time>
      </trkpt>
      <trkpt lat="45.495" lon="4.82155">
        <ele>118.634865</ele>
        <time>2021-07-19T11:28:43Z</time>
      </trkpt>
      <trkpt lat="45.49505" lon="4.82158">
        <ele>118.49218</ele>
        <time>2021-07-19T11:28:44Z</time>
      </trkpt>
      <trkpt lat="45.49511" lon="4.82158">
        <ele>118.42877</ele>
        <time>2021-07-19T11:28:45Z</time>
      </trkpt>
      <trkpt lat="45.49515" lon="4.82161">
        <ele>118.582016</ele>
        <time>2021-07-19T11:28:46Z</time>
      </trkpt>
      <trkpt lat="45.4952" lon="4.82166">
        <ele>118.27023</ele>
        <time>2021-07-19T11:28:47Z</time>
      </trkpt>
      <trkpt lat="45.49524" lon="4.8217">
        <ele>118.555595</ele>
        <time>2021-07-19T11:28:48Z</time>
      </trkpt>
      <trkpt lat="45.49529" lon="4.82175">
        <ele>118.455185</ele>
        <time>2021-07-19T11:28:49Z</time>
      </trkpt>
      <trkpt lat="45.49534" lon="4.82179">
        <ele>118.38649</ele>
        <time>2021-07-19T11:28:50Z</time>
      </trkpt>
      <trkpt lat="45.49538" lon="4.82183">
        <ele>118.41291</ele>
        <time>2021-07-19T11:28:51Z</time>
      </trkpt>
      <trkpt lat="45.49542" lon="4.82186">
        <ele>118.43933</ele>
        <time>2021-07-19T11:28:52Z</time>
      </trkpt>
      <trkpt lat="45.49548" lon="4.82192">
        <ele>118.51333</ele>
        <time>2021-07-19T11:28:53Z</time>
      </trkpt>
      <trkpt lat="45.49553" lon="4.82198">
        <ele>118.77756</ele>
        <time>2021-07-19T11:28:54Z</time>
      </trkpt>
      <trkpt lat="45.49559" lon="4.82202">
        <ele>118.61372</ele>
        <time>2021-07-19T11:28:55Z</time>
      </trkpt>
      <trkpt lat="45.49563" lon="4.82206">
        <ele>118.71942</ele>
        <time>2021-07-19T11:28:56Z</time>
      </trkpt>
      <trkpt lat="45.49567" lon="4.82209">
        <ele>118.82511</ele>
        <time>2021-07-19T11:28:57Z</time>
      </trkpt>
      <trkpt lat="45.4957" lon="4.82211">
        <ele>118.88325</ele>
        <time>2021-07-19T11:28:58Z</time>
      </trkpt>
      <trkpt lat="45.49572" lon="4.82213">
        <ele>118.656006</ele>
        <time>2021-07-19T11:28:59Z</time>
      </trkpt>
      <trkpt lat="45.49574" lon="4.82213">
        <ele>118.42877</ele>
        <time>2021-07-19T11:29:00Z</time>
      </trkpt>
      <trkpt lat="45.49575" lon="4.82213">
        <ele>118.36535</ele>
        <time>2021-07-19T11:29:01Z</time>
      </trkpt>
      <trkpt lat="45.49575" lon="4.82213">
        <ele>118.3125</ele>
        <time>2021-07-19T11:29:02Z</time>
      </trkpt>
      <trkpt lat="45.49576" lon="4.82213">
        <ele>118.31779</ele>
        <time>2021-07-19T11:29:03Z</time>
      </trkpt>
      <trkpt lat="45.49576" lon="4.82213">
        <ele>118.27023</ele>
        <time>2021-07-19T11:29:04Z</time>
      </trkpt>
      <trkpt lat="45.49576" lon="4.82212">
        <ele>118.72471</ele>
        <time>2021-07-19T11:29:05Z</time>
      </trkpt>
      <trkpt lat="45.49576" lon="4.82212">
        <ele>118.65072</ele>
        <time>2021-07-19T11:29:06Z</time>
      </trkpt>
      <trkpt lat="45.49576" lon="4.82212">
        <ele>118.323074</ele>
        <time>2021-07-19T11:29:07Z</time>
      </trkpt>
      <trkpt lat="45.49576" lon="4.82212">
        <ele>118.323074</ele>
        <time>2021-07-19T11:29:07Z</time>
      </trkpt>
      <trkpt lat="45.49576" lon="4.82212">
        <ele>118.323074</ele>
        <time>2021-07-19T11:29:07Z</time>
      </trkpt>
      <trkpt lat="45.496" lon="4.82233">
        <ele>118.68243</ele>
        <time>2021-07-19T11:29:56Z</time>
      </trkpt>
      <trkpt lat="45.49603" lon="4.82237">
        <ele>118.80398</ele>
        <time>2021-07-19T11:29:57Z</time>
      </trkpt>
      <trkpt lat="45.49608" lon="4.82241">
        <ele>119.11048</ele>
        <time>2021-07-19T11:29:58Z</time>
      </trkpt>
      <trkpt lat="45.49611" lon="4.82243">
        <ele>118.75641</ele>
        <time>2021-07-19T11:29:59Z</time>
      </trkpt>
      <trkpt lat="45.49614" lon="4.82245">
        <ele>118.61902</ele>
        <time>2021-07-19T11:30:00Z</time>
      </trkpt>
      <trkpt lat="45.49617" lon="4.82245">
        <ele>118.86739</ele>
        <time>2021-07-19T11:30:01Z</time>
      </trkpt>
      <trkpt lat="45.49619" lon="4.82244">
        <ele>118.90439</ele>
        <time>2021-07-19T11:30:02Z</time>
      </trkpt>
      <trkpt lat="45.49621" lon="4.82244">
        <ele>118.68243</ele>
        <time>2021-07-19T11:30:03Z</time>
      </trkpt>
      <trkpt lat="45.49624" lon="4.82242">
        <ele>118.788124</ele>
        <time>2021-07-19T11:30:04Z</time>
      </trkpt>
      <trkpt lat="45.49628" lon="4.82239">
        <ele>118.941376</ele>
        <time>2021-07-19T11:30:05Z</time>
      </trkpt>
      <trkpt lat="45.4963" lon="4.82238">
        <ele>119.11048</ele>
        <time>2021-07-19T11:30:06Z</time>
      </trkpt>
      <trkpt lat="45.49632" lon="4.82238">
        <ele>119.1739</ele>
        <time>2021-07-19T11:30:07Z</time>
      </trkpt>
      <trkpt lat="45.49633" lon="4.82239">
        <ele>119.35358</ele>
        <time>2021-07-19T11:30:08Z</time>
      </trkpt>
      <trkpt lat="45.49636" lon="4.82241">
        <ele>119.279594</ele>
        <time>2021-07-19T11:30:09Z</time>
      </trkpt>
      <trkpt lat="45.49638" lon="4.82245">
        <ele>119.68651</ele>
        <time>2021-07-19T11:30:10Z</time>
      </trkpt>
      <trkpt lat="45.49641" lon="4.82249">
        <ele>119.74993</ele>
        <time>2021-07-19T11:30:11Z</time>
      </trkpt>
      <trkpt lat="45.49643" lon="4.82255">
        <ele>119.80277</ele>
        <time>2021-07-19T11:30:12Z</time>
      </trkpt>
      <trkpt lat="45.49646" lon="4.82261">
        <ele>119.86619</ele>
        <time>2021-07-19T11:30:13Z</time>
      </trkpt>
      <trkpt lat="45.4965" lon="4.82268">
        <ele>120.156845</ele>
        <time>2021-07-19T11:30:14Z</time>
      </trkpt>
      <trkpt lat="45.49655" lon="4.82276">
        <ele>120.36823</ele>
        <time>2021-07-19T11:30:15Z</time>
      </trkpt>
      <trkpt lat="45.4966" lon="4.82287">
        <ele>120.33124</ele>
        <time>2021-07-19T11:30:16Z</time>
      </trkpt>
      <trkpt lat="45.49665" lon="4.82296">
        <ele>120.24668</ele>
        <time>2021-07-19T11:30:17Z</time>
      </trkpt>
      <trkpt lat="45.49669" lon="4.82304">
        <ele>120.674736</ele>
        <time>2021-07-19T11:30:18Z</time>
      </trkpt>
      <trkpt lat="45.49674" lon="4.8231">
        <ele>121.06052</ele>
        <time>2021-07-19T11:30:19Z</time>
      </trkpt>
      <trkpt lat="45.49677" lon="4.82315">
        <ele>121.36174</ele>
        <time>2021-07-19T11:30:20Z</time>
      </trkpt>
      <trkpt lat="45.4968" lon="4.8232">
        <ele>121.54141</ele>
        <time>2021-07-19T11:30:21Z</time>
      </trkpt>
      <trkpt lat="45.49684" lon="4.82325">
        <ele>121.863785</ele>
        <time>2021-07-19T11:30:22Z</time>
      </trkpt>
      <trkpt lat="45.49688" lon="4.82331">
        <ele>122.275986</ele>
        <time>2021-07-19T11:30:23Z</time>
      </trkpt>
      <trkpt lat="45.49691" lon="4.82335">
        <ele>122.376396</ele>
        <time>2021-07-19T11:30:24Z</time>
      </trkpt>
      <trkpt lat="45.49695" lon="4.82339">
        <ele>122.21786</ele>
        <time>2021-07-19T11:30:25Z</time>
      </trkpt>
      <trkpt lat="45.49698" lon="4.82344">
        <ele>122.37111</ele>
        <time>2021-07-19T11:30:26Z</time>
      </trkpt>
      <trkpt lat="45.49702" lon="4.82349">
        <ele>121.990616</ele>
        <time>2021-07-19T11:30:27Z</time>
      </trkpt>
      <trkpt lat="45.49705" lon="4.82355">
        <ele>121.81622</ele>
        <time>2021-07-19T11:30:28Z</time>
      </trkpt>
      <trkpt lat="45.49708" lon="4.8236">
        <ele>121.57313</ele>
        <time>2021-07-19T11:30:29Z</time>
      </trkpt>
      <trkpt lat="45.49711" lon="4.82366">
        <ele>121.68939</ele>
        <time>2021-07-19T11:30:30Z</time>
      </trkpt>
      <trkpt lat="45.49715" lon="4.82372">
        <ele>121.80036</ele>
        <time>2021-07-19T11:30:31Z</time>
      </trkpt>
      <trkpt lat="45.49719" lon="4.82378">
        <ele>121.69467</ele>
        <time>2021-07-19T11:30:32Z</time>
      </trkpt>
      <trkpt lat="45.49722" lon="4.82385">
        <ele>122.741035</ele>
        <time>2021-07-19T11:30:33Z</time>
      </trkpt>
      <trkpt lat="45.49726" lon="4.82391">
        <ele>121.657684</ele>
        <time>2021-07-19T11:30:34Z</time>
      </trkpt>
      <trkpt lat="45.49729" lon="4.82398">
        <ele>121.94305</ele>
        <time>2021-07-19T11:30:35Z</time>
      </trkpt>
      <trkpt lat="45.49733" lon="4.82404">
        <ele>121.758095</ele>
        <time>2021-07-19T11:30:36Z</time>
      </trkpt>
      <trkpt lat="45.49736" lon="4.82411">
        <ele>121.478004</ele>
        <time>2021-07-19T11:30:37Z</time>
      </trkpt>
      <trkpt lat="45.4974" lon="4.82419">
        <ele>121.95891</ele>
        <time>2021-07-19T11:30:38Z</time>
      </trkpt>
      <trkpt lat="45.49744" lon="4.82426">
        <ele>121.72638</ele>
        <time>2021-07-19T11:30:39Z</time>
      </trkpt>
      <trkpt lat="45.49748" lon="4.82433">
        <ele>121.419876</ele>
        <time>2021-07-19T11:30:40Z</time>
      </trkpt>
      <trkpt lat="45.49751" lon="4.82438">
        <ele>121.41459</ele>
        <time>2021-07-19T11:30:41Z</time>
      </trkpt>
      <trkpt lat="45.49754" lon="4.82444">
        <ele>121.89549</ele>
        <time>2021-07-19T11:30:42Z</time>
      </trkpt>
      <trkpt lat="45.49758" lon="4.8245">
        <ele>121.869064</ele>
        <time>2021-07-19T11:30:43Z</time>
      </trkpt>
      <trkpt lat="45.49762" lon="4.82456">
        <ele>121.72638</ele>
        <time>2021-07-19T11:30:44Z</time>
      </trkpt>
      <trkpt lat="45.49764" lon="4.82464">
        <ele>121.525566</ele>
        <time>2021-07-19T11:30:45Z</time>
      </trkpt>
      <trkpt lat="45.49764" lon="4.82471">
        <ele>121.14507</ele>
        <time>2021-07-19T11:30:46Z</time>
      </trkpt>
      <trkpt lat="45.49762" lon="4.82477">
        <ele>121.15035</ele>
        <time>2021-07-19T11:30:47Z</time>
      </trkpt>
      <trkpt lat="45.49758" lon="4.82483">
        <ele>121.271904</ele>
        <time>2021-07-19T11:30:48Z</time>
      </trkpt>
      <trkpt lat="45.49754" lon="4.82487">
        <ele>121.16093</ele>
        <time>2021-07-19T11:30:49Z</time>
      </trkpt>
      <trkpt lat="45.49749" lon="4.82493">
        <ele>121.36703</ele>
        <time>2021-07-19T11:30:50Z</time>
      </trkpt>
      <trkpt lat="45.49744" lon="4.82498">
        <ele>120.78572</ele>
        <time>2021-07-19T11:30:51Z</time>
      </trkpt>
      <trkpt lat="45.4974" lon="4.82504">
        <ele>120.78572</ele>
        <time>2021-07-19T11:30:52Z</time>
      </trkpt>
      <trkpt lat="45.49734" lon="4.8251">
        <ele>120.80157</ele>
        <time>2021-07-19T11:30:53Z</time>
      </trkpt>
      <trkpt lat="45.49729" lon="4.82516">
        <ele>120.83857</ele>
        <time>2021-07-19T11:30:54Z</time>
      </trkpt>
      <trkpt lat="45.49723" lon="4.82522">
        <ele>120.547905</ele>
        <time>2021-07-19T11:30:55Z</time>
      </trkpt>
      <trkpt lat="45.49718" lon="4.82528">
        <ele>120.60603</ele>
        <time>2021-07-19T11:30:56Z</time>
      </trkpt>
      <trkpt lat="45.49712" lon="4.82533">
        <ele>120.73816</ele>
        <time>2021-07-19T11:30:57Z</time>
      </trkpt>
      <trkpt lat="45.49707" lon="4.8254">
        <ele>120.76457</ele>
        <time>2021-07-19T11:30:58Z</time>
      </trkpt>
      <trkpt lat="45.49701" lon="4.82546">
        <ele>120.73287</ele>
        <time>2021-07-19T11:30:59Z</time>
      </trkpt>
      <trkpt lat="45.49696" lon="4.82552">
        <ele>120.25197</ele>
        <time>2021-07-19T11:31:00Z</time>
      </trkpt>
      <trkpt lat="45.49691" lon="4.82557">
        <ele>120.14099</ele>
        <time>2021-07-19T11:31:01Z</time>
      </trkpt>
      <trkpt lat="45.49686" lon="4.82563">
        <ele>120.35766</ele>
        <time>2021-07-19T11:31:02Z</time>
      </trkpt>
      <trkpt lat="45.49681" lon="4.82568">
        <ele>120.11456</ele>
        <time>2021-07-19T11:31:03Z</time>
      </trkpt>
      <trkpt lat="45.49676" lon="4.82573">
        <ele>119.58082</ele>
        <time>2021-07-19T11:31:04Z</time>
      </trkpt>
      <trkpt lat="45.49672" lon="4.82577">
        <ele>119.385284</ele>
        <time>2021-07-19T11:31:05Z</time>
      </trkpt>
      <trkpt lat="45.49669" lon="4.8258">
        <ele>119.33244</ele>
        <time>2021-07-19T11:31:06Z</time>
      </trkpt>
      <trkpt lat="45.49668" lon="4.82581">
        <ele>119.226746</ele>
        <time>2021-07-19T11:31:07Z</time>
      </trkpt>
      <trkpt lat="45.49668" lon="4.82584">
        <ele>119.29017</ele>
        <time>2021-07-19T11:31:08Z</time>
      </trkpt>
      <trkpt lat="45.4967" lon="4.8259">
        <ele>119.60725</ele>
        <time>2021-07-19T11:31:09Z</time>
      </trkpt>
      <trkpt lat="45.49672" lon="4.82597">
        <ele>119.31658</ele>
        <time>2021-07-19T11:31:10Z</time>
      </trkpt>
      <trkpt lat="45.49674" lon="4.82604">
        <ele>119.45399</ele>
        <time>2021-07-19T11:31:11Z</time>
      </trkpt>
      <trkpt lat="45.49677" lon="4.82611">
        <ele>119.70765</ele>
        <time>2021-07-19T11:31:12Z</time>
      </trkpt>
      <trkpt lat="45.49679" lon="4.82617">
        <ele>119.68651</ele>
        <time>2021-07-19T11:31:13Z</time>
      </trkpt>
      <trkpt lat="45.49683" lon="4.82624">
        <ele>119.63895</ele>
        <time>2021-07-19T11:31:14Z</time>
      </trkpt>
      <trkpt lat="45.49686" lon="4.8263">
        <ele>119.506836</ele>
        <time>2021-07-19T11:31:15Z</time>
      </trkpt>
      <trkpt lat="45.49691" lon="4.82637">
        <ele>119.48041</ele>
        <time>2021-07-19T11:31:16Z</time>
      </trkpt>
      <trkpt lat="45.49694" lon="4.82643">
        <ele>119.52269</ele>
        <time>2021-07-19T11:31:17Z</time>
      </trkpt>
      <trkpt lat="45.49698" lon="4.8265">
        <ele>119.59667</ele>
        <time>2021-07-19T11:31:18Z</time>
      </trkpt>
      <trkpt lat="45.49702" lon="4.82656">
        <ele>119.776344</ele>
        <time>2021-07-19T11:31:19Z</time>
      </trkpt>
      <trkpt lat="45.49706" lon="4.82663">
        <ele>119.82919</ele>
        <time>2021-07-19T11:31:20Z</time>
      </trkpt>
      <trkpt lat="45.4971" lon="4.82669">
        <ele>119.88204</ele>
        <time>2021-07-19T11:31:21Z</time>
      </trkpt>
      <trkpt lat="45.49714" lon="4.82676">
        <ele>120.14627</ele>
        <time>2021-07-19T11:31:22Z</time>
      </trkpt>
      <trkpt lat="45.49718" lon="4.82682">
        <ele>120.209694</ele>
        <time>2021-07-19T11:31:23Z</time>
      </trkpt>
      <trkpt lat="45.49722" lon="4.82689">
        <ele>120.23083</ele>
        <time>2021-07-19T11:31:24Z</time>
      </trkpt>
      <trkpt lat="45.49726" lon="4.82695">
        <ele>120.48978</ele>
        <time>2021-07-19T11:31:25Z</time>
      </trkpt>
      <trkpt lat="45.4973" lon="4.82702">
        <ele>120.33124</ele>
        <time>2021-07-19T11:31:26Z</time>
      </trkpt>
      <trkpt lat="45.49733" lon="4.82707">
        <ele>119.60195</ele>
        <time>2021-07-19T11:31:27Z</time>
      </trkpt>
      <trkpt lat="45.49738" lon="4.82713">
        <ele>119.60195</ele>
        <time>2021-07-19T11:31:28Z</time>
      </trkpt>
      <trkpt lat="45.49741" lon="4.8272">
        <ele>119.44341</ele>
        <time>2021-07-19T11:31:29Z</time>
      </trkpt>
      <trkpt lat="45.49745" lon="4.82727">
        <ele>119.73408</ele>
        <time>2021-07-19T11:31:30Z</time>
      </trkpt>
      <trkpt lat="45.49749" lon="4.82734">
        <ele>119.94546</ele>
        <time>2021-07-19T11:31:31Z</time>
      </trkpt>
      <trkpt lat="45.49754" lon="4.8274">
        <ele>119.59139</ele>
        <time>2021-07-19T11:31:32Z</time>
      </trkpt>
      <trkpt lat="45.49758" lon="4.82747">
        <ele>119.7235</ele>
        <time>2021-07-19T11:31:33Z</time>
      </trkpt>
      <trkpt lat="45.49762" lon="4.82754">
        <ele>119.72879</ele>
        <time>2021-07-19T11:31:34Z</time>
      </trkpt>
      <trkpt lat="45.49766" lon="4.82761">
        <ele>119.80277</ele>
        <time>2021-07-19T11:31:35Z</time>
      </trkpt>
      <trkpt lat="45.4977" lon="4.82768">
        <ele>119.74993</ele>
        <time>2021-07-19T11:31:36Z</time>
      </trkpt>
      <trkpt lat="45.49774" lon="4.82775">
        <ele>119.63895</ele>
        <time>2021-07-19T11:31:37Z</time>
      </trkpt>
      <trkpt lat="45.49778" lon="4.82782">
        <ele>119.771065</ele>
        <time>2021-07-19T11:31:38Z</time>
      </trkpt>
      <trkpt lat="45.49783" lon="4.82787">
        <ele>119.99831</ele>
        <time>2021-07-19T11:31:39Z</time>
      </trkpt>
      <trkpt lat="45.49786" lon="4.82793">
        <ele>120.051155</ele>
        <time>2021-07-19T11:31:40Z</time>
      </trkpt>
      <trkpt lat="45.4979" lon="4.828">
        <ele>119.78164</ele>
        <time>2021-07-19T11:31:41Z</time>
      </trkpt>
      <trkpt lat="45.49794" lon="4.82805">
        <ele>119.88733</ele>
        <time>2021-07-19T11:31:42Z</time>
      </trkpt>
      <trkpt lat="45.49799" lon="4.82812">
        <ele>119.81863</ele>
        <time>2021-07-19T11:31:43Z</time>
      </trkpt>
      <trkpt lat="45.49802" lon="4.82819">
        <ele>119.80806</ele>
        <time>2021-07-19T11:31:44Z</time>
      </trkpt>
      <trkpt lat="45.49807" lon="4.82826">
        <ele>120.20441</ele>
        <time>2021-07-19T11:31:45Z</time>
      </trkpt>
      <trkpt lat="45.4981" lon="4.82833">
        <ele>120.003586</ele>
        <time>2021-07-19T11:31:46Z</time>
      </trkpt>
      <trkpt lat="45.49815" lon="4.8284">
        <ele>119.93488</ele>
        <time>2021-07-19T11:31:47Z</time>
      </trkpt>
      <trkpt lat="45.49818" lon="4.82847">
        <ele>119.89262</ele>
        <time>2021-07-19T11:31:48Z</time>
      </trkpt>
      <trkpt lat="45.49822" lon="4.82854">
        <ele>119.876755</ele>
        <time>2021-07-19T11:31:49Z</time>
      </trkpt>
      <trkpt lat="45.49826" lon="4.8286">
        <ele>119.956024</ele>
        <time>2021-07-19T11:31:50Z</time>
      </trkpt>
      <trkpt lat="45.4983" lon="4.82867">
        <ele>120.01416</ele>
        <time>2021-07-19T11:31:51Z</time>
      </trkpt>
      <trkpt lat="45.49834" lon="4.82873">
        <ele>119.88733</ele>
        <time>2021-07-19T11:31:52Z</time>
      </trkpt>
      <trkpt lat="45.49838" lon="4.8288">
        <ele>120.02473</ele>
        <time>2021-07-19T11:31:53Z</time>
      </trkpt>
      <trkpt lat="45.49842" lon="4.82886">
        <ele>119.91903</ele>
        <time>2021-07-19T11:31:54Z</time>
      </trkpt>
      <trkpt lat="45.49846" lon="4.82893">
        <ele>119.792206</ele>
        <time>2021-07-19T11:31:55Z</time>
      </trkpt>
      <trkpt lat="45.49849" lon="4.82899">
        <ele>119.876755</ele>
        <time>2021-07-19T11:31:56Z</time>
      </trkpt>
      <trkpt lat="45.49853" lon="4.82905">
        <ele>119.91903</ele>
        <time>2021-07-19T11:31:57Z</time>
      </trkpt>
      <trkpt lat="45.49857" lon="4.82912">
        <ele>119.98245</ele>
        <time>2021-07-19T11:31:58Z</time>
      </trkpt>
      <trkpt lat="45.49861" lon="4.82918">
        <ele>119.98245</ele>
        <time>2021-07-19T11:31:59Z</time>
      </trkpt>
      <trkpt lat="45.49865" lon="4.82924">
        <ele>119.9296</ele>
        <time>2021-07-19T11:32:00Z</time>
      </trkpt>
      <trkpt lat="45.49869" lon="4.8293">
        <ele>119.82919</ele>
        <time>2021-07-19T11:32:01Z</time>
      </trkpt>
      <trkpt lat="45.49873" lon="4.82936">
        <ele>119.82391</ele>
        <time>2021-07-19T11:32:02Z</time>
      </trkpt>
      <trkpt lat="45.49877" lon="4.82942">
        <ele>119.924324</ele>
        <time>2021-07-19T11:32:03Z</time>
      </trkpt>
      <trkpt lat="45.49881" lon="4.82948">
        <ele>120.04058</ele>
        <time>2021-07-19T11:32:04Z</time>
      </trkpt>
      <trkpt lat="45.49885" lon="4.82954">
        <ele>120.09342</ele>
        <time>2021-07-19T11:32:05Z</time>
      </trkpt>
      <trkpt lat="45.49889" lon="4.82961">
        <ele>120.22025</ele>
        <time>2021-07-19T11:32:06Z</time>
      </trkpt>
      <trkpt lat="45.49892" lon="4.82967">
        <ele>120.288956</ele>
        <time>2021-07-19T11:32:07Z</time>
      </trkpt>
      <trkpt lat="45.49896" lon="4.82973">
        <ele>120.34709</ele>
        <time>2021-07-19T11:32:08Z</time>
      </trkpt>
      <trkpt lat="45.499" lon="4.82979">
        <ele>120.262535</ele>
        <time>2021-07-19T11:32:09Z</time>
      </trkpt>
      <trkpt lat="45.49904" lon="4.82986">
        <ele>120.26782</ele>
        <time>2021-07-19T11:32:10Z</time>
      </trkpt>
      <trkpt lat="45.49907" lon="4.82993">
        <ele>120.310104</ele>
        <time>2021-07-19T11:32:11Z</time>
      </trkpt>
      <trkpt lat="45.49911" lon="4.82999">
        <ele>120.38409</ele>
        <time>2021-07-19T11:32:12Z</time>
      </trkpt>
      <trkpt lat="45.49915" lon="4.83006">
        <ele>120.01416</ele>
        <time>2021-07-19T11:32:13Z</time>
      </trkpt>
      <trkpt lat="45.49919" lon="4.83013">
        <ele>119.90847</ele>
        <time>2021-07-19T11:32:14Z</time>
      </trkpt>
      <trkpt lat="45.49923" lon="4.83019">
        <ele>119.950745</ele>
        <time>2021-07-19T11:32:15Z</time>
      </trkpt>
      <trkpt lat="45.49927" lon="4.83025">
        <ele>119.897896</ele>
        <time>2021-07-19T11:32:16Z</time>
      </trkpt>
      <trkpt lat="45.49931" lon="4.83032">
        <ele>119.94018</ele>
        <time>2021-07-19T11:32:17Z</time>
      </trkpt>
      <trkpt lat="45.49935" lon="4.83038">
        <ele>119.97717</ele>
        <time>2021-07-19T11:32:18Z</time>
      </trkpt>
      <trkpt lat="45.49939" lon="4.83044">
        <ele>119.98773</ele>
        <time>2021-07-19T11:32:19Z</time>
      </trkpt>
      <trkpt lat="45.49942" lon="4.8305">
        <ele>120.16741</ele>
        <time>2021-07-19T11:32:20Z</time>
      </trkpt>
      <trkpt lat="45.49946" lon="4.83057">
        <ele>120.07229</ele>
        <time>2021-07-19T11:32:21Z</time>
      </trkpt>
      <trkpt lat="45.4995" lon="4.83064">
        <ele>119.797485</ele>
        <time>2021-07-19T11:32:22Z</time>
      </trkpt>
      <trkpt lat="45.49954" lon="4.83071">
        <ele>119.30073</ele>
        <time>2021-07-19T11:32:23Z</time>
      </trkpt>
      <trkpt lat="45.49958" lon="4.83079">
        <ele>119.200325</ele>
        <time>2021-07-19T11:32:24Z</time>
      </trkpt>
      <trkpt lat="45.49961" lon="4.83086">
        <ele>118.89909</ele>
        <time>2021-07-19T11:32:25Z</time>
      </trkpt>
      <trkpt lat="45.49965" lon="4.83094">
        <ele>118.893814</ele>
        <time>2021-07-19T11:32:26Z</time>
      </trkpt>
      <trkpt lat="45.49969" lon="4.83102">
        <ele>118.893814</ele>
        <time>2021-07-19T11:32:27Z</time>
      </trkpt>
      <trkpt lat="45.49973" lon="4.8311">
        <ele>119.094635</ele>
        <time>2021-07-19T11:32:28Z</time>
      </trkpt>
      <trkpt lat="45.49977" lon="4.83118">
        <ele>118.80926</ele>
        <time>2021-07-19T11:32:29Z</time>
      </trkpt>
      <trkpt lat="45.4998" lon="4.83126">
        <ele>118.74585</ele>
        <time>2021-07-19T11:32:30Z</time>
      </trkpt>
      <trkpt lat="45.49984" lon="4.83135">
        <ele>118.729996</ele>
        <time>2021-07-19T11:32:31Z</time>
      </trkpt>
      <trkpt lat="45.49987" lon="4.83143">
        <ele>119.04707</ele>
        <time>2021-07-19T11:32:32Z</time>
      </trkpt>
      <trkpt lat="45.49991" lon="4.83151">
        <ele>118.88325</ele>
        <time>2021-07-19T11:32:33Z</time>
      </trkpt>
      <trkpt lat="45.49994" lon="4.83159">
        <ele>118.54503</ele>
        <time>2021-07-19T11:32:34Z</time>
      </trkpt>
      <trkpt lat="45.49997" lon="4.83168">
        <ele>118.582016</ele>
        <time>2021-07-19T11:32:35Z</time>
      </trkpt>
      <trkpt lat="45.50001" lon="4.83175">
        <ele>118.67187</ele>
        <time>2021-07-19T11:32:36Z</time>
      </trkpt>
      <trkpt lat="45.50004" lon="4.83183">
        <ele>118.86739</ele>
        <time>2021-07-19T11:32:37Z</time>
      </trkpt>
      <trkpt lat="45.50008" lon="4.83191">
        <ele>118.52917</ele>
        <time>2021-07-19T11:32:38Z</time>
      </trkpt>
      <trkpt lat="45.50011" lon="4.83199">
        <ele>118.555595</ele>
        <time>2021-07-19T11:32:39Z</time>
      </trkpt>
      <trkpt lat="45.50014" lon="4.83207">
        <ele>118.893814</ele>
        <time>2021-07-19T11:32:40Z</time>
      </trkpt>
      <trkpt lat="45.50017" lon="4.83215">
        <ele>118.79869</ele>
        <time>2021-07-19T11:32:41Z</time>
      </trkpt>
      <trkpt lat="45.5002" lon="4.83224">
        <ele>118.7617</ele>
        <time>2021-07-19T11:32:42Z</time>
      </trkpt>
      <trkpt lat="45.50023" lon="4.83231">
        <ele>118.49747</ele>
        <time>2021-07-19T11:32:43Z</time>
      </trkpt>
      <trkpt lat="45.50026" lon="4.83239">
        <ele>118.61902</ele>
        <time>2021-07-19T11:32:44Z</time>
      </trkpt>
      <trkpt lat="45.50029" lon="4.83247">
        <ele>118.61902</ele>
        <time>2021-07-19T11:32:45Z</time>
      </trkpt>
      <trkpt lat="45.50031" lon="4.83256">
        <ele>118.47104</ele>
        <time>2021-07-19T11:32:46Z</time>
      </trkpt>
      <trkpt lat="45.50034" lon="4.83264">
        <ele>118.56617</ele>
        <time>2021-07-19T11:32:47Z</time>
      </trkpt>
      <trkpt lat="45.50036" lon="4.83273">
        <ele>118.78284</ele>
        <time>2021-07-19T11:32:48Z</time>
      </trkpt>
      <trkpt lat="45.50038" lon="4.83281">
        <ele>118.687706</ele>
        <time>2021-07-19T11:32:49Z</time>
      </trkpt>
      <trkpt lat="45.5004" lon="4.8329">
        <ele>118.77226</ele>
        <time>2021-07-19T11:32:50Z</time>
      </trkpt>
      <trkpt lat="45.50041" lon="4.83298">
        <ele>118.71942</ele>
        <time>2021-07-19T11:32:51Z</time>
      </trkpt>
      <trkpt lat="45.50044" lon="4.83307">
        <ele>118.69828</ele>
        <time>2021-07-19T11:32:52Z</time>
      </trkpt>
      <trkpt lat="45.50045" lon="4.83315">
        <ele>118.49218</ele>
        <time>2021-07-19T11:32:53Z</time>
      </trkpt>
      <trkpt lat="45.50047" lon="4.83324">
        <ele>118.67187</ele>
        <time>2021-07-19T11:32:54Z</time>
      </trkpt>
      <trkpt lat="45.50049" lon="4.83332">
        <ele>118.7617</ele>
        <time>2021-07-19T11:32:55Z</time>
      </trkpt>
      <trkpt lat="45.50052" lon="4.83341">
        <ele>118.714134</ele>
        <time>2021-07-19T11:32:56Z</time>
      </trkpt>
      <trkpt lat="45.50054" lon="4.83349">
        <ele>118.729996</ele>
        <time>2021-07-19T11:32:57Z</time>
      </trkpt>
      <trkpt lat="45.50056" lon="4.83357">
        <ele>118.82511</ele>
        <time>2021-07-19T11:32:58Z</time>
      </trkpt>
      <trkpt lat="45.50058" lon="4.83366">
        <ele>119.02593</ele>
        <time>2021-07-19T11:32:59Z</time>
      </trkpt>
      <trkpt lat="45.5006" lon="4.83374">
        <ele>119.04179</ele>
        <time>2021-07-19T11:33:00Z</time>
      </trkpt>
      <trkpt lat="45.50061" lon="4.83382">
        <ele>118.87267</ele>
        <time>2021-07-19T11:33:01Z</time>
      </trkpt>
      <trkpt lat="45.50064" lon="4.8339">
        <ele>118.87267</ele>
        <time>2021-07-19T11:33:02Z</time>
      </trkpt>
      <trkpt lat="45.50067" lon="4.83398">
        <ele>119.099915</ele>
        <time>2021-07-19T11:33:03Z</time>
      </trkpt>
      <trkpt lat="45.5007" lon="4.83405">
        <ele>118.97309</ele>
        <time>2021-07-19T11:33:04Z</time>
      </trkpt>
      <trkpt lat="45.50072" lon="4.83413">
        <ele>119.18976</ele>
        <time>2021-07-19T11:33:05Z</time>
      </trkpt>
      <trkpt lat="45.50074" lon="4.83421">
        <ele>119.380005</ele>
        <time>2021-07-19T11:33:06Z</time>
      </trkpt>
      <trkpt lat="45.50076" lon="4.83429">
        <ele>119.15804</ele>
        <time>2021-07-19T11:33:07Z</time>
      </trkpt>
      <trkpt lat="45.50077" lon="4.83438">
        <ele>119.1739</ele>
        <time>2021-07-19T11:33:08Z</time>
      </trkpt>
      <trkpt lat="45.50079" lon="4.83446">
        <ele>119.06293</ele>
        <time>2021-07-19T11:33:09Z</time>
      </trkpt>
      <trkpt lat="45.50081" lon="4.83455">
        <ele>118.999504</ele>
        <time>2021-07-19T11:33:10Z</time>
      </trkpt>
      <trkpt lat="45.50082" lon="4.83463">
        <ele>118.941376</ele>
        <time>2021-07-19T11:33:11Z</time>
      </trkpt>
      <trkpt lat="45.50084" lon="4.83471">
        <ele>118.89909</ele>
        <time>2021-07-19T11:33:12Z</time>
      </trkpt>
      <trkpt lat="45.50086" lon="4.8348">
        <ele>118.893814</ele>
        <time>2021-07-19T11:33:13Z</time>
      </trkpt>
      <trkpt lat="45.50088" lon="4.83489">
        <ele>119.1739</ele>
        <time>2021-07-19T11:33:14Z</time>
      </trkpt>
      <trkpt lat="45.5009" lon="4.83497">
        <ele>118.79869</ele>
        <time>2021-07-19T11:33:15Z</time>
      </trkpt>
      <trkpt lat="45.50092" lon="4.83506">
        <ele>119.04179</ele>
        <time>2021-07-19T11:33:16Z</time>
      </trkpt>
      <trkpt lat="45.50094" lon="4.83514">
        <ele>118.89909</ele>
        <time>2021-07-19T11:33:17Z</time>
      </trkpt>
      <trkpt lat="45.50097" lon="4.83522">
        <ele>119.07349</ele>
        <time>2021-07-19T11:33:18Z</time>
      </trkpt>
      <trkpt lat="45.50099" lon="4.8353">
        <ele>119.1052</ele>
        <time>2021-07-19T11:33:19Z</time>
      </trkpt>
      <trkpt lat="45.501" lon="4.83539">
        <ele>119.14219</ele>
        <time>2021-07-19T11:33:20Z</time>
      </trkpt>
      <trkpt lat="45.50102" lon="4.83548">
        <ele>119.13691</ele>
        <time>2021-07-19T11:33:21Z</time>
      </trkpt>
      <trkpt lat="45.50104" lon="4.83556">
        <ele>119.11577</ele>
        <time>2021-07-19T11:33:22Z</time>
      </trkpt>
      <trkpt lat="45.50106" lon="4.83565">
        <ele>119.3113</ele>
        <time>2021-07-19T11:33:23Z</time>
      </trkpt>
      <trkpt lat="45.50108" lon="4.83573">
        <ele>119.16333</ele>
        <time>2021-07-19T11:33:24Z</time>
      </trkpt>
      <trkpt lat="45.5011" lon="4.83582">
        <ele>119.147484</ele>
        <time>2021-07-19T11:33:25Z</time>
      </trkpt>
      <trkpt lat="45.50112" lon="4.8359">
        <ele>119.20561</ele>
        <time>2021-07-19T11:33:26Z</time>
      </trkpt>
      <trkpt lat="45.50114" lon="4.83598">
        <ele>119.179184</ele>
        <time>2021-07-19T11:33:27Z</time>
      </trkpt>
      <trkpt lat="45.50117" lon="4.83606">
        <ele>119.279594</ele>
        <time>2021-07-19T11:33:28Z</time>
      </trkpt>
      <trkpt lat="45.50119" lon="4.83614">
        <ele>119.200325</ele>
        <time>2021-07-19T11:33:29Z</time>
      </trkpt>
      <trkpt lat="45.50121" lon="4.83622">
        <ele>119.385284</ele>
        <time>2021-07-19T11:33:30Z</time>
      </trkpt>
      <trkpt lat="45.50123" lon="4.8363">
        <ele>119.3113</ele>
        <time>2021-07-19T11:33:31Z</time>
      </trkpt>
      <trkpt lat="45.50125" lon="4.83639">
        <ele>119.19504</ele>
        <time>2021-07-19T11:33:32Z</time>
      </trkpt>
      <trkpt lat="45.50127" lon="4.83647">
        <ele>119.40114</ele>
        <time>2021-07-19T11:33:33Z</time>
      </trkpt>
      <trkpt lat="45.5013" lon="4.83654">
        <ele>119.29017</ele>
        <time>2021-07-19T11:33:34Z</time>
      </trkpt>
      <trkpt lat="45.50132" lon="4.83662">
        <ele>119.5861</ele>
        <time>2021-07-19T11:33:35Z</time>
      </trkpt>
      <trkpt lat="45.50134" lon="4.8367">
        <ele>119.73408</ele>
        <time>2021-07-19T11:33:36Z</time>
      </trkpt>
      <trkpt lat="45.50136" lon="4.83678">
        <ele>119.83449</ele>
        <time>2021-07-19T11:33:37Z</time>
      </trkpt>
      <trkpt lat="45.50138" lon="4.83686">
        <ele>119.876755</ele>
        <time>2021-07-19T11:33:38Z</time>
      </trkpt>
      <trkpt lat="45.5014" lon="4.83694">
        <ele>119.73408</ele>
        <time>2021-07-19T11:33:39Z</time>
      </trkpt>
      <trkpt lat="45.50143" lon="4.83702">
        <ele>119.88733</ele>
        <time>2021-07-19T11:33:40Z</time>
      </trkpt>
      <trkpt lat="45.50145" lon="4.8371">
        <ele>119.797485</ele>
        <time>2021-07-19T11:33:41Z</time>
      </trkpt>
      <trkpt lat="45.50147" lon="4.83717">
        <ele>119.82919</ele>
        <time>2021-07-19T11:33:42Z</time>
      </trkpt>
      <trkpt lat="45.50149" lon="4.83725">
        <ele>120.01944</ele>
        <time>2021-07-19T11:33:43Z</time>
      </trkpt>
      <trkpt lat="45.50151" lon="4.83733">
        <ele>119.94018</ele>
        <time>2021-07-19T11:33:44Z</time>
      </trkpt>
      <trkpt lat="45.50153" lon="4.83741">
        <ele>120.21497</ele>
        <time>2021-07-19T11:33:45Z</time>
      </trkpt>
      <trkpt lat="45.50156" lon="4.83747">
        <ele>120.20441</ele>
        <time>2021-07-19T11:33:46Z</time>
      </trkpt>
      <trkpt lat="45.50158" lon="4.83753">
        <ele>120.26782</ele>
        <time>2021-07-19T11:33:47Z</time>
      </trkpt>
      <trkpt lat="45.5016" lon="4.83761">
        <ele>120.50563</ele>
        <time>2021-07-19T11:33:48Z</time>
      </trkpt>
      <trkpt lat="45.50163" lon="4.83767">
        <ele>120.88084</ele>
        <time>2021-07-19T11:33:49Z</time>
      </trkpt>
      <trkpt lat="45.50166" lon="4.83773">
        <ele>120.91255</ele>
        <time>2021-07-19T11:33:50Z</time>
      </trkpt>
      <trkpt lat="45.50168" lon="4.8378">
        <ele>120.99181</ele>
        <time>2021-07-19T11:33:51Z</time>
      </trkpt>
      <trkpt lat="45.50171" lon="4.83786">
        <ele>121.039375</ele>
        <time>2021-07-19T11:33:52Z</time>
      </trkpt>
      <trkpt lat="45.50173" lon="4.83792">
        <ele>121.06052</ele>
        <time>2021-07-19T11:33:53Z</time>
      </trkpt>
      <trkpt lat="45.50177" lon="4.83798">
        <ele>121.219055</ele>
        <time>2021-07-19T11:33:54Z</time>
      </trkpt>
      <trkpt lat="45.5018" lon="4.83803">
        <ele>121.3406</ele>
        <time>2021-07-19T11:33:55Z</time>
      </trkpt>
      <trkpt lat="45.50182" lon="4.83807">
        <ele>121.20849</ele>
        <time>2021-07-19T11:33:56Z</time>
      </trkpt>
      <trkpt lat="45.50184" lon="4.83812">
        <ele>121.25605</ele>
        <time>2021-07-19T11:33:57Z</time>
      </trkpt>
      <trkpt lat="45.50185" lon="4.83816">
        <ele>121.113365</ele>
        <time>2021-07-19T11:33:58Z</time>
      </trkpt>
      <trkpt lat="45.50186" lon="4.83822">
        <ele>121.12393</ele>
        <time>2021-07-19T11:33:59Z</time>
      </trkpt>
      <trkpt lat="45.50186" lon="4.83827">
        <ele>121.15035</ele>
        <time>2021-07-19T11:34:00Z</time>
      </trkpt>
      <trkpt lat="45.50185" lon="4.83831">
        <ele>120.86498</ele>
        <time>2021-07-19T11:34:01Z</time>
      </trkpt>
      <trkpt lat="45.50184" lon="4.83835">
        <ele>120.94954</ele>
        <time>2021-07-19T11:34:02Z</time>
      </trkpt>
      <trkpt lat="45.50182" lon="4.8384">
        <ele>121.012955</ele>
        <time>2021-07-19T11:34:03Z</time>
      </trkpt>
      <trkpt lat="45.5018" lon="4.83843">
        <ele>121.02352</ele>
        <time>2021-07-19T11:34:04Z</time>
      </trkpt>
      <trkpt lat="45.50179" lon="4.83847">
        <ele>121.15565</ele>
        <time>2021-07-19T11:34:05Z</time>
      </trkpt>
      <trkpt lat="45.50176" lon="4.83851">
        <ele>121.39345</ele>
        <time>2021-07-19T11:34:06Z</time>
      </trkpt>
      <trkpt lat="45.50173" lon="4.83854">
        <ele>121.55199</ele>
        <time>2021-07-19T11:34:07Z</time>
      </trkpt>
      <trkpt lat="45.50169" lon="4.83855">
        <ele>121.6524</ele>
        <time>2021-07-19T11:34:08Z</time>
      </trkpt>
      <trkpt lat="45.50165" lon="4.83857">
        <ele>121.8215</ele>
        <time>2021-07-19T11:34:09Z</time>
      </trkpt>
      <trkpt lat="45.50162" lon="4.83861">
        <ele>121.93249</ele>
        <time>2021-07-19T11:34:10Z</time>
      </trkpt>
      <trkpt lat="45.50159" lon="4.83868">
        <ele>122.02232</ele>
        <time>2021-07-19T11:34:11Z</time>
      </trkpt>
      <trkpt lat="45.50158" lon="4.83873">
        <ele>122.254845</ele>
        <time>2021-07-19T11:34:12Z</time>
      </trkpt>
      <trkpt lat="45.50156" lon="4.83879">
        <ele>122.540215</ele>
        <time>2021-07-19T11:34:13Z</time>
      </trkpt>
      <trkpt lat="45.50155" lon="4.83886">
        <ele>122.640625</ele>
        <time>2021-07-19T11:34:14Z</time>
      </trkpt>
      <trkpt lat="45.50155" lon="4.83891">
        <ele>122.57192</ele>
        <time>2021-07-19T11:34:15Z</time>
      </trkpt>
      <trkpt lat="45.50157" lon="4.83895">
        <ele>122.6142</ele>
        <time>2021-07-19T11:34:16Z</time>
      </trkpt>
      <trkpt lat="45.50159" lon="4.839">
        <ele>122.85201</ele>
        <time>2021-07-19T11:34:17Z</time>
      </trkpt>
      <trkpt lat="45.5016" lon="4.83905">
        <ele>122.87843</ele>
        <time>2021-07-19T11:34:18Z</time>
      </trkpt>
      <trkpt lat="45.50163" lon="4.83911">
        <ele>122.645905</ele>
        <time>2021-07-19T11:34:19Z</time>
      </trkpt>
      <trkpt lat="45.50165" lon="4.83917">
        <ele>122.67762</ele>
        <time>2021-07-19T11:34:20Z</time>
      </trkpt>
      <trkpt lat="45.5017" lon="4.83933">
        <ele>122.89429</ele>
        <time>2021-07-19T11:34:22Z</time>
      </trkpt>
      <trkpt lat="45.5017" lon="4.83933">
        <ele>122.89429</ele>
        <time>2021-07-19T11:34:22Z</time>
      </trkpt>
      <trkpt lat="45.50174" lon="4.83942">
        <ele>122.91542</ele>
        <time>2021-07-19T11:34:23Z</time>
      </trkpt>
      <trkpt lat="45.50177" lon="4.83949">
        <ele>123.04226</ele>
        <time>2021-07-19T11:34:24Z</time>
      </trkpt>
      <trkpt lat="45.50184" lon="4.83963">
        <ele>122.97356</ele>
        <time>2021-07-19T11:34:26Z</time>
      </trkpt>
      <trkpt lat="45.50187" lon="4.83969">
        <ele>122.904854</ele>
        <time>2021-07-19T11:34:27Z</time>
      </trkpt>
      <trkpt lat="45.50191" lon="4.83976">
        <ele>122.94185</ele>
        <time>2021-07-19T11:34:28Z</time>
      </trkpt>
      <trkpt lat="45.50191" lon="4.83976">
        <ele>122.94185</ele>
        <time>2021-07-19T11:34:28Z</time>
      </trkpt>
      <trkpt lat="45.50194" lon="4.83983">
        <ele>122.88372</ele>
        <time>2021-07-19T11:34:29Z</time>
      </trkpt>
      <trkpt lat="45.50198" lon="4.8399">
        <ele>123.10039</ele>
        <time>2021-07-19T11:34:30Z</time>
      </trkpt>
      <trkpt lat="45.50206" lon="4.84003">
        <ele>123.17437</ele>
        <time>2021-07-19T11:34:32Z</time>
      </trkpt>
      <trkpt lat="45.5021" lon="4.84009">
        <ele>123.12681</ele>
        <time>2021-07-19T11:34:33Z</time>
      </trkpt>
      <trkpt lat="45.50214" lon="4.84016">
        <ele>122.920715</ele>
        <time>2021-07-19T11:34:34Z</time>
      </trkpt>
      <trkpt lat="45.50214" lon="4.84016">
        <ele>122.920715</ele>
        <time>2021-07-19T11:34:34Z</time>
      </trkpt>
      <trkpt lat="45.50222" lon="4.84027">
        <ele>123.02111</ele>
        <time>2021-07-19T11:34:36Z</time>
      </trkpt>
      <trkpt lat="45.50222" lon="4.84027">
        <ele>123.02111</ele>
        <time>2021-07-19T11:34:36Z</time>
      </trkpt>
      <trkpt lat="45.50225" lon="4.84033">
        <ele>122.925995</ele>
        <time>2021-07-19T11:34:37Z</time>
      </trkpt>
      <trkpt lat="45.50233" lon="4.84046">
        <ele>123.24835</ele>
        <time>2021-07-19T11:34:39Z</time>
      </trkpt>
      <trkpt lat="45.50237" lon="4.84052">
        <ele>123.903656</ele>
        <time>2021-07-19T11:34:40Z</time>
      </trkpt>
      <trkpt lat="45.50241" lon="4.84059">
        <ele>123.78739</ele>
        <time>2021-07-19T11:34:41Z</time>
      </trkpt>
      <trkpt lat="45.50245" lon="4.84066">
        <ele>123.16909</ele>
        <time>2021-07-19T11:34:42Z</time>
      </trkpt>
      <trkpt lat="45.50245" lon="4.84066">
        <ele>123.16909</ele>
        <time>2021-07-19T11:34:42Z</time>
      </trkpt>
      <trkpt lat="45.50253" lon="4.84078">
        <ele>122.84144</ele>
        <time>2021-07-19T11:34:44Z</time>
      </trkpt>
      <trkpt lat="45.50253" lon="4.84078">
        <ele>122.84144</ele>
        <time>2021-07-19T11:34:44Z</time>
      </trkpt>
      <trkpt lat="45.50261" lon="4.8409">
        <ele>122.80444</ele>
        <time>2021-07-19T11:34:46Z</time>
      </trkpt>
      <trkpt lat="45.50261" lon="4.8409">
        <ele>122.80444</ele>
        <time>2021-07-19T11:34:46Z</time>
      </trkpt>
      <trkpt lat="45.50271" lon="4.84101">
        <ele>122.68819</ele>
        <time>2021-07-19T11:34:48Z</time>
      </trkpt>
      <trkpt lat="45.50275" lon="4.84107">
        <ele>122.889</ele>
        <time>2021-07-19T11:34:49Z</time>
      </trkpt>
      <trkpt lat="45.50279" lon="4.84112">
        <ele>123.12681</ele>
        <time>2021-07-19T11:34:50Z</time>
      </trkpt>
      <trkpt lat="45.50283" lon="4.84117">
        <ele>123.3012</ele>
        <time>2021-07-19T11:34:51Z</time>
      </trkpt>
      <trkpt lat="45.50288" lon="4.84124">
        <ele>122.85729</ele>
        <time>2021-07-19T11:34:52Z</time>
      </trkpt>
      <trkpt lat="45.50292" lon="4.84129">
        <ele>122.640625</ele>
        <time>2021-07-19T11:34:53Z</time>
      </trkpt>
      <trkpt lat="45.50296" lon="4.84134">
        <ele>122.635345</ele>
        <time>2021-07-19T11:34:54Z</time>
      </trkpt>
      <trkpt lat="45.50301" lon="4.8414">
        <ele>122.49794</ele>
        <time>2021-07-19T11:34:55Z</time>
      </trkpt>
      <trkpt lat="45.50306" lon="4.84146">
        <ele>122.59306</ele>
        <time>2021-07-19T11:34:56Z</time>
      </trkpt>
      <trkpt lat="45.50311" lon="4.84151">
        <ele>122.7516</ele>
        <time>2021-07-19T11:34:57Z</time>
      </trkpt>
      <trkpt lat="45.50316" lon="4.84156">
        <ele>122.931274</ele>
        <time>2021-07-19T11:34:58Z</time>
      </trkpt>
      <trkpt lat="45.5032" lon="4.84161">
        <ele>122.741035</ele>
        <time>2021-07-19T11:34:59Z</time>
      </trkpt>
      <trkpt lat="45.50325" lon="4.84166">
        <ele>122.75688</ele>
        <time>2021-07-19T11:35:00Z</time>
      </trkpt>
      <trkpt lat="45.5033" lon="4.84172">
        <ele>122.80444</ele>
        <time>2021-07-19T11:35:01Z</time>
      </trkpt>
      <trkpt lat="45.50335" lon="4.84177">
        <ele>122.70403</ele>
        <time>2021-07-19T11:35:02Z</time>
      </trkpt>
      <trkpt lat="45.5034" lon="4.84182">
        <ele>122.693474</ele>
        <time>2021-07-19T11:35:03Z</time>
      </trkpt>
      <trkpt lat="45.50344" lon="4.84187">
        <ele>122.741035</ele>
        <time>2021-07-19T11:35:04Z</time>
      </trkpt>
      <trkpt lat="45.50348" lon="4.84193">
        <ele>122.86257</ele>
        <time>2021-07-19T11:35:05Z</time>
      </trkpt>
      <trkpt lat="45.50353" lon="4.84198">
        <ele>122.65648</ele>
        <time>2021-07-19T11:35:06Z</time>
      </trkpt>
      <trkpt lat="45.50357" lon="4.84202">
        <ele>122.767456</ele>
        <time>2021-07-19T11:35:07Z</time>
      </trkpt>
      <trkpt lat="45.50361" lon="4.84207">
        <ele>122.85201</ele>
        <time>2021-07-19T11:35:08Z</time>
      </trkpt>
      <trkpt lat="45.50366" lon="4.84211">
        <ele>122.78331</ele>
        <time>2021-07-19T11:35:09Z</time>
      </trkpt>
      <trkpt lat="45.50371" lon="4.84216">
        <ele>122.899574</ele>
        <time>2021-07-19T11:35:10Z</time>
      </trkpt>
      <trkpt lat="45.50376" lon="4.84222">
        <ele>122.69875</ele>
        <time>2021-07-19T11:35:11Z</time>
      </trkpt>
      <trkpt lat="45.50381" lon="4.84227">
        <ele>122.746315</ele>
        <time>2021-07-19T11:35:12Z</time>
      </trkpt>
      <trkpt lat="45.50385" lon="4.84233">
        <ele>122.9577</ele>
        <time>2021-07-19T11:35:13Z</time>
      </trkpt>
      <trkpt lat="45.5039" lon="4.84238">
        <ele>123.04754</ele>
        <time>2021-07-19T11:35:14Z</time>
      </trkpt>
      <trkpt lat="45.50394" lon="4.84243">
        <ele>122.9577</ele>
        <time>2021-07-19T11:35:15Z</time>
      </trkpt>
      <trkpt lat="45.50399" lon="4.84249">
        <ele>123.15324</ele>
        <time>2021-07-19T11:35:16Z</time>
      </trkpt>
      <trkpt lat="45.50404" lon="4.84255">
        <ele>123.34348</ele>
        <time>2021-07-19T11:35:17Z</time>
      </trkpt>
      <trkpt lat="45.50408" lon="4.8426">
        <ele>123.443886</ele>
        <time>2021-07-19T11:35:18Z</time>
      </trkpt>
      <trkpt lat="45.50412" lon="4.84266">
        <ele>123.517876</ele>
        <time>2021-07-19T11:35:19Z</time>
      </trkpt>
      <trkpt lat="45.50417" lon="4.84271">
        <ele>123.35934</ele>
        <time>2021-07-19T11:35:20Z</time>
      </trkpt>
      <trkpt lat="45.50422" lon="4.84276">
        <ele>123.25893</ele>
        <time>2021-07-19T11:35:21Z</time>
      </trkpt>
      <trkpt lat="45.50426" lon="4.84282">
        <ele>123.496735</ele>
        <time>2021-07-19T11:35:22Z</time>
      </trkpt>
      <trkpt lat="45.50431" lon="4.84287">
        <ele>123.40161</ele>
        <time>2021-07-19T11:35:23Z</time>
      </trkpt>
      <trkpt lat="45.50435" lon="4.84293">
        <ele>123.42804</ele>
        <time>2021-07-19T11:35:24Z</time>
      </trkpt>
      <trkpt lat="45.5044" lon="4.84297">
        <ele>123.11096</ele>
        <time>2021-07-19T11:35:25Z</time>
      </trkpt>
      <trkpt lat="45.50444" lon="4.84303">
        <ele>123.3012</ele>
        <time>2021-07-19T11:35:26Z</time>
      </trkpt>
      <trkpt lat="45.50448" lon="4.84308">
        <ele>123.22194</ele>
        <time>2021-07-19T11:35:27Z</time>
      </trkpt>
      <trkpt lat="45.50452" lon="4.84313">
        <ele>123.2325</ele>
        <time>2021-07-19T11:35:28Z</time>
      </trkpt>
      <trkpt lat="45.50457" lon="4.84319">
        <ele>123.34876</ele>
        <time>2021-07-19T11:35:29Z</time>
      </trkpt>
      <trkpt lat="45.50462" lon="4.84324">
        <ele>123.24835</ele>
        <time>2021-07-19T11:35:30Z</time>
      </trkpt>
      <trkpt lat="45.50467" lon="4.8433">
        <ele>123.12153</ele>
        <time>2021-07-19T11:35:31Z</time>
      </trkpt>
      <trkpt lat="45.50471" lon="4.84336">
        <ele>123.22722</ele>
        <time>2021-07-19T11:35:32Z</time>
      </trkpt>
      <trkpt lat="45.50476" lon="4.84341">
        <ele>123.25365</ele>
        <time>2021-07-19T11:35:33Z</time>
      </trkpt>
      <trkpt lat="45.50481" lon="4.84346">
        <ele>123.10039</ele>
        <time>2021-07-19T11:35:34Z</time>
      </trkpt>
      <trkpt lat="45.50485" lon="4.84352">
        <ele>123.132095</ele>
        <time>2021-07-19T11:35:35Z</time>
      </trkpt>
      <trkpt lat="45.5049" lon="4.84357">
        <ele>123.34348</ele>
        <time>2021-07-19T11:35:36Z</time>
      </trkpt>
      <trkpt lat="45.50494" lon="4.84363">
        <ele>123.53373</ele>
        <time>2021-07-19T11:35:37Z</time>
      </trkpt>
      <trkpt lat="45.50499" lon="4.84368">
        <ele>123.3699</ele>
        <time>2021-07-19T11:35:38Z</time>
      </trkpt>
      <trkpt lat="45.50503" lon="4.84374">
        <ele>123.24835</ele>
        <time>2021-07-19T11:35:39Z</time>
      </trkpt>
      <trkpt lat="45.50507" lon="4.8438">
        <ele>123.317055</ele>
        <time>2021-07-19T11:35:40Z</time>
      </trkpt>
      <trkpt lat="45.50512" lon="4.84385">
        <ele>123.19022</ele>
        <time>2021-07-19T11:35:41Z</time>
      </trkpt>
      <trkpt lat="45.50516" lon="4.8439">
        <ele>123.25893</ele>
        <time>2021-07-19T11:35:42Z</time>
      </trkpt>
      <trkpt lat="45.50521" lon="4.84396">
        <ele>123.43332</ele>
        <time>2021-07-19T11:35:43Z</time>
      </trkpt>
      <trkpt lat="45.50525" lon="4.84401">
        <ele>123.412186</ele>
        <time>2021-07-19T11:35:44Z</time>
      </trkpt>
      <trkpt lat="45.5053" lon="4.84406">
        <ele>123.24835</ele>
        <time>2021-07-19T11:35:45Z</time>
      </trkpt>
      <trkpt lat="45.50534" lon="4.84412">
        <ele>123.10567</ele>
        <time>2021-07-19T11:35:46Z</time>
      </trkpt>
      <trkpt lat="45.50539" lon="4.84418">
        <ele>122.83616</ele>
        <time>2021-07-19T11:35:47Z</time>
      </trkpt>
      <trkpt lat="45.50543" lon="4.84424">
        <ele>122.84144</ele>
        <time>2021-07-19T11:35:48Z</time>
      </trkpt>
      <trkpt lat="45.50548" lon="4.84429">
        <ele>122.98941</ele>
        <time>2021-07-19T11:35:49Z</time>
      </trkpt>
      <trkpt lat="45.50552" lon="4.84435">
        <ele>123.04754</ele>
        <time>2021-07-19T11:35:50Z</time>
      </trkpt>
      <trkpt lat="45.50557" lon="4.84441">
        <ele>123.2008</ele>
        <time>2021-07-19T11:35:51Z</time>
      </trkpt>
      <trkpt lat="45.50562" lon="4.84446">
        <ele>123.27478</ele>
        <time>2021-07-19T11:35:52Z</time>
      </trkpt>
      <trkpt lat="45.50566" lon="4.84452">
        <ele>123.14266</ele>
        <time>2021-07-19T11:35:53Z</time>
      </trkpt>
      <trkpt lat="45.50571" lon="4.84457">
        <ele>123.158516</ele>
        <time>2021-07-19T11:35:54Z</time>
      </trkpt>
      <trkpt lat="45.50575" lon="4.84463">
        <ele>123.19551</ele>
        <time>2021-07-19T11:35:55Z</time>
      </trkpt>
      <trkpt lat="45.5058" lon="4.84469">
        <ele>123.16381</ele>
        <time>2021-07-19T11:35:56Z</time>
      </trkpt>
      <trkpt lat="45.50584" lon="4.84475">
        <ele>123.05811</ele>
        <time>2021-07-19T11:35:57Z</time>
      </trkpt>
      <trkpt lat="45.50588" lon="4.84481">
        <ele>123.17437</ele>
        <time>2021-07-19T11:35:58Z</time>
      </trkpt>
      <trkpt lat="45.50592" lon="4.84487">
        <ele>122.91542</ele>
        <time>2021-07-19T11:35:59Z</time>
      </trkpt>
      <trkpt lat="45.50592" lon="4.84487">
        <ele>122.91542</ele>
        <time>2021-07-19T11:35:59Z</time>
      </trkpt>
      <trkpt lat="45.50601" lon="4.84498">
        <ele>123.48089</ele>
        <time>2021-07-19T11:36:01Z</time>
      </trkpt>
      <trkpt lat="45.50605" lon="4.84503">
        <ele>123.45974</ele>
        <time>2021-07-19T11:36:02Z</time>
      </trkpt>
      <trkpt lat="45.5061" lon="4.84509">
        <ele>123.35405</ele>
        <time>2021-07-19T11:36:03Z</time>
      </trkpt>
      <trkpt lat="45.50614" lon="4.84515">
        <ele>123.3012</ele>
        <time>2021-07-19T11:36:04Z</time>
      </trkpt>
      <trkpt lat="45.50618" lon="4.84521">
        <ele>123.22194</ele>
        <time>2021-07-19T11:36:05Z</time>
      </trkpt>
      <trkpt lat="45.50621" lon="4.84527">
        <ele>123.12153</ele>
        <time>2021-07-19T11:36:06Z</time>
      </trkpt>
      <trkpt lat="45.50626" lon="4.84532">
        <ele>123.264206</ele>
        <time>2021-07-19T11:36:07Z</time>
      </trkpt>
      <trkpt lat="45.5063" lon="4.84538">
        <ele>123.01055</ele>
        <time>2021-07-19T11:36:08Z</time>
      </trkpt>
      <trkpt lat="45.50634" lon="4.84544">
        <ele>123.14795</ele>
        <time>2021-07-19T11:36:09Z</time>
      </trkpt>
      <trkpt lat="45.50639" lon="4.8455">
        <ele>123.48089</ele>
        <time>2021-07-19T11:36:10Z</time>
      </trkpt>
      <trkpt lat="45.50642" lon="4.84556">
        <ele>123.33291</ele>
        <time>2021-07-19T11:36:11Z</time>
      </trkpt>
      <trkpt lat="45.50647" lon="4.84562">
        <ele>123.28535</ele>
        <time>2021-07-19T11:36:12Z</time>
      </trkpt>
      <trkpt lat="45.50651" lon="4.84567">
        <ele>123.3699</ele>
        <time>2021-07-19T11:36:13Z</time>
      </trkpt>
      <trkpt lat="45.50655" lon="4.84574">
        <ele>123.35934</ele>
        <time>2021-07-19T11:36:14Z</time>
      </trkpt>
      <trkpt lat="45.50659" lon="4.8458">
        <ele>123.422745</ele>
        <time>2021-07-19T11:36:15Z</time>
      </trkpt>
      <trkpt lat="45.50663" lon="4.84586">
        <ele>123.967064</ele>
        <time>2021-07-19T11:36:16Z</time>
      </trkpt>
      <trkpt lat="45.50668" lon="4.84592">
        <ele>123.91422</ele>
        <time>2021-07-19T11:36:17Z</time>
      </trkpt>
      <trkpt lat="45.50672" lon="4.84598">
        <ele>123.961784</ele>
        <time>2021-07-19T11:36:18Z</time>
      </trkpt>
      <trkpt lat="45.50676" lon="4.84604">
        <ele>123.65527</ele>
        <time>2021-07-19T11:36:19Z</time>
      </trkpt>
      <trkpt lat="45.5068" lon="4.84609">
        <ele>123.63413</ele>
        <time>2021-07-19T11:36:20Z</time>
      </trkpt>
      <trkpt lat="45.50684" lon="4.84614">
        <ele>123.68698</ele>
        <time>2021-07-19T11:36:21Z</time>
      </trkpt>
      <trkpt lat="45.50688" lon="4.8462">
        <ele>123.63413</ele>
        <time>2021-07-19T11:36:22Z</time>
      </trkpt>
      <trkpt lat="45.50692" lon="4.84625">
        <ele>123.43861</ele>
        <time>2021-07-19T11:36:23Z</time>
      </trkpt>
      <trkpt lat="45.50696" lon="4.8463">
        <ele>123.2325</ele>
        <time>2021-07-19T11:36:24Z</time>
      </trkpt>
      <trkpt lat="45.507" lon="4.84636">
        <ele>123.43861</ele>
        <time>2021-07-19T11:36:25Z</time>
      </trkpt>
      <trkpt lat="45.50704" lon="4.84642">
        <ele>123.311775</ele>
        <time>2021-07-19T11:36:26Z</time>
      </trkpt>
      <trkpt lat="45.50708" lon="4.84648">
        <ele>123.3012</ele>
        <time>2021-07-19T11:36:27Z</time>
      </trkpt>
      <trkpt lat="45.50713" lon="4.84654">
        <ele>123.45446</ele>
        <time>2021-07-19T11:36:28Z</time>
      </trkpt>
      <trkpt lat="45.50717" lon="4.8466">
        <ele>123.21665</ele>
        <time>2021-07-19T11:36:29Z</time>
      </trkpt>
      <trkpt lat="45.50721" lon="4.84666">
        <ele>123.28535</ele>
        <time>2021-07-19T11:36:30Z</time>
      </trkpt>
      <trkpt lat="45.50726" lon="4.84672">
        <ele>123.23779</ele>
        <time>2021-07-19T11:36:31Z</time>
      </trkpt>
      <trkpt lat="45.5073" lon="4.84678">
        <ele>123.290634</ele>
        <time>2021-07-19T11:36:32Z</time>
      </trkpt>
      <trkpt lat="45.50734" lon="4.84684">
        <ele>123.47559</ele>
        <time>2021-07-19T11:36:33Z</time>
      </trkpt>
      <trkpt lat="45.50739" lon="4.84689">
        <ele>123.39104</ele>
        <time>2021-07-19T11:36:34Z</time>
      </trkpt>
      <trkpt lat="45.50743" lon="4.84695">
        <ele>123.19022</ele>
        <time>2021-07-19T11:36:35Z</time>
      </trkpt>
      <trkpt lat="45.50748" lon="4.84701">
        <ele>123.20608</ele>
        <time>2021-07-19T11:36:36Z</time>
      </trkpt>
      <trkpt lat="45.50753" lon="4.84706">
        <ele>122.9947</ele>
        <time>2021-07-19T11:36:37Z</time>
      </trkpt>
      <trkpt lat="45.50757" lon="4.84712">
        <ele>122.889</ele>
        <time>2021-07-19T11:36:38Z</time>
      </trkpt>
      <trkpt lat="45.50761" lon="4.84718">
        <ele>123.02111</ele>
        <time>2021-07-19T11:36:39Z</time>
      </trkpt>
      <trkpt lat="45.50766" lon="4.84724">
        <ele>123.03697</ele>
        <time>2021-07-19T11:36:40Z</time>
      </trkpt>
      <trkpt lat="45.5077" lon="4.8473">
        <ele>123.16909</ele>
        <time>2021-07-19T11:36:41Z</time>
      </trkpt>
      <trkpt lat="45.50774" lon="4.84737">
        <ele>123.317055</ele>
        <time>2021-07-19T11:36:42Z</time>
      </trkpt>
      <trkpt lat="45.50778" lon="4.84743">
        <ele>123.422745</ele>
        <time>2021-07-19T11:36:43Z</time>
      </trkpt>
      <trkpt lat="45.50782" lon="4.84749">
        <ele>123.290634</ele>
        <time>2021-07-19T11:36:44Z</time>
      </trkpt>
      <trkpt lat="45.50787" lon="4.84755">
        <ele>123.25893</ele>
        <time>2021-07-19T11:36:45Z</time>
      </trkpt>
      <trkpt lat="45.50791" lon="4.84761">
        <ele>123.2008</ele>
        <time>2021-07-19T11:36:46Z</time>
      </trkpt>
      <trkpt lat="45.50795" lon="4.84767">
        <ele>123.40161</ele>
        <time>2021-07-19T11:36:47Z</time>
      </trkpt>
      <trkpt lat="45.508" lon="4.84773">
        <ele>123.63413</ele>
        <time>2021-07-19T11:36:48Z</time>
      </trkpt>
      <trkpt lat="45.50804" lon="4.84779">
        <ele>123.364624</ele>
        <time>2021-07-19T11:36:49Z</time>
      </trkpt>
      <trkpt lat="45.50809" lon="4.84786">
        <ele>123.17966</ele>
        <time>2021-07-19T11:36:50Z</time>
      </trkpt>
      <trkpt lat="45.50813" lon="4.84792">
        <ele>123.32235</ele>
        <time>2021-07-19T11:36:51Z</time>
      </trkpt>
      <trkpt lat="45.50818" lon="4.84798">
        <ele>123.03697</ele>
        <time>2021-07-19T11:36:52Z</time>
      </trkpt>
      <trkpt lat="45.50822" lon="4.84804">
        <ele>123.07396</ele>
        <time>2021-07-19T11:36:53Z</time>
      </trkpt>
      <trkpt lat="45.50826" lon="4.8481">
        <ele>123.13738</ele>
        <time>2021-07-19T11:36:54Z</time>
      </trkpt>
      <trkpt lat="45.50831" lon="4.84815">
        <ele>123.05811</ele>
        <time>2021-07-19T11:36:55Z</time>
      </trkpt>
      <trkpt lat="45.50835" lon="4.84821">
        <ele>122.96298</ele>
        <time>2021-07-19T11:36:56Z</time>
      </trkpt>
      <trkpt lat="45.5084" lon="4.84827">
        <ele>123.39633</ele>
        <time>2021-07-19T11:36:57Z</time>
      </trkpt>
      <trkpt lat="45.50845" lon="4.84833">
        <ele>123.34348</ele>
        <time>2021-07-19T11:36:58Z</time>
      </trkpt>
      <trkpt lat="45.50849" lon="4.84839">
        <ele>123.28007</ele>
        <time>2021-07-19T11:36:59Z</time>
      </trkpt>
      <trkpt lat="45.50853" lon="4.84845">
        <ele>123.052826</ele>
        <time>2021-07-19T11:37:00Z</time>
      </trkpt>
      <trkpt lat="45.50858" lon="4.84851">
        <ele>123.04226</ele>
        <time>2021-07-19T11:37:01Z</time>
      </trkpt>
      <trkpt lat="45.50862" lon="4.84857">
        <ele>123.06868</ele>
        <time>2021-07-19T11:37:02Z</time>
      </trkpt>
      <trkpt lat="45.50866" lon="4.84863">
        <ele>123.184944</ele>
        <time>2021-07-19T11:37:03Z</time>
      </trkpt>
      <trkpt lat="45.50871" lon="4.8487">
        <ele>123.39633</ele>
        <time>2021-07-19T11:37:04Z</time>
      </trkpt>
      <trkpt lat="45.50874" lon="4.84876">
        <ele>123.16909</ele>
        <time>2021-07-19T11:37:05Z</time>
      </trkpt>
      <trkpt lat="45.50879" lon="4.84881">
        <ele>122.9947</ele>
        <time>2021-07-19T11:37:06Z</time>
      </trkpt>
      <trkpt lat="45.50883" lon="4.84887">
        <ele>122.899574</ele>
        <time>2021-07-19T11:37:07Z</time>
      </trkpt>
      <trkpt lat="45.50887" lon="4.84894">
        <ele>123.24835</ele>
        <time>2021-07-19T11:37:08Z</time>
      </trkpt>
      <trkpt lat="45.50891" lon="4.849">
        <ele>123.10567</ele>
        <time>2021-07-19T11:37:09Z</time>
      </trkpt>
      <trkpt lat="45.50895" lon="4.84906">
        <ele>123.08453</ele>
        <time>2021-07-19T11:37:10Z</time>
      </trkpt>
      <trkpt lat="45.509" lon="4.84912">
        <ele>123.158516</ele>
        <time>2021-07-19T11:37:11Z</time>
      </trkpt>
      <trkpt lat="45.50904" lon="4.84917">
        <ele>123.02111</ele>
        <time>2021-07-19T11:37:12Z</time>
      </trkpt>
      <trkpt lat="45.50908" lon="4.84924">
        <ele>123.02111</ele>
        <time>2021-07-19T11:37:13Z</time>
      </trkpt>
      <trkpt lat="45.50913" lon="4.8493">
        <ele>123.08453</ele>
        <time>2021-07-19T11:37:14Z</time>
      </trkpt>
      <trkpt lat="45.50917" lon="4.84936">
        <ele>123.05811</ele>
        <time>2021-07-19T11:37:15Z</time>
      </trkpt>
      <trkpt lat="45.50922" lon="4.84942">
        <ele>123.132095</ele>
        <time>2021-07-19T11:37:16Z</time>
      </trkpt>
      <trkpt lat="45.50926" lon="4.84947">
        <ele>123.14266</ele>
        <time>2021-07-19T11:37:17Z</time>
      </trkpt>
      <trkpt lat="45.5093" lon="4.84954">
        <ele>123.07396</ele>
        <time>2021-07-19T11:37:18Z</time>
      </trkpt>
      <trkpt lat="45.50935" lon="4.84959">
        <ele>122.85729</ele>
        <time>2021-07-19T11:37:19Z</time>
      </trkpt>
      <trkpt lat="45.5094" lon="4.84965">
        <ele>122.889</ele>
        <time>2021-07-19T11:37:20Z</time>
      </trkpt>
      <trkpt lat="45.50944" lon="4.84971">
        <ele>122.94185</ele>
        <time>2021-07-19T11:37:21Z</time>
      </trkpt>
      <trkpt lat="45.50948" lon="4.84976">
        <ele>123.05811</ele>
        <time>2021-07-19T11:37:22Z</time>
      </trkpt>
      <trkpt lat="45.50953" lon="4.84982">
        <ele>122.873146</ele>
        <time>2021-07-19T11:37:23Z</time>
      </trkpt>
      <trkpt lat="45.50957" lon="4.84988">
        <ele>122.76218</ele>
        <time>2021-07-19T11:37:24Z</time>
      </trkpt>
      <trkpt lat="45.50962" lon="4.84994">
        <ele>122.60892</ele>
        <time>2021-07-19T11:37:25Z</time>
      </trkpt>
      <trkpt lat="45.50966" lon="4.84999">
        <ele>122.52436</ele>
        <time>2021-07-19T11:37:26Z</time>
      </trkpt>
      <trkpt lat="45.50971" lon="4.85005">
        <ele>122.78331</ele>
        <time>2021-07-19T11:37:27Z</time>
      </trkpt>
      <trkpt lat="45.50975" lon="4.85011">
        <ele>123.00527</ele>
        <time>2021-07-19T11:37:28Z</time>
      </trkpt>
      <trkpt lat="45.5098" lon="4.85016">
        <ele>122.889</ele>
        <time>2021-07-19T11:37:29Z</time>
      </trkpt>
      <trkpt lat="45.50984" lon="4.85022">
        <ele>122.68819</ele>
        <time>2021-07-19T11:37:30Z</time>
      </trkpt>
      <trkpt lat="45.50988" lon="4.85028">
        <ele>122.83616</ele>
        <time>2021-07-19T11:37:31Z</time>
      </trkpt>
      <trkpt lat="45.50993" lon="4.85034">
        <ele>122.904854</ele>
        <time>2021-07-19T11:37:32Z</time>
      </trkpt>
      <trkpt lat="45.50998" lon="4.8504">
        <ele>123.184944</ele>
        <time>2021-07-19T11:37:33Z</time>
      </trkpt>
      <trkpt lat="45.51002" lon="4.85046">
        <ele>123.2325</ele>
        <time>2021-07-19T11:37:34Z</time>
      </trkpt>
      <trkpt lat="45.51007" lon="4.85051">
        <ele>123.02111</ele>
        <time>2021-07-19T11:37:35Z</time>
      </trkpt>
      <trkpt lat="45.51011" lon="4.85057">
        <ele>122.889</ele>
        <time>2021-07-19T11:37:36Z</time>
      </trkpt>
      <trkpt lat="45.51016" lon="4.85063">
        <ele>122.86257</ele>
        <time>2021-07-19T11:37:37Z</time>
      </trkpt>
      <trkpt lat="45.5102" lon="4.85069">
        <ele>122.793884</ele>
        <time>2021-07-19T11:37:38Z</time>
      </trkpt>
      <trkpt lat="45.51025" lon="4.85075">
        <ele>122.80444</ele>
        <time>2021-07-19T11:37:39Z</time>
      </trkpt>
      <trkpt lat="45.51028" lon="4.8508">
        <ele>122.925995</ele>
        <time>2021-07-19T11:37:40Z</time>
      </trkpt>
      <trkpt lat="45.51033" lon="4.85086">
        <ele>123.12681</ele>
        <time>2021-07-19T11:37:41Z</time>
      </trkpt>
      <trkpt lat="45.51037" lon="4.85092">
        <ele>123.2325</ele>
        <time>2021-07-19T11:37:42Z</time>
      </trkpt>
      <trkpt lat="45.51041" lon="4.85098">
        <ele>123.11096</ele>
        <time>2021-07-19T11:37:43Z</time>
      </trkpt>
      <trkpt lat="45.51045" lon="4.85104">
        <ele>123.08981</ele>
        <time>2021-07-19T11:37:44Z</time>
      </trkpt>
      <trkpt lat="45.51049" lon="4.85109">
        <ele>123.28007</ele>
        <time>2021-07-19T11:37:45Z</time>
      </trkpt>
      <trkpt lat="45.51054" lon="4.85115">
        <ele>123.35405</ele>
        <time>2021-07-19T11:37:46Z</time>
      </trkpt>
      <trkpt lat="45.51058" lon="4.8512">
        <ele>122.9577</ele>
        <time>2021-07-19T11:37:47Z</time>
      </trkpt>
      <trkpt lat="45.51062" lon="4.85126">
        <ele>122.86257</ele>
        <time>2021-07-19T11:37:48Z</time>
      </trkpt>
      <trkpt lat="45.51067" lon="4.85132">
        <ele>122.98941</ele>
        <time>2021-07-19T11:37:49Z</time>
      </trkpt>
      <trkpt lat="45.51071" lon="4.85137">
        <ele>123.19022</ele>
        <time>2021-07-19T11:37:50Z</time>
      </trkpt>
      <trkpt lat="45.51075" lon="4.85143">
        <ele>123.0634</ele>
        <time>2021-07-19T11:37:51Z</time>
      </trkpt>
      <trkpt lat="45.5108" lon="4.85149">
        <ele>123.079254</ele>
        <time>2021-07-19T11:37:52Z</time>
      </trkpt>
      <trkpt lat="45.51084" lon="4.85154">
        <ele>123.11624</ele>
        <time>2021-07-19T11:37:53Z</time>
      </trkpt>
      <trkpt lat="45.51088" lon="4.8516">
        <ele>123.158516</ele>
        <time>2021-07-19T11:37:54Z</time>
      </trkpt>
      <trkpt lat="45.51093" lon="4.85166">
        <ele>123.20608</ele>
        <time>2021-07-19T11:37:55Z</time>
      </trkpt>
      <trkpt lat="45.51097" lon="4.85172">
        <ele>123.026405</ele>
        <time>2021-07-19T11:37:56Z</time>
      </trkpt>
      <trkpt lat="45.51101" lon="4.85178">
        <ele>123.02111</ele>
        <time>2021-07-19T11:37:57Z</time>
      </trkpt>
      <trkpt lat="45.51106" lon="4.85184">
        <ele>123.04226</ele>
        <time>2021-07-19T11:37:58Z</time>
      </trkpt>
      <trkpt lat="45.51111" lon="4.8519">
        <ele>122.59306</ele>
        <time>2021-07-19T11:37:59Z</time>
      </trkpt>
      <trkpt lat="45.51115" lon="4.85196">
        <ele>122.78859</ele>
        <time>2021-07-19T11:38:00Z</time>
      </trkpt>
      <trkpt lat="45.51119" lon="4.85201">
        <ele>122.60364</ele>
        <time>2021-07-19T11:38:01Z</time>
      </trkpt>
      <trkpt lat="45.51124" lon="4.85207">
        <ele>122.70403</ele>
        <time>2021-07-19T11:38:02Z</time>
      </trkpt>
      <trkpt lat="45.51128" lon="4.85212">
        <ele>122.825584</ele>
        <time>2021-07-19T11:38:03Z</time>
      </trkpt>
      <trkpt lat="45.51133" lon="4.85218">
        <ele>122.95242</ele>
        <time>2021-07-19T11:38:04Z</time>
      </trkpt>
      <trkpt lat="45.51138" lon="4.85223">
        <ele>122.746315</ele>
        <time>2021-07-19T11:38:05Z</time>
      </trkpt>
      <trkpt lat="45.51142" lon="4.85229">
        <ele>122.72518</ele>
        <time>2021-07-19T11:38:06Z</time>
      </trkpt>
      <trkpt lat="45.51147" lon="4.85235">
        <ele>122.75688</ele>
        <time>2021-07-19T11:38:07Z</time>
      </trkpt>
      <trkpt lat="45.51151" lon="4.85241">
        <ele>123.158516</ele>
        <time>2021-07-19T11:38:08Z</time>
      </trkpt>
      <trkpt lat="45.51155" lon="4.85247">
        <ele>123.20608</ele>
        <time>2021-07-19T11:38:09Z</time>
      </trkpt>
      <trkpt lat="45.51159" lon="4.85253">
        <ele>122.920715</ele>
        <time>2021-07-19T11:38:10Z</time>
      </trkpt>
      <trkpt lat="45.51164" lon="4.85258">
        <ele>122.793884</ele>
        <time>2021-07-19T11:38:11Z</time>
      </trkpt>
      <trkpt lat="45.51167" lon="4.85264">
        <ele>122.825584</ele>
        <time>2021-07-19T11:38:12Z</time>
      </trkpt>
      <trkpt lat="45.51171" lon="4.85269">
        <ele>122.69875</ele>
        <time>2021-07-19T11:38:13Z</time>
      </trkpt>
      <trkpt lat="45.51174" lon="4.85274">
        <ele>122.85201</ele>
        <time>2021-07-19T11:38:14Z</time>
      </trkpt>
      <trkpt lat="45.51178" lon="4.85278">
        <ele>122.85729</ele>
        <time>2021-07-19T11:38:15Z</time>
      </trkpt>
      <trkpt lat="45.51183" lon="4.85282">
        <ele>122.65119</ele>
        <time>2021-07-19T11:38:16Z</time>
      </trkpt>
      <trkpt lat="45.51187" lon="4.85285">
        <ele>122.77803</ele>
        <time>2021-07-19T11:38:17Z</time>
      </trkpt>
      <trkpt lat="45.51191" lon="4.85288">
        <ele>122.65119</ele>
        <time>2021-07-19T11:38:18Z</time>
      </trkpt>
      <trkpt lat="45.51193" lon="4.85292">
        <ele>122.70403</ele>
        <time>2021-07-19T11:38:19Z</time>
      </trkpt>
      <trkpt lat="45.51195" lon="4.85297">
        <ele>122.889</ele>
        <time>2021-07-19T11:38:20Z</time>
      </trkpt>
      <trkpt lat="45.51198" lon="4.85303">
        <ele>123.08981</ele>
        <time>2021-07-19T11:38:21Z</time>
      </trkpt>
      <trkpt lat="45.51201" lon="4.85308">
        <ele>123.35405</ele>
        <time>2021-07-19T11:38:22Z</time>
      </trkpt>
      <trkpt lat="45.51204" lon="4.85313">
        <ele>123.40689</ele>
        <time>2021-07-19T11:38:23Z</time>
      </trkpt>
      <trkpt lat="45.51207" lon="4.85317">
        <ele>123.3012</ele>
        <time>2021-07-19T11:38:24Z</time>
      </trkpt>
      <trkpt lat="45.51211" lon="4.8532">
        <ele>123.290634</ele>
        <time>2021-07-19T11:38:25Z</time>
      </trkpt>
      <trkpt lat="45.51215" lon="4.85323">
        <ele>123.20608</ele>
        <time>2021-07-19T11:38:26Z</time>
      </trkpt>
      <trkpt lat="45.51219" lon="4.85326">
        <ele>124.45854</ele>
        <time>2021-07-19T11:38:27Z</time>
      </trkpt>
      <trkpt lat="45.51223" lon="4.85329">
        <ele>122.925995</ele>
        <time>2021-07-19T11:38:28Z</time>
      </trkpt>
      <trkpt lat="45.51226" lon="4.85333">
        <ele>123.19551</ele>
        <time>2021-07-19T11:38:29Z</time>
      </trkpt>
      <trkpt lat="45.5123" lon="4.85338">
        <ele>123.11096</ele>
        <time>2021-07-19T11:38:30Z</time>
      </trkpt>
      <trkpt lat="45.51233" lon="4.85342">
        <ele>122.81502</ele>
        <time>2021-07-19T11:38:31Z</time>
      </trkpt>
      <trkpt lat="45.51236" lon="4.85347">
        <ele>122.76218</ele>
        <time>2021-07-19T11:38:32Z</time>
      </trkpt>
      <trkpt lat="45.51239" lon="4.85352">
        <ele>122.67233</ele>
        <time>2021-07-19T11:38:33Z</time>
      </trkpt>
      <trkpt lat="45.51244" lon="4.85353">
        <ele>122.28655</ele>
        <time>2021-07-19T11:38:34Z</time>
      </trkpt>
      <trkpt lat="45.51248" lon="4.85352">
        <ele>122.07517</ele>
        <time>2021-07-19T11:38:35Z</time>
      </trkpt>
      <trkpt lat="45.51252" lon="4.85349">
        <ele>122.17029</ele>
        <time>2021-07-19T11:38:36Z</time>
      </trkpt>
      <trkpt lat="45.51256" lon="4.85345">
        <ele>122.21257</ele>
        <time>2021-07-19T11:38:37Z</time>
      </trkpt>
      <trkpt lat="45.5126" lon="4.85341">
        <ele>122.149155</ele>
        <time>2021-07-19T11:38:38Z</time>
      </trkpt>
      <trkpt lat="45.51263" lon="4.85337">
        <ele>121.95362</ele>
        <time>2021-07-19T11:38:39Z</time>
      </trkpt>
      <trkpt lat="45.51267" lon="4.85333">
        <ele>122.096306</ele>
        <time>2021-07-19T11:38:40Z</time>
      </trkpt>
      <trkpt lat="45.5127" lon="4.8533">
        <ele>122.275986</ele>
        <time>2021-07-19T11:38:41Z</time>
      </trkpt>
      <trkpt lat="45.51274" lon="4.85328">
        <ele>122.59834</ele>
        <time>2021-07-19T11:38:42Z</time>
      </trkpt>
      <trkpt lat="45.51279" lon="4.85327">
        <ele>122.6142</ele>
        <time>2021-07-19T11:38:43Z</time>
      </trkpt>
      <trkpt lat="45.51284" lon="4.85328">
        <ele>122.86787</ele>
        <time>2021-07-19T11:38:44Z</time>
      </trkpt>
      <trkpt lat="45.51288" lon="4.8533">
        <ele>122.76218</ele>
        <time>2021-07-19T11:38:45Z</time>
      </trkpt>
      <trkpt lat="45.51291" lon="4.85334">
        <ele>122.86257</ele>
        <time>2021-07-19T11:38:46Z</time>
      </trkpt>
      <trkpt lat="45.51295" lon="4.8534">
        <ele>122.67233</ele>
        <time>2021-07-19T11:38:47Z</time>
      </trkpt>
      <trkpt lat="45.51299" lon="4.85345">
        <ele>122.50322</ele>
        <time>2021-07-19T11:38:48Z</time>
      </trkpt>
      <trkpt lat="45.51302" lon="4.8535">
        <ele>122.62477</ele>
        <time>2021-07-19T11:38:49Z</time>
      </trkpt>
      <trkpt lat="45.51305" lon="4.85355">
        <ele>122.78331</ele>
        <time>2021-07-19T11:38:50Z</time>
      </trkpt>
      <trkpt lat="45.51309" lon="4.8536">
        <ele>122.63005</ele>
        <time>2021-07-19T11:38:51Z</time>
      </trkpt>
      <trkpt lat="45.51312" lon="4.85366">
        <ele>122.667046</ele>
        <time>2021-07-19T11:38:52Z</time>
      </trkpt>
      <trkpt lat="45.51315" lon="4.85372">
        <ele>122.78859</ele>
        <time>2021-07-19T11:38:53Z</time>
      </trkpt>
      <trkpt lat="45.51319" lon="4.8538">
        <ele>122.68819</ele>
        <time>2021-07-19T11:38:54Z</time>
      </trkpt>
      <trkpt lat="45.51323" lon="4.85387">
        <ele>122.42396</ele>
        <time>2021-07-19T11:38:55Z</time>
      </trkpt>
      <trkpt lat="45.51326" lon="4.85394">
        <ele>122.56135</ele>
        <time>2021-07-19T11:38:56Z</time>
      </trkpt>
      <trkpt lat="45.5133" lon="4.85402">
        <ele>122.42924</ele>
        <time>2021-07-19T11:38:57Z</time>
      </trkpt>
      <trkpt lat="45.51334" lon="4.85409">
        <ele>122.513794</ele>
        <time>2021-07-19T11:38:58Z</time>
      </trkpt>
      <trkpt lat="45.51337" lon="4.85414">
        <ele>122.42396</ele>
        <time>2021-07-19T11:38:59Z</time>
      </trkpt>
      <trkpt lat="45.51341" lon="4.85421">
        <ele>122.355255</ele>
        <time>2021-07-19T11:39:00Z</time>
      </trkpt>
      <trkpt lat="45.51343" lon="4.85428">
        <ele>122.21786</ele>
        <time>2021-07-19T11:39:01Z</time>
      </trkpt>
      <trkpt lat="45.51345" lon="4.85433">
        <ele>122.18086</ele>
        <time>2021-07-19T11:39:02Z</time>
      </trkpt>
      <trkpt lat="45.51348" lon="4.8544">
        <ele>122.096306</ele>
        <time>2021-07-19T11:39:03Z</time>
      </trkpt>
      <trkpt lat="45.5135" lon="4.85445">
        <ele>122.275986</ele>
        <time>2021-07-19T11:39:04Z</time>
      </trkpt>
      <trkpt lat="45.51353" lon="4.85452">
        <ele>122.41867</ele>
        <time>2021-07-19T11:39:05Z</time>
      </trkpt>
      <trkpt lat="45.51355" lon="4.85458">
        <ele>122.65119</ele>
        <time>2021-07-19T11:39:06Z</time>
      </trkpt>
      <trkpt lat="45.51358" lon="4.85465">
        <ele>122.37111</ele>
        <time>2021-07-19T11:39:07Z</time>
      </trkpt>
      <trkpt lat="45.51361" lon="4.85472">
        <ele>122.06988</ele>
        <time>2021-07-19T11:39:08Z</time>
      </trkpt>
      <trkpt lat="45.51363" lon="4.85477">
        <ele>122.60364</ele>
        <time>2021-07-19T11:39:09Z</time>
      </trkpt>
      <trkpt lat="45.51364" lon="4.85484">
        <ele>122.72518</ele>
        <time>2021-07-19T11:39:10Z</time>
      </trkpt>
      <trkpt lat="45.51366" lon="4.85492">
        <ele>123.211365</ele>
        <time>2021-07-19T11:39:11Z</time>
      </trkpt>
      <trkpt lat="45.51369" lon="4.85499">
        <ele>122.80444</ele>
        <time>2021-07-19T11:39:12Z</time>
      </trkpt>
      <trkpt lat="45.51372" lon="4.85507">
        <ele>122.39753</ele>
        <time>2021-07-19T11:39:13Z</time>
      </trkpt>
      <trkpt lat="45.51375" lon="4.85514">
        <ele>122.46095</ele>
        <time>2021-07-19T11:39:14Z</time>
      </trkpt>
      <trkpt lat="45.51378" lon="4.85523">
        <ele>122.41338</ele>
        <time>2021-07-19T11:39:15Z</time>
      </trkpt>
      <trkpt lat="45.51381" lon="4.85531">
        <ele>122.42924</ele>
        <time>2021-07-19T11:39:16Z</time>
      </trkpt>
      <trkpt lat="45.51386" lon="4.85541">
        <ele>122.36582</ele>
        <time>2021-07-19T11:39:17Z</time>
      </trkpt>
      <trkpt lat="45.51389" lon="4.85549">
        <ele>122.13858</ele>
        <time>2021-07-19T11:39:18Z</time>
      </trkpt>
      <trkpt lat="45.51394" lon="4.85558">
        <ele>122.10688</ele>
        <time>2021-07-19T11:39:19Z</time>
      </trkpt>
      <trkpt lat="45.51397" lon="4.85566">
        <ele>121.995895</ele>
        <time>2021-07-19T11:39:20Z</time>
      </trkpt>
      <trkpt lat="45.514" lon="4.85573">
        <ele>122.01703</ele>
        <time>2021-07-19T11:39:21Z</time>
      </trkpt>
      <trkpt lat="45.51404" lon="4.8558">
        <ele>121.88492</ele>
        <time>2021-07-19T11:39:22Z</time>
      </trkpt>
      <trkpt lat="45.51407" lon="4.85589">
        <ele>121.7898</ele>
        <time>2021-07-19T11:39:23Z</time>
      </trkpt>
      <trkpt lat="45.51411" lon="4.85595">
        <ele>121.7898</ele>
        <time>2021-07-19T11:39:24Z</time>
      </trkpt>
      <trkpt lat="45.51415" lon="4.85602">
        <ele>121.63654</ele>
        <time>2021-07-19T11:39:25Z</time>
      </trkpt>
      <trkpt lat="45.51418" lon="4.85609">
        <ele>121.46215</ele>
        <time>2021-07-19T11:39:26Z</time>
      </trkpt>
      <trkpt lat="45.51422" lon="4.85615">
        <ele>121.43572</ele>
        <time>2021-07-19T11:39:27Z</time>
      </trkpt>
      <trkpt lat="45.51425" lon="4.85622">
        <ele>121.372314</ele>
        <time>2021-07-19T11:39:28Z</time>
      </trkpt>
      <trkpt lat="45.51429" lon="4.85628">
        <ele>121.53085</ele>
        <time>2021-07-19T11:39:29Z</time>
      </trkpt>
      <trkpt lat="45.51433" lon="4.85634">
        <ele>121.83208</ele>
        <time>2021-07-19T11:39:30Z</time>
      </trkpt>
      <trkpt lat="45.51437" lon="4.85642">
        <ele>121.90606</ele>
        <time>2021-07-19T11:39:31Z</time>
      </trkpt>
      <trkpt lat="45.51443" lon="4.85649">
        <ele>121.863785</ele>
        <time>2021-07-19T11:39:32Z</time>
      </trkpt>
      <trkpt lat="45.51447" lon="4.85656">
        <ele>121.74752</ele>
        <time>2021-07-19T11:39:33Z</time>
      </trkpt>
      <trkpt lat="45.51452" lon="4.85662">
        <ele>121.7528</ele>
        <time>2021-07-19T11:39:34Z</time>
      </trkpt>
      <trkpt lat="45.51457" lon="4.85669">
        <ele>121.684105</ele>
        <time>2021-07-19T11:39:35Z</time>
      </trkpt>
      <trkpt lat="45.51462" lon="4.85675">
        <ele>121.45158</ele>
        <time>2021-07-19T11:39:36Z</time>
      </trkpt>
      <trkpt lat="45.51466" lon="4.8568">
        <ele>121.57313</ele>
        <time>2021-07-19T11:39:37Z</time>
      </trkpt>
      <trkpt lat="45.51471" lon="4.85687">
        <ele>121.85321</ele>
        <time>2021-07-19T11:39:38Z</time>
      </trkpt>
      <trkpt lat="45.51475" lon="4.85691">
        <ele>121.94834</ele>
        <time>2021-07-19T11:39:39Z</time>
      </trkpt>
      <trkpt lat="45.5148" lon="4.85697">
        <ele>121.80565</ele>
        <time>2021-07-19T11:39:40Z</time>
      </trkpt>
      <trkpt lat="45.51484" lon="4.85703">
        <ele>121.80036</ele>
        <time>2021-07-19T11:39:41Z</time>
      </trkpt>
      <trkpt lat="45.51488" lon="4.85708">
        <ele>121.863785</ele>
        <time>2021-07-19T11:39:42Z</time>
      </trkpt>
      <trkpt lat="45.51492" lon="4.85713">
        <ele>122.23371</ele>
        <time>2021-07-19T11:39:43Z</time>
      </trkpt>
      <trkpt lat="45.51497" lon="4.8572">
        <ele>121.80565</ele>
        <time>2021-07-19T11:39:44Z</time>
      </trkpt>
      <trkpt lat="45.51502" lon="4.85725">
        <ele>121.483284</ele>
        <time>2021-07-19T11:39:45Z</time>
      </trkpt>
      <trkpt lat="45.51506" lon="4.85731">
        <ele>122.0276</ele>
        <time>2021-07-19T11:39:46Z</time>
      </trkpt>
      <trkpt lat="45.5151" lon="4.85736">
        <ele>122.249565</ele>
        <time>2021-07-19T11:39:47Z</time>
      </trkpt>
      <trkpt lat="45.51514" lon="4.85741">
        <ele>122.16501</ele>
        <time>2021-07-19T11:39:48Z</time>
      </trkpt>
      <trkpt lat="45.51518" lon="4.85747">
        <ele>121.657684</ele>
        <time>2021-07-19T11:39:49Z</time>
      </trkpt>
      <trkpt lat="45.51522" lon="4.85752">
        <ele>121.63654</ele>
        <time>2021-07-19T11:39:50Z</time>
      </trkpt>
      <trkpt lat="45.51527" lon="4.85758">
        <ele>121.71581</ele>
        <time>2021-07-19T11:39:51Z</time>
      </trkpt>
      <trkpt lat="45.51532" lon="4.85765">
        <ele>121.71581</ele>
        <time>2021-07-19T11:39:52Z</time>
      </trkpt>
      <trkpt lat="45.51537" lon="4.85771">
        <ele>121.657684</ele>
        <time>2021-07-19T11:39:53Z</time>
      </trkpt>
      <trkpt lat="45.51542" lon="4.85777">
        <ele>121.69467</ele>
        <time>2021-07-19T11:39:54Z</time>
      </trkpt>
      <trkpt lat="45.51547" lon="4.85782">
        <ele>121.54671</ele>
        <time>2021-07-19T11:39:55Z</time>
      </trkpt>
      <trkpt lat="45.51551" lon="4.85787">
        <ele>121.504425</ele>
        <time>2021-07-19T11:39:56Z</time>
      </trkpt>
      <trkpt lat="45.51555" lon="4.85793">
        <ele>121.62069</ele>
        <time>2021-07-19T11:39:57Z</time>
      </trkpt>
      <trkpt lat="45.5156" lon="4.85799">
        <ele>121.73167</ele>
        <time>2021-07-19T11:39:58Z</time>
      </trkpt>
      <trkpt lat="45.51565" lon="4.85805">
        <ele>122.12801</ele>
        <time>2021-07-19T11:39:59Z</time>
      </trkpt>
      <trkpt lat="45.5157" lon="4.85811">
        <ele>122.08045</ele>
        <time>2021-07-19T11:40:00Z</time>
      </trkpt>
      <trkpt lat="45.51574" lon="4.85816">
        <ele>121.525566</ele>
        <time>2021-07-19T11:40:01Z</time>
      </trkpt>
      <trkpt lat="45.51579" lon="4.85821">
        <ele>121.62597</ele>
        <time>2021-07-19T11:40:02Z</time>
      </trkpt>
      <trkpt lat="45.51583" lon="4.85826">
        <ele>121.84265</ele>
        <time>2021-07-19T11:40:03Z</time>
      </trkpt>
      <trkpt lat="45.51587" lon="4.85833">
        <ele>121.67354</ele>
        <time>2021-07-19T11:40:04Z</time>
      </trkpt>
      <trkpt lat="45.51591" lon="4.85838">
        <ele>121.54671</ele>
        <time>2021-07-19T11:40:05Z</time>
      </trkpt>
      <trkpt lat="45.51595" lon="4.85843">
        <ele>121.57313</ele>
        <time>2021-07-19T11:40:06Z</time>
      </trkpt>
      <trkpt lat="45.516" lon="4.85848">
        <ele>121.599556</ele>
        <time>2021-07-19T11:40:07Z</time>
      </trkpt>
      <trkpt lat="45.51603" lon="4.85854">
        <ele>121.49914</ele>
        <time>2021-07-19T11:40:08Z</time>
      </trkpt>
      <trkpt lat="45.51608" lon="4.85859">
        <ele>121.578415</ele>
        <time>2021-07-19T11:40:09Z</time>
      </trkpt>
      <trkpt lat="45.51613" lon="4.85865">
        <ele>121.599556</ele>
        <time>2021-07-19T11:40:10Z</time>
      </trkpt>
      <trkpt lat="45.51619" lon="4.85872">
        <ele>121.869064</ele>
        <time>2021-07-19T11:40:11Z</time>
      </trkpt>
      <trkpt lat="45.51624" lon="4.85878">
        <ele>121.73695</ele>
        <time>2021-07-19T11:40:12Z</time>
      </trkpt>
      <trkpt lat="45.51629" lon="4.85883">
        <ele>121.77923</ele>
        <time>2021-07-19T11:40:13Z</time>
      </trkpt>
      <trkpt lat="45.51634" lon="4.85889">
        <ele>122.07517</ele>
        <time>2021-07-19T11:40:14Z</time>
      </trkpt>
      <trkpt lat="45.51638" lon="4.85894">
        <ele>122.18086</ele>
        <time>2021-07-19T11:40:15Z</time>
      </trkpt>
      <trkpt lat="45.51643" lon="4.859">
        <ele>122.20728</ele>
        <time>2021-07-19T11:40:16Z</time>
      </trkpt>
      <trkpt lat="45.51648" lon="4.85905">
        <ele>122.09103</ele>
        <time>2021-07-19T11:40:17Z</time>
      </trkpt>
      <trkpt lat="45.51652" lon="4.85911">
        <ele>122.18614</ele>
        <time>2021-07-19T11:40:18Z</time>
      </trkpt>
      <trkpt lat="45.51657" lon="4.85916">
        <ele>122.11216</ele>
        <time>2021-07-19T11:40:19Z</time>
      </trkpt>
      <trkpt lat="45.51661" lon="4.85922">
        <ele>122.07517</ele>
        <time>2021-07-19T11:40:20Z</time>
      </trkpt>
      <trkpt lat="45.51666" lon="4.85928">
        <ele>121.758095</ele>
        <time>2021-07-19T11:40:21Z</time>
      </trkpt>
      <trkpt lat="45.5167" lon="4.85934">
        <ele>121.95891</ele>
        <time>2021-07-19T11:40:22Z</time>
      </trkpt>
      <trkpt lat="45.51675" lon="4.85939">
        <ele>122.08573</ele>
        <time>2021-07-19T11:40:23Z</time>
      </trkpt>
      <trkpt lat="45.51679" lon="4.85945">
        <ele>122.05932</ele>
        <time>2021-07-19T11:40:24Z</time>
      </trkpt>
      <trkpt lat="45.51684" lon="4.85951">
        <ele>121.95362</ele>
        <time>2021-07-19T11:40:25Z</time>
      </trkpt>
      <trkpt lat="45.51688" lon="4.85956">
        <ele>121.84265</ele>
        <time>2021-07-19T11:40:26Z</time>
      </trkpt>
      <trkpt lat="45.51693" lon="4.85962">
        <ele>122.08045</ele>
        <time>2021-07-19T11:40:27Z</time>
      </trkpt>
      <trkpt lat="45.51697" lon="4.85968">
        <ele>122.11745</ele>
        <time>2021-07-19T11:40:28Z</time>
      </trkpt>
      <trkpt lat="45.51702" lon="4.85974">
        <ele>121.995895</ele>
        <time>2021-07-19T11:40:29Z</time>
      </trkpt>
      <trkpt lat="45.51706" lon="4.85979">
        <ele>121.763374</ele>
        <time>2021-07-19T11:40:30Z</time>
      </trkpt>
      <trkpt lat="45.51711" lon="4.85985">
        <ele>121.98004</ele>
        <time>2021-07-19T11:40:31Z</time>
      </trkpt>
      <trkpt lat="45.51715" lon="4.8599">
        <ele>122.05932</ele>
        <time>2021-07-19T11:40:32Z</time>
      </trkpt>
      <trkpt lat="45.51719" lon="4.85996">
        <ele>122.06988</ele>
        <time>2021-07-19T11:40:33Z</time>
      </trkpt>
      <trkpt lat="45.51724" lon="4.86001">
        <ele>121.890205</ele>
        <time>2021-07-19T11:40:34Z</time>
      </trkpt>
      <trkpt lat="45.51728" lon="4.86006">
        <ele>122.57192</ele>
        <time>2021-07-19T11:40:35Z</time>
      </trkpt>
      <trkpt lat="45.51737" lon="4.86017">
        <ele>121.995895</ele>
        <time>2021-07-19T11:40:37Z</time>
      </trkpt>
      <trkpt lat="45.51741" lon="4.86023">
        <ele>122.05932</ele>
        <time>2021-07-19T11:40:38Z</time>
      </trkpt>
      <trkpt lat="45.51745" lon="4.86029">
        <ele>122.39225</ele>
        <time>2021-07-19T11:40:39Z</time>
      </trkpt>
      <trkpt lat="45.5175" lon="4.86035">
        <ele>122.34468</ele>
        <time>2021-07-19T11:40:40Z</time>
      </trkpt>
      <trkpt lat="45.51754" lon="4.8604">
        <ele>122.42924</ele>
        <time>2021-07-19T11:40:41Z</time>
      </trkpt>
      <trkpt lat="45.51759" lon="4.86046">
        <ele>122.50851</ele>
        <time>2021-07-19T11:40:42Z</time>
      </trkpt>
      <trkpt lat="45.51763" lon="4.86051">
        <ele>122.47681</ele>
        <time>2021-07-19T11:40:43Z</time>
      </trkpt>
      <trkpt lat="45.51768" lon="4.86057">
        <ele>122.49794</ele>
        <time>2021-07-19T11:40:44Z</time>
      </trkpt>
      <trkpt lat="45.51773" lon="4.86063">
        <ele>122.23371</ele>
        <time>2021-07-19T11:40:45Z</time>
      </trkpt>
      <trkpt lat="45.51778" lon="4.86068">
        <ele>121.93249</ele>
        <time>2021-07-19T11:40:46Z</time>
      </trkpt>
      <trkpt lat="45.51783" lon="4.86074">
        <ele>122.1333</ele>
        <time>2021-07-19T11:40:47Z</time>
      </trkpt>
      <trkpt lat="45.51788" lon="4.86079">
        <ele>121.98004</ele>
        <time>2021-07-19T11:40:48Z</time>
      </trkpt>
      <trkpt lat="45.51793" lon="4.86085">
        <ele>122.34468</ele>
        <time>2021-07-19T11:40:49Z</time>
      </trkpt>
      <trkpt lat="45.51798" lon="4.8609">
        <ele>122.14387</ele>
        <time>2021-07-19T11:40:50Z</time>
      </trkpt>
      <trkpt lat="45.51802" lon="4.86095">
        <ele>122.048744</ele>
        <time>2021-07-19T11:40:51Z</time>
      </trkpt>
      <trkpt lat="45.51807" lon="4.861">
        <ele>121.472725</ele>
        <time>2021-07-19T11:40:52Z</time>
      </trkpt>
      <trkpt lat="45.51811" lon="4.86104">
        <ele>121.525566</ele>
        <time>2021-07-19T11:40:53Z</time>
      </trkpt>
      <trkpt lat="45.51816" lon="4.86108">
        <ele>121.662964</ele>
        <time>2021-07-19T11:40:54Z</time>
      </trkpt>
      <trkpt lat="45.51821" lon="4.86113">
        <ele>121.68939</ele>
        <time>2021-07-19T11:40:55Z</time>
      </trkpt>
      <trkpt lat="45.51825" lon="4.86117">
        <ele>121.77395</ele>
        <time>2021-07-19T11:40:56Z</time>
      </trkpt>
      <trkpt lat="45.5183" lon="4.86122">
        <ele>121.62597</ele>
        <time>2021-07-19T11:40:57Z</time>
      </trkpt>
      <trkpt lat="45.51835" lon="4.86128">
        <ele>121.64182</ele>
        <time>2021-07-19T11:40:58Z</time>
      </trkpt>
      <trkpt lat="45.5184" lon="4.86133">
        <ele>121.66825</ele>
        <time>2021-07-19T11:40:59Z</time>
      </trkpt>
      <trkpt lat="45.51845" lon="4.86139">
        <ele>121.66825</ele>
        <time>2021-07-19T11:41:00Z</time>
      </trkpt>
      <trkpt lat="45.5185" lon="4.86145">
        <ele>121.50971</ele>
        <time>2021-07-19T11:41:01Z</time>
      </trkpt>
      <trkpt lat="45.51855" lon="4.86151">
        <ele>121.66825</ele>
        <time>2021-07-19T11:41:02Z</time>
      </trkpt>
      <trkpt lat="45.5186" lon="4.86156">
        <ele>121.810936</ele>
        <time>2021-07-19T11:41:03Z</time>
      </trkpt>
      <trkpt lat="45.51865" lon="4.86161">
        <ele>121.863785</ele>
        <time>2021-07-19T11:41:04Z</time>
      </trkpt>
      <trkpt lat="45.5187" lon="4.86167">
        <ele>121.72638</ele>
        <time>2021-07-19T11:41:05Z</time>
      </trkpt>
      <trkpt lat="45.51875" lon="4.86172">
        <ele>121.657684</ele>
        <time>2021-07-19T11:41:06Z</time>
      </trkpt>
      <trkpt lat="45.51879" lon="4.86177">
        <ele>121.67354</ele>
        <time>2021-07-19T11:41:07Z</time>
      </trkpt>
      <trkpt lat="45.51884" lon="4.86182">
        <ele>121.55199</ele>
        <time>2021-07-19T11:41:08Z</time>
      </trkpt>
      <trkpt lat="45.51888" lon="4.86187">
        <ele>122.47681</ele>
        <time>2021-07-19T11:41:09Z</time>
      </trkpt>
      <trkpt lat="45.51893" lon="4.86192">
        <ele>121.92191</ele>
        <time>2021-07-19T11:41:10Z</time>
      </trkpt>
      <trkpt lat="45.51897" lon="4.86197">
        <ele>121.91134</ele>
        <time>2021-07-19T11:41:11Z</time>
      </trkpt>
      <trkpt lat="45.51902" lon="4.86201">
        <ele>121.67882</ele>
        <time>2021-07-19T11:41:12Z</time>
      </trkpt>
      <trkpt lat="45.51907" lon="4.86206">
        <ele>122.05932</ele>
        <time>2021-07-19T11:41:13Z</time>
      </trkpt>
      <trkpt lat="45.51911" lon="4.8621">
        <ele>122.08045</ele>
        <time>2021-07-19T11:41:14Z</time>
      </trkpt>
      <trkpt lat="45.51915" lon="4.86215">
        <ele>121.94305</ele>
        <time>2021-07-19T11:41:15Z</time>
      </trkpt>
      <trkpt lat="45.5192" lon="4.8622">
        <ele>121.705246</ele>
        <time>2021-07-19T11:41:16Z</time>
      </trkpt>
      <trkpt lat="45.51925" lon="4.86225">
        <ele>121.73167</ele>
        <time>2021-07-19T11:41:17Z</time>
      </trkpt>
      <trkpt lat="45.5193" lon="4.8623">
        <ele>121.85321</ele>
        <time>2021-07-19T11:41:18Z</time>
      </trkpt>
      <trkpt lat="45.51933" lon="4.86236">
        <ele>121.91134</ele>
        <time>2021-07-19T11:41:19Z</time>
      </trkpt>
      <trkpt lat="45.51938" lon="4.86242">
        <ele>121.83736</ele>
        <time>2021-07-19T11:41:20Z</time>
      </trkpt>
      <trkpt lat="45.51944" lon="4.86248">
        <ele>121.83208</ele>
        <time>2021-07-19T11:41:21Z</time>
      </trkpt>
      <trkpt lat="45.5195" lon="4.86251">
        <ele>121.95891</ele>
        <time>2021-07-19T11:41:22Z</time>
      </trkpt>
      <trkpt lat="45.51956" lon="4.86256">
        <ele>121.90606</ele>
        <time>2021-07-19T11:41:23Z</time>
      </trkpt>
      <trkpt lat="45.51961" lon="4.86262">
        <ele>122.00119</ele>
        <time>2021-07-19T11:41:24Z</time>
      </trkpt>
      <trkpt lat="45.51966" lon="4.86267">
        <ele>122.01703</ele>
        <time>2021-07-19T11:41:25Z</time>
      </trkpt>
      <trkpt lat="45.51971" lon="4.86272">
        <ele>122.14387</ele>
        <time>2021-07-19T11:41:26Z</time>
      </trkpt>
      <trkpt lat="45.51975" lon="4.86277">
        <ele>122.21786</ele>
        <time>2021-07-19T11:41:27Z</time>
      </trkpt>
      <trkpt lat="45.51979" lon="4.86283">
        <ele>122.487366</ele>
        <time>2021-07-19T11:41:29Z</time>
      </trkpt>
      <trkpt lat="45.51983" lon="4.86289">
        <ele>122.513794</ele>
        <time>2021-07-19T11:41:30Z</time>
      </trkpt>
      <trkpt lat="45.51988" lon="4.86293">
        <ele>122.21257</ele>
        <time>2021-07-19T11:41:31Z</time>
      </trkpt>
      <trkpt lat="45.51993" lon="4.86298">
        <ele>121.8215</ele>
        <time>2021-07-19T11:41:32Z</time>
      </trkpt>
      <trkpt lat="45.51997" lon="4.86304">
        <ele>121.83736</ele>
        <time>2021-07-19T11:41:33Z</time>
      </trkpt>
      <trkpt lat="45.52002" lon="4.86309">
        <ele>121.763374</ele>
        <time>2021-07-19T11:41:34Z</time>
      </trkpt>
      <trkpt lat="45.52008" lon="4.86315">
        <ele>121.83208</ele>
        <time>2021-07-19T11:41:35Z</time>
      </trkpt>
      <trkpt lat="45.52013" lon="4.86321">
        <ele>121.85849</ele>
        <time>2021-07-19T11:41:36Z</time>
      </trkpt>
      <trkpt lat="45.52019" lon="4.86327">
        <ele>121.662964</ele>
        <time>2021-07-19T11:41:37Z</time>
      </trkpt>
      <trkpt lat="45.52024" lon="4.86333">
        <ele>121.599556</ele>
        <time>2021-07-19T11:41:38Z</time>
      </trkpt>
      <trkpt lat="45.52029" lon="4.86338">
        <ele>121.58898</ele>
        <time>2021-07-19T11:41:39Z</time>
      </trkpt>
      <trkpt lat="45.52034" lon="4.86344">
        <ele>121.67354</ele>
        <time>2021-07-19T11:41:40Z</time>
      </trkpt>
      <trkpt lat="45.52039" lon="4.8635">
        <ele>121.72638</ele>
        <time>2021-07-19T11:41:41Z</time>
      </trkpt>
      <trkpt lat="45.52044" lon="4.86356">
        <ele>121.72638</ele>
        <time>2021-07-19T11:41:42Z</time>
      </trkpt>
      <trkpt lat="45.52049" lon="4.86361">
        <ele>121.63126</ele>
        <time>2021-07-19T11:41:43Z</time>
      </trkpt>
      <trkpt lat="45.52054" lon="4.86367">
        <ele>121.49914</ele>
        <time>2021-07-19T11:41:44Z</time>
      </trkpt>
      <trkpt lat="45.52059" lon="4.86373">
        <ele>121.62597</ele>
        <time>2021-07-19T11:41:45Z</time>
      </trkpt>
      <trkpt lat="45.52064" lon="4.86378">
        <ele>121.4463</ele>
        <time>2021-07-19T11:41:46Z</time>
      </trkpt>
      <trkpt lat="45.52069" lon="4.86383">
        <ele>121.45158</ele>
        <time>2021-07-19T11:41:47Z</time>
      </trkpt>
      <trkpt lat="45.52074" lon="4.86388">
        <ele>121.45687</ele>
        <time>2021-07-19T11:41:48Z</time>
      </trkpt>
      <trkpt lat="45.52078" lon="4.86393">
        <ele>121.41459</ele>
        <time>2021-07-19T11:41:49Z</time>
      </trkpt>
      <trkpt lat="45.52082" lon="4.86398">
        <ele>121.52028</ele>
        <time>2021-07-19T11:41:50Z</time>
      </trkpt>
      <trkpt lat="45.52087" lon="4.86403">
        <ele>121.64182</ele>
        <time>2021-07-19T11:41:51Z</time>
      </trkpt>
      <trkpt lat="45.52092" lon="4.86409">
        <ele>121.6524</ele>
        <time>2021-07-19T11:41:52Z</time>
      </trkpt>
      <trkpt lat="45.52097" lon="4.86413">
        <ele>121.7528</ele>
        <time>2021-07-19T11:41:53Z</time>
      </trkpt>
      <trkpt lat="45.52101" lon="4.86419">
        <ele>121.68939</ele>
        <time>2021-07-19T11:41:54Z</time>
      </trkpt>
      <trkpt lat="45.52106" lon="4.86424">
        <ele>121.662964</ele>
        <time>2021-07-19T11:41:55Z</time>
      </trkpt>
      <trkpt lat="45.52111" lon="4.86429">
        <ele>121.66825</ele>
        <time>2021-07-19T11:41:56Z</time>
      </trkpt>
      <trkpt lat="45.52116" lon="4.86435">
        <ele>121.599556</ele>
        <time>2021-07-19T11:41:57Z</time>
      </trkpt>
      <trkpt lat="45.52121" lon="4.8644">
        <ele>121.50971</ele>
        <time>2021-07-19T11:41:58Z</time>
      </trkpt>
      <trkpt lat="45.52127" lon="4.86445">
        <ele>121.62069</ele>
        <time>2021-07-19T11:41:59Z</time>
      </trkpt>
      <trkpt lat="45.52131" lon="4.86451">
        <ele>121.71581</ele>
        <time>2021-07-19T11:42:00Z</time>
      </trkpt>
      <trkpt lat="45.52136" lon="4.86457">
        <ele>121.79508</ele>
        <time>2021-07-19T11:42:01Z</time>
      </trkpt>
      <trkpt lat="45.52141" lon="4.86462">
        <ele>121.77923</ele>
        <time>2021-07-19T11:42:02Z</time>
      </trkpt>
      <trkpt lat="45.52146" lon="4.86468">
        <ele>121.88492</ele>
        <time>2021-07-19T11:42:03Z</time>
      </trkpt>
      <trkpt lat="45.5215" lon="4.86473">
        <ele>121.87435</ele>
        <time>2021-07-19T11:42:04Z</time>
      </trkpt>
      <trkpt lat="45.52155" lon="4.86478">
        <ele>121.77923</ele>
        <time>2021-07-19T11:42:05Z</time>
      </trkpt>
      <trkpt lat="45.52159" lon="4.86484">
        <ele>121.810936</ele>
        <time>2021-07-19T11:42:06Z</time>
      </trkpt>
      <trkpt lat="45.52163" lon="4.86489">
        <ele>121.657684</ele>
        <time>2021-07-19T11:42:07Z</time>
      </trkpt>
      <trkpt lat="45.52168" lon="4.86493">
        <ele>121.57313</ele>
        <time>2021-07-19T11:42:08Z</time>
      </trkpt>
      <trkpt lat="45.52172" lon="4.86497">
        <ele>121.578415</ele>
        <time>2021-07-19T11:42:09Z</time>
      </trkpt>
      <trkpt lat="45.52176" lon="4.86501">
        <ele>121.213776</ele>
        <time>2021-07-19T11:42:10Z</time>
      </trkpt>
      <trkpt lat="45.52179" lon="4.86505">
        <ele>121.15035</ele>
        <time>2021-07-19T11:42:11Z</time>
      </trkpt>
      <trkpt lat="45.52182" lon="4.86507">
        <ele>121.02881</ele>
        <time>2021-07-19T11:42:12Z</time>
      </trkpt>
      <trkpt lat="45.52183" lon="4.86509">
        <ele>120.938965</ele>
        <time>2021-07-19T11:42:13Z</time>
      </trkpt>
      <trkpt lat="45.52184" lon="4.8651">
        <ele>120.99711</ele>
        <time>2021-07-19T11:42:14Z</time>
      </trkpt>
      <trkpt lat="45.52184" lon="4.86511">
        <ele>120.827995</ele>
        <time>2021-07-19T11:42:15Z</time>
      </trkpt>
      <trkpt lat="45.52185" lon="4.86512">
        <ele>120.97068</ele>
        <time>2021-07-19T11:42:16Z</time>
      </trkpt>
      <trkpt lat="45.52185" lon="4.86513">
        <ele>121.04466</ele>
        <time>2021-07-19T11:42:17Z</time>
      </trkpt>
      <trkpt lat="45.52187" lon="4.86514">
        <ele>121.24548</ele>
        <time>2021-07-19T11:42:18Z</time>
      </trkpt>
      <trkpt lat="45.52189" lon="4.86516">
        <ele>121.38817</ele>
        <time>2021-07-19T11:42:19Z</time>
      </trkpt>
      <trkpt lat="45.5219" lon="4.86519">
        <ele>121.6524</ele>
        <time>2021-07-19T11:42:20Z</time>
      </trkpt>
      <trkpt lat="45.52193" lon="4.86523">
        <ele>121.67354</ele>
        <time>2021-07-19T11:42:21Z</time>
      </trkpt>
      <trkpt lat="45.52196" lon="4.86526">
        <ele>121.54141</ele>
        <time>2021-07-19T11:42:22Z</time>
      </trkpt>
      <trkpt lat="45.522" lon="4.86531">
        <ele>121.63126</ele>
        <time>2021-07-19T11:42:23Z</time>
      </trkpt>
      <trkpt lat="45.52204" lon="4.86537">
        <ele>121.34589</ele>
        <time>2021-07-19T11:42:24Z</time>
      </trkpt>
      <trkpt lat="45.52208" lon="4.86541">
        <ele>121.36174</ele>
        <time>2021-07-19T11:42:25Z</time>
      </trkpt>
      <trkpt lat="45.52211" lon="4.86546">
        <ele>121.40402</ele>
        <time>2021-07-19T11:42:26Z</time>
      </trkpt>
      <trkpt lat="45.52214" lon="4.8655">
        <ele>121.63654</ele>
        <time>2021-07-19T11:42:27Z</time>
      </trkpt>
      <trkpt lat="45.52218" lon="4.86554">
        <ele>121.56256</ele>
        <time>2021-07-19T11:42:28Z</time>
      </trkpt>
      <trkpt lat="45.52222" lon="4.86558">
        <ele>121.61541</ele>
        <time>2021-07-19T11:42:29Z</time>
      </trkpt>
      <trkpt lat="45.52226" lon="4.86564">
        <ele>121.49386</ele>
        <time>2021-07-19T11:42:30Z</time>
      </trkpt>
      <trkpt lat="45.5223" lon="4.86568">
        <ele>121.7211</ele>
        <time>2021-07-19T11:42:31Z</time>
      </trkpt>
      <trkpt lat="45.52234" lon="4.86572">
        <ele>121.6524</ele>
        <time>2021-07-19T11:42:32Z</time>
      </trkpt>
      <trkpt lat="45.52238" lon="4.86577">
        <ele>121.7898</ele>
        <time>2021-07-19T11:42:33Z</time>
      </trkpt>
      <trkpt lat="45.52242" lon="4.86582">
        <ele>121.98533</ele>
        <time>2021-07-19T11:42:34Z</time>
      </trkpt>
      <trkpt lat="45.52245" lon="4.86587">
        <ele>121.869064</ele>
        <time>2021-07-19T11:42:35Z</time>
      </trkpt>
      <trkpt lat="45.52249" lon="4.86593">
        <ele>121.69995</ele>
        <time>2021-07-19T11:42:36Z</time>
      </trkpt>
      <trkpt lat="45.52252" lon="4.86598">
        <ele>121.56256</ele>
        <time>2021-07-19T11:42:37Z</time>
      </trkpt>
      <trkpt lat="45.52256" lon="4.86602">
        <ele>121.90078</ele>
        <time>2021-07-19T11:42:38Z</time>
      </trkpt>
      <trkpt lat="45.5226" lon="4.86607">
        <ele>121.80565</ele>
        <time>2021-07-19T11:42:39Z</time>
      </trkpt>
      <trkpt lat="45.52264" lon="4.86613">
        <ele>121.82679</ele>
        <time>2021-07-19T11:42:40Z</time>
      </trkpt>
      <trkpt lat="45.52268" lon="4.8662">
        <ele>121.67354</ele>
        <time>2021-07-19T11:42:41Z</time>
      </trkpt>
      <trkpt lat="45.52272" lon="4.86627">
        <ele>121.41459</ele>
        <time>2021-07-19T11:42:42Z</time>
      </trkpt>
      <trkpt lat="45.52277" lon="4.86636">
        <ele>121.52028</ele>
        <time>2021-07-19T11:42:43Z</time>
      </trkpt>
      <trkpt lat="45.52283" lon="4.86644">
        <ele>121.662964</ele>
        <time>2021-07-19T11:42:44Z</time>
      </trkpt>
      <trkpt lat="45.52288" lon="4.86651">
        <ele>121.69995</ele>
        <time>2021-07-19T11:42:45Z</time>
      </trkpt>
      <trkpt lat="45.52292" lon="4.86658">
        <ele>121.48857</ele>
        <time>2021-07-19T11:42:46Z</time>
      </trkpt>
      <trkpt lat="45.52295" lon="4.86666">
        <ele>121.705246</ele>
        <time>2021-07-19T11:42:47Z</time>
      </trkpt>
      <trkpt lat="45.52299" lon="4.86672">
        <ele>121.79508</ele>
        <time>2021-07-19T11:42:48Z</time>
      </trkpt>
      <trkpt lat="45.52304" lon="4.86676">
        <ele>122.00647</ele>
        <time>2021-07-19T11:42:49Z</time>
      </trkpt>
      <trkpt lat="45.5231" lon="4.86682">
        <ele>122.587776</ele>
        <time>2021-07-19T11:42:50Z</time>
      </trkpt>
      <trkpt lat="45.52314" lon="4.86686">
        <ele>122.67233</ele>
        <time>2021-07-19T11:42:51Z</time>
      </trkpt>
      <trkpt lat="45.52318" lon="4.86689">
        <ele>122.281265</ele>
        <time>2021-07-19T11:42:52Z</time>
      </trkpt>
      <trkpt lat="45.52322" lon="4.86693">
        <ele>122.31827</ele>
        <time>2021-07-19T11:42:53Z</time>
      </trkpt>
      <trkpt lat="45.52327" lon="4.86698">
        <ele>122.22842</ele>
        <time>2021-07-19T11:42:54Z</time>
      </trkpt>
      <trkpt lat="45.52332" lon="4.86704">
        <ele>122.175575</ele>
        <time>2021-07-19T11:42:55Z</time>
      </trkpt>
      <trkpt lat="45.52336" lon="4.8671">
        <ele>122.11216</ele>
        <time>2021-07-19T11:42:56Z</time>
      </trkpt>
      <trkpt lat="45.52339" lon="4.86715">
        <ele>122.0646</ele>
        <time>2021-07-19T11:42:57Z</time>
      </trkpt>
      <trkpt lat="45.52343" lon="4.86721">
        <ele>122.12273</ele>
        <time>2021-07-19T11:42:58Z</time>
      </trkpt>
      <trkpt lat="45.52348" lon="4.86726">
        <ele>121.684105</ele>
        <time>2021-07-19T11:42:59Z</time>
      </trkpt>
      <trkpt lat="45.52352" lon="4.86732">
        <ele>121.662964</ele>
        <time>2021-07-19T11:43:00Z</time>
      </trkpt>
      <trkpt lat="45.52356" lon="4.86737">
        <ele>121.64182</ele>
        <time>2021-07-19T11:43:01Z</time>
      </trkpt>
      <trkpt lat="45.52361" lon="4.86743">
        <ele>121.74223</ele>
        <time>2021-07-19T11:43:02Z</time>
      </trkpt>
      <trkpt lat="45.52365" lon="4.86748">
        <ele>121.88492</ele>
        <time>2021-07-19T11:43:03Z</time>
      </trkpt>
      <trkpt lat="45.5237" lon="4.86753">
        <ele>121.8215</ele>
        <time>2021-07-19T11:43:04Z</time>
      </trkpt>
      <trkpt lat="45.52374" lon="4.86759">
        <ele>121.710526</ele>
        <time>2021-07-19T11:43:05Z</time>
      </trkpt>
      <trkpt lat="45.52379" lon="4.86763">
        <ele>121.83736</ele>
        <time>2021-07-19T11:43:06Z</time>
      </trkpt>
      <trkpt lat="45.52383" lon="4.86767">
        <ele>122.00119</ele>
        <time>2021-07-19T11:43:07Z</time>
      </trkpt>
      <trkpt lat="45.52388" lon="4.86773">
        <ele>122.44509</ele>
        <time>2021-07-19T11:43:08Z</time>
      </trkpt>
      <trkpt lat="45.52393" lon="4.86777">
        <ele>122.2707</ele>
        <time>2021-07-19T11:43:09Z</time>
      </trkpt>
      <trkpt lat="45.52397" lon="4.86782">
        <ele>121.91663</ele>
        <time>2021-07-19T11:43:10Z</time>
      </trkpt>
      <trkpt lat="45.52401" lon="4.86787">
        <ele>121.89549</ele>
        <time>2021-07-19T11:43:11Z</time>
      </trkpt>
      <trkpt lat="45.52405" lon="4.86791">
        <ele>122.096306</ele>
        <time>2021-07-19T11:43:12Z</time>
      </trkpt>
      <trkpt lat="45.52409" lon="4.86797">
        <ele>121.94834</ele>
        <time>2021-07-19T11:43:13Z</time>
      </trkpt>
      <trkpt lat="45.52413" lon="4.86802">
        <ele>122.16501</ele>
        <time>2021-07-19T11:43:14Z</time>
      </trkpt>
      <trkpt lat="45.52417" lon="4.86807">
        <ele>121.84793</ele>
        <time>2021-07-19T11:43:15Z</time>
      </trkpt>
      <trkpt lat="45.52422" lon="4.86811">
        <ele>121.58898</ele>
        <time>2021-07-19T11:43:16Z</time>
      </trkpt>
      <trkpt lat="45.52427" lon="4.86816">
        <ele>121.583694</ele>
        <time>2021-07-19T11:43:17Z</time>
      </trkpt>
      <trkpt lat="45.52431" lon="4.86819">
        <ele>121.67882</ele>
        <time>2021-07-19T11:43:18Z</time>
      </trkpt>
      <trkpt lat="45.52436" lon="4.86823">
        <ele>121.49386</ele>
        <time>2021-07-19T11:43:19Z</time>
      </trkpt>
      <trkpt lat="45.52441" lon="4.86827">
        <ele>121.38287</ele>
        <time>2021-07-19T11:43:20Z</time>
      </trkpt>
      <trkpt lat="45.52445" lon="4.86832">
        <ele>121.7528</ele>
        <time>2021-07-19T11:43:21Z</time>
      </trkpt>
      <trkpt lat="45.52451" lon="4.86835">
        <ele>121.73167</ele>
        <time>2021-07-19T11:43:22Z</time>
      </trkpt>
      <trkpt lat="45.52455" lon="4.86839">
        <ele>121.74223</ele>
        <time>2021-07-19T11:43:23Z</time>
      </trkpt>
      <trkpt lat="45.52458" lon="4.86843">
        <ele>121.6524</ele>
        <time>2021-07-19T11:43:24Z</time>
      </trkpt>
      <trkpt lat="45.52462" lon="4.86848">
        <ele>121.71581</ele>
        <time>2021-07-19T11:43:25Z</time>
      </trkpt>
      <trkpt lat="45.52467" lon="4.8685">
        <ele>121.56784</ele>
        <time>2021-07-19T11:43:26Z</time>
      </trkpt>
      <trkpt lat="45.52473" lon="4.86851">
        <ele>121.56784</ele>
        <time>2021-07-19T11:43:27Z</time>
      </trkpt>
      <trkpt lat="45.52477" lon="4.86855">
        <ele>121.662964</ele>
        <time>2021-07-19T11:43:28Z</time>
      </trkpt>
      <trkpt lat="45.52483" lon="4.86859">
        <ele>121.705246</ele>
        <time>2021-07-19T11:43:29Z</time>
      </trkpt>
      <trkpt lat="45.52488" lon="4.86862">
        <ele>121.515</ele>
        <time>2021-07-19T11:43:30Z</time>
      </trkpt>
      <trkpt lat="45.52494" lon="4.86867">
        <ele>121.6524</ele>
        <time>2021-07-19T11:43:31Z</time>
      </trkpt>
      <trkpt lat="45.52499" lon="4.86871">
        <ele>121.64711</ele>
        <time>2021-07-19T11:43:32Z</time>
      </trkpt>
      <trkpt lat="45.52505" lon="4.86876">
        <ele>121.599556</ele>
        <time>2021-07-19T11:43:33Z</time>
      </trkpt>
      <trkpt lat="45.52511" lon="4.86879">
        <ele>121.52028</ele>
        <time>2021-07-19T11:43:34Z</time>
      </trkpt>
      <trkpt lat="45.52515" lon="4.86882">
        <ele>121.41459</ele>
        <time>2021-07-19T11:43:35Z</time>
      </trkpt>
      <trkpt lat="45.5252" lon="4.86886">
        <ele>121.67882</ele>
        <time>2021-07-19T11:43:36Z</time>
      </trkpt>
      <trkpt lat="45.52526" lon="4.86889">
        <ele>121.84265</ele>
        <time>2021-07-19T11:43:37Z</time>
      </trkpt>
      <trkpt lat="45.52531" lon="4.86894">
        <ele>121.91134</ele>
        <time>2021-07-19T11:43:38Z</time>
      </trkpt>
      <trkpt lat="45.52536" lon="4.86896">
        <ele>121.98004</ele>
        <time>2021-07-19T11:43:39Z</time>
      </trkpt>
      <trkpt lat="45.5254" lon="4.86899">
        <ele>121.78451</ele>
        <time>2021-07-19T11:43:40Z</time>
      </trkpt>
      <trkpt lat="45.52545" lon="4.86902">
        <ele>121.6524</ele>
        <time>2021-07-19T11:43:41Z</time>
      </trkpt>
      <trkpt lat="45.52549" lon="4.86905">
        <ele>121.59426</ele>
        <time>2021-07-19T11:43:42Z</time>
      </trkpt>
      <trkpt lat="45.52554" lon="4.86909">
        <ele>121.91134</ele>
        <time>2021-07-19T11:43:43Z</time>
      </trkpt>
      <trkpt lat="45.52559" lon="4.86913">
        <ele>122.39753</ele>
        <time>2021-07-19T11:43:44Z</time>
      </trkpt>
      <trkpt lat="45.52563" lon="4.86918">
        <ele>123.10039</ele>
        <time>2021-07-19T11:43:45Z</time>
      </trkpt>
      <trkpt lat="45.52567" lon="4.86918">
        <ele>122.71461</ele>
        <time>2021-07-19T11:43:46Z</time>
      </trkpt>
      <trkpt lat="45.52572" lon="4.86922">
        <ele>122.47151</ele>
        <time>2021-07-19T11:43:47Z</time>
      </trkpt>
      <trkpt lat="45.52578" lon="4.86926">
        <ele>122.434525</ele>
        <time>2021-07-19T11:43:48Z</time>
      </trkpt>
      <trkpt lat="45.52583" lon="4.8693">
        <ele>122.635345</ele>
        <time>2021-07-19T11:43:49Z</time>
      </trkpt>
      <trkpt lat="45.52586" lon="4.86931">
        <ele>122.89429</ele>
        <time>2021-07-19T11:43:50Z</time>
      </trkpt>
      <trkpt lat="45.52589" lon="4.86935">
        <ele>122.37111</ele>
        <time>2021-07-19T11:43:51Z</time>
      </trkpt>
      <trkpt lat="45.52593" lon="4.86937">
        <ele>122.11216</ele>
        <time>2021-07-19T11:43:52Z</time>
      </trkpt>
      <trkpt lat="45.52596" lon="4.86941">
        <ele>122.386955</ele>
        <time>2021-07-19T11:43:53Z</time>
      </trkpt>
      <trkpt lat="45.526" lon="4.86945">
        <ele>122.37111</ele>
        <time>2021-07-19T11:43:54Z</time>
      </trkpt>
      <trkpt lat="45.52604" lon="4.86948">
        <ele>122.096306</ele>
        <time>2021-07-19T11:43:55Z</time>
      </trkpt>
      <trkpt lat="45.52608" lon="4.86951">
        <ele>121.63126</ele>
        <time>2021-07-19T11:43:56Z</time>
      </trkpt>
      <trkpt lat="45.52613" lon="4.86954">
        <ele>121.91134</ele>
        <time>2021-07-19T11:43:57Z</time>
      </trkpt>
      <trkpt lat="45.52617" lon="4.86958">
        <ele>121.90606</ele>
        <time>2021-07-19T11:43:58Z</time>
      </trkpt>
      <trkpt lat="45.5262" lon="4.86961">
        <ele>122.048744</ele>
        <time>2021-07-19T11:43:59Z</time>
      </trkpt>
      <trkpt lat="45.52624" lon="4.86965">
        <ele>122.23371</ele>
        <time>2021-07-19T11:44:00Z</time>
      </trkpt>
      <trkpt lat="45.52629" lon="4.86969">
        <ele>122.20728</ele>
        <time>2021-07-19T11:44:01Z</time>
      </trkpt>
      <trkpt lat="45.52633" lon="4.86974">
        <ele>121.93777</ele>
        <time>2021-07-19T11:44:02Z</time>
      </trkpt>
      <trkpt lat="45.52638" lon="4.86978">
        <ele>121.80565</ele>
        <time>2021-07-19T11:44:03Z</time>
      </trkpt>
      <trkpt lat="45.52641" lon="4.86981">
        <ele>121.58898</ele>
        <time>2021-07-19T11:44:04Z</time>
      </trkpt>
      <trkpt lat="45.52646" lon="4.86985">
        <ele>121.7528</ele>
        <time>2021-07-19T11:44:05Z</time>
      </trkpt>
      <trkpt lat="45.52651" lon="4.86988">
        <ele>121.80036</ele>
        <time>2021-07-19T11:44:06Z</time>
      </trkpt>
      <trkpt lat="45.52655" lon="4.86992">
        <ele>121.62597</ele>
        <time>2021-07-19T11:44:07Z</time>
      </trkpt>
      <trkpt lat="45.52661" lon="4.86996">
        <ele>121.81622</ele>
        <time>2021-07-19T11:44:08Z</time>
      </trkpt>
      <trkpt lat="45.52667" lon="4.86999">
        <ele>121.662964</ele>
        <time>2021-07-19T11:44:09Z</time>
      </trkpt>
      <trkpt lat="45.52671" lon="4.87003">
        <ele>121.80036</ele>
        <time>2021-07-19T11:44:10Z</time>
      </trkpt>
      <trkpt lat="45.52676" lon="4.87007">
        <ele>121.89549</ele>
        <time>2021-07-19T11:44:11Z</time>
      </trkpt>
      <trkpt lat="45.52683" lon="4.8701">
        <ele>122.08045</ele>
        <time>2021-07-19T11:44:12Z</time>
      </trkpt>
      <trkpt lat="45.52689" lon="4.87013">
        <ele>121.87964</ele>
        <time>2021-07-19T11:44:13Z</time>
      </trkpt>
      <trkpt lat="45.52695" lon="4.87015">
        <ele>121.7528</ele>
        <time>2021-07-19T11:44:14Z</time>
      </trkpt>
      <trkpt lat="45.527" lon="4.87017">
        <ele>121.64711</ele>
        <time>2021-07-19T11:44:15Z</time>
      </trkpt>
      <trkpt lat="45.52705" lon="4.8702">
        <ele>121.599556</ele>
        <time>2021-07-19T11:44:16Z</time>
      </trkpt>
      <trkpt lat="45.52711" lon="4.87024">
        <ele>121.68939</ele>
        <time>2021-07-19T11:44:17Z</time>
      </trkpt>
      <trkpt lat="45.52717" lon="4.87027">
        <ele>121.84265</ele>
        <time>2021-07-19T11:44:18Z</time>
      </trkpt>
      <trkpt lat="45.52723" lon="4.87032">
        <ele>121.71581</ele>
        <time>2021-07-19T11:44:19Z</time>
      </trkpt>
      <trkpt lat="45.52728" lon="4.87035">
        <ele>121.49386</ele>
        <time>2021-07-19T11:44:20Z</time>
      </trkpt>
      <trkpt lat="45.52733" lon="4.87038">
        <ele>121.62069</ele>
        <time>2021-07-19T11:44:21Z</time>
      </trkpt>
      <trkpt lat="45.52738" lon="4.87042">
        <ele>121.80565</ele>
        <time>2021-07-19T11:44:22Z</time>
      </trkpt>
      <trkpt lat="45.52743" lon="4.87046">
        <ele>121.48857</ele>
        <time>2021-07-19T11:44:23Z</time>
      </trkpt>
      <trkpt lat="45.52748" lon="4.8705">
        <ele>121.43572</ele>
        <time>2021-07-19T11:44:24Z</time>
      </trkpt>
      <trkpt lat="45.52752" lon="4.87053">
        <ele>121.38287</ele>
        <time>2021-07-19T11:44:25Z</time>
      </trkpt>
      <trkpt lat="45.52757" lon="4.87056">
        <ele>121.24019</ele>
        <time>2021-07-19T11:44:26Z</time>
      </trkpt>
      <trkpt lat="45.52761" lon="4.87058">
        <ele>121.525566</ele>
        <time>2021-07-19T11:44:27Z</time>
      </trkpt>
      <trkpt lat="45.52765" lon="4.8706">
        <ele>121.36174</ele>
        <time>2021-07-19T11:44:28Z</time>
      </trkpt>
      <trkpt lat="45.5277" lon="4.87062">
        <ele>121.483284</ele>
        <time>2021-07-19T11:44:29Z</time>
      </trkpt>
      <trkpt lat="45.52774" lon="4.87065">
        <ele>121.54141</ele>
        <time>2021-07-19T11:44:30Z</time>
      </trkpt>
      <trkpt lat="45.52779" lon="4.87067">
        <ele>121.483284</ele>
        <time>2021-07-19T11:44:31Z</time>
      </trkpt>
      <trkpt lat="45.52784" lon="4.87071">
        <ele>121.478004</ele>
        <time>2021-07-19T11:44:32Z</time>
      </trkpt>
      <trkpt lat="45.52788" lon="4.87074">
        <ele>121.77395</ele>
        <time>2021-07-19T11:44:33Z</time>
      </trkpt>
      <trkpt lat="45.52794" lon="4.87078">
        <ele>121.55199</ele>
        <time>2021-07-19T11:44:34Z</time>
      </trkpt>
      <trkpt lat="45.52799" lon="4.87082">
        <ele>121.46743</ele>
        <time>2021-07-19T11:44:35Z</time>
      </trkpt>
      <trkpt lat="45.52803" lon="4.87086">
        <ele>121.2032</ele>
        <time>2021-07-19T11:44:36Z</time>
      </trkpt>
      <trkpt lat="45.52808" lon="4.8709">
        <ele>121.48857</ele>
        <time>2021-07-19T11:44:37Z</time>
      </trkpt>
      <trkpt lat="45.52813" lon="4.87094">
        <ele>121.56256</ele>
        <time>2021-07-19T11:44:38Z</time>
      </trkpt>
      <trkpt lat="45.52818" lon="4.87098">
        <ele>121.62069</ele>
        <time>2021-07-19T11:44:39Z</time>
      </trkpt>
      <trkpt lat="45.52823" lon="4.87101">
        <ele>121.43572</ele>
        <time>2021-07-19T11:44:40Z</time>
      </trkpt>
      <trkpt lat="45.52828" lon="4.87105">
        <ele>121.43044</ele>
        <time>2021-07-19T11:44:41Z</time>
      </trkpt>
      <trkpt lat="45.52834" lon="4.87108">
        <ele>121.55727</ele>
        <time>2021-07-19T11:44:42Z</time>
      </trkpt>
      <trkpt lat="45.52839" lon="4.87112">
        <ele>121.53613</ele>
        <time>2021-07-19T11:44:43Z</time>
      </trkpt>
      <trkpt lat="45.52844" lon="4.87115">
        <ele>121.71581</ele>
        <time>2021-07-19T11:44:44Z</time>
      </trkpt>
      <trkpt lat="45.5285" lon="4.87119">
        <ele>121.810936</ele>
        <time>2021-07-19T11:44:45Z</time>
      </trkpt>
      <trkpt lat="45.52855" lon="4.87122">
        <ele>121.83208</ele>
        <time>2021-07-19T11:44:46Z</time>
      </trkpt>
      <trkpt lat="45.52859" lon="4.87125">
        <ele>122.00119</ele>
        <time>2021-07-19T11:44:47Z</time>
      </trkpt>
      <trkpt lat="45.52863" lon="4.87127">
        <ele>121.56784</ele>
        <time>2021-07-19T11:44:48Z</time>
      </trkpt>
      <trkpt lat="45.52869" lon="4.87128">
        <ele>121.604836</ele>
        <time>2021-07-19T11:44:49Z</time>
      </trkpt>
      <trkpt lat="45.52873" lon="4.87127">
        <ele>121.67882</ele>
        <time>2021-07-19T11:44:50Z</time>
      </trkpt>
      <trkpt lat="45.52877" lon="4.87127">
        <ele>121.53085</ele>
        <time>2021-07-19T11:44:51Z</time>
      </trkpt>
      <trkpt lat="45.52882" lon="4.87128">
        <ele>121.705246</ele>
        <time>2021-07-19T11:44:52Z</time>
      </trkpt>
      <trkpt lat="45.52886" lon="4.8713">
        <ele>121.49914</ele>
        <time>2021-07-19T11:44:53Z</time>
      </trkpt>
      <trkpt lat="45.5289" lon="4.87133">
        <ele>121.48857</ele>
        <time>2021-07-19T11:44:54Z</time>
      </trkpt>
      <trkpt lat="45.52893" lon="4.87135">
        <ele>121.758095</ele>
        <time>2021-07-19T11:44:55Z</time>
      </trkpt>
      <trkpt lat="45.52897" lon="4.87136">
        <ele>121.85849</ele>
        <time>2021-07-19T11:44:56Z</time>
      </trkpt>
      <trkpt lat="45.529" lon="4.87138">
        <ele>121.8215</ele>
        <time>2021-07-19T11:44:57Z</time>
      </trkpt>
      <trkpt lat="45.52904" lon="4.87139">
        <ele>121.90078</ele>
        <time>2021-07-19T11:44:58Z</time>
      </trkpt>
      <trkpt lat="45.52908" lon="4.8714">
        <ele>121.78451</ele>
        <time>2021-07-19T11:44:59Z</time>
      </trkpt>
      <trkpt lat="45.52911" lon="4.87138">
        <ele>121.768654</ele>
        <time>2021-07-19T11:45:00Z</time>
      </trkpt>
      <trkpt lat="45.52914" lon="4.87136">
        <ele>121.90078</ele>
        <time>2021-07-19T11:45:01Z</time>
      </trkpt>
      <trkpt lat="45.52916" lon="4.87131">
        <ele>121.93777</ele>
        <time>2021-07-19T11:45:02Z</time>
      </trkpt>
      <trkpt lat="45.52917" lon="4.87125">
        <ele>122.376396</ele>
        <time>2021-07-19T11:45:03Z</time>
      </trkpt>
      <trkpt lat="45.52918" lon="4.87118">
        <ele>122.10688</ele>
        <time>2021-07-19T11:45:04Z</time>
      </trkpt>
      <trkpt lat="45.5292" lon="4.8711">
        <ele>122.39753</ele>
        <time>2021-07-19T11:45:05Z</time>
      </trkpt>
      <trkpt lat="45.52922" lon="4.87104">
        <ele>122.635345</ele>
        <time>2021-07-19T11:45:06Z</time>
      </trkpt>
      <trkpt lat="45.52924" lon="4.87098">
        <ele>122.931274</ele>
        <time>2021-07-19T11:45:07Z</time>
      </trkpt>
      <trkpt lat="45.52924" lon="4.87091">
        <ele>123.32235</ele>
        <time>2021-07-19T11:45:08Z</time>
      </trkpt>
      <trkpt lat="45.52926" lon="4.87085">
        <ele>123.11624</ele>
        <time>2021-07-19T11:45:09Z</time>
      </trkpt>
      <trkpt lat="45.52927" lon="4.87078">
        <ele>122.80444</ele>
        <time>2021-07-19T11:45:10Z</time>
      </trkpt>
      <trkpt lat="45.52929" lon="4.87071">
        <ele>122.59306</ele>
        <time>2021-07-19T11:45:11Z</time>
      </trkpt>
      <trkpt lat="45.5293" lon="4.87065">
        <ele>122.52436</ele>
        <time>2021-07-19T11:45:12Z</time>
      </trkpt>
      <trkpt lat="45.52932" lon="4.87058">
        <ele>122.540215</ele>
        <time>2021-07-19T11:45:13Z</time>
      </trkpt>
      <trkpt lat="45.52933" lon="4.87052">
        <ele>122.587776</ele>
        <time>2021-07-19T11:45:14Z</time>
      </trkpt>
      <trkpt lat="45.52935" lon="4.87043">
        <ele>122.57721</ele>
        <time>2021-07-19T11:45:15Z</time>
      </trkpt>
      <trkpt lat="45.52935" lon="4.87035">
        <ele>122.60364</ele>
        <time>2021-07-19T11:45:16Z</time>
      </trkpt>
      <trkpt lat="45.52935" lon="4.87029">
        <ele>122.487366</ele>
        <time>2021-07-19T11:45:17Z</time>
      </trkpt>
      <trkpt lat="45.52934" lon="4.87022">
        <ele>122.39753</ele>
        <time>2021-07-19T11:45:18Z</time>
      </trkpt>
      <trkpt lat="45.52937" lon="4.87016">
        <ele>122.825584</ele>
        <time>2021-07-19T11:45:19Z</time>
      </trkpt>
      <trkpt lat="45.52939" lon="4.87009">
        <ele>122.772736</ele>
        <time>2021-07-19T11:45:20Z</time>
      </trkpt>
      <trkpt lat="45.5294" lon="4.87003">
        <ele>122.825584</ele>
        <time>2021-07-19T11:45:21Z</time>
      </trkpt>
      <trkpt lat="45.52943" lon="4.86995">
        <ele>122.60892</ele>
        <time>2021-07-19T11:45:22Z</time>
      </trkpt>
      <trkpt lat="45.52945" lon="4.86989">
        <ele>122.57192</ele>
        <time>2021-07-19T11:45:23Z</time>
      </trkpt>
      <trkpt lat="45.52946" lon="4.86982">
        <ele>122.376396</ele>
        <time>2021-07-19T11:45:24Z</time>
      </trkpt>
      <trkpt lat="45.52947" lon="4.86977">
        <ele>122.52436</ele>
        <time>2021-07-19T11:45:25Z</time>
      </trkpt>
      <trkpt lat="45.52948" lon="4.8697">
        <ele>122.46623</ele>
        <time>2021-07-19T11:45:26Z</time>
      </trkpt>
      <trkpt lat="45.52948" lon="4.86962">
        <ele>122.37111</ele>
        <time>2021-07-19T11:45:27Z</time>
      </trkpt>
      <trkpt lat="45.52949" lon="4.86954">
        <ele>122.56135</ele>
        <time>2021-07-19T11:45:28Z</time>
      </trkpt>
      <trkpt lat="45.5295" lon="4.86949">
        <ele>122.62477</ele>
        <time>2021-07-19T11:45:29Z</time>
      </trkpt>
      <trkpt lat="45.52951" lon="4.86943">
        <ele>123.22722</ele>
        <time>2021-07-19T11:45:30Z</time>
      </trkpt>
      <trkpt lat="45.52951" lon="4.86937">
        <ele>122.645905</ele>
        <time>2021-07-19T11:45:31Z</time>
      </trkpt>
      <trkpt lat="45.52951" lon="4.8693">
        <ele>122.89429</ele>
        <time>2021-07-19T11:45:32Z</time>
      </trkpt>
      <trkpt lat="45.5295" lon="4.86924">
        <ele>123.079254</ele>
        <time>2021-07-19T11:45:33Z</time>
      </trkpt>
      <trkpt lat="45.52947" lon="4.86922">
        <ele>123.10039</ele>
        <time>2021-07-19T11:45:34Z</time>
      </trkpt>
      <trkpt lat="45.52943" lon="4.86919">
        <ele>123.40161</ele>
        <time>2021-07-19T11:45:35Z</time>
      </trkpt>
      <trkpt lat="45.52939" lon="4.86917">
        <ele>123.71869</ele>
        <time>2021-07-19T11:45:36Z</time>
      </trkpt>
      <trkpt lat="45.52935" lon="4.86914">
        <ele>124.03577</ele>
        <time>2021-07-19T11:45:37Z</time>
      </trkpt>
      <trkpt lat="45.52932" lon="4.86911">
        <ele>124.21016</ele>
        <time>2021-07-19T11:45:38Z</time>
      </trkpt>
      <trkpt lat="45.52928" lon="4.86908">
        <ele>124.64879</ele>
        <time>2021-07-19T11:45:39Z</time>
      </trkpt>
      <trkpt lat="45.52924" lon="4.86905">
        <ele>125.922386</ele>
        <time>2021-07-19T11:45:40Z</time>
      </trkpt>
      <trkpt lat="45.52921" lon="4.86902">
        <ele>125.88011</ele>
        <time>2021-07-19T11:45:41Z</time>
      </trkpt>
      <trkpt lat="45.52918" lon="4.86898">
        <ele>125.55774</ele>
        <time>2021-07-19T11:45:42Z</time>
      </trkpt>
      <trkpt lat="45.52916" lon="4.86895">
        <ele>125.47319</ele>
        <time>2021-07-19T11:45:43Z</time>
      </trkpt>
      <trkpt lat="45.52914" lon="4.86891">
        <ele>124.03049</ele>
        <time>2021-07-19T11:45:44Z</time>
      </trkpt>
      <trkpt lat="45.52913" lon="4.86886">
        <ele>125.28823</ele>
        <time>2021-07-19T11:45:45Z</time>
      </trkpt>
      <trkpt lat="45.52912" lon="4.86881">
        <ele>125.72685</ele>
        <time>2021-07-19T11:45:46Z</time>
      </trkpt>
      <trkpt lat="45.52913" lon="4.86875">
        <ele>125.81141</ele>
        <time>2021-07-19T11:45:47Z</time>
      </trkpt>
      <trkpt lat="45.52914" lon="4.86869">
        <ele>125.88011</ele>
        <time>2021-07-19T11:45:48Z</time>
      </trkpt>
      <trkpt lat="45.52915" lon="4.86864">
        <ele>125.848404</ele>
        <time>2021-07-19T11:45:49Z</time>
      </trkpt>
      <trkpt lat="45.52917" lon="4.86857">
        <ele>125.46262</ele>
        <time>2021-07-19T11:45:50Z</time>
      </trkpt>
      <trkpt lat="45.52918" lon="4.8685">
        <ele>125.03985</ele>
        <time>2021-07-19T11:45:51Z</time>
      </trkpt>
      <trkpt lat="45.5292" lon="4.86846">
        <ele>124.870735</ele>
        <time>2021-07-19T11:45:52Z</time>
      </trkpt>
      <trkpt lat="45.52921" lon="4.86843">
        <ele>124.56423</ele>
        <time>2021-07-19T11:45:53Z</time>
      </trkpt>
      <trkpt lat="45.5292" lon="4.86843">
        <ele>124.64879</ele>
        <time>2021-07-19T11:45:54Z</time>
      </trkpt>
      <trkpt lat="45.5292" lon="4.86843">
        <ele>124.64351</ele>
        <time>2021-07-19T11:45:55Z</time>
      </trkpt>
      <trkpt lat="45.5292" lon="4.86842">
        <ele>124.69106</ele>
        <time>2021-07-19T11:45:56Z</time>
      </trkpt>
      <trkpt lat="45.5292" lon="4.86842">
        <ele>124.46912</ele>
        <time>2021-07-19T11:45:57Z</time>
      </trkpt>
      <trkpt lat="45.52919" lon="4.86842">
        <ele>124.35813</ele>
        <time>2021-07-19T11:45:58Z</time>
      </trkpt>
      <trkpt lat="45.52919" lon="4.86844">
        <ele>124.15732</ele>
        <time>2021-07-19T11:45:59Z</time>
      </trkpt>
      <trkpt lat="45.52918" lon="4.86846">
        <ele>124.31057</ele>
        <time>2021-07-19T11:46:00Z</time>
      </trkpt>
      <trkpt lat="45.52916" lon="4.86849">
        <ele>124.26301</ele>
        <time>2021-07-19T11:46:01Z</time>
      </trkpt>
      <trkpt lat="45.52915" lon="4.86853">
        <ele>124.49025</ele>
        <time>2021-07-19T11:46:02Z</time>
      </trkpt>
      <trkpt lat="45.52913" lon="4.86857">
        <ele>124.75448</ele>
        <time>2021-07-19T11:46:03Z</time>
      </trkpt>
      <trkpt lat="45.52911" lon="4.86862">
        <ele>124.59594</ele>
        <time>2021-07-19T11:46:04Z</time>
      </trkpt>
      <trkpt lat="45.5291" lon="4.86869">
        <ele>124.67521</ele>
        <time>2021-07-19T11:46:05Z</time>
      </trkpt>
      <trkpt lat="45.52908" lon="4.86875">
        <ele>124.765045</ele>
        <time>2021-07-19T11:46:06Z</time>
      </trkpt>
      <trkpt lat="45.52906" lon="4.86882">
        <ele>125.3675</ele>
        <time>2021-07-19T11:46:07Z</time>
      </trkpt>
      <trkpt lat="45.52905" lon="4.8689">
        <ele>124.997574</ele>
        <time>2021-07-19T11:46:08Z</time>
      </trkpt>
      <trkpt lat="45.52903" lon="4.86897">
        <ele>125.33051</ele>
        <time>2021-07-19T11:46:09Z</time>
      </trkpt>
      <trkpt lat="45.52902" lon="4.86905">
        <ele>125.33051</ele>
        <time>2021-07-19T11:46:10Z</time>
      </trkpt>
      <trkpt lat="45.529" lon="4.86913">
        <ele>125.4362</ele>
        <time>2021-07-19T11:46:11Z</time>
      </trkpt>
      <trkpt lat="45.52898" lon="4.86921">
        <ele>125.54718</ele>
        <time>2021-07-19T11:46:12Z</time>
      </trkpt>
      <trkpt lat="45.52897" lon="4.86929">
        <ele>125.821976</ele>
        <time>2021-07-19T11:46:13Z</time>
      </trkpt>
      <trkpt lat="45.52895" lon="4.86937">
        <ele>125.99637</ele>
        <time>2021-07-19T11:46:14Z</time>
      </trkpt>
      <trkpt lat="45.52894" lon="4.86944">
        <ele>126.054504</ele>
        <time>2021-07-19T11:46:15Z</time>
      </trkpt>
      <trkpt lat="45.52892" lon="4.86951">
        <ele>125.9858</ele>
        <time>2021-07-19T11:46:16Z</time>
      </trkpt>
      <trkpt lat="45.52891" lon="4.86959">
        <ele>126.09678</ele>
        <time>2021-07-19T11:46:17Z</time>
      </trkpt>
      <trkpt lat="45.52889" lon="4.86966">
        <ele>126.47727</ele>
        <time>2021-07-19T11:46:18Z</time>
      </trkpt>
      <trkpt lat="45.52888" lon="4.86973">
        <ele>126.292305</ele>
        <time>2021-07-19T11:46:19Z</time>
      </trkpt>
      <trkpt lat="45.52886" lon="4.8698">
        <ele>126.40858</ele>
        <time>2021-07-19T11:46:20Z</time>
      </trkpt>
      <trkpt lat="45.52884" lon="4.86987">
        <ele>126.35573</ele>
        <time>2021-07-19T11:46:21Z</time>
      </trkpt>
      <trkpt lat="45.52882" lon="4.86995">
        <ele>126.70451</ele>
        <time>2021-07-19T11:46:22Z</time>
      </trkpt>
      <trkpt lat="45.52881" lon="4.87002">
        <ele>126.79964</ele>
        <time>2021-07-19T11:46:23Z</time>
      </trkpt>
      <trkpt lat="45.52879" lon="4.87009">
        <ele>126.76264</ele>
        <time>2021-07-19T11:46:24Z</time>
      </trkpt>
      <trkpt lat="45.52876" lon="4.87022">
        <ele>126.84191</ele>
        <time>2021-07-19T11:46:25Z</time>
      </trkpt>
      <trkpt lat="45.52875" lon="4.87029">
        <ele>126.857765</ele>
        <time>2021-07-19T11:46:26Z</time>
      </trkpt>
      <trkpt lat="45.52873" lon="4.87036">
        <ele>127.02688</ele>
        <time>2021-07-19T11:46:27Z</time>
      </trkpt>
      <trkpt lat="45.52872" lon="4.87043">
        <ele>127.16956</ele>
        <time>2021-07-19T11:46:28Z</time>
      </trkpt>
      <trkpt lat="45.5287" lon="4.8705">
        <ele>127.26468</ele>
        <time>2021-07-19T11:46:29Z</time>
      </trkpt>
      <trkpt lat="45.52869" lon="4.87056">
        <ele>127.26997</ele>
        <time>2021-07-19T11:46:30Z</time>
      </trkpt>
      <trkpt lat="45.52867" lon="4.87063">
        <ele>127.33868</ele>
        <time>2021-07-19T11:46:31Z</time>
      </trkpt>
      <trkpt lat="45.52866" lon="4.8707">
        <ele>127.43907</ele>
        <time>2021-07-19T11:46:32Z</time>
      </trkpt>
      <trkpt lat="45.52865" lon="4.87076">
        <ele>127.62404</ele>
        <time>2021-07-19T11:46:33Z</time>
      </trkpt>
      <trkpt lat="45.52864" lon="4.87083">
        <ele>127.68217</ele>
        <time>2021-07-19T11:46:34Z</time>
      </trkpt>
      <trkpt lat="45.52863" lon="4.8709">
        <ele>128.0838</ele>
        <time>2021-07-19T11:46:35Z</time>
      </trkpt>
      <trkpt lat="45.52861" lon="4.87096">
        <ele>128.02039</ele>
        <time>2021-07-19T11:46:36Z</time>
      </trkpt>
      <trkpt lat="45.52861" lon="4.87096">
        <ele>128.02039</ele>
        <time>2021-07-19T11:46:36Z</time>
      </trkpt>
      <trkpt lat="45.52861" lon="4.87103">
        <ele>127.96226</ele>
        <time>2021-07-19T11:46:38Z</time>
      </trkpt>
      <trkpt lat="45.5286" lon="4.87111">
        <ele>128.16307</ele>
        <time>2021-07-19T11:46:39Z</time>
      </trkpt>
      <trkpt lat="45.52858" lon="4.87118">
        <ele>128.93991</ele>
        <time>2021-07-19T11:46:40Z</time>
      </trkpt>
      <trkpt lat="45.52857" lon="4.87127">
        <ele>128.77081</ele>
        <time>2021-07-19T11:46:41Z</time>
      </trkpt>
      <trkpt lat="45.52856" lon="4.87135">
        <ele>128.93463</ele>
        <time>2021-07-19T11:46:42Z</time>
      </trkpt>
      <trkpt lat="45.52854" lon="4.87144">
        <ele>128.99275</ele>
        <time>2021-07-19T11:46:43Z</time>
      </trkpt>
      <trkpt lat="45.52853" lon="4.87153">
        <ele>129.34683</ele>
        <time>2021-07-19T11:46:44Z</time>
      </trkpt>
      <trkpt lat="45.52851" lon="4.87161">
        <ele>129.06674</ele>
        <time>2021-07-19T11:46:45Z</time>
      </trkpt>
      <trkpt lat="45.52849" lon="4.87169">
        <ele>129.41553</ele>
        <time>2021-07-19T11:46:46Z</time>
      </trkpt>
      <trkpt lat="45.52848" lon="4.87178">
        <ele>129.54765</ele>
        <time>2021-07-19T11:46:47Z</time>
      </trkpt>
      <trkpt lat="45.52846" lon="4.87185">
        <ele>129.74318</ele>
        <time>2021-07-19T11:46:48Z</time>
      </trkpt>
      <trkpt lat="45.52845" lon="4.87193">
        <ele>129.91757</ele>
        <time>2021-07-19T11:46:49Z</time>
      </trkpt>
      <trkpt lat="45.52843" lon="4.87201">
        <ele>129.8383</ele>
        <time>2021-07-19T11:46:50Z</time>
      </trkpt>
      <trkpt lat="45.52841" lon="4.87208">
        <ele>129.75375</ele>
        <time>2021-07-19T11:46:51Z</time>
      </trkpt>
      <trkpt lat="45.5284" lon="4.87215">
        <ele>130.03912</ele>
        <time>2021-07-19T11:46:52Z</time>
      </trkpt>
      <trkpt lat="45.52836" lon="4.87229">
        <ele>129.907</ele>
        <time>2021-07-19T11:46:53Z</time>
      </trkpt>
      <trkpt lat="45.52836" lon="4.87235">
        <ele>130.0444</ele>
        <time>2021-07-19T11:46:54Z</time>
      </trkpt>
      <trkpt lat="45.52834" lon="4.87242">
        <ele>130.01799</ele>
        <time>2021-07-19T11:46:55Z</time>
      </trkpt>
      <trkpt lat="45.52833" lon="4.87249">
        <ele>130.37733</ele>
        <time>2021-07-19T11:46:56Z</time>
      </trkpt>
      <trkpt lat="45.52832" lon="4.87257">
        <ele>130.39319</ele>
        <time>2021-07-19T11:46:57Z</time>
      </trkpt>
      <trkpt lat="45.52831" lon="4.87265">
        <ele>130.03383</ele>
        <time>2021-07-19T11:46:58Z</time>
      </trkpt>
      <trkpt lat="45.5283" lon="4.87273">
        <ele>129.90172</ele>
        <time>2021-07-19T11:46:59Z</time>
      </trkpt>
      <trkpt lat="45.52829" lon="4.87281">
        <ele>129.60577</ele>
        <time>2021-07-19T11:47:00Z</time>
      </trkpt>
      <trkpt lat="45.52828" lon="4.87288">
        <ele>129.57936</ele>
        <time>2021-07-19T11:47:01Z</time>
      </trkpt>
      <trkpt lat="45.52826" lon="4.87293">
        <ele>129.16714</ele>
        <time>2021-07-19T11:47:02Z</time>
      </trkpt>
      <trkpt lat="45.52826" lon="4.87296">
        <ele>128.55414</ele>
        <time>2021-07-19T11:47:03Z</time>
      </trkpt>
      <trkpt lat="45.52825" lon="4.87297">
        <ele>128.8765</ele>
        <time>2021-07-19T11:47:04Z</time>
      </trkpt>
      <trkpt lat="45.52825" lon="4.87299">
        <ele>129.23586</ele>
        <time>2021-07-19T11:47:05Z</time>
      </trkpt>
      <trkpt lat="45.52825" lon="4.87302">
        <ele>129.07732</ele>
        <time>2021-07-19T11:47:06Z</time>
      </trkpt>
      <trkpt lat="45.52824" lon="4.87303">
        <ele>128.82365</ele>
        <time>2021-07-19T11:47:07Z</time>
      </trkpt>
      <trkpt lat="45.52824" lon="4.87304">
        <ele>129.05089</ele>
        <time>2021-07-19T11:47:08Z</time>
      </trkpt>
      <trkpt lat="45.52823" lon="4.87305">
        <ele>128.93991</ele>
        <time>2021-07-19T11:47:09Z</time>
      </trkpt>
      <trkpt lat="45.52823" lon="4.87307">
        <ele>128.83421</ele>
        <time>2021-07-19T11:47:10Z</time>
      </trkpt>
      <trkpt lat="45.52823" lon="4.8731">
        <ele>128.52771</ele>
        <time>2021-07-19T11:47:11Z</time>
      </trkpt>
      <trkpt lat="45.52823" lon="4.8731">
        <ele>128.52771</ele>
        <time>2021-07-19T11:47:11Z</time>
      </trkpt>
      <trkpt lat="45.52821" lon="4.87316">
        <ele>128.2582</ele>
        <time>2021-07-19T11:47:13Z</time>
      </trkpt>
      <trkpt lat="45.5282" lon="4.87319">
        <ele>128.48015</ele>
        <time>2021-07-19T11:47:14Z</time>
      </trkpt>
      <trkpt lat="45.52819" lon="4.87322">
        <ele>128.43259</ele>
        <time>2021-07-19T11:47:15Z</time>
      </trkpt>
      <trkpt lat="45.52819" lon="4.87326">
        <ele>128.11023</ele>
        <time>2021-07-19T11:47:16Z</time>
      </trkpt>
      <trkpt lat="45.52818" lon="4.87329">
        <ele>128.15251</ele>
        <time>2021-07-19T11:47:17Z</time>
      </trkpt>
      <trkpt lat="45.52818" lon="4.87329">
        <ele>128.15251</ele>
        <time>2021-07-19T11:47:17Z</time>
      </trkpt>
      <trkpt lat="45.52818" lon="4.87334">
        <ele>128.24234</ele>
        <time>2021-07-19T11:47:19Z</time>
      </trkpt>
      <trkpt lat="45.52818" lon="4.87337">
        <ele>127.70331</ele>
        <time>2021-07-19T11:47:20Z</time>
      </trkpt>
      <trkpt lat="45.52819" lon="4.87337">
        <ele>127.83543</ele>
        <time>2021-07-19T11:47:21Z</time>
      </trkpt>
      <trkpt lat="45.52821" lon="4.87338">
        <ele>128.06267</ele>
        <time>2021-07-19T11:47:22Z</time>
      </trkpt>
      <trkpt lat="45.52824" lon="4.87339">
        <ele>127.61875</ele>
        <time>2021-07-19T11:47:23Z</time>
      </trkpt>
      <trkpt lat="45.52829" lon="4.87342">
        <ele>127.354515</ele>
        <time>2021-07-19T11:47:24Z</time>
      </trkpt>
      <trkpt lat="45.52834" lon="4.87345">
        <ele>127.44437</ele>
        <time>2021-07-19T11:47:25Z</time>
      </trkpt>
      <trkpt lat="45.5284" lon="4.87347">
        <ele>127.28053</ele>
        <time>2021-07-19T11:47:26Z</time>
      </trkpt>
      <trkpt lat="45.52848" lon="4.87352">
        <ele>127.22769</ele>
        <time>2021-07-19T11:47:27Z</time>
      </trkpt>
      <trkpt lat="45.52854" lon="4.87355">
        <ele>127.15371</ele>
        <time>2021-07-19T11:47:28Z</time>
      </trkpt>
      <trkpt lat="45.52861" lon="4.87358">
        <ele>126.84191</ele>
        <time>2021-07-19T11:47:29Z</time>
      </trkpt>
      <trkpt lat="45.52867" lon="4.8736">
        <ele>126.86305</ele>
        <time>2021-07-19T11:47:30Z</time>
      </trkpt>
      <trkpt lat="45.52874" lon="4.87361">
        <ele>126.86305</ele>
        <time>2021-07-19T11:47:31Z</time>
      </trkpt>
      <trkpt lat="45.5288" lon="4.87362">
        <ele>126.61467</ele>
        <time>2021-07-19T11:47:32Z</time>
      </trkpt>
      <trkpt lat="45.52887" lon="4.87363">
        <ele>126.55654</ele>
        <time>2021-07-19T11:47:33Z</time>
      </trkpt>
      <trkpt lat="45.52893" lon="4.87365">
        <ele>126.39272</ele>
        <time>2021-07-19T11:47:34Z</time>
      </trkpt>
      <trkpt lat="45.529" lon="4.87367">
        <ele>126.292305</ele>
        <time>2021-07-19T11:47:35Z</time>
      </trkpt>
      <trkpt lat="45.52907" lon="4.87367">
        <ele>126.445564</ele>
        <time>2021-07-19T11:47:36Z</time>
      </trkpt>
      <trkpt lat="45.52914" lon="4.87368">
        <ele>126.32402</ele>
        <time>2021-07-19T11:47:37Z</time>
      </trkpt>
      <trkpt lat="45.52921" lon="4.87369">
        <ele>126.22361</ele>
        <time>2021-07-19T11:47:38Z</time>
      </trkpt>
      <trkpt lat="45.52928" lon="4.8737">
        <ele>126.2289</ele>
        <time>2021-07-19T11:47:39Z</time>
      </trkpt>
      <trkpt lat="45.52935" lon="4.87371">
        <ele>126.24474</ele>
        <time>2021-07-19T11:47:40Z</time>
      </trkpt>
      <trkpt lat="45.52942" lon="4.87371">
        <ele>126.14963</ele>
        <time>2021-07-19T11:47:41Z</time>
      </trkpt>
      <trkpt lat="45.52948" lon="4.87372">
        <ele>126.15491</ele>
        <time>2021-07-19T11:47:42Z</time>
      </trkpt>
      <trkpt lat="45.52955" lon="4.87374">
        <ele>125.948814</ele>
        <time>2021-07-19T11:47:43Z</time>
      </trkpt>
      <trkpt lat="45.52961" lon="4.87374">
        <ele>125.96467</ele>
        <time>2021-07-19T11:47:44Z</time>
      </trkpt>
      <trkpt lat="45.52967" lon="4.87375">
        <ele>125.91182</ele>
        <time>2021-07-19T11:47:45Z</time>
      </trkpt>
      <trkpt lat="45.52973" lon="4.87375">
        <ele>125.87482</ele>
        <time>2021-07-19T11:47:46Z</time>
      </trkpt>
      <trkpt lat="45.52979" lon="4.87376">
        <ele>125.93296</ele>
        <time>2021-07-19T11:47:47Z</time>
      </trkpt>
      <trkpt lat="45.52985" lon="4.87377">
        <ele>126.04921</ele>
        <time>2021-07-19T11:47:48Z</time>
      </trkpt>
      <trkpt lat="45.52991" lon="4.87378">
        <ele>125.97523</ele>
        <time>2021-07-19T11:47:49Z</time>
      </trkpt>
      <trkpt lat="45.52997" lon="4.87378">
        <ele>125.99109</ele>
        <time>2021-07-19T11:47:50Z</time>
      </trkpt>
      <trkpt lat="45.53003" lon="4.87379">
        <ele>125.689865</ele>
        <time>2021-07-19T11:47:51Z</time>
      </trkpt>
      <trkpt lat="45.53009" lon="4.8738">
        <ele>125.95937</ele>
        <time>2021-07-19T11:47:52Z</time>
      </trkpt>
      <trkpt lat="45.53015" lon="4.87381">
        <ele>125.68458</ele>
        <time>2021-07-19T11:47:53Z</time>
      </trkpt>
      <trkpt lat="45.53021" lon="4.87382">
        <ele>125.72157</ele>
        <time>2021-07-19T11:47:54Z</time>
      </trkpt>
      <trkpt lat="45.53027" lon="4.87383">
        <ele>125.84312</ele>
        <time>2021-07-19T11:47:55Z</time>
      </trkpt>
      <trkpt lat="45.53032" lon="4.87384">
        <ele>125.70043</ele>
        <time>2021-07-19T11:47:56Z</time>
      </trkpt>
      <trkpt lat="45.53038" lon="4.87386">
        <ele>125.37807</ele>
        <time>2021-07-19T11:47:57Z</time>
      </trkpt>
      <trkpt lat="45.53044" lon="4.87387">
        <ele>125.2988</ele>
        <time>2021-07-19T11:47:58Z</time>
      </trkpt>
      <trkpt lat="45.5305" lon="4.87388">
        <ele>125.21953</ele>
        <time>2021-07-19T11:47:59Z</time>
      </trkpt>
      <trkpt lat="45.53056" lon="4.87389">
        <ele>125.17725</ele>
        <time>2021-07-19T11:48:00Z</time>
      </trkpt>
      <trkpt lat="45.53062" lon="4.8739">
        <ele>125.383354</ele>
        <time>2021-07-19T11:48:01Z</time>
      </trkpt>
      <trkpt lat="45.53068" lon="4.87391">
        <ele>125.52604</ele>
        <time>2021-07-19T11:48:02Z</time>
      </trkpt>
      <trkpt lat="45.53074" lon="4.87392">
        <ele>125.43091</ele>
        <time>2021-07-19T11:48:03Z</time>
      </trkpt>
      <trkpt lat="45.5308" lon="4.87393">
        <ele>125.54189</ele>
        <time>2021-07-19T11:48:04Z</time>
      </trkpt>
      <trkpt lat="45.53086" lon="4.87394">
        <ele>125.39392</ele>
        <time>2021-07-19T11:48:05Z</time>
      </trkpt>
      <trkpt lat="45.53091" lon="4.87394">
        <ele>125.510185</ele>
        <time>2021-07-19T11:48:06Z</time>
      </trkpt>
      <trkpt lat="45.53098" lon="4.87395">
        <ele>125.52604</ele>
        <time>2021-07-19T11:48:07Z</time>
      </trkpt>
      <trkpt lat="45.53103" lon="4.87396">
        <ele>125.01343</ele>
        <time>2021-07-19T11:48:08Z</time>
      </trkpt>
      <trkpt lat="45.53109" lon="4.87397">
        <ele>125.08742</ele>
        <time>2021-07-19T11:48:09Z</time>
      </trkpt>
      <trkpt lat="45.53115" lon="4.87397">
        <ele>124.95529</ele>
        <time>2021-07-19T11:48:10Z</time>
      </trkpt>
      <trkpt lat="45.5312" lon="4.87398">
        <ele>124.96059</ele>
        <time>2021-07-19T11:48:11Z</time>
      </trkpt>
      <trkpt lat="45.53127" lon="4.87399">
        <ele>124.759766</ele>
        <time>2021-07-19T11:48:12Z</time>
      </trkpt>
      <trkpt lat="45.53132" lon="4.874">
        <ele>124.90774</ele>
        <time>2021-07-19T11:48:13Z</time>
      </trkpt>
      <trkpt lat="45.53138" lon="4.87401">
        <ele>125.03985</ele>
        <time>2021-07-19T11:48:14Z</time>
      </trkpt>
      <trkpt lat="45.53144" lon="4.87401">
        <ele>124.918304</ele>
        <time>2021-07-19T11:48:15Z</time>
      </trkpt>
      <trkpt lat="45.5315" lon="4.87402">
        <ele>124.99229</ele>
        <time>2021-07-19T11:48:16Z</time>
      </trkpt>
      <trkpt lat="45.53156" lon="4.87403">
        <ele>125.150826</ele>
        <time>2021-07-19T11:48:17Z</time>
      </trkpt>
      <trkpt lat="45.53162" lon="4.87403">
        <ele>125.13497</ele>
        <time>2021-07-19T11:48:18Z</time>
      </trkpt>
      <trkpt lat="45.53167" lon="4.87403">
        <ele>124.92888</ele>
        <time>2021-07-19T11:48:19Z</time>
      </trkpt>
      <trkpt lat="45.53173" lon="4.87402">
        <ele>124.860176</ele>
        <time>2021-07-19T11:48:20Z</time>
      </trkpt>
      <trkpt lat="45.53179" lon="4.87402">
        <ele>124.81261</ele>
        <time>2021-07-19T11:48:21Z</time>
      </trkpt>
      <trkpt lat="45.53185" lon="4.87401">
        <ele>124.733345</ele>
        <time>2021-07-19T11:48:22Z</time>
      </trkpt>
      <trkpt lat="45.5319" lon="4.874">
        <ele>124.56423</ele>
        <time>2021-07-19T11:48:23Z</time>
      </trkpt>
      <trkpt lat="45.53196" lon="4.87399">
        <ele>124.43212</ele>
        <time>2021-07-19T11:48:24Z</time>
      </trkpt>
      <trkpt lat="45.53202" lon="4.87398">
        <ele>124.527245</ele>
        <time>2021-07-19T11:48:25Z</time>
      </trkpt>
      <trkpt lat="45.53208" lon="4.87395">
        <ele>124.61179</ele>
        <time>2021-07-19T11:48:26Z</time>
      </trkpt>
      <trkpt lat="45.53214" lon="4.87393">
        <ele>124.479675</ele>
        <time>2021-07-19T11:48:27Z</time>
      </trkpt>
      <trkpt lat="45.5322" lon="4.8739">
        <ele>124.347565</ele>
        <time>2021-07-19T11:48:28Z</time>
      </trkpt>
      <trkpt lat="45.53226" lon="4.87388">
        <ele>124.44269</ele>
        <time>2021-07-19T11:48:29Z</time>
      </trkpt>
      <trkpt lat="45.53231" lon="4.87386">
        <ele>124.532524</ele>
        <time>2021-07-19T11:48:30Z</time>
      </trkpt>
      <trkpt lat="45.53237" lon="4.87383">
        <ele>124.26829</ele>
        <time>2021-07-19T11:48:31Z</time>
      </trkpt>
      <trkpt lat="45.53243" lon="4.8738">
        <ele>124.13089</ele>
        <time>2021-07-19T11:48:32Z</time>
      </trkpt>
      <trkpt lat="45.53249" lon="4.87377">
        <ele>124.38984</ele>
        <time>2021-07-19T11:48:33Z</time>
      </trkpt>
      <trkpt lat="45.53256" lon="4.87374">
        <ele>124.80733</ele>
        <time>2021-07-19T11:48:34Z</time>
      </trkpt>
      <trkpt lat="45.53261" lon="4.87371">
        <ele>124.56423</ele>
        <time>2021-07-19T11:48:35Z</time>
      </trkpt>
      <trkpt lat="45.53267" lon="4.87369">
        <ele>124.32114</ele>
        <time>2021-07-19T11:48:36Z</time>
      </trkpt>
      <trkpt lat="45.53273" lon="4.87366">
        <ele>124.44269</ele>
        <time>2021-07-19T11:48:37Z</time>
      </trkpt>
      <trkpt lat="45.53279" lon="4.87363">
        <ele>124.41097</ele>
        <time>2021-07-19T11:48:38Z</time>
      </trkpt>
      <trkpt lat="45.53285" lon="4.8736">
        <ele>124.46382</ele>
        <time>2021-07-19T11:48:39Z</time>
      </trkpt>
      <trkpt lat="45.5329" lon="4.87357">
        <ele>124.352844</ele>
        <time>2021-07-19T11:48:40Z</time>
      </trkpt>
      <trkpt lat="45.53296" lon="4.87354">
        <ele>124.44797</ele>
        <time>2021-07-19T11:48:41Z</time>
      </trkpt>
      <trkpt lat="45.53301" lon="4.8735">
        <ele>124.30528</ele>
        <time>2021-07-19T11:48:42Z</time>
      </trkpt>
      <trkpt lat="45.53307" lon="4.87347">
        <ele>124.532524</ele>
        <time>2021-07-19T11:48:43Z</time>
      </trkpt>
      <trkpt lat="45.53313" lon="4.87343">
        <ele>124.352844</ele>
        <time>2021-07-19T11:48:44Z</time>
      </trkpt>
      <trkpt lat="45.53319" lon="4.87339">
        <ele>124.5061</ele>
        <time>2021-07-19T11:48:45Z</time>
      </trkpt>
      <trkpt lat="45.53324" lon="4.87336">
        <ele>124.35813</ele>
        <time>2021-07-19T11:48:46Z</time>
      </trkpt>
      <trkpt lat="45.53328" lon="4.87333">
        <ele>124.44797</ele>
        <time>2021-07-19T11:48:47Z</time>
      </trkpt>
      <trkpt lat="45.53333" lon="4.87329">
        <ele>124.453255</ele>
        <time>2021-07-19T11:48:48Z</time>
      </trkpt>
      <trkpt lat="45.53337" lon="4.87325">
        <ele>124.34228</ele>
        <time>2021-07-19T11:48:49Z</time>
      </trkpt>
      <trkpt lat="45.53341" lon="4.87323">
        <ele>124.66464</ele>
        <time>2021-07-19T11:48:50Z</time>
      </trkpt>
      <trkpt lat="45.53345" lon="4.8732">
        <ele>124.6805</ele>
        <time>2021-07-19T11:48:51Z</time>
      </trkpt>
      <trkpt lat="45.53349" lon="4.87316">
        <ele>124.58537</ele>
        <time>2021-07-19T11:48:52Z</time>
      </trkpt>
      <trkpt lat="45.53354" lon="4.87312">
        <ele>124.67521</ele>
        <time>2021-07-19T11:48:53Z</time>
      </trkpt>
      <trkpt lat="45.53359" lon="4.87308">
        <ele>124.54838</ele>
        <time>2021-07-19T11:48:54Z</time>
      </trkpt>
      <trkpt lat="45.53364" lon="4.87304">
        <ele>124.3</ele>
        <time>2021-07-19T11:48:55Z</time>
      </trkpt>
      <trkpt lat="45.53368" lon="4.873">
        <ele>124.51138</ele>
        <time>2021-07-19T11:48:56Z</time>
      </trkpt>
      <trkpt lat="45.53373" lon="4.87296">
        <ele>124.50082</ele>
        <time>2021-07-19T11:48:57Z</time>
      </trkpt>
      <trkpt lat="45.53377" lon="4.87292">
        <ele>124.32643</ele>
        <time>2021-07-19T11:48:58Z</time>
      </trkpt>
      <trkpt lat="45.53381" lon="4.87288">
        <ele>124.44269</ele>
        <time>2021-07-19T11:48:59Z</time>
      </trkpt>
      <trkpt lat="45.53385" lon="4.87285">
        <ele>124.44269</ele>
        <time>2021-07-19T11:49:00Z</time>
      </trkpt>
      <trkpt lat="45.5339" lon="4.8728">
        <ele>124.44797</ele>
        <time>2021-07-19T11:49:01Z</time>
      </trkpt>
      <trkpt lat="45.53394" lon="4.87276">
        <ele>124.49025</ele>
        <time>2021-07-19T11:49:02Z</time>
      </trkpt>
      <trkpt lat="45.53398" lon="4.87272">
        <ele>124.61708</ele>
        <time>2021-07-19T11:49:03Z</time>
      </trkpt>
      <trkpt lat="45.53403" lon="4.87268">
        <ele>124.38456</ele>
        <time>2021-07-19T11:49:04Z</time>
      </trkpt>
      <trkpt lat="45.53407" lon="4.87263">
        <ele>124.56951</ele>
        <time>2021-07-19T11:49:05Z</time>
      </trkpt>
      <trkpt lat="45.53412" lon="4.87259">
        <ele>124.38984</ele>
        <time>2021-07-19T11:49:06Z</time>
      </trkpt>
      <trkpt lat="45.53416" lon="4.87255">
        <ele>124.38984</ele>
        <time>2021-07-19T11:49:07Z</time>
      </trkpt>
      <trkpt lat="45.5342" lon="4.87251">
        <ele>124.38456</ele>
        <time>2021-07-19T11:49:08Z</time>
      </trkpt>
      <trkpt lat="45.53423" lon="4.87247">
        <ele>124.41627</ele>
        <time>2021-07-19T11:49:09Z</time>
      </trkpt>
      <trkpt lat="45.53426" lon="4.87243">
        <ele>124.49553</ele>
        <time>2021-07-19T11:49:10Z</time>
      </trkpt>
      <trkpt lat="45.5343" lon="4.8724">
        <ele>124.51138</ele>
        <time>2021-07-19T11:49:11Z</time>
      </trkpt>
      <trkpt lat="45.53434" lon="4.87236">
        <ele>124.46382</ele>
        <time>2021-07-19T11:49:12Z</time>
      </trkpt>
      <trkpt lat="45.53437" lon="4.87233">
        <ele>124.527245</ele>
        <time>2021-07-19T11:49:13Z</time>
      </trkpt>
      <trkpt lat="45.53441" lon="4.8723">
        <ele>124.56423</ele>
        <time>2021-07-19T11:49:14Z</time>
      </trkpt>
      <trkpt lat="45.53444" lon="4.87226">
        <ele>124.26301</ele>
        <time>2021-07-19T11:49:15Z</time>
      </trkpt>
      <trkpt lat="45.53447" lon="4.87222">
        <ele>124.23658</ele>
        <time>2021-07-19T11:49:16Z</time>
      </trkpt>
      <trkpt lat="45.5345" lon="4.87219">
        <ele>124.17317</ele>
        <time>2021-07-19T11:49:17Z</time>
      </trkpt>
      <trkpt lat="45.53452" lon="4.87216">
        <ele>124.01463</ele>
        <time>2021-07-19T11:49:18Z</time>
      </trkpt>
      <trkpt lat="45.53455" lon="4.87213">
        <ele>123.755684</ele>
        <time>2021-07-19T11:49:19Z</time>
      </trkpt>
      <trkpt lat="45.53457" lon="4.8721">
        <ele>123.82439</ele>
        <time>2021-07-19T11:49:20Z</time>
      </trkpt>
      <trkpt lat="45.5346" lon="4.87206">
        <ele>123.803246</ele>
        <time>2021-07-19T11:49:21Z</time>
      </trkpt>
      <trkpt lat="45.53463" lon="4.87202">
        <ele>123.829666</ele>
        <time>2021-07-19T11:49:22Z</time>
      </trkpt>
      <trkpt lat="45.53466" lon="4.872">
        <ele>124.17317</ele>
        <time>2021-07-19T11:49:23Z</time>
      </trkpt>
      <trkpt lat="45.53467" lon="4.87199">
        <ele>123.85081</ele>
        <time>2021-07-19T11:49:24Z</time>
      </trkpt>
      <trkpt lat="45.53467" lon="4.87199">
        <ele>123.69227</ele>
        <time>2021-07-19T11:49:25Z</time>
      </trkpt>
      <trkpt lat="45.53468" lon="4.87198">
        <ele>123.613</ele>
        <time>2021-07-19T11:49:26Z</time>
      </trkpt>
      <trkpt lat="45.53469" lon="4.87197">
        <ele>123.317055</ele>
        <time>2021-07-19T11:49:27Z</time>
      </trkpt>
      <trkpt lat="45.5347" lon="4.87197">
        <ele>123.53902</ele>
        <time>2021-07-19T11:49:28Z</time>
      </trkpt>
      <trkpt lat="45.53471" lon="4.87198">
        <ele>123.808525</ele>
        <time>2021-07-19T11:49:29Z</time>
      </trkpt>
      <trkpt lat="45.53471" lon="4.87199">
        <ele>123.99878</ele>
        <time>2021-07-19T11:49:30Z</time>
      </trkpt>
      <trkpt lat="45.53473" lon="4.87202">
        <ele>123.94593</ele>
        <time>2021-07-19T11:49:31Z</time>
      </trkpt>
      <trkpt lat="45.53474" lon="4.87205">
        <ele>124.093895</ele>
        <time>2021-07-19T11:49:32Z</time>
      </trkpt>
      <trkpt lat="45.53475" lon="4.87208">
        <ele>124.12032</ele>
        <time>2021-07-19T11:49:33Z</time>
      </trkpt>
      <trkpt lat="45.53476" lon="4.87209">
        <ele>124.083336</ele>
        <time>2021-07-19T11:49:34Z</time>
      </trkpt>
      <trkpt lat="45.53478" lon="4.8721">
        <ele>123.73454</ele>
        <time>2021-07-19T11:49:35Z</time>
      </trkpt>
      <trkpt lat="45.5348" lon="4.8721">
        <ele>123.67113</ele>
        <time>2021-07-19T11:49:36Z</time>
      </trkpt>
      <trkpt lat="45.53482" lon="4.87211">
        <ele>124.87603</ele>
        <time>2021-07-19T11:49:37Z</time>
      </trkpt>
      <trkpt lat="45.53486" lon="4.87214">
        <ele>123.77154</ele>
        <time>2021-07-19T11:49:38Z</time>
      </trkpt>
      <trkpt lat="45.53489" lon="4.87216">
        <ele>123.22194</ele>
        <time>2021-07-19T11:49:39Z</time>
      </trkpt>
      <trkpt lat="45.53492" lon="4.87219">
        <ele>123.37519</ele>
        <time>2021-07-19T11:49:40Z</time>
      </trkpt>
      <trkpt lat="45.53495" lon="4.87221">
        <ele>123.35934</ele>
        <time>2021-07-19T11:49:41Z</time>
      </trkpt>
      <trkpt lat="45.53497" lon="4.87223">
        <ele>123.22194</ele>
        <time>2021-07-19T11:49:42Z</time>
      </trkpt>
      <trkpt lat="45.535" lon="4.87225">
        <ele>123.23779</ele>
        <time>2021-07-19T11:49:43Z</time>
      </trkpt>
      <trkpt lat="45.53502" lon="4.87227">
        <ele>123.02111</ele>
        <time>2021-07-19T11:49:44Z</time>
      </trkpt>
      <trkpt lat="45.53504" lon="4.87229">
        <ele>122.49265</ele>
        <time>2021-07-19T11:49:45Z</time>
      </trkpt>
      <trkpt lat="45.53506" lon="4.87233">
        <ele>121.52028</ele>
        <time>2021-07-19T11:49:46Z</time>
      </trkpt>
      <trkpt lat="45.53506" lon="4.87236">
        <ele>122.29712</ele>
        <time>2021-07-19T11:49:47Z</time>
      </trkpt>
      <trkpt lat="45.53505" lon="4.8724">
        <ele>122.31827</ele>
        <time>2021-07-19T11:49:48Z</time>
      </trkpt>
      <trkpt lat="45.53503" lon="4.87244">
        <ele>122.39225</ele>
        <time>2021-07-19T11:49:49Z</time>
      </trkpt>
      <trkpt lat="45.53501" lon="4.87247">
        <ele>122.31297</ele>
        <time>2021-07-19T11:49:50Z</time>
      </trkpt>
      <trkpt lat="45.53499" lon="4.87251">
        <ele>122.149155</ele>
        <time>2021-07-19T11:49:51Z</time>
      </trkpt>
      <trkpt lat="45.53499" lon="4.87255">
        <ele>122.23371</ele>
        <time>2021-07-19T11:49:52Z</time>
      </trkpt>
      <trkpt lat="45.53497" lon="4.8726">
        <ele>122.39225</ele>
        <time>2021-07-19T11:49:53Z</time>
      </trkpt>
      <trkpt lat="45.53496" lon="4.87265">
        <ele>122.439804</ele>
        <time>2021-07-19T11:49:54Z</time>
      </trkpt>
      <trkpt lat="45.53494" lon="4.87269">
        <ele>122.37111</ele>
        <time>2021-07-19T11:49:55Z</time>
      </trkpt>
      <trkpt lat="45.53492" lon="4.87274">
        <ele>122.57192</ele>
        <time>2021-07-19T11:49:56Z</time>
      </trkpt>
      <trkpt lat="45.5349" lon="4.87277">
        <ele>122.83616</ele>
        <time>2021-07-19T11:49:57Z</time>
      </trkpt>
      <trkpt lat="45.53488" lon="4.87282">
        <ele>123.0634</ele>
        <time>2021-07-19T11:49:58Z</time>
      </trkpt>
      <trkpt lat="45.53487" lon="4.87285">
        <ele>123.10039</ele>
        <time>2021-07-19T11:49:59Z</time>
      </trkpt>
      <trkpt lat="45.53488" lon="4.87288">
        <ele>123.04754</ele>
        <time>2021-07-19T11:50:00Z</time>
      </trkpt>
      <trkpt lat="45.5349" lon="4.87291">
        <ele>123.031685</ele>
        <time>2021-07-19T11:50:01Z</time>
      </trkpt>
      <trkpt lat="45.53492" lon="4.87294">
        <ele>123.264206</ele>
        <time>2021-07-19T11:50:02Z</time>
      </trkpt>
      <trkpt lat="45.53495" lon="4.87297">
        <ele>123.12153</ele>
        <time>2021-07-19T11:50:03Z</time>
      </trkpt>
      <trkpt lat="45.53498" lon="4.873">
        <ele>123.22194</ele>
        <time>2021-07-19T11:50:04Z</time>
      </trkpt>
      <trkpt lat="45.535" lon="4.87303">
        <ele>123.470314</ele>
        <time>2021-07-19T11:50:05Z</time>
      </trkpt>
      <trkpt lat="45.53502" lon="4.87306">
        <ele>123.11624</ele>
        <time>2021-07-19T11:50:06Z</time>
      </trkpt>
      <trkpt lat="45.53505" lon="4.8731">
        <ele>122.9577</ele>
        <time>2021-07-19T11:50:07Z</time>
      </trkpt>
      <trkpt lat="45.53509" lon="4.87315">
        <ele>122.67762</ele>
        <time>2021-07-19T11:50:08Z</time>
      </trkpt>
      <trkpt lat="45.53513" lon="4.87323">
        <ele>122.6142</ele>
        <time>2021-07-19T11:50:09Z</time>
      </trkpt>
      <trkpt lat="45.53516" lon="4.87331">
        <ele>122.846725</ele>
        <time>2021-07-19T11:50:10Z</time>
      </trkpt>
      <trkpt lat="45.53521" lon="4.87339">
        <ele>123.00527</ele>
        <time>2021-07-19T11:50:11Z</time>
      </trkpt>
      <trkpt lat="45.53525" lon="4.87345">
        <ele>122.767456</ele>
        <time>2021-07-19T11:50:12Z</time>
      </trkpt>
      <trkpt lat="45.53531" lon="4.87349">
        <ele>122.693474</ele>
        <time>2021-07-19T11:50:13Z</time>
      </trkpt>
      <trkpt lat="45.53532" lon="4.87352">
        <ele>122.36582</ele>
        <time>2021-07-19T11:50:14Z</time>
      </trkpt>
      <trkpt lat="45.53535" lon="4.87357">
        <ele>122.39225</ele>
        <time>2021-07-19T11:50:15Z</time>
      </trkpt>
      <trkpt lat="45.53536" lon="4.87361">
        <ele>122.645905</ele>
        <time>2021-07-19T11:50:16Z</time>
      </trkpt>
      <trkpt lat="45.53538" lon="4.87366">
        <ele>122.487366</ele>
        <time>2021-07-19T11:50:17Z</time>
      </trkpt>
      <trkpt lat="45.53544" lon="4.87372">
        <ele>122.24427</ele>
        <time>2021-07-19T11:50:18Z</time>
      </trkpt>
      <trkpt lat="45.53545" lon="4.87377">
        <ele>122.12801</ele>
        <time>2021-07-19T11:50:19Z</time>
      </trkpt>
      <trkpt lat="45.53547" lon="4.8738">
        <ele>122.08045</ele>
        <time>2021-07-19T11:50:20Z</time>
      </trkpt>
      <trkpt lat="45.53549" lon="4.87387">
        <ele>122.20728</ele>
        <time>2021-07-19T11:50:21Z</time>
      </trkpt>
      <trkpt lat="45.53552" lon="4.87394">
        <ele>122.36582</ele>
        <time>2021-07-19T11:50:22Z</time>
      </trkpt>
      <trkpt lat="45.53555" lon="4.87396">
        <ele>122.386955</ele>
        <time>2021-07-19T11:50:23Z</time>
      </trkpt>
      <trkpt lat="45.53557" lon="4.87399">
        <ele>122.59306</ele>
        <time>2021-07-19T11:50:24Z</time>
      </trkpt>
      <trkpt lat="45.53563" lon="4.87405">
        <ele>122.540215</ele>
        <time>2021-07-19T11:50:25Z</time>
      </trkpt>
      <trkpt lat="45.53567" lon="4.87411">
        <ele>122.376396</ele>
        <time>2021-07-19T11:50:26Z</time>
      </trkpt>
      <trkpt lat="45.53572" lon="4.87419">
        <ele>122.434525</ele>
        <time>2021-07-19T11:50:27Z</time>
      </trkpt>
      <trkpt lat="45.53574" lon="4.87426">
        <ele>122.41338</ele>
        <time>2021-07-19T11:50:28Z</time>
      </trkpt>
      <trkpt lat="45.53577" lon="4.87434">
        <ele>122.75688</ele>
        <time>2021-07-19T11:50:29Z</time>
      </trkpt>
      <trkpt lat="45.5358" lon="4.8744">
        <ele>122.793884</ele>
        <time>2021-07-19T11:50:30Z</time>
      </trkpt>
      <trkpt lat="45.53584" lon="4.87446">
        <ele>122.55079</ele>
        <time>2021-07-19T11:50:31Z</time>
      </trkpt>
      <trkpt lat="45.53589" lon="4.87452">
        <ele>122.57192</ele>
        <time>2021-07-19T11:50:32Z</time>
      </trkpt>
      <trkpt lat="45.53594" lon="4.87455">
        <ele>122.534935</ele>
        <time>2021-07-19T11:50:33Z</time>
      </trkpt>
      <trkpt lat="45.536" lon="4.87454">
        <ele>122.40281</ele>
        <time>2021-07-19T11:50:34Z</time>
      </trkpt>
      <trkpt lat="45.53608" lon="4.87456">
        <ele>122.513794</ele>
        <time>2021-07-19T11:50:35Z</time>
      </trkpt>
      <trkpt lat="45.53615" lon="4.8745">
        <ele>122.381676</ele>
        <time>2021-07-19T11:50:36Z</time>
      </trkpt>
      <trkpt lat="45.53621" lon="4.87445">
        <ele>122.36054</ele>
        <time>2021-07-19T11:50:37Z</time>
      </trkpt>
      <trkpt lat="45.53623" lon="4.87439">
        <ele>122.30769</ele>
        <time>2021-07-19T11:50:38Z</time>
      </trkpt>
      <trkpt lat="45.53626" lon="4.87434">
        <ele>122.22842</ele>
        <time>2021-07-19T11:50:39Z</time>
      </trkpt>
      <trkpt lat="45.53627" lon="4.87427">
        <ele>122.376396</ele>
        <time>2021-07-19T11:50:40Z</time>
      </trkpt>
      <trkpt lat="45.53634" lon="4.87421">
        <ele>122.24427</ele>
        <time>2021-07-19T11:50:41Z</time>
      </trkpt>
      <trkpt lat="45.53637" lon="4.87414">
        <ele>122.254845</ele>
        <time>2021-07-19T11:50:42Z</time>
      </trkpt>
      <trkpt lat="45.53641" lon="4.87409">
        <ele>122.13858</ele>
        <time>2021-07-19T11:50:43Z</time>
      </trkpt>
      <trkpt lat="45.53645" lon="4.87405">
        <ele>121.84265</ele>
        <time>2021-07-19T11:50:44Z</time>
      </trkpt>
      <trkpt lat="45.53649" lon="4.87402">
        <ele>121.57313</ele>
        <time>2021-07-19T11:50:45Z</time>
      </trkpt>
      <trkpt lat="45.53654" lon="4.87398">
        <ele>121.64711</ele>
        <time>2021-07-19T11:50:46Z</time>
      </trkpt>
      <trkpt lat="45.53658" lon="4.87393">
        <ele>121.81622</ele>
        <time>2021-07-19T11:50:47Z</time>
      </trkpt>
      <trkpt lat="45.53662" lon="4.87388">
        <ele>122.154434</ele>
        <time>2021-07-19T11:50:48Z</time>
      </trkpt>
      <trkpt lat="45.53667" lon="4.87383">
        <ele>122.21786</ele>
        <time>2021-07-19T11:50:49Z</time>
      </trkpt>
      <trkpt lat="45.53671" lon="4.87379">
        <ele>122.175575</ele>
        <time>2021-07-19T11:50:50Z</time>
      </trkpt>
      <trkpt lat="45.53675" lon="4.87374">
        <ele>122.36582</ele>
        <time>2021-07-19T11:50:51Z</time>
      </trkpt>
      <trkpt lat="45.53678" lon="4.8737">
        <ele>122.3394</ele>
        <time>2021-07-19T11:50:52Z</time>
      </trkpt>
      <trkpt lat="45.53681" lon="4.87365">
        <ele>122.302414</ele>
        <time>2021-07-19T11:50:53Z</time>
      </trkpt>
      <trkpt lat="45.53685" lon="4.8736">
        <ele>122.57721</ele>
        <time>2021-07-19T11:50:54Z</time>
      </trkpt>
      <trkpt lat="45.53688" lon="4.87354">
        <ele>122.540215</ele>
        <time>2021-07-19T11:50:55Z</time>
      </trkpt>
      <trkpt lat="45.53692" lon="4.8735">
        <ele>122.50322</ele>
        <time>2021-07-19T11:50:56Z</time>
      </trkpt>
      <trkpt lat="45.53698" lon="4.87345">
        <ele>122.767456</ele>
        <time>2021-07-19T11:50:57Z</time>
      </trkpt>
      <trkpt lat="45.53703" lon="4.87341">
        <ele>122.741035</ele>
        <time>2021-07-19T11:50:58Z</time>
      </trkpt>
      <trkpt lat="45.53708" lon="4.87337">
        <ele>122.69875</ele>
        <time>2021-07-19T11:50:59Z</time>
      </trkpt>
      <trkpt lat="45.53713" lon="4.87334">
        <ele>122.63005</ele>
        <time>2021-07-19T11:51:00Z</time>
      </trkpt>
      <trkpt lat="45.53717" lon="4.87331">
        <ele>122.534935</ele>
        <time>2021-07-19T11:51:01Z</time>
      </trkpt>
      <trkpt lat="45.53721" lon="4.87329">
        <ele>122.545494</ele>
        <time>2021-07-19T11:51:02Z</time>
      </trkpt>
      <trkpt lat="45.53724" lon="4.87327">
        <ele>122.50851</ele>
        <time>2021-07-19T11:51:03Z</time>
      </trkpt>
      <trkpt lat="45.53728" lon="4.87326">
        <ele>122.45566</ele>
        <time>2021-07-19T11:51:04Z</time>
      </trkpt>
      <trkpt lat="45.53732" lon="4.87323">
        <ele>122.355255</ele>
        <time>2021-07-19T11:51:05Z</time>
      </trkpt>
      <trkpt lat="45.53735" lon="4.87321">
        <ele>122.434525</ele>
        <time>2021-07-19T11:51:06Z</time>
      </trkpt>
      <trkpt lat="45.53738" lon="4.87318">
        <ele>122.45566</ele>
        <time>2021-07-19T11:51:07Z</time>
      </trkpt>
      <trkpt lat="45.53742" lon="4.87316">
        <ele>122.42924</ele>
        <time>2021-07-19T11:51:08Z</time>
      </trkpt>
      <trkpt lat="45.53744" lon="4.87314">
        <ele>122.1333</ele>
        <time>2021-07-19T11:51:09Z</time>
      </trkpt>
      <trkpt lat="45.53747" lon="4.87312">
        <ele>122.21257</ele>
        <time>2021-07-19T11:51:10Z</time>
      </trkpt>
      <trkpt lat="45.5375" lon="4.87309">
        <ele>122.545494</ele>
        <time>2021-07-19T11:51:11Z</time>
      </trkpt>
      <trkpt lat="45.53754" lon="4.87305">
        <ele>122.52436</ele>
        <time>2021-07-19T11:51:12Z</time>
      </trkpt>
      <trkpt lat="45.53756" lon="4.873">
        <ele>122.487366</ele>
        <time>2021-07-19T11:51:13Z</time>
      </trkpt>
      <trkpt lat="45.53759" lon="4.87295">
        <ele>122.42396</ele>
        <time>2021-07-19T11:51:14Z</time>
      </trkpt>
      <trkpt lat="45.53764" lon="4.87291">
        <ele>122.6829</ele>
        <time>2021-07-19T11:51:15Z</time>
      </trkpt>
      <trkpt lat="45.53768" lon="4.87287">
        <ele>122.889</ele>
        <time>2021-07-19T11:51:16Z</time>
      </trkpt>
      <trkpt lat="45.53772" lon="4.87281">
        <ele>122.80973</ele>
        <time>2021-07-19T11:51:17Z</time>
      </trkpt>
      <trkpt lat="45.53776" lon="4.87276">
        <ele>122.820305</ele>
        <time>2021-07-19T11:51:18Z</time>
      </trkpt>
      <trkpt lat="45.5378" lon="4.87272">
        <ele>122.85729</ele>
        <time>2021-07-19T11:51:19Z</time>
      </trkpt>
      <trkpt lat="45.53784" lon="4.87268">
        <ele>122.78859</ele>
        <time>2021-07-19T11:51:20Z</time>
      </trkpt>
      <trkpt lat="45.53788" lon="4.87263">
        <ele>122.93657</ele>
        <time>2021-07-19T11:51:21Z</time>
      </trkpt>
      <trkpt lat="45.53791" lon="4.8726">
        <ele>122.889</ele>
        <time>2021-07-19T11:51:22Z</time>
      </trkpt>
      <trkpt lat="45.53795" lon="4.87256">
        <ele>123.0634</ele>
        <time>2021-07-19T11:51:23Z</time>
      </trkpt>
      <trkpt lat="45.53799" lon="4.87251">
        <ele>122.9947</ele>
        <time>2021-07-19T11:51:24Z</time>
      </trkpt>
      <trkpt lat="45.53803" lon="4.87247">
        <ele>122.96298</ele>
        <time>2021-07-19T11:51:25Z</time>
      </trkpt>
      <trkpt lat="45.53806" lon="4.87241">
        <ele>123.45446</ele>
        <time>2021-07-19T11:51:26Z</time>
      </trkpt>
      <trkpt lat="45.5381" lon="4.87238">
        <ele>123.20608</ele>
        <time>2021-07-19T11:51:27Z</time>
      </trkpt>
      <trkpt lat="45.53815" lon="4.87235">
        <ele>123.25365</ele>
        <time>2021-07-19T11:51:28Z</time>
      </trkpt>
      <trkpt lat="45.53819" lon="4.87229">
        <ele>123.51259</ele>
        <time>2021-07-19T11:51:29Z</time>
      </trkpt>
      <trkpt lat="45.53824" lon="4.87223">
        <ele>123.24307</ele>
        <time>2021-07-19T11:51:30Z</time>
      </trkpt>
      <trkpt lat="45.53828" lon="4.87219">
        <ele>123.33291</ele>
        <time>2021-07-19T11:51:31Z</time>
      </trkpt>
      <trkpt lat="45.53832" lon="4.87214">
        <ele>123.91422</ele>
        <time>2021-07-19T11:51:32Z</time>
      </trkpt>
      <trkpt lat="45.53837" lon="4.8721">
        <ele>123.25893</ele>
        <time>2021-07-19T11:51:33Z</time>
      </trkpt>
      <trkpt lat="45.53841" lon="4.87205">
        <ele>124.06748</ele>
        <time>2021-07-19T11:51:34Z</time>
      </trkpt>
      <trkpt lat="45.53845" lon="4.87202">
        <ele>123.94065</ele>
        <time>2021-07-19T11:51:35Z</time>
      </trkpt>
      <trkpt lat="45.53849" lon="4.87199">
        <ele>123.02111</ele>
        <time>2021-07-19T11:51:36Z</time>
      </trkpt>
      <trkpt lat="45.53854" lon="4.87197">
        <ele>123.16381</ele>
        <time>2021-07-19T11:51:37Z</time>
      </trkpt>
      <trkpt lat="45.53857" lon="4.87195">
        <ele>122.91542</ele>
        <time>2021-07-19T11:51:38Z</time>
      </trkpt>
      <trkpt lat="45.53861" lon="4.87193">
        <ele>122.904854</ele>
        <time>2021-07-19T11:51:39Z</time>
      </trkpt>
      <trkpt lat="45.53866" lon="4.8719">
        <ele>122.540215</ele>
        <time>2021-07-19T11:51:40Z</time>
      </trkpt>
      <trkpt lat="45.5387" lon="4.87187">
        <ele>122.587776</ele>
        <time>2021-07-19T11:51:41Z</time>
      </trkpt>
      <trkpt lat="45.53874" lon="4.87181">
        <ele>122.65648</ele>
        <time>2021-07-19T11:51:42Z</time>
      </trkpt>
      <trkpt lat="45.53879" lon="4.87176">
        <ele>122.81502</ele>
        <time>2021-07-19T11:51:43Z</time>
      </trkpt>
      <trkpt lat="45.53883" lon="4.87168">
        <ele>123.22194</ele>
        <time>2021-07-19T11:51:44Z</time>
      </trkpt>
      <trkpt lat="45.53889" lon="4.87161">
        <ele>123.33291</ele>
        <time>2021-07-19T11:51:45Z</time>
      </trkpt>
      <trkpt lat="45.53894" lon="4.87155">
        <ele>123.470314</ele>
        <time>2021-07-19T11:51:46Z</time>
      </trkpt>
      <trkpt lat="45.53898" lon="4.87151">
        <ele>123.264206</ele>
        <time>2021-07-19T11:51:47Z</time>
      </trkpt>
      <trkpt lat="45.53902" lon="4.87146">
        <ele>123.25365</ele>
        <time>2021-07-19T11:51:48Z</time>
      </trkpt>
      <trkpt lat="45.53906" lon="4.87141">
        <ele>123.44917</ele>
        <time>2021-07-19T11:51:49Z</time>
      </trkpt>
      <trkpt lat="45.5391" lon="4.87136">
        <ele>123.35934</ele>
        <time>2021-07-19T11:51:50Z</time>
      </trkpt>
      <trkpt lat="45.53914" lon="4.87131">
        <ele>123.465034</ele>
        <time>2021-07-19T11:51:51Z</time>
      </trkpt>
      <trkpt lat="45.53918" lon="4.87127">
        <ele>123.602425</ele>
        <time>2021-07-19T11:51:52Z</time>
      </trkpt>
      <trkpt lat="45.53922" lon="4.87122">
        <ele>123.74512</ele>
        <time>2021-07-19T11:51:53Z</time>
      </trkpt>
      <trkpt lat="45.53925" lon="4.87118">
        <ele>123.35405</ele>
        <time>2021-07-19T11:51:54Z</time>
      </trkpt>
      <trkpt lat="45.53929" lon="4.87115">
        <ele>123.311775</ele>
        <time>2021-07-19T11:51:55Z</time>
      </trkpt>
      <trkpt lat="45.53933" lon="4.87111">
        <ele>123.35934</ele>
        <time>2021-07-19T11:51:56Z</time>
      </trkpt>
      <trkpt lat="45.53936" lon="4.87107">
        <ele>123.496735</ele>
        <time>2021-07-19T11:51:57Z</time>
      </trkpt>
      <trkpt lat="45.5394" lon="4.87105">
        <ele>123.53902</ele>
        <time>2021-07-19T11:51:58Z</time>
      </trkpt>
      <trkpt lat="45.53943" lon="4.87103">
        <ele>123.94593</ele>
        <time>2021-07-19T11:51:59Z</time>
      </trkpt>
      <trkpt lat="45.53947" lon="4.87101">
        <ele>124.28415</ele>
        <time>2021-07-19T11:52:00Z</time>
      </trkpt>
      <trkpt lat="45.53949" lon="4.871">
        <ele>124.738625</ele>
        <time>2021-07-19T11:52:01Z</time>
      </trkpt>
      <trkpt lat="45.53953" lon="4.87096">
        <ele>124.94473</ele>
        <time>2021-07-19T11:52:02Z</time>
      </trkpt>
      <trkpt lat="45.53956" lon="4.87092">
        <ele>124.98701</ele>
        <time>2021-07-19T11:52:03Z</time>
      </trkpt>
      <trkpt lat="45.53959" lon="4.87087">
        <ele>125.06628</ele>
        <time>2021-07-19T11:52:04Z</time>
      </trkpt>
      <trkpt lat="45.53962" lon="4.87082">
        <ele>124.85489</ele>
        <time>2021-07-19T11:52:05Z</time>
      </trkpt>
      <trkpt lat="45.53965" lon="4.87078">
        <ele>125.1614</ele>
        <time>2021-07-19T11:52:06Z</time>
      </trkpt>
      <trkpt lat="45.53967" lon="4.87073">
        <ele>125.29351</ele>
        <time>2021-07-19T11:52:07Z</time>
      </trkpt>
      <trkpt lat="45.53969" lon="4.8707">
        <ele>125.203674</ele>
        <time>2021-07-19T11:52:08Z</time>
      </trkpt>
      <trkpt lat="45.5397" lon="4.87068">
        <ele>125.16668</ele>
        <time>2021-07-19T11:52:09Z</time>
      </trkpt>
      <trkpt lat="45.53971" lon="4.87066">
        <ele>125.309364</ele>
        <time>2021-07-19T11:52:10Z</time>
      </trkpt>
      <trkpt lat="45.53972" lon="4.87065">
        <ele>125.3675</ele>
        <time>2021-07-19T11:52:11Z</time>
      </trkpt>
      <trkpt lat="45.53972" lon="4.87065">
        <ele>125.383354</ele>
        <time>2021-07-19T11:52:12Z</time>
      </trkpt>
      <trkpt lat="45.53972" lon="4.87064">
        <ele>125.28823</ele>
        <time>2021-07-19T11:52:13Z</time>
      </trkpt>
      <trkpt lat="45.53972" lon="4.87064">
        <ele>125.31465</ele>
        <time>2021-07-19T11:52:14Z</time>
      </trkpt>
      <trkpt lat="45.53972" lon="4.87064">
        <ele>125.2301</ele>
        <time>2021-07-19T11:52:15Z</time>
      </trkpt>
      <trkpt lat="45.53972" lon="4.87064">
        <ele>125.171974</ele>
        <time>2021-07-19T11:52:16Z</time>
      </trkpt>
      <trkpt lat="45.53972" lon="4.87064">
        <ele>125.171974</ele>
        <time>2021-07-19T11:52:16Z</time>
      </trkpt>
      <trkpt lat="45.53972" lon="4.87064">
        <ele>125.171974</ele>
        <time>2021-07-19T11:52:16Z</time>
      </trkpt>
      <trkpt lat="45.53996" lon="4.87035">
        <ele>126.725655</ele>
        <time>2021-07-19T11:53:00Z</time>
      </trkpt>
      <trkpt lat="45.53999" lon="4.87031">
        <ele>126.78906</ele>
        <time>2021-07-19T11:53:01Z</time>
      </trkpt>
      <trkpt lat="45.54002" lon="4.87028">
        <ele>127.05329</ele>
        <time>2021-07-19T11:53:02Z</time>
      </trkpt>
      <trkpt lat="45.54004" lon="4.87025">
        <ele>126.97403</ele>
        <time>2021-07-19T11:53:03Z</time>
      </trkpt>
      <trkpt lat="45.54006" lon="4.87022">
        <ele>127.12729</ele>
        <time>2021-07-19T11:53:04Z</time>
      </trkpt>
      <trkpt lat="45.54009" lon="4.87019">
        <ele>127.248825</ele>
        <time>2021-07-19T11:53:05Z</time>
      </trkpt>
      <trkpt lat="45.54012" lon="4.87017">
        <ele>127.47607</ele>
        <time>2021-07-19T11:53:06Z</time>
      </trkpt>
      <trkpt lat="45.54015" lon="4.87014">
        <ele>127.42322</ele>
        <time>2021-07-19T11:53:07Z</time>
      </trkpt>
      <trkpt lat="45.54017" lon="4.8701">
        <ele>127.6716</ele>
        <time>2021-07-19T11:53:08Z</time>
      </trkpt>
      <trkpt lat="45.54019" lon="4.87007">
        <ele>127.76672</ele>
        <time>2021-07-19T11:53:09Z</time>
      </trkpt>
      <trkpt lat="45.54022" lon="4.87004">
        <ele>127.88298</ele>
        <time>2021-07-19T11:53:10Z</time>
      </trkpt>
      <trkpt lat="45.54025" lon="4.87003">
        <ele>128.09436</ele>
        <time>2021-07-19T11:53:11Z</time>
      </trkpt>
      <trkpt lat="45.54028" lon="4.87">
        <ele>128.14194</ele>
        <time>2021-07-19T11:53:12Z</time>
      </trkpt>
      <trkpt lat="45.54031" lon="4.86997">
        <ele>128.15779</ele>
        <time>2021-07-19T11:53:13Z</time>
      </trkpt>
      <trkpt lat="45.54035" lon="4.86993">
        <ele>128.47487</ele>
        <time>2021-07-19T11:53:14Z</time>
      </trkpt>
      <trkpt lat="45.54038" lon="4.86989">
        <ele>129.06674</ele>
        <time>2021-07-19T11:53:15Z</time>
      </trkpt>
      <trkpt lat="45.54042" lon="4.86985">
        <ele>128.71796</ele>
        <time>2021-07-19T11:53:16Z</time>
      </trkpt>
      <trkpt lat="45.54045" lon="4.86981">
        <ele>128.69153</ele>
        <time>2021-07-19T11:53:17Z</time>
      </trkpt>
      <trkpt lat="45.54049" lon="4.86976">
        <ele>128.88177</ele>
        <time>2021-07-19T11:53:18Z</time>
      </trkpt>
      <trkpt lat="45.54052" lon="4.86971">
        <ele>129.75375</ele>
        <time>2021-07-19T11:53:19Z</time>
      </trkpt>
      <trkpt lat="45.54056" lon="4.86967">
        <ele>129.50008</ele>
        <time>2021-07-19T11:53:20Z</time>
      </trkpt>
      <trkpt lat="45.54059" lon="4.86962">
        <ele>129.66919</ele>
        <time>2021-07-19T11:53:21Z</time>
      </trkpt>
      <trkpt lat="45.54063" lon="4.86958">
        <ele>129.93343</ele>
        <time>2021-07-19T11:53:22Z</time>
      </trkpt>
      <trkpt lat="45.54066" lon="4.86955">
        <ele>129.76431</ele>
        <time>2021-07-19T11:53:23Z</time>
      </trkpt>
      <trkpt lat="45.54071" lon="4.86953">
        <ele>130.17123</ele>
        <time>2021-07-19T11:53:24Z</time>
      </trkpt>
      <trkpt lat="45.54075" lon="4.86951">
        <ele>130.10252</ele>
        <time>2021-07-19T11:53:25Z</time>
      </trkpt>
      <trkpt lat="45.54079" lon="4.86948">
        <ele>130.4249</ele>
        <time>2021-07-19T11:53:26Z</time>
      </trkpt>
      <trkpt lat="45.54084" lon="4.86945">
        <ele>130.85295</ele>
        <time>2021-07-19T11:53:27Z</time>
      </trkpt>
      <trkpt lat="45.54087" lon="4.86942">
        <ele>130.71027</ele>
        <time>2021-07-19T11:53:28Z</time>
      </trkpt>
      <trkpt lat="45.5409" lon="4.86939">
        <ele>130.87408</ele>
        <time>2021-07-19T11:53:29Z</time>
      </trkpt>
      <trkpt lat="45.54093" lon="4.86936">
        <ele>130.76312</ele>
        <time>2021-07-19T11:53:30Z</time>
      </trkpt>
      <trkpt lat="45.54096" lon="4.86932">
        <ele>130.62572</ele>
        <time>2021-07-19T11:53:31Z</time>
      </trkpt>
      <trkpt lat="45.541" lon="4.86928">
        <ele>131.0749</ele>
        <time>2021-07-19T11:53:32Z</time>
      </trkpt>
      <trkpt lat="45.54104" lon="4.86924">
        <ele>130.72612</ele>
        <time>2021-07-19T11:53:33Z</time>
      </trkpt>
      <trkpt lat="45.54107" lon="4.8692">
        <ele>131.29158</ele>
        <time>2021-07-19T11:53:34Z</time>
      </trkpt>
      <trkpt lat="45.54111" lon="4.86917">
        <ele>131.2546</ele>
        <time>2021-07-19T11:53:35Z</time>
      </trkpt>
      <trkpt lat="45.54114" lon="4.86913">
        <ele>131.22816</ele>
        <time>2021-07-19T11:53:36Z</time>
      </trkpt>
      <trkpt lat="45.54118" lon="4.8691">
        <ele>131.39198</ele>
        <time>2021-07-19T11:53:37Z</time>
      </trkpt>
      <trkpt lat="45.54121" lon="4.86907">
        <ele>131.60338</ele>
        <time>2021-07-19T11:53:38Z</time>
      </trkpt>
      <trkpt lat="45.54125" lon="4.86902">
        <ele>131.58752</ele>
        <time>2021-07-19T11:53:39Z</time>
      </trkpt>
      <trkpt lat="45.54127" lon="4.86898">
        <ele>131.70908</ele>
        <time>2021-07-19T11:53:40Z</time>
      </trkpt>
      <trkpt lat="45.54131" lon="4.86893">
        <ele>131.89403</ele>
        <time>2021-07-19T11:53:41Z</time>
      </trkpt>
      <trkpt lat="45.54134" lon="4.86888">
        <ele>131.99973</ele>
        <time>2021-07-19T11:53:42Z</time>
      </trkpt>
      <trkpt lat="45.54137" lon="4.86885">
        <ele>132.3168</ele>
        <time>2021-07-19T11:53:43Z</time>
      </trkpt>
      <trkpt lat="45.5414" lon="4.86881">
        <ele>132.44891</ele>
        <time>2021-07-19T11:53:44Z</time>
      </trkpt>
      <trkpt lat="45.54143" lon="4.86877">
        <ele>133.1095</ele>
        <time>2021-07-19T11:53:45Z</time>
      </trkpt>
      <trkpt lat="45.54146" lon="4.86874">
        <ele>132.71315</ele>
        <time>2021-07-19T11:53:46Z</time>
      </trkpt>
      <trkpt lat="45.54149" lon="4.8687">
        <ele>132.67615</ele>
        <time>2021-07-19T11:53:47Z</time>
      </trkpt>
      <trkpt lat="45.54153" lon="4.86866">
        <ele>132.72371</ele>
        <time>2021-07-19T11:53:48Z</time>
      </trkpt>
      <trkpt lat="45.54156" lon="4.86863">
        <ele>132.81885</ele>
        <time>2021-07-19T11:53:49Z</time>
      </trkpt>
      <trkpt lat="45.54159" lon="4.86859">
        <ele>132.99852</ele>
        <time>2021-07-19T11:53:50Z</time>
      </trkpt>
      <trkpt lat="45.54163" lon="4.86855">
        <ele>133.06721</ele>
        <time>2021-07-19T11:53:51Z</time>
      </trkpt>
      <trkpt lat="45.54166" lon="4.86851">
        <ele>133.25218</ele>
        <time>2021-07-19T11:53:52Z</time>
      </trkpt>
      <trkpt lat="45.5417" lon="4.86847">
        <ele>133.46356</ele>
        <time>2021-07-19T11:53:53Z</time>
      </trkpt>
      <trkpt lat="45.54173" lon="4.86843">
        <ele>133.81763</ele>
        <time>2021-07-19T11:53:54Z</time>
      </trkpt>
      <trkpt lat="45.54176" lon="4.86839">
        <ele>133.94975</ele>
        <time>2021-07-19T11:53:55Z</time>
      </trkpt>
      <trkpt lat="45.54179" lon="4.86836">
        <ele>134.06073</ele>
        <time>2021-07-19T11:53:56Z</time>
      </trkpt>
      <trkpt lat="45.54182" lon="4.86832">
        <ele>134.21927</ele>
        <time>2021-07-19T11:53:57Z</time>
      </trkpt>
      <trkpt lat="45.54186" lon="4.86829">
        <ele>134.29854</ele>
        <time>2021-07-19T11:53:58Z</time>
      </trkpt>
      <trkpt lat="45.5419" lon="4.86825">
        <ele>134.33025</ele>
        <time>2021-07-19T11:53:59Z</time>
      </trkpt>
      <trkpt lat="45.54193" lon="4.86822">
        <ele>134.29324</ele>
        <time>2021-07-19T11:54:00Z</time>
      </trkpt>
      <trkpt lat="45.54197" lon="4.86818">
        <ele>134.6896</ele>
        <time>2021-07-19T11:54:01Z</time>
      </trkpt>
      <trkpt lat="45.542" lon="4.86815">
        <ele>134.69489</ele>
        <time>2021-07-19T11:54:02Z</time>
      </trkpt>
      <trkpt lat="45.54203" lon="4.86812">
        <ele>134.98555</ele>
        <time>2021-07-19T11:54:03Z</time>
      </trkpt>
      <trkpt lat="45.54208" lon="4.86808">
        <ele>134.91684</ele>
        <time>2021-07-19T11:54:04Z</time>
      </trkpt>
      <trkpt lat="45.54211" lon="4.86805">
        <ele>135.02782</ele>
        <time>2021-07-19T11:54:05Z</time>
      </trkpt>
      <trkpt lat="45.54215" lon="4.86801">
        <ele>135.26035</ele>
        <time>2021-07-19T11:54:06Z</time>
      </trkpt>
      <trkpt lat="45.54219" lon="4.86797">
        <ele>135.55629</ele>
        <time>2021-07-19T11:54:07Z</time>
      </trkpt>
      <trkpt lat="45.54224" lon="4.86794">
        <ele>135.89978</ele>
        <time>2021-07-19T11:54:08Z</time>
      </trkpt>
      <trkpt lat="45.54227" lon="4.8679">
        <ele>135.73068</ele>
        <time>2021-07-19T11:54:09Z</time>
      </trkpt>
      <trkpt lat="45.54231" lon="4.86786">
        <ele>135.84164</ele>
        <time>2021-07-19T11:54:10Z</time>
      </trkpt>
      <trkpt lat="45.54235" lon="4.86783">
        <ele>135.97905</ele>
        <time>2021-07-19T11:54:11Z</time>
      </trkpt>
      <trkpt lat="45.54239" lon="4.86778">
        <ele>136.17987</ele>
        <time>2021-07-19T11:54:12Z</time>
      </trkpt>
      <trkpt lat="45.54243" lon="4.86775">
        <ele>136.3014</ele>
        <time>2021-07-19T11:54:13Z</time>
      </trkpt>
      <trkpt lat="45.54247" lon="4.86771">
        <ele>136.28555</ele>
        <time>2021-07-19T11:54:14Z</time>
      </trkpt>
      <trkpt lat="45.5425" lon="4.86767">
        <ele>136.45467</ele>
        <time>2021-07-19T11:54:15Z</time>
      </trkpt>
      <trkpt lat="45.54254" lon="4.86764">
        <ele>136.47581</ele>
        <time>2021-07-19T11:54:16Z</time>
      </trkpt>
      <trkpt lat="45.54257" lon="4.8676">
        <ele>136.4124</ele>
        <time>2021-07-19T11:54:17Z</time>
      </trkpt>
      <trkpt lat="45.5426" lon="4.86757">
        <ele>136.60263</ele>
        <time>2021-07-19T11:54:18Z</time>
      </trkpt>
      <trkpt lat="45.54264" lon="4.86754">
        <ele>136.84573</ele>
        <time>2021-07-19T11:54:19Z</time>
      </trkpt>
      <trkpt lat="45.54268" lon="4.86751">
        <ele>137.2368</ele>
        <time>2021-07-19T11:54:20Z</time>
      </trkpt>
      <trkpt lat="45.54271" lon="4.86749">
        <ele>137.22093</ele>
        <time>2021-07-19T11:54:21Z</time>
      </trkpt>
      <trkpt lat="45.54273" lon="4.86747">
        <ele>137.46404</ele>
        <time>2021-07-19T11:54:22Z</time>
      </trkpt>
      <trkpt lat="45.54276" lon="4.86744">
        <ele>137.71242</ele>
        <time>2021-07-19T11:54:23Z</time>
      </trkpt>
      <trkpt lat="45.54279" lon="4.8674">
        <ele>137.8551</ele>
        <time>2021-07-19T11:54:24Z</time>
      </trkpt>
      <trkpt lat="45.54283" lon="4.86736">
        <ele>137.7547</ele>
        <time>2021-07-19T11:54:25Z</time>
      </trkpt>
      <trkpt lat="45.54287" lon="4.86732">
        <ele>137.98193</ele>
        <time>2021-07-19T11:54:26Z</time>
      </trkpt>
      <trkpt lat="45.5429" lon="4.86729">
        <ele>137.96608</ele>
        <time>2021-07-19T11:54:27Z</time>
      </trkpt>
      <trkpt lat="45.54294" lon="4.86725">
        <ele>138.15103</ele>
        <time>2021-07-19T11:54:28Z</time>
      </trkpt>
      <trkpt lat="45.54298" lon="4.8672">
        <ele>138.35185</ele>
        <time>2021-07-19T11:54:29Z</time>
      </trkpt>
      <trkpt lat="45.54302" lon="4.86716">
        <ele>138.4417</ele>
        <time>2021-07-19T11:54:30Z</time>
      </trkpt>
      <trkpt lat="45.54304" lon="4.86712">
        <ele>138.6848</ele>
        <time>2021-07-19T11:54:31Z</time>
      </trkpt>
      <trkpt lat="45.54306" lon="4.86709">
        <ele>138.79576</ele>
        <time>2021-07-19T11:54:32Z</time>
      </trkpt>
      <trkpt lat="45.54309" lon="4.86706">
        <ele>138.98602</ele>
        <time>2021-07-19T11:54:33Z</time>
      </trkpt>
      <trkpt lat="45.54312" lon="4.86703">
        <ele>139.21326</ele>
        <time>2021-07-19T11:54:34Z</time>
      </trkpt>
      <trkpt lat="45.54314" lon="4.867">
        <ele>139.53561</ele>
        <time>2021-07-19T11:54:35Z</time>
      </trkpt>
      <trkpt lat="45.54317" lon="4.86696">
        <ele>139.49863</ele>
        <time>2021-07-19T11:54:36Z</time>
      </trkpt>
      <trkpt lat="45.5432" lon="4.86693">
        <ele>139.6783</ele>
        <time>2021-07-19T11:54:37Z</time>
      </trkpt>
      <trkpt lat="45.54323" lon="4.86689">
        <ele>139.94254</ele>
        <time>2021-07-19T11:54:38Z</time>
      </trkpt>
      <trkpt lat="45.54326" lon="4.86685">
        <ele>139.97952</ele>
        <time>2021-07-19T11:54:39Z</time>
      </trkpt>
      <trkpt lat="45.5433" lon="4.8668">
        <ele>140.33359</ele>
        <time>2021-07-19T11:54:40Z</time>
      </trkpt>
      <trkpt lat="45.54332" lon="4.86676">
        <ele>140.76694</ele>
        <time>2021-07-19T11:54:41Z</time>
      </trkpt>
      <trkpt lat="45.54335" lon="4.86672">
        <ele>140.51855</ele>
        <time>2021-07-19T11:54:42Z</time>
      </trkpt>
      <trkpt lat="45.54339" lon="4.86667">
        <ele>140.59254</ele>
        <time>2021-07-19T11:54:43Z</time>
      </trkpt>
      <trkpt lat="45.54341" lon="4.86664">
        <ele>140.7775</ele>
        <time>2021-07-19T11:54:44Z</time>
      </trkpt>
      <trkpt lat="45.54343" lon="4.8666">
        <ele>141.13158</ele>
        <time>2021-07-19T11:54:45Z</time>
      </trkpt>
      <trkpt lat="45.54347" lon="4.86656">
        <ele>141.11572</ele>
        <time>2021-07-19T11:54:46Z</time>
      </trkpt>
      <trkpt lat="45.5435" lon="4.86653">
        <ele>141.34825</ele>
        <time>2021-07-19T11:54:47Z</time>
      </trkpt>
      <trkpt lat="45.54353" lon="4.86649">
        <ele>141.49622</ele>
        <time>2021-07-19T11:54:48Z</time>
      </trkpt>
      <trkpt lat="45.54356" lon="4.86646">
        <ele>141.61249</ele>
        <time>2021-07-19T11:54:49Z</time>
      </trkpt>
      <trkpt lat="45.54359" lon="4.86642">
        <ele>141.7076</ele>
        <time>2021-07-19T11:54:50Z</time>
      </trkpt>
      <trkpt lat="45.54362" lon="4.8664">
        <ele>141.82387</ele>
        <time>2021-07-19T11:54:51Z</time>
      </trkpt>
      <trkpt lat="45.54365" lon="4.86637">
        <ele>142.19907</ele>
        <time>2021-07-19T11:54:52Z</time>
      </trkpt>
      <trkpt lat="45.54368" lon="4.86634">
        <ele>142.51616</ele>
        <time>2021-07-19T11:54:53Z</time>
      </trkpt>
      <trkpt lat="45.54371" lon="4.86632">
        <ele>142.67998</ele>
        <time>2021-07-19T11:54:54Z</time>
      </trkpt>
      <trkpt lat="45.54373" lon="4.86629">
        <ele>142.78038</ele>
        <time>2021-07-19T11:54:55Z</time>
      </trkpt>
      <trkpt lat="45.54376" lon="4.86627">
        <ele>142.88608</ele>
        <time>2021-07-19T11:54:56Z</time>
      </trkpt>
      <trkpt lat="45.5438" lon="4.86624">
        <ele>143.20316</ele>
        <time>2021-07-19T11:54:57Z</time>
      </trkpt>
      <trkpt lat="45.54383" lon="4.86622">
        <ele>143.5308</ele>
        <time>2021-07-19T11:54:58Z</time>
      </trkpt>
      <trkpt lat="45.54387" lon="4.86619">
        <ele>143.71048</ele>
        <time>2021-07-19T11:54:59Z</time>
      </trkpt>
      <trkpt lat="45.54389" lon="4.86616">
        <ele>143.76332</ele>
        <time>2021-07-19T11:55:00Z</time>
      </trkpt>
      <trkpt lat="45.54392" lon="4.86614">
        <ele>143.94301</ele>
        <time>2021-07-19T11:55:01Z</time>
      </trkpt>
      <trkpt lat="45.54395" lon="4.86611">
        <ele>144.10683</ele>
        <time>2021-07-19T11:55:02Z</time>
      </trkpt>
      <trkpt lat="45.54397" lon="4.86609">
        <ele>144.50845</ele>
        <time>2021-07-19T11:55:03Z</time>
      </trkpt>
      <trkpt lat="45.544" lon="4.86607">
        <ele>144.68286</ele>
        <time>2021-07-19T11:55:04Z</time>
      </trkpt>
      <trkpt lat="45.54402" lon="4.86605">
        <ele>144.92595</ele>
        <time>2021-07-19T11:55:05Z</time>
      </trkpt>
      <trkpt lat="45.54405" lon="4.86604">
        <ele>144.9418</ele>
        <time>2021-07-19T11:55:06Z</time>
      </trkpt>
      <trkpt lat="45.54408" lon="4.86601">
        <ele>145.20074</ele>
        <time>2021-07-19T11:55:07Z</time>
      </trkpt>
      <trkpt lat="45.5441" lon="4.86598">
        <ele>145.44383</ele>
        <time>2021-07-19T11:55:08Z</time>
      </trkpt>
      <trkpt lat="45.54412" lon="4.86596">
        <ele>145.71864</ele>
        <time>2021-07-19T11:55:09Z</time>
      </trkpt>
      <trkpt lat="45.54414" lon="4.86593">
        <ele>145.91946</ele>
        <time>2021-07-19T11:55:10Z</time>
      </trkpt>
      <trkpt lat="45.54416" lon="4.8659">
        <ele>146.18369</ele>
        <time>2021-07-19T11:55:11Z</time>
      </trkpt>
      <trkpt lat="45.54418" lon="4.86588">
        <ele>146.5906</ele>
        <time>2021-07-19T11:55:12Z</time>
      </trkpt>
      <trkpt lat="45.54421" lon="4.86585">
        <ele>146.96582</ele>
        <time>2021-07-19T11:55:13Z</time>
      </trkpt>
      <trkpt lat="45.54424" lon="4.86583">
        <ele>146.87598</ele>
        <time>2021-07-19T11:55:14Z</time>
      </trkpt>
      <trkpt lat="45.54427" lon="4.86581">
        <ele>147.35161</ele>
        <time>2021-07-19T11:55:15Z</time>
      </trkpt>
      <trkpt lat="45.5443" lon="4.86578">
        <ele>147.65811</ele>
        <time>2021-07-19T11:55:16Z</time>
      </trkpt>
      <trkpt lat="45.54432" lon="4.86576">
        <ele>147.84306</ele>
        <time>2021-07-19T11:55:17Z</time>
      </trkpt>
      <trkpt lat="45.54435" lon="4.86573">
        <ele>148.05444</ele>
        <time>2021-07-19T11:55:18Z</time>
      </trkpt>
      <trkpt lat="45.54437" lon="4.86571">
        <ele>148.36096</ele>
        <time>2021-07-19T11:55:19Z</time>
      </trkpt>
      <trkpt lat="45.54438" lon="4.8657">
        <ele>148.46138</ele>
        <time>2021-07-19T11:55:20Z</time>
      </trkpt>
      <trkpt lat="45.5444" lon="4.86569">
        <ele>148.79959</ele>
        <time>2021-07-19T11:55:21Z</time>
      </trkpt>
      <trkpt lat="45.54442" lon="4.86568">
        <ele>148.78902</ele>
        <time>2021-07-19T11:55:22Z</time>
      </trkpt>
      <trkpt lat="45.54443" lon="4.86566">
        <ele>149.07439</ele>
        <time>2021-07-19T11:55:23Z</time>
      </trkpt>
      <trkpt lat="45.54446" lon="4.86564">
        <ele>149.2435</ele>
        <time>2021-07-19T11:55:24Z</time>
      </trkpt>
      <trkpt lat="45.5445" lon="4.86561">
        <ele>149.51302</ele>
        <time>2021-07-19T11:55:25Z</time>
      </trkpt>
      <trkpt lat="45.54455" lon="4.86558">
        <ele>149.6557</ele>
        <time>2021-07-19T11:55:26Z</time>
      </trkpt>
      <trkpt lat="45.54459" lon="4.86556">
        <ele>149.80896</ele>
        <time>2021-07-19T11:55:27Z</time>
      </trkpt>
      <trkpt lat="45.54462" lon="4.86553">
        <ele>149.89879</ele>
        <time>2021-07-19T11:55:28Z</time>
      </trkpt>
      <trkpt lat="45.54464" lon="4.8655">
        <ele>150.1736</ele>
        <time>2021-07-19T11:55:29Z</time>
      </trkpt>
      <trkpt lat="45.54467" lon="4.86548">
        <ele>150.40083</ele>
        <time>2021-07-19T11:55:30Z</time>
      </trkpt>
      <trkpt lat="45.5447" lon="4.86546">
        <ele>150.62808</ele>
        <time>2021-07-19T11:55:31Z</time>
      </trkpt>
      <trkpt lat="45.54474" lon="4.86544">
        <ele>150.79718</ele>
        <time>2021-07-19T11:55:32Z</time>
      </trkpt>
      <trkpt lat="45.54476" lon="4.86542">
        <ele>150.91873</ele>
        <time>2021-07-19T11:55:33Z</time>
      </trkpt>
      <trkpt lat="45.54479" lon="4.8654">
        <ele>151.53703</ele>
        <time>2021-07-19T11:55:34Z</time>
      </trkpt>
      <trkpt lat="45.54482" lon="4.86538">
        <ele>151.50005</ele>
        <time>2021-07-19T11:55:35Z</time>
      </trkpt>
      <trkpt lat="45.54486" lon="4.86535">
        <ele>151.77484</ele>
        <time>2021-07-19T11:55:36Z</time>
      </trkpt>
      <trkpt lat="45.54489" lon="4.86533">
        <ele>151.91223</ele>
        <time>2021-07-19T11:55:37Z</time>
      </trkpt>
      <trkpt lat="45.54492" lon="4.8653">
        <ele>152.15005</ele>
        <time>2021-07-19T11:55:38Z</time>
      </trkpt>
      <trkpt lat="45.54495" lon="4.86528">
        <ele>152.45656</ele>
        <time>2021-07-19T11:55:39Z</time>
      </trkpt>
      <trkpt lat="45.54496" lon="4.86526">
        <ele>152.65738</ele>
        <time>2021-07-19T11:55:40Z</time>
      </trkpt>
      <trkpt lat="45.54498" lon="4.86524">
        <ele>152.93217</ele>
        <time>2021-07-19T11:55:41Z</time>
      </trkpt>
      <trkpt lat="45.545" lon="4.86523">
        <ele>153.13828</ele>
        <time>2021-07-19T11:55:42Z</time>
      </trkpt>
      <trkpt lat="45.54502" lon="4.86521">
        <ele>153.25983</ele>
        <time>2021-07-19T11:55:43Z</time>
      </trkpt>
      <trkpt lat="45.54504" lon="4.8652">
        <ele>153.52934</ele>
        <time>2021-07-19T11:55:44Z</time>
      </trkpt>
      <trkpt lat="45.54506" lon="4.86518">
        <ele>153.7513</ele>
        <time>2021-07-19T11:55:45Z</time>
      </trkpt>
      <trkpt lat="45.54507" lon="4.86515">
        <ele>153.89398</ele>
        <time>2021-07-19T11:55:46Z</time>
      </trkpt>
      <trkpt lat="45.54509" lon="4.86511">
        <ele>154.25862</ele>
        <time>2021-07-19T11:55:47Z</time>
      </trkpt>
      <trkpt lat="45.54511" lon="4.86508">
        <ele>154.5757</ele>
        <time>2021-07-19T11:55:48Z</time>
      </trkpt>
      <trkpt lat="45.54516" lon="4.86502">
        <ele>154.76595</ele>
        <time>2021-07-19T11:55:49Z</time>
      </trkpt>
      <trkpt lat="45.54516" lon="4.865">
        <ele>154.96147</ele>
        <time>2021-07-19T11:55:50Z</time>
      </trkpt>
      <trkpt lat="45.54519" lon="4.86497">
        <ele>155.08302</ele>
        <time>2021-07-19T11:55:51Z</time>
      </trkpt>
      <trkpt lat="45.54522" lon="4.86494">
        <ele>155.27855</ele>
        <time>2021-07-19T11:55:52Z</time>
      </trkpt>
      <trkpt lat="45.54525" lon="4.86491">
        <ele>155.67491</ele>
        <time>2021-07-19T11:55:53Z</time>
      </trkpt>
      <trkpt lat="45.54527" lon="4.86491">
        <ele>156.24565</ele>
        <time>2021-07-19T11:55:54Z</time>
      </trkpt>
      <trkpt lat="45.5453" lon="4.86489">
        <ele>156.65784</ele>
        <time>2021-07-19T11:55:55Z</time>
      </trkpt>
      <trkpt lat="45.54532" lon="4.86488">
        <ele>156.58914</ele>
        <time>2021-07-19T11:55:56Z</time>
      </trkpt>
      <trkpt lat="45.54536" lon="4.86486">
        <ele>157.18102</ele>
        <time>2021-07-19T11:55:57Z</time>
      </trkpt>
      <trkpt lat="45.54538" lon="4.86485">
        <ele>157.35013</ele>
        <time>2021-07-19T11:55:58Z</time>
      </trkpt>
      <trkpt lat="45.54541" lon="4.86484">
        <ele>157.51396</ele>
        <time>2021-07-19T11:55:59Z</time>
      </trkpt>
      <trkpt lat="45.54544" lon="4.86483">
        <ele>157.98958</ele>
        <time>2021-07-19T11:56:00Z</time>
      </trkpt>
      <trkpt lat="45.54547" lon="4.86482">
        <ele>158.16925</ele>
        <time>2021-07-19T11:56:01Z</time>
      </trkpt>
      <trkpt lat="45.54549" lon="4.86481">
        <ele>158.43877</ele>
        <time>2021-07-19T11:56:02Z</time>
      </trkpt>
      <trkpt lat="45.54552" lon="4.8648">
        <ele>158.85626</ele>
        <time>2021-07-19T11:56:03Z</time>
      </trkpt>
      <trkpt lat="45.54555" lon="4.8648">
        <ele>159.0465</ele>
        <time>2021-07-19T11:56:04Z</time>
      </trkpt>
      <trkpt lat="45.54557" lon="4.86479">
        <ele>159.23146</ele>
        <time>2021-07-19T11:56:05Z</time>
      </trkpt>
      <trkpt lat="45.5456" lon="4.86478">
        <ele>159.63838</ele>
        <time>2021-07-19T11:56:06Z</time>
      </trkpt>
      <trkpt lat="45.54563" lon="4.86477">
        <ele>159.82863</ele>
        <time>2021-07-19T11:56:07Z</time>
      </trkpt>
      <trkpt lat="45.54565" lon="4.86477">
        <ele>160.13513</ele>
        <time>2021-07-19T11:56:08Z</time>
      </trkpt>
      <trkpt lat="45.54567" lon="4.86476">
        <ele>160.3888</ele>
        <time>2021-07-19T11:56:09Z</time>
      </trkpt>
      <trkpt lat="45.54569" lon="4.86475">
        <ele>160.47864</ele>
        <time>2021-07-19T11:56:10Z</time>
      </trkpt>
      <trkpt lat="45.5457" lon="4.86475">
        <ele>160.91197</ele>
        <time>2021-07-19T11:56:11Z</time>
      </trkpt>
      <trkpt lat="45.54573" lon="4.86474">
        <ele>161.09694</ele>
        <time>2021-07-19T11:56:12Z</time>
      </trkpt>
      <trkpt lat="45.54575" lon="4.86474">
        <ele>161.39288</ele>
        <time>2021-07-19T11:56:13Z</time>
      </trkpt>
      <trkpt lat="45.54578" lon="4.86474">
        <ele>161.70468</ele>
        <time>2021-07-19T11:56:14Z</time>
      </trkpt>
      <trkpt lat="45.54581" lon="4.86474">
        <ele>161.9689</ele>
        <time>2021-07-19T11:56:15Z</time>
      </trkpt>
      <trkpt lat="45.54584" lon="4.86474">
        <ele>162.22786</ele>
        <time>2021-07-19T11:56:16Z</time>
      </trkpt>
      <trkpt lat="45.54586" lon="4.86474">
        <ele>162.55023</ele>
        <time>2021-07-19T11:56:17Z</time>
      </trkpt>
      <trkpt lat="45.5459" lon="4.86475">
        <ele>162.89902</ele>
        <time>2021-07-19T11:56:18Z</time>
      </trkpt>
      <trkpt lat="45.54593" lon="4.86475">
        <ele>163.15268</ele>
        <time>2021-07-19T11:56:19Z</time>
      </trkpt>
      <trkpt lat="45.54595" lon="4.86475">
        <ele>163.50146</ele>
        <time>2021-07-19T11:56:20Z</time>
      </trkpt>
      <trkpt lat="45.54597" lon="4.86475">
        <ele>163.61772</ele>
        <time>2021-07-19T11:56:21Z</time>
      </trkpt>
      <trkpt lat="45.54599" lon="4.86474">
        <ele>163.74983</ele>
        <time>2021-07-19T11:56:22Z</time>
      </trkpt>
      <trkpt lat="45.54601" lon="4.86475">
        <ele>164.10919</ele>
        <time>2021-07-19T11:56:23Z</time>
      </trkpt>
      <trkpt lat="45.54605" lon="4.86475">
        <ele>164.32585</ele>
        <time>2021-07-19T11:56:24Z</time>
      </trkpt>
      <trkpt lat="45.54608" lon="4.86475">
        <ele>164.63765</ele>
        <time>2021-07-19T11:56:25Z</time>
      </trkpt>
      <trkpt lat="45.54611" lon="4.86476">
        <ele>164.8596</ele>
        <time>2021-07-19T11:56:26Z</time>
      </trkpt>
      <trkpt lat="45.54614" lon="4.86476">
        <ele>165.15555</ele>
        <time>2021-07-19T11:56:27Z</time>
      </trkpt>
      <trkpt lat="45.54617" lon="4.86476">
        <ele>165.11327</ele>
        <time>2021-07-19T11:56:28Z</time>
      </trkpt>
      <trkpt lat="45.54619" lon="4.86476">
        <ele>165.47792</ele>
        <time>2021-07-19T11:56:29Z</time>
      </trkpt>
      <trkpt lat="45.5462" lon="4.86477">
        <ele>165.58888</ele>
        <time>2021-07-19T11:56:30Z</time>
      </trkpt>
      <trkpt lat="45.54622" lon="4.86478">
        <ele>165.95352</ele>
        <time>2021-07-19T11:56:31Z</time>
      </trkpt>
      <trkpt lat="45.54624" lon="4.86479">
        <ele>166.14378</ele>
        <time>2021-07-19T11:56:32Z</time>
      </trkpt>
      <trkpt lat="45.54626" lon="4.8648">
        <ele>166.2706</ele>
        <time>2021-07-19T11:56:33Z</time>
      </trkpt>
      <trkpt lat="45.54629" lon="4.86481">
        <ele>166.45558</ele>
        <time>2021-07-19T11:56:34Z</time>
      </trkpt>
      <trkpt lat="45.54631" lon="4.86482">
        <ele>166.63525</ele>
        <time>2021-07-19T11:56:35Z</time>
      </trkpt>
      <trkpt lat="45.54633" lon="4.86483">
        <ele>166.96817</ele>
        <time>2021-07-19T11:56:36Z</time>
      </trkpt>
      <trkpt lat="45.54636" lon="4.86484">
        <ele>167.3698</ele>
        <time>2021-07-19T11:56:37Z</time>
      </trkpt>
      <trkpt lat="45.54638" lon="4.86484">
        <ele>167.64989</ele>
        <time>2021-07-19T11:56:38Z</time>
      </trkpt>
      <trkpt lat="45.54641" lon="4.86485">
        <ele>167.6129</ele>
        <time>2021-07-19T11:56:39Z</time>
      </trkpt>
      <trkpt lat="45.54643" lon="4.86487">
        <ele>167.76088</ele>
        <time>2021-07-19T11:56:40Z</time>
      </trkpt>
      <trkpt lat="45.54645" lon="4.86487">
        <ele>167.98283</ele>
        <time>2021-07-19T11:56:41Z</time>
      </trkpt>
      <trkpt lat="45.54647" lon="4.86488">
        <ele>168.03038</ele>
        <time>2021-07-19T11:56:42Z</time>
      </trkpt>
      <trkpt lat="45.54649" lon="4.86489">
        <ele>168.38974</ele>
        <time>2021-07-19T11:56:43Z</time>
      </trkpt>
      <trkpt lat="45.54652" lon="4.8649">
        <ele>168.70154</ele>
        <time>2021-07-19T11:56:44Z</time>
      </trkpt>
      <trkpt lat="45.54654" lon="4.86491">
        <ele>168.92879</ele>
        <time>2021-07-19T11:56:45Z</time>
      </trkpt>
      <trkpt lat="45.54657" lon="4.86492">
        <ele>169.10318</ele>
        <time>2021-07-19T11:56:46Z</time>
      </trkpt>
      <trkpt lat="45.54659" lon="4.86492">
        <ele>169.38327</ele>
        <time>2021-07-19T11:56:47Z</time>
      </trkpt>
      <trkpt lat="45.54661" lon="4.86493">
        <ele>169.65277</ele>
        <time>2021-07-19T11:56:48Z</time>
      </trkpt>
      <trkpt lat="45.54663" lon="4.86493">
        <ele>170.00684</ele>
        <time>2021-07-19T11:56:49Z</time>
      </trkpt>
      <trkpt lat="45.54666" lon="4.86493">
        <ele>170.1971</ele>
        <time>2021-07-19T11:56:50Z</time>
      </trkpt>
      <trkpt lat="45.54668" lon="4.86493">
        <ele>170.34506</ele>
        <time>2021-07-19T11:56:51Z</time>
      </trkpt>
      <trkpt lat="45.5467" lon="4.86493">
        <ele>170.58817</ele>
        <time>2021-07-19T11:56:52Z</time>
      </trkpt>
      <trkpt lat="45.54672" lon="4.86493">
        <ele>170.90524</ele>
        <time>2021-07-19T11:56:53Z</time>
      </trkpt>
      <trkpt lat="45.54675" lon="4.86493">
        <ele>171.22232</ele>
        <time>2021-07-19T11:56:54Z</time>
      </trkpt>
      <trkpt lat="45.54677" lon="4.86494">
        <ele>171.43898</ele>
        <time>2021-07-19T11:56:55Z</time>
      </trkpt>
      <trkpt lat="45.54679" lon="4.86494">
        <ele>171.80362</ele>
        <time>2021-07-19T11:56:56Z</time>
      </trkpt>
      <trkpt lat="45.54681" lon="4.86494">
        <ele>171.9146</ele>
        <time>2021-07-19T11:56:57Z</time>
      </trkpt>
      <trkpt lat="45.54684" lon="4.86495">
        <ele>172.11014</ele>
        <time>2021-07-19T11:56:58Z</time>
      </trkpt>
      <trkpt lat="45.54687" lon="4.86496">
        <ele>172.46948</ele>
        <time>2021-07-19T11:56:59Z</time>
      </trkpt>
      <trkpt lat="45.54689" lon="4.86498">
        <ele>172.48535</ele>
        <time>2021-07-19T11:57:00Z</time>
      </trkpt>
      <trkpt lat="45.54692" lon="4.86499">
        <ele>172.81827</ele>
        <time>2021-07-19T11:57:01Z</time>
      </trkpt>
      <trkpt lat="45.54695" lon="4.865">
        <ele>173.07193</ele>
        <time>2021-07-19T11:57:02Z</time>
      </trkpt>
      <trkpt lat="45.54697" lon="4.86501">
        <ele>173.426</ele>
        <time>2021-07-19T11:57:03Z</time>
      </trkpt>
      <trkpt lat="45.547" lon="4.86502">
        <ele>173.57399</ele>
        <time>2021-07-19T11:57:04Z</time>
      </trkpt>
      <trkpt lat="45.54703" lon="4.86503">
        <ele>173.89107</ele>
        <time>2021-07-19T11:57:05Z</time>
      </trkpt>
      <trkpt lat="45.54706" lon="4.86504">
        <ele>174.20815</ele>
        <time>2021-07-19T11:57:06Z</time>
      </trkpt>
      <trkpt lat="45.54709" lon="4.86505">
        <ele>174.33496</ele>
        <time>2021-07-19T11:57:07Z</time>
      </trkpt>
      <trkpt lat="45.54711" lon="4.86506">
        <ele>174.49352</ele>
        <time>2021-07-19T11:57:08Z</time>
      </trkpt>
      <trkpt lat="45.54713" lon="4.86507">
        <ele>174.86871</ele>
        <time>2021-07-19T11:57:09Z</time>
      </trkpt>
      <trkpt lat="45.54716" lon="4.86508">
        <ele>174.91628</ele>
        <time>2021-07-19T11:57:10Z</time>
      </trkpt>
      <trkpt lat="45.54718" lon="4.86508">
        <ele>175.4236</ele>
        <time>2021-07-19T11:57:11Z</time>
      </trkpt>
      <trkpt lat="45.54721" lon="4.86509">
        <ele>175.71953</ele>
        <time>2021-07-19T11:57:12Z</time>
      </trkpt>
      <trkpt lat="45.54724" lon="4.8651">
        <ele>175.65083</ele>
        <time>2021-07-19T11:57:13Z</time>
      </trkpt>
      <trkpt lat="45.54728" lon="4.86511">
        <ele>176.30086</ele>
        <time>2021-07-19T11:57:14Z</time>
      </trkpt>
      <trkpt lat="45.54731" lon="4.86512">
        <ele>176.11061</ele>
        <time>2021-07-19T11:57:15Z</time>
      </trkpt>
      <trkpt lat="45.54733" lon="4.86513">
        <ele>176.3854</ele>
        <time>2021-07-19T11:57:16Z</time>
      </trkpt>
      <trkpt lat="45.54735" lon="4.86514">
        <ele>176.71834</ele>
        <time>2021-07-19T11:57:17Z</time>
      </trkpt>
      <trkpt lat="45.54738" lon="4.86515">
        <ele>176.65492</ele>
        <time>2021-07-19T11:57:18Z</time>
      </trkpt>
      <trkpt lat="45.54741" lon="4.86516">
        <ele>177.04599</ele>
        <time>2021-07-19T11:57:19Z</time>
      </trkpt>
      <trkpt lat="45.54743" lon="4.86517">
        <ele>177.23094</ele>
        <time>2021-07-19T11:57:20Z</time>
      </trkpt>
      <trkpt lat="45.54746" lon="4.86519">
        <ele>177.4476</ele>
        <time>2021-07-19T11:57:21Z</time>
      </trkpt>
      <trkpt lat="45.5475" lon="4.8652">
        <ele>177.63786</ele>
        <time>2021-07-19T11:57:22Z</time>
      </trkpt>
      <trkpt lat="45.54754" lon="4.86521">
        <ele>178.02893</ele>
        <time>2021-07-19T11:57:23Z</time>
      </trkpt>
      <trkpt lat="45.54757" lon="4.86524">
        <ele>178.15047</ele>
        <time>2021-07-19T11:57:24Z</time>
      </trkpt>
      <trkpt lat="45.5476" lon="4.86525">
        <ele>178.29845</ele>
        <time>2021-07-19T11:57:25Z</time>
      </trkpt>
      <trkpt lat="45.54763" lon="4.86526">
        <ele>178.54683</ele>
        <time>2021-07-19T11:57:26Z</time>
      </trkpt>
      <trkpt lat="45.54767" lon="4.86527">
        <ele>178.67365</ele>
        <time>2021-07-19T11:57:27Z</time>
      </trkpt>
      <trkpt lat="45.54769" lon="4.86528">
        <ele>178.98544</ele>
        <time>2021-07-19T11:57:28Z</time>
      </trkpt>
      <trkpt lat="45.54771" lon="4.8653">
        <ele>179.09114</ele>
        <time>2021-07-19T11:57:29Z</time>
      </trkpt>
      <trkpt lat="45.54773" lon="4.86531">
        <ele>179.48749</ele>
        <time>2021-07-19T11:57:30Z</time>
      </trkpt>
      <trkpt lat="45.54776" lon="4.86532">
        <ele>179.63547</ele>
        <time>2021-07-19T11:57:31Z</time>
      </trkpt>
      <trkpt lat="45.54778" lon="4.86534">
        <ele>179.91025</ele>
        <time>2021-07-19T11:57:32Z</time>
      </trkpt>
      <trkpt lat="45.54779" lon="4.86536">
        <ele>180.17978</ele>
        <time>2021-07-19T11:57:33Z</time>
      </trkpt>
      <trkpt lat="45.54781" lon="4.86537">
        <ele>180.30661</ele>
        <time>2021-07-19T11:57:34Z</time>
      </trkpt>
      <trkpt lat="45.54783" lon="4.86539">
        <ele>180.67125</ele>
        <time>2021-07-19T11:57:35Z</time>
      </trkpt>
      <trkpt lat="45.54785" lon="4.8654">
        <ele>180.7875</ele>
        <time>2021-07-19T11:57:36Z</time>
      </trkpt>
      <trkpt lat="45.54787" lon="4.86541">
        <ele>181.07817</ele>
        <time>2021-07-19T11:57:37Z</time>
      </trkpt>
      <trkpt lat="45.5479" lon="4.86541">
        <ele>181.46393</ele>
        <time>2021-07-19T11:57:38Z</time>
      </trkpt>
      <trkpt lat="45.54792" lon="4.86542">
        <ele>181.7176</ele>
        <time>2021-07-19T11:57:39Z</time>
      </trkpt>
      <trkpt lat="45.54796" lon="4.86543">
        <ele>181.70175</ele>
        <time>2021-07-19T11:57:40Z</time>
      </trkpt>
      <trkpt lat="45.54798" lon="4.86544">
        <ele>182.03468</ele>
        <time>2021-07-19T11:57:41Z</time>
      </trkpt>
      <trkpt lat="45.548" lon="4.86545">
        <ele>182.19322</ele>
        <time>2021-07-19T11:57:42Z</time>
      </trkpt>
      <trkpt lat="45.54803" lon="4.86546">
        <ele>182.55788</ele>
        <time>2021-07-19T11:57:43Z</time>
      </trkpt>
      <trkpt lat="45.54805" lon="4.86548">
        <ele>182.67941</ele>
        <time>2021-07-19T11:57:44Z</time>
      </trkpt>
      <trkpt lat="45.54807" lon="4.86549">
        <ele>183.04933</ele>
        <time>2021-07-19T11:57:45Z</time>
      </trkpt>
      <trkpt lat="45.5481" lon="4.86551">
        <ele>183.2343</ele>
        <time>2021-07-19T11:57:46Z</time>
      </trkpt>
      <trkpt lat="45.54813" lon="4.86552">
        <ele>183.6095</ele>
        <time>2021-07-19T11:57:47Z</time>
      </trkpt>
      <trkpt lat="45.54816" lon="4.86553">
        <ele>184.0587</ele>
        <time>2021-07-19T11:57:48Z</time>
      </trkpt>
      <trkpt lat="45.54819" lon="4.86555">
        <ele>184.17496</ele>
        <time>2021-07-19T11:57:49Z</time>
      </trkpt>
      <trkpt lat="45.54823" lon="4.86557">
        <ele>184.29651</ele>
        <time>2021-07-19T11:57:50Z</time>
      </trkpt>
      <trkpt lat="45.54826" lon="4.86559">
        <ele>184.51846</ele>
        <time>2021-07-19T11:57:51Z</time>
      </trkpt>
      <trkpt lat="45.54829" lon="4.8656">
        <ele>184.95709</ele>
        <time>2021-07-19T11:57:52Z</time>
      </trkpt>
      <trkpt lat="45.54832" lon="4.86561">
        <ele>185.45386</ele>
        <time>2021-07-19T11:57:53Z</time>
      </trkpt>
      <trkpt lat="45.54834" lon="4.86562">
        <ele>185.48557</ele>
        <time>2021-07-19T11:57:54Z</time>
      </trkpt>
      <trkpt lat="45.54837" lon="4.86563">
        <ele>185.83963</ele>
        <time>2021-07-19T11:57:55Z</time>
      </trkpt>
      <trkpt lat="45.5484" lon="4.86563">
        <ele>186.00873</ele>
        <time>2021-07-19T11:57:56Z</time>
      </trkpt>
      <trkpt lat="45.54843" lon="4.86565">
        <ele>186.24654</ele>
        <time>2021-07-19T11:57:57Z</time>
      </trkpt>
      <trkpt lat="45.54846" lon="4.86566">
        <ele>186.41565</ele>
        <time>2021-07-19T11:57:58Z</time>
      </trkpt>
      <trkpt lat="45.54849" lon="4.86567">
        <ele>186.66931</ele>
        <time>2021-07-19T11:57:59Z</time>
      </trkpt>
      <trkpt lat="45.54852" lon="4.86569">
        <ele>186.80142</ele>
        <time>2021-07-19T11:58:00Z</time>
      </trkpt>
      <trkpt lat="45.54855" lon="4.8657">
        <ele>187.04453</ele>
        <time>2021-07-19T11:58:01Z</time>
      </trkpt>
      <trkpt lat="45.54859" lon="4.86571">
        <ele>187.18721</ele>
        <time>2021-07-19T11:58:02Z</time>
      </trkpt>
      <trkpt lat="45.54862" lon="4.86572">
        <ele>187.55185</ele>
        <time>2021-07-19T11:58:03Z</time>
      </trkpt>
      <trkpt lat="45.54865" lon="4.86574">
        <ele>187.72624</ele>
        <time>2021-07-19T11:58:04Z</time>
      </trkpt>
      <trkpt lat="45.54868" lon="4.86575">
        <ele>187.8055</ele>
        <time>2021-07-19T11:58:05Z</time>
      </trkpt>
      <trkpt lat="45.54871" lon="4.86575">
        <ele>188.02219</ele>
        <time>2021-07-19T11:58:06Z</time>
      </trkpt>
      <trkpt lat="45.54873" lon="4.86576">
        <ele>188.43437</ele>
        <time>2021-07-19T11:58:07Z</time>
      </trkpt>
      <trkpt lat="45.54876" lon="4.86577">
        <ele>188.64577</ele>
        <time>2021-07-19T11:58:08Z</time>
      </trkpt>
      <trkpt lat="45.54879" lon="4.86577">
        <ele>189.05269</ele>
        <time>2021-07-19T11:58:09Z</time>
      </trkpt>
      <trkpt lat="45.54882" lon="4.86577">
        <ele>189.27992</ele>
        <time>2021-07-19T11:58:10Z</time>
      </trkpt>
      <trkpt lat="45.54884" lon="4.86578">
        <ele>189.40147</ele>
        <time>2021-07-19T11:58:11Z</time>
      </trkpt>
      <trkpt lat="45.54888" lon="4.86578">
        <ele>189.44904</ele>
        <time>2021-07-19T11:58:12Z</time>
      </trkpt>
      <trkpt lat="45.54891" lon="4.86577">
        <ele>189.87709</ele>
        <time>2021-07-19T11:58:13Z</time>
      </trkpt>
      <trkpt lat="45.54895" lon="4.86577">
        <ele>189.97221</ele>
        <time>2021-07-19T11:58:14Z</time>
      </trkpt>
      <trkpt lat="45.54899" lon="4.86577">
        <ele>190.04091</ele>
        <time>2021-07-19T11:58:15Z</time>
      </trkpt>
      <trkpt lat="45.54902" lon="4.86577">
        <ele>190.22588</ele>
        <time>2021-07-19T11:58:16Z</time>
      </trkpt>
      <trkpt lat="45.54905" lon="4.86577">
        <ele>190.4584</ele>
        <time>2021-07-19T11:58:17Z</time>
      </trkpt>
      <trkpt lat="45.54908" lon="4.86577">
        <ele>190.78604</ele>
        <time>2021-07-19T11:58:18Z</time>
      </trkpt>
      <trkpt lat="45.54911" lon="4.86576">
        <ele>190.78604</ele>
        <time>2021-07-19T11:58:19Z</time>
      </trkpt>
      <trkpt lat="45.54915" lon="4.86575">
        <ele>191.12427</ele>
        <time>2021-07-19T11:58:20Z</time>
      </trkpt>
      <trkpt lat="45.54917" lon="4.86574">
        <ele>191.30923</ele>
        <time>2021-07-19T11:58:21Z</time>
      </trkpt>
      <trkpt lat="45.5492" lon="4.86573">
        <ele>191.36737</ele>
        <time>2021-07-19T11:58:22Z</time>
      </trkpt>
      <trkpt lat="45.54922" lon="4.86572">
        <ele>191.72144</ele>
        <time>2021-07-19T11:58:23Z</time>
      </trkpt>
      <trkpt lat="45.54924" lon="4.86571">
        <ele>191.87996</ele>
        <time>2021-07-19T11:58:24Z</time>
      </trkpt>
      <trkpt lat="45.54926" lon="4.86571">
        <ele>191.85884</ele>
        <time>2021-07-19T11:58:25Z</time>
      </trkpt>
      <trkpt lat="45.54928" lon="4.86571">
        <ele>192.27103</ele>
        <time>2021-07-19T11:58:26Z</time>
      </trkpt>
      <trkpt lat="45.5493" lon="4.86572">
        <ele>192.34502</ele>
        <time>2021-07-19T11:58:27Z</time>
      </trkpt>
      <trkpt lat="45.54932" lon="4.86571">
        <ele>192.52998</ele>
        <time>2021-07-19T11:58:28Z</time>
      </trkpt>
      <trkpt lat="45.54934" lon="4.86571">
        <ele>192.92633</ele>
        <time>2021-07-19T11:58:29Z</time>
      </trkpt>
      <trkpt lat="45.54937" lon="4.86571">
        <ele>193.0056</ele>
        <time>2021-07-19T11:58:30Z</time>
      </trkpt>
      <trkpt lat="45.5494" lon="4.86571">
        <ele>193.3174</ele>
        <time>2021-07-19T11:58:31Z</time>
      </trkpt>
      <trkpt lat="45.54943" lon="4.86572">
        <ele>193.53934</ele>
        <time>2021-07-19T11:58:32Z</time>
      </trkpt>
      <trkpt lat="45.54945" lon="4.86572">
        <ele>193.84058</ele>
        <time>2021-07-19T11:58:33Z</time>
      </trkpt>
      <trkpt lat="45.54948" lon="4.86571">
        <ele>194.04138</ele>
        <time>2021-07-19T11:58:34Z</time>
      </trkpt>
      <trkpt lat="45.54951" lon="4.86569">
        <ele>194.19992</ele>
        <time>2021-07-19T11:58:35Z</time>
      </trkpt>
      <trkpt lat="45.54953" lon="4.86568">
        <ele>194.65968</ele>
        <time>2021-07-19T11:58:36Z</time>
      </trkpt>
      <trkpt lat="45.54956" lon="4.86568">
        <ele>194.79181</ele>
        <time>2021-07-19T11:58:37Z</time>
      </trkpt>
      <trkpt lat="45.54958" lon="4.86567">
        <ele>195.02432</ele>
        <time>2021-07-19T11:58:38Z</time>
      </trkpt>
      <trkpt lat="45.54961" lon="4.86566">
        <ele>195.19872</ele>
        <time>2021-07-19T11:58:39Z</time>
      </trkpt>
      <trkpt lat="45.54964" lon="4.86565">
        <ele>195.73776</ele>
        <time>2021-07-19T11:58:40Z</time>
      </trkpt>
      <trkpt lat="45.54966" lon="4.86565">
        <ele>195.86458</ele>
        <time>2021-07-19T11:58:41Z</time>
      </trkpt>
      <trkpt lat="45.54969" lon="4.86564">
        <ele>196.0971</ele>
        <time>2021-07-19T11:58:42Z</time>
      </trkpt>
      <trkpt lat="45.54972" lon="4.86563">
        <ele>196.19753</ele>
        <time>2021-07-19T11:58:43Z</time>
      </trkpt>
      <trkpt lat="45.54974" lon="4.86562">
        <ele>196.32962</ele>
        <time>2021-07-19T11:58:44Z</time>
      </trkpt>
      <trkpt lat="45.54977" lon="4.86561">
        <ele>196.77882</ele>
        <time>2021-07-19T11:58:45Z</time>
      </trkpt>
      <trkpt lat="45.54981" lon="4.8656">
        <ele>197.01663</ele>
        <time>2021-07-19T11:58:46Z</time>
      </trkpt>
      <trkpt lat="45.54984" lon="4.8656">
        <ele>197.55038</ele>
        <time>2021-07-19T11:58:47Z</time>
      </trkpt>
      <trkpt lat="45.54987" lon="4.86559">
        <ele>197.66136</ele>
        <time>2021-07-19T11:58:48Z</time>
      </trkpt>
      <trkpt lat="45.5499" lon="4.8656">
        <ele>197.78291</ele>
        <time>2021-07-19T11:58:49Z</time>
      </trkpt>
      <trkpt lat="45.54993" lon="4.86561">
        <ele>198.09999</ele>
        <time>2021-07-19T11:58:50Z</time>
      </trkpt>
      <trkpt lat="45.54996" lon="4.86561">
        <ele>198.22682</ele>
        <time>2021-07-19T11:58:51Z</time>
      </trkpt>
      <trkpt lat="45.54998" lon="4.86561">
        <ele>198.39592</ele>
        <time>2021-07-19T11:58:52Z</time>
      </trkpt>
      <trkpt lat="45.55001" lon="4.86562">
        <ele>198.75</ele>
        <time>2021-07-19T11:58:53Z</time>
      </trkpt>
      <trkpt lat="45.55004" lon="4.86562">
        <ele>199.1305</ele>
        <time>2021-07-19T11:58:54Z</time>
      </trkpt>
      <trkpt lat="45.55007" lon="4.86564">
        <ele>199.51628</ele>
        <time>2021-07-19T11:58:55Z</time>
      </trkpt>
      <trkpt lat="45.5501" lon="4.86564">
        <ele>200.35654</ele>
        <time>2021-07-19T11:58:56Z</time>
      </trkpt>
      <trkpt lat="45.55013" lon="4.86565">
        <ele>199.85448</ele>
        <time>2021-07-19T11:58:57Z</time>
      </trkpt>
      <trkpt lat="45.55015" lon="4.86566">
        <ele>200.28255</ele>
        <time>2021-07-19T11:58:58Z</time>
      </trkpt>
      <trkpt lat="45.55016" lon="4.86568">
        <ele>200.64719</ele>
        <time>2021-07-19T11:58:59Z</time>
      </trkpt>
      <trkpt lat="45.55018" lon="4.86569">
        <ele>200.65247</ele>
        <time>2021-07-19T11:59:00Z</time>
      </trkpt>
      <trkpt lat="45.55021" lon="4.86571">
        <ele>201.09639</ele>
        <time>2021-07-19T11:59:01Z</time>
      </trkpt>
      <trkpt lat="45.55024" lon="4.86573">
        <ele>201.38176</ele>
        <time>2021-07-19T11:59:02Z</time>
      </trkpt>
      <trkpt lat="45.55026" lon="4.86574">
        <ele>201.64598</ele>
        <time>2021-07-19T11:59:03Z</time>
      </trkpt>
      <trkpt lat="45.55029" lon="4.86574">
        <ele>201.79396</ele>
        <time>2021-07-19T11:59:04Z</time>
      </trkpt>
      <trkpt lat="45.55031" lon="4.86575">
        <ele>202.06346</ele>
        <time>2021-07-19T11:59:05Z</time>
      </trkpt>
      <trkpt lat="45.55033" lon="4.86576">
        <ele>202.36998</ele>
        <time>2021-07-19T11:59:06Z</time>
      </trkpt>
      <trkpt lat="45.55036" lon="4.86577">
        <ele>202.7029</ele>
        <time>2021-07-19T11:59:07Z</time>
      </trkpt>
      <trkpt lat="45.55039" lon="4.86578">
        <ele>203.0464</ele>
        <time>2021-07-19T11:59:08Z</time>
      </trkpt>
      <trkpt lat="45.55042" lon="4.86581">
        <ele>203.12039</ele>
        <time>2021-07-19T11:59:09Z</time>
      </trkpt>
      <trkpt lat="45.55045" lon="4.86583">
        <ele>203.79683</ele>
        <time>2021-07-19T11:59:10Z</time>
      </trkpt>
      <trkpt lat="45.55047" lon="4.86585">
        <ele>203.63301</ele>
        <time>2021-07-19T11:59:11Z</time>
      </trkpt>
      <trkpt lat="45.55049" lon="4.86586">
        <ele>203.9818</ele>
        <time>2021-07-19T11:59:12Z</time>
      </trkpt>
      <trkpt lat="45.55051" lon="4.86588">
        <ele>204.43628</ele>
        <time>2021-07-19T11:59:13Z</time>
      </trkpt>
      <trkpt lat="45.55054" lon="4.86589">
        <ele>204.63708</ele>
        <time>2021-07-19T11:59:14Z</time>
      </trkpt>
      <trkpt lat="45.55056" lon="4.8659">
        <ele>204.75336</ele>
        <time>2021-07-19T11:59:15Z</time>
      </trkpt>
      <trkpt lat="45.55059" lon="4.86591">
        <ele>204.8379</ele>
        <time>2021-07-19T11:59:16Z</time>
      </trkpt>
      <trkpt lat="45.55063" lon="4.86593">
        <ele>205.20782</ele>
        <time>2021-07-19T11:59:17Z</time>
      </trkpt>
      <trkpt lat="45.55066" lon="4.86594">
        <ele>205.54076</ele>
        <time>2021-07-19T11:59:18Z</time>
      </trkpt>
      <trkpt lat="45.55068" lon="4.86595">
        <ele>205.71516</ele>
        <time>2021-07-19T11:59:19Z</time>
      </trkpt>
      <trkpt lat="45.55071" lon="4.86596">
        <ele>205.82085</ele>
        <time>2021-07-19T11:59:20Z</time>
      </trkpt>
      <trkpt lat="45.55073" lon="4.86599">
        <ele>206.2172</ele>
        <time>2021-07-19T11:59:21Z</time>
      </trkpt>
      <trkpt lat="45.55075" lon="4.86601">
        <ele>206.58713</ele>
        <time>2021-07-19T11:59:22Z</time>
      </trkpt>
      <trkpt lat="45.55077" lon="4.86603">
        <ele>206.6981</ele>
        <time>2021-07-19T11:59:23Z</time>
      </trkpt>
      <trkpt lat="45.55081" lon="4.86607">
        <ele>206.86722</ele>
        <time>2021-07-19T11:59:24Z</time>
      </trkpt>
      <trkpt lat="45.55084" lon="4.86612">
        <ele>207.12088</ele>
        <time>2021-07-19T11:59:25Z</time>
      </trkpt>
      <trkpt lat="45.55088" lon="4.86617">
        <ele>207.16843</ele>
        <time>2021-07-19T11:59:26Z</time>
      </trkpt>
      <trkpt lat="45.55091" lon="4.86619">
        <ele>207.39038</ele>
        <time>2021-07-19T11:59:27Z</time>
      </trkpt>
      <trkpt lat="45.55095" lon="4.86624">
        <ele>207.40096</ele>
        <time>2021-07-19T11:59:28Z</time>
      </trkpt>
      <trkpt lat="45.55098" lon="4.86628">
        <ele>207.75504</ele>
        <time>2021-07-19T11:59:29Z</time>
      </trkpt>
      <trkpt lat="45.551" lon="4.86631">
        <ele>208.27292</ele>
        <time>2021-07-19T11:59:30Z</time>
      </trkpt>
      <trkpt lat="45.55103" lon="4.86634">
        <ele>208.0774</ele>
        <time>2021-07-19T11:59:31Z</time>
      </trkpt>
      <trkpt lat="45.55106" lon="4.86636">
        <ele>208.50545</ele>
        <time>2021-07-19T11:59:32Z</time>
      </trkpt>
      <trkpt lat="45.55109" lon="4.86638">
        <ele>208.46844</ele>
        <time>2021-07-19T11:59:33Z</time>
      </trkpt>
      <trkpt lat="45.55113" lon="4.86639">
        <ele>208.70099</ele>
        <time>2021-07-19T11:59:34Z</time>
      </trkpt>
      <trkpt lat="45.55116" lon="4.86641">
        <ele>208.81725</ele>
        <time>2021-07-19T11:59:35Z</time>
      </trkpt>
      <trkpt lat="45.55119" lon="4.86643">
        <ele>209.00748</ele>
        <time>2021-07-19T11:59:36Z</time>
      </trkpt>
      <trkpt lat="45.55121" lon="4.86643">
        <ele>209.06561</ele>
        <time>2021-07-19T11:59:37Z</time>
      </trkpt>
      <trkpt lat="45.55125" lon="4.86645">
        <ele>209.18187</ele>
        <time>2021-07-19T11:59:38Z</time>
      </trkpt>
      <trkpt lat="45.55128" lon="4.86646">
        <ele>209.36154</ele>
        <time>2021-07-19T11:59:39Z</time>
      </trkpt>
      <trkpt lat="45.5513" lon="4.86647">
        <ele>209.77376</ele>
        <time>2021-07-19T11:59:40Z</time>
      </trkpt>
      <trkpt lat="45.55133" lon="4.86647">
        <ele>209.85303</ele>
        <time>2021-07-19T11:59:41Z</time>
      </trkpt>
      <trkpt lat="45.55137" lon="4.86648">
        <ele>209.93759</ele>
        <time>2021-07-19T11:59:42Z</time>
      </trkpt>
      <trkpt lat="45.5514" lon="4.86649">
        <ele>210.26523</ele>
        <time>2021-07-19T11:59:43Z</time>
      </trkpt>
      <trkpt lat="45.55144" lon="4.86649">
        <ele>210.32336</ele>
        <time>2021-07-19T11:59:44Z</time>
      </trkpt>
      <trkpt lat="45.55147" lon="4.86649">
        <ele>210.4819</ele>
        <time>2021-07-19T11:59:45Z</time>
      </trkpt>
      <trkpt lat="45.55151" lon="4.86649">
        <ele>210.63515</ele>
        <time>2021-07-19T11:59:46Z</time>
      </trkpt>
      <trkpt lat="45.55154" lon="4.86649">
        <ele>210.69856</ele>
        <time>2021-07-19T11:59:47Z</time>
      </trkpt>
      <trkpt lat="45.55158" lon="4.86649">
        <ele>210.80954</ele>
        <time>2021-07-19T11:59:48Z</time>
      </trkpt>
      <trkpt lat="45.55161" lon="4.86647">
        <ele>210.85184</ele>
        <time>2021-07-19T11:59:49Z</time>
      </trkpt>
      <trkpt lat="45.55164" lon="4.86646">
        <ele>211.08963</ele>
        <time>2021-07-19T11:59:50Z</time>
      </trkpt>
      <trkpt lat="45.55168" lon="4.86645">
        <ele>211.22702</ele>
        <time>2021-07-19T11:59:51Z</time>
      </trkpt>
      <trkpt lat="45.5517" lon="4.86643">
        <ele>211.24289</ele>
        <time>2021-07-19T11:59:52Z</time>
      </trkpt>
      <trkpt lat="45.55173" lon="4.86641">
        <ele>211.6498</ele>
        <time>2021-07-19T11:59:53Z</time>
      </trkpt>
      <trkpt lat="45.55176" lon="4.86638">
        <ele>211.79248</ele>
        <time>2021-07-19T11:59:54Z</time>
      </trkpt>
      <trkpt lat="45.55179" lon="4.86635">
        <ele>211.52298</ele>
        <time>2021-07-19T11:59:55Z</time>
      </trkpt>
      <trkpt lat="45.55181" lon="4.86632">
        <ele>211.65508</ele>
        <time>2021-07-19T11:59:56Z</time>
      </trkpt>
      <trkpt lat="45.55184" lon="4.86629">
        <ele>211.81891</ele>
        <time>2021-07-19T11:59:57Z</time>
      </trkpt>
      <trkpt lat="45.55186" lon="4.86625">
        <ele>211.84534</ele>
        <time>2021-07-19T11:59:58Z</time>
      </trkpt>
      <trkpt lat="45.55188" lon="4.86622">
        <ele>212.08315</ele>
        <time>2021-07-19T11:59:59Z</time>
      </trkpt>
      <trkpt lat="45.5519" lon="4.86618">
        <ele>212.2047</ele>
        <time>2021-07-19T12:00:00Z</time>
      </trkpt>
      <trkpt lat="45.55192" lon="4.86614">
        <ele>212.18355</ele>
        <time>2021-07-19T12:00:01Z</time>
      </trkpt>
      <trkpt lat="45.55194" lon="4.8661">
        <ele>212.35794</ele>
        <time>2021-07-19T12:00:02Z</time>
      </trkpt>
      <trkpt lat="45.55196" lon="4.86606">
        <ele>212.57991</ele>
        <time>2021-07-19T12:00:03Z</time>
      </trkpt>
      <trkpt lat="45.55198" lon="4.86602">
        <ele>212.67502</ele>
        <time>2021-07-19T12:00:04Z</time>
      </trkpt>
      <trkpt lat="45.552" lon="4.86598">
        <ele>212.712</ele>
        <time>2021-07-19T12:00:05Z</time>
      </trkpt>
      <trkpt lat="45.55202" lon="4.86594">
        <ele>212.94453</ele>
        <time>2021-07-19T12:00:06Z</time>
      </trkpt>
      <trkpt lat="45.55204" lon="4.86591">
        <ele>213.11365</ele>
        <time>2021-07-19T12:00:07Z</time>
      </trkpt>
      <trkpt lat="45.55206" lon="4.86586">
        <ele>213.1982</ele>
        <time>2021-07-19T12:00:08Z</time>
      </trkpt>
      <trkpt lat="45.55209" lon="4.86581">
        <ele>213.24048</ele>
        <time>2021-07-19T12:00:09Z</time>
      </trkpt>
      <trkpt lat="45.55211" lon="4.86577">
        <ele>213.51</ele>
        <time>2021-07-19T12:00:10Z</time>
      </trkpt>
      <trkpt lat="45.55212" lon="4.86573">
        <ele>213.66324</ele>
        <time>2021-07-19T12:00:11Z</time>
      </trkpt>
      <trkpt lat="45.55214" lon="4.86569">
        <ele>213.67383</ele>
        <time>2021-07-19T12:00:12Z</time>
      </trkpt>
      <trkpt lat="45.55215" lon="4.86564">
        <ele>213.7848</ele>
        <time>2021-07-19T12:00:13Z</time>
      </trkpt>
      <trkpt lat="45.55217" lon="4.86559">
        <ele>213.91692</ele>
        <time>2021-07-19T12:00:14Z</time>
      </trkpt>
      <trkpt lat="45.55219" lon="4.86555">
        <ele>214.2974</ele>
        <time>2021-07-19T12:00:15Z</time>
      </trkpt>
      <trkpt lat="45.5522" lon="4.86551">
        <ele>214.24985</ele>
        <time>2021-07-19T12:00:16Z</time>
      </trkpt>
      <trkpt lat="45.55222" lon="4.86546">
        <ele>214.48238</ele>
        <time>2021-07-19T12:00:17Z</time>
      </trkpt>
      <trkpt lat="45.55224" lon="4.86541">
        <ele>214.4348</ele>
        <time>2021-07-19T12:00:18Z</time>
      </trkpt>
      <trkpt lat="45.55225" lon="4.86538">
        <ele>214.55107</ele>
        <time>2021-07-19T12:00:19Z</time>
      </trkpt>
      <trkpt lat="45.55227" lon="4.86533">
        <ele>214.58807</ele>
        <time>2021-07-19T12:00:20Z</time>
      </trkpt>
      <trkpt lat="45.55228" lon="4.86529">
        <ele>214.75188</ele>
        <time>2021-07-19T12:00:21Z</time>
      </trkpt>
      <trkpt lat="45.55229" lon="4.86525">
        <ele>214.92627</ele>
        <time>2021-07-19T12:00:22Z</time>
      </trkpt>
      <trkpt lat="45.55231" lon="4.8652">
        <ele>215.11653</ele>
        <time>2021-07-19T12:00:23Z</time>
      </trkpt>
      <trkpt lat="45.55232" lon="4.86516">
        <ele>215.05312</ele>
        <time>2021-07-19T12:00:24Z</time>
      </trkpt>
      <trkpt lat="45.55234" lon="4.86513">
        <ele>215.13239</ele>
        <time>2021-07-19T12:00:25Z</time>
      </trkpt>
      <trkpt lat="45.55236" lon="4.86509">
        <ele>215.40718</ele>
        <time>2021-07-19T12:00:26Z</time>
      </trkpt>
      <trkpt lat="45.55238" lon="4.86505">
        <ele>215.56572</ele>
        <time>2021-07-19T12:00:27Z</time>
      </trkpt>
      <trkpt lat="45.55239" lon="4.86503">
        <ele>215.7771</ele>
        <time>2021-07-19T12:00:28Z</time>
      </trkpt>
      <trkpt lat="45.5524" lon="4.865">
        <ele>215.9145</ele>
        <time>2021-07-19T12:00:29Z</time>
      </trkpt>
      <trkpt lat="45.55241" lon="4.86497">
        <ele>215.97792</ele>
        <time>2021-07-19T12:00:30Z</time>
      </trkpt>
      <trkpt lat="45.55243" lon="4.86495">
        <ele>216.1893</ele>
        <time>2021-07-19T12:00:31Z</time>
      </trkpt>
      <trkpt lat="45.55244" lon="4.86491">
        <ele>216.28444</ele>
        <time>2021-07-19T12:00:32Z</time>
      </trkpt>
      <trkpt lat="45.55245" lon="4.86488">
        <ele>216.25801</ele>
        <time>2021-07-19T12:00:33Z</time>
      </trkpt>
      <trkpt lat="45.55247" lon="4.86485">
        <ele>216.35841</ele>
        <time>2021-07-19T12:00:34Z</time>
      </trkpt>
      <trkpt lat="45.55248" lon="4.86483">
        <ele>216.55394</ele>
        <time>2021-07-19T12:00:35Z</time>
      </trkpt>
      <trkpt lat="45.55249" lon="4.86481">
        <ele>216.51167</ele>
        <time>2021-07-19T12:00:36Z</time>
      </trkpt>
      <trkpt lat="45.5525" lon="4.8648">
        <ele>216.44296</ele>
        <time>2021-07-19T12:00:37Z</time>
      </trkpt>
      <trkpt lat="45.5525" lon="4.86479">
        <ele>216.49582</ele>
        <time>2021-07-19T12:00:38Z</time>
      </trkpt>
      <trkpt lat="45.55251" lon="4.86477">
        <ele>216.56981</ele>
        <time>2021-07-19T12:00:39Z</time>
      </trkpt>
      <trkpt lat="45.55251" lon="4.86475">
        <ele>216.77591</ele>
        <time>2021-07-19T12:00:40Z</time>
      </trkpt>
      <trkpt lat="45.55252" lon="4.86472">
        <ele>217.04013</ele>
        <time>2021-07-19T12:00:41Z</time>
      </trkpt>
      <trkpt lat="45.55251" lon="4.86468">
        <ele>217.06656</ele>
        <time>2021-07-19T12:00:42Z</time>
      </trkpt>
      <trkpt lat="45.55249" lon="4.86466">
        <ele>217.10355</ele>
        <time>2021-07-19T12:00:43Z</time>
      </trkpt>
      <trkpt lat="45.55246" lon="4.86464">
        <ele>217.0137</ele>
        <time>2021-07-19T12:00:44Z</time>
      </trkpt>
      <trkpt lat="45.55243" lon="4.86462">
        <ele>217.056</ele>
        <time>2021-07-19T12:00:45Z</time>
      </trkpt>
      <trkpt lat="45.5524" lon="4.86459">
        <ele>217.3678</ele>
        <time>2021-07-19T12:00:46Z</time>
      </trkpt>
      <trkpt lat="45.55237" lon="4.86455">
        <ele>217.58974</ele>
        <time>2021-07-19T12:00:47Z</time>
      </trkpt>
      <trkpt lat="45.55234" lon="4.86451">
        <ele>217.79584</ele>
        <time>2021-07-19T12:00:48Z</time>
      </trkpt>
      <trkpt lat="45.55231" lon="4.86448">
        <ele>218.09706</ele>
        <time>2021-07-19T12:00:49Z</time>
      </trkpt>
      <trkpt lat="45.55227" lon="4.86444">
        <ele>218.27145</ele>
        <time>2021-07-19T12:00:50Z</time>
      </trkpt>
      <trkpt lat="45.55225" lon="4.8644">
        <ele>218.50398</ele>
        <time>2021-07-19T12:00:51Z</time>
      </trkpt>
      <trkpt lat="45.55222" lon="4.86436">
        <ele>218.64667</ele>
        <time>2021-07-19T12:00:52Z</time>
      </trkpt>
      <trkpt lat="45.5522" lon="4.86434">
        <ele>218.85277</ele>
        <time>2021-07-19T12:00:53Z</time>
      </trkpt>
      <trkpt lat="45.55217" lon="4.86432">
        <ele>218.95319</ele>
        <time>2021-07-19T12:00:54Z</time>
      </trkpt>
      <trkpt lat="45.55214" lon="4.8643">
        <ele>219.09056</ele>
        <time>2021-07-19T12:00:55Z</time>
      </trkpt>
      <trkpt lat="45.55212" lon="4.86427">
        <ele>219.33366</ele>
        <time>2021-07-19T12:00:56Z</time>
      </trkpt>
      <trkpt lat="45.55211" lon="4.86423">
        <ele>219.60847</ele>
        <time>2021-07-19T12:00:57Z</time>
      </trkpt>
      <trkpt lat="45.55209" lon="4.8642">
        <ele>219.81985</ele>
        <time>2021-07-19T12:00:58Z</time>
      </trkpt>
      <trkpt lat="45.55206" lon="4.86417">
        <ele>220.2215</ele>
        <time>2021-07-19T12:00:59Z</time>
      </trkpt>
      <trkpt lat="45.55204" lon="4.86415">
        <ele>220.40645</ele>
        <time>2021-07-19T12:01:00Z</time>
      </trkpt>
      <trkpt lat="45.55203" lon="4.86413">
        <ele>220.6971</ele>
        <time>2021-07-19T12:01:01Z</time>
      </trkpt>
      <trkpt lat="45.552" lon="4.86409">
        <ele>220.81865</ele>
        <time>2021-07-19T12:01:02Z</time>
      </trkpt>
      <trkpt lat="45.55198" lon="4.86407">
        <ele>221.15686</ele>
        <time>2021-07-19T12:01:03Z</time>
      </trkpt>
      <trkpt lat="45.55197" lon="4.86405">
        <ele>221.3894</ele>
        <time>2021-07-19T12:01:04Z</time>
      </trkpt>
      <trkpt lat="45.55195" lon="4.86402">
        <ele>222.00241</ele>
        <time>2021-07-19T12:01:05Z</time>
      </trkpt>
      <trkpt lat="45.55192" lon="4.864">
        <ele>221.81746</ele>
        <time>2021-07-19T12:01:06Z</time>
      </trkpt>
      <trkpt lat="45.5519" lon="4.86398">
        <ele>222.04468</ele>
        <time>2021-07-19T12:01:07Z</time>
      </trkpt>
      <trkpt lat="45.55189" lon="4.86396">
        <ele>222.2455</ele>
        <time>2021-07-19T12:01:08Z</time>
      </trkpt>
      <trkpt lat="45.55187" lon="4.86393">
        <ele>222.82681</ele>
        <time>2021-07-19T12:01:09Z</time>
      </trkpt>
      <trkpt lat="45.55185" lon="4.86391">
        <ele>222.98007</ele>
        <time>2021-07-19T12:01:10Z</time>
      </trkpt>
      <trkpt lat="45.55183" lon="4.8639">
        <ele>223.20203</ele>
        <time>2021-07-19T12:01:11Z</time>
      </trkpt>
      <trkpt lat="45.55181" lon="4.86388">
        <ele>223.46626</ele>
        <time>2021-07-19T12:01:12Z</time>
      </trkpt>
      <trkpt lat="45.5518" lon="4.86386">
        <ele>223.70937</ele>
        <time>2021-07-19T12:01:13Z</time>
      </trkpt>
      <trkpt lat="45.55179" lon="4.86383">
        <ele>223.87317</ele>
        <time>2021-07-19T12:01:14Z</time>
      </trkpt>
      <trkpt lat="45.55178" lon="4.8638">
        <ele>224.44391</ele>
        <time>2021-07-19T12:01:15Z</time>
      </trkpt>
      <trkpt lat="45.55177" lon="4.86375">
        <ele>224.6606</ele>
        <time>2021-07-19T12:01:16Z</time>
      </trkpt>
      <trkpt lat="45.55176" lon="4.86373">
        <ele>224.88782</ele>
        <time>2021-07-19T12:01:17Z</time>
      </trkpt>
      <trkpt lat="45.55176" lon="4.86369">
        <ele>225.11505</ele>
        <time>2021-07-19T12:01:18Z</time>
      </trkpt>
      <trkpt lat="45.55175" lon="4.86365">
        <ele>225.44272</ele>
        <time>2021-07-19T12:01:19Z</time>
      </trkpt>
      <trkpt lat="45.55175" lon="4.8636">
        <ele>225.57481</ele>
        <time>2021-07-19T12:01:20Z</time>
      </trkpt>
      <trkpt lat="45.55174" lon="4.86355">
        <ele>225.7598</ele>
        <time>2021-07-19T12:01:21Z</time>
      </trkpt>
      <trkpt lat="45.55173" lon="4.86351">
        <ele>226.5789</ele>
        <time>2021-07-19T12:01:22Z</time>
      </trkpt>
      <trkpt lat="45.55172" lon="4.86346">
        <ele>226.71103</ele>
        <time>2021-07-19T12:01:23Z</time>
      </trkpt>
      <trkpt lat="45.55172" lon="4.86342">
        <ele>226.75859</ele>
        <time>2021-07-19T12:01:24Z</time>
      </trkpt>
      <trkpt lat="45.55171" lon="4.86337">
        <ele>227.3716</ele>
        <time>2021-07-19T12:01:25Z</time>
      </trkpt>
      <trkpt lat="45.55171" lon="4.86333">
        <ele>227.56186</ele>
        <time>2021-07-19T12:01:26Z</time>
      </trkpt>
      <trkpt lat="45.5517" lon="4.8633">
        <ele>227.89478</ele>
        <time>2021-07-19T12:01:27Z</time>
      </trkpt>
      <trkpt lat="45.5517" lon="4.86325">
        <ele>228.08504</ele>
        <time>2021-07-19T12:01:28Z</time>
      </trkpt>
      <trkpt lat="45.5517" lon="4.86321">
        <ele>228.15373</ele>
        <time>2021-07-19T12:01:29Z</time>
      </trkpt>
      <trkpt lat="45.5517" lon="4.86318">
        <ele>228.8883</ele>
        <time>2021-07-19T12:01:30Z</time>
      </trkpt>
      <trkpt lat="45.5517" lon="4.86314">
        <ele>229.34277</ele>
        <time>2021-07-19T12:01:31Z</time>
      </trkpt>
      <trkpt lat="45.5517" lon="4.86311">
        <ele>229.44318</ele>
        <time>2021-07-19T12:01:32Z</time>
      </trkpt>
      <trkpt lat="45.5517" lon="4.86308">
        <ele>229.92409</ele>
        <time>2021-07-19T12:01:33Z</time>
      </trkpt>
      <trkpt lat="45.55169" lon="4.86304">
        <ele>230.1619</ele>
        <time>2021-07-19T12:01:34Z</time>
      </trkpt>
      <trkpt lat="45.55169" lon="4.86301">
        <ele>230.59523</ele>
        <time>2021-07-19T12:01:35Z</time>
      </trkpt>
      <trkpt lat="45.55168" lon="4.86298">
        <ele>230.73264</ele>
        <time>2021-07-19T12:01:36Z</time>
      </trkpt>
      <trkpt lat="45.55168" lon="4.86296">
        <ele>231.06029</ele>
        <time>2021-07-19T12:01:37Z</time>
      </trkpt>
      <trkpt lat="45.55167" lon="4.86293">
        <ele>231.39322</ele>
        <time>2021-07-19T12:01:38Z</time>
      </trkpt>
      <trkpt lat="45.55167" lon="4.8629">
        <ele>231.51476</ele>
        <time>2021-07-19T12:01:39Z</time>
      </trkpt>
      <trkpt lat="45.55167" lon="4.86287">
        <ele>231.7737</ele>
        <time>2021-07-19T12:01:40Z</time>
      </trkpt>
      <trkpt lat="45.55166" lon="4.86284">
        <ele>232.30217</ele>
        <time>2021-07-19T12:01:41Z</time>
      </trkpt>
      <trkpt lat="45.55166" lon="4.8628">
        <ele>232.46071</ele>
        <time>2021-07-19T12:01:42Z</time>
      </trkpt>
      <trkpt lat="45.55165" lon="4.86277">
        <ele>233.16357</ele>
        <time>2021-07-19T12:01:43Z</time>
      </trkpt>
      <trkpt lat="45.55165" lon="4.86274">
        <ele>233.4701</ele>
        <time>2021-07-19T12:01:44Z</time>
      </trkpt>
      <trkpt lat="45.55164" lon="4.86271">
        <ele>233.82944</ele>
        <time>2021-07-19T12:01:45Z</time>
      </trkpt>
      <trkpt lat="45.55164" lon="4.86268">
        <ele>234.20464</ele>
        <time>2021-07-19T12:01:46Z</time>
      </trkpt>
      <trkpt lat="45.55164" lon="4.86265">
        <ele>234.49002</ele>
        <time>2021-07-19T12:01:47Z</time>
      </trkpt>
      <trkpt lat="45.55164" lon="4.86262">
        <ele>235.23515</ele>
        <time>2021-07-19T12:01:48Z</time>
      </trkpt>
      <trkpt lat="45.55163" lon="4.86259">
        <ele>235.10832</ele>
        <time>2021-07-19T12:01:49Z</time>
      </trkpt>
      <trkpt lat="45.55163" lon="4.86255">
        <ele>235.39897</ele>
        <time>2021-07-19T12:01:50Z</time>
      </trkpt>
      <trkpt lat="45.55163" lon="4.86251">
        <ele>235.80061</ele>
        <time>2021-07-19T12:01:51Z</time>
      </trkpt>
      <trkpt lat="45.55164" lon="4.86247">
        <ele>236.2445</ele>
        <time>2021-07-19T12:01:52Z</time>
      </trkpt>
      <trkpt lat="45.55164" lon="4.86244">
        <ele>236.1811</ele>
        <time>2021-07-19T12:01:53Z</time>
      </trkpt>
      <trkpt lat="45.55168" lon="4.86242">
        <ele>236.54047</ele>
        <time>2021-07-19T12:01:54Z</time>
      </trkpt>
      <trkpt lat="45.5517" lon="4.86239">
        <ele>236.91037</ele>
        <time>2021-07-19T12:01:55Z</time>
      </trkpt>
      <trkpt lat="45.55172" lon="4.86236">
        <ele>237.10591</ele>
        <time>2021-07-19T12:01:56Z</time>
      </trkpt>
      <trkpt lat="45.55174" lon="4.86235">
        <ele>237.54982</ele>
        <time>2021-07-19T12:01:57Z</time>
      </trkpt>
      <trkpt lat="45.55175" lon="4.86233">
        <ele>237.60796</ele>
        <time>2021-07-19T12:01:58Z</time>
      </trkpt>
      <trkpt lat="45.55176" lon="4.86232">
        <ele>237.54982</ele>
        <time>2021-07-19T12:01:59Z</time>
      </trkpt>
      <trkpt lat="45.55178" lon="4.8623">
        <ele>237.79819</ele>
        <time>2021-07-19T12:02:00Z</time>
      </trkpt>
      <trkpt lat="45.5518" lon="4.86227">
        <ele>238.1787</ele>
        <time>2021-07-19T12:02:01Z</time>
      </trkpt>
      <trkpt lat="45.55181" lon="4.86225">
        <ele>238.24739</ele>
        <time>2021-07-19T12:02:02Z</time>
      </trkpt>
      <trkpt lat="45.55183" lon="4.86223">
        <ele>238.5909</ele>
        <time>2021-07-19T12:02:03Z</time>
      </trkpt>
      <trkpt lat="45.55185" lon="4.86222">
        <ele>238.75473</ele>
        <time>2021-07-19T12:02:04Z</time>
      </trkpt>
      <trkpt lat="45.55187" lon="4.8622">
        <ele>239.05066</ele>
        <time>2021-07-19T12:02:05Z</time>
      </trkpt>
      <trkpt lat="45.55189" lon="4.86218">
        <ele>239.20918</ele>
        <time>2021-07-19T12:02:06Z</time>
      </trkpt>
      <trkpt lat="45.55191" lon="4.86216">
        <ele>239.3096</ele>
        <time>2021-07-19T12:02:07Z</time>
      </trkpt>
      <trkpt lat="45.55193" lon="4.86214">
        <ele>239.40472</ele>
        <time>2021-07-19T12:02:08Z</time>
      </trkpt>
      <trkpt lat="45.55196" lon="4.86212">
        <ele>239.70596</ele>
        <time>2021-07-19T12:02:09Z</time>
      </trkpt>
      <trkpt lat="45.55198" lon="4.8621">
        <ele>239.64255</ele>
        <time>2021-07-19T12:02:10Z</time>
      </trkpt>
      <trkpt lat="45.55201" lon="4.86209">
        <ele>239.58441</ele>
        <time>2021-07-19T12:02:11Z</time>
      </trkpt>
      <trkpt lat="45.55203" lon="4.86206">
        <ele>240.10231</ele>
        <time>2021-07-19T12:02:12Z</time>
      </trkpt>
      <trkpt lat="45.55205" lon="4.86204">
        <ele>239.98605</ele>
        <time>2021-07-19T12:02:13Z</time>
      </trkpt>
      <trkpt lat="45.55207" lon="4.86202">
        <ele>239.80107</ele>
        <time>2021-07-19T12:02:14Z</time>
      </trkpt>
      <trkpt lat="45.55209" lon="4.86199">
        <ele>239.60027</ele>
        <time>2021-07-19T12:02:15Z</time>
      </trkpt>
      <trkpt lat="45.55212" lon="4.86197">
        <ele>239.91205</ele>
        <time>2021-07-19T12:02:16Z</time>
      </trkpt>
      <trkpt lat="45.55214" lon="4.86195">
        <ele>240.11287</ele>
        <time>2021-07-19T12:02:17Z</time>
      </trkpt>
      <trkpt lat="45.55217" lon="4.86193">
        <ele>240.12874</ele>
        <time>2021-07-19T12:02:18Z</time>
      </trkpt>
      <trkpt lat="45.55219" lon="4.86191">
        <ele>240.22913</ele>
        <time>2021-07-19T12:02:19Z</time>
      </trkpt>
      <trkpt lat="45.55222" lon="4.8619">
        <ele>240.16043</ele>
        <time>2021-07-19T12:02:20Z</time>
      </trkpt>
      <trkpt lat="45.55224" lon="4.86188">
        <ele>240.46693</ele>
        <time>2021-07-19T12:02:21Z</time>
      </trkpt>
      <trkpt lat="45.55227" lon="4.86186">
        <ele>240.29782</ele>
        <time>2021-07-19T12:02:22Z</time>
      </trkpt>
      <trkpt lat="45.55229" lon="4.86184">
        <ele>240.43523</ele>
        <time>2021-07-19T12:02:23Z</time>
      </trkpt>
      <trkpt lat="45.55232" lon="4.86182">
        <ele>240.81044</ele>
        <time>2021-07-19T12:02:24Z</time>
      </trkpt>
      <trkpt lat="45.55235" lon="4.8618">
        <ele>240.72589</ele>
        <time>2021-07-19T12:02:25Z</time>
      </trkpt>
      <trkpt lat="45.55237" lon="4.86178">
        <ele>240.67303</ele>
        <time>2021-07-19T12:02:26Z</time>
      </trkpt>
      <trkpt lat="45.5524" lon="4.86176">
        <ele>240.82101</ele>
        <time>2021-07-19T12:02:27Z</time>
      </trkpt>
      <trkpt lat="45.55242" lon="4.86174">
        <ele>240.94257</ele>
        <time>2021-07-19T12:02:28Z</time>
      </trkpt>
      <trkpt lat="45.55245" lon="4.86171">
        <ele>240.99013</ele>
        <time>2021-07-19T12:02:29Z</time>
      </trkpt>
      <trkpt lat="45.55248" lon="4.86167">
        <ele>240.97427</ele>
        <time>2021-07-19T12:02:30Z</time>
      </trkpt>
      <trkpt lat="45.55251" lon="4.86165">
        <ele>241.60843</ele>
        <time>2021-07-19T12:02:31Z</time>
      </trkpt>
      <trkpt lat="45.55254" lon="4.86163">
        <ele>241.74054</ele>
        <time>2021-07-19T12:02:32Z</time>
      </trkpt>
      <trkpt lat="45.55256" lon="4.8616">
        <ele>242.14746</ele>
        <time>2021-07-19T12:02:33Z</time>
      </trkpt>
      <trkpt lat="45.55259" lon="4.86157">
        <ele>242.18973</ele>
        <time>2021-07-19T12:02:34Z</time>
      </trkpt>
      <trkpt lat="45.55262" lon="4.86153">
        <ele>241.93608</ele>
        <time>2021-07-19T12:02:35Z</time>
      </trkpt>
      <trkpt lat="45.55265" lon="4.8615">
        <ele>241.69298</ele>
        <time>2021-07-19T12:02:36Z</time>
      </trkpt>
      <trkpt lat="45.55269" lon="4.86146">
        <ele>241.72469</ele>
        <time>2021-07-19T12:02:37Z</time>
      </trkpt>
      <trkpt lat="45.55274" lon="4.86142">
        <ele>241.9572</ele>
        <time>2021-07-19T12:02:38Z</time>
      </trkpt>
      <trkpt lat="45.55278" lon="4.86138">
        <ele>242.11047</ele>
        <time>2021-07-19T12:02:39Z</time>
      </trkpt>
      <trkpt lat="45.55282" lon="4.86135">
        <ele>242.1369</ele>
        <time>2021-07-19T12:02:40Z</time>
      </trkpt>
      <trkpt lat="45.55286" lon="4.86132">
        <ele>242.14218</ele>
        <time>2021-07-19T12:02:41Z</time>
      </trkpt>
      <trkpt lat="45.5529" lon="4.86129">
        <ele>242.30598</ele>
        <time>2021-07-19T12:02:42Z</time>
      </trkpt>
      <trkpt lat="45.55294" lon="4.86126">
        <ele>241.9995</ele>
        <time>2021-07-19T12:02:43Z</time>
      </trkpt>
      <trkpt lat="45.55298" lon="4.86123">
        <ele>241.8938</ele>
        <time>2021-07-19T12:02:44Z</time>
      </trkpt>
      <trkpt lat="45.55302" lon="4.86121">
        <ele>241.42874</ele>
        <time>2021-07-19T12:02:45Z</time>
      </trkpt>
      <trkpt lat="45.55306" lon="4.86118">
        <ele>241.69298</ele>
        <time>2021-07-19T12:02:46Z</time>
      </trkpt>
      <trkpt lat="45.5531" lon="4.86114">
        <ele>241.7881</ele>
        <time>2021-07-19T12:02:47Z</time>
      </trkpt>
      <trkpt lat="45.55314" lon="4.86111">
        <ele>241.7194</ele>
        <time>2021-07-19T12:02:48Z</time>
      </trkpt>
      <trkpt lat="45.55318" lon="4.86108">
        <ele>241.8938</ele>
        <time>2021-07-19T12:02:49Z</time>
      </trkpt>
      <trkpt lat="45.55322" lon="4.86105">
        <ele>242.15802</ele>
        <time>2021-07-19T12:02:50Z</time>
      </trkpt>
      <trkpt lat="45.55325" lon="4.86101">
        <ele>242.08405</ele>
        <time>2021-07-19T12:02:51Z</time>
      </trkpt>
      <trkpt lat="45.55328" lon="4.86095">
        <ele>242.15802</ele>
        <time>2021-07-19T12:02:52Z</time>
      </trkpt>
      <trkpt lat="45.55331" lon="4.86091">
        <ele>242.62306</ele>
        <time>2021-07-19T12:02:53Z</time>
      </trkpt>
      <trkpt lat="45.55334" lon="4.86087">
        <ele>242.96657</ele>
        <time>2021-07-19T12:02:54Z</time>
      </trkpt>
      <trkpt lat="45.55338" lon="4.86081">
        <ele>243.07755</ele>
        <time>2021-07-19T12:02:55Z</time>
      </trkpt>
      <trkpt lat="45.55342" lon="4.86077">
        <ele>243.31537</ele>
        <time>2021-07-19T12:02:56Z</time>
      </trkpt>
      <trkpt lat="45.55345" lon="4.86072">
        <ele>243.65358</ele>
        <time>2021-07-19T12:02:57Z</time>
      </trkpt>
      <trkpt lat="45.55349" lon="4.86068">
        <ele>243.83855</ele>
        <time>2021-07-19T12:02:58Z</time>
      </trkpt>
      <trkpt lat="45.55352" lon="4.86063">
        <ele>243.70642</ele>
        <time>2021-07-19T12:02:59Z</time>
      </trkpt>
      <trkpt lat="45.55356" lon="4.86058">
        <ele>243.83327</ele>
        <time>2021-07-19T12:03:00Z</time>
      </trkpt>
      <trkpt lat="45.55359" lon="4.86055">
        <ele>243.71698</ele>
        <time>2021-07-19T12:03:01Z</time>
      </trkpt>
      <trkpt lat="45.55362" lon="4.86051">
        <ele>243.6113</ele>
        <time>2021-07-19T12:03:02Z</time>
      </trkpt>
      <trkpt lat="45.55366" lon="4.86048">
        <ele>243.41049</ele>
        <time>2021-07-19T12:03:03Z</time>
      </trkpt>
      <trkpt lat="45.5537" lon="4.86045">
        <ele>243.51619</ele>
        <time>2021-07-19T12:03:04Z</time>
      </trkpt>
      <trkpt lat="45.55374" lon="4.86042">
        <ele>243.31007</ele>
        <time>2021-07-19T12:03:05Z</time>
      </trkpt>
      <trkpt lat="45.55378" lon="4.86038">
        <ele>243.41049</ele>
        <time>2021-07-19T12:03:06Z</time>
      </trkpt>
      <trkpt lat="45.55382" lon="4.86036">
        <ele>243.32065</ele>
        <time>2021-07-19T12:03:07Z</time>
      </trkpt>
      <trkpt lat="45.55385" lon="4.86032">
        <ele>243.3735</ele>
        <time>2021-07-19T12:03:08Z</time>
      </trkpt>
      <trkpt lat="45.55389" lon="4.86028">
        <ele>243.5109</ele>
        <time>2021-07-19T12:03:09Z</time>
      </trkpt>
      <trkpt lat="45.55394" lon="4.86025">
        <ele>243.6853</ele>
        <time>2021-07-19T12:03:10Z</time>
      </trkpt>
      <trkpt lat="45.55398" lon="4.86021">
        <ele>243.75398</ele>
        <time>2021-07-19T12:03:11Z</time>
      </trkpt>
      <trkpt lat="45.55402" lon="4.86017">
        <ele>243.90724</ele>
        <time>2021-07-19T12:03:12Z</time>
      </trkpt>
      <trkpt lat="45.55406" lon="4.86014">
        <ele>244.28244</ele>
        <time>2021-07-19T12:03:13Z</time>
      </trkpt>
      <trkpt lat="45.5541" lon="4.8601">
        <ele>244.48326</ele>
        <time>2021-07-19T12:03:14Z</time>
      </trkpt>
      <trkpt lat="45.55414" lon="4.86006">
        <ele>244.5414</ele>
        <time>2021-07-19T12:03:15Z</time>
      </trkpt>
      <trkpt lat="45.55418" lon="4.86002">
        <ele>245.165</ele>
        <time>2021-07-19T12:03:16Z</time>
      </trkpt>
      <trkpt lat="45.55422" lon="4.85999">
        <ele>245.2971</ele>
        <time>2021-07-19T12:03:17Z</time>
      </trkpt>
      <trkpt lat="45.55426" lon="4.85996">
        <ele>245.30768</ele>
        <time>2021-07-19T12:03:18Z</time>
      </trkpt>
      <trkpt lat="45.5543" lon="4.85993">
        <ele>244.9906</ele>
        <time>2021-07-19T12:03:19Z</time>
      </trkpt>
      <trkpt lat="45.55434" lon="4.8599">
        <ele>244.6788</ele>
        <time>2021-07-19T12:03:20Z</time>
      </trkpt>
      <trkpt lat="45.55438" lon="4.85986">
        <ele>244.92719</ele>
        <time>2021-07-19T12:03:21Z</time>
      </trkpt>
      <trkpt lat="45.55442" lon="4.85984">
        <ele>244.83734</ele>
        <time>2021-07-19T12:03:22Z</time>
      </trkpt>
      <trkpt lat="45.55446" lon="4.85981">
        <ele>245.04872</ele>
        <time>2021-07-19T12:03:23Z</time>
      </trkpt>
      <trkpt lat="45.55449" lon="4.85978">
        <ele>245.10686</ele>
        <time>2021-07-19T12:03:24Z</time>
      </trkpt>
      <trkpt lat="45.55453" lon="4.85975">
        <ele>245.23898</ele>
        <time>2021-07-19T12:03:25Z</time>
      </trkpt>
      <trkpt lat="45.55458" lon="4.85971">
        <ele>245.22311</ele>
        <time>2021-07-19T12:03:26Z</time>
      </trkpt>
      <trkpt lat="45.55462" lon="4.85968">
        <ele>245.29181</ele>
        <time>2021-07-19T12:03:27Z</time>
      </trkpt>
      <trkpt lat="45.55465" lon="4.85964">
        <ele>245.34467</ele>
        <time>2021-07-19T12:03:28Z</time>
      </trkpt>
      <trkpt lat="45.55469" lon="4.85961">
        <ele>245.39223</ele>
        <time>2021-07-19T12:03:29Z</time>
      </trkpt>
      <trkpt lat="45.55473" lon="4.85957">
        <ele>245.55606</ele>
        <time>2021-07-19T12:03:30Z</time>
      </trkpt>
      <trkpt lat="45.55476" lon="4.85953">
        <ele>245.59305</ele>
        <time>2021-07-19T12:03:31Z</time>
      </trkpt>
      <trkpt lat="45.55479" lon="4.85949">
        <ele>245.56134</ele>
        <time>2021-07-19T12:03:32Z</time>
      </trkpt>
      <trkpt lat="45.55482" lon="4.85945">
        <ele>245.46092</ele>
        <time>2021-07-19T12:03:33Z</time>
      </trkpt>
      <trkpt lat="45.55485" lon="4.85942">
        <ele>245.63531</ele>
        <time>2021-07-19T12:03:34Z</time>
      </trkpt>
      <trkpt lat="45.55488" lon="4.85938">
        <ele>245.80443</ele>
        <time>2021-07-19T12:03:35Z</time>
      </trkpt>
      <trkpt lat="45.55492" lon="4.85934">
        <ele>246.00523</ele>
        <time>2021-07-19T12:03:36Z</time>
      </trkpt>
      <trkpt lat="45.55495" lon="4.85932">
        <ele>246.01054</ele>
        <time>2021-07-19T12:03:37Z</time>
      </trkpt>
      <trkpt lat="45.55499" lon="4.85929">
        <ele>246.14792</ele>
        <time>2021-07-19T12:03:38Z</time>
      </trkpt>
      <trkpt lat="45.55501" lon="4.85926">
        <ele>246.31175</ele>
        <time>2021-07-19T12:03:39Z</time>
      </trkpt>
      <trkpt lat="45.55504" lon="4.85923">
        <ele>246.36461</ele>
        <time>2021-07-19T12:03:40Z</time>
      </trkpt>
      <trkpt lat="45.55507" lon="4.85921">
        <ele>246.63411</ele>
        <time>2021-07-19T12:03:41Z</time>
      </trkpt>
      <trkpt lat="45.5551" lon="4.85918">
        <ele>246.76096</ele>
        <time>2021-07-19T12:03:42Z</time>
      </trkpt>
      <trkpt lat="45.55513" lon="4.85915">
        <ele>246.96178</ele>
        <time>2021-07-19T12:03:43Z</time>
      </trkpt>
      <trkpt lat="45.55516" lon="4.85911">
        <ele>247.33698</ele>
        <time>2021-07-19T12:03:44Z</time>
      </trkpt>
      <trkpt lat="45.55519" lon="4.85908">
        <ele>247.51665</ele>
        <time>2021-07-19T12:03:45Z</time>
      </trkpt>
      <trkpt lat="45.55522" lon="4.85905">
        <ele>247.73862</ele>
        <time>2021-07-19T12:03:46Z</time>
      </trkpt>
      <trkpt lat="45.55524" lon="4.85903">
        <ele>248.09268</ele>
        <time>2021-07-19T12:03:47Z</time>
      </trkpt>
      <trkpt lat="45.55528" lon="4.85901">
        <ele>248.64227</ele>
        <time>2021-07-19T12:03:48Z</time>
      </trkpt>
      <trkpt lat="45.5553" lon="4.85899">
        <ele>249.05977</ele>
        <time>2021-07-19T12:03:49Z</time>
      </trkpt>
      <trkpt lat="45.55534" lon="4.85897">
        <ele>249.0122</ele>
        <time>2021-07-19T12:03:50Z</time>
      </trkpt>
      <trkpt lat="45.55537" lon="4.85895">
        <ele>249.398</ele>
        <time>2021-07-19T12:03:51Z</time>
      </trkpt>
      <trkpt lat="45.5554" lon="4.85892">
        <ele>249.88947</ele>
        <time>2021-07-19T12:03:52Z</time>
      </trkpt>
      <trkpt lat="45.55543" lon="4.85889">
        <ele>250.27524</ele>
        <time>2021-07-19T12:03:53Z</time>
      </trkpt>
      <trkpt lat="45.55545" lon="4.85886">
        <ele>250.53946</ele>
        <time>2021-07-19T12:03:54Z</time>
      </trkpt>
      <trkpt lat="45.55548" lon="4.85883">
        <ele>250.61345</ele>
        <time>2021-07-19T12:03:55Z</time>
      </trkpt>
      <trkpt lat="45.5555" lon="4.8588">
        <ele>250.9781</ele>
        <time>2021-07-19T12:03:56Z</time>
      </trkpt>
      <trkpt lat="45.55552" lon="4.85878">
        <ele>250.95168</ele>
        <time>2021-07-19T12:03:57Z</time>
      </trkpt>
      <trkpt lat="45.55555" lon="4.85875">
        <ele>251.17361</ele>
        <time>2021-07-19T12:03:58Z</time>
      </trkpt>
      <trkpt lat="45.55557" lon="4.85872">
        <ele>251.5594</ele>
        <time>2021-07-19T12:03:59Z</time>
      </trkpt>
      <trkpt lat="45.55559" lon="4.85869">
        <ele>251.58055</ele>
        <time>2021-07-19T12:04:00Z</time>
      </trkpt>
      <trkpt lat="45.55561" lon="4.85867">
        <ele>251.61226</ele>
        <time>2021-07-19T12:04:01Z</time>
      </trkpt>
      <trkpt lat="45.55563" lon="4.85866">
        <ele>251.41672</ele>
        <time>2021-07-19T12:04:02Z</time>
      </trkpt>
      <trkpt lat="45.55565" lon="4.85865">
        <ele>251.38501</ele>
        <time>2021-07-19T12:04:03Z</time>
      </trkpt>
      <trkpt lat="45.55568" lon="4.85864">
        <ele>251.55412</ele>
        <time>2021-07-19T12:04:04Z</time>
      </trkpt>
      <trkpt lat="45.5557" lon="4.85863">
        <ele>251.86592</ele>
        <time>2021-07-19T12:04:05Z</time>
      </trkpt>
      <trkpt lat="45.55572" lon="4.85861">
        <ele>251.95575</ele>
        <time>2021-07-19T12:04:06Z</time>
      </trkpt>
      <trkpt lat="45.55575" lon="4.85858">
        <ele>252.27283</ele>
        <time>2021-07-19T12:04:07Z</time>
      </trkpt>
      <trkpt lat="45.55578" lon="4.85855">
        <ele>252.39966</ele>
        <time>2021-07-19T12:04:08Z</time>
      </trkpt>
      <trkpt lat="45.5558" lon="4.85852">
        <ele>252.43665</ele>
        <time>2021-07-19T12:04:09Z</time>
      </trkpt>
      <trkpt lat="45.55583" lon="4.85849">
        <ele>252.63217</ele>
        <time>2021-07-19T12:04:10Z</time>
      </trkpt>
      <trkpt lat="45.55586" lon="4.85846">
        <ele>252.91756</ele>
        <time>2021-07-19T12:04:11Z</time>
      </trkpt>
      <trkpt lat="45.55588" lon="4.85842">
        <ele>252.99683</ele>
        <time>2021-07-19T12:04:12Z</time>
      </trkpt>
      <trkpt lat="45.55592" lon="4.85839">
        <ele>253.28748</ele>
        <time>2021-07-19T12:04:13Z</time>
      </trkpt>
      <trkpt lat="45.55595" lon="4.85836">
        <ele>253.40373</ele>
        <time>2021-07-19T12:04:14Z</time>
      </trkpt>
      <trkpt lat="45.55598" lon="4.85833">
        <ele>253.47772</ele>
        <time>2021-07-19T12:04:15Z</time>
      </trkpt>
      <trkpt lat="45.55601" lon="4.85829">
        <ele>253.84766</ele>
        <time>2021-07-19T12:04:16Z</time>
      </trkpt>
      <trkpt lat="45.55604" lon="4.85825">
        <ele>253.95862</ele>
        <time>2021-07-19T12:04:17Z</time>
      </trkpt>
      <trkpt lat="45.55608" lon="4.85821">
        <ele>254.05904</ele>
        <time>2021-07-19T12:04:18Z</time>
      </trkpt>
      <trkpt lat="45.55611" lon="4.85818">
        <ele>254.41838</ele>
        <time>2021-07-19T12:04:19Z</time>
      </trkpt>
      <trkpt lat="45.55615" lon="4.85815">
        <ele>254.85703</ele>
        <time>2021-07-19T12:04:20Z</time>
      </trkpt>
      <trkpt lat="45.55617" lon="4.85811">
        <ele>255.38019</ele>
        <time>2021-07-19T12:04:21Z</time>
      </trkpt>
      <trkpt lat="45.55621" lon="4.85808">
        <ele>254.89929</ele>
        <time>2021-07-19T12:04:22Z</time>
      </trkpt>
      <trkpt lat="45.55624" lon="4.85804">
        <ele>255.29564</ele>
        <time>2021-07-19T12:04:23Z</time>
      </trkpt>
      <trkpt lat="45.55627" lon="4.85801">
        <ele>255.94566</ele>
        <time>2021-07-19T12:04:24Z</time>
      </trkpt>
      <trkpt lat="45.55631" lon="4.85798">
        <ele>255.96678</ele>
        <time>2021-07-19T12:04:25Z</time>
      </trkpt>
      <trkpt lat="45.55634" lon="4.85796">
        <ele>256.04077</ele>
        <time>2021-07-19T12:04:26Z</time>
      </trkpt>
      <trkpt lat="45.55637" lon="4.85793">
        <ele>256.29443</ele>
        <time>2021-07-19T12:04:27Z</time>
      </trkpt>
      <trkpt lat="45.5564" lon="4.8579">
        <ele>256.6115</ele>
        <time>2021-07-19T12:04:28Z</time>
      </trkpt>
      <trkpt lat="45.55644" lon="4.85787">
        <ele>256.80704</ele>
        <time>2021-07-19T12:04:29Z</time>
      </trkpt>
      <trkpt lat="45.55647" lon="4.85785">
        <ele>256.99728</ele>
        <time>2021-07-19T12:04:30Z</time>
      </trkpt>
      <trkpt lat="45.55651" lon="4.85783">
        <ele>256.95502</ele>
        <time>2021-07-19T12:04:31Z</time>
      </trkpt>
      <trkpt lat="45.55655" lon="4.8578">
        <ele>257.00787</ele>
        <time>2021-07-19T12:04:32Z</time>
      </trkpt>
      <trkpt lat="45.55658" lon="4.85778">
        <ele>256.7912</ele>
        <time>2021-07-19T12:04:33Z</time>
      </trkpt>
      <trkpt lat="45.55661" lon="4.85775">
        <ele>256.55338</ele>
        <time>2021-07-19T12:04:34Z</time>
      </trkpt>
      <trkpt lat="45.55665" lon="4.85773">
        <ele>256.62738</ele>
        <time>2021-07-19T12:04:35Z</time>
      </trkpt>
      <trkpt lat="45.55669" lon="4.8577">
        <ele>256.88104</ele>
        <time>2021-07-19T12:04:36Z</time>
      </trkpt>
      <trkpt lat="45.55673" lon="4.85768">
        <ele>256.88632</ele>
        <time>2021-07-19T12:04:37Z</time>
      </trkpt>
      <trkpt lat="45.55676" lon="4.85765">
        <ele>256.8916</ele>
        <time>2021-07-19T12:04:38Z</time>
      </trkpt>
      <trkpt lat="45.5568" lon="4.85762">
        <ele>257.15054</ele>
        <time>2021-07-19T12:04:39Z</time>
      </trkpt>
      <trkpt lat="45.55684" lon="4.85759">
        <ele>257.18753</ele>
        <time>2021-07-19T12:04:40Z</time>
      </trkpt>
      <trkpt lat="45.55688" lon="4.85756">
        <ele>257.08185</ele>
        <time>2021-07-19T12:04:41Z</time>
      </trkpt>
      <trkpt lat="45.55692" lon="4.85753">
        <ele>257.07126</ele>
        <time>2021-07-19T12:04:42Z</time>
      </trkpt>
      <trkpt lat="45.55696" lon="4.8575">
        <ele>257.19812</ele>
        <time>2021-07-19T12:04:43Z</time>
      </trkpt>
      <trkpt lat="45.557" lon="4.85747">
        <ele>257.5469</ele>
        <time>2021-07-19T12:04:44Z</time>
      </trkpt>
      <trkpt lat="45.55704" lon="4.85742">
        <ele>257.52576</ele>
        <time>2021-07-19T12:04:45Z</time>
      </trkpt>
      <trkpt lat="45.55709" lon="4.85738">
        <ele>257.65787</ele>
        <time>2021-07-19T12:04:46Z</time>
      </trkpt>
      <trkpt lat="45.55713" lon="4.85734">
        <ele>257.4359</ele>
        <time>2021-07-19T12:04:47Z</time>
      </trkpt>
      <trkpt lat="45.55717" lon="4.8573">
        <ele>257.3038</ele>
        <time>2021-07-19T12:04:48Z</time>
      </trkpt>
      <trkpt lat="45.55721" lon="4.85726">
        <ele>257.52576</ele>
        <time>2021-07-19T12:04:49Z</time>
      </trkpt>
      <trkpt lat="45.55724" lon="4.85723">
        <ele>257.90097</ele>
        <time>2021-07-19T12:04:50Z</time>
      </trkpt>
      <trkpt lat="45.55727" lon="4.85719">
        <ele>257.76886</ele>
        <time>2021-07-19T12:04:51Z</time>
      </trkpt>
      <trkpt lat="45.55731" lon="4.85714">
        <ele>257.81113</ele>
        <time>2021-07-19T12:04:52Z</time>
      </trkpt>
      <trkpt lat="45.55735" lon="4.8571">
        <ele>257.91153</ele>
        <time>2021-07-19T12:04:53Z</time>
      </trkpt>
      <trkpt lat="45.55739" lon="4.85706">
        <ele>257.716</ele>
        <time>2021-07-19T12:04:54Z</time>
      </trkpt>
      <trkpt lat="45.55743" lon="4.85702">
        <ele>257.83228</ele>
        <time>2021-07-19T12:04:55Z</time>
      </trkpt>
      <trkpt lat="45.55747" lon="4.85698">
        <ele>257.73712</ele>
        <time>2021-07-19T12:04:57Z</time>
      </trkpt>
      <trkpt lat="45.5575" lon="4.85693">
        <ele>257.45178</ele>
        <time>2021-07-19T12:04:58Z</time>
      </trkpt>
      <trkpt lat="45.55753" lon="4.85687">
        <ele>257.74243</ele>
        <time>2021-07-19T12:04:59Z</time>
      </trkpt>
      <trkpt lat="45.55757" lon="4.85682">
        <ele>257.827</ele>
        <time>2021-07-19T12:05:00Z</time>
      </trkpt>
      <trkpt lat="45.5576" lon="4.85677">
        <ele>257.6843</ele>
        <time>2021-07-19T12:05:01Z</time>
      </trkpt>
      <trkpt lat="45.55764" lon="4.85672">
        <ele>257.72656</ele>
        <time>2021-07-19T12:05:02Z</time>
      </trkpt>
      <trkpt lat="45.55767" lon="4.85667">
        <ele>257.83755</ele>
        <time>2021-07-19T12:05:03Z</time>
      </trkpt>
      <trkpt lat="45.5577" lon="4.85661">
        <ele>257.91153</ele>
        <time>2021-07-19T12:05:04Z</time>
      </trkpt>
      <trkpt lat="45.55773" lon="4.85655">
        <ele>258.0542</ele>
        <time>2021-07-19T12:05:05Z</time>
      </trkpt>
      <trkpt lat="45.55776" lon="4.85649">
        <ele>257.94852</ele>
        <time>2021-07-19T12:05:06Z</time>
      </trkpt>
      <trkpt lat="45.55778" lon="4.85643">
        <ele>258.18106</ele>
        <time>2021-07-19T12:05:07Z</time>
      </trkpt>
      <trkpt lat="45.5578" lon="4.85637">
        <ele>258.329</ele>
        <time>2021-07-19T12:05:08Z</time>
      </trkpt>
      <trkpt lat="45.55783" lon="4.85631">
        <ele>258.6091</ele>
        <time>2021-07-19T12:05:09Z</time>
      </trkpt>
      <trkpt lat="45.55785" lon="4.85626">
        <ele>258.44</ele>
        <time>2021-07-19T12:05:10Z</time>
      </trkpt>
      <trkpt lat="45.55788" lon="4.85621">
        <ele>258.51398</ele>
        <time>2021-07-19T12:05:11Z</time>
      </trkpt>
      <trkpt lat="45.5579" lon="4.85615">
        <ele>258.61966</ele>
        <time>2021-07-19T12:05:12Z</time>
      </trkpt>
      <trkpt lat="45.55793" lon="4.85609">
        <ele>258.5774</ele>
        <time>2021-07-19T12:05:13Z</time>
      </trkpt>
      <trkpt lat="45.55795" lon="4.85603">
        <ele>258.6091</ele>
        <time>2021-07-19T12:05:14Z</time>
      </trkpt>
      <trkpt lat="45.55798" lon="4.85597">
        <ele>258.74124</ele>
        <time>2021-07-19T12:05:15Z</time>
      </trkpt>
      <trkpt lat="45.558" lon="4.8559">
        <ele>258.9526</ele>
        <time>2021-07-19T12:05:16Z</time>
      </trkpt>
      <trkpt lat="45.55802" lon="4.85583">
        <ele>259.0636</ele>
        <time>2021-07-19T12:05:17Z</time>
      </trkpt>
      <trkpt lat="45.55804" lon="4.85577">
        <ele>259.01602</ele>
        <time>2021-07-19T12:05:18Z</time>
      </trkpt>
      <trkpt lat="45.55806" lon="4.8557">
        <ele>259.27496</ele>
        <time>2021-07-19T12:05:19Z</time>
      </trkpt>
      <trkpt lat="45.55809" lon="4.85563">
        <ele>259.5339</ele>
        <time>2021-07-19T12:05:20Z</time>
      </trkpt>
      <trkpt lat="45.55811" lon="4.85556">
        <ele>259.81927</ele>
        <time>2021-07-19T12:05:21Z</time>
      </trkpt>
      <trkpt lat="45.55813" lon="4.85549">
        <ele>259.77173</ele>
        <time>2021-07-19T12:05:22Z</time>
      </trkpt>
      <trkpt lat="45.55815" lon="4.85542">
        <ele>259.9144</ele>
        <time>2021-07-19T12:05:23Z</time>
      </trkpt>
      <trkpt lat="45.55817" lon="4.85534">
        <ele>259.93555</ele>
        <time>2021-07-19T12:05:24Z</time>
      </trkpt>
      <trkpt lat="45.5582" lon="4.85527">
        <ele>260.2579</ele>
        <time>2021-07-19T12:05:25Z</time>
      </trkpt>
      <trkpt lat="45.55822" lon="4.8552">
        <ele>260.46402</ele>
        <time>2021-07-19T12:05:26Z</time>
      </trkpt>
      <trkpt lat="45.55825" lon="4.85513">
        <ele>260.5803</ele>
        <time>2021-07-19T12:05:27Z</time>
      </trkpt>
      <trkpt lat="45.55827" lon="4.85507">
        <ele>260.87094</ele>
        <time>2021-07-19T12:05:28Z</time>
      </trkpt>
      <trkpt lat="45.5583" lon="4.85501">
        <ele>260.81808</ele>
        <time>2021-07-19T12:05:29Z</time>
      </trkpt>
      <trkpt lat="45.55833" lon="4.85496">
        <ele>260.8815</ele>
        <time>2021-07-19T12:05:30Z</time>
      </trkpt>
      <trkpt lat="45.55836" lon="4.85489">
        <ele>260.5803</ele>
        <time>2021-07-19T12:05:31Z</time>
      </trkpt>
      <trkpt lat="45.55839" lon="4.85483">
        <ele>260.89206</ele>
        <time>2021-07-19T12:05:32Z</time>
      </trkpt>
      <trkpt lat="45.55842" lon="4.85476">
        <ele>260.78638</ele>
        <time>2021-07-19T12:05:33Z</time>
      </trkpt>
      <trkpt lat="45.55845" lon="4.85469">
        <ele>260.75995</ele>
        <time>2021-07-19T12:05:34Z</time>
      </trkpt>
      <trkpt lat="45.55848" lon="4.85462">
        <ele>260.649</ele>
        <time>2021-07-19T12:05:35Z</time>
      </trkpt>
      <trkpt lat="45.55851" lon="4.85455">
        <ele>260.75467</ele>
        <time>2021-07-19T12:05:36Z</time>
      </trkpt>
      <trkpt lat="45.55854" lon="4.85449">
        <ele>260.79694</ele>
        <time>2021-07-19T12:05:37Z</time>
      </trkpt>
      <trkpt lat="45.55857" lon="4.85442">
        <ele>260.8498</ele>
        <time>2021-07-19T12:05:38Z</time>
      </trkpt>
      <trkpt lat="45.5586" lon="4.85436">
        <ele>260.85507</ele>
        <time>2021-07-19T12:05:39Z</time>
      </trkpt>
      <trkpt lat="45.55862" lon="4.85429">
        <ele>261.0189</ele>
        <time>2021-07-19T12:05:40Z</time>
      </trkpt>
      <trkpt lat="45.55865" lon="4.85423">
        <ele>261.13516</ele>
        <time>2021-07-19T12:05:41Z</time>
      </trkpt>
      <trkpt lat="45.55867" lon="4.85416">
        <ele>261.12988</ele>
        <time>2021-07-19T12:05:42Z</time>
      </trkpt>
      <trkpt lat="45.5587" lon="4.8541">
        <ele>261.24088</ele>
        <time>2021-07-19T12:05:43Z</time>
      </trkpt>
      <trkpt lat="45.55872" lon="4.85403">
        <ele>261.24615</ele>
        <time>2021-07-19T12:05:44Z</time>
      </trkpt>
      <trkpt lat="45.55874" lon="4.85398">
        <ele>261.34656</ele>
        <time>2021-07-19T12:05:45Z</time>
      </trkpt>
      <trkpt lat="45.55877" lon="4.85391">
        <ele>261.63193</ele>
        <time>2021-07-19T12:05:46Z</time>
      </trkpt>
      <trkpt lat="45.5588" lon="4.85384">
        <ele>261.82217</ele>
        <time>2021-07-19T12:05:47Z</time>
      </trkpt>
      <trkpt lat="45.55883" lon="4.85377">
        <ele>261.87503</ele>
        <time>2021-07-19T12:05:48Z</time>
      </trkpt>
      <trkpt lat="45.55885" lon="4.8537">
        <ele>261.7852</ele>
        <time>2021-07-19T12:05:49Z</time>
      </trkpt>
      <trkpt lat="45.55888" lon="4.85363">
        <ele>262.09167</ele>
        <time>2021-07-19T12:05:50Z</time>
      </trkpt>
      <trkpt lat="45.5589" lon="4.85356">
        <ele>262.3612</ele>
        <time>2021-07-19T12:05:51Z</time>
      </trkpt>
      <trkpt lat="45.55892" lon="4.85349">
        <ele>262.9742</ele>
        <time>2021-07-19T12:05:52Z</time>
      </trkpt>
      <trkpt lat="45.55895" lon="4.85343">
        <ele>263.11163</ele>
        <time>2021-07-19T12:05:53Z</time>
      </trkpt>
      <trkpt lat="45.55898" lon="4.85337">
        <ele>263.06406</ele>
        <time>2021-07-19T12:05:54Z</time>
      </trkpt>
      <trkpt lat="45.559" lon="4.8533">
        <ele>263.13275</ele>
        <time>2021-07-19T12:05:55Z</time>
      </trkpt>
      <trkpt lat="45.55902" lon="4.85324">
        <ele>263.6031</ele>
        <time>2021-07-19T12:05:56Z</time>
      </trkpt>
      <trkpt lat="45.55904" lon="4.85317">
        <ele>263.6031</ele>
        <time>2021-07-19T12:05:57Z</time>
      </trkpt>
      <trkpt lat="45.55907" lon="4.85311">
        <ele>263.8462</ele>
        <time>2021-07-19T12:05:58Z</time>
      </trkpt>
      <trkpt lat="45.55909" lon="4.85306">
        <ele>263.78278</ele>
        <time>2021-07-19T12:05:59Z</time>
      </trkpt>
      <trkpt lat="45.55911" lon="4.853">
        <ele>263.7458</ele>
        <time>2021-07-19T12:06:00Z</time>
      </trkpt>
      <trkpt lat="45.55913" lon="4.85293">
        <ele>263.7986</ele>
        <time>2021-07-19T12:06:01Z</time>
      </trkpt>
      <trkpt lat="45.55915" lon="4.85287">
        <ele>263.78806</ele>
        <time>2021-07-19T12:06:02Z</time>
      </trkpt>
      <trkpt lat="45.55917" lon="4.8528">
        <ele>263.92017</ele>
        <time>2021-07-19T12:06:03Z</time>
      </trkpt>
      <trkpt lat="45.5592" lon="4.85274">
        <ele>264.08398</ele>
        <time>2021-07-19T12:06:04Z</time>
      </trkpt>
      <trkpt lat="45.55922" lon="4.85268">
        <ele>263.78806</ele>
        <time>2021-07-19T12:06:05Z</time>
      </trkpt>
      <trkpt lat="45.55925" lon="4.85262">
        <ele>263.51324</ele>
        <time>2021-07-19T12:06:06Z</time>
      </trkpt>
      <trkpt lat="45.55928" lon="4.85256">
        <ele>263.65067</ele>
        <time>2021-07-19T12:06:07Z</time>
      </trkpt>
      <trkpt lat="45.55931" lon="4.85249">
        <ele>263.21204</ele>
        <time>2021-07-19T12:06:08Z</time>
      </trkpt>
      <trkpt lat="45.55935" lon="4.85243">
        <ele>262.71527</ele>
        <time>2021-07-19T12:06:09Z</time>
      </trkpt>
      <trkpt lat="45.55938" lon="4.85236">
        <ele>262.6624</ele>
        <time>2021-07-19T12:06:10Z</time>
      </trkpt>
      <trkpt lat="45.55942" lon="4.85229">
        <ele>262.6677</ele>
        <time>2021-07-19T12:06:11Z</time>
      </trkpt>
      <trkpt lat="45.55947" lon="4.85223">
        <ele>262.73114</ele>
        <time>2021-07-19T12:06:12Z</time>
      </trkpt>
      <trkpt lat="45.55952" lon="4.85217">
        <ele>262.599</ele>
        <time>2021-07-19T12:06:13Z</time>
      </trkpt>
      <trkpt lat="45.55957" lon="4.85211">
        <ele>262.34534</ele>
        <time>2021-07-19T12:06:14Z</time>
      </trkpt>
      <trkpt lat="45.55962" lon="4.85205">
        <ele>262.57788</ele>
        <time>2021-07-19T12:06:15Z</time>
      </trkpt>
      <trkpt lat="45.55967" lon="4.85198">
        <ele>262.55145</ele>
        <time>2021-07-19T12:06:16Z</time>
      </trkpt>
      <trkpt lat="45.55971" lon="4.85192">
        <ele>262.55145</ele>
        <time>2021-07-19T12:06:17Z</time>
      </trkpt>
      <trkpt lat="45.55975" lon="4.85185">
        <ele>262.05997</ele>
        <time>2021-07-19T12:06:18Z</time>
      </trkpt>
      <trkpt lat="45.55979" lon="4.8518">
        <ele>261.986</ele>
        <time>2021-07-19T12:06:19Z</time>
      </trkpt>
      <trkpt lat="45.55983" lon="4.85174">
        <ele>262.18683</ele>
        <time>2021-07-19T12:06:20Z</time>
      </trkpt>
      <trkpt lat="45.55987" lon="4.85169">
        <ele>261.77988</ele>
        <time>2021-07-19T12:06:21Z</time>
      </trkpt>
      <trkpt lat="45.55991" lon="4.85162">
        <ele>261.2937</ele>
        <time>2021-07-19T12:06:22Z</time>
      </trkpt>
      <trkpt lat="45.55995" lon="4.85156">
        <ele>261.03476</ele>
        <time>2021-07-19T12:06:23Z</time>
      </trkpt>
      <trkpt lat="45.55999" lon="4.85149">
        <ele>261.17215</ele>
        <time>2021-07-19T12:06:24Z</time>
      </trkpt>
      <trkpt lat="45.56002" lon="4.85142">
        <ele>261.0823</ele>
        <time>2021-07-19T12:06:25Z</time>
      </trkpt>
      <trkpt lat="45.56006" lon="4.85135">
        <ele>260.97662</ele>
        <time>2021-07-19T12:06:26Z</time>
      </trkpt>
      <trkpt lat="45.56009" lon="4.85128">
        <ele>260.9132</ele>
        <time>2021-07-19T12:06:27Z</time>
      </trkpt>
      <trkpt lat="45.56012" lon="4.85123">
        <ele>261.0823</ele>
        <time>2021-07-19T12:06:28Z</time>
      </trkpt>
      <trkpt lat="45.56015" lon="4.85117">
        <ele>260.78638</ele>
        <time>2021-07-19T12:06:29Z</time>
      </trkpt>
      <trkpt lat="45.56017" lon="4.85111">
        <ele>260.65427</ele>
        <time>2021-07-19T12:06:30Z</time>
      </trkpt>
      <trkpt lat="45.56019" lon="4.85106">
        <ele>260.73883</ele>
        <time>2021-07-19T12:06:31Z</time>
      </trkpt>
      <trkpt lat="45.5602" lon="4.85101">
        <ele>260.51685</ele>
        <time>2021-07-19T12:06:32Z</time>
      </trkpt>
      <trkpt lat="45.56022" lon="4.85096">
        <ele>260.3319</ele>
        <time>2021-07-19T12:06:33Z</time>
      </trkpt>
      <trkpt lat="45.56022" lon="4.8509">
        <ele>260.40588</ele>
        <time>2021-07-19T12:06:34Z</time>
      </trkpt>
      <trkpt lat="45.56022" lon="4.85085">
        <ele>260.32135</ele>
        <time>2021-07-19T12:06:35Z</time>
      </trkpt>
      <trkpt lat="45.56021" lon="4.85077">
        <ele>260.29492</ele>
        <time>2021-07-19T12:06:36Z</time>
      </trkpt>
      <trkpt lat="45.56019" lon="4.85071">
        <ele>260.2632</ele>
        <time>2021-07-19T12:06:37Z</time>
      </trkpt>
      <trkpt lat="45.56017" lon="4.85064">
        <ele>260.38474</ele>
        <time>2021-07-19T12:06:38Z</time>
      </trkpt>
      <trkpt lat="45.56015" lon="4.85058">
        <ele>260.6014</ele>
        <time>2021-07-19T12:06:39Z</time>
      </trkpt>
      <trkpt lat="45.56014" lon="4.85051">
        <ele>260.70712</ele>
        <time>2021-07-19T12:06:40Z</time>
      </trkpt>
      <trkpt lat="45.56012" lon="4.85044">
        <ele>260.86563</ele>
        <time>2021-07-19T12:06:41Z</time>
      </trkpt>
      <trkpt lat="45.5601" lon="4.85038">
        <ele>261.27786</ele>
        <time>2021-07-19T12:06:42Z</time>
      </trkpt>
      <trkpt lat="45.56009" lon="4.85031">
        <ele>261.10873</ele>
        <time>2021-07-19T12:06:43Z</time>
      </trkpt>
      <trkpt lat="45.56008" lon="4.85024">
        <ele>261.35184</ele>
        <time>2021-07-19T12:06:44Z</time>
      </trkpt>
      <trkpt lat="45.56007" lon="4.85017">
        <ele>261.51038</ele>
        <time>2021-07-19T12:06:45Z</time>
      </trkpt>
      <trkpt lat="45.56006" lon="4.8501">
        <ele>261.73233</ele>
        <time>2021-07-19T12:06:46Z</time>
      </trkpt>
      <trkpt lat="45.56006" lon="4.85004">
        <ele>261.9173</ele>
        <time>2021-07-19T12:06:47Z</time>
      </trkpt>
      <trkpt lat="45.56004" lon="4.84997">
        <ele>262.07584</ele>
        <time>2021-07-19T12:06:48Z</time>
      </trkpt>
      <trkpt lat="45.56003" lon="4.8499">
        <ele>262.09167</ele>
        <time>2021-07-19T12:06:49Z</time>
      </trkpt>
      <trkpt lat="45.56002" lon="4.84984">
        <ele>262.17096</ele>
        <time>2021-07-19T12:06:50Z</time>
      </trkpt>
      <trkpt lat="45.56001" lon="4.84977">
        <ele>262.1287</ele>
        <time>2021-07-19T12:06:51Z</time>
      </trkpt>
      <trkpt lat="45.56" lon="4.8497">
        <ele>262.1921</ele>
        <time>2021-07-19T12:06:52Z</time>
      </trkpt>
      <trkpt lat="45.55999" lon="4.84963">
        <ele>262.40347</ele>
        <time>2021-07-19T12:06:53Z</time>
      </trkpt>
      <trkpt lat="45.55998" lon="4.84957">
        <ele>262.636</ele>
        <time>2021-07-19T12:06:54Z</time>
      </trkpt>
      <trkpt lat="45.55996" lon="4.84951">
        <ele>262.95306</ele>
        <time>2021-07-19T12:06:55Z</time>
      </trkpt>
      <trkpt lat="45.55996" lon="4.84945">
        <ele>263.29657</ele>
        <time>2021-07-19T12:06:56Z</time>
      </trkpt>
      <trkpt lat="45.55996" lon="4.84938">
        <ele>263.59253</ele>
        <time>2021-07-19T12:06:57Z</time>
      </trkpt>
      <trkpt lat="45.55996" lon="4.84932">
        <ele>263.82504</ele>
        <time>2021-07-19T12:06:58Z</time>
      </trkpt>
      <trkpt lat="45.55996" lon="4.84924">
        <ele>264.2584</ele>
        <time>2021-07-19T12:06:59Z</time>
      </trkpt>
      <trkpt lat="45.55997" lon="4.84917">
        <ele>264.4592</ele>
        <time>2021-07-19T12:07:00Z</time>
      </trkpt>
      <trkpt lat="45.55998" lon="4.8491">
        <ele>265.08807</ele>
        <time>2021-07-19T12:07:01Z</time>
      </trkpt>
      <trkpt lat="45.55998" lon="4.84903">
        <ele>265.44742</ele>
        <time>2021-07-19T12:07:02Z</time>
      </trkpt>
      <trkpt lat="45.55999" lon="4.84896">
        <ele>265.5954</ele>
        <time>2021-07-19T12:07:03Z</time>
      </trkpt>
      <trkpt lat="45.56" lon="4.84889">
        <ele>266.06573</ele>
        <time>2021-07-19T12:07:04Z</time>
      </trkpt>
      <trkpt lat="45.56001" lon="4.84883">
        <ele>266.71045</ele>
        <time>2021-07-19T12:07:05Z</time>
      </trkpt>
      <trkpt lat="45.56001" lon="4.84876">
        <ele>267.09625</ele>
        <time>2021-07-19T12:07:06Z</time>
      </trkpt>
      <trkpt lat="45.56002" lon="4.84871">
        <ele>267.21777</ele>
        <time>2021-07-19T12:07:07Z</time>
      </trkpt>
      <trkpt lat="45.56004" lon="4.84863">
        <ele>267.66168</ele>
        <time>2021-07-19T12:07:08Z</time>
      </trkpt>
      <trkpt lat="45.56004" lon="4.84855">
        <ele>268.25357</ele>
        <time>2021-07-19T12:07:09Z</time>
      </trkpt>
      <trkpt lat="45.56004" lon="4.84847">
        <ele>268.3487</ele>
        <time>2021-07-19T12:07:10Z</time>
      </trkpt>
      <trkpt lat="45.56004" lon="4.8484">
        <ele>268.32758</ele>
        <time>2021-07-19T12:07:11Z</time>
      </trkpt>
      <trkpt lat="45.56003" lon="4.84833">
        <ele>268.6605</ele>
        <time>2021-07-19T12:07:12Z</time>
      </trkpt>
      <trkpt lat="45.56002" lon="4.84826">
        <ele>268.7239</ele>
        <time>2021-07-19T12:07:13Z</time>
      </trkpt>
      <trkpt lat="45.56002" lon="4.84819">
        <ele>268.63406</ele>
        <time>2021-07-19T12:07:14Z</time>
      </trkpt>
      <trkpt lat="45.56001" lon="4.84812">
        <ele>268.7609</ele>
        <time>2021-07-19T12:07:15Z</time>
      </trkpt>
      <trkpt lat="45.56" lon="4.84805">
        <ele>268.7556</ele>
        <time>2021-07-19T12:07:16Z</time>
      </trkpt>
      <trkpt lat="45.55999" lon="4.84799">
        <ele>268.6129</ele>
        <time>2021-07-19T12:07:17Z</time>
      </trkpt>
      <trkpt lat="45.55998" lon="4.84792">
        <ele>268.43854</ele>
        <time>2021-07-19T12:07:18Z</time>
      </trkpt>
      <trkpt lat="45.55997" lon="4.84785">
        <ele>268.23242</ele>
        <time>2021-07-19T12:07:19Z</time>
      </trkpt>
      <trkpt lat="45.55995" lon="4.84777">
        <ele>268.0739</ele>
        <time>2021-07-19T12:07:20Z</time>
      </trkpt>
      <trkpt lat="45.55993" lon="4.84769">
        <ele>267.74625</ele>
        <time>2021-07-19T12:07:21Z</time>
      </trkpt>
      <trkpt lat="45.55993" lon="4.8476">
        <ele>267.62997</ele>
        <time>2021-07-19T12:07:22Z</time>
      </trkpt>
      <trkpt lat="45.55993" lon="4.84752">
        <ele>267.30234</ele>
        <time>2021-07-19T12:07:23Z</time>
      </trkpt>
      <trkpt lat="45.55993" lon="4.84742">
        <ele>266.7686</ele>
        <time>2021-07-19T12:07:24Z</time>
      </trkpt>
      <trkpt lat="45.55994" lon="4.84732">
        <ele>266.16086</ele>
        <time>2021-07-19T12:07:25Z</time>
      </trkpt>
      <trkpt lat="45.55996" lon="4.84721">
        <ele>265.9389</ele>
        <time>2021-07-19T12:07:26Z</time>
      </trkpt>
      <trkpt lat="45.55999" lon="4.8471">
        <ele>265.03522</ele>
        <time>2021-07-19T12:07:27Z</time>
      </trkpt>
      <trkpt lat="45.56004" lon="4.847">
        <ele>265.27304</ele>
        <time>2021-07-19T12:07:28Z</time>
      </trkpt>
      <trkpt lat="45.56009" lon="4.8469">
        <ele>264.78683</ele>
        <time>2021-07-19T12:07:29Z</time>
      </trkpt>
      <trkpt lat="45.56015" lon="4.84681">
        <ele>264.31125</ele>
        <time>2021-07-19T12:07:30Z</time>
      </trkpt>
      <trkpt lat="45.5602" lon="4.84672">
        <ele>263.8726</ele>
        <time>2021-07-19T12:07:31Z</time>
      </trkpt>
      <trkpt lat="45.56025" lon="4.84663">
        <ele>264.0153</ele>
        <time>2021-07-19T12:07:32Z</time>
      </trkpt>
      <trkpt lat="45.5603" lon="4.84654">
        <ele>264.047</ele>
        <time>2021-07-19T12:07:33Z</time>
      </trkpt>
      <trkpt lat="45.56034" lon="4.84647">
        <ele>263.9413</ele>
        <time>2021-07-19T12:07:34Z</time>
      </trkpt>
      <trkpt lat="45.56038" lon="4.84639">
        <ele>263.86203</ele>
        <time>2021-07-19T12:07:35Z</time>
      </trkpt>
      <trkpt lat="45.56042" lon="4.84633">
        <ele>263.45514</ele>
        <time>2021-07-19T12:07:36Z</time>
      </trkpt>
      <trkpt lat="45.56046" lon="4.84627">
        <ele>262.99536</ele>
        <time>2021-07-19T12:07:37Z</time>
      </trkpt>
      <trkpt lat="45.56049" lon="4.84621">
        <ele>262.636</ele>
        <time>2021-07-19T12:07:38Z</time>
      </trkpt>
      <trkpt lat="45.56052" lon="4.84613">
        <ele>262.72055</ele>
        <time>2021-07-19T12:07:39Z</time>
      </trkpt>
      <trkpt lat="45.56054" lon="4.84605">
        <ele>262.6413</ele>
        <time>2021-07-19T12:07:40Z</time>
      </trkpt>
      <trkpt lat="45.56056" lon="4.84597">
        <ele>262.18152</ele>
        <time>2021-07-19T12:07:41Z</time>
      </trkpt>
      <trkpt lat="45.56058" lon="4.84589">
        <ele>262.1974</ele>
        <time>2021-07-19T12:07:42Z</time>
      </trkpt>
      <trkpt lat="45.5606" lon="4.84582">
        <ele>262.599</ele>
        <time>2021-07-19T12:07:43Z</time>
      </trkpt>
      <trkpt lat="45.56061" lon="4.84574">
        <ele>262.7047</ele>
        <time>2021-07-19T12:07:44Z</time>
      </trkpt>
      <trkpt lat="45.56062" lon="4.84566">
        <ele>262.9425</ele>
        <time>2021-07-19T12:07:45Z</time>
      </trkpt>
      <trkpt lat="45.56062" lon="4.84558">
        <ele>262.95837</ele>
        <time>2021-07-19T12:07:46Z</time>
      </trkpt>
      <trkpt lat="45.56063" lon="4.84551">
        <ele>262.75226</ele>
        <time>2021-07-19T12:07:47Z</time>
      </trkpt>
      <trkpt lat="45.56063" lon="4.84544">
        <ele>262.82098</ele>
        <time>2021-07-19T12:07:48Z</time>
      </trkpt>
      <trkpt lat="45.56063" lon="4.84537">
        <ele>262.8791</ele>
        <time>2021-07-19T12:07:49Z</time>
      </trkpt>
      <trkpt lat="45.56064" lon="4.84531">
        <ele>262.86325</ele>
        <time>2021-07-19T12:07:50Z</time>
      </trkpt>
      <trkpt lat="45.56064" lon="4.84526">
        <ele>262.75226</ele>
        <time>2021-07-19T12:07:51Z</time>
      </trkpt>
      <trkpt lat="45.56064" lon="4.84521">
        <ele>262.86325</ele>
        <time>2021-07-19T12:07:52Z</time>
      </trkpt>
      <trkpt lat="45.56063" lon="4.84516">
        <ele>262.9425</ele>
        <time>2021-07-19T12:07:53Z</time>
      </trkpt>
      <trkpt lat="45.56061" lon="4.84512">
        <ele>263.02707</ele>
        <time>2021-07-19T12:07:54Z</time>
      </trkpt>
      <trkpt lat="45.56059" lon="4.84509">
        <ele>263.3864</ele>
        <time>2021-07-19T12:07:55Z</time>
      </trkpt>
      <trkpt lat="45.56055" lon="4.84506">
        <ele>263.49213</ele>
        <time>2021-07-19T12:07:56Z</time>
      </trkpt>
      <trkpt lat="45.56052" lon="4.84504">
        <ele>263.47626</ele>
        <time>2021-07-19T12:07:57Z</time>
      </trkpt>
      <trkpt lat="45.56048" lon="4.84503">
        <ele>263.8356</ele>
        <time>2021-07-19T12:07:58Z</time>
      </trkpt>
      <trkpt lat="45.56044" lon="4.84502">
        <ele>264.121</ele>
        <time>2021-07-19T12:07:59Z</time>
      </trkpt>
      <trkpt lat="45.5604" lon="4.845">
        <ele>264.3588</ele>
        <time>2021-07-19T12:08:00Z</time>
      </trkpt>
      <trkpt lat="45.56036" lon="4.84498">
        <ele>265.12506</ele>
        <time>2021-07-19T12:08:01Z</time>
      </trkpt>
      <trkpt lat="45.56032" lon="4.84497">
        <ele>264.72873</ele>
        <time>2021-07-19T12:08:02Z</time>
      </trkpt>
      <trkpt lat="45.56027" lon="4.84494">
        <ele>265.1462</ele>
        <time>2021-07-19T12:08:03Z</time>
      </trkpt>
      <trkpt lat="45.56023" lon="4.84492">
        <ele>265.24133</ele>
        <time>2021-07-19T12:08:04Z</time>
      </trkpt>
      <trkpt lat="45.56018" lon="4.84489">
        <ele>265.51083</ele>
        <time>2021-07-19T12:08:05Z</time>
      </trkpt>
      <trkpt lat="45.56015" lon="4.84487">
        <ele>265.85965</ele>
        <time>2021-07-19T12:08:06Z</time>
      </trkpt>
      <trkpt lat="45.56012" lon="4.84485">
        <ele>266.108</ele>
        <time>2021-07-19T12:08:07Z</time>
      </trkpt>
      <trkpt lat="45.56009" lon="4.84483">
        <ele>266.182</ele>
        <time>2021-07-19T12:08:08Z</time>
      </trkpt>
      <trkpt lat="45.56004" lon="4.84481">
        <ele>266.5255</ele>
        <time>2021-07-19T12:08:09Z</time>
      </trkpt>
      <trkpt lat="45.56001" lon="4.8448">
        <ele>266.71573</ele>
        <time>2021-07-19T12:08:10Z</time>
      </trkpt>
      <trkpt lat="45.55997" lon="4.84479">
        <ele>267.04868</ele>
        <time>2021-07-19T12:08:11Z</time>
      </trkpt>
      <trkpt lat="45.55993" lon="4.84478">
        <ele>267.24948</ele>
        <time>2021-07-19T12:08:12Z</time>
      </trkpt>
      <trkpt lat="45.5599" lon="4.84476">
        <ele>267.5877</ele>
        <time>2021-07-19T12:08:13Z</time>
      </trkpt>
      <trkpt lat="45.55986" lon="4.84476">
        <ele>267.6987</ele>
        <time>2021-07-19T12:08:14Z</time>
      </trkpt>
      <trkpt lat="45.55981" lon="4.84474">
        <ele>268.01578</ele>
        <time>2021-07-19T12:08:15Z</time>
      </trkpt>
      <trkpt lat="45.55977" lon="4.84472">
        <ele>268.2377</ele>
        <time>2021-07-19T12:08:16Z</time>
      </trkpt>
      <trkpt lat="45.55973" lon="4.8447">
        <ele>268.40155</ele>
        <time>2021-07-19T12:08:17Z</time>
      </trkpt>
      <trkpt lat="45.5597" lon="4.84468">
        <ele>268.63406</ele>
        <time>2021-07-19T12:08:18Z</time>
      </trkpt>
      <trkpt lat="45.55969" lon="4.84466">
        <ele>268.8613</ele>
        <time>2021-07-19T12:08:19Z</time>
      </trkpt>
      <trkpt lat="45.55969" lon="4.84462">
        <ele>269.17838</ele>
        <time>2021-07-19T12:08:20Z</time>
      </trkpt>
      <trkpt lat="45.55969" lon="4.84456">
        <ele>269.01987</ele>
        <time>2021-07-19T12:08:21Z</time>
      </trkpt>
      <trkpt lat="45.55969" lon="4.8445">
        <ele>268.8243</ele>
        <time>2021-07-19T12:08:22Z</time>
      </trkpt>
      <trkpt lat="45.5597" lon="4.84444">
        <ele>268.7239</ele>
        <time>2021-07-19T12:08:23Z</time>
      </trkpt>
      <trkpt lat="45.55972" lon="4.84438">
        <ele>268.94586</ele>
        <time>2021-07-19T12:08:24Z</time>
      </trkpt>
      <trkpt lat="45.55973" lon="4.84431">
        <ele>269.0674</ele>
        <time>2021-07-19T12:08:25Z</time>
      </trkpt>
      <trkpt lat="45.55975" lon="4.84424">
        <ele>268.99872</ele>
        <time>2021-07-19T12:08:26Z</time>
      </trkpt>
      <trkpt lat="45.55977" lon="4.84417">
        <ele>268.69748</ele>
        <time>2021-07-19T12:08:27Z</time>
      </trkpt>
      <trkpt lat="45.55978" lon="4.84409">
        <ele>268.63406</ele>
        <time>2021-07-19T12:08:28Z</time>
      </trkpt>
      <trkpt lat="45.5598" lon="4.84402">
        <ele>268.5918</ele>
        <time>2021-07-19T12:08:29Z</time>
      </trkpt>
      <trkpt lat="45.55981" lon="4.84396">
        <ele>268.50195</ele>
        <time>2021-07-19T12:08:30Z</time>
      </trkpt>
      <trkpt lat="45.55982" lon="4.84389">
        <ele>268.50723</ele>
        <time>2021-07-19T12:08:31Z</time>
      </trkpt>
      <trkpt lat="45.55983" lon="4.84382">
        <ele>268.3487</ele>
        <time>2021-07-19T12:08:32Z</time>
      </trkpt>
      <trkpt lat="45.55985" lon="4.84376">
        <ele>268.49667</ele>
        <time>2021-07-19T12:08:33Z</time>
      </trkpt>
      <trkpt lat="45.55986" lon="4.84369">
        <ele>268.2007</ele>
        <time>2021-07-19T12:08:34Z</time>
      </trkpt>
      <trkpt lat="45.55987" lon="4.84361">
        <ele>268.28</ele>
        <time>2021-07-19T12:08:35Z</time>
      </trkpt>
      <trkpt lat="45.55987" lon="4.84353">
        <ele>268.35397</ele>
        <time>2021-07-19T12:08:36Z</time>
      </trkpt>
      <trkpt lat="45.55987" lon="4.84345">
        <ele>268.43326</ele>
        <time>2021-07-19T12:08:37Z</time>
      </trkpt>
      <trkpt lat="45.55987" lon="4.84338">
        <ele>268.40155</ele>
        <time>2021-07-19T12:08:38Z</time>
      </trkpt>
      <trkpt lat="45.55986" lon="4.84331">
        <ele>268.3804</ele>
        <time>2021-07-19T12:08:39Z</time>
      </trkpt>
      <trkpt lat="45.55986" lon="4.84324">
        <ele>268.3487</ele>
        <time>2021-07-19T12:08:40Z</time>
      </trkpt>
      <trkpt lat="45.55987" lon="4.84317">
        <ele>268.0739</ele>
        <time>2021-07-19T12:08:41Z</time>
      </trkpt>
      <trkpt lat="45.55987" lon="4.8431">
        <ele>267.9048</ele>
        <time>2021-07-19T12:08:42Z</time>
      </trkpt>
      <trkpt lat="45.55987" lon="4.84303">
        <ele>267.67755</ele>
        <time>2021-07-19T12:08:43Z</time>
      </trkpt>
      <trkpt lat="45.55986" lon="4.84296">
        <ele>267.81494</ele>
        <time>2021-07-19T12:08:44Z</time>
      </trkpt>
      <trkpt lat="45.55986" lon="4.8429">
        <ele>267.56656</ele>
        <time>2021-07-19T12:08:45Z</time>
      </trkpt>
      <trkpt lat="45.55987" lon="4.84285">
        <ele>267.50845</ele>
        <time>2021-07-19T12:08:46Z</time>
      </trkpt>
      <trkpt lat="45.55989" lon="4.84283">
        <ele>267.53485</ele>
        <time>2021-07-19T12:08:47Z</time>
      </trkpt>
      <trkpt lat="45.55993" lon="4.84282">
        <ele>267.4556</ele>
        <time>2021-07-19T12:08:48Z</time>
      </trkpt>
      <trkpt lat="45.55996" lon="4.84281">
        <ele>266.9747</ele>
        <time>2021-07-19T12:08:49Z</time>
      </trkpt>
      <trkpt lat="45.56001" lon="4.84284">
        <ele>266.6999</ele>
        <time>2021-07-19T12:08:50Z</time>
      </trkpt>
      <trkpt lat="45.56005" lon="4.84289">
        <ele>266.77386</ele>
        <time>2021-07-19T12:08:51Z</time>
      </trkpt>
      <trkpt lat="45.5601" lon="4.84292">
        <ele>266.36694</ele>
        <time>2021-07-19T12:08:52Z</time>
      </trkpt>
      <trkpt lat="45.56015" lon="4.84295">
        <ele>266.31412</ele>
        <time>2021-07-19T12:08:53Z</time>
      </trkpt>
      <trkpt lat="45.5602" lon="4.84296">
        <ele>266.06046</ele>
        <time>2021-07-19T12:08:54Z</time>
      </trkpt>
      <trkpt lat="45.56024" lon="4.84296">
        <ele>265.56897</ele>
        <time>2021-07-19T12:08:55Z</time>
      </trkpt>
      <trkpt lat="45.56026" lon="4.84295">
        <ele>265.31003</ele>
        <time>2021-07-19T12:08:56Z</time>
      </trkpt>
      <trkpt lat="45.56028" lon="4.84292">
        <ele>265.2572</ele>
        <time>2021-07-19T12:08:57Z</time>
      </trkpt>
      <trkpt lat="45.5603" lon="4.8429">
        <ele>265.1462</ele>
        <time>2021-07-19T12:08:58Z</time>
      </trkpt>
      <trkpt lat="45.5603" lon="4.84289">
        <ele>264.92426</ele>
        <time>2021-07-19T12:08:59Z</time>
      </trkpt>
      <trkpt lat="45.56031" lon="4.84287">
        <ele>265.22546</ele>
        <time>2021-07-19T12:09:00Z</time>
      </trkpt>
      <trkpt lat="45.56031" lon="4.84285">
        <ele>264.9454</ele>
        <time>2021-07-19T12:09:01Z</time>
      </trkpt>
      <trkpt lat="45.56031" lon="4.84283">
        <ele>265.03522</ele>
        <time>2021-07-19T12:09:02Z</time>
      </trkpt>
      <trkpt lat="45.56031" lon="4.84282">
        <ele>265.10922</ele>
        <time>2021-07-19T12:09:03Z</time>
      </trkpt>
      <trkpt lat="45.56031" lon="4.84282">
        <ele>265.01938</ele>
        <time>2021-07-19T12:09:04Z</time>
      </trkpt>
      <trkpt lat="45.56031" lon="4.84282">
        <ele>265.09863</ele>
        <time>2021-07-19T12:09:05Z</time>
      </trkpt>
      <trkpt lat="45.56031" lon="4.84282">
        <ele>265.13562</ele>
        <time>2021-07-19T12:09:06Z</time>
      </trkpt>
      <trkpt lat="45.56031" lon="4.84282">
        <ele>265.13562</ele>
        <time>2021-07-19T12:09:06Z</time>
      </trkpt>
      <trkpt lat="45.56031" lon="4.84282">
        <ele>265.13562</ele>
        <time>2021-07-19T12:09:06Z</time>
      </trkpt>
    </trkseg>
  </trk>
</gpx>